<?xml version="1.0" encoding="UTF-8" standalone="no" ?>
<gpx xmlns="http://www.topografix.com/GPX/1/1" xmlns:xsi="http://www.w3.org/2001/XMLSchema-instance" xsi:schemaLocation="http://www.topografix.com/GPX/1/1 http://www.topografix.com/GPX/1/1/gpx.xsd" version="1.1" creator="VisuGPX - https://www.visugpx.com">
  <metadata>
    <name>boucle autour d 'ussel</name>
  </metadata>
  <trk>
    <name><![CDATA[2019-04-14-07-08-02 on GPSies.com]]></name>
    <trkseg>
      <trkpt lat="44.41475" lon="1.37714">
        <ele>297</ele>
        <time>2019-04-14T08:09:16Z</time>
      </trkpt>
      <trkpt lat="44.41475" lon="1.3771">
        <ele>297</ele>
        <time>2019-04-14T08:09:17Z</time>
      </trkpt>
      <trkpt lat="44.41475" lon="1.37708">
        <ele>297</ele>
        <time>2019-04-14T08:09:18Z</time>
      </trkpt>
      <trkpt lat="44.41475" lon="1.37703">
        <ele>297</ele>
        <time>2019-04-14T08:09:19Z</time>
      </trkpt>
      <trkpt lat="44.41475" lon="1.377">
        <ele>298</ele>
        <time>2019-04-14T08:09:20Z</time>
      </trkpt>
      <trkpt lat="44.41475" lon="1.37696">
        <ele>298</ele>
        <time>2019-04-14T08:09:21Z</time>
      </trkpt>
      <trkpt lat="44.41475" lon="1.37693">
        <ele>298</ele>
        <time>2019-04-14T08:09:22Z</time>
      </trkpt>
      <trkpt lat="44.41475" lon="1.37689">
        <ele>298</ele>
        <time>2019-04-14T08:09:23Z</time>
      </trkpt>
      <trkpt lat="44.41475" lon="1.37686">
        <ele>298</ele>
        <time>2019-04-14T08:09:24Z</time>
      </trkpt>
      <trkpt lat="44.41474" lon="1.37683">
        <ele>299</ele>
        <time>2019-04-14T08:09:25Z</time>
      </trkpt>
      <trkpt lat="44.41474" lon="1.37679">
        <ele>299</ele>
        <time>2019-04-14T08:09:26Z</time>
      </trkpt>
      <trkpt lat="44.41474" lon="1.37676">
        <ele>299</ele>
        <time>2019-04-14T08:09:27Z</time>
      </trkpt>
      <trkpt lat="44.41474" lon="1.37672">
        <ele>299</ele>
        <time>2019-04-14T08:09:28Z</time>
      </trkpt>
      <trkpt lat="44.41474" lon="1.37669">
        <ele>300</ele>
        <time>2019-04-14T08:09:29Z</time>
      </trkpt>
      <trkpt lat="44.41474" lon="1.37666">
        <ele>300</ele>
        <time>2019-04-14T08:09:30Z</time>
      </trkpt>
      <trkpt lat="44.41474" lon="1.37662">
        <ele>300</ele>
        <time>2019-04-14T08:09:31Z</time>
      </trkpt>
      <trkpt lat="44.41474" lon="1.37659">
        <ele>300</ele>
        <time>2019-04-14T08:09:32Z</time>
      </trkpt>
      <trkpt lat="44.41473" lon="1.37656">
        <ele>300</ele>
        <time>2019-04-14T08:09:33Z</time>
      </trkpt>
      <trkpt lat="44.41473" lon="1.37653">
        <ele>300</ele>
        <time>2019-04-14T08:09:34Z</time>
      </trkpt>
      <trkpt lat="44.41473" lon="1.3765">
        <ele>301</ele>
        <time>2019-04-14T08:09:35Z</time>
      </trkpt>
      <trkpt lat="44.41473" lon="1.37646">
        <ele>301</ele>
        <time>2019-04-14T08:09:36Z</time>
      </trkpt>
      <trkpt lat="44.41473" lon="1.37643">
        <ele>301</ele>
        <time>2019-04-14T08:09:37Z</time>
      </trkpt>
      <trkpt lat="44.41472" lon="1.3764">
        <ele>301</ele>
        <time>2019-04-14T08:09:38Z</time>
      </trkpt>
      <trkpt lat="44.41472" lon="1.37637">
        <ele>301</ele>
        <time>2019-04-14T08:09:39Z</time>
      </trkpt>
      <trkpt lat="44.41472" lon="1.37634">
        <ele>301</ele>
        <time>2019-04-14T08:09:40Z</time>
      </trkpt>
      <trkpt lat="44.41472" lon="1.37631">
        <ele>302</ele>
        <time>2019-04-14T08:09:41Z</time>
      </trkpt>
      <trkpt lat="44.41472" lon="1.37628">
        <ele>302</ele>
        <time>2019-04-14T08:09:42Z</time>
      </trkpt>
      <trkpt lat="44.41472" lon="1.37625">
        <ele>302</ele>
        <time>2019-04-14T08:09:43Z</time>
      </trkpt>
      <trkpt lat="44.41471" lon="1.37622">
        <ele>302</ele>
        <time>2019-04-14T08:09:44Z</time>
      </trkpt>
      <trkpt lat="44.41471" lon="1.37619">
        <ele>303</ele>
        <time>2019-04-14T08:09:45Z</time>
      </trkpt>
      <trkpt lat="44.41471" lon="1.37616">
        <ele>303</ele>
        <time>2019-04-14T08:09:46Z</time>
      </trkpt>
      <trkpt lat="44.41471" lon="1.37613">
        <ele>303</ele>
        <time>2019-04-14T08:09:47Z</time>
      </trkpt>
      <trkpt lat="44.41471" lon="1.3761">
        <ele>303</ele>
        <time>2019-04-14T08:09:48Z</time>
      </trkpt>
      <trkpt lat="44.4147" lon="1.37607">
        <ele>304</ele>
        <time>2019-04-14T08:09:49Z</time>
      </trkpt>
      <trkpt lat="44.4147" lon="1.37604">
        <ele>304</ele>
        <time>2019-04-14T08:09:50Z</time>
      </trkpt>
      <trkpt lat="44.4147" lon="1.37601">
        <ele>304</ele>
        <time>2019-04-14T08:09:51Z</time>
      </trkpt>
      <trkpt lat="44.4147" lon="1.37598">
        <ele>304</ele>
        <time>2019-04-14T08:09:52Z</time>
      </trkpt>
      <trkpt lat="44.41469" lon="1.37595">
        <ele>304</ele>
        <time>2019-04-14T08:09:53Z</time>
      </trkpt>
      <trkpt lat="44.41469" lon="1.37592">
        <ele>305</ele>
        <time>2019-04-14T08:09:54Z</time>
      </trkpt>
      <trkpt lat="44.41468" lon="1.37589">
        <ele>305</ele>
        <time>2019-04-14T08:09:55Z</time>
      </trkpt>
      <trkpt lat="44.41468" lon="1.37586">
        <ele>305</ele>
        <time>2019-04-14T08:09:56Z</time>
      </trkpt>
      <trkpt lat="44.41467" lon="1.37583">
        <ele>305</ele>
        <time>2019-04-14T08:09:57Z</time>
      </trkpt>
      <trkpt lat="44.41467" lon="1.37581">
        <ele>305</ele>
        <time>2019-04-14T08:09:58Z</time>
      </trkpt>
      <trkpt lat="44.41466" lon="1.37578">
        <ele>306</ele>
        <time>2019-04-14T08:09:59Z</time>
      </trkpt>
      <trkpt lat="44.41466" lon="1.37575">
        <ele>306</ele>
        <time>2019-04-14T08:10:00Z</time>
      </trkpt>
      <trkpt lat="44.41465" lon="1.37571">
        <ele>306</ele>
        <time>2019-04-14T08:10:01Z</time>
      </trkpt>
      <trkpt lat="44.41464" lon="1.37568">
        <ele>306</ele>
        <time>2019-04-14T08:10:02Z</time>
      </trkpt>
      <trkpt lat="44.41463" lon="1.37565">
        <ele>306</ele>
        <time>2019-04-14T08:10:03Z</time>
      </trkpt>
      <trkpt lat="44.41463" lon="1.37562">
        <ele>306</ele>
        <time>2019-04-14T08:10:04Z</time>
      </trkpt>
      <trkpt lat="44.41462" lon="1.37559">
        <ele>307</ele>
        <time>2019-04-14T08:10:05Z</time>
      </trkpt>
      <trkpt lat="44.41461" lon="1.37556">
        <ele>307</ele>
        <time>2019-04-14T08:10:06Z</time>
      </trkpt>
      <trkpt lat="44.4146" lon="1.37552">
        <ele>307</ele>
        <time>2019-04-14T08:10:07Z</time>
      </trkpt>
      <trkpt lat="44.4146" lon="1.37549">
        <ele>307</ele>
        <time>2019-04-14T08:10:08Z</time>
      </trkpt>
      <trkpt lat="44.41459" lon="1.37546">
        <ele>307</ele>
        <time>2019-04-14T08:10:09Z</time>
      </trkpt>
      <trkpt lat="44.41458" lon="1.37543">
        <ele>307</ele>
        <time>2019-04-14T08:10:10Z</time>
      </trkpt>
      <trkpt lat="44.41457" lon="1.3754">
        <ele>307</ele>
        <time>2019-04-14T08:10:11Z</time>
      </trkpt>
      <trkpt lat="44.41456" lon="1.37537">
        <ele>308</ele>
        <time>2019-04-14T08:10:12Z</time>
      </trkpt>
      <trkpt lat="44.41455" lon="1.37535">
        <ele>308</ele>
        <time>2019-04-14T08:10:13Z</time>
      </trkpt>
      <trkpt lat="44.41454" lon="1.37532">
        <ele>308</ele>
        <time>2019-04-14T08:10:14Z</time>
      </trkpt>
      <trkpt lat="44.41454" lon="1.37529">
        <ele>308</ele>
        <time>2019-04-14T08:10:15Z</time>
      </trkpt>
      <trkpt lat="44.41453" lon="1.37526">
        <ele>308</ele>
        <time>2019-04-14T08:10:16Z</time>
      </trkpt>
      <trkpt lat="44.41452" lon="1.37523">
        <ele>308</ele>
        <time>2019-04-14T08:10:17Z</time>
      </trkpt>
      <trkpt lat="44.41452" lon="1.3752">
        <ele>308</ele>
        <time>2019-04-14T08:10:18Z</time>
      </trkpt>
      <trkpt lat="44.41451" lon="1.37516">
        <ele>308</ele>
        <time>2019-04-14T08:10:19Z</time>
      </trkpt>
      <trkpt lat="44.41451" lon="1.37512">
        <ele>308</ele>
        <time>2019-04-14T08:10:20Z</time>
      </trkpt>
      <trkpt lat="44.41451" lon="1.37509">
        <ele>308</ele>
        <time>2019-04-14T08:10:21Z</time>
      </trkpt>
      <trkpt lat="44.4145" lon="1.37505">
        <ele>309</ele>
        <time>2019-04-14T08:10:22Z</time>
      </trkpt>
      <trkpt lat="44.41449" lon="1.37501">
        <ele>309</ele>
        <time>2019-04-14T08:10:23Z</time>
      </trkpt>
      <trkpt lat="44.41449" lon="1.37497">
        <ele>309</ele>
        <time>2019-04-14T08:10:24Z</time>
      </trkpt>
      <trkpt lat="44.41448" lon="1.37494">
        <ele>309</ele>
        <time>2019-04-14T08:10:25Z</time>
      </trkpt>
      <trkpt lat="44.41448" lon="1.3749">
        <ele>309</ele>
        <time>2019-04-14T08:10:26Z</time>
      </trkpt>
      <trkpt lat="44.41447" lon="1.37486">
        <ele>309</ele>
        <time>2019-04-14T08:10:27Z</time>
      </trkpt>
      <trkpt lat="44.41446" lon="1.37483">
        <ele>309</ele>
        <time>2019-04-14T08:10:28Z</time>
      </trkpt>
      <trkpt lat="44.41445" lon="1.37479">
        <ele>309</ele>
        <time>2019-04-14T08:10:29Z</time>
      </trkpt>
      <trkpt lat="44.41445" lon="1.37476">
        <ele>310</ele>
        <time>2019-04-14T08:10:30Z</time>
      </trkpt>
      <trkpt lat="44.41444" lon="1.37472">
        <ele>310</ele>
        <time>2019-04-14T08:10:31Z</time>
      </trkpt>
      <trkpt lat="44.41444" lon="1.37468">
        <ele>310</ele>
        <time>2019-04-14T08:10:32Z</time>
      </trkpt>
      <trkpt lat="44.41444" lon="1.37465">
        <ele>310</ele>
        <time>2019-04-14T08:10:33Z</time>
      </trkpt>
      <trkpt lat="44.41443" lon="1.37462">
        <ele>310</ele>
        <time>2019-04-14T08:10:34Z</time>
      </trkpt>
      <trkpt lat="44.41443" lon="1.37459">
        <ele>310</ele>
        <time>2019-04-14T08:10:35Z</time>
      </trkpt>
      <trkpt lat="44.41442" lon="1.37456">
        <ele>310</ele>
        <time>2019-04-14T08:10:36Z</time>
      </trkpt>
      <trkpt lat="44.41442" lon="1.37453">
        <ele>311</ele>
        <time>2019-04-14T08:10:37Z</time>
      </trkpt>
      <trkpt lat="44.41441" lon="1.37449">
        <ele>311</ele>
        <time>2019-04-14T08:10:38Z</time>
      </trkpt>
      <trkpt lat="44.41441" lon="1.37446">
        <ele>311</ele>
        <time>2019-04-14T08:10:39Z</time>
      </trkpt>
      <trkpt lat="44.4144" lon="1.37443">
        <ele>311</ele>
        <time>2019-04-14T08:10:40Z</time>
      </trkpt>
      <trkpt lat="44.4144" lon="1.37439">
        <ele>311</ele>
        <time>2019-04-14T08:10:41Z</time>
      </trkpt>
      <trkpt lat="44.41439" lon="1.37436">
        <ele>311</ele>
        <time>2019-04-14T08:10:42Z</time>
      </trkpt>
      <trkpt lat="44.41439" lon="1.37433">
        <ele>311</ele>
        <time>2019-04-14T08:10:43Z</time>
      </trkpt>
      <trkpt lat="44.41438" lon="1.3743">
        <ele>311</ele>
        <time>2019-04-14T08:10:44Z</time>
      </trkpt>
      <trkpt lat="44.41438" lon="1.37426">
        <ele>312</ele>
        <time>2019-04-14T08:10:45Z</time>
      </trkpt>
      <trkpt lat="44.41437" lon="1.37423">
        <ele>312</ele>
        <time>2019-04-14T08:10:46Z</time>
      </trkpt>
      <trkpt lat="44.41437" lon="1.3742">
        <ele>312</ele>
        <time>2019-04-14T08:10:47Z</time>
      </trkpt>
      <trkpt lat="44.41436" lon="1.37417">
        <ele>312</ele>
        <time>2019-04-14T08:10:48Z</time>
      </trkpt>
      <trkpt lat="44.41436" lon="1.37414">
        <ele>312</ele>
        <time>2019-04-14T08:10:49Z</time>
      </trkpt>
      <trkpt lat="44.41436" lon="1.37411">
        <ele>312</ele>
        <time>2019-04-14T08:10:50Z</time>
      </trkpt>
      <trkpt lat="44.41435" lon="1.37408">
        <ele>312</ele>
        <time>2019-04-14T08:10:51Z</time>
      </trkpt>
      <trkpt lat="44.41434" lon="1.37405">
        <ele>313</ele>
        <time>2019-04-14T08:10:52Z</time>
      </trkpt>
      <trkpt lat="44.41434" lon="1.37401">
        <ele>313</ele>
        <time>2019-04-14T08:10:53Z</time>
      </trkpt>
      <trkpt lat="44.41433" lon="1.37398">
        <ele>313</ele>
        <time>2019-04-14T08:10:54Z</time>
      </trkpt>
      <trkpt lat="44.41433" lon="1.37395">
        <ele>313</ele>
        <time>2019-04-14T08:10:55Z</time>
      </trkpt>
      <trkpt lat="44.41432" lon="1.37392">
        <ele>313</ele>
        <time>2019-04-14T08:10:56Z</time>
      </trkpt>
      <trkpt lat="44.41431" lon="1.37389">
        <ele>313</ele>
        <time>2019-04-14T08:10:57Z</time>
      </trkpt>
      <trkpt lat="44.41431" lon="1.37386">
        <ele>313</ele>
        <time>2019-04-14T08:10:58Z</time>
      </trkpt>
      <trkpt lat="44.4143" lon="1.37383">
        <ele>314</ele>
        <time>2019-04-14T08:10:59Z</time>
      </trkpt>
      <trkpt lat="44.4143" lon="1.37379">
        <ele>314</ele>
        <time>2019-04-14T08:11:00Z</time>
      </trkpt>
      <trkpt lat="44.41429" lon="1.37376">
        <ele>314</ele>
        <time>2019-04-14T08:11:01Z</time>
      </trkpt>
      <trkpt lat="44.41429" lon="1.37373">
        <ele>314</ele>
        <time>2019-04-14T08:11:02Z</time>
      </trkpt>
      <trkpt lat="44.41428" lon="1.3737">
        <ele>314</ele>
        <time>2019-04-14T08:11:03Z</time>
      </trkpt>
      <trkpt lat="44.41428" lon="1.37367">
        <ele>314</ele>
        <time>2019-04-14T08:11:04Z</time>
      </trkpt>
      <trkpt lat="44.41427" lon="1.37363">
        <ele>314</ele>
        <time>2019-04-14T08:11:05Z</time>
      </trkpt>
      <trkpt lat="44.41426" lon="1.3736">
        <ele>314</ele>
        <time>2019-04-14T08:11:06Z</time>
      </trkpt>
      <trkpt lat="44.41426" lon="1.37357">
        <ele>315</ele>
        <time>2019-04-14T08:11:07Z</time>
      </trkpt>
      <trkpt lat="44.41426" lon="1.37353">
        <ele>315</ele>
        <time>2019-04-14T08:11:08Z</time>
      </trkpt>
      <trkpt lat="44.41425" lon="1.3735">
        <ele>315</ele>
        <time>2019-04-14T08:11:09Z</time>
      </trkpt>
      <trkpt lat="44.41424" lon="1.37347">
        <ele>315</ele>
        <time>2019-04-14T08:11:10Z</time>
      </trkpt>
      <trkpt lat="44.41424" lon="1.37344">
        <ele>315</ele>
        <time>2019-04-14T08:11:11Z</time>
      </trkpt>
      <trkpt lat="44.41423" lon="1.3734">
        <ele>315</ele>
        <time>2019-04-14T08:11:12Z</time>
      </trkpt>
      <trkpt lat="44.41423" lon="1.37337">
        <ele>315</ele>
        <time>2019-04-14T08:11:13Z</time>
      </trkpt>
      <trkpt lat="44.41422" lon="1.37334">
        <ele>316</ele>
        <time>2019-04-14T08:11:14Z</time>
      </trkpt>
      <trkpt lat="44.41422" lon="1.37331">
        <ele>316</ele>
        <time>2019-04-14T08:11:15Z</time>
      </trkpt>
      <trkpt lat="44.41421" lon="1.37327">
        <ele>316</ele>
        <time>2019-04-14T08:11:16Z</time>
      </trkpt>
      <trkpt lat="44.41421" lon="1.37324">
        <ele>316</ele>
        <time>2019-04-14T08:11:17Z</time>
      </trkpt>
      <trkpt lat="44.4142" lon="1.37321">
        <ele>316</ele>
        <time>2019-04-14T08:11:18Z</time>
      </trkpt>
      <trkpt lat="44.41419" lon="1.37318">
        <ele>316</ele>
        <time>2019-04-14T08:11:19Z</time>
      </trkpt>
      <trkpt lat="44.41419" lon="1.37315">
        <ele>316</ele>
        <time>2019-04-14T08:11:20Z</time>
      </trkpt>
      <trkpt lat="44.41418" lon="1.37311">
        <ele>316</ele>
        <time>2019-04-14T08:11:21Z</time>
      </trkpt>
      <trkpt lat="44.41418" lon="1.37308">
        <ele>317</ele>
        <time>2019-04-14T08:11:22Z</time>
      </trkpt>
      <trkpt lat="44.41417" lon="1.37305">
        <ele>317</ele>
        <time>2019-04-14T08:11:23Z</time>
      </trkpt>
      <trkpt lat="44.41417" lon="1.37301">
        <ele>317</ele>
        <time>2019-04-14T08:11:24Z</time>
      </trkpt>
      <trkpt lat="44.41416" lon="1.37298">
        <ele>317</ele>
        <time>2019-04-14T08:11:25Z</time>
      </trkpt>
      <trkpt lat="44.41416" lon="1.37295">
        <ele>317</ele>
        <time>2019-04-14T08:11:26Z</time>
      </trkpt>
      <trkpt lat="44.41415" lon="1.37291">
        <ele>317</ele>
        <time>2019-04-14T08:11:27Z</time>
      </trkpt>
      <trkpt lat="44.41414" lon="1.37288">
        <ele>317</ele>
        <time>2019-04-14T08:11:28Z</time>
      </trkpt>
      <trkpt lat="44.41414" lon="1.37284">
        <ele>317</ele>
        <time>2019-04-14T08:11:29Z</time>
      </trkpt>
      <trkpt lat="44.41413" lon="1.37281">
        <ele>318</ele>
        <time>2019-04-14T08:11:30Z</time>
      </trkpt>
      <trkpt lat="44.41413" lon="1.37277">
        <ele>318</ele>
        <time>2019-04-14T08:11:31Z</time>
      </trkpt>
      <trkpt lat="44.41412" lon="1.37274">
        <ele>318</ele>
        <time>2019-04-14T08:11:32Z</time>
      </trkpt>
      <trkpt lat="44.41412" lon="1.37271">
        <ele>318</ele>
        <time>2019-04-14T08:11:33Z</time>
      </trkpt>
      <trkpt lat="44.41411" lon="1.37267">
        <ele>318</ele>
        <time>2019-04-14T08:11:34Z</time>
      </trkpt>
      <trkpt lat="44.41411" lon="1.37264">
        <ele>318</ele>
        <time>2019-04-14T08:11:35Z</time>
      </trkpt>
      <trkpt lat="44.4141" lon="1.37261">
        <ele>318</ele>
        <time>2019-04-14T08:11:36Z</time>
      </trkpt>
      <trkpt lat="44.4141" lon="1.37257">
        <ele>318</ele>
        <time>2019-04-14T08:11:37Z</time>
      </trkpt>
      <trkpt lat="44.41409" lon="1.37254">
        <ele>318</ele>
        <time>2019-04-14T08:11:38Z</time>
      </trkpt>
      <trkpt lat="44.41409" lon="1.3725">
        <ele>318</ele>
        <time>2019-04-14T08:11:39Z</time>
      </trkpt>
      <trkpt lat="44.41408" lon="1.37247">
        <ele>318</ele>
        <time>2019-04-14T08:11:40Z</time>
      </trkpt>
      <trkpt lat="44.41408" lon="1.37244">
        <ele>318</ele>
        <time>2019-04-14T08:11:41Z</time>
      </trkpt>
      <trkpt lat="44.41407" lon="1.3724">
        <ele>319</ele>
        <time>2019-04-14T08:11:42Z</time>
      </trkpt>
      <trkpt lat="44.41407" lon="1.37237">
        <ele>319</ele>
        <time>2019-04-14T08:11:43Z</time>
      </trkpt>
      <trkpt lat="44.41407" lon="1.37234">
        <ele>319</ele>
        <time>2019-04-14T08:11:44Z</time>
      </trkpt>
      <trkpt lat="44.41406" lon="1.37231">
        <ele>319</ele>
        <time>2019-04-14T08:11:45Z</time>
      </trkpt>
      <trkpt lat="44.41406" lon="1.37228">
        <ele>319</ele>
        <time>2019-04-14T08:11:46Z</time>
      </trkpt>
      <trkpt lat="44.41406" lon="1.37226">
        <ele>319</ele>
        <time>2019-04-14T08:11:47Z</time>
      </trkpt>
      <trkpt lat="44.41406" lon="1.37224">
        <ele>319</ele>
        <time>2019-04-14T08:11:48Z</time>
      </trkpt>
      <trkpt lat="44.41405" lon="1.37221">
        <ele>319</ele>
        <time>2019-04-14T08:11:49Z</time>
      </trkpt>
      <trkpt lat="44.41406" lon="1.37219">
        <ele>319</ele>
        <time>2019-04-14T08:11:50Z</time>
      </trkpt>
      <trkpt lat="44.41407" lon="1.37216">
        <ele>319</ele>
        <time>2019-04-14T08:11:51Z</time>
      </trkpt>
      <trkpt lat="44.41408" lon="1.37214">
        <ele>319</ele>
        <time>2019-04-14T08:11:52Z</time>
      </trkpt>
      <trkpt lat="44.4141" lon="1.37213">
        <ele>319</ele>
        <time>2019-04-14T08:11:53Z</time>
      </trkpt>
      <trkpt lat="44.41412" lon="1.37212">
        <ele>319</ele>
        <time>2019-04-14T08:11:54Z</time>
      </trkpt>
      <trkpt lat="44.41414" lon="1.37211">
        <ele>320</ele>
        <time>2019-04-14T08:11:55Z</time>
      </trkpt>
      <trkpt lat="44.41416" lon="1.3721">
        <ele>320</ele>
        <time>2019-04-14T08:11:56Z</time>
      </trkpt>
      <trkpt lat="44.41417" lon="1.3721">
        <ele>320</ele>
        <time>2019-04-14T08:11:57Z</time>
      </trkpt>
      <trkpt lat="44.41419" lon="1.37209">
        <ele>320</ele>
        <time>2019-04-14T08:11:58Z</time>
      </trkpt>
      <trkpt lat="44.4142" lon="1.37208">
        <ele>320</ele>
        <time>2019-04-14T08:11:59Z</time>
      </trkpt>
      <trkpt lat="44.41421" lon="1.37208">
        <ele>320</ele>
        <time>2019-04-14T08:12:00Z</time>
      </trkpt>
      <trkpt lat="44.41422" lon="1.37207">
        <ele>320</ele>
        <time>2019-04-14T08:12:01Z</time>
      </trkpt>
      <trkpt lat="44.41423" lon="1.37206">
        <ele>320</ele>
        <time>2019-04-14T08:12:02Z</time>
      </trkpt>
      <trkpt lat="44.41424" lon="1.37206">
        <ele>320</ele>
        <time>2019-04-14T08:12:03Z</time>
      </trkpt>
      <trkpt lat="44.41425" lon="1.37205">
        <ele>320</ele>
        <time>2019-04-14T08:12:04Z</time>
      </trkpt>
      <trkpt lat="44.41426" lon="1.37204">
        <ele>320</ele>
        <time>2019-04-14T08:12:05Z</time>
      </trkpt>
      <trkpt lat="44.41427" lon="1.37204">
        <ele>320</ele>
        <time>2019-04-14T08:12:06Z</time>
      </trkpt>
      <trkpt lat="44.41427" lon="1.37204">
        <ele>320</ele>
        <time>2019-04-14T08:12:07Z</time>
      </trkpt>
      <trkpt lat="44.41428" lon="1.37204">
        <ele>320</ele>
        <time>2019-04-14T08:12:08Z</time>
      </trkpt>
      <trkpt lat="44.41429" lon="1.37203">
        <ele>320</ele>
        <time>2019-04-14T08:12:09Z</time>
      </trkpt>
      <trkpt lat="44.4143" lon="1.37203">
        <ele>320</ele>
        <time>2019-04-14T08:12:10Z</time>
      </trkpt>
      <trkpt lat="44.41431" lon="1.37203">
        <ele>320</ele>
        <time>2019-04-14T08:12:11Z</time>
      </trkpt>
      <trkpt lat="44.41431" lon="1.37203">
        <ele>320</ele>
        <time>2019-04-14T08:12:12Z</time>
      </trkpt>
      <trkpt lat="44.41432" lon="1.37202">
        <ele>320</ele>
        <time>2019-04-14T08:12:13Z</time>
      </trkpt>
      <trkpt lat="44.41433" lon="1.37202">
        <ele>320</ele>
        <time>2019-04-14T08:12:14Z</time>
      </trkpt>
      <trkpt lat="44.41433" lon="1.37202">
        <ele>320</ele>
        <time>2019-04-14T08:12:15Z</time>
      </trkpt>
      <trkpt lat="44.41433" lon="1.37201">
        <ele>320</ele>
        <time>2019-04-14T08:12:16Z</time>
      </trkpt>
      <trkpt lat="44.41434" lon="1.37201">
        <ele>320</ele>
        <time>2019-04-14T08:12:17Z</time>
      </trkpt>
      <trkpt lat="44.41434" lon="1.37201">
        <ele>320</ele>
        <time>2019-04-14T08:12:18Z</time>
      </trkpt>
      <trkpt lat="44.41435" lon="1.37201">
        <ele>320</ele>
        <time>2019-04-14T08:12:19Z</time>
      </trkpt>
      <trkpt lat="44.41438" lon="1.37183">
        <ele>320</ele>
        <time>2019-04-14T08:12:36Z</time>
      </trkpt>
      <trkpt lat="44.41437" lon="1.37182">
        <ele>320</ele>
        <time>2019-04-14T08:12:37Z</time>
      </trkpt>
      <trkpt lat="44.41436" lon="1.37181">
        <ele>320</ele>
        <time>2019-04-14T08:12:38Z</time>
      </trkpt>
      <trkpt lat="44.41435" lon="1.3718">
        <ele>320</ele>
        <time>2019-04-14T08:12:39Z</time>
      </trkpt>
      <trkpt lat="44.41434" lon="1.37179">
        <ele>320</ele>
        <time>2019-04-14T08:12:40Z</time>
      </trkpt>
      <trkpt lat="44.41433" lon="1.37178">
        <ele>320</ele>
        <time>2019-04-14T08:12:41Z</time>
      </trkpt>
      <trkpt lat="44.41433" lon="1.37177">
        <ele>320</ele>
        <time>2019-04-14T08:12:42Z</time>
      </trkpt>
      <trkpt lat="44.41432" lon="1.37176">
        <ele>320</ele>
        <time>2019-04-14T08:12:43Z</time>
      </trkpt>
      <trkpt lat="44.41431" lon="1.37176">
        <ele>320</ele>
        <time>2019-04-14T08:12:44Z</time>
      </trkpt>
      <trkpt lat="44.4143" lon="1.37176">
        <ele>320</ele>
        <time>2019-04-14T08:12:45Z</time>
      </trkpt>
      <trkpt lat="44.41429" lon="1.37176">
        <ele>320</ele>
        <time>2019-04-14T08:12:46Z</time>
      </trkpt>
      <trkpt lat="44.41429" lon="1.37176">
        <ele>320</ele>
        <time>2019-04-14T08:12:47Z</time>
      </trkpt>
      <trkpt lat="44.41428" lon="1.37176">
        <ele>320</ele>
        <time>2019-04-14T08:12:48Z</time>
      </trkpt>
      <trkpt lat="44.41427" lon="1.37176">
        <ele>320</ele>
        <time>2019-04-14T08:12:49Z</time>
      </trkpt>
      <trkpt lat="44.41427" lon="1.37177">
        <ele>320</ele>
        <time>2019-04-14T08:12:50Z</time>
      </trkpt>
      <trkpt lat="44.41427" lon="1.37177">
        <ele>320</ele>
        <time>2019-04-14T08:12:51Z</time>
      </trkpt>
      <trkpt lat="44.41427" lon="1.37178">
        <ele>320</ele>
        <time>2019-04-14T08:12:52Z</time>
      </trkpt>
      <trkpt lat="44.41427" lon="1.37178">
        <ele>320</ele>
        <time>2019-04-14T08:12:53Z</time>
      </trkpt>
      <trkpt lat="44.41427" lon="1.37177">
        <ele>319</ele>
        <time>2019-04-14T08:12:54Z</time>
      </trkpt>
      <trkpt lat="44.41427" lon="1.37177">
        <ele>320</ele>
        <time>2019-04-14T08:12:55Z</time>
      </trkpt>
      <trkpt lat="44.41426" lon="1.37177">
        <ele>320</ele>
        <time>2019-04-14T08:12:56Z</time>
      </trkpt>
      <trkpt lat="44.41426" lon="1.37177">
        <ele>320</ele>
        <time>2019-04-14T08:12:57Z</time>
      </trkpt>
      <trkpt lat="44.41426" lon="1.37177">
        <ele>319</ele>
        <time>2019-04-14T08:12:58Z</time>
      </trkpt>
      <trkpt lat="44.41433" lon="1.37165">
        <ele>316</ele>
        <time>2019-04-14T08:23:13Z</time>
      </trkpt>
      <trkpt lat="44.41433" lon="1.37165">
        <ele>316</ele>
        <time>2019-04-14T08:23:14Z</time>
      </trkpt>
      <trkpt lat="44.41433" lon="1.37165">
        <ele>316</ele>
        <time>2019-04-14T08:23:15Z</time>
      </trkpt>
      <trkpt lat="44.41433" lon="1.37165">
        <ele>316</ele>
        <time>2019-04-14T08:23:16Z</time>
      </trkpt>
      <trkpt lat="44.41433" lon="1.37165">
        <ele>316</ele>
        <time>2019-04-14T08:23:17Z</time>
      </trkpt>
      <trkpt lat="44.41435" lon="1.37176">
        <ele>315</ele>
        <time>2019-04-14T08:26:11Z</time>
      </trkpt>
      <trkpt lat="44.41436" lon="1.37177">
        <ele>315</ele>
        <time>2019-04-14T08:26:12Z</time>
      </trkpt>
      <trkpt lat="44.41436" lon="1.37178">
        <ele>315</ele>
        <time>2019-04-14T08:26:13Z</time>
      </trkpt>
      <trkpt lat="44.41436" lon="1.37179">
        <ele>315</ele>
        <time>2019-04-14T08:26:14Z</time>
      </trkpt>
      <trkpt lat="44.41437" lon="1.3718">
        <ele>315</ele>
        <time>2019-04-14T08:26:15Z</time>
      </trkpt>
      <trkpt lat="44.41437" lon="1.37182">
        <ele>315</ele>
        <time>2019-04-14T08:26:16Z</time>
      </trkpt>
      <trkpt lat="44.41439" lon="1.37184">
        <ele>315</ele>
        <time>2019-04-14T08:26:17Z</time>
      </trkpt>
      <trkpt lat="44.41439" lon="1.37185">
        <ele>315</ele>
        <time>2019-04-14T08:26:18Z</time>
      </trkpt>
      <trkpt lat="44.4144" lon="1.37186">
        <ele>315</ele>
        <time>2019-04-14T08:26:19Z</time>
      </trkpt>
      <trkpt lat="44.4144" lon="1.37187">
        <ele>315</ele>
        <time>2019-04-14T08:26:21Z</time>
      </trkpt>
      <trkpt lat="44.4144" lon="1.37189">
        <ele>315</ele>
        <time>2019-04-14T08:26:22Z</time>
      </trkpt>
      <trkpt lat="44.41441" lon="1.3719">
        <ele>316</ele>
        <time>2019-04-14T08:26:24Z</time>
      </trkpt>
      <trkpt lat="44.41439" lon="1.37192">
        <ele>316</ele>
        <time>2019-04-14T08:26:25Z</time>
      </trkpt>
      <trkpt lat="44.41438" lon="1.37193">
        <ele>316</ele>
        <time>2019-04-14T08:26:26Z</time>
      </trkpt>
      <trkpt lat="44.41437" lon="1.37194">
        <ele>316</ele>
        <time>2019-04-14T08:26:27Z</time>
      </trkpt>
      <trkpt lat="44.41436" lon="1.37194">
        <ele>315</ele>
        <time>2019-04-14T08:26:28Z</time>
      </trkpt>
      <trkpt lat="44.41434" lon="1.37195">
        <ele>315</ele>
        <time>2019-04-14T08:26:30Z</time>
      </trkpt>
      <trkpt lat="44.41432" lon="1.37196">
        <ele>315</ele>
        <time>2019-04-14T08:26:31Z</time>
      </trkpt>
      <trkpt lat="44.4143" lon="1.37197">
        <ele>315</ele>
        <time>2019-04-14T08:26:32Z</time>
      </trkpt>
      <trkpt lat="44.41428" lon="1.37198">
        <ele>315</ele>
        <time>2019-04-14T08:26:33Z</time>
      </trkpt>
      <trkpt lat="44.41426" lon="1.37199">
        <ele>315</ele>
        <time>2019-04-14T08:26:34Z</time>
      </trkpt>
      <trkpt lat="44.41425" lon="1.372">
        <ele>315</ele>
        <time>2019-04-14T08:26:35Z</time>
      </trkpt>
      <trkpt lat="44.41423" lon="1.37201">
        <ele>315</ele>
        <time>2019-04-14T08:26:36Z</time>
      </trkpt>
      <trkpt lat="44.41421" lon="1.37202">
        <ele>315</ele>
        <time>2019-04-14T08:26:37Z</time>
      </trkpt>
      <trkpt lat="44.41419" lon="1.37203">
        <ele>315</ele>
        <time>2019-04-14T08:26:38Z</time>
      </trkpt>
      <trkpt lat="44.41417" lon="1.37204">
        <ele>315</ele>
        <time>2019-04-14T08:26:39Z</time>
      </trkpt>
      <trkpt lat="44.41414" lon="1.37205">
        <ele>315</ele>
        <time>2019-04-14T08:26:40Z</time>
      </trkpt>
      <trkpt lat="44.41412" lon="1.37206">
        <ele>315</ele>
        <time>2019-04-14T08:26:41Z</time>
      </trkpt>
      <trkpt lat="44.41409" lon="1.37206">
        <ele>315</ele>
        <time>2019-04-14T08:26:42Z</time>
      </trkpt>
      <trkpt lat="44.41407" lon="1.37207">
        <ele>314</ele>
        <time>2019-04-14T08:26:43Z</time>
      </trkpt>
      <trkpt lat="44.41406" lon="1.37207">
        <ele>314</ele>
        <time>2019-04-14T08:26:44Z</time>
      </trkpt>
      <trkpt lat="44.41405" lon="1.37207">
        <ele>314</ele>
        <time>2019-04-14T08:26:45Z</time>
      </trkpt>
      <trkpt lat="44.41404" lon="1.37206">
        <ele>314</ele>
        <time>2019-04-14T08:26:46Z</time>
      </trkpt>
      <trkpt lat="44.41403" lon="1.37204">
        <ele>314</ele>
        <time>2019-04-14T08:26:47Z</time>
      </trkpt>
      <trkpt lat="44.41403" lon="1.37202">
        <ele>314</ele>
        <time>2019-04-14T08:26:48Z</time>
      </trkpt>
      <trkpt lat="44.41402" lon="1.37199">
        <ele>314</ele>
        <time>2019-04-14T08:26:49Z</time>
      </trkpt>
      <trkpt lat="44.41402" lon="1.37196">
        <ele>314</ele>
        <time>2019-04-14T08:26:50Z</time>
      </trkpt>
      <trkpt lat="44.41402" lon="1.37192">
        <ele>314</ele>
        <time>2019-04-14T08:26:51Z</time>
      </trkpt>
      <trkpt lat="44.41401" lon="1.37189">
        <ele>314</ele>
        <time>2019-04-14T08:26:52Z</time>
      </trkpt>
      <trkpt lat="44.41401" lon="1.37185">
        <ele>314</ele>
        <time>2019-04-14T08:26:53Z</time>
      </trkpt>
      <trkpt lat="44.41401" lon="1.37181">
        <ele>314</ele>
        <time>2019-04-14T08:26:54Z</time>
      </trkpt>
      <trkpt lat="44.41401" lon="1.37178">
        <ele>314</ele>
        <time>2019-04-14T08:26:55Z</time>
      </trkpt>
      <trkpt lat="44.414" lon="1.37174">
        <ele>314</ele>
        <time>2019-04-14T08:26:56Z</time>
      </trkpt>
      <trkpt lat="44.41399" lon="1.37165">
        <ele>314</ele>
        <time>2019-04-14T08:26:57Z</time>
      </trkpt>
      <trkpt lat="44.41399" lon="1.37161">
        <ele>314</ele>
        <time>2019-04-14T08:26:58Z</time>
      </trkpt>
      <trkpt lat="44.41399" lon="1.37157">
        <ele>314</ele>
        <time>2019-04-14T08:26:59Z</time>
      </trkpt>
      <trkpt lat="44.41399" lon="1.37152">
        <ele>314</ele>
        <time>2019-04-14T08:27:01Z</time>
      </trkpt>
      <trkpt lat="44.41398" lon="1.37148">
        <ele>313</ele>
        <time>2019-04-14T08:27:02Z</time>
      </trkpt>
      <trkpt lat="44.41398" lon="1.37143">
        <ele>313</ele>
        <time>2019-04-14T08:27:03Z</time>
      </trkpt>
      <trkpt lat="44.41397" lon="1.37137">
        <ele>313</ele>
        <time>2019-04-14T08:27:04Z</time>
      </trkpt>
      <trkpt lat="44.41397" lon="1.37132">
        <ele>313</ele>
        <time>2019-04-14T08:27:05Z</time>
      </trkpt>
      <trkpt lat="44.41397" lon="1.37127">
        <ele>313</ele>
        <time>2019-04-14T08:27:06Z</time>
      </trkpt>
      <trkpt lat="44.41396" lon="1.37122">
        <ele>313</ele>
        <time>2019-04-14T08:27:07Z</time>
      </trkpt>
      <trkpt lat="44.41396" lon="1.37117">
        <ele>312</ele>
        <time>2019-04-14T08:27:08Z</time>
      </trkpt>
      <trkpt lat="44.41396" lon="1.37111">
        <ele>312</ele>
        <time>2019-04-14T08:27:09Z</time>
      </trkpt>
      <trkpt lat="44.41395" lon="1.37106">
        <ele>312</ele>
        <time>2019-04-14T08:27:10Z</time>
      </trkpt>
      <trkpt lat="44.41395" lon="1.371">
        <ele>312</ele>
        <time>2019-04-14T08:27:11Z</time>
      </trkpt>
      <trkpt lat="44.41394" lon="1.37095">
        <ele>312</ele>
        <time>2019-04-14T08:27:12Z</time>
      </trkpt>
      <trkpt lat="44.41394" lon="1.37089">
        <ele>311</ele>
        <time>2019-04-14T08:27:13Z</time>
      </trkpt>
      <trkpt lat="44.41393" lon="1.37083">
        <ele>311</ele>
        <time>2019-04-14T08:27:14Z</time>
      </trkpt>
      <trkpt lat="44.41393" lon="1.37077">
        <ele>311</ele>
        <time>2019-04-14T08:27:15Z</time>
      </trkpt>
      <trkpt lat="44.41392" lon="1.37071">
        <ele>311</ele>
        <time>2019-04-14T08:27:16Z</time>
      </trkpt>
      <trkpt lat="44.41392" lon="1.37064">
        <ele>311</ele>
        <time>2019-04-14T08:27:17Z</time>
      </trkpt>
      <trkpt lat="44.41391" lon="1.37057">
        <ele>310</ele>
        <time>2019-04-14T08:27:18Z</time>
      </trkpt>
      <trkpt lat="44.4139" lon="1.3705">
        <ele>310</ele>
        <time>2019-04-14T08:27:19Z</time>
      </trkpt>
      <trkpt lat="44.41389" lon="1.37035">
        <ele>310</ele>
        <time>2019-04-14T08:27:20Z</time>
      </trkpt>
      <trkpt lat="44.41389" lon="1.37027">
        <ele>310</ele>
        <time>2019-04-14T08:27:21Z</time>
      </trkpt>
      <trkpt lat="44.41388" lon="1.3702">
        <ele>309</ele>
        <time>2019-04-14T08:27:23Z</time>
      </trkpt>
      <trkpt lat="44.41387" lon="1.37013">
        <ele>309</ele>
        <time>2019-04-14T08:27:24Z</time>
      </trkpt>
      <trkpt lat="44.41386" lon="1.37001">
        <ele>309</ele>
        <time>2019-04-14T08:27:25Z</time>
      </trkpt>
      <trkpt lat="44.41385" lon="1.36995">
        <ele>308</ele>
        <time>2019-04-14T08:27:26Z</time>
      </trkpt>
      <trkpt lat="44.41384" lon="1.36989">
        <ele>308</ele>
        <time>2019-04-14T08:27:27Z</time>
      </trkpt>
      <trkpt lat="44.41383" lon="1.36983">
        <ele>308</ele>
        <time>2019-04-14T08:27:28Z</time>
      </trkpt>
      <trkpt lat="44.41383" lon="1.36978">
        <ele>307</ele>
        <time>2019-04-14T08:27:30Z</time>
      </trkpt>
      <trkpt lat="44.41382" lon="1.36972">
        <ele>307</ele>
        <time>2019-04-14T08:27:31Z</time>
      </trkpt>
      <trkpt lat="44.41381" lon="1.36966">
        <ele>307</ele>
        <time>2019-04-14T08:27:32Z</time>
      </trkpt>
      <trkpt lat="44.4138" lon="1.36961">
        <ele>307</ele>
        <time>2019-04-14T08:27:33Z</time>
      </trkpt>
      <trkpt lat="44.41379" lon="1.36955">
        <ele>307</ele>
        <time>2019-04-14T08:27:34Z</time>
      </trkpt>
      <trkpt lat="44.41378" lon="1.3695">
        <ele>306</ele>
        <time>2019-04-14T08:27:35Z</time>
      </trkpt>
      <trkpt lat="44.41377" lon="1.36945">
        <ele>306</ele>
        <time>2019-04-14T08:27:36Z</time>
      </trkpt>
      <trkpt lat="44.41376" lon="1.3694">
        <ele>306</ele>
        <time>2019-04-14T08:27:37Z</time>
      </trkpt>
      <trkpt lat="44.41375" lon="1.36935">
        <ele>306</ele>
        <time>2019-04-14T08:27:38Z</time>
      </trkpt>
      <trkpt lat="44.41374" lon="1.36929">
        <ele>306</ele>
        <time>2019-04-14T08:27:39Z</time>
      </trkpt>
      <trkpt lat="44.41372" lon="1.36917">
        <ele>306</ele>
        <time>2019-04-14T08:27:40Z</time>
      </trkpt>
      <trkpt lat="44.4137" lon="1.3691">
        <ele>306</ele>
        <time>2019-04-14T08:27:41Z</time>
      </trkpt>
      <trkpt lat="44.41367" lon="1.36897">
        <ele>305</ele>
        <time>2019-04-14T08:27:43Z</time>
      </trkpt>
      <trkpt lat="44.41365" lon="1.36891">
        <ele>305</ele>
        <time>2019-04-14T08:27:44Z</time>
      </trkpt>
      <trkpt lat="44.41363" lon="1.36884">
        <ele>305</ele>
        <time>2019-04-14T08:27:45Z</time>
      </trkpt>
      <trkpt lat="44.41361" lon="1.36878">
        <ele>304</ele>
        <time>2019-04-14T08:27:46Z</time>
      </trkpt>
      <trkpt lat="44.41359" lon="1.36871">
        <ele>304</ele>
        <time>2019-04-14T08:27:48Z</time>
      </trkpt>
      <trkpt lat="44.41358" lon="1.36864">
        <ele>304</ele>
        <time>2019-04-14T08:27:49Z</time>
      </trkpt>
      <trkpt lat="44.41356" lon="1.36857">
        <ele>304</ele>
        <time>2019-04-14T08:27:50Z</time>
      </trkpt>
      <trkpt lat="44.41354" lon="1.36849">
        <ele>303</ele>
        <time>2019-04-14T08:27:51Z</time>
      </trkpt>
      <trkpt lat="44.41352" lon="1.36842">
        <ele>303</ele>
        <time>2019-04-14T08:27:52Z</time>
      </trkpt>
      <trkpt lat="44.4135" lon="1.36835">
        <ele>303</ele>
        <time>2019-04-14T08:27:53Z</time>
      </trkpt>
      <trkpt lat="44.41348" lon="1.36828">
        <ele>303</ele>
        <time>2019-04-14T08:27:54Z</time>
      </trkpt>
      <trkpt lat="44.41345" lon="1.36814">
        <ele>302</ele>
        <time>2019-04-14T08:27:55Z</time>
      </trkpt>
      <trkpt lat="44.41342" lon="1.36808">
        <ele>302</ele>
        <time>2019-04-14T08:27:56Z</time>
      </trkpt>
      <trkpt lat="44.4134" lon="1.36801">
        <ele>302</ele>
        <time>2019-04-14T08:27:57Z</time>
      </trkpt>
      <trkpt lat="44.41339" lon="1.36795">
        <ele>302</ele>
        <time>2019-04-14T08:27:58Z</time>
      </trkpt>
      <trkpt lat="44.41336" lon="1.36788">
        <ele>302</ele>
        <time>2019-04-14T08:27:59Z</time>
      </trkpt>
      <trkpt lat="44.41334" lon="1.36781">
        <ele>302</ele>
        <time>2019-04-14T08:28:00Z</time>
      </trkpt>
      <trkpt lat="44.41332" lon="1.36775">
        <ele>302</ele>
        <time>2019-04-14T08:28:01Z</time>
      </trkpt>
      <trkpt lat="44.4133" lon="1.36768">
        <ele>302</ele>
        <time>2019-04-14T08:28:02Z</time>
      </trkpt>
      <trkpt lat="44.41327" lon="1.36761">
        <ele>301</ele>
        <time>2019-04-14T08:28:03Z</time>
      </trkpt>
      <trkpt lat="44.41325" lon="1.36754">
        <ele>301</ele>
        <time>2019-04-14T08:28:04Z</time>
      </trkpt>
      <trkpt lat="44.41322" lon="1.36748">
        <ele>301</ele>
        <time>2019-04-14T08:28:05Z</time>
      </trkpt>
      <trkpt lat="44.4132" lon="1.36742">
        <ele>301</ele>
        <time>2019-04-14T08:28:06Z</time>
      </trkpt>
      <trkpt lat="44.41318" lon="1.36736">
        <ele>301</ele>
        <time>2019-04-14T08:28:07Z</time>
      </trkpt>
      <trkpt lat="44.41317" lon="1.3673">
        <ele>301</ele>
        <time>2019-04-14T08:28:08Z</time>
      </trkpt>
      <trkpt lat="44.41317" lon="1.36723">
        <ele>301</ele>
        <time>2019-04-14T08:28:09Z</time>
      </trkpt>
      <trkpt lat="44.41317" lon="1.36718">
        <ele>301</ele>
        <time>2019-04-14T08:28:10Z</time>
      </trkpt>
      <trkpt lat="44.41318" lon="1.36712">
        <ele>301</ele>
        <time>2019-04-14T08:28:12Z</time>
      </trkpt>
      <trkpt lat="44.41319" lon="1.36707">
        <ele>302</ele>
        <time>2019-04-14T08:28:13Z</time>
      </trkpt>
      <trkpt lat="44.41319" lon="1.36702">
        <ele>302</ele>
        <time>2019-04-14T08:28:14Z</time>
      </trkpt>
      <trkpt lat="44.4132" lon="1.36698">
        <ele>302</ele>
        <time>2019-04-14T08:28:15Z</time>
      </trkpt>
      <trkpt lat="44.41321" lon="1.36693">
        <ele>302</ele>
        <time>2019-04-14T08:28:16Z</time>
      </trkpt>
      <trkpt lat="44.41322" lon="1.36688">
        <ele>302</ele>
        <time>2019-04-14T08:28:17Z</time>
      </trkpt>
      <trkpt lat="44.41323" lon="1.36684">
        <ele>302</ele>
        <time>2019-04-14T08:28:18Z</time>
      </trkpt>
      <trkpt lat="44.41325" lon="1.36674">
        <ele>302</ele>
        <time>2019-04-14T08:28:19Z</time>
      </trkpt>
      <trkpt lat="44.41326" lon="1.3667">
        <ele>302</ele>
        <time>2019-04-14T08:28:20Z</time>
      </trkpt>
      <trkpt lat="44.41327" lon="1.36665">
        <ele>302</ele>
        <time>2019-04-14T08:28:21Z</time>
      </trkpt>
      <trkpt lat="44.41328" lon="1.36661">
        <ele>302</ele>
        <time>2019-04-14T08:28:22Z</time>
      </trkpt>
      <trkpt lat="44.4133" lon="1.36656">
        <ele>302</ele>
        <time>2019-04-14T08:28:23Z</time>
      </trkpt>
      <trkpt lat="44.4133" lon="1.36651">
        <ele>302</ele>
        <time>2019-04-14T08:28:25Z</time>
      </trkpt>
      <trkpt lat="44.41331" lon="1.36646">
        <ele>302</ele>
        <time>2019-04-14T08:28:26Z</time>
      </trkpt>
      <trkpt lat="44.41331" lon="1.36642">
        <ele>302</ele>
        <time>2019-04-14T08:28:27Z</time>
      </trkpt>
      <trkpt lat="44.41332" lon="1.36632">
        <ele>302</ele>
        <time>2019-04-14T08:28:28Z</time>
      </trkpt>
      <trkpt lat="44.41332" lon="1.36627">
        <ele>302</ele>
        <time>2019-04-14T08:28:29Z</time>
      </trkpt>
      <trkpt lat="44.41332" lon="1.36622">
        <ele>302</ele>
        <time>2019-04-14T08:28:30Z</time>
      </trkpt>
      <trkpt lat="44.41332" lon="1.36616">
        <ele>302</ele>
        <time>2019-04-14T08:28:31Z</time>
      </trkpt>
      <trkpt lat="44.41332" lon="1.36611">
        <ele>302</ele>
        <time>2019-04-14T08:28:32Z</time>
      </trkpt>
      <trkpt lat="44.41332" lon="1.36606">
        <ele>302</ele>
        <time>2019-04-14T08:28:33Z</time>
      </trkpt>
      <trkpt lat="44.41332" lon="1.366">
        <ele>302</ele>
        <time>2019-04-14T08:28:34Z</time>
      </trkpt>
      <trkpt lat="44.41331" lon="1.36595">
        <ele>302</ele>
        <time>2019-04-14T08:28:35Z</time>
      </trkpt>
      <trkpt lat="44.41331" lon="1.3659">
        <ele>303</ele>
        <time>2019-04-14T08:28:36Z</time>
      </trkpt>
      <trkpt lat="44.41331" lon="1.36585">
        <ele>303</ele>
        <time>2019-04-14T08:28:37Z</time>
      </trkpt>
      <trkpt lat="44.4133" lon="1.3658">
        <ele>302</ele>
        <time>2019-04-14T08:28:38Z</time>
      </trkpt>
      <trkpt lat="44.41329" lon="1.36574">
        <ele>302</ele>
        <time>2019-04-14T08:28:39Z</time>
      </trkpt>
      <trkpt lat="44.41328" lon="1.36569">
        <ele>303</ele>
        <time>2019-04-14T08:28:40Z</time>
      </trkpt>
      <trkpt lat="44.41327" lon="1.36563">
        <ele>302</ele>
        <time>2019-04-14T08:28:41Z</time>
      </trkpt>
      <trkpt lat="44.41326" lon="1.36558">
        <ele>303</ele>
        <time>2019-04-14T08:28:42Z</time>
      </trkpt>
      <trkpt lat="44.41325" lon="1.36552">
        <ele>303</ele>
        <time>2019-04-14T08:28:43Z</time>
      </trkpt>
      <trkpt lat="44.41324" lon="1.36546">
        <ele>303</ele>
        <time>2019-04-14T08:28:44Z</time>
      </trkpt>
      <trkpt lat="44.41323" lon="1.36541">
        <ele>303</ele>
        <time>2019-04-14T08:28:45Z</time>
      </trkpt>
      <trkpt lat="44.41322" lon="1.36535">
        <ele>303</ele>
        <time>2019-04-14T08:28:46Z</time>
      </trkpt>
      <trkpt lat="44.41321" lon="1.3653">
        <ele>303</ele>
        <time>2019-04-14T08:28:47Z</time>
      </trkpt>
      <trkpt lat="44.4132" lon="1.36525">
        <ele>303</ele>
        <time>2019-04-14T08:28:49Z</time>
      </trkpt>
      <trkpt lat="44.41319" lon="1.36519">
        <ele>303</ele>
        <time>2019-04-14T08:28:50Z</time>
      </trkpt>
      <trkpt lat="44.41318" lon="1.36514">
        <ele>303</ele>
        <time>2019-04-14T08:28:51Z</time>
      </trkpt>
      <trkpt lat="44.41317" lon="1.36509">
        <ele>303</ele>
        <time>2019-04-14T08:28:52Z</time>
      </trkpt>
      <trkpt lat="44.41316" lon="1.36504">
        <ele>303</ele>
        <time>2019-04-14T08:28:53Z</time>
      </trkpt>
      <trkpt lat="44.41314" lon="1.36499">
        <ele>303</ele>
        <time>2019-04-14T08:28:54Z</time>
      </trkpt>
      <trkpt lat="44.41313" lon="1.36494">
        <ele>303</ele>
        <time>2019-04-14T08:28:55Z</time>
      </trkpt>
      <trkpt lat="44.41312" lon="1.36489">
        <ele>303</ele>
        <time>2019-04-14T08:28:56Z</time>
      </trkpt>
      <trkpt lat="44.4131" lon="1.36485">
        <ele>303</ele>
        <time>2019-04-14T08:28:57Z</time>
      </trkpt>
      <trkpt lat="44.41309" lon="1.3648">
        <ele>303</ele>
        <time>2019-04-14T08:28:58Z</time>
      </trkpt>
      <trkpt lat="44.41307" lon="1.36476">
        <ele>303</ele>
        <time>2019-04-14T08:28:59Z</time>
      </trkpt>
      <trkpt lat="44.41304" lon="1.36467">
        <ele>303</ele>
        <time>2019-04-14T08:29:00Z</time>
      </trkpt>
      <trkpt lat="44.41302" lon="1.36463">
        <ele>303</ele>
        <time>2019-04-14T08:29:01Z</time>
      </trkpt>
      <trkpt lat="44.41301" lon="1.36459">
        <ele>303</ele>
        <time>2019-04-14T08:29:02Z</time>
      </trkpt>
      <trkpt lat="44.413" lon="1.36454">
        <ele>303</ele>
        <time>2019-04-14T08:29:03Z</time>
      </trkpt>
      <trkpt lat="44.41299" lon="1.36444">
        <ele>304</ele>
        <time>2019-04-14T08:29:05Z</time>
      </trkpt>
      <trkpt lat="44.41299" lon="1.36439">
        <ele>304</ele>
        <time>2019-04-14T08:29:06Z</time>
      </trkpt>
      <trkpt lat="44.413" lon="1.36434">
        <ele>304</ele>
        <time>2019-04-14T08:29:07Z</time>
      </trkpt>
      <trkpt lat="44.41301" lon="1.36429">
        <ele>304</ele>
        <time>2019-04-14T08:29:08Z</time>
      </trkpt>
      <trkpt lat="44.41303" lon="1.36425">
        <ele>304</ele>
        <time>2019-04-14T08:29:09Z</time>
      </trkpt>
      <trkpt lat="44.41304" lon="1.3642">
        <ele>304</ele>
        <time>2019-04-14T08:29:10Z</time>
      </trkpt>
      <trkpt lat="44.41307" lon="1.36416">
        <ele>304</ele>
        <time>2019-04-14T08:29:11Z</time>
      </trkpt>
      <trkpt lat="44.41309" lon="1.36413">
        <ele>304</ele>
        <time>2019-04-14T08:29:12Z</time>
      </trkpt>
      <trkpt lat="44.41312" lon="1.36409">
        <ele>304</ele>
        <time>2019-04-14T08:29:13Z</time>
      </trkpt>
      <trkpt lat="44.41315" lon="1.36405">
        <ele>304</ele>
        <time>2019-04-14T08:29:14Z</time>
      </trkpt>
      <trkpt lat="44.41319" lon="1.36402">
        <ele>303</ele>
        <time>2019-04-14T08:29:15Z</time>
      </trkpt>
      <trkpt lat="44.41322" lon="1.36399">
        <ele>303</ele>
        <time>2019-04-14T08:29:16Z</time>
      </trkpt>
      <trkpt lat="44.41325" lon="1.36395">
        <ele>303</ele>
        <time>2019-04-14T08:29:17Z</time>
      </trkpt>
      <trkpt lat="44.41328" lon="1.36392">
        <ele>303</ele>
        <time>2019-04-14T08:29:18Z</time>
      </trkpt>
      <trkpt lat="44.41331" lon="1.36389">
        <ele>303</ele>
        <time>2019-04-14T08:29:19Z</time>
      </trkpt>
      <trkpt lat="44.41335" lon="1.36386">
        <ele>303</ele>
        <time>2019-04-14T08:29:20Z</time>
      </trkpt>
      <trkpt lat="44.41338" lon="1.36383">
        <ele>303</ele>
        <time>2019-04-14T08:29:21Z</time>
      </trkpt>
      <trkpt lat="44.41341" lon="1.3638">
        <ele>303</ele>
        <time>2019-04-14T08:29:22Z</time>
      </trkpt>
      <trkpt lat="44.41345" lon="1.36377">
        <ele>303</ele>
        <time>2019-04-14T08:29:24Z</time>
      </trkpt>
      <trkpt lat="44.41348" lon="1.36374">
        <ele>303</ele>
        <time>2019-04-14T08:29:25Z</time>
      </trkpt>
      <trkpt lat="44.41351" lon="1.36371">
        <ele>303</ele>
        <time>2019-04-14T08:29:26Z</time>
      </trkpt>
      <trkpt lat="44.41354" lon="1.36368">
        <ele>303</ele>
        <time>2019-04-14T08:29:27Z</time>
      </trkpt>
      <trkpt lat="44.41358" lon="1.36364">
        <ele>303</ele>
        <time>2019-04-14T08:29:28Z</time>
      </trkpt>
      <trkpt lat="44.41364" lon="1.36358">
        <ele>303</ele>
        <time>2019-04-14T08:29:29Z</time>
      </trkpt>
      <trkpt lat="44.41367" lon="1.36355">
        <ele>302</ele>
        <time>2019-04-14T08:29:30Z</time>
      </trkpt>
      <trkpt lat="44.4137" lon="1.36351">
        <ele>302</ele>
        <time>2019-04-14T08:29:31Z</time>
      </trkpt>
      <trkpt lat="44.41374" lon="1.36348">
        <ele>302</ele>
        <time>2019-04-14T08:29:32Z</time>
      </trkpt>
      <trkpt lat="44.41377" lon="1.36344">
        <ele>302</ele>
        <time>2019-04-14T08:29:33Z</time>
      </trkpt>
      <trkpt lat="44.4138" lon="1.36341">
        <ele>302</ele>
        <time>2019-04-14T08:29:34Z</time>
      </trkpt>
      <trkpt lat="44.41384" lon="1.36337">
        <ele>302</ele>
        <time>2019-04-14T08:29:35Z</time>
      </trkpt>
      <trkpt lat="44.41387" lon="1.36334">
        <ele>302</ele>
        <time>2019-04-14T08:29:36Z</time>
      </trkpt>
      <trkpt lat="44.4139" lon="1.36331">
        <ele>302</ele>
        <time>2019-04-14T08:29:37Z</time>
      </trkpt>
      <trkpt lat="44.41394" lon="1.36328">
        <ele>302</ele>
        <time>2019-04-14T08:29:38Z</time>
      </trkpt>
      <trkpt lat="44.41397" lon="1.36325">
        <ele>302</ele>
        <time>2019-04-14T08:29:40Z</time>
      </trkpt>
      <trkpt lat="44.41401" lon="1.36323">
        <ele>301</ele>
        <time>2019-04-14T08:29:41Z</time>
      </trkpt>
      <trkpt lat="44.41407" lon="1.36317">
        <ele>301</ele>
        <time>2019-04-14T08:29:42Z</time>
      </trkpt>
      <trkpt lat="44.41411" lon="1.36314">
        <ele>301</ele>
        <time>2019-04-14T08:29:43Z</time>
      </trkpt>
      <trkpt lat="44.41415" lon="1.36311">
        <ele>300</ele>
        <time>2019-04-14T08:29:45Z</time>
      </trkpt>
      <trkpt lat="44.41419" lon="1.36309">
        <ele>300</ele>
        <time>2019-04-14T08:29:46Z</time>
      </trkpt>
      <trkpt lat="44.41423" lon="1.36306">
        <ele>300</ele>
        <time>2019-04-14T08:29:47Z</time>
      </trkpt>
      <trkpt lat="44.41432" lon="1.36299">
        <ele>300</ele>
        <time>2019-04-14T08:29:48Z</time>
      </trkpt>
      <trkpt lat="44.41437" lon="1.36296">
        <ele>300</ele>
        <time>2019-04-14T08:29:49Z</time>
      </trkpt>
      <trkpt lat="44.41441" lon="1.36294">
        <ele>300</ele>
        <time>2019-04-14T08:29:50Z</time>
      </trkpt>
      <trkpt lat="44.41446" lon="1.36291">
        <ele>300</ele>
        <time>2019-04-14T08:29:51Z</time>
      </trkpt>
      <trkpt lat="44.41451" lon="1.36289">
        <ele>299</ele>
        <time>2019-04-14T08:29:53Z</time>
      </trkpt>
      <trkpt lat="44.41461" lon="1.36283">
        <ele>299</ele>
        <time>2019-04-14T08:29:54Z</time>
      </trkpt>
      <trkpt lat="44.41465" lon="1.3628">
        <ele>299</ele>
        <time>2019-04-14T08:29:55Z</time>
      </trkpt>
      <trkpt lat="44.4147" lon="1.36278">
        <ele>298</ele>
        <time>2019-04-14T08:29:56Z</time>
      </trkpt>
      <trkpt lat="44.41475" lon="1.36275">
        <ele>298</ele>
        <time>2019-04-14T08:29:57Z</time>
      </trkpt>
      <trkpt lat="44.41481" lon="1.36272">
        <ele>298</ele>
        <time>2019-04-14T08:29:58Z</time>
      </trkpt>
      <trkpt lat="44.41485" lon="1.36269">
        <ele>298</ele>
        <time>2019-04-14T08:29:59Z</time>
      </trkpt>
      <trkpt lat="44.4149" lon="1.36267">
        <ele>298</ele>
        <time>2019-04-14T08:30:00Z</time>
      </trkpt>
      <trkpt lat="44.41496" lon="1.36264">
        <ele>298</ele>
        <time>2019-04-14T08:30:01Z</time>
      </trkpt>
      <trkpt lat="44.41501" lon="1.36261">
        <ele>297</ele>
        <time>2019-04-14T08:30:02Z</time>
      </trkpt>
      <trkpt lat="44.41507" lon="1.36258">
        <ele>297</ele>
        <time>2019-04-14T08:30:03Z</time>
      </trkpt>
      <trkpt lat="44.41512" lon="1.36254">
        <ele>297</ele>
        <time>2019-04-14T08:30:04Z</time>
      </trkpt>
      <trkpt lat="44.41518" lon="1.36251">
        <ele>296</ele>
        <time>2019-04-14T08:30:05Z</time>
      </trkpt>
      <trkpt lat="44.41524" lon="1.36248">
        <ele>296</ele>
        <time>2019-04-14T08:30:06Z</time>
      </trkpt>
      <trkpt lat="44.41531" lon="1.36244">
        <ele>295</ele>
        <time>2019-04-14T08:30:07Z</time>
      </trkpt>
      <trkpt lat="44.41538" lon="1.3624">
        <ele>295</ele>
        <time>2019-04-14T08:30:08Z</time>
      </trkpt>
      <trkpt lat="44.41545" lon="1.36237">
        <ele>294</ele>
        <time>2019-04-14T08:30:09Z</time>
      </trkpt>
      <trkpt lat="44.41553" lon="1.36234">
        <ele>294</ele>
        <time>2019-04-14T08:30:10Z</time>
      </trkpt>
      <trkpt lat="44.4156" lon="1.36229">
        <ele>294</ele>
        <time>2019-04-14T08:30:11Z</time>
      </trkpt>
      <trkpt lat="44.41569" lon="1.36224">
        <ele>293</ele>
        <time>2019-04-14T08:30:12Z</time>
      </trkpt>
      <trkpt lat="44.41576" lon="1.36219">
        <ele>293</ele>
        <time>2019-04-14T08:30:13Z</time>
      </trkpt>
      <trkpt lat="44.41584" lon="1.36213">
        <ele>292</ele>
        <time>2019-04-14T08:30:14Z</time>
      </trkpt>
      <trkpt lat="44.41592" lon="1.36207">
        <ele>292</ele>
        <time>2019-04-14T08:30:15Z</time>
      </trkpt>
      <trkpt lat="44.416" lon="1.36202">
        <ele>291</ele>
        <time>2019-04-14T08:30:16Z</time>
      </trkpt>
      <trkpt lat="44.41608" lon="1.36196">
        <ele>290</ele>
        <time>2019-04-14T08:30:18Z</time>
      </trkpt>
      <trkpt lat="44.41616" lon="1.36191">
        <ele>290</ele>
        <time>2019-04-14T08:30:19Z</time>
      </trkpt>
      <trkpt lat="44.41632" lon="1.36182">
        <ele>290</ele>
        <time>2019-04-14T08:30:20Z</time>
      </trkpt>
      <trkpt lat="44.41638" lon="1.36177">
        <ele>290</ele>
        <time>2019-04-14T08:30:21Z</time>
      </trkpt>
      <trkpt lat="44.41644" lon="1.36171">
        <ele>289</ele>
        <time>2019-04-14T08:30:23Z</time>
      </trkpt>
      <trkpt lat="44.41652" lon="1.36167">
        <ele>289</ele>
        <time>2019-04-14T08:30:24Z</time>
      </trkpt>
      <trkpt lat="44.41666" lon="1.36157">
        <ele>289</ele>
        <time>2019-04-14T08:30:25Z</time>
      </trkpt>
      <trkpt lat="44.41673" lon="1.36153">
        <ele>289</ele>
        <time>2019-04-14T08:30:26Z</time>
      </trkpt>
      <trkpt lat="44.4168" lon="1.36148">
        <ele>288</ele>
        <time>2019-04-14T08:30:27Z</time>
      </trkpt>
      <trkpt lat="44.41686" lon="1.36144">
        <ele>288</ele>
        <time>2019-04-14T08:30:28Z</time>
      </trkpt>
      <trkpt lat="44.41692" lon="1.3614">
        <ele>288</ele>
        <time>2019-04-14T08:30:29Z</time>
      </trkpt>
      <trkpt lat="44.41698" lon="1.36137">
        <ele>288</ele>
        <time>2019-04-14T08:30:30Z</time>
      </trkpt>
      <trkpt lat="44.41704" lon="1.36134">
        <ele>288</ele>
        <time>2019-04-14T08:30:31Z</time>
      </trkpt>
      <trkpt lat="44.41711" lon="1.36131">
        <ele>288</ele>
        <time>2019-04-14T08:30:32Z</time>
      </trkpt>
      <trkpt lat="44.41717" lon="1.36127">
        <ele>288</ele>
        <time>2019-04-14T08:30:33Z</time>
      </trkpt>
      <trkpt lat="44.41723" lon="1.36123">
        <ele>288</ele>
        <time>2019-04-14T08:30:34Z</time>
      </trkpt>
      <trkpt lat="44.41728" lon="1.36119">
        <ele>288</ele>
        <time>2019-04-14T08:30:35Z</time>
      </trkpt>
      <trkpt lat="44.41732" lon="1.36115">
        <ele>288</ele>
        <time>2019-04-14T08:30:36Z</time>
      </trkpt>
      <trkpt lat="44.41736" lon="1.36111">
        <ele>289</ele>
        <time>2019-04-14T08:30:37Z</time>
      </trkpt>
      <trkpt lat="44.41739" lon="1.36106">
        <ele>289</ele>
        <time>2019-04-14T08:30:39Z</time>
      </trkpt>
      <trkpt lat="44.41743" lon="1.36102">
        <ele>289</ele>
        <time>2019-04-14T08:30:40Z</time>
      </trkpt>
      <trkpt lat="44.41746" lon="1.36098">
        <ele>289</ele>
        <time>2019-04-14T08:30:41Z</time>
      </trkpt>
      <trkpt lat="44.41754" lon="1.3609">
        <ele>289</ele>
        <time>2019-04-14T08:30:42Z</time>
      </trkpt>
      <trkpt lat="44.41758" lon="1.36086">
        <ele>289</ele>
        <time>2019-04-14T08:30:43Z</time>
      </trkpt>
      <trkpt lat="44.41762" lon="1.36082">
        <ele>289</ele>
        <time>2019-04-14T08:30:44Z</time>
      </trkpt>
      <trkpt lat="44.41766" lon="1.36078">
        <ele>289</ele>
        <time>2019-04-14T08:30:45Z</time>
      </trkpt>
      <trkpt lat="44.4177" lon="1.36074">
        <ele>289</ele>
        <time>2019-04-14T08:30:46Z</time>
      </trkpt>
      <trkpt lat="44.41775" lon="1.36071">
        <ele>289</ele>
        <time>2019-04-14T08:30:47Z</time>
      </trkpt>
      <trkpt lat="44.41778" lon="1.36067">
        <ele>290</ele>
        <time>2019-04-14T08:30:48Z</time>
      </trkpt>
      <trkpt lat="44.41782" lon="1.36064">
        <ele>290</ele>
        <time>2019-04-14T08:30:49Z</time>
      </trkpt>
      <trkpt lat="44.41784" lon="1.3606">
        <ele>290</ele>
        <time>2019-04-14T08:30:50Z</time>
      </trkpt>
      <trkpt lat="44.41787" lon="1.36056">
        <ele>290</ele>
        <time>2019-04-14T08:30:51Z</time>
      </trkpt>
      <trkpt lat="44.4179" lon="1.36053">
        <ele>290</ele>
        <time>2019-04-14T08:30:52Z</time>
      </trkpt>
      <trkpt lat="44.41793" lon="1.3605">
        <ele>291</ele>
        <time>2019-04-14T08:30:53Z</time>
      </trkpt>
      <trkpt lat="44.41796" lon="1.36046">
        <ele>291</ele>
        <time>2019-04-14T08:30:54Z</time>
      </trkpt>
      <trkpt lat="44.418" lon="1.36042">
        <ele>291</ele>
        <time>2019-04-14T08:30:55Z</time>
      </trkpt>
      <trkpt lat="44.41803" lon="1.36039">
        <ele>291</ele>
        <time>2019-04-14T08:30:57Z</time>
      </trkpt>
      <trkpt lat="44.41808" lon="1.36032">
        <ele>291</ele>
        <time>2019-04-14T08:30:58Z</time>
      </trkpt>
      <trkpt lat="44.41811" lon="1.36029">
        <ele>291</ele>
        <time>2019-04-14T08:30:59Z</time>
      </trkpt>
      <trkpt lat="44.41814" lon="1.36026">
        <ele>291</ele>
        <time>2019-04-14T08:31:00Z</time>
      </trkpt>
      <trkpt lat="44.41817" lon="1.36023">
        <ele>292</ele>
        <time>2019-04-14T08:31:01Z</time>
      </trkpt>
      <trkpt lat="44.4182" lon="1.3602">
        <ele>292</ele>
        <time>2019-04-14T08:31:02Z</time>
      </trkpt>
      <trkpt lat="44.41823" lon="1.36017">
        <ele>292</ele>
        <time>2019-04-14T08:31:03Z</time>
      </trkpt>
      <trkpt lat="44.41826" lon="1.36013">
        <ele>292</ele>
        <time>2019-04-14T08:31:04Z</time>
      </trkpt>
      <trkpt lat="44.4183" lon="1.3601">
        <ele>293</ele>
        <time>2019-04-14T08:31:05Z</time>
      </trkpt>
      <trkpt lat="44.41833" lon="1.36007">
        <ele>293</ele>
        <time>2019-04-14T08:31:06Z</time>
      </trkpt>
      <trkpt lat="44.41837" lon="1.36003">
        <ele>293</ele>
        <time>2019-04-14T08:31:07Z</time>
      </trkpt>
      <trkpt lat="44.41839" lon="1.36">
        <ele>293</ele>
        <time>2019-04-14T08:31:08Z</time>
      </trkpt>
      <trkpt lat="44.41842" lon="1.35996">
        <ele>293</ele>
        <time>2019-04-14T08:31:09Z</time>
      </trkpt>
      <trkpt lat="44.41845" lon="1.35993">
        <ele>293</ele>
        <time>2019-04-14T08:31:10Z</time>
      </trkpt>
      <trkpt lat="44.41849" lon="1.35989">
        <ele>294</ele>
        <time>2019-04-14T08:31:11Z</time>
      </trkpt>
      <trkpt lat="44.41852" lon="1.35986">
        <ele>294</ele>
        <time>2019-04-14T08:31:12Z</time>
      </trkpt>
      <trkpt lat="44.41855" lon="1.35982">
        <ele>294</ele>
        <time>2019-04-14T08:31:13Z</time>
      </trkpt>
      <trkpt lat="44.41858" lon="1.35979">
        <ele>294</ele>
        <time>2019-04-14T08:31:14Z</time>
      </trkpt>
      <trkpt lat="44.41861" lon="1.35975">
        <ele>294</ele>
        <time>2019-04-14T08:31:15Z</time>
      </trkpt>
      <trkpt lat="44.41864" lon="1.35972">
        <ele>294</ele>
        <time>2019-04-14T08:31:16Z</time>
      </trkpt>
      <trkpt lat="44.41867" lon="1.35968">
        <ele>294</ele>
        <time>2019-04-14T08:31:17Z</time>
      </trkpt>
      <trkpt lat="44.41869" lon="1.35964">
        <ele>294</ele>
        <time>2019-04-14T08:31:18Z</time>
      </trkpt>
      <trkpt lat="44.41871" lon="1.3596">
        <ele>294</ele>
        <time>2019-04-14T08:31:19Z</time>
      </trkpt>
      <trkpt lat="44.41874" lon="1.35956">
        <ele>294</ele>
        <time>2019-04-14T08:31:20Z</time>
      </trkpt>
      <trkpt lat="44.41876" lon="1.35952">
        <ele>294</ele>
        <time>2019-04-14T08:31:21Z</time>
      </trkpt>
      <trkpt lat="44.41879" lon="1.35948">
        <ele>294</ele>
        <time>2019-04-14T08:31:22Z</time>
      </trkpt>
      <trkpt lat="44.41881" lon="1.35945">
        <ele>295</ele>
        <time>2019-04-14T08:31:23Z</time>
      </trkpt>
      <trkpt lat="44.41883" lon="1.35941">
        <ele>295</ele>
        <time>2019-04-14T08:31:24Z</time>
      </trkpt>
      <trkpt lat="44.41888" lon="1.35933">
        <ele>295</ele>
        <time>2019-04-14T08:31:26Z</time>
      </trkpt>
      <trkpt lat="44.4189" lon="1.3593">
        <ele>295</ele>
        <time>2019-04-14T08:31:27Z</time>
      </trkpt>
      <trkpt lat="44.41893" lon="1.35926">
        <ele>294</ele>
        <time>2019-04-14T08:31:28Z</time>
      </trkpt>
      <trkpt lat="44.41896" lon="1.35922">
        <ele>294</ele>
        <time>2019-04-14T08:31:29Z</time>
      </trkpt>
      <trkpt lat="44.41898" lon="1.35919">
        <ele>294</ele>
        <time>2019-04-14T08:31:30Z</time>
      </trkpt>
      <trkpt lat="44.41901" lon="1.35916">
        <ele>294</ele>
        <time>2019-04-14T08:31:31Z</time>
      </trkpt>
      <trkpt lat="44.41903" lon="1.35913">
        <ele>294</ele>
        <time>2019-04-14T08:31:32Z</time>
      </trkpt>
      <trkpt lat="44.41906" lon="1.35909">
        <ele>294</ele>
        <time>2019-04-14T08:31:33Z</time>
      </trkpt>
      <trkpt lat="44.41909" lon="1.35905">
        <ele>294</ele>
        <time>2019-04-14T08:31:34Z</time>
      </trkpt>
      <trkpt lat="44.41912" lon="1.35901">
        <ele>294</ele>
        <time>2019-04-14T08:31:35Z</time>
      </trkpt>
      <trkpt lat="44.41914" lon="1.35897">
        <ele>294</ele>
        <time>2019-04-14T08:31:36Z</time>
      </trkpt>
      <trkpt lat="44.41916" lon="1.35893">
        <ele>293</ele>
        <time>2019-04-14T08:31:37Z</time>
      </trkpt>
      <trkpt lat="44.41917" lon="1.35889">
        <ele>293</ele>
        <time>2019-04-14T08:31:38Z</time>
      </trkpt>
      <trkpt lat="44.41918" lon="1.35884">
        <ele>293</ele>
        <time>2019-04-14T08:31:39Z</time>
      </trkpt>
      <trkpt lat="44.41919" lon="1.35878">
        <ele>292</ele>
        <time>2019-04-14T08:31:40Z</time>
      </trkpt>
      <trkpt lat="44.4192" lon="1.35872">
        <ele>292</ele>
        <time>2019-04-14T08:31:41Z</time>
      </trkpt>
      <trkpt lat="44.41922" lon="1.35868">
        <ele>292</ele>
        <time>2019-04-14T08:31:42Z</time>
      </trkpt>
      <trkpt lat="44.41922" lon="1.35864">
        <ele>291</ele>
        <time>2019-04-14T08:31:43Z</time>
      </trkpt>
      <trkpt lat="44.41923" lon="1.35861">
        <ele>291</ele>
        <time>2019-04-14T08:31:44Z</time>
      </trkpt>
      <trkpt lat="44.41926" lon="1.3586">
        <ele>291</ele>
        <time>2019-04-14T08:31:45Z</time>
      </trkpt>
      <trkpt lat="44.41928" lon="1.35859">
        <ele>291</ele>
        <time>2019-04-14T08:31:46Z</time>
      </trkpt>
      <trkpt lat="44.41932" lon="1.35859">
        <ele>291</ele>
        <time>2019-04-14T08:31:47Z</time>
      </trkpt>
      <trkpt lat="44.41934" lon="1.35859">
        <ele>291</ele>
        <time>2019-04-14T08:31:48Z</time>
      </trkpt>
      <trkpt lat="44.41936" lon="1.35858">
        <ele>292</ele>
        <time>2019-04-14T08:31:49Z</time>
      </trkpt>
      <trkpt lat="44.41938" lon="1.35856">
        <ele>292</ele>
        <time>2019-04-14T08:31:50Z</time>
      </trkpt>
      <trkpt lat="44.41941" lon="1.35854">
        <ele>292</ele>
        <time>2019-04-14T08:31:51Z</time>
      </trkpt>
      <trkpt lat="44.41942" lon="1.35849">
        <ele>291</ele>
        <time>2019-04-14T08:31:52Z</time>
      </trkpt>
      <trkpt lat="44.41944" lon="1.35846">
        <ele>291</ele>
        <time>2019-04-14T08:31:53Z</time>
      </trkpt>
      <trkpt lat="44.41947" lon="1.35844">
        <ele>291</ele>
        <time>2019-04-14T08:31:54Z</time>
      </trkpt>
      <trkpt lat="44.4195" lon="1.35841">
        <ele>291</ele>
        <time>2019-04-14T08:31:55Z</time>
      </trkpt>
      <trkpt lat="44.41952" lon="1.35837">
        <ele>290</ele>
        <time>2019-04-14T08:31:56Z</time>
      </trkpt>
      <trkpt lat="44.41955" lon="1.35833">
        <ele>290</ele>
        <time>2019-04-14T08:31:57Z</time>
      </trkpt>
      <trkpt lat="44.41958" lon="1.35829">
        <ele>290</ele>
        <time>2019-04-14T08:31:58Z</time>
      </trkpt>
      <trkpt lat="44.4196" lon="1.35825">
        <ele>290</ele>
        <time>2019-04-14T08:31:59Z</time>
      </trkpt>
      <trkpt lat="44.41963" lon="1.35822">
        <ele>289</ele>
        <time>2019-04-14T08:32:00Z</time>
      </trkpt>
      <trkpt lat="44.41965" lon="1.3582">
        <ele>289</ele>
        <time>2019-04-14T08:32:01Z</time>
      </trkpt>
      <trkpt lat="44.41965" lon="1.35816">
        <ele>289</ele>
        <time>2019-04-14T08:32:02Z</time>
      </trkpt>
      <trkpt lat="44.41968" lon="1.35812">
        <ele>289</ele>
        <time>2019-04-14T08:32:03Z</time>
      </trkpt>
      <trkpt lat="44.41971" lon="1.35808">
        <ele>288</ele>
        <time>2019-04-14T08:32:04Z</time>
      </trkpt>
      <trkpt lat="44.41975" lon="1.35804">
        <ele>288</ele>
        <time>2019-04-14T08:32:05Z</time>
      </trkpt>
      <trkpt lat="44.41978" lon="1.358">
        <ele>288</ele>
        <time>2019-04-14T08:32:06Z</time>
      </trkpt>
      <trkpt lat="44.41981" lon="1.35796">
        <ele>287</ele>
        <time>2019-04-14T08:32:07Z</time>
      </trkpt>
      <trkpt lat="44.41983" lon="1.35792">
        <ele>287</ele>
        <time>2019-04-14T08:32:08Z</time>
      </trkpt>
      <trkpt lat="44.41985" lon="1.35788">
        <ele>287</ele>
        <time>2019-04-14T08:32:09Z</time>
      </trkpt>
      <trkpt lat="44.41987" lon="1.35784">
        <ele>286</ele>
        <time>2019-04-14T08:32:10Z</time>
      </trkpt>
      <trkpt lat="44.41991" lon="1.35779">
        <ele>286</ele>
        <time>2019-04-14T08:32:11Z</time>
      </trkpt>
      <trkpt lat="44.41993" lon="1.35774">
        <ele>285</ele>
        <time>2019-04-14T08:32:12Z</time>
      </trkpt>
      <trkpt lat="44.41996" lon="1.35769">
        <ele>285</ele>
        <time>2019-04-14T08:32:13Z</time>
      </trkpt>
      <trkpt lat="44.42" lon="1.35764">
        <ele>284</ele>
        <time>2019-04-14T08:32:14Z</time>
      </trkpt>
      <trkpt lat="44.42003" lon="1.35761">
        <ele>284</ele>
        <time>2019-04-14T08:32:15Z</time>
      </trkpt>
      <trkpt lat="44.42006" lon="1.35757">
        <ele>283</ele>
        <time>2019-04-14T08:32:16Z</time>
      </trkpt>
      <trkpt lat="44.42008" lon="1.35753">
        <ele>283</ele>
        <time>2019-04-14T08:32:17Z</time>
      </trkpt>
      <trkpt lat="44.42012" lon="1.35749">
        <ele>282</ele>
        <time>2019-04-14T08:32:18Z</time>
      </trkpt>
      <trkpt lat="44.42015" lon="1.35747">
        <ele>282</ele>
        <time>2019-04-14T08:32:19Z</time>
      </trkpt>
      <trkpt lat="44.42018" lon="1.35744">
        <ele>282</ele>
        <time>2019-04-14T08:32:20Z</time>
      </trkpt>
      <trkpt lat="44.4202" lon="1.35742">
        <ele>281</ele>
        <time>2019-04-14T08:32:21Z</time>
      </trkpt>
      <trkpt lat="44.42023" lon="1.35739">
        <ele>281</ele>
        <time>2019-04-14T08:32:22Z</time>
      </trkpt>
      <trkpt lat="44.42024" lon="1.35737">
        <ele>280</ele>
        <time>2019-04-14T08:32:23Z</time>
      </trkpt>
      <trkpt lat="44.42026" lon="1.35735">
        <ele>280</ele>
        <time>2019-04-14T08:32:24Z</time>
      </trkpt>
      <trkpt lat="44.42027" lon="1.35733">
        <ele>280</ele>
        <time>2019-04-14T08:32:25Z</time>
      </trkpt>
      <trkpt lat="44.42031" lon="1.35731">
        <ele>279</ele>
        <time>2019-04-14T08:32:26Z</time>
      </trkpt>
      <trkpt lat="44.42033" lon="1.3573">
        <ele>279</ele>
        <time>2019-04-14T08:32:27Z</time>
      </trkpt>
      <trkpt lat="44.42037" lon="1.35729">
        <ele>278</ele>
        <time>2019-04-14T08:32:28Z</time>
      </trkpt>
      <trkpt lat="44.42041" lon="1.35729">
        <ele>278</ele>
        <time>2019-04-14T08:32:29Z</time>
      </trkpt>
      <trkpt lat="44.42045" lon="1.3573">
        <ele>278</ele>
        <time>2019-04-14T08:32:30Z</time>
      </trkpt>
      <trkpt lat="44.42049" lon="1.3573">
        <ele>278</ele>
        <time>2019-04-14T08:32:31Z</time>
      </trkpt>
      <trkpt lat="44.42053" lon="1.3573">
        <ele>277</ele>
        <time>2019-04-14T08:32:32Z</time>
      </trkpt>
      <trkpt lat="44.42057" lon="1.3573">
        <ele>277</ele>
        <time>2019-04-14T08:32:33Z</time>
      </trkpt>
      <trkpt lat="44.42061" lon="1.35731">
        <ele>277</ele>
        <time>2019-04-14T08:32:34Z</time>
      </trkpt>
      <trkpt lat="44.42065" lon="1.35733">
        <ele>276</ele>
        <time>2019-04-14T08:32:35Z</time>
      </trkpt>
      <trkpt lat="44.42066" lon="1.35735">
        <ele>276</ele>
        <time>2019-04-14T08:32:36Z</time>
      </trkpt>
      <trkpt lat="44.42067" lon="1.35738">
        <ele>276</ele>
        <time>2019-04-14T08:32:37Z</time>
      </trkpt>
      <trkpt lat="44.42068" lon="1.35741">
        <ele>276</ele>
        <time>2019-04-14T08:32:38Z</time>
      </trkpt>
      <trkpt lat="44.42069" lon="1.35744">
        <ele>276</ele>
        <time>2019-04-14T08:32:39Z</time>
      </trkpt>
      <trkpt lat="44.4207" lon="1.35747">
        <ele>276</ele>
        <time>2019-04-14T08:32:40Z</time>
      </trkpt>
      <trkpt lat="44.4207" lon="1.3575">
        <ele>276</ele>
        <time>2019-04-14T08:32:41Z</time>
      </trkpt>
      <trkpt lat="44.4207" lon="1.35755">
        <ele>276</ele>
        <time>2019-04-14T08:32:42Z</time>
      </trkpt>
      <trkpt lat="44.4207" lon="1.35759">
        <ele>276</ele>
        <time>2019-04-14T08:32:43Z</time>
      </trkpt>
      <trkpt lat="44.4207" lon="1.35763">
        <ele>275</ele>
        <time>2019-04-14T08:32:44Z</time>
      </trkpt>
      <trkpt lat="44.4207" lon="1.35766">
        <ele>275</ele>
        <time>2019-04-14T08:32:45Z</time>
      </trkpt>
      <trkpt lat="44.42069" lon="1.35769">
        <ele>275</ele>
        <time>2019-04-14T08:32:46Z</time>
      </trkpt>
      <trkpt lat="44.42068" lon="1.35772">
        <ele>275</ele>
        <time>2019-04-14T08:32:47Z</time>
      </trkpt>
      <trkpt lat="44.42067" lon="1.35774">
        <ele>275</ele>
        <time>2019-04-14T08:32:48Z</time>
      </trkpt>
      <trkpt lat="44.42066" lon="1.35774">
        <ele>275</ele>
        <time>2019-04-14T08:32:49Z</time>
      </trkpt>
      <trkpt lat="44.42067" lon="1.35774">
        <ele>275</ele>
        <time>2019-04-14T08:32:50Z</time>
      </trkpt>
      <trkpt lat="44.42067" lon="1.35774">
        <ele>275</ele>
        <time>2019-04-14T08:32:51Z</time>
      </trkpt>
      <trkpt lat="44.42067" lon="1.35774">
        <ele>275</ele>
        <time>2019-04-14T08:32:52Z</time>
      </trkpt>
      <trkpt lat="44.42067" lon="1.35774">
        <ele>275</ele>
        <time>2019-04-14T08:32:53Z</time>
      </trkpt>
      <trkpt lat="44.42068" lon="1.35774">
        <ele>275</ele>
        <time>2019-04-14T08:32:54Z</time>
      </trkpt>
      <trkpt lat="44.42068" lon="1.35774">
        <ele>275</ele>
        <time>2019-04-14T08:32:55Z</time>
      </trkpt>
      <trkpt lat="44.42069" lon="1.35774">
        <ele>275</ele>
        <time>2019-04-14T08:32:56Z</time>
      </trkpt>
      <trkpt lat="44.42049" lon="1.35793">
        <ele>278</ele>
        <time>2019-04-14T08:34:45Z</time>
      </trkpt>
      <trkpt lat="44.42049" lon="1.35793">
        <ele>278</ele>
        <time>2019-04-14T08:34:46Z</time>
      </trkpt>
      <trkpt lat="44.42049" lon="1.35794">
        <ele>278</ele>
        <time>2019-04-14T08:34:47Z</time>
      </trkpt>
      <trkpt lat="44.42049" lon="1.35794">
        <ele>278</ele>
        <time>2019-04-14T08:34:48Z</time>
      </trkpt>
      <trkpt lat="44.42049" lon="1.35796">
        <ele>278</ele>
        <time>2019-04-14T08:34:49Z</time>
      </trkpt>
      <trkpt lat="44.42048" lon="1.35797">
        <ele>278</ele>
        <time>2019-04-14T08:34:50Z</time>
      </trkpt>
      <trkpt lat="44.42048" lon="1.35799">
        <ele>278</ele>
        <time>2019-04-14T08:34:51Z</time>
      </trkpt>
      <trkpt lat="44.42047" lon="1.358">
        <ele>278</ele>
        <time>2019-04-14T08:34:52Z</time>
      </trkpt>
      <trkpt lat="44.42034" lon="1.3582">
        <ele>279</ele>
        <time>2019-04-14T08:35:12Z</time>
      </trkpt>
      <trkpt lat="44.42032" lon="1.35822">
        <ele>279</ele>
        <time>2019-04-14T08:35:13Z</time>
      </trkpt>
      <trkpt lat="44.42031" lon="1.35824">
        <ele>279</ele>
        <time>2019-04-14T08:35:14Z</time>
      </trkpt>
      <trkpt lat="44.42029" lon="1.35826">
        <ele>280</ele>
        <time>2019-04-14T08:35:15Z</time>
      </trkpt>
      <trkpt lat="44.42028" lon="1.35828">
        <ele>280</ele>
        <time>2019-04-14T08:35:16Z</time>
      </trkpt>
      <trkpt lat="44.42026" lon="1.3583">
        <ele>280</ele>
        <time>2019-04-14T08:35:17Z</time>
      </trkpt>
      <trkpt lat="44.42025" lon="1.35833">
        <ele>280</ele>
        <time>2019-04-14T08:35:18Z</time>
      </trkpt>
      <trkpt lat="44.42024" lon="1.35835">
        <ele>280</ele>
        <time>2019-04-14T08:35:19Z</time>
      </trkpt>
      <trkpt lat="44.42023" lon="1.35838">
        <ele>281</ele>
        <time>2019-04-14T08:35:20Z</time>
      </trkpt>
      <trkpt lat="44.42022" lon="1.35842">
        <ele>281</ele>
        <time>2019-04-14T08:35:21Z</time>
      </trkpt>
      <trkpt lat="44.42021" lon="1.35846">
        <ele>280</ele>
        <time>2019-04-14T08:35:22Z</time>
      </trkpt>
      <trkpt lat="44.42019" lon="1.35848">
        <ele>280</ele>
        <time>2019-04-14T08:35:23Z</time>
      </trkpt>
      <trkpt lat="44.42017" lon="1.3585">
        <ele>281</ele>
        <time>2019-04-14T08:35:24Z</time>
      </trkpt>
      <trkpt lat="44.42015" lon="1.35852">
        <ele>281</ele>
        <time>2019-04-14T08:35:25Z</time>
      </trkpt>
      <trkpt lat="44.42014" lon="1.35853">
        <ele>282</ele>
        <time>2019-04-14T08:35:26Z</time>
      </trkpt>
      <trkpt lat="44.42013" lon="1.35856">
        <ele>282</ele>
        <time>2019-04-14T08:35:27Z</time>
      </trkpt>
      <trkpt lat="44.42013" lon="1.35858">
        <ele>282</ele>
        <time>2019-04-14T08:35:28Z</time>
      </trkpt>
      <trkpt lat="44.42014" lon="1.35861">
        <ele>282</ele>
        <time>2019-04-14T08:35:29Z</time>
      </trkpt>
      <trkpt lat="44.42014" lon="1.35865">
        <ele>282</ele>
        <time>2019-04-14T08:35:30Z</time>
      </trkpt>
      <trkpt lat="44.42014" lon="1.35867">
        <ele>282</ele>
        <time>2019-04-14T08:35:31Z</time>
      </trkpt>
      <trkpt lat="44.42014" lon="1.3587">
        <ele>282</ele>
        <time>2019-04-14T08:35:32Z</time>
      </trkpt>
      <trkpt lat="44.42015" lon="1.35873">
        <ele>282</ele>
        <time>2019-04-14T08:35:33Z</time>
      </trkpt>
      <trkpt lat="44.42015" lon="1.35876">
        <ele>282</ele>
        <time>2019-04-14T08:35:34Z</time>
      </trkpt>
      <trkpt lat="44.42017" lon="1.3588">
        <ele>281</ele>
        <time>2019-04-14T08:35:35Z</time>
      </trkpt>
      <trkpt lat="44.42019" lon="1.35884">
        <ele>280</ele>
        <time>2019-04-14T08:35:36Z</time>
      </trkpt>
      <trkpt lat="44.4202" lon="1.35889">
        <ele>279</ele>
        <time>2019-04-14T08:35:37Z</time>
      </trkpt>
      <trkpt lat="44.4202" lon="1.35895">
        <ele>278</ele>
        <time>2019-04-14T08:35:38Z</time>
      </trkpt>
      <trkpt lat="44.4202" lon="1.359">
        <ele>278</ele>
        <time>2019-04-14T08:35:39Z</time>
      </trkpt>
      <trkpt lat="44.42021" lon="1.35905">
        <ele>277</ele>
        <time>2019-04-14T08:35:40Z</time>
      </trkpt>
      <trkpt lat="44.42021" lon="1.35908">
        <ele>277</ele>
        <time>2019-04-14T08:35:41Z</time>
      </trkpt>
      <trkpt lat="44.42024" lon="1.35913">
        <ele>276</ele>
        <time>2019-04-14T08:35:42Z</time>
      </trkpt>
      <trkpt lat="44.42026" lon="1.35918">
        <ele>275</ele>
        <time>2019-04-14T08:35:43Z</time>
      </trkpt>
      <trkpt lat="44.42027" lon="1.35923">
        <ele>275</ele>
        <time>2019-04-14T08:35:44Z</time>
      </trkpt>
      <trkpt lat="44.42028" lon="1.35927">
        <ele>275</ele>
        <time>2019-04-14T08:35:45Z</time>
      </trkpt>
      <trkpt lat="44.4203" lon="1.3593">
        <ele>275</ele>
        <time>2019-04-14T08:35:46Z</time>
      </trkpt>
      <trkpt lat="44.42032" lon="1.35935">
        <ele>275</ele>
        <time>2019-04-14T08:35:47Z</time>
      </trkpt>
      <trkpt lat="44.42033" lon="1.35938">
        <ele>275</ele>
        <time>2019-04-14T08:35:48Z</time>
      </trkpt>
      <trkpt lat="44.42034" lon="1.3594">
        <ele>275</ele>
        <time>2019-04-14T08:35:49Z</time>
      </trkpt>
      <trkpt lat="44.42036" lon="1.35943">
        <ele>275</ele>
        <time>2019-04-14T08:35:50Z</time>
      </trkpt>
      <trkpt lat="44.42038" lon="1.35945">
        <ele>275</ele>
        <time>2019-04-14T08:35:51Z</time>
      </trkpt>
      <trkpt lat="44.42041" lon="1.35946">
        <ele>275</ele>
        <time>2019-04-14T08:35:52Z</time>
      </trkpt>
      <trkpt lat="44.42043" lon="1.35948">
        <ele>275</ele>
        <time>2019-04-14T08:35:53Z</time>
      </trkpt>
      <trkpt lat="44.42044" lon="1.3595">
        <ele>276</ele>
        <time>2019-04-14T08:35:54Z</time>
      </trkpt>
      <trkpt lat="44.42045" lon="1.35953">
        <ele>276</ele>
        <time>2019-04-14T08:35:55Z</time>
      </trkpt>
      <trkpt lat="44.42047" lon="1.35956">
        <ele>276</ele>
        <time>2019-04-14T08:35:56Z</time>
      </trkpt>
      <trkpt lat="44.42048" lon="1.35957">
        <ele>277</ele>
        <time>2019-04-14T08:35:57Z</time>
      </trkpt>
      <trkpt lat="44.42048" lon="1.35959">
        <ele>277</ele>
        <time>2019-04-14T08:35:58Z</time>
      </trkpt>
      <trkpt lat="44.42047" lon="1.3596">
        <ele>278</ele>
        <time>2019-04-14T08:35:59Z</time>
      </trkpt>
      <trkpt lat="44.42046" lon="1.35961">
        <ele>278</ele>
        <time>2019-04-14T08:36:00Z</time>
      </trkpt>
      <trkpt lat="44.42046" lon="1.35963">
        <ele>278</ele>
        <time>2019-04-14T08:36:01Z</time>
      </trkpt>
      <trkpt lat="44.42047" lon="1.35964">
        <ele>278</ele>
        <time>2019-04-14T08:36:02Z</time>
      </trkpt>
      <trkpt lat="44.42048" lon="1.35965">
        <ele>278</ele>
        <time>2019-04-14T08:36:03Z</time>
      </trkpt>
      <trkpt lat="44.42048" lon="1.35965">
        <ele>278</ele>
        <time>2019-04-14T08:36:04Z</time>
      </trkpt>
      <trkpt lat="44.42048" lon="1.35965">
        <ele>278</ele>
        <time>2019-04-14T08:36:05Z</time>
      </trkpt>
      <trkpt lat="44.42048" lon="1.35966">
        <ele>278</ele>
        <time>2019-04-14T08:36:06Z</time>
      </trkpt>
      <trkpt lat="44.42049" lon="1.35966">
        <ele>278</ele>
        <time>2019-04-14T08:36:07Z</time>
      </trkpt>
      <trkpt lat="44.42049" lon="1.35966">
        <ele>278</ele>
        <time>2019-04-14T08:36:08Z</time>
      </trkpt>
      <trkpt lat="44.42049" lon="1.35966">
        <ele>278</ele>
        <time>2019-04-14T08:36:09Z</time>
      </trkpt>
      <trkpt lat="44.42065" lon="1.35992">
        <ele>280</ele>
        <time>2019-04-14T08:37:24Z</time>
      </trkpt>
      <trkpt lat="44.42067" lon="1.35992">
        <ele>280</ele>
        <time>2019-04-14T08:37:25Z</time>
      </trkpt>
      <trkpt lat="44.42071" lon="1.35992">
        <ele>280</ele>
        <time>2019-04-14T08:37:26Z</time>
      </trkpt>
      <trkpt lat="44.42074" lon="1.35992">
        <ele>279</ele>
        <time>2019-04-14T08:37:27Z</time>
      </trkpt>
      <trkpt lat="44.42078" lon="1.35991">
        <ele>279</ele>
        <time>2019-04-14T08:37:28Z</time>
      </trkpt>
      <trkpt lat="44.42081" lon="1.35991">
        <ele>279</ele>
        <time>2019-04-14T08:37:29Z</time>
      </trkpt>
      <trkpt lat="44.42085" lon="1.35992">
        <ele>279</ele>
        <time>2019-04-14T08:37:30Z</time>
      </trkpt>
      <trkpt lat="44.42088" lon="1.35992">
        <ele>279</ele>
        <time>2019-04-14T08:37:31Z</time>
      </trkpt>
      <trkpt lat="44.42091" lon="1.35991">
        <ele>279</ele>
        <time>2019-04-14T08:37:32Z</time>
      </trkpt>
      <trkpt lat="44.42093" lon="1.35989">
        <ele>278</ele>
        <time>2019-04-14T08:37:33Z</time>
      </trkpt>
      <trkpt lat="44.42096" lon="1.35987">
        <ele>278</ele>
        <time>2019-04-14T08:37:34Z</time>
      </trkpt>
      <trkpt lat="44.42099" lon="1.35984">
        <ele>277</ele>
        <time>2019-04-14T08:37:35Z</time>
      </trkpt>
      <trkpt lat="44.42101" lon="1.35982">
        <ele>277</ele>
        <time>2019-04-14T08:37:36Z</time>
      </trkpt>
      <trkpt lat="44.42104" lon="1.35981">
        <ele>276</ele>
        <time>2019-04-14T08:37:37Z</time>
      </trkpt>
      <trkpt lat="44.42106" lon="1.35981">
        <ele>276</ele>
        <time>2019-04-14T08:37:38Z</time>
      </trkpt>
      <trkpt lat="44.42109" lon="1.35981">
        <ele>276</ele>
        <time>2019-04-14T08:37:39Z</time>
      </trkpt>
      <trkpt lat="44.42111" lon="1.35981">
        <ele>276</ele>
        <time>2019-04-14T08:37:40Z</time>
      </trkpt>
      <trkpt lat="44.42113" lon="1.35979">
        <ele>276</ele>
        <time>2019-04-14T08:37:41Z</time>
      </trkpt>
      <trkpt lat="44.42116" lon="1.35978">
        <ele>275</ele>
        <time>2019-04-14T08:37:42Z</time>
      </trkpt>
      <trkpt lat="44.42117" lon="1.35977">
        <ele>275</ele>
        <time>2019-04-14T08:37:43Z</time>
      </trkpt>
      <trkpt lat="44.4212" lon="1.35976">
        <ele>274</ele>
        <time>2019-04-14T08:37:44Z</time>
      </trkpt>
      <trkpt lat="44.42124" lon="1.35975">
        <ele>274</ele>
        <time>2019-04-14T08:37:45Z</time>
      </trkpt>
      <trkpt lat="44.42127" lon="1.35975">
        <ele>274</ele>
        <time>2019-04-14T08:37:46Z</time>
      </trkpt>
      <trkpt lat="44.42127" lon="1.35975">
        <ele>274</ele>
        <time>2019-04-14T08:37:47Z</time>
      </trkpt>
      <trkpt lat="44.42127" lon="1.35974">
        <ele>274</ele>
        <time>2019-04-14T08:37:48Z</time>
      </trkpt>
      <trkpt lat="44.42128" lon="1.35973">
        <ele>273</ele>
        <time>2019-04-14T08:37:49Z</time>
      </trkpt>
      <trkpt lat="44.42131" lon="1.3597">
        <ele>273</ele>
        <time>2019-04-14T08:37:50Z</time>
      </trkpt>
      <trkpt lat="44.42134" lon="1.3597">
        <ele>273</ele>
        <time>2019-04-14T08:37:51Z</time>
      </trkpt>
      <trkpt lat="44.42136" lon="1.3597">
        <ele>272</ele>
        <time>2019-04-14T08:37:52Z</time>
      </trkpt>
      <trkpt lat="44.4214" lon="1.3597">
        <ele>272</ele>
        <time>2019-04-14T08:37:53Z</time>
      </trkpt>
      <trkpt lat="44.42142" lon="1.3597">
        <ele>273</ele>
        <time>2019-04-14T08:37:54Z</time>
      </trkpt>
      <trkpt lat="44.42144" lon="1.35969">
        <ele>273</ele>
        <time>2019-04-14T08:37:55Z</time>
      </trkpt>
      <trkpt lat="44.42147" lon="1.35969">
        <ele>272</ele>
        <time>2019-04-14T08:37:56Z</time>
      </trkpt>
      <trkpt lat="44.4215" lon="1.35968">
        <ele>272</ele>
        <time>2019-04-14T08:37:57Z</time>
      </trkpt>
      <trkpt lat="44.42154" lon="1.35967">
        <ele>272</ele>
        <time>2019-04-14T08:37:58Z</time>
      </trkpt>
      <trkpt lat="44.42158" lon="1.35967">
        <ele>272</ele>
        <time>2019-04-14T08:37:59Z</time>
      </trkpt>
      <trkpt lat="44.42163" lon="1.35968">
        <ele>272</ele>
        <time>2019-04-14T08:38:00Z</time>
      </trkpt>
      <trkpt lat="44.42167" lon="1.35969">
        <ele>272</ele>
        <time>2019-04-14T08:38:01Z</time>
      </trkpt>
      <trkpt lat="44.42169" lon="1.35969">
        <ele>272</ele>
        <time>2019-04-14T08:38:02Z</time>
      </trkpt>
      <trkpt lat="44.42171" lon="1.35967">
        <ele>272</ele>
        <time>2019-04-14T08:38:03Z</time>
      </trkpt>
      <trkpt lat="44.42175" lon="1.35966">
        <ele>271</ele>
        <time>2019-04-14T08:38:04Z</time>
      </trkpt>
      <trkpt lat="44.42177" lon="1.35965">
        <ele>271</ele>
        <time>2019-04-14T08:38:05Z</time>
      </trkpt>
      <trkpt lat="44.42178" lon="1.35963">
        <ele>271</ele>
        <time>2019-04-14T08:38:06Z</time>
      </trkpt>
      <trkpt lat="44.42181" lon="1.35961">
        <ele>271</ele>
        <time>2019-04-14T08:38:07Z</time>
      </trkpt>
      <trkpt lat="44.42184" lon="1.35959">
        <ele>270</ele>
        <time>2019-04-14T08:38:08Z</time>
      </trkpt>
      <trkpt lat="44.42186" lon="1.35958">
        <ele>270</ele>
        <time>2019-04-14T08:38:09Z</time>
      </trkpt>
      <trkpt lat="44.42189" lon="1.35956">
        <ele>270</ele>
        <time>2019-04-14T08:38:10Z</time>
      </trkpt>
      <trkpt lat="44.42191" lon="1.35953">
        <ele>270</ele>
        <time>2019-04-14T08:38:11Z</time>
      </trkpt>
      <trkpt lat="44.42193" lon="1.3595">
        <ele>269</ele>
        <time>2019-04-14T08:38:12Z</time>
      </trkpt>
      <trkpt lat="44.42196" lon="1.35948">
        <ele>268</ele>
        <time>2019-04-14T08:38:13Z</time>
      </trkpt>
      <trkpt lat="44.42199" lon="1.35947">
        <ele>268</ele>
        <time>2019-04-14T08:38:14Z</time>
      </trkpt>
      <trkpt lat="44.42202" lon="1.35945">
        <ele>268</ele>
        <time>2019-04-14T08:38:15Z</time>
      </trkpt>
      <trkpt lat="44.42205" lon="1.35944">
        <ele>268</ele>
        <time>2019-04-14T08:38:16Z</time>
      </trkpt>
      <trkpt lat="44.42207" lon="1.35943">
        <ele>268</ele>
        <time>2019-04-14T08:38:17Z</time>
      </trkpt>
      <trkpt lat="44.42208" lon="1.35941">
        <ele>268</ele>
        <time>2019-04-14T08:38:18Z</time>
      </trkpt>
      <trkpt lat="44.4221" lon="1.35939">
        <ele>267</ele>
        <time>2019-04-14T08:38:19Z</time>
      </trkpt>
      <trkpt lat="44.42212" lon="1.35937">
        <ele>267</ele>
        <time>2019-04-14T08:38:20Z</time>
      </trkpt>
      <trkpt lat="44.42214" lon="1.35935">
        <ele>267</ele>
        <time>2019-04-14T08:38:21Z</time>
      </trkpt>
      <trkpt lat="44.42216" lon="1.35933">
        <ele>267</ele>
        <time>2019-04-14T08:38:22Z</time>
      </trkpt>
      <trkpt lat="44.42218" lon="1.35931">
        <ele>266</ele>
        <time>2019-04-14T08:38:23Z</time>
      </trkpt>
      <trkpt lat="44.42221" lon="1.35928">
        <ele>266</ele>
        <time>2019-04-14T08:38:24Z</time>
      </trkpt>
      <trkpt lat="44.42224" lon="1.35926">
        <ele>266</ele>
        <time>2019-04-14T08:38:25Z</time>
      </trkpt>
      <trkpt lat="44.42226" lon="1.35925">
        <ele>266</ele>
        <time>2019-04-14T08:38:26Z</time>
      </trkpt>
      <trkpt lat="44.42228" lon="1.35923">
        <ele>265</ele>
        <time>2019-04-14T08:38:27Z</time>
      </trkpt>
      <trkpt lat="44.4223" lon="1.35921">
        <ele>265</ele>
        <time>2019-04-14T08:38:28Z</time>
      </trkpt>
      <trkpt lat="44.42232" lon="1.35919">
        <ele>265</ele>
        <time>2019-04-14T08:38:29Z</time>
      </trkpt>
      <trkpt lat="44.42235" lon="1.35917">
        <ele>265</ele>
        <time>2019-04-14T08:38:30Z</time>
      </trkpt>
      <trkpt lat="44.42237" lon="1.35915">
        <ele>265</ele>
        <time>2019-04-14T08:38:31Z</time>
      </trkpt>
      <trkpt lat="44.42238" lon="1.35913">
        <ele>265</ele>
        <time>2019-04-14T08:38:32Z</time>
      </trkpt>
      <trkpt lat="44.4224" lon="1.35911">
        <ele>265</ele>
        <time>2019-04-14T08:38:33Z</time>
      </trkpt>
      <trkpt lat="44.42242" lon="1.35909">
        <ele>264</ele>
        <time>2019-04-14T08:38:34Z</time>
      </trkpt>
      <trkpt lat="44.42243" lon="1.35908">
        <ele>264</ele>
        <time>2019-04-14T08:38:35Z</time>
      </trkpt>
      <trkpt lat="44.42244" lon="1.35907">
        <ele>264</ele>
        <time>2019-04-14T08:38:36Z</time>
      </trkpt>
      <trkpt lat="44.42245" lon="1.35906">
        <ele>264</ele>
        <time>2019-04-14T08:38:37Z</time>
      </trkpt>
      <trkpt lat="44.42247" lon="1.35905">
        <ele>264</ele>
        <time>2019-04-14T08:38:38Z</time>
      </trkpt>
      <trkpt lat="44.42247" lon="1.35904">
        <ele>264</ele>
        <time>2019-04-14T08:38:39Z</time>
      </trkpt>
      <trkpt lat="44.42248" lon="1.35903">
        <ele>264</ele>
        <time>2019-04-14T08:38:40Z</time>
      </trkpt>
      <trkpt lat="44.42249" lon="1.35902">
        <ele>264</ele>
        <time>2019-04-14T08:38:41Z</time>
      </trkpt>
      <trkpt lat="44.42249" lon="1.35901">
        <ele>264</ele>
        <time>2019-04-14T08:38:42Z</time>
      </trkpt>
      <trkpt lat="44.4225" lon="1.359">
        <ele>264</ele>
        <time>2019-04-14T08:38:43Z</time>
      </trkpt>
      <trkpt lat="44.42251" lon="1.35898">
        <ele>264</ele>
        <time>2019-04-14T08:38:44Z</time>
      </trkpt>
      <trkpt lat="44.42251" lon="1.35896">
        <ele>264</ele>
        <time>2019-04-14T08:38:45Z</time>
      </trkpt>
      <trkpt lat="44.42253" lon="1.35895">
        <ele>264</ele>
        <time>2019-04-14T08:38:46Z</time>
      </trkpt>
      <trkpt lat="44.42255" lon="1.35894">
        <ele>264</ele>
        <time>2019-04-14T08:38:47Z</time>
      </trkpt>
      <trkpt lat="44.42257" lon="1.35894">
        <ele>264</ele>
        <time>2019-04-14T08:38:48Z</time>
      </trkpt>
      <trkpt lat="44.42259" lon="1.35892">
        <ele>264</ele>
        <time>2019-04-14T08:38:49Z</time>
      </trkpt>
      <trkpt lat="44.4226" lon="1.3589">
        <ele>264</ele>
        <time>2019-04-14T08:38:50Z</time>
      </trkpt>
      <trkpt lat="44.42262" lon="1.35888">
        <ele>264</ele>
        <time>2019-04-14T08:38:51Z</time>
      </trkpt>
      <trkpt lat="44.42264" lon="1.35886">
        <ele>264</ele>
        <time>2019-04-14T08:38:52Z</time>
      </trkpt>
      <trkpt lat="44.42266" lon="1.35882">
        <ele>264</ele>
        <time>2019-04-14T08:38:53Z</time>
      </trkpt>
      <trkpt lat="44.42268" lon="1.35878">
        <ele>263</ele>
        <time>2019-04-14T08:38:54Z</time>
      </trkpt>
      <trkpt lat="44.4227" lon="1.35874">
        <ele>263</ele>
        <time>2019-04-14T08:38:55Z</time>
      </trkpt>
      <trkpt lat="44.42272" lon="1.3587">
        <ele>263</ele>
        <time>2019-04-14T08:38:56Z</time>
      </trkpt>
      <trkpt lat="44.42274" lon="1.35868">
        <ele>263</ele>
        <time>2019-04-14T08:38:57Z</time>
      </trkpt>
      <trkpt lat="44.42276" lon="1.35865">
        <ele>262</ele>
        <time>2019-04-14T08:38:58Z</time>
      </trkpt>
      <trkpt lat="44.42279" lon="1.35863">
        <ele>262</ele>
        <time>2019-04-14T08:38:59Z</time>
      </trkpt>
      <trkpt lat="44.42281" lon="1.35861">
        <ele>262</ele>
        <time>2019-04-14T08:39:00Z</time>
      </trkpt>
      <trkpt lat="44.42283" lon="1.3586">
        <ele>263</ele>
        <time>2019-04-14T08:39:01Z</time>
      </trkpt>
      <trkpt lat="44.42285" lon="1.35859">
        <ele>263</ele>
        <time>2019-04-14T08:39:02Z</time>
      </trkpt>
      <trkpt lat="44.42287" lon="1.35858">
        <ele>263</ele>
        <time>2019-04-14T08:39:03Z</time>
      </trkpt>
      <trkpt lat="44.42288" lon="1.35857">
        <ele>263</ele>
        <time>2019-04-14T08:39:04Z</time>
      </trkpt>
      <trkpt lat="44.4229" lon="1.35855">
        <ele>263</ele>
        <time>2019-04-14T08:39:05Z</time>
      </trkpt>
      <trkpt lat="44.42292" lon="1.35853">
        <ele>263</ele>
        <time>2019-04-14T08:39:06Z</time>
      </trkpt>
      <trkpt lat="44.42295" lon="1.35851">
        <ele>262</ele>
        <time>2019-04-14T08:39:07Z</time>
      </trkpt>
      <trkpt lat="44.42297" lon="1.35849">
        <ele>263</ele>
        <time>2019-04-14T08:39:08Z</time>
      </trkpt>
      <trkpt lat="44.42299" lon="1.35848">
        <ele>263</ele>
        <time>2019-04-14T08:39:09Z</time>
      </trkpt>
      <trkpt lat="44.42301" lon="1.35845">
        <ele>263</ele>
        <time>2019-04-14T08:39:10Z</time>
      </trkpt>
      <trkpt lat="44.42302" lon="1.35842">
        <ele>262</ele>
        <time>2019-04-14T08:39:11Z</time>
      </trkpt>
      <trkpt lat="44.42304" lon="1.35839">
        <ele>262</ele>
        <time>2019-04-14T08:39:12Z</time>
      </trkpt>
      <trkpt lat="44.42306" lon="1.35836">
        <ele>262</ele>
        <time>2019-04-14T08:39:13Z</time>
      </trkpt>
      <trkpt lat="44.42308" lon="1.35834">
        <ele>262</ele>
        <time>2019-04-14T08:39:14Z</time>
      </trkpt>
      <trkpt lat="44.42311" lon="1.35833">
        <ele>262</ele>
        <time>2019-04-14T08:39:15Z</time>
      </trkpt>
      <trkpt lat="44.42313" lon="1.35832">
        <ele>263</ele>
        <time>2019-04-14T08:39:16Z</time>
      </trkpt>
      <trkpt lat="44.42315" lon="1.3583">
        <ele>263</ele>
        <time>2019-04-14T08:39:17Z</time>
      </trkpt>
      <trkpt lat="44.42316" lon="1.35828">
        <ele>263</ele>
        <time>2019-04-14T08:39:18Z</time>
      </trkpt>
      <trkpt lat="44.42317" lon="1.35825">
        <ele>263</ele>
        <time>2019-04-14T08:39:19Z</time>
      </trkpt>
      <trkpt lat="44.42319" lon="1.35823">
        <ele>263</ele>
        <time>2019-04-14T08:39:20Z</time>
      </trkpt>
      <trkpt lat="44.42321" lon="1.3582">
        <ele>263</ele>
        <time>2019-04-14T08:39:21Z</time>
      </trkpt>
      <trkpt lat="44.42322" lon="1.35817">
        <ele>263</ele>
        <time>2019-04-14T08:39:22Z</time>
      </trkpt>
      <trkpt lat="44.42323" lon="1.35814">
        <ele>263</ele>
        <time>2019-04-14T08:39:23Z</time>
      </trkpt>
      <trkpt lat="44.42325" lon="1.35811">
        <ele>263</ele>
        <time>2019-04-14T08:39:24Z</time>
      </trkpt>
      <trkpt lat="44.42327" lon="1.35807">
        <ele>263</ele>
        <time>2019-04-14T08:39:25Z</time>
      </trkpt>
      <trkpt lat="44.42329" lon="1.35804">
        <ele>263</ele>
        <time>2019-04-14T08:39:26Z</time>
      </trkpt>
      <trkpt lat="44.42331" lon="1.35801">
        <ele>263</ele>
        <time>2019-04-14T08:39:27Z</time>
      </trkpt>
      <trkpt lat="44.42332" lon="1.35798">
        <ele>263</ele>
        <time>2019-04-14T08:39:28Z</time>
      </trkpt>
      <trkpt lat="44.42335" lon="1.35795">
        <ele>263</ele>
        <time>2019-04-14T08:39:29Z</time>
      </trkpt>
      <trkpt lat="44.42337" lon="1.35793">
        <ele>263</ele>
        <time>2019-04-14T08:39:30Z</time>
      </trkpt>
      <trkpt lat="44.4234" lon="1.35791">
        <ele>263</ele>
        <time>2019-04-14T08:39:31Z</time>
      </trkpt>
      <trkpt lat="44.42343" lon="1.35789">
        <ele>263</ele>
        <time>2019-04-14T08:39:32Z</time>
      </trkpt>
      <trkpt lat="44.42344" lon="1.35787">
        <ele>263</ele>
        <time>2019-04-14T08:39:33Z</time>
      </trkpt>
      <trkpt lat="44.42346" lon="1.35784">
        <ele>263</ele>
        <time>2019-04-14T08:39:34Z</time>
      </trkpt>
      <trkpt lat="44.42349" lon="1.35783">
        <ele>263</ele>
        <time>2019-04-14T08:39:35Z</time>
      </trkpt>
      <trkpt lat="44.42352" lon="1.35783">
        <ele>264</ele>
        <time>2019-04-14T08:39:36Z</time>
      </trkpt>
      <trkpt lat="44.42354" lon="1.35782">
        <ele>264</ele>
        <time>2019-04-14T08:39:37Z</time>
      </trkpt>
      <trkpt lat="44.42355" lon="1.35781">
        <ele>264</ele>
        <time>2019-04-14T08:39:38Z</time>
      </trkpt>
      <trkpt lat="44.42357" lon="1.3578">
        <ele>264</ele>
        <time>2019-04-14T08:39:39Z</time>
      </trkpt>
      <trkpt lat="44.42359" lon="1.35777">
        <ele>264</ele>
        <time>2019-04-14T08:39:40Z</time>
      </trkpt>
      <trkpt lat="44.4236" lon="1.35776">
        <ele>264</ele>
        <time>2019-04-14T08:39:41Z</time>
      </trkpt>
      <trkpt lat="44.42363" lon="1.35774">
        <ele>265</ele>
        <time>2019-04-14T08:39:42Z</time>
      </trkpt>
      <trkpt lat="44.42364" lon="1.35773">
        <ele>265</ele>
        <time>2019-04-14T08:39:43Z</time>
      </trkpt>
      <trkpt lat="44.42365" lon="1.35772">
        <ele>265</ele>
        <time>2019-04-14T08:39:44Z</time>
      </trkpt>
      <trkpt lat="44.42365" lon="1.35772">
        <ele>265</ele>
        <time>2019-04-14T08:39:45Z</time>
      </trkpt>
      <trkpt lat="44.42365" lon="1.35771">
        <ele>265</ele>
        <time>2019-04-14T08:39:46Z</time>
      </trkpt>
      <trkpt lat="44.42365" lon="1.35771">
        <ele>265</ele>
        <time>2019-04-14T08:39:47Z</time>
      </trkpt>
      <trkpt lat="44.42365" lon="1.3577">
        <ele>265</ele>
        <time>2019-04-14T08:39:48Z</time>
      </trkpt>
      <trkpt lat="44.42364" lon="1.35767">
        <ele>265</ele>
        <time>2019-04-14T08:39:49Z</time>
      </trkpt>
      <trkpt lat="44.42364" lon="1.35763">
        <ele>264</ele>
        <time>2019-04-14T08:39:50Z</time>
      </trkpt>
      <trkpt lat="44.42379" lon="1.3575">
        <ele>265</ele>
        <time>2019-04-14T08:39:56Z</time>
      </trkpt>
      <trkpt lat="44.42382" lon="1.35747">
        <ele>265</ele>
        <time>2019-04-14T08:39:57Z</time>
      </trkpt>
      <trkpt lat="44.42386" lon="1.35746">
        <ele>265</ele>
        <time>2019-04-14T08:39:58Z</time>
      </trkpt>
      <trkpt lat="44.42389" lon="1.35744">
        <ele>265</ele>
        <time>2019-04-14T08:39:59Z</time>
      </trkpt>
      <trkpt lat="44.42391" lon="1.35741">
        <ele>265</ele>
        <time>2019-04-14T08:40:00Z</time>
      </trkpt>
      <trkpt lat="44.42393" lon="1.35735">
        <ele>265</ele>
        <time>2019-04-14T08:40:01Z</time>
      </trkpt>
      <trkpt lat="44.42392" lon="1.35729">
        <ele>265</ele>
        <time>2019-04-14T08:40:02Z</time>
      </trkpt>
      <trkpt lat="44.42391" lon="1.35723">
        <ele>265</ele>
        <time>2019-04-14T08:40:03Z</time>
      </trkpt>
      <trkpt lat="44.42389" lon="1.35717">
        <ele>264</ele>
        <time>2019-04-14T08:40:04Z</time>
      </trkpt>
      <trkpt lat="44.42387" lon="1.35711">
        <ele>264</ele>
        <time>2019-04-14T08:40:05Z</time>
      </trkpt>
      <trkpt lat="44.42385" lon="1.35706">
        <ele>263</ele>
        <time>2019-04-14T08:40:06Z</time>
      </trkpt>
      <trkpt lat="44.42384" lon="1.35701">
        <ele>262</ele>
        <time>2019-04-14T08:40:07Z</time>
      </trkpt>
      <trkpt lat="44.42384" lon="1.35696">
        <ele>261</ele>
        <time>2019-04-14T08:40:08Z</time>
      </trkpt>
      <trkpt lat="44.42383" lon="1.35693">
        <ele>261</ele>
        <time>2019-04-14T08:40:09Z</time>
      </trkpt>
      <trkpt lat="44.42384" lon="1.3569">
        <ele>260</ele>
        <time>2019-04-14T08:40:10Z</time>
      </trkpt>
      <trkpt lat="44.42383" lon="1.35689">
        <ele>260</ele>
        <time>2019-04-14T08:40:11Z</time>
      </trkpt>
      <trkpt lat="44.42384" lon="1.35687">
        <ele>260</ele>
        <time>2019-04-14T08:40:12Z</time>
      </trkpt>
      <trkpt lat="44.42384" lon="1.35686">
        <ele>260</ele>
        <time>2019-04-14T08:40:13Z</time>
      </trkpt>
      <trkpt lat="44.42385" lon="1.35684">
        <ele>259</ele>
        <time>2019-04-14T08:40:14Z</time>
      </trkpt>
      <trkpt lat="44.42385" lon="1.35683">
        <ele>260</ele>
        <time>2019-04-14T08:40:15Z</time>
      </trkpt>
      <trkpt lat="44.42386" lon="1.35682">
        <ele>259</ele>
        <time>2019-04-14T08:40:16Z</time>
      </trkpt>
      <trkpt lat="44.42386" lon="1.35681">
        <ele>259</ele>
        <time>2019-04-14T08:40:17Z</time>
      </trkpt>
      <trkpt lat="44.42387" lon="1.3568">
        <ele>259</ele>
        <time>2019-04-14T08:40:18Z</time>
      </trkpt>
      <trkpt lat="44.42387" lon="1.3568">
        <ele>259</ele>
        <time>2019-04-14T08:40:19Z</time>
      </trkpt>
      <trkpt lat="44.42388" lon="1.3568">
        <ele>259</ele>
        <time>2019-04-14T08:40:20Z</time>
      </trkpt>
      <trkpt lat="44.42389" lon="1.3568">
        <ele>260</ele>
        <time>2019-04-14T08:40:21Z</time>
      </trkpt>
      <trkpt lat="44.42389" lon="1.3568">
        <ele>260</ele>
        <time>2019-04-14T08:40:22Z</time>
      </trkpt>
      <trkpt lat="44.42389" lon="1.35681">
        <ele>260</ele>
        <time>2019-04-14T08:40:23Z</time>
      </trkpt>
      <trkpt lat="44.42389" lon="1.3568">
        <ele>260</ele>
        <time>2019-04-14T08:40:24Z</time>
      </trkpt>
      <trkpt lat="44.42389" lon="1.3568">
        <ele>260</ele>
        <time>2019-04-14T08:40:25Z</time>
      </trkpt>
      <trkpt lat="44.42389" lon="1.3568">
        <ele>260</ele>
        <time>2019-04-14T08:40:26Z</time>
      </trkpt>
      <trkpt lat="44.42389" lon="1.3568">
        <ele>260</ele>
        <time>2019-04-14T08:40:27Z</time>
      </trkpt>
      <trkpt lat="44.42389" lon="1.35679">
        <ele>260</ele>
        <time>2019-04-14T08:40:28Z</time>
      </trkpt>
      <trkpt lat="44.4241" lon="1.35647">
        <ele>258</ele>
        <time>2019-04-14T08:41:13Z</time>
      </trkpt>
      <trkpt lat="44.42414" lon="1.35644">
        <ele>258</ele>
        <time>2019-04-14T08:41:14Z</time>
      </trkpt>
      <trkpt lat="44.42417" lon="1.3564">
        <ele>258</ele>
        <time>2019-04-14T08:41:15Z</time>
      </trkpt>
      <trkpt lat="44.42422" lon="1.35638">
        <ele>259</ele>
        <time>2019-04-14T08:41:16Z</time>
      </trkpt>
      <trkpt lat="44.42427" lon="1.35637">
        <ele>259</ele>
        <time>2019-04-14T08:41:17Z</time>
      </trkpt>
      <trkpt lat="44.42431" lon="1.35636">
        <ele>259</ele>
        <time>2019-04-14T08:41:18Z</time>
      </trkpt>
      <trkpt lat="44.42435" lon="1.35634">
        <ele>260</ele>
        <time>2019-04-14T08:41:19Z</time>
      </trkpt>
      <trkpt lat="44.42439" lon="1.35632">
        <ele>260</ele>
        <time>2019-04-14T08:41:20Z</time>
      </trkpt>
      <trkpt lat="44.42443" lon="1.35632">
        <ele>260</ele>
        <time>2019-04-14T08:41:21Z</time>
      </trkpt>
      <trkpt lat="44.42446" lon="1.35633">
        <ele>261</ele>
        <time>2019-04-14T08:41:22Z</time>
      </trkpt>
      <trkpt lat="44.42449" lon="1.35632">
        <ele>261</ele>
        <time>2019-04-14T08:41:23Z</time>
      </trkpt>
      <trkpt lat="44.42452" lon="1.35631">
        <ele>261</ele>
        <time>2019-04-14T08:41:24Z</time>
      </trkpt>
      <trkpt lat="44.42455" lon="1.35629">
        <ele>261</ele>
        <time>2019-04-14T08:41:25Z</time>
      </trkpt>
      <trkpt lat="44.42457" lon="1.35628">
        <ele>261</ele>
        <time>2019-04-14T08:41:26Z</time>
      </trkpt>
      <trkpt lat="44.42459" lon="1.35627">
        <ele>261</ele>
        <time>2019-04-14T08:41:27Z</time>
      </trkpt>
      <trkpt lat="44.42461" lon="1.35626">
        <ele>261</ele>
        <time>2019-04-14T08:41:28Z</time>
      </trkpt>
      <trkpt lat="44.42462" lon="1.35626">
        <ele>261</ele>
        <time>2019-04-14T08:41:29Z</time>
      </trkpt>
      <trkpt lat="44.42463" lon="1.35626">
        <ele>261</ele>
        <time>2019-04-14T08:41:30Z</time>
      </trkpt>
      <trkpt lat="44.42463" lon="1.35626">
        <ele>261</ele>
        <time>2019-04-14T08:41:31Z</time>
      </trkpt>
      <trkpt lat="44.42464" lon="1.35625">
        <ele>261</ele>
        <time>2019-04-14T08:41:32Z</time>
      </trkpt>
      <trkpt lat="44.42464" lon="1.35626">
        <ele>261</ele>
        <time>2019-04-14T08:41:33Z</time>
      </trkpt>
      <trkpt lat="44.42465" lon="1.35625">
        <ele>261</ele>
        <time>2019-04-14T08:41:34Z</time>
      </trkpt>
      <trkpt lat="44.42466" lon="1.35624">
        <ele>261</ele>
        <time>2019-04-14T08:41:35Z</time>
      </trkpt>
      <trkpt lat="44.42467" lon="1.35623">
        <ele>261</ele>
        <time>2019-04-14T08:41:36Z</time>
      </trkpt>
      <trkpt lat="44.42468" lon="1.35622">
        <ele>261</ele>
        <time>2019-04-14T08:41:37Z</time>
      </trkpt>
      <trkpt lat="44.4248" lon="1.35614">
        <ele>261</ele>
        <time>2019-04-14T08:41:43Z</time>
      </trkpt>
      <trkpt lat="44.42481" lon="1.35613">
        <ele>261</ele>
        <time>2019-04-14T08:41:44Z</time>
      </trkpt>
      <trkpt lat="44.42481" lon="1.35613">
        <ele>261</ele>
        <time>2019-04-14T08:41:45Z</time>
      </trkpt>
      <trkpt lat="44.42481" lon="1.35613">
        <ele>261</ele>
        <time>2019-04-14T08:41:46Z</time>
      </trkpt>
      <trkpt lat="44.42481" lon="1.35612">
        <ele>260</ele>
        <time>2019-04-14T08:41:47Z</time>
      </trkpt>
      <trkpt lat="44.42481" lon="1.35612">
        <ele>260</ele>
        <time>2019-04-14T08:41:48Z</time>
      </trkpt>
      <trkpt lat="44.42482" lon="1.35612">
        <ele>260</ele>
        <time>2019-04-14T08:41:49Z</time>
      </trkpt>
      <trkpt lat="44.42482" lon="1.35612">
        <ele>260</ele>
        <time>2019-04-14T08:41:50Z</time>
      </trkpt>
      <trkpt lat="44.42482" lon="1.35612">
        <ele>260</ele>
        <time>2019-04-14T08:41:51Z</time>
      </trkpt>
      <trkpt lat="44.42482" lon="1.35612">
        <ele>260</ele>
        <time>2019-04-14T08:41:52Z</time>
      </trkpt>
      <trkpt lat="44.42505" lon="1.35587">
        <ele>258</ele>
        <time>2019-04-14T08:42:12Z</time>
      </trkpt>
      <trkpt lat="44.42508" lon="1.35587">
        <ele>258</ele>
        <time>2019-04-14T08:42:13Z</time>
      </trkpt>
      <trkpt lat="44.4251" lon="1.35588">
        <ele>258</ele>
        <time>2019-04-14T08:42:14Z</time>
      </trkpt>
      <trkpt lat="44.42512" lon="1.35588">
        <ele>258</ele>
        <time>2019-04-14T08:42:15Z</time>
      </trkpt>
      <trkpt lat="44.42516" lon="1.35589">
        <ele>259</ele>
        <time>2019-04-14T08:42:16Z</time>
      </trkpt>
      <trkpt lat="44.42518" lon="1.3559">
        <ele>259</ele>
        <time>2019-04-14T08:42:17Z</time>
      </trkpt>
      <trkpt lat="44.4252" lon="1.3559">
        <ele>259</ele>
        <time>2019-04-14T08:42:18Z</time>
      </trkpt>
      <trkpt lat="44.42522" lon="1.35589">
        <ele>259</ele>
        <time>2019-04-14T08:42:19Z</time>
      </trkpt>
      <trkpt lat="44.42526" lon="1.35588">
        <ele>259</ele>
        <time>2019-04-14T08:42:20Z</time>
      </trkpt>
      <trkpt lat="44.4253" lon="1.35587">
        <ele>259</ele>
        <time>2019-04-14T08:42:21Z</time>
      </trkpt>
      <trkpt lat="44.42533" lon="1.35587">
        <ele>259</ele>
        <time>2019-04-14T08:42:22Z</time>
      </trkpt>
      <trkpt lat="44.42536" lon="1.35586">
        <ele>259</ele>
        <time>2019-04-14T08:42:23Z</time>
      </trkpt>
      <trkpt lat="44.42538" lon="1.35585">
        <ele>259</ele>
        <time>2019-04-14T08:42:24Z</time>
      </trkpt>
      <trkpt lat="44.4254" lon="1.35585">
        <ele>259</ele>
        <time>2019-04-14T08:42:25Z</time>
      </trkpt>
      <trkpt lat="44.42541" lon="1.35584">
        <ele>259</ele>
        <time>2019-04-14T08:42:26Z</time>
      </trkpt>
      <trkpt lat="44.42542" lon="1.35584">
        <ele>259</ele>
        <time>2019-04-14T08:42:27Z</time>
      </trkpt>
      <trkpt lat="44.42544" lon="1.35584">
        <ele>259</ele>
        <time>2019-04-14T08:42:28Z</time>
      </trkpt>
      <trkpt lat="44.42546" lon="1.35583">
        <ele>259</ele>
        <time>2019-04-14T08:42:29Z</time>
      </trkpt>
      <trkpt lat="44.42549" lon="1.35583">
        <ele>259</ele>
        <time>2019-04-14T08:42:30Z</time>
      </trkpt>
      <trkpt lat="44.42551" lon="1.3558">
        <ele>258</ele>
        <time>2019-04-14T08:42:31Z</time>
      </trkpt>
      <trkpt lat="44.42553" lon="1.35577">
        <ele>258</ele>
        <time>2019-04-14T08:42:32Z</time>
      </trkpt>
      <trkpt lat="44.42554" lon="1.35573">
        <ele>258</ele>
        <time>2019-04-14T08:42:33Z</time>
      </trkpt>
      <trkpt lat="44.42556" lon="1.3557">
        <ele>257</ele>
        <time>2019-04-14T08:42:34Z</time>
      </trkpt>
      <trkpt lat="44.42559" lon="1.35567">
        <ele>257</ele>
        <time>2019-04-14T08:42:35Z</time>
      </trkpt>
      <trkpt lat="44.42562" lon="1.35564">
        <ele>256</ele>
        <time>2019-04-14T08:42:36Z</time>
      </trkpt>
      <trkpt lat="44.42565" lon="1.35561">
        <ele>256</ele>
        <time>2019-04-14T08:42:37Z</time>
      </trkpt>
      <trkpt lat="44.42567" lon="1.35559">
        <ele>255</ele>
        <time>2019-04-14T08:42:38Z</time>
      </trkpt>
      <trkpt lat="44.4257" lon="1.35557">
        <ele>255</ele>
        <time>2019-04-14T08:42:39Z</time>
      </trkpt>
      <trkpt lat="44.42572" lon="1.35556">
        <ele>255</ele>
        <time>2019-04-14T08:42:40Z</time>
      </trkpt>
      <trkpt lat="44.42575" lon="1.35555">
        <ele>255</ele>
        <time>2019-04-14T08:42:41Z</time>
      </trkpt>
      <trkpt lat="44.42578" lon="1.35554">
        <ele>254</ele>
        <time>2019-04-14T08:42:42Z</time>
      </trkpt>
      <trkpt lat="44.42582" lon="1.35553">
        <ele>254</ele>
        <time>2019-04-14T08:42:43Z</time>
      </trkpt>
      <trkpt lat="44.42586" lon="1.35552">
        <ele>254</ele>
        <time>2019-04-14T08:42:44Z</time>
      </trkpt>
      <trkpt lat="44.42589" lon="1.35552">
        <ele>254</ele>
        <time>2019-04-14T08:42:45Z</time>
      </trkpt>
      <trkpt lat="44.42592" lon="1.35551">
        <ele>254</ele>
        <time>2019-04-14T08:42:46Z</time>
      </trkpt>
      <trkpt lat="44.42594" lon="1.35551">
        <ele>254</ele>
        <time>2019-04-14T08:42:47Z</time>
      </trkpt>
      <trkpt lat="44.42597" lon="1.35552">
        <ele>254</ele>
        <time>2019-04-14T08:42:48Z</time>
      </trkpt>
      <trkpt lat="44.426" lon="1.35552">
        <ele>254</ele>
        <time>2019-04-14T08:42:49Z</time>
      </trkpt>
      <trkpt lat="44.42602" lon="1.35551">
        <ele>254</ele>
        <time>2019-04-14T08:42:50Z</time>
      </trkpt>
      <trkpt lat="44.42604" lon="1.35549">
        <ele>254</ele>
        <time>2019-04-14T08:42:51Z</time>
      </trkpt>
      <trkpt lat="44.42607" lon="1.35549">
        <ele>254</ele>
        <time>2019-04-14T08:42:52Z</time>
      </trkpt>
      <trkpt lat="44.4261" lon="1.35549">
        <ele>254</ele>
        <time>2019-04-14T08:42:53Z</time>
      </trkpt>
      <trkpt lat="44.42612" lon="1.3555">
        <ele>254</ele>
        <time>2019-04-14T08:42:54Z</time>
      </trkpt>
      <trkpt lat="44.42614" lon="1.35549">
        <ele>254</ele>
        <time>2019-04-14T08:42:55Z</time>
      </trkpt>
      <trkpt lat="44.42615" lon="1.35549">
        <ele>253</ele>
        <time>2019-04-14T08:42:56Z</time>
      </trkpt>
      <trkpt lat="44.42619" lon="1.3555">
        <ele>253</ele>
        <time>2019-04-14T08:42:57Z</time>
      </trkpt>
      <trkpt lat="44.42622" lon="1.35552">
        <ele>253</ele>
        <time>2019-04-14T08:42:58Z</time>
      </trkpt>
      <trkpt lat="44.42625" lon="1.35553">
        <ele>253</ele>
        <time>2019-04-14T08:42:59Z</time>
      </trkpt>
      <trkpt lat="44.42627" lon="1.35556">
        <ele>253</ele>
        <time>2019-04-14T08:43:00Z</time>
      </trkpt>
      <trkpt lat="44.4263" lon="1.35559">
        <ele>254</ele>
        <time>2019-04-14T08:43:01Z</time>
      </trkpt>
      <trkpt lat="44.42632" lon="1.35563">
        <ele>254</ele>
        <time>2019-04-14T08:43:02Z</time>
      </trkpt>
      <trkpt lat="44.42633" lon="1.35566">
        <ele>254</ele>
        <time>2019-04-14T08:43:03Z</time>
      </trkpt>
      <trkpt lat="44.42635" lon="1.3557">
        <ele>255</ele>
        <time>2019-04-14T08:43:04Z</time>
      </trkpt>
      <trkpt lat="44.42636" lon="1.35573">
        <ele>255</ele>
        <time>2019-04-14T08:43:05Z</time>
      </trkpt>
      <trkpt lat="44.42638" lon="1.35576">
        <ele>255</ele>
        <time>2019-04-14T08:43:06Z</time>
      </trkpt>
      <trkpt lat="44.42639" lon="1.35579">
        <ele>255</ele>
        <time>2019-04-14T08:43:07Z</time>
      </trkpt>
      <trkpt lat="44.42641" lon="1.35581">
        <ele>255</ele>
        <time>2019-04-14T08:43:08Z</time>
      </trkpt>
      <trkpt lat="44.42641" lon="1.35582">
        <ele>255</ele>
        <time>2019-04-14T08:43:09Z</time>
      </trkpt>
      <trkpt lat="44.42642" lon="1.35582">
        <ele>256</ele>
        <time>2019-04-14T08:43:10Z</time>
      </trkpt>
      <trkpt lat="44.42644" lon="1.35583">
        <ele>255</ele>
        <time>2019-04-14T08:43:11Z</time>
      </trkpt>
      <trkpt lat="44.42646" lon="1.35586">
        <ele>255</ele>
        <time>2019-04-14T08:43:12Z</time>
      </trkpt>
      <trkpt lat="44.42647" lon="1.35588">
        <ele>256</ele>
        <time>2019-04-14T08:43:13Z</time>
      </trkpt>
      <trkpt lat="44.42647" lon="1.3559">
        <ele>256</ele>
        <time>2019-04-14T08:43:14Z</time>
      </trkpt>
      <trkpt lat="44.42648" lon="1.35589">
        <ele>255</ele>
        <time>2019-04-14T08:43:15Z</time>
      </trkpt>
      <trkpt lat="44.42651" lon="1.35587">
        <ele>255</ele>
        <time>2019-04-14T08:43:16Z</time>
      </trkpt>
      <trkpt lat="44.42655" lon="1.35584">
        <ele>255</ele>
        <time>2019-04-14T08:43:17Z</time>
      </trkpt>
      <trkpt lat="44.42658" lon="1.35583">
        <ele>254</ele>
        <time>2019-04-14T08:43:18Z</time>
      </trkpt>
      <trkpt lat="44.42661" lon="1.35583">
        <ele>254</ele>
        <time>2019-04-14T08:43:19Z</time>
      </trkpt>
      <trkpt lat="44.42665" lon="1.35582">
        <ele>254</ele>
        <time>2019-04-14T08:43:20Z</time>
      </trkpt>
      <trkpt lat="44.42669" lon="1.35581">
        <ele>253</ele>
        <time>2019-04-14T08:43:21Z</time>
      </trkpt>
      <trkpt lat="44.42671" lon="1.35582">
        <ele>252</ele>
        <time>2019-04-14T08:43:22Z</time>
      </trkpt>
      <trkpt lat="44.42674" lon="1.35582">
        <ele>252</ele>
        <time>2019-04-14T08:43:23Z</time>
      </trkpt>
      <trkpt lat="44.42678" lon="1.35582">
        <ele>252</ele>
        <time>2019-04-14T08:43:24Z</time>
      </trkpt>
      <trkpt lat="44.42681" lon="1.35581">
        <ele>251</ele>
        <time>2019-04-14T08:43:25Z</time>
      </trkpt>
      <trkpt lat="44.42686" lon="1.35581">
        <ele>251</ele>
        <time>2019-04-14T08:43:26Z</time>
      </trkpt>
      <trkpt lat="44.4269" lon="1.35582">
        <ele>251</ele>
        <time>2019-04-14T08:43:27Z</time>
      </trkpt>
      <trkpt lat="44.42695" lon="1.35584">
        <ele>250</ele>
        <time>2019-04-14T08:43:28Z</time>
      </trkpt>
      <trkpt lat="44.42698" lon="1.35585">
        <ele>250</ele>
        <time>2019-04-14T08:43:29Z</time>
      </trkpt>
      <trkpt lat="44.427" lon="1.35587">
        <ele>250</ele>
        <time>2019-04-14T08:43:30Z</time>
      </trkpt>
      <trkpt lat="44.42704" lon="1.3559">
        <ele>249</ele>
        <time>2019-04-14T08:43:31Z</time>
      </trkpt>
      <trkpt lat="44.42707" lon="1.3559">
        <ele>249</ele>
        <time>2019-04-14T08:43:32Z</time>
      </trkpt>
      <trkpt lat="44.42711" lon="1.3559">
        <ele>249</ele>
        <time>2019-04-14T08:43:33Z</time>
      </trkpt>
      <trkpt lat="44.42715" lon="1.3559">
        <ele>248</ele>
        <time>2019-04-14T08:43:34Z</time>
      </trkpt>
      <trkpt lat="44.42718" lon="1.35591">
        <ele>248</ele>
        <time>2019-04-14T08:43:35Z</time>
      </trkpt>
      <trkpt lat="44.42721" lon="1.35591">
        <ele>247</ele>
        <time>2019-04-14T08:43:36Z</time>
      </trkpt>
      <trkpt lat="44.42723" lon="1.35592">
        <ele>247</ele>
        <time>2019-04-14T08:43:37Z</time>
      </trkpt>
      <trkpt lat="44.42726" lon="1.35591">
        <ele>247</ele>
        <time>2019-04-14T08:43:38Z</time>
      </trkpt>
      <trkpt lat="44.42729" lon="1.35592">
        <ele>246</ele>
        <time>2019-04-14T08:43:39Z</time>
      </trkpt>
      <trkpt lat="44.4273" lon="1.35591">
        <ele>246</ele>
        <time>2019-04-14T08:43:40Z</time>
      </trkpt>
      <trkpt lat="44.42732" lon="1.35591">
        <ele>245</ele>
        <time>2019-04-14T08:43:41Z</time>
      </trkpt>
      <trkpt lat="44.42734" lon="1.35591">
        <ele>245</ele>
        <time>2019-04-14T08:43:42Z</time>
      </trkpt>
      <trkpt lat="44.42737" lon="1.35592">
        <ele>245</ele>
        <time>2019-04-14T08:43:43Z</time>
      </trkpt>
      <trkpt lat="44.42739" lon="1.35595">
        <ele>245</ele>
        <time>2019-04-14T08:43:44Z</time>
      </trkpt>
      <trkpt lat="44.4274" lon="1.35598">
        <ele>245</ele>
        <time>2019-04-14T08:43:45Z</time>
      </trkpt>
      <trkpt lat="44.42741" lon="1.35601">
        <ele>245</ele>
        <time>2019-04-14T08:43:46Z</time>
      </trkpt>
      <trkpt lat="44.42743" lon="1.35604">
        <ele>245</ele>
        <time>2019-04-14T08:43:47Z</time>
      </trkpt>
      <trkpt lat="44.42744" lon="1.35607">
        <ele>245</ele>
        <time>2019-04-14T08:43:48Z</time>
      </trkpt>
      <trkpt lat="44.42746" lon="1.3561">
        <ele>246</ele>
        <time>2019-04-14T08:43:49Z</time>
      </trkpt>
      <trkpt lat="44.42747" lon="1.35612">
        <ele>246</ele>
        <time>2019-04-14T08:43:50Z</time>
      </trkpt>
      <trkpt lat="44.42748" lon="1.35612">
        <ele>245</ele>
        <time>2019-04-14T08:43:51Z</time>
      </trkpt>
      <trkpt lat="44.42749" lon="1.35611">
        <ele>245</ele>
        <time>2019-04-14T08:43:52Z</time>
      </trkpt>
      <trkpt lat="44.42751" lon="1.35609">
        <ele>245</ele>
        <time>2019-04-14T08:43:53Z</time>
      </trkpt>
      <trkpt lat="44.42753" lon="1.35609">
        <ele>245</ele>
        <time>2019-04-14T08:43:54Z</time>
      </trkpt>
      <trkpt lat="44.42755" lon="1.35611">
        <ele>244</ele>
        <time>2019-04-14T08:43:55Z</time>
      </trkpt>
      <trkpt lat="44.42756" lon="1.3561">
        <ele>244</ele>
        <time>2019-04-14T08:43:56Z</time>
      </trkpt>
      <trkpt lat="44.42757" lon="1.35608">
        <ele>244</ele>
        <time>2019-04-14T08:43:57Z</time>
      </trkpt>
      <trkpt lat="44.42759" lon="1.35606">
        <ele>243</ele>
        <time>2019-04-14T08:43:58Z</time>
      </trkpt>
      <trkpt lat="44.42761" lon="1.35605">
        <ele>243</ele>
        <time>2019-04-14T08:43:59Z</time>
      </trkpt>
      <trkpt lat="44.42763" lon="1.35605">
        <ele>243</ele>
        <time>2019-04-14T08:44:00Z</time>
      </trkpt>
      <trkpt lat="44.42766" lon="1.35606">
        <ele>243</ele>
        <time>2019-04-14T08:44:01Z</time>
      </trkpt>
      <trkpt lat="44.42769" lon="1.35607">
        <ele>243</ele>
        <time>2019-04-14T08:44:02Z</time>
      </trkpt>
      <trkpt lat="44.42772" lon="1.35608">
        <ele>242</ele>
        <time>2019-04-14T08:44:03Z</time>
      </trkpt>
      <trkpt lat="44.42775" lon="1.35609">
        <ele>242</ele>
        <time>2019-04-14T08:44:04Z</time>
      </trkpt>
      <trkpt lat="44.42777" lon="1.35609">
        <ele>242</ele>
        <time>2019-04-14T08:44:05Z</time>
      </trkpt>
      <trkpt lat="44.4278" lon="1.35608">
        <ele>242</ele>
        <time>2019-04-14T08:44:06Z</time>
      </trkpt>
      <trkpt lat="44.42785" lon="1.35608">
        <ele>242</ele>
        <time>2019-04-14T08:44:07Z</time>
      </trkpt>
      <trkpt lat="44.42789" lon="1.35607">
        <ele>241</ele>
        <time>2019-04-14T08:44:08Z</time>
      </trkpt>
      <trkpt lat="44.42793" lon="1.35605">
        <ele>241</ele>
        <time>2019-04-14T08:44:09Z</time>
      </trkpt>
      <trkpt lat="44.42797" lon="1.35604">
        <ele>241</ele>
        <time>2019-04-14T08:44:10Z</time>
      </trkpt>
      <trkpt lat="44.428" lon="1.35603">
        <ele>241</ele>
        <time>2019-04-14T08:44:11Z</time>
      </trkpt>
      <trkpt lat="44.42803" lon="1.356">
        <ele>240</ele>
        <time>2019-04-14T08:44:12Z</time>
      </trkpt>
      <trkpt lat="44.42806" lon="1.35598">
        <ele>240</ele>
        <time>2019-04-14T08:44:13Z</time>
      </trkpt>
      <trkpt lat="44.42808" lon="1.35596">
        <ele>240</ele>
        <time>2019-04-14T08:44:14Z</time>
      </trkpt>
      <trkpt lat="44.42811" lon="1.35594">
        <ele>239</ele>
        <time>2019-04-14T08:44:15Z</time>
      </trkpt>
      <trkpt lat="44.42815" lon="1.35593">
        <ele>239</ele>
        <time>2019-04-14T08:44:16Z</time>
      </trkpt>
      <trkpt lat="44.4282" lon="1.35592">
        <ele>239</ele>
        <time>2019-04-14T08:44:17Z</time>
      </trkpt>
      <trkpt lat="44.42823" lon="1.35592">
        <ele>238</ele>
        <time>2019-04-14T08:44:18Z</time>
      </trkpt>
      <trkpt lat="44.42827" lon="1.35592">
        <ele>238</ele>
        <time>2019-04-14T08:44:19Z</time>
      </trkpt>
      <trkpt lat="44.4283" lon="1.35592">
        <ele>238</ele>
        <time>2019-04-14T08:44:20Z</time>
      </trkpt>
      <trkpt lat="44.42832" lon="1.35593">
        <ele>238</ele>
        <time>2019-04-14T08:44:21Z</time>
      </trkpt>
      <trkpt lat="44.42834" lon="1.35596">
        <ele>238</ele>
        <time>2019-04-14T08:44:22Z</time>
      </trkpt>
      <trkpt lat="44.42835" lon="1.35598">
        <ele>239</ele>
        <time>2019-04-14T08:44:23Z</time>
      </trkpt>
      <trkpt lat="44.42836" lon="1.356">
        <ele>239</ele>
        <time>2019-04-14T08:44:24Z</time>
      </trkpt>
      <trkpt lat="44.42838" lon="1.35601">
        <ele>239</ele>
        <time>2019-04-14T08:44:25Z</time>
      </trkpt>
      <trkpt lat="44.4284" lon="1.35603">
        <ele>239</ele>
        <time>2019-04-14T08:44:26Z</time>
      </trkpt>
      <trkpt lat="44.42843" lon="1.35605">
        <ele>240</ele>
        <time>2019-04-14T08:44:27Z</time>
      </trkpt>
      <trkpt lat="44.42845" lon="1.35608">
        <ele>240</ele>
        <time>2019-04-14T08:44:28Z</time>
      </trkpt>
      <trkpt lat="44.42847" lon="1.35611">
        <ele>240</ele>
        <time>2019-04-14T08:44:29Z</time>
      </trkpt>
      <trkpt lat="44.42849" lon="1.35614">
        <ele>240</ele>
        <time>2019-04-14T08:44:30Z</time>
      </trkpt>
      <trkpt lat="44.42853" lon="1.35614">
        <ele>241</ele>
        <time>2019-04-14T08:44:31Z</time>
      </trkpt>
      <trkpt lat="44.42854" lon="1.35613">
        <ele>241</ele>
        <time>2019-04-14T08:44:32Z</time>
      </trkpt>
      <trkpt lat="44.42858" lon="1.35612">
        <ele>240</ele>
        <time>2019-04-14T08:44:33Z</time>
      </trkpt>
      <trkpt lat="44.42861" lon="1.35613">
        <ele>240</ele>
        <time>2019-04-14T08:44:34Z</time>
      </trkpt>
      <trkpt lat="44.42865" lon="1.35614">
        <ele>240</ele>
        <time>2019-04-14T08:44:35Z</time>
      </trkpt>
      <trkpt lat="44.42868" lon="1.35613">
        <ele>240</ele>
        <time>2019-04-14T08:44:36Z</time>
      </trkpt>
      <trkpt lat="44.42872" lon="1.35611">
        <ele>240</ele>
        <time>2019-04-14T08:44:37Z</time>
      </trkpt>
      <trkpt lat="44.42875" lon="1.35609">
        <ele>240</ele>
        <time>2019-04-14T08:44:38Z</time>
      </trkpt>
      <trkpt lat="44.42878" lon="1.35606">
        <ele>240</ele>
        <time>2019-04-14T08:44:39Z</time>
      </trkpt>
      <trkpt lat="44.4288" lon="1.35604">
        <ele>239</ele>
        <time>2019-04-14T08:44:40Z</time>
      </trkpt>
      <trkpt lat="44.42881" lon="1.35604">
        <ele>239</ele>
        <time>2019-04-14T08:44:41Z</time>
      </trkpt>
      <trkpt lat="44.42882" lon="1.35604">
        <ele>239</ele>
        <time>2019-04-14T08:44:42Z</time>
      </trkpt>
      <trkpt lat="44.42882" lon="1.35604">
        <ele>239</ele>
        <time>2019-04-14T08:44:43Z</time>
      </trkpt>
      <trkpt lat="44.42882" lon="1.35604">
        <ele>239</ele>
        <time>2019-04-14T08:44:44Z</time>
      </trkpt>
      <trkpt lat="44.42882" lon="1.35604">
        <ele>239</ele>
        <time>2019-04-14T08:44:45Z</time>
      </trkpt>
      <trkpt lat="44.42883" lon="1.35604">
        <ele>239</ele>
        <time>2019-04-14T08:44:46Z</time>
      </trkpt>
      <trkpt lat="44.42883" lon="1.35605">
        <ele>239</ele>
        <time>2019-04-14T08:44:47Z</time>
      </trkpt>
      <trkpt lat="44.42883" lon="1.35605">
        <ele>239</ele>
        <time>2019-04-14T08:44:48Z</time>
      </trkpt>
      <trkpt lat="44.42906" lon="1.35594">
        <ele>237</ele>
        <time>2019-04-14T08:45:14Z</time>
      </trkpt>
      <trkpt lat="44.42906" lon="1.35594">
        <ele>237</ele>
        <time>2019-04-14T08:45:15Z</time>
      </trkpt>
      <trkpt lat="44.42907" lon="1.35594">
        <ele>237</ele>
        <time>2019-04-14T08:45:16Z</time>
      </trkpt>
      <trkpt lat="44.42907" lon="1.35594">
        <ele>237</ele>
        <time>2019-04-14T08:45:17Z</time>
      </trkpt>
      <trkpt lat="44.42908" lon="1.35594">
        <ele>237</ele>
        <time>2019-04-14T08:45:18Z</time>
      </trkpt>
      <trkpt lat="44.42908" lon="1.35594">
        <ele>237</ele>
        <time>2019-04-14T08:45:19Z</time>
      </trkpt>
      <trkpt lat="44.42908" lon="1.35595">
        <ele>237</ele>
        <time>2019-04-14T08:45:20Z</time>
      </trkpt>
      <trkpt lat="44.42935" lon="1.35573">
        <ele>234</ele>
        <time>2019-04-14T08:46:08Z</time>
      </trkpt>
      <trkpt lat="44.42937" lon="1.3557">
        <ele>233</ele>
        <time>2019-04-14T08:46:09Z</time>
      </trkpt>
      <trkpt lat="44.4294" lon="1.35567">
        <ele>233</ele>
        <time>2019-04-14T08:46:10Z</time>
      </trkpt>
      <trkpt lat="44.42943" lon="1.35564">
        <ele>232</ele>
        <time>2019-04-14T08:46:11Z</time>
      </trkpt>
      <trkpt lat="44.42946" lon="1.35561">
        <ele>232</ele>
        <time>2019-04-14T08:46:12Z</time>
      </trkpt>
      <trkpt lat="44.4295" lon="1.35558">
        <ele>231</ele>
        <time>2019-04-14T08:46:13Z</time>
      </trkpt>
      <trkpt lat="44.42953" lon="1.35556">
        <ele>231</ele>
        <time>2019-04-14T08:46:14Z</time>
      </trkpt>
      <trkpt lat="44.42957" lon="1.35553">
        <ele>230</ele>
        <time>2019-04-14T08:46:15Z</time>
      </trkpt>
      <trkpt lat="44.42961" lon="1.35551">
        <ele>230</ele>
        <time>2019-04-14T08:46:16Z</time>
      </trkpt>
      <trkpt lat="44.42966" lon="1.35548">
        <ele>230</ele>
        <time>2019-04-14T08:46:17Z</time>
      </trkpt>
      <trkpt lat="44.4297" lon="1.35546">
        <ele>230</ele>
        <time>2019-04-14T08:46:18Z</time>
      </trkpt>
      <trkpt lat="44.42974" lon="1.35544">
        <ele>230</ele>
        <time>2019-04-14T08:46:19Z</time>
      </trkpt>
      <trkpt lat="44.42976" lon="1.35542">
        <ele>230</ele>
        <time>2019-04-14T08:46:20Z</time>
      </trkpt>
      <trkpt lat="44.4298" lon="1.35541">
        <ele>230</ele>
        <time>2019-04-14T08:46:21Z</time>
      </trkpt>
      <trkpt lat="44.42983" lon="1.35539">
        <ele>230</ele>
        <time>2019-04-14T08:46:22Z</time>
      </trkpt>
      <trkpt lat="44.42986" lon="1.35538">
        <ele>230</ele>
        <time>2019-04-14T08:46:23Z</time>
      </trkpt>
      <trkpt lat="44.42989" lon="1.35537">
        <ele>230</ele>
        <time>2019-04-14T08:46:24Z</time>
      </trkpt>
      <trkpt lat="44.42992" lon="1.35537">
        <ele>231</ele>
        <time>2019-04-14T08:46:25Z</time>
      </trkpt>
      <trkpt lat="44.42995" lon="1.35537">
        <ele>231</ele>
        <time>2019-04-14T08:46:26Z</time>
      </trkpt>
      <trkpt lat="44.42997" lon="1.35536">
        <ele>231</ele>
        <time>2019-04-14T08:46:27Z</time>
      </trkpt>
      <trkpt lat="44.42998" lon="1.35535">
        <ele>231</ele>
        <time>2019-04-14T08:46:28Z</time>
      </trkpt>
      <trkpt lat="44.43" lon="1.35533">
        <ele>231</ele>
        <time>2019-04-14T08:46:29Z</time>
      </trkpt>
      <trkpt lat="44.43002" lon="1.35528">
        <ele>231</ele>
        <time>2019-04-14T08:46:30Z</time>
      </trkpt>
      <trkpt lat="44.43005" lon="1.35524">
        <ele>231</ele>
        <time>2019-04-14T08:46:31Z</time>
      </trkpt>
      <trkpt lat="44.43009" lon="1.35522">
        <ele>231</ele>
        <time>2019-04-14T08:46:32Z</time>
      </trkpt>
      <trkpt lat="44.43012" lon="1.35519">
        <ele>231</ele>
        <time>2019-04-14T08:46:33Z</time>
      </trkpt>
      <trkpt lat="44.43015" lon="1.35518">
        <ele>231</ele>
        <time>2019-04-14T08:46:34Z</time>
      </trkpt>
      <trkpt lat="44.43018" lon="1.35516">
        <ele>231</ele>
        <time>2019-04-14T08:46:35Z</time>
      </trkpt>
      <trkpt lat="44.4302" lon="1.35514">
        <ele>232</ele>
        <time>2019-04-14T08:46:36Z</time>
      </trkpt>
      <trkpt lat="44.43023" lon="1.35512">
        <ele>232</ele>
        <time>2019-04-14T08:46:37Z</time>
      </trkpt>
      <trkpt lat="44.43026" lon="1.35511">
        <ele>232</ele>
        <time>2019-04-14T08:46:38Z</time>
      </trkpt>
      <trkpt lat="44.43029" lon="1.3551">
        <ele>233</ele>
        <time>2019-04-14T08:46:39Z</time>
      </trkpt>
      <trkpt lat="44.43032" lon="1.35509">
        <ele>233</ele>
        <time>2019-04-14T08:46:40Z</time>
      </trkpt>
      <trkpt lat="44.43034" lon="1.35509">
        <ele>234</ele>
        <time>2019-04-14T08:46:41Z</time>
      </trkpt>
      <trkpt lat="44.43037" lon="1.35509">
        <ele>234</ele>
        <time>2019-04-14T08:46:42Z</time>
      </trkpt>
      <trkpt lat="44.43039" lon="1.35508">
        <ele>234</ele>
        <time>2019-04-14T08:46:43Z</time>
      </trkpt>
      <trkpt lat="44.43041" lon="1.35508">
        <ele>235</ele>
        <time>2019-04-14T08:46:44Z</time>
      </trkpt>
      <trkpt lat="44.43044" lon="1.35506">
        <ele>235</ele>
        <time>2019-04-14T08:46:45Z</time>
      </trkpt>
      <trkpt lat="44.43046" lon="1.35505">
        <ele>235</ele>
        <time>2019-04-14T08:46:46Z</time>
      </trkpt>
      <trkpt lat="44.43047" lon="1.35503">
        <ele>236</ele>
        <time>2019-04-14T08:46:47Z</time>
      </trkpt>
      <trkpt lat="44.43048" lon="1.35501">
        <ele>236</ele>
        <time>2019-04-14T08:46:48Z</time>
      </trkpt>
      <trkpt lat="44.4305" lon="1.35499">
        <ele>236</ele>
        <time>2019-04-14T08:46:49Z</time>
      </trkpt>
      <trkpt lat="44.43052" lon="1.35499">
        <ele>237</ele>
        <time>2019-04-14T08:46:50Z</time>
      </trkpt>
      <trkpt lat="44.43054" lon="1.35499">
        <ele>237</ele>
        <time>2019-04-14T08:46:51Z</time>
      </trkpt>
      <trkpt lat="44.43056" lon="1.355">
        <ele>238</ele>
        <time>2019-04-14T08:46:52Z</time>
      </trkpt>
      <trkpt lat="44.43057" lon="1.35501">
        <ele>238</ele>
        <time>2019-04-14T08:46:53Z</time>
      </trkpt>
      <trkpt lat="44.43059" lon="1.35501">
        <ele>238</ele>
        <time>2019-04-14T08:46:54Z</time>
      </trkpt>
      <trkpt lat="44.43061" lon="1.35501">
        <ele>239</ele>
        <time>2019-04-14T08:46:55Z</time>
      </trkpt>
      <trkpt lat="44.43063" lon="1.35501">
        <ele>239</ele>
        <time>2019-04-14T08:46:56Z</time>
      </trkpt>
      <trkpt lat="44.43065" lon="1.35502">
        <ele>239</ele>
        <time>2019-04-14T08:46:57Z</time>
      </trkpt>
      <trkpt lat="44.43066" lon="1.35502">
        <ele>240</ele>
        <time>2019-04-14T08:46:58Z</time>
      </trkpt>
      <trkpt lat="44.43067" lon="1.35503">
        <ele>240</ele>
        <time>2019-04-14T08:46:59Z</time>
      </trkpt>
      <trkpt lat="44.43068" lon="1.35504">
        <ele>240</ele>
        <time>2019-04-14T08:47:00Z</time>
      </trkpt>
      <trkpt lat="44.43069" lon="1.35506">
        <ele>241</ele>
        <time>2019-04-14T08:47:01Z</time>
      </trkpt>
      <trkpt lat="44.43071" lon="1.35506">
        <ele>241</ele>
        <time>2019-04-14T08:47:02Z</time>
      </trkpt>
      <trkpt lat="44.43073" lon="1.35506">
        <ele>241</ele>
        <time>2019-04-14T08:47:03Z</time>
      </trkpt>
      <trkpt lat="44.43075" lon="1.35505">
        <ele>242</ele>
        <time>2019-04-14T08:47:04Z</time>
      </trkpt>
      <trkpt lat="44.43077" lon="1.35504">
        <ele>242</ele>
        <time>2019-04-14T08:47:05Z</time>
      </trkpt>
      <trkpt lat="44.43079" lon="1.35503">
        <ele>242</ele>
        <time>2019-04-14T08:47:06Z</time>
      </trkpt>
      <trkpt lat="44.43081" lon="1.35502">
        <ele>243</ele>
        <time>2019-04-14T08:47:07Z</time>
      </trkpt>
      <trkpt lat="44.43082" lon="1.35502">
        <ele>243</ele>
        <time>2019-04-14T08:47:08Z</time>
      </trkpt>
      <trkpt lat="44.43084" lon="1.35501">
        <ele>243</ele>
        <time>2019-04-14T08:47:09Z</time>
      </trkpt>
      <trkpt lat="44.43086" lon="1.355">
        <ele>244</ele>
        <time>2019-04-14T08:47:10Z</time>
      </trkpt>
      <trkpt lat="44.43088" lon="1.35499">
        <ele>244</ele>
        <time>2019-04-14T08:47:11Z</time>
      </trkpt>
      <trkpt lat="44.4309" lon="1.35499">
        <ele>244</ele>
        <time>2019-04-14T08:47:12Z</time>
      </trkpt>
      <trkpt lat="44.43092" lon="1.35499">
        <ele>245</ele>
        <time>2019-04-14T08:47:13Z</time>
      </trkpt>
      <trkpt lat="44.43093" lon="1.35499">
        <ele>245</ele>
        <time>2019-04-14T08:47:14Z</time>
      </trkpt>
      <trkpt lat="44.43095" lon="1.35499">
        <ele>245</ele>
        <time>2019-04-14T08:47:15Z</time>
      </trkpt>
      <trkpt lat="44.43097" lon="1.35499">
        <ele>246</ele>
        <time>2019-04-14T08:47:16Z</time>
      </trkpt>
      <trkpt lat="44.43098" lon="1.35499">
        <ele>246</ele>
        <time>2019-04-14T08:47:17Z</time>
      </trkpt>
      <trkpt lat="44.431" lon="1.35499">
        <ele>246</ele>
        <time>2019-04-14T08:47:18Z</time>
      </trkpt>
      <trkpt lat="44.431" lon="1.35498">
        <ele>246</ele>
        <time>2019-04-14T08:47:19Z</time>
      </trkpt>
      <trkpt lat="44.43102" lon="1.35498">
        <ele>247</ele>
        <time>2019-04-14T08:47:20Z</time>
      </trkpt>
      <trkpt lat="44.43103" lon="1.35499">
        <ele>247</ele>
        <time>2019-04-14T08:47:21Z</time>
      </trkpt>
      <trkpt lat="44.43105" lon="1.35499">
        <ele>247</ele>
        <time>2019-04-14T08:47:22Z</time>
      </trkpt>
      <trkpt lat="44.43107" lon="1.35498">
        <ele>247</ele>
        <time>2019-04-14T08:47:23Z</time>
      </trkpt>
      <trkpt lat="44.43108" lon="1.35496">
        <ele>247</ele>
        <time>2019-04-14T08:47:24Z</time>
      </trkpt>
      <trkpt lat="44.43109" lon="1.35494">
        <ele>248</ele>
        <time>2019-04-14T08:47:25Z</time>
      </trkpt>
      <trkpt lat="44.4311" lon="1.35493">
        <ele>248</ele>
        <time>2019-04-14T08:47:26Z</time>
      </trkpt>
      <trkpt lat="44.43111" lon="1.35492">
        <ele>248</ele>
        <time>2019-04-14T08:47:27Z</time>
      </trkpt>
      <trkpt lat="44.43111" lon="1.35489">
        <ele>248</ele>
        <time>2019-04-14T08:47:28Z</time>
      </trkpt>
      <trkpt lat="44.43112" lon="1.35486">
        <ele>248</ele>
        <time>2019-04-14T08:47:29Z</time>
      </trkpt>
      <trkpt lat="44.43112" lon="1.35483">
        <ele>248</ele>
        <time>2019-04-14T08:47:30Z</time>
      </trkpt>
      <trkpt lat="44.43112" lon="1.3548">
        <ele>248</ele>
        <time>2019-04-14T08:47:31Z</time>
      </trkpt>
      <trkpt lat="44.43111" lon="1.35476">
        <ele>247</ele>
        <time>2019-04-14T08:47:32Z</time>
      </trkpt>
      <trkpt lat="44.43111" lon="1.35472">
        <ele>247</ele>
        <time>2019-04-14T08:47:33Z</time>
      </trkpt>
      <trkpt lat="44.43113" lon="1.35468">
        <ele>246</ele>
        <time>2019-04-14T08:47:34Z</time>
      </trkpt>
      <trkpt lat="44.43114" lon="1.35464">
        <ele>246</ele>
        <time>2019-04-14T08:47:35Z</time>
      </trkpt>
      <trkpt lat="44.43116" lon="1.35461">
        <ele>246</ele>
        <time>2019-04-14T08:47:36Z</time>
      </trkpt>
      <trkpt lat="44.43118" lon="1.35459">
        <ele>246</ele>
        <time>2019-04-14T08:47:37Z</time>
      </trkpt>
      <trkpt lat="44.43119" lon="1.35454">
        <ele>246</ele>
        <time>2019-04-14T08:47:38Z</time>
      </trkpt>
      <trkpt lat="44.43119" lon="1.35449">
        <ele>245</ele>
        <time>2019-04-14T08:47:39Z</time>
      </trkpt>
      <trkpt lat="44.4312" lon="1.35443">
        <ele>244</ele>
        <time>2019-04-14T08:47:40Z</time>
      </trkpt>
      <trkpt lat="44.43122" lon="1.35437">
        <ele>243</ele>
        <time>2019-04-14T08:47:41Z</time>
      </trkpt>
      <trkpt lat="44.43125" lon="1.35432">
        <ele>242</ele>
        <time>2019-04-14T08:47:42Z</time>
      </trkpt>
      <trkpt lat="44.43128" lon="1.35427">
        <ele>242</ele>
        <time>2019-04-14T08:47:43Z</time>
      </trkpt>
      <trkpt lat="44.43134" lon="1.35426">
        <ele>242</ele>
        <time>2019-04-14T08:47:44Z</time>
      </trkpt>
      <trkpt lat="44.43138" lon="1.35423">
        <ele>241</ele>
        <time>2019-04-14T08:47:45Z</time>
      </trkpt>
      <trkpt lat="44.43142" lon="1.35421">
        <ele>241</ele>
        <time>2019-04-14T08:47:46Z</time>
      </trkpt>
      <trkpt lat="44.43145" lon="1.3542">
        <ele>241</ele>
        <time>2019-04-14T08:47:47Z</time>
      </trkpt>
      <trkpt lat="44.43147" lon="1.3542">
        <ele>241</ele>
        <time>2019-04-14T08:47:48Z</time>
      </trkpt>
      <trkpt lat="44.4315" lon="1.35422">
        <ele>242</ele>
        <time>2019-04-14T08:47:49Z</time>
      </trkpt>
      <trkpt lat="44.43151" lon="1.35423">
        <ele>242</ele>
        <time>2019-04-14T08:47:50Z</time>
      </trkpt>
      <trkpt lat="44.43153" lon="1.35424">
        <ele>243</ele>
        <time>2019-04-14T08:47:51Z</time>
      </trkpt>
      <trkpt lat="44.43155" lon="1.35424">
        <ele>244</ele>
        <time>2019-04-14T08:47:52Z</time>
      </trkpt>
      <trkpt lat="44.43157" lon="1.35422">
        <ele>244</ele>
        <time>2019-04-14T08:47:53Z</time>
      </trkpt>
      <trkpt lat="44.4316" lon="1.35421">
        <ele>243</ele>
        <time>2019-04-14T08:47:54Z</time>
      </trkpt>
      <trkpt lat="44.43163" lon="1.35418">
        <ele>243</ele>
        <time>2019-04-14T08:47:55Z</time>
      </trkpt>
      <trkpt lat="44.43166" lon="1.35415">
        <ele>243</ele>
        <time>2019-04-14T08:47:56Z</time>
      </trkpt>
      <trkpt lat="44.4317" lon="1.35413">
        <ele>242</ele>
        <time>2019-04-14T08:47:57Z</time>
      </trkpt>
      <trkpt lat="44.43174" lon="1.35411">
        <ele>242</ele>
        <time>2019-04-14T08:47:58Z</time>
      </trkpt>
      <trkpt lat="44.43177" lon="1.35409">
        <ele>242</ele>
        <time>2019-04-14T08:47:59Z</time>
      </trkpt>
      <trkpt lat="44.4318" lon="1.35407">
        <ele>241</ele>
        <time>2019-04-14T08:48:00Z</time>
      </trkpt>
      <trkpt lat="44.43184" lon="1.35406">
        <ele>241</ele>
        <time>2019-04-14T08:48:01Z</time>
      </trkpt>
      <trkpt lat="44.43188" lon="1.35406">
        <ele>241</ele>
        <time>2019-04-14T08:48:02Z</time>
      </trkpt>
      <trkpt lat="44.43192" lon="1.35406">
        <ele>241</ele>
        <time>2019-04-14T08:48:03Z</time>
      </trkpt>
      <trkpt lat="44.43197" lon="1.35407">
        <ele>241</ele>
        <time>2019-04-14T08:48:04Z</time>
      </trkpt>
      <trkpt lat="44.432" lon="1.35409">
        <ele>241</ele>
        <time>2019-04-14T08:48:05Z</time>
      </trkpt>
      <trkpt lat="44.43202" lon="1.35411">
        <ele>241</ele>
        <time>2019-04-14T08:48:06Z</time>
      </trkpt>
      <trkpt lat="44.43204" lon="1.35413">
        <ele>241</ele>
        <time>2019-04-14T08:48:07Z</time>
      </trkpt>
      <trkpt lat="44.43206" lon="1.35415">
        <ele>241</ele>
        <time>2019-04-14T08:48:08Z</time>
      </trkpt>
      <trkpt lat="44.43208" lon="1.35418">
        <ele>241</ele>
        <time>2019-04-14T08:48:09Z</time>
      </trkpt>
      <trkpt lat="44.4321" lon="1.35421">
        <ele>240</ele>
        <time>2019-04-14T08:48:10Z</time>
      </trkpt>
      <trkpt lat="44.43212" lon="1.35424">
        <ele>240</ele>
        <time>2019-04-14T08:48:11Z</time>
      </trkpt>
      <trkpt lat="44.43216" lon="1.35426">
        <ele>240</ele>
        <time>2019-04-14T08:48:12Z</time>
      </trkpt>
      <trkpt lat="44.43219" lon="1.35428">
        <ele>240</ele>
        <time>2019-04-14T08:48:13Z</time>
      </trkpt>
      <trkpt lat="44.43224" lon="1.3543">
        <ele>239</ele>
        <time>2019-04-14T08:48:14Z</time>
      </trkpt>
      <trkpt lat="44.43228" lon="1.35434">
        <ele>239</ele>
        <time>2019-04-14T08:48:15Z</time>
      </trkpt>
      <trkpt lat="44.43231" lon="1.35437">
        <ele>239</ele>
        <time>2019-04-14T08:48:16Z</time>
      </trkpt>
      <trkpt lat="44.43233" lon="1.35439">
        <ele>239</ele>
        <time>2019-04-14T08:48:17Z</time>
      </trkpt>
      <trkpt lat="44.43235" lon="1.3544">
        <ele>239</ele>
        <time>2019-04-14T08:48:18Z</time>
      </trkpt>
      <trkpt lat="44.43238" lon="1.35441">
        <ele>239</ele>
        <time>2019-04-14T08:48:19Z</time>
      </trkpt>
      <trkpt lat="44.43239" lon="1.35441">
        <ele>239</ele>
        <time>2019-04-14T08:48:20Z</time>
      </trkpt>
      <trkpt lat="44.43239" lon="1.35442">
        <ele>239</ele>
        <time>2019-04-14T08:48:21Z</time>
      </trkpt>
      <trkpt lat="44.43239" lon="1.35442">
        <ele>239</ele>
        <time>2019-04-14T08:48:22Z</time>
      </trkpt>
      <trkpt lat="44.4324" lon="1.35442">
        <ele>239</ele>
        <time>2019-04-14T08:48:23Z</time>
      </trkpt>
      <trkpt lat="44.4324" lon="1.35442">
        <ele>239</ele>
        <time>2019-04-14T08:48:24Z</time>
      </trkpt>
      <trkpt lat="44.43241" lon="1.35442">
        <ele>239</ele>
        <time>2019-04-14T08:48:25Z</time>
      </trkpt>
      <trkpt lat="44.43241" lon="1.35443">
        <ele>239</ele>
        <time>2019-04-14T08:48:26Z</time>
      </trkpt>
      <trkpt lat="44.43242" lon="1.35443">
        <ele>239</ele>
        <time>2019-04-14T08:48:27Z</time>
      </trkpt>
      <trkpt lat="44.43257" lon="1.35459">
        <ele>242</ele>
        <time>2019-04-14T08:52:38Z</time>
      </trkpt>
      <trkpt lat="44.43258" lon="1.3546">
        <ele>242</ele>
        <time>2019-04-14T08:52:39Z</time>
      </trkpt>
      <trkpt lat="44.4326" lon="1.35461">
        <ele>242</ele>
        <time>2019-04-14T08:52:40Z</time>
      </trkpt>
      <trkpt lat="44.43262" lon="1.35463">
        <ele>243</ele>
        <time>2019-04-14T08:52:41Z</time>
      </trkpt>
      <trkpt lat="44.43263" lon="1.35464">
        <ele>243</ele>
        <time>2019-04-14T08:52:42Z</time>
      </trkpt>
      <trkpt lat="44.43265" lon="1.35463">
        <ele>243</ele>
        <time>2019-04-14T08:52:43Z</time>
      </trkpt>
      <trkpt lat="44.43269" lon="1.35463">
        <ele>243</ele>
        <time>2019-04-14T08:52:44Z</time>
      </trkpt>
      <trkpt lat="44.43272" lon="1.35464">
        <ele>243</ele>
        <time>2019-04-14T08:52:45Z</time>
      </trkpt>
      <trkpt lat="44.43275" lon="1.35463">
        <ele>243</ele>
        <time>2019-04-14T08:52:46Z</time>
      </trkpt>
      <trkpt lat="44.43277" lon="1.35463">
        <ele>243</ele>
        <time>2019-04-14T08:52:47Z</time>
      </trkpt>
      <trkpt lat="44.4328" lon="1.35463">
        <ele>243</ele>
        <time>2019-04-14T08:52:48Z</time>
      </trkpt>
      <trkpt lat="44.43284" lon="1.35462">
        <ele>243</ele>
        <time>2019-04-14T08:52:49Z</time>
      </trkpt>
      <trkpt lat="44.43286" lon="1.35462">
        <ele>244</ele>
        <time>2019-04-14T08:52:50Z</time>
      </trkpt>
      <trkpt lat="44.4329" lon="1.35462">
        <ele>244</ele>
        <time>2019-04-14T08:52:51Z</time>
      </trkpt>
      <trkpt lat="44.43293" lon="1.35462">
        <ele>244</ele>
        <time>2019-04-14T08:52:52Z</time>
      </trkpt>
      <trkpt lat="44.43295" lon="1.35461">
        <ele>244</ele>
        <time>2019-04-14T08:52:53Z</time>
      </trkpt>
      <trkpt lat="44.43297" lon="1.35459">
        <ele>244</ele>
        <time>2019-04-14T08:52:54Z</time>
      </trkpt>
      <trkpt lat="44.433" lon="1.35456">
        <ele>243</ele>
        <time>2019-04-14T08:52:55Z</time>
      </trkpt>
      <trkpt lat="44.43303" lon="1.35453">
        <ele>243</ele>
        <time>2019-04-14T08:52:56Z</time>
      </trkpt>
      <trkpt lat="44.43307" lon="1.35449">
        <ele>243</ele>
        <time>2019-04-14T08:52:57Z</time>
      </trkpt>
      <trkpt lat="44.43311" lon="1.35446">
        <ele>243</ele>
        <time>2019-04-14T08:52:58Z</time>
      </trkpt>
      <trkpt lat="44.43314" lon="1.35442">
        <ele>243</ele>
        <time>2019-04-14T08:52:59Z</time>
      </trkpt>
      <trkpt lat="44.43318" lon="1.3544">
        <ele>243</ele>
        <time>2019-04-14T08:53:00Z</time>
      </trkpt>
      <trkpt lat="44.43321" lon="1.3544">
        <ele>243</ele>
        <time>2019-04-14T08:53:01Z</time>
      </trkpt>
      <trkpt lat="44.43323" lon="1.35439">
        <ele>243</ele>
        <time>2019-04-14T08:53:02Z</time>
      </trkpt>
      <trkpt lat="44.43324" lon="1.35439">
        <ele>243</ele>
        <time>2019-04-14T08:53:03Z</time>
      </trkpt>
      <trkpt lat="44.43326" lon="1.35438">
        <ele>243</ele>
        <time>2019-04-14T08:53:04Z</time>
      </trkpt>
      <trkpt lat="44.43327" lon="1.35436">
        <ele>243</ele>
        <time>2019-04-14T08:53:05Z</time>
      </trkpt>
      <trkpt lat="44.43329" lon="1.35433">
        <ele>243</ele>
        <time>2019-04-14T08:53:06Z</time>
      </trkpt>
      <trkpt lat="44.4333" lon="1.3543">
        <ele>242</ele>
        <time>2019-04-14T08:53:07Z</time>
      </trkpt>
      <trkpt lat="44.4333" lon="1.35427">
        <ele>242</ele>
        <time>2019-04-14T08:53:08Z</time>
      </trkpt>
      <trkpt lat="44.43331" lon="1.35423">
        <ele>241</ele>
        <time>2019-04-14T08:53:09Z</time>
      </trkpt>
      <trkpt lat="44.43333" lon="1.35421">
        <ele>241</ele>
        <time>2019-04-14T08:53:10Z</time>
      </trkpt>
      <trkpt lat="44.43335" lon="1.35419">
        <ele>241</ele>
        <time>2019-04-14T08:53:11Z</time>
      </trkpt>
      <trkpt lat="44.43336" lon="1.35417">
        <ele>241</ele>
        <time>2019-04-14T08:53:12Z</time>
      </trkpt>
      <trkpt lat="44.43338" lon="1.35415">
        <ele>240</ele>
        <time>2019-04-14T08:53:13Z</time>
      </trkpt>
      <trkpt lat="44.43339" lon="1.35412">
        <ele>240</ele>
        <time>2019-04-14T08:53:14Z</time>
      </trkpt>
      <trkpt lat="44.43342" lon="1.35409">
        <ele>239</ele>
        <time>2019-04-14T08:53:15Z</time>
      </trkpt>
      <trkpt lat="44.43344" lon="1.35407">
        <ele>239</ele>
        <time>2019-04-14T08:53:16Z</time>
      </trkpt>
      <trkpt lat="44.43347" lon="1.35405">
        <ele>239</ele>
        <time>2019-04-14T08:53:17Z</time>
      </trkpt>
      <trkpt lat="44.4335" lon="1.35403">
        <ele>239</ele>
        <time>2019-04-14T08:53:18Z</time>
      </trkpt>
      <trkpt lat="44.43354" lon="1.35401">
        <ele>239</ele>
        <time>2019-04-14T08:53:19Z</time>
      </trkpt>
      <trkpt lat="44.43357" lon="1.35399">
        <ele>238</ele>
        <time>2019-04-14T08:53:20Z</time>
      </trkpt>
      <trkpt lat="44.43359" lon="1.35397">
        <ele>239</ele>
        <time>2019-04-14T08:53:21Z</time>
      </trkpt>
      <trkpt lat="44.43361" lon="1.35394">
        <ele>238</ele>
        <time>2019-04-14T08:53:22Z</time>
      </trkpt>
      <trkpt lat="44.43362" lon="1.35392">
        <ele>238</ele>
        <time>2019-04-14T08:53:23Z</time>
      </trkpt>
      <trkpt lat="44.43363" lon="1.35391">
        <ele>238</ele>
        <time>2019-04-14T08:53:24Z</time>
      </trkpt>
      <trkpt lat="44.43364" lon="1.3539">
        <ele>238</ele>
        <time>2019-04-14T08:53:25Z</time>
      </trkpt>
      <trkpt lat="44.43364" lon="1.3539">
        <ele>238</ele>
        <time>2019-04-14T08:53:26Z</time>
      </trkpt>
      <trkpt lat="44.43364" lon="1.35389">
        <ele>237</ele>
        <time>2019-04-14T08:53:27Z</time>
      </trkpt>
      <trkpt lat="44.43364" lon="1.35389">
        <ele>237</ele>
        <time>2019-04-14T08:53:28Z</time>
      </trkpt>
      <trkpt lat="44.43364" lon="1.35389">
        <ele>237</ele>
        <time>2019-04-14T08:53:29Z</time>
      </trkpt>
      <trkpt lat="44.43365" lon="1.35389">
        <ele>237</ele>
        <time>2019-04-14T08:53:30Z</time>
      </trkpt>
      <trkpt lat="44.43365" lon="1.35388">
        <ele>237</ele>
        <time>2019-04-14T08:53:31Z</time>
      </trkpt>
      <trkpt lat="44.43365" lon="1.35388">
        <ele>237</ele>
        <time>2019-04-14T08:53:32Z</time>
      </trkpt>
      <trkpt lat="44.4339" lon="1.35359">
        <ele>235</ele>
        <time>2019-04-14T08:54:00Z</time>
      </trkpt>
      <trkpt lat="44.43393" lon="1.35359">
        <ele>235</ele>
        <time>2019-04-14T08:54:01Z</time>
      </trkpt>
      <trkpt lat="44.43395" lon="1.35358">
        <ele>235</ele>
        <time>2019-04-14T08:54:02Z</time>
      </trkpt>
      <trkpt lat="44.43397" lon="1.35357">
        <ele>235</ele>
        <time>2019-04-14T08:54:03Z</time>
      </trkpt>
      <trkpt lat="44.43398" lon="1.35357">
        <ele>235</ele>
        <time>2019-04-14T08:54:04Z</time>
      </trkpt>
      <trkpt lat="44.43399" lon="1.35357">
        <ele>234</ele>
        <time>2019-04-14T08:54:05Z</time>
      </trkpt>
      <trkpt lat="44.43399" lon="1.35356">
        <ele>234</ele>
        <time>2019-04-14T08:54:06Z</time>
      </trkpt>
      <trkpt lat="44.434" lon="1.35355">
        <ele>234</ele>
        <time>2019-04-14T08:54:07Z</time>
      </trkpt>
      <trkpt lat="44.43401" lon="1.35354">
        <ele>234</ele>
        <time>2019-04-14T08:54:08Z</time>
      </trkpt>
      <trkpt lat="44.43401" lon="1.35353">
        <ele>234</ele>
        <time>2019-04-14T08:54:09Z</time>
      </trkpt>
      <trkpt lat="44.43402" lon="1.35352">
        <ele>234</ele>
        <time>2019-04-14T08:54:10Z</time>
      </trkpt>
      <trkpt lat="44.43402" lon="1.35351">
        <ele>234</ele>
        <time>2019-04-14T08:54:11Z</time>
      </trkpt>
      <trkpt lat="44.43403" lon="1.3535">
        <ele>233</ele>
        <time>2019-04-14T08:54:12Z</time>
      </trkpt>
      <trkpt lat="44.43403" lon="1.35348">
        <ele>233</ele>
        <time>2019-04-14T08:54:13Z</time>
      </trkpt>
      <trkpt lat="44.43404" lon="1.35347">
        <ele>233</ele>
        <time>2019-04-14T08:54:14Z</time>
      </trkpt>
      <trkpt lat="44.43404" lon="1.35346">
        <ele>233</ele>
        <time>2019-04-14T08:54:15Z</time>
      </trkpt>
      <trkpt lat="44.43405" lon="1.35345">
        <ele>233</ele>
        <time>2019-04-14T08:54:16Z</time>
      </trkpt>
      <trkpt lat="44.43405" lon="1.35343">
        <ele>232</ele>
        <time>2019-04-14T08:54:17Z</time>
      </trkpt>
      <trkpt lat="44.43406" lon="1.35341">
        <ele>232</ele>
        <time>2019-04-14T08:54:18Z</time>
      </trkpt>
      <trkpt lat="44.43407" lon="1.35341">
        <ele>232</ele>
        <time>2019-04-14T08:54:19Z</time>
      </trkpt>
      <trkpt lat="44.43408" lon="1.3534">
        <ele>232</ele>
        <time>2019-04-14T08:54:20Z</time>
      </trkpt>
      <trkpt lat="44.43409" lon="1.3534">
        <ele>232</ele>
        <time>2019-04-14T08:54:21Z</time>
      </trkpt>
      <trkpt lat="44.4341" lon="1.3534">
        <ele>232</ele>
        <time>2019-04-14T08:54:22Z</time>
      </trkpt>
      <trkpt lat="44.43412" lon="1.35339">
        <ele>232</ele>
        <time>2019-04-14T08:54:23Z</time>
      </trkpt>
      <trkpt lat="44.43414" lon="1.35339">
        <ele>232</ele>
        <time>2019-04-14T08:54:24Z</time>
      </trkpt>
      <trkpt lat="44.43417" lon="1.35339">
        <ele>232</ele>
        <time>2019-04-14T08:54:25Z</time>
      </trkpt>
      <trkpt lat="44.4342" lon="1.3534">
        <ele>232</ele>
        <time>2019-04-14T08:54:26Z</time>
      </trkpt>
      <trkpt lat="44.43422" lon="1.3534">
        <ele>232</ele>
        <time>2019-04-14T08:54:27Z</time>
      </trkpt>
      <trkpt lat="44.43424" lon="1.35341">
        <ele>232</ele>
        <time>2019-04-14T08:54:28Z</time>
      </trkpt>
      <trkpt lat="44.43427" lon="1.35342">
        <ele>232</ele>
        <time>2019-04-14T08:54:29Z</time>
      </trkpt>
      <trkpt lat="44.43429" lon="1.35343">
        <ele>232</ele>
        <time>2019-04-14T08:54:30Z</time>
      </trkpt>
      <trkpt lat="44.43431" lon="1.35344">
        <ele>231</ele>
        <time>2019-04-14T08:54:31Z</time>
      </trkpt>
      <trkpt lat="44.43434" lon="1.35346">
        <ele>231</ele>
        <time>2019-04-14T08:54:32Z</time>
      </trkpt>
      <trkpt lat="44.43436" lon="1.35348">
        <ele>231</ele>
        <time>2019-04-14T08:54:33Z</time>
      </trkpt>
      <trkpt lat="44.43437" lon="1.3535">
        <ele>232</ele>
        <time>2019-04-14T08:54:34Z</time>
      </trkpt>
      <trkpt lat="44.43438" lon="1.35354">
        <ele>231</ele>
        <time>2019-04-14T08:54:35Z</time>
      </trkpt>
      <trkpt lat="44.4344" lon="1.35357">
        <ele>231</ele>
        <time>2019-04-14T08:54:36Z</time>
      </trkpt>
      <trkpt lat="44.43441" lon="1.3536">
        <ele>231</ele>
        <time>2019-04-14T08:54:37Z</time>
      </trkpt>
      <trkpt lat="44.43442" lon="1.35363">
        <ele>231</ele>
        <time>2019-04-14T08:54:38Z</time>
      </trkpt>
      <trkpt lat="44.43442" lon="1.35367">
        <ele>231</ele>
        <time>2019-04-14T08:54:39Z</time>
      </trkpt>
      <trkpt lat="44.43443" lon="1.35371">
        <ele>231</ele>
        <time>2019-04-14T08:54:40Z</time>
      </trkpt>
      <trkpt lat="44.43443" lon="1.35375">
        <ele>232</ele>
        <time>2019-04-14T08:54:41Z</time>
      </trkpt>
      <trkpt lat="44.43443" lon="1.35377">
        <ele>233</ele>
        <time>2019-04-14T08:54:42Z</time>
      </trkpt>
      <trkpt lat="44.43442" lon="1.35379">
        <ele>233</ele>
        <time>2019-04-14T08:54:43Z</time>
      </trkpt>
      <trkpt lat="44.43442" lon="1.35381">
        <ele>233</ele>
        <time>2019-04-14T08:54:44Z</time>
      </trkpt>
      <trkpt lat="44.43442" lon="1.35383">
        <ele>233</ele>
        <time>2019-04-14T08:54:45Z</time>
      </trkpt>
      <trkpt lat="44.43441" lon="1.35386">
        <ele>234</ele>
        <time>2019-04-14T08:54:46Z</time>
      </trkpt>
      <trkpt lat="44.4344" lon="1.35389">
        <ele>234</ele>
        <time>2019-04-14T08:54:47Z</time>
      </trkpt>
      <trkpt lat="44.4344" lon="1.35391">
        <ele>234</ele>
        <time>2019-04-14T08:54:48Z</time>
      </trkpt>
      <trkpt lat="44.4344" lon="1.35394">
        <ele>234</ele>
        <time>2019-04-14T08:54:49Z</time>
      </trkpt>
      <trkpt lat="44.4344" lon="1.35396">
        <ele>235</ele>
        <time>2019-04-14T08:54:50Z</time>
      </trkpt>
      <trkpt lat="44.43442" lon="1.35398">
        <ele>234</ele>
        <time>2019-04-14T08:54:51Z</time>
      </trkpt>
      <trkpt lat="44.43443" lon="1.35401">
        <ele>234</ele>
        <time>2019-04-14T08:54:52Z</time>
      </trkpt>
      <trkpt lat="44.43444" lon="1.35405">
        <ele>234</ele>
        <time>2019-04-14T08:54:53Z</time>
      </trkpt>
      <trkpt lat="44.43444" lon="1.35408">
        <ele>234</ele>
        <time>2019-04-14T08:54:54Z</time>
      </trkpt>
      <trkpt lat="44.43444" lon="1.35412">
        <ele>234</ele>
        <time>2019-04-14T08:54:55Z</time>
      </trkpt>
      <trkpt lat="44.43444" lon="1.35415">
        <ele>234</ele>
        <time>2019-04-14T08:54:56Z</time>
      </trkpt>
      <trkpt lat="44.43444" lon="1.35417">
        <ele>234</ele>
        <time>2019-04-14T08:54:57Z</time>
      </trkpt>
      <trkpt lat="44.43445" lon="1.35419">
        <ele>234</ele>
        <time>2019-04-14T08:54:58Z</time>
      </trkpt>
      <trkpt lat="44.43445" lon="1.35421">
        <ele>234</ele>
        <time>2019-04-14T08:54:59Z</time>
      </trkpt>
      <trkpt lat="44.43446" lon="1.35424">
        <ele>234</ele>
        <time>2019-04-14T08:55:00Z</time>
      </trkpt>
      <trkpt lat="44.43446" lon="1.35427">
        <ele>234</ele>
        <time>2019-04-14T08:55:01Z</time>
      </trkpt>
      <trkpt lat="44.43446" lon="1.3543">
        <ele>234</ele>
        <time>2019-04-14T08:55:02Z</time>
      </trkpt>
      <trkpt lat="44.43446" lon="1.35432">
        <ele>234</ele>
        <time>2019-04-14T08:55:03Z</time>
      </trkpt>
      <trkpt lat="44.43446" lon="1.35434">
        <ele>235</ele>
        <time>2019-04-14T08:55:04Z</time>
      </trkpt>
      <trkpt lat="44.43447" lon="1.35437">
        <ele>235</ele>
        <time>2019-04-14T08:55:05Z</time>
      </trkpt>
      <trkpt lat="44.43447" lon="1.35439">
        <ele>235</ele>
        <time>2019-04-14T08:55:06Z</time>
      </trkpt>
      <trkpt lat="44.43449" lon="1.35442">
        <ele>235</ele>
        <time>2019-04-14T08:55:07Z</time>
      </trkpt>
      <trkpt lat="44.43449" lon="1.35447">
        <ele>235</ele>
        <time>2019-04-14T08:55:08Z</time>
      </trkpt>
      <trkpt lat="44.43448" lon="1.35451">
        <ele>235</ele>
        <time>2019-04-14T08:55:09Z</time>
      </trkpt>
      <trkpt lat="44.43446" lon="1.35454">
        <ele>235</ele>
        <time>2019-04-14T08:55:10Z</time>
      </trkpt>
      <trkpt lat="44.43445" lon="1.35456">
        <ele>236</ele>
        <time>2019-04-14T08:55:11Z</time>
      </trkpt>
      <trkpt lat="44.43443" lon="1.35457">
        <ele>236</ele>
        <time>2019-04-14T08:55:12Z</time>
      </trkpt>
      <trkpt lat="44.43441" lon="1.35458">
        <ele>237</ele>
        <time>2019-04-14T08:55:13Z</time>
      </trkpt>
      <trkpt lat="44.4344" lon="1.3546">
        <ele>237</ele>
        <time>2019-04-14T08:55:14Z</time>
      </trkpt>
      <trkpt lat="44.43439" lon="1.35463">
        <ele>238</ele>
        <time>2019-04-14T08:55:15Z</time>
      </trkpt>
      <trkpt lat="44.43438" lon="1.35465">
        <ele>238</ele>
        <time>2019-04-14T08:55:16Z</time>
      </trkpt>
      <trkpt lat="44.43438" lon="1.35467">
        <ele>238</ele>
        <time>2019-04-14T08:55:17Z</time>
      </trkpt>
      <trkpt lat="44.43438" lon="1.35467">
        <ele>238</ele>
        <time>2019-04-14T08:55:18Z</time>
      </trkpt>
      <trkpt lat="44.43437" lon="1.35469">
        <ele>238</ele>
        <time>2019-04-14T08:55:19Z</time>
      </trkpt>
      <trkpt lat="44.43437" lon="1.35469">
        <ele>238</ele>
        <time>2019-04-14T08:55:20Z</time>
      </trkpt>
      <trkpt lat="44.43438" lon="1.3547">
        <ele>238</ele>
        <time>2019-04-14T08:55:21Z</time>
      </trkpt>
      <trkpt lat="44.43439" lon="1.35472">
        <ele>238</ele>
        <time>2019-04-14T08:55:22Z</time>
      </trkpt>
      <trkpt lat="44.43439" lon="1.35476">
        <ele>238</ele>
        <time>2019-04-14T08:55:23Z</time>
      </trkpt>
      <trkpt lat="44.43441" lon="1.3548">
        <ele>238</ele>
        <time>2019-04-14T08:55:24Z</time>
      </trkpt>
      <trkpt lat="44.43441" lon="1.35484">
        <ele>238</ele>
        <time>2019-04-14T08:55:25Z</time>
      </trkpt>
      <trkpt lat="44.43441" lon="1.35488">
        <ele>238</ele>
        <time>2019-04-14T08:55:26Z</time>
      </trkpt>
      <trkpt lat="44.4344" lon="1.35491">
        <ele>238</ele>
        <time>2019-04-14T08:55:27Z</time>
      </trkpt>
      <trkpt lat="44.43439" lon="1.35495">
        <ele>239</ele>
        <time>2019-04-14T08:55:28Z</time>
      </trkpt>
      <trkpt lat="44.43436" lon="1.35498">
        <ele>239</ele>
        <time>2019-04-14T08:55:29Z</time>
      </trkpt>
      <trkpt lat="44.43434" lon="1.355">
        <ele>240</ele>
        <time>2019-04-14T08:55:30Z</time>
      </trkpt>
      <trkpt lat="44.43432" lon="1.35501">
        <ele>240</ele>
        <time>2019-04-14T08:55:31Z</time>
      </trkpt>
      <trkpt lat="44.4343" lon="1.35503">
        <ele>241</ele>
        <time>2019-04-14T08:55:32Z</time>
      </trkpt>
      <trkpt lat="44.4343" lon="1.35506">
        <ele>241</ele>
        <time>2019-04-14T08:55:33Z</time>
      </trkpt>
      <trkpt lat="44.4343" lon="1.35509">
        <ele>241</ele>
        <time>2019-04-14T08:55:34Z</time>
      </trkpt>
      <trkpt lat="44.43431" lon="1.35512">
        <ele>241</ele>
        <time>2019-04-14T08:55:35Z</time>
      </trkpt>
      <trkpt lat="44.43431" lon="1.35515">
        <ele>241</ele>
        <time>2019-04-14T08:55:36Z</time>
      </trkpt>
      <trkpt lat="44.4343" lon="1.35519">
        <ele>241</ele>
        <time>2019-04-14T08:55:37Z</time>
      </trkpt>
      <trkpt lat="44.43429" lon="1.35522">
        <ele>242</ele>
        <time>2019-04-14T08:55:38Z</time>
      </trkpt>
      <trkpt lat="44.43428" lon="1.35524">
        <ele>242</ele>
        <time>2019-04-14T08:55:39Z</time>
      </trkpt>
      <trkpt lat="44.43427" lon="1.35524">
        <ele>242</ele>
        <time>2019-04-14T08:55:40Z</time>
      </trkpt>
      <trkpt lat="44.43425" lon="1.35526">
        <ele>242</ele>
        <time>2019-04-14T08:55:41Z</time>
      </trkpt>
      <trkpt lat="44.43425" lon="1.35529">
        <ele>242</ele>
        <time>2019-04-14T08:55:42Z</time>
      </trkpt>
      <trkpt lat="44.43425" lon="1.35532">
        <ele>242</ele>
        <time>2019-04-14T08:55:43Z</time>
      </trkpt>
      <trkpt lat="44.43425" lon="1.35536">
        <ele>242</ele>
        <time>2019-04-14T08:55:44Z</time>
      </trkpt>
      <trkpt lat="44.43426" lon="1.3554">
        <ele>242</ele>
        <time>2019-04-14T08:55:45Z</time>
      </trkpt>
      <trkpt lat="44.43428" lon="1.35542">
        <ele>242</ele>
        <time>2019-04-14T08:55:46Z</time>
      </trkpt>
      <trkpt lat="44.4343" lon="1.35543">
        <ele>242</ele>
        <time>2019-04-14T08:55:47Z</time>
      </trkpt>
      <trkpt lat="44.43432" lon="1.35544">
        <ele>242</ele>
        <time>2019-04-14T08:55:48Z</time>
      </trkpt>
      <trkpt lat="44.43434" lon="1.35544">
        <ele>242</ele>
        <time>2019-04-14T08:55:49Z</time>
      </trkpt>
      <trkpt lat="44.43438" lon="1.35545">
        <ele>241</ele>
        <time>2019-04-14T08:55:50Z</time>
      </trkpt>
      <trkpt lat="44.43439" lon="1.35549">
        <ele>241</ele>
        <time>2019-04-14T08:55:51Z</time>
      </trkpt>
      <trkpt lat="44.4344" lon="1.35551">
        <ele>241</ele>
        <time>2019-04-14T08:55:52Z</time>
      </trkpt>
      <trkpt lat="44.43442" lon="1.35553">
        <ele>241</ele>
        <time>2019-04-14T08:55:53Z</time>
      </trkpt>
      <trkpt lat="44.43443" lon="1.35557">
        <ele>241</ele>
        <time>2019-04-14T08:55:54Z</time>
      </trkpt>
      <trkpt lat="44.43444" lon="1.35561">
        <ele>241</ele>
        <time>2019-04-14T08:55:55Z</time>
      </trkpt>
      <trkpt lat="44.43445" lon="1.35565">
        <ele>241</ele>
        <time>2019-04-14T08:55:56Z</time>
      </trkpt>
      <trkpt lat="44.43445" lon="1.35568">
        <ele>241</ele>
        <time>2019-04-14T08:55:57Z</time>
      </trkpt>
      <trkpt lat="44.43447" lon="1.35572">
        <ele>241</ele>
        <time>2019-04-14T08:55:58Z</time>
      </trkpt>
      <trkpt lat="44.43449" lon="1.35575">
        <ele>241</ele>
        <time>2019-04-14T08:55:59Z</time>
      </trkpt>
      <trkpt lat="44.43451" lon="1.35576">
        <ele>241</ele>
        <time>2019-04-14T08:56:00Z</time>
      </trkpt>
      <trkpt lat="44.43456" lon="1.35576">
        <ele>241</ele>
        <time>2019-04-14T08:56:01Z</time>
      </trkpt>
      <trkpt lat="44.43459" lon="1.35574">
        <ele>240</ele>
        <time>2019-04-14T08:56:02Z</time>
      </trkpt>
      <trkpt lat="44.43463" lon="1.35573">
        <ele>240</ele>
        <time>2019-04-14T08:56:03Z</time>
      </trkpt>
      <trkpt lat="44.43468" lon="1.35572">
        <ele>239</ele>
        <time>2019-04-14T08:56:04Z</time>
      </trkpt>
      <trkpt lat="44.43474" lon="1.35571">
        <ele>239</ele>
        <time>2019-04-14T08:56:05Z</time>
      </trkpt>
      <trkpt lat="44.43479" lon="1.3557">
        <ele>238</ele>
        <time>2019-04-14T08:56:06Z</time>
      </trkpt>
      <trkpt lat="44.43483" lon="1.35567">
        <ele>237</ele>
        <time>2019-04-14T08:56:07Z</time>
      </trkpt>
      <trkpt lat="44.43487" lon="1.35565">
        <ele>237</ele>
        <time>2019-04-14T08:56:08Z</time>
      </trkpt>
      <trkpt lat="44.4349" lon="1.35565">
        <ele>236</ele>
        <time>2019-04-14T08:56:09Z</time>
      </trkpt>
      <trkpt lat="44.43492" lon="1.35565">
        <ele>236</ele>
        <time>2019-04-14T08:56:10Z</time>
      </trkpt>
      <trkpt lat="44.43494" lon="1.35567">
        <ele>236</ele>
        <time>2019-04-14T08:56:11Z</time>
      </trkpt>
      <trkpt lat="44.43496" lon="1.35568">
        <ele>236</ele>
        <time>2019-04-14T08:56:12Z</time>
      </trkpt>
      <trkpt lat="44.43497" lon="1.35568">
        <ele>236</ele>
        <time>2019-04-14T08:56:13Z</time>
      </trkpt>
      <trkpt lat="44.43498" lon="1.35568">
        <ele>236</ele>
        <time>2019-04-14T08:56:14Z</time>
      </trkpt>
      <trkpt lat="44.43498" lon="1.35568">
        <ele>236</ele>
        <time>2019-04-14T08:56:15Z</time>
      </trkpt>
      <trkpt lat="44.43498" lon="1.35568">
        <ele>236</ele>
        <time>2019-04-14T08:56:16Z</time>
      </trkpt>
      <trkpt lat="44.43498" lon="1.35568">
        <ele>236</ele>
        <time>2019-04-14T08:56:17Z</time>
      </trkpt>
      <trkpt lat="44.43499" lon="1.35569">
        <ele>236</ele>
        <time>2019-04-14T08:56:18Z</time>
      </trkpt>
      <trkpt lat="44.43499" lon="1.35569">
        <ele>236</ele>
        <time>2019-04-14T08:56:19Z</time>
      </trkpt>
      <trkpt lat="44.43499" lon="1.35569">
        <ele>236</ele>
        <time>2019-04-14T08:56:20Z</time>
      </trkpt>
      <trkpt lat="44.435" lon="1.3557">
        <ele>236</ele>
        <time>2019-04-14T08:56:21Z</time>
      </trkpt>
      <trkpt lat="44.43523" lon="1.35562">
        <ele>233</ele>
        <time>2019-04-14T08:59:27Z</time>
      </trkpt>
      <trkpt lat="44.43524" lon="1.35563">
        <ele>233</ele>
        <time>2019-04-14T08:59:28Z</time>
      </trkpt>
      <trkpt lat="44.43525" lon="1.35563">
        <ele>233</ele>
        <time>2019-04-14T08:59:29Z</time>
      </trkpt>
      <trkpt lat="44.43526" lon="1.35563">
        <ele>233</ele>
        <time>2019-04-14T08:59:30Z</time>
      </trkpt>
      <trkpt lat="44.43527" lon="1.35561">
        <ele>233</ele>
        <time>2019-04-14T08:59:31Z</time>
      </trkpt>
      <trkpt lat="44.43529" lon="1.3556">
        <ele>232</ele>
        <time>2019-04-14T08:59:32Z</time>
      </trkpt>
      <trkpt lat="44.43532" lon="1.35558">
        <ele>232</ele>
        <time>2019-04-14T08:59:33Z</time>
      </trkpt>
      <trkpt lat="44.43534" lon="1.35557">
        <ele>231</ele>
        <time>2019-04-14T08:59:34Z</time>
      </trkpt>
      <trkpt lat="44.43537" lon="1.35557">
        <ele>231</ele>
        <time>2019-04-14T08:59:35Z</time>
      </trkpt>
      <trkpt lat="44.43538" lon="1.35558">
        <ele>231</ele>
        <time>2019-04-14T08:59:36Z</time>
      </trkpt>
      <trkpt lat="44.43539" lon="1.3556">
        <ele>232</ele>
        <time>2019-04-14T08:59:37Z</time>
      </trkpt>
      <trkpt lat="44.43539" lon="1.35561">
        <ele>232</ele>
        <time>2019-04-14T08:59:38Z</time>
      </trkpt>
      <trkpt lat="44.4354" lon="1.35562">
        <ele>232</ele>
        <time>2019-04-14T08:59:39Z</time>
      </trkpt>
      <trkpt lat="44.43541" lon="1.35565">
        <ele>232</ele>
        <time>2019-04-14T08:59:40Z</time>
      </trkpt>
      <trkpt lat="44.43541" lon="1.35566">
        <ele>233</ele>
        <time>2019-04-14T08:59:41Z</time>
      </trkpt>
      <trkpt lat="44.43543" lon="1.35569">
        <ele>233</ele>
        <time>2019-04-14T08:59:42Z</time>
      </trkpt>
      <trkpt lat="44.43544" lon="1.35571">
        <ele>234</ele>
        <time>2019-04-14T08:59:43Z</time>
      </trkpt>
      <trkpt lat="44.43545" lon="1.35573">
        <ele>234</ele>
        <time>2019-04-14T08:59:44Z</time>
      </trkpt>
      <trkpt lat="44.43546" lon="1.35575">
        <ele>235</ele>
        <time>2019-04-14T08:59:45Z</time>
      </trkpt>
      <trkpt lat="44.43548" lon="1.35576">
        <ele>235</ele>
        <time>2019-04-14T08:59:46Z</time>
      </trkpt>
      <trkpt lat="44.4355" lon="1.35577">
        <ele>235</ele>
        <time>2019-04-14T08:59:47Z</time>
      </trkpt>
      <trkpt lat="44.43551" lon="1.35577">
        <ele>235</ele>
        <time>2019-04-14T08:59:48Z</time>
      </trkpt>
      <trkpt lat="44.43552" lon="1.35579">
        <ele>236</ele>
        <time>2019-04-14T08:59:49Z</time>
      </trkpt>
      <trkpt lat="44.43554" lon="1.3558">
        <ele>236</ele>
        <time>2019-04-14T08:59:50Z</time>
      </trkpt>
      <trkpt lat="44.43555" lon="1.35581">
        <ele>236</ele>
        <time>2019-04-14T08:59:51Z</time>
      </trkpt>
      <trkpt lat="44.43556" lon="1.35581">
        <ele>236</ele>
        <time>2019-04-14T08:59:52Z</time>
      </trkpt>
      <trkpt lat="44.43556" lon="1.35581">
        <ele>236</ele>
        <time>2019-04-14T08:59:53Z</time>
      </trkpt>
      <trkpt lat="44.43557" lon="1.35581">
        <ele>236</ele>
        <time>2019-04-14T08:59:54Z</time>
      </trkpt>
      <trkpt lat="44.43557" lon="1.35582">
        <ele>236</ele>
        <time>2019-04-14T08:59:55Z</time>
      </trkpt>
      <trkpt lat="44.43558" lon="1.35583">
        <ele>236</ele>
        <time>2019-04-14T08:59:56Z</time>
      </trkpt>
      <trkpt lat="44.43558" lon="1.35584">
        <ele>236</ele>
        <time>2019-04-14T08:59:57Z</time>
      </trkpt>
      <trkpt lat="44.43558" lon="1.35584">
        <ele>236</ele>
        <time>2019-04-14T08:59:58Z</time>
      </trkpt>
      <trkpt lat="44.43558" lon="1.35584">
        <ele>236</ele>
        <time>2019-04-14T08:59:59Z</time>
      </trkpt>
      <trkpt lat="44.43566" lon="1.35598">
        <ele>238</ele>
        <time>2019-04-14T09:00:11Z</time>
      </trkpt>
      <trkpt lat="44.43567" lon="1.35598">
        <ele>238</ele>
        <time>2019-04-14T09:00:12Z</time>
      </trkpt>
      <trkpt lat="44.43568" lon="1.35598">
        <ele>238</ele>
        <time>2019-04-14T09:00:13Z</time>
      </trkpt>
      <trkpt lat="44.43569" lon="1.35598">
        <ele>238</ele>
        <time>2019-04-14T09:00:14Z</time>
      </trkpt>
      <trkpt lat="44.4357" lon="1.35598">
        <ele>238</ele>
        <time>2019-04-14T09:00:15Z</time>
      </trkpt>
      <trkpt lat="44.4357" lon="1.35597">
        <ele>238</ele>
        <time>2019-04-14T09:00:16Z</time>
      </trkpt>
      <trkpt lat="44.43572" lon="1.35597">
        <ele>238</ele>
        <time>2019-04-14T09:00:17Z</time>
      </trkpt>
      <trkpt lat="44.43573" lon="1.35596">
        <ele>238</ele>
        <time>2019-04-14T09:00:18Z</time>
      </trkpt>
      <trkpt lat="44.43574" lon="1.35596">
        <ele>238</ele>
        <time>2019-04-14T09:00:19Z</time>
      </trkpt>
      <trkpt lat="44.43576" lon="1.35596">
        <ele>238</ele>
        <time>2019-04-14T09:00:20Z</time>
      </trkpt>
      <trkpt lat="44.43578" lon="1.35596">
        <ele>238</ele>
        <time>2019-04-14T09:00:21Z</time>
      </trkpt>
      <trkpt lat="44.43579" lon="1.35597">
        <ele>238</ele>
        <time>2019-04-14T09:00:22Z</time>
      </trkpt>
      <trkpt lat="44.43581" lon="1.35597">
        <ele>238</ele>
        <time>2019-04-14T09:00:23Z</time>
      </trkpt>
      <trkpt lat="44.43583" lon="1.35597">
        <ele>238</ele>
        <time>2019-04-14T09:00:24Z</time>
      </trkpt>
      <trkpt lat="44.43585" lon="1.35597">
        <ele>238</ele>
        <time>2019-04-14T09:00:25Z</time>
      </trkpt>
      <trkpt lat="44.43587" lon="1.35597">
        <ele>238</ele>
        <time>2019-04-14T09:00:26Z</time>
      </trkpt>
      <trkpt lat="44.43589" lon="1.35597">
        <ele>238</ele>
        <time>2019-04-14T09:00:27Z</time>
      </trkpt>
      <trkpt lat="44.43591" lon="1.35597">
        <ele>238</ele>
        <time>2019-04-14T09:00:28Z</time>
      </trkpt>
      <trkpt lat="44.43593" lon="1.35597">
        <ele>238</ele>
        <time>2019-04-14T09:00:29Z</time>
      </trkpt>
      <trkpt lat="44.43595" lon="1.35596">
        <ele>237</ele>
        <time>2019-04-14T09:00:30Z</time>
      </trkpt>
      <trkpt lat="44.43595" lon="1.35594">
        <ele>237</ele>
        <time>2019-04-14T09:00:31Z</time>
      </trkpt>
      <trkpt lat="44.43595" lon="1.35593">
        <ele>237</ele>
        <time>2019-04-14T09:00:32Z</time>
      </trkpt>
      <trkpt lat="44.43594" lon="1.35592">
        <ele>237</ele>
        <time>2019-04-14T09:00:33Z</time>
      </trkpt>
      <trkpt lat="44.43593" lon="1.35592">
        <ele>237</ele>
        <time>2019-04-14T09:00:34Z</time>
      </trkpt>
      <trkpt lat="44.43592" lon="1.35591">
        <ele>237</ele>
        <time>2019-04-14T09:00:35Z</time>
      </trkpt>
      <trkpt lat="44.4359" lon="1.35591">
        <ele>237</ele>
        <time>2019-04-14T09:00:36Z</time>
      </trkpt>
      <trkpt lat="44.43589" lon="1.35592">
        <ele>237</ele>
        <time>2019-04-14T09:00:37Z</time>
      </trkpt>
      <trkpt lat="44.43587" lon="1.35593">
        <ele>237</ele>
        <time>2019-04-14T09:00:38Z</time>
      </trkpt>
      <trkpt lat="44.43586" lon="1.35593">
        <ele>237</ele>
        <time>2019-04-14T09:00:39Z</time>
      </trkpt>
      <trkpt lat="44.43585" lon="1.35593">
        <ele>237</ele>
        <time>2019-04-14T09:00:40Z</time>
      </trkpt>
      <trkpt lat="44.43583" lon="1.35594">
        <ele>237</ele>
        <time>2019-04-14T09:00:41Z</time>
      </trkpt>
      <trkpt lat="44.43582" lon="1.35594">
        <ele>237</ele>
        <time>2019-04-14T09:00:42Z</time>
      </trkpt>
      <trkpt lat="44.43581" lon="1.35594">
        <ele>237</ele>
        <time>2019-04-14T09:00:43Z</time>
      </trkpt>
      <trkpt lat="44.4358" lon="1.35594">
        <ele>238</ele>
        <time>2019-04-14T09:00:44Z</time>
      </trkpt>
      <trkpt lat="44.43579" lon="1.35594">
        <ele>238</ele>
        <time>2019-04-14T09:00:45Z</time>
      </trkpt>
      <trkpt lat="44.43578" lon="1.35594">
        <ele>238</ele>
        <time>2019-04-14T09:00:46Z</time>
      </trkpt>
      <trkpt lat="44.43576" lon="1.35595">
        <ele>238</ele>
        <time>2019-04-14T09:00:47Z</time>
      </trkpt>
      <trkpt lat="44.43575" lon="1.35595">
        <ele>238</ele>
        <time>2019-04-14T09:00:48Z</time>
      </trkpt>
      <trkpt lat="44.43574" lon="1.35596">
        <ele>238</ele>
        <time>2019-04-14T09:00:49Z</time>
      </trkpt>
      <trkpt lat="44.43574" lon="1.35596">
        <ele>238</ele>
        <time>2019-04-14T09:00:50Z</time>
      </trkpt>
      <trkpt lat="44.43573" lon="1.35598">
        <ele>238</ele>
        <time>2019-04-14T09:00:51Z</time>
      </trkpt>
      <trkpt lat="44.43573" lon="1.35599">
        <ele>238</ele>
        <time>2019-04-14T09:00:52Z</time>
      </trkpt>
      <trkpt lat="44.43574" lon="1.356">
        <ele>238</ele>
        <time>2019-04-14T09:00:53Z</time>
      </trkpt>
      <trkpt lat="44.43575" lon="1.35602">
        <ele>238</ele>
        <time>2019-04-14T09:00:54Z</time>
      </trkpt>
      <trkpt lat="44.43577" lon="1.35602">
        <ele>238</ele>
        <time>2019-04-14T09:00:55Z</time>
      </trkpt>
      <trkpt lat="44.43579" lon="1.35601">
        <ele>237</ele>
        <time>2019-04-14T09:00:56Z</time>
      </trkpt>
      <trkpt lat="44.4358" lon="1.356">
        <ele>237</ele>
        <time>2019-04-14T09:00:57Z</time>
      </trkpt>
      <trkpt lat="44.43581" lon="1.35599">
        <ele>237</ele>
        <time>2019-04-14T09:00:58Z</time>
      </trkpt>
      <trkpt lat="44.43582" lon="1.35598">
        <ele>237</ele>
        <time>2019-04-14T09:00:59Z</time>
      </trkpt>
      <trkpt lat="44.43583" lon="1.35597">
        <ele>237</ele>
        <time>2019-04-14T09:01:00Z</time>
      </trkpt>
      <trkpt lat="44.43584" lon="1.35596">
        <ele>237</ele>
        <time>2019-04-14T09:01:01Z</time>
      </trkpt>
      <trkpt lat="44.43585" lon="1.35595">
        <ele>237</ele>
        <time>2019-04-14T09:01:02Z</time>
      </trkpt>
      <trkpt lat="44.43587" lon="1.35594">
        <ele>237</ele>
        <time>2019-04-14T09:01:03Z</time>
      </trkpt>
      <trkpt lat="44.43589" lon="1.35595">
        <ele>237</ele>
        <time>2019-04-14T09:01:04Z</time>
      </trkpt>
      <trkpt lat="44.4359" lon="1.35595">
        <ele>237</ele>
        <time>2019-04-14T09:01:05Z</time>
      </trkpt>
      <trkpt lat="44.43592" lon="1.35596">
        <ele>237</ele>
        <time>2019-04-14T09:01:06Z</time>
      </trkpt>
      <trkpt lat="44.43594" lon="1.35597">
        <ele>237</ele>
        <time>2019-04-14T09:01:07Z</time>
      </trkpt>
      <trkpt lat="44.43595" lon="1.35598">
        <ele>237</ele>
        <time>2019-04-14T09:01:08Z</time>
      </trkpt>
      <trkpt lat="44.43597" lon="1.35598">
        <ele>237</ele>
        <time>2019-04-14T09:01:09Z</time>
      </trkpt>
      <trkpt lat="44.43598" lon="1.35599">
        <ele>237</ele>
        <time>2019-04-14T09:01:10Z</time>
      </trkpt>
      <trkpt lat="44.43599" lon="1.35601">
        <ele>237</ele>
        <time>2019-04-14T09:01:11Z</time>
      </trkpt>
      <trkpt lat="44.43599" lon="1.35603">
        <ele>237</ele>
        <time>2019-04-14T09:01:12Z</time>
      </trkpt>
      <trkpt lat="44.43599" lon="1.35604">
        <ele>237</ele>
        <time>2019-04-14T09:01:13Z</time>
      </trkpt>
      <trkpt lat="44.43599" lon="1.35606">
        <ele>237</ele>
        <time>2019-04-14T09:01:14Z</time>
      </trkpt>
      <trkpt lat="44.436" lon="1.35609">
        <ele>237</ele>
        <time>2019-04-14T09:01:15Z</time>
      </trkpt>
      <trkpt lat="44.436" lon="1.35611">
        <ele>237</ele>
        <time>2019-04-14T09:01:16Z</time>
      </trkpt>
      <trkpt lat="44.436" lon="1.35614">
        <ele>237</ele>
        <time>2019-04-14T09:01:17Z</time>
      </trkpt>
      <trkpt lat="44.43601" lon="1.35617">
        <ele>237</ele>
        <time>2019-04-14T09:01:18Z</time>
      </trkpt>
      <trkpt lat="44.43603" lon="1.3562">
        <ele>237</ele>
        <time>2019-04-14T09:01:19Z</time>
      </trkpt>
      <trkpt lat="44.43605" lon="1.35622">
        <ele>237</ele>
        <time>2019-04-14T09:01:20Z</time>
      </trkpt>
      <trkpt lat="44.43607" lon="1.35624">
        <ele>237</ele>
        <time>2019-04-14T09:01:21Z</time>
      </trkpt>
      <trkpt lat="44.43609" lon="1.35625">
        <ele>237</ele>
        <time>2019-04-14T09:01:22Z</time>
      </trkpt>
      <trkpt lat="44.43611" lon="1.35625">
        <ele>237</ele>
        <time>2019-04-14T09:01:23Z</time>
      </trkpt>
      <trkpt lat="44.43613" lon="1.35626">
        <ele>237</ele>
        <time>2019-04-14T09:01:24Z</time>
      </trkpt>
      <trkpt lat="44.43615" lon="1.35626">
        <ele>237</ele>
        <time>2019-04-14T09:01:25Z</time>
      </trkpt>
      <trkpt lat="44.43617" lon="1.35626">
        <ele>237</ele>
        <time>2019-04-14T09:01:26Z</time>
      </trkpt>
      <trkpt lat="44.43619" lon="1.35626">
        <ele>237</ele>
        <time>2019-04-14T09:01:27Z</time>
      </trkpt>
      <trkpt lat="44.43621" lon="1.35626">
        <ele>237</ele>
        <time>2019-04-14T09:01:28Z</time>
      </trkpt>
      <trkpt lat="44.43623" lon="1.35626">
        <ele>237</ele>
        <time>2019-04-14T09:01:29Z</time>
      </trkpt>
      <trkpt lat="44.43625" lon="1.35626">
        <ele>238</ele>
        <time>2019-04-14T09:01:30Z</time>
      </trkpt>
      <trkpt lat="44.43627" lon="1.35626">
        <ele>238</ele>
        <time>2019-04-14T09:01:31Z</time>
      </trkpt>
      <trkpt lat="44.43629" lon="1.35625">
        <ele>238</ele>
        <time>2019-04-14T09:01:32Z</time>
      </trkpt>
      <trkpt lat="44.4363" lon="1.35624">
        <ele>238</ele>
        <time>2019-04-14T09:01:33Z</time>
      </trkpt>
      <trkpt lat="44.43632" lon="1.35622">
        <ele>238</ele>
        <time>2019-04-14T09:01:34Z</time>
      </trkpt>
      <trkpt lat="44.43633" lon="1.3562">
        <ele>238</ele>
        <time>2019-04-14T09:01:35Z</time>
      </trkpt>
      <trkpt lat="44.43633" lon="1.35618">
        <ele>238</ele>
        <time>2019-04-14T09:01:36Z</time>
      </trkpt>
      <trkpt lat="44.43634" lon="1.35616">
        <ele>238</ele>
        <time>2019-04-14T09:01:37Z</time>
      </trkpt>
      <trkpt lat="44.43635" lon="1.35613">
        <ele>238</ele>
        <time>2019-04-14T09:01:38Z</time>
      </trkpt>
      <trkpt lat="44.43636" lon="1.35611">
        <ele>239</ele>
        <time>2019-04-14T09:01:39Z</time>
      </trkpt>
      <trkpt lat="44.43637" lon="1.35608">
        <ele>239</ele>
        <time>2019-04-14T09:01:40Z</time>
      </trkpt>
      <trkpt lat="44.43638" lon="1.35606">
        <ele>239</ele>
        <time>2019-04-14T09:01:41Z</time>
      </trkpt>
      <trkpt lat="44.43639" lon="1.35604">
        <ele>239</ele>
        <time>2019-04-14T09:01:42Z</time>
      </trkpt>
      <trkpt lat="44.43641" lon="1.35602">
        <ele>239</ele>
        <time>2019-04-14T09:01:43Z</time>
      </trkpt>
      <trkpt lat="44.43643" lon="1.356">
        <ele>239</ele>
        <time>2019-04-14T09:01:44Z</time>
      </trkpt>
      <trkpt lat="44.43644" lon="1.35599">
        <ele>239</ele>
        <time>2019-04-14T09:01:45Z</time>
      </trkpt>
      <trkpt lat="44.43646" lon="1.35598">
        <ele>239</ele>
        <time>2019-04-14T09:01:46Z</time>
      </trkpt>
      <trkpt lat="44.43648" lon="1.35597">
        <ele>239</ele>
        <time>2019-04-14T09:01:47Z</time>
      </trkpt>
      <trkpt lat="44.4365" lon="1.35595">
        <ele>239</ele>
        <time>2019-04-14T09:01:48Z</time>
      </trkpt>
      <trkpt lat="44.43652" lon="1.35594">
        <ele>238</ele>
        <time>2019-04-14T09:01:49Z</time>
      </trkpt>
      <trkpt lat="44.43654" lon="1.35593">
        <ele>238</ele>
        <time>2019-04-14T09:01:50Z</time>
      </trkpt>
      <trkpt lat="44.43656" lon="1.35592">
        <ele>238</ele>
        <time>2019-04-14T09:01:51Z</time>
      </trkpt>
      <trkpt lat="44.43658" lon="1.35591">
        <ele>238</ele>
        <time>2019-04-14T09:01:52Z</time>
      </trkpt>
      <trkpt lat="44.43661" lon="1.35591">
        <ele>238</ele>
        <time>2019-04-14T09:01:53Z</time>
      </trkpt>
      <trkpt lat="44.43664" lon="1.35591">
        <ele>238</ele>
        <time>2019-04-14T09:01:54Z</time>
      </trkpt>
      <trkpt lat="44.43667" lon="1.35591">
        <ele>238</ele>
        <time>2019-04-14T09:01:55Z</time>
      </trkpt>
      <trkpt lat="44.4367" lon="1.35591">
        <ele>238</ele>
        <time>2019-04-14T09:01:56Z</time>
      </trkpt>
      <trkpt lat="44.43672" lon="1.35592">
        <ele>238</ele>
        <time>2019-04-14T09:01:57Z</time>
      </trkpt>
      <trkpt lat="44.43675" lon="1.35593">
        <ele>237</ele>
        <time>2019-04-14T09:01:58Z</time>
      </trkpt>
      <trkpt lat="44.43678" lon="1.35594">
        <ele>237</ele>
        <time>2019-04-14T09:01:59Z</time>
      </trkpt>
      <trkpt lat="44.4368" lon="1.35595">
        <ele>237</ele>
        <time>2019-04-14T09:02:00Z</time>
      </trkpt>
      <trkpt lat="44.43682" lon="1.35598">
        <ele>237</ele>
        <time>2019-04-14T09:02:01Z</time>
      </trkpt>
      <trkpt lat="44.43683" lon="1.35601">
        <ele>237</ele>
        <time>2019-04-14T09:02:02Z</time>
      </trkpt>
      <trkpt lat="44.43684" lon="1.35604">
        <ele>237</ele>
        <time>2019-04-14T09:02:03Z</time>
      </trkpt>
      <trkpt lat="44.43684" lon="1.35608">
        <ele>237</ele>
        <time>2019-04-14T09:02:04Z</time>
      </trkpt>
      <trkpt lat="44.43685" lon="1.35613">
        <ele>237</ele>
        <time>2019-04-14T09:02:05Z</time>
      </trkpt>
      <trkpt lat="44.43685" lon="1.35616">
        <ele>237</ele>
        <time>2019-04-14T09:02:06Z</time>
      </trkpt>
      <trkpt lat="44.43686" lon="1.3562">
        <ele>237</ele>
        <time>2019-04-14T09:02:07Z</time>
      </trkpt>
      <trkpt lat="44.43686" lon="1.35623">
        <ele>237</ele>
        <time>2019-04-14T09:02:08Z</time>
      </trkpt>
      <trkpt lat="44.43686" lon="1.35627">
        <ele>237</ele>
        <time>2019-04-14T09:02:09Z</time>
      </trkpt>
      <trkpt lat="44.43686" lon="1.3563">
        <ele>237</ele>
        <time>2019-04-14T09:02:10Z</time>
      </trkpt>
      <trkpt lat="44.43686" lon="1.35634">
        <ele>237</ele>
        <time>2019-04-14T09:02:11Z</time>
      </trkpt>
      <trkpt lat="44.43686" lon="1.35637">
        <ele>236</ele>
        <time>2019-04-14T09:02:12Z</time>
      </trkpt>
      <trkpt lat="44.43686" lon="1.35641">
        <ele>236</ele>
        <time>2019-04-14T09:02:13Z</time>
      </trkpt>
      <trkpt lat="44.43686" lon="1.35645">
        <ele>236</ele>
        <time>2019-04-14T09:02:14Z</time>
      </trkpt>
      <trkpt lat="44.43687" lon="1.3565">
        <ele>236</ele>
        <time>2019-04-14T09:02:15Z</time>
      </trkpt>
      <trkpt lat="44.43687" lon="1.35655">
        <ele>236</ele>
        <time>2019-04-14T09:02:16Z</time>
      </trkpt>
      <trkpt lat="44.43687" lon="1.3566">
        <ele>235</ele>
        <time>2019-04-14T09:02:17Z</time>
      </trkpt>
      <trkpt lat="44.43688" lon="1.35666">
        <ele>235</ele>
        <time>2019-04-14T09:02:18Z</time>
      </trkpt>
      <trkpt lat="44.43688" lon="1.35672">
        <ele>235</ele>
        <time>2019-04-14T09:02:19Z</time>
      </trkpt>
      <trkpt lat="44.43688" lon="1.35678">
        <ele>235</ele>
        <time>2019-04-14T09:02:20Z</time>
      </trkpt>
      <trkpt lat="44.43688" lon="1.35685">
        <ele>234</ele>
        <time>2019-04-14T09:02:21Z</time>
      </trkpt>
      <trkpt lat="44.43689" lon="1.35692">
        <ele>233</ele>
        <time>2019-04-14T09:02:22Z</time>
      </trkpt>
      <trkpt lat="44.43689" lon="1.357">
        <ele>233</ele>
        <time>2019-04-14T09:02:23Z</time>
      </trkpt>
      <trkpt lat="44.4369" lon="1.35707">
        <ele>232</ele>
        <time>2019-04-14T09:02:24Z</time>
      </trkpt>
      <trkpt lat="44.4369" lon="1.35714">
        <ele>232</ele>
        <time>2019-04-14T09:02:25Z</time>
      </trkpt>
      <trkpt lat="44.4369" lon="1.35722">
        <ele>231</ele>
        <time>2019-04-14T09:02:26Z</time>
      </trkpt>
      <trkpt lat="44.43691" lon="1.35729">
        <ele>231</ele>
        <time>2019-04-14T09:02:27Z</time>
      </trkpt>
      <trkpt lat="44.43691" lon="1.35736">
        <ele>230</ele>
        <time>2019-04-14T09:02:28Z</time>
      </trkpt>
      <trkpt lat="44.43691" lon="1.35743">
        <ele>229</ele>
        <time>2019-04-14T09:02:29Z</time>
      </trkpt>
      <trkpt lat="44.43692" lon="1.35749">
        <ele>228</ele>
        <time>2019-04-14T09:02:30Z</time>
      </trkpt>
      <trkpt lat="44.43693" lon="1.35754">
        <ele>228</ele>
        <time>2019-04-14T09:02:31Z</time>
      </trkpt>
      <trkpt lat="44.43695" lon="1.35757">
        <ele>227</ele>
        <time>2019-04-14T09:02:32Z</time>
      </trkpt>
      <trkpt lat="44.43697" lon="1.35759">
        <ele>227</ele>
        <time>2019-04-14T09:02:33Z</time>
      </trkpt>
      <trkpt lat="44.43698" lon="1.3576">
        <ele>226</ele>
        <time>2019-04-14T09:02:34Z</time>
      </trkpt>
      <trkpt lat="44.43699" lon="1.35761">
        <ele>226</ele>
        <time>2019-04-14T09:02:35Z</time>
      </trkpt>
      <trkpt lat="44.437" lon="1.35761">
        <ele>226</ele>
        <time>2019-04-14T09:02:36Z</time>
      </trkpt>
      <trkpt lat="44.43701" lon="1.35761">
        <ele>226</ele>
        <time>2019-04-14T09:02:37Z</time>
      </trkpt>
      <trkpt lat="44.43703" lon="1.35761">
        <ele>226</ele>
        <time>2019-04-14T09:02:38Z</time>
      </trkpt>
      <trkpt lat="44.43705" lon="1.3576">
        <ele>226</ele>
        <time>2019-04-14T09:02:39Z</time>
      </trkpt>
      <trkpt lat="44.43707" lon="1.35759">
        <ele>226</ele>
        <time>2019-04-14T09:02:40Z</time>
      </trkpt>
      <trkpt lat="44.43709" lon="1.35759">
        <ele>226</ele>
        <time>2019-04-14T09:02:41Z</time>
      </trkpt>
      <trkpt lat="44.43712" lon="1.35759">
        <ele>226</ele>
        <time>2019-04-14T09:02:42Z</time>
      </trkpt>
      <trkpt lat="44.43715" lon="1.3576">
        <ele>226</ele>
        <time>2019-04-14T09:02:43Z</time>
      </trkpt>
      <trkpt lat="44.43717" lon="1.3576">
        <ele>226</ele>
        <time>2019-04-14T09:02:44Z</time>
      </trkpt>
      <trkpt lat="44.4372" lon="1.35761">
        <ele>226</ele>
        <time>2019-04-14T09:02:45Z</time>
      </trkpt>
      <trkpt lat="44.43723" lon="1.35762">
        <ele>225</ele>
        <time>2019-04-14T09:02:46Z</time>
      </trkpt>
      <trkpt lat="44.43726" lon="1.35765">
        <ele>225</ele>
        <time>2019-04-14T09:02:47Z</time>
      </trkpt>
      <trkpt lat="44.4373" lon="1.35768">
        <ele>224</ele>
        <time>2019-04-14T09:02:48Z</time>
      </trkpt>
      <trkpt lat="44.43735" lon="1.35771">
        <ele>224</ele>
        <time>2019-04-14T09:02:49Z</time>
      </trkpt>
      <trkpt lat="44.43739" lon="1.35775">
        <ele>223</ele>
        <time>2019-04-14T09:02:50Z</time>
      </trkpt>
      <trkpt lat="44.43745" lon="1.3578">
        <ele>222</ele>
        <time>2019-04-14T09:02:51Z</time>
      </trkpt>
      <trkpt lat="44.43751" lon="1.35786">
        <ele>221</ele>
        <time>2019-04-14T09:02:52Z</time>
      </trkpt>
      <trkpt lat="44.43757" lon="1.35791">
        <ele>220</ele>
        <time>2019-04-14T09:02:53Z</time>
      </trkpt>
      <trkpt lat="44.43763" lon="1.35797">
        <ele>218</ele>
        <time>2019-04-14T09:02:54Z</time>
      </trkpt>
      <trkpt lat="44.43768" lon="1.35802">
        <ele>217</ele>
        <time>2019-04-14T09:02:55Z</time>
      </trkpt>
      <trkpt lat="44.43772" lon="1.35807">
        <ele>217</ele>
        <time>2019-04-14T09:02:56Z</time>
      </trkpt>
      <trkpt lat="44.43777" lon="1.35811">
        <ele>216</ele>
        <time>2019-04-14T09:02:57Z</time>
      </trkpt>
      <trkpt lat="44.43782" lon="1.35816">
        <ele>215</ele>
        <time>2019-04-14T09:02:58Z</time>
      </trkpt>
      <trkpt lat="44.43787" lon="1.35821">
        <ele>214</ele>
        <time>2019-04-14T09:02:59Z</time>
      </trkpt>
      <trkpt lat="44.43791" lon="1.35826">
        <ele>213</ele>
        <time>2019-04-14T09:03:00Z</time>
      </trkpt>
      <trkpt lat="44.43796" lon="1.35829">
        <ele>213</ele>
        <time>2019-04-14T09:03:01Z</time>
      </trkpt>
      <trkpt lat="44.438" lon="1.35831">
        <ele>212</ele>
        <time>2019-04-14T09:03:02Z</time>
      </trkpt>
      <trkpt lat="44.43803" lon="1.35832">
        <ele>212</ele>
        <time>2019-04-14T09:03:03Z</time>
      </trkpt>
      <trkpt lat="44.43805" lon="1.35834">
        <ele>212</ele>
        <time>2019-04-14T09:03:04Z</time>
      </trkpt>
      <trkpt lat="44.43807" lon="1.35837">
        <ele>212</ele>
        <time>2019-04-14T09:03:05Z</time>
      </trkpt>
      <trkpt lat="44.43808" lon="1.35841">
        <ele>212</ele>
        <time>2019-04-14T09:03:06Z</time>
      </trkpt>
      <trkpt lat="44.43808" lon="1.35843">
        <ele>212</ele>
        <time>2019-04-14T09:03:07Z</time>
      </trkpt>
      <trkpt lat="44.43808" lon="1.35845">
        <ele>212</ele>
        <time>2019-04-14T09:03:08Z</time>
      </trkpt>
      <trkpt lat="44.43808" lon="1.35846">
        <ele>212</ele>
        <time>2019-04-14T09:03:09Z</time>
      </trkpt>
      <trkpt lat="44.43809" lon="1.35848">
        <ele>212</ele>
        <time>2019-04-14T09:03:10Z</time>
      </trkpt>
      <trkpt lat="44.43809" lon="1.3585">
        <ele>212</ele>
        <time>2019-04-14T09:03:11Z</time>
      </trkpt>
      <trkpt lat="44.43811" lon="1.35852">
        <ele>211</ele>
        <time>2019-04-14T09:03:12Z</time>
      </trkpt>
      <trkpt lat="44.43813" lon="1.35854">
        <ele>211</ele>
        <time>2019-04-14T09:03:13Z</time>
      </trkpt>
      <trkpt lat="44.43815" lon="1.35855">
        <ele>211</ele>
        <time>2019-04-14T09:03:14Z</time>
      </trkpt>
      <trkpt lat="44.43817" lon="1.35857">
        <ele>211</ele>
        <time>2019-04-14T09:03:15Z</time>
      </trkpt>
      <trkpt lat="44.43819" lon="1.3586">
        <ele>211</ele>
        <time>2019-04-14T09:03:16Z</time>
      </trkpt>
      <trkpt lat="44.4382" lon="1.35862">
        <ele>211</ele>
        <time>2019-04-14T09:03:17Z</time>
      </trkpt>
      <trkpt lat="44.43823" lon="1.35866">
        <ele>210</ele>
        <time>2019-04-14T09:03:18Z</time>
      </trkpt>
      <trkpt lat="44.43826" lon="1.35871">
        <ele>210</ele>
        <time>2019-04-14T09:03:19Z</time>
      </trkpt>
      <trkpt lat="44.43829" lon="1.35876">
        <ele>209</ele>
        <time>2019-04-14T09:03:20Z</time>
      </trkpt>
      <trkpt lat="44.43833" lon="1.35881">
        <ele>209</ele>
        <time>2019-04-14T09:03:21Z</time>
      </trkpt>
      <trkpt lat="44.43836" lon="1.35886">
        <ele>209</ele>
        <time>2019-04-14T09:03:22Z</time>
      </trkpt>
      <trkpt lat="44.4384" lon="1.35891">
        <ele>209</ele>
        <time>2019-04-14T09:03:23Z</time>
      </trkpt>
      <trkpt lat="44.43843" lon="1.35895">
        <ele>208</ele>
        <time>2019-04-14T09:03:24Z</time>
      </trkpt>
      <trkpt lat="44.43846" lon="1.359">
        <ele>208</ele>
        <time>2019-04-14T09:03:25Z</time>
      </trkpt>
      <trkpt lat="44.4385" lon="1.35903">
        <ele>208</ele>
        <time>2019-04-14T09:03:26Z</time>
      </trkpt>
      <trkpt lat="44.43854" lon="1.35905">
        <ele>208</ele>
        <time>2019-04-14T09:03:27Z</time>
      </trkpt>
      <trkpt lat="44.43858" lon="1.35907">
        <ele>208</ele>
        <time>2019-04-14T09:03:28Z</time>
      </trkpt>
      <trkpt lat="44.43861" lon="1.35908">
        <ele>208</ele>
        <time>2019-04-14T09:03:29Z</time>
      </trkpt>
      <trkpt lat="44.43864" lon="1.35912">
        <ele>208</ele>
        <time>2019-04-14T09:03:30Z</time>
      </trkpt>
      <trkpt lat="44.43866" lon="1.35916">
        <ele>208</ele>
        <time>2019-04-14T09:03:31Z</time>
      </trkpt>
      <trkpt lat="44.43868" lon="1.3592">
        <ele>207</ele>
        <time>2019-04-14T09:03:32Z</time>
      </trkpt>
      <trkpt lat="44.43868" lon="1.35925">
        <ele>207</ele>
        <time>2019-04-14T09:03:33Z</time>
      </trkpt>
      <trkpt lat="44.43869" lon="1.3593">
        <ele>207</ele>
        <time>2019-04-14T09:03:34Z</time>
      </trkpt>
      <trkpt lat="44.43871" lon="1.35934">
        <ele>207</ele>
        <time>2019-04-14T09:03:35Z</time>
      </trkpt>
      <trkpt lat="44.43874" lon="1.35936">
        <ele>206</ele>
        <time>2019-04-14T09:03:36Z</time>
      </trkpt>
      <trkpt lat="44.43877" lon="1.35938">
        <ele>206</ele>
        <time>2019-04-14T09:03:37Z</time>
      </trkpt>
      <trkpt lat="44.43881" lon="1.35939">
        <ele>206</ele>
        <time>2019-04-14T09:03:38Z</time>
      </trkpt>
      <trkpt lat="44.43884" lon="1.35941">
        <ele>205</ele>
        <time>2019-04-14T09:03:39Z</time>
      </trkpt>
      <trkpt lat="44.43887" lon="1.35944">
        <ele>205</ele>
        <time>2019-04-14T09:03:40Z</time>
      </trkpt>
      <trkpt lat="44.43891" lon="1.35945">
        <ele>205</ele>
        <time>2019-04-14T09:03:41Z</time>
      </trkpt>
      <trkpt lat="44.43895" lon="1.35944">
        <ele>204</ele>
        <time>2019-04-14T09:03:42Z</time>
      </trkpt>
      <trkpt lat="44.43898" lon="1.35943">
        <ele>204</ele>
        <time>2019-04-14T09:03:43Z</time>
      </trkpt>
      <trkpt lat="44.43901" lon="1.35942">
        <ele>204</ele>
        <time>2019-04-14T09:03:44Z</time>
      </trkpt>
      <trkpt lat="44.43904" lon="1.35942">
        <ele>204</ele>
        <time>2019-04-14T09:03:45Z</time>
      </trkpt>
      <trkpt lat="44.43907" lon="1.35943">
        <ele>204</ele>
        <time>2019-04-14T09:03:46Z</time>
      </trkpt>
      <trkpt lat="44.4391" lon="1.35944">
        <ele>203</ele>
        <time>2019-04-14T09:03:47Z</time>
      </trkpt>
      <trkpt lat="44.43912" lon="1.35945">
        <ele>203</ele>
        <time>2019-04-14T09:03:48Z</time>
      </trkpt>
      <trkpt lat="44.43914" lon="1.35944">
        <ele>203</ele>
        <time>2019-04-14T09:03:49Z</time>
      </trkpt>
      <trkpt lat="44.43916" lon="1.35943">
        <ele>202</ele>
        <time>2019-04-14T09:03:50Z</time>
      </trkpt>
      <trkpt lat="44.43918" lon="1.35944">
        <ele>202</ele>
        <time>2019-04-14T09:03:51Z</time>
      </trkpt>
      <trkpt lat="44.43919" lon="1.35944">
        <ele>202</ele>
        <time>2019-04-14T09:03:52Z</time>
      </trkpt>
      <trkpt lat="44.43922" lon="1.35946">
        <ele>201</ele>
        <time>2019-04-14T09:03:53Z</time>
      </trkpt>
      <trkpt lat="44.43924" lon="1.35947">
        <ele>201</ele>
        <time>2019-04-14T09:03:54Z</time>
      </trkpt>
      <trkpt lat="44.43927" lon="1.35948">
        <ele>200</ele>
        <time>2019-04-14T09:03:55Z</time>
      </trkpt>
      <trkpt lat="44.43929" lon="1.35949">
        <ele>200</ele>
        <time>2019-04-14T09:03:56Z</time>
      </trkpt>
      <trkpt lat="44.43931" lon="1.35951">
        <ele>200</ele>
        <time>2019-04-14T09:03:57Z</time>
      </trkpt>
      <trkpt lat="44.43932" lon="1.35953">
        <ele>199</ele>
        <time>2019-04-14T09:03:58Z</time>
      </trkpt>
      <trkpt lat="44.43932" lon="1.35957">
        <ele>199</ele>
        <time>2019-04-14T09:03:59Z</time>
      </trkpt>
      <trkpt lat="44.43932" lon="1.35961">
        <ele>199</ele>
        <time>2019-04-14T09:04:00Z</time>
      </trkpt>
      <trkpt lat="44.43931" lon="1.35964">
        <ele>199</ele>
        <time>2019-04-14T09:04:01Z</time>
      </trkpt>
      <trkpt lat="44.43931" lon="1.35967">
        <ele>198</ele>
        <time>2019-04-14T09:04:02Z</time>
      </trkpt>
      <trkpt lat="44.43931" lon="1.35969">
        <ele>198</ele>
        <time>2019-04-14T09:04:03Z</time>
      </trkpt>
      <trkpt lat="44.43931" lon="1.35971">
        <ele>198</ele>
        <time>2019-04-14T09:04:04Z</time>
      </trkpt>
      <trkpt lat="44.4393" lon="1.35972">
        <ele>198</ele>
        <time>2019-04-14T09:04:05Z</time>
      </trkpt>
      <trkpt lat="44.43931" lon="1.35974">
        <ele>198</ele>
        <time>2019-04-14T09:04:06Z</time>
      </trkpt>
      <trkpt lat="44.43932" lon="1.35976">
        <ele>197</ele>
        <time>2019-04-14T09:04:07Z</time>
      </trkpt>
      <trkpt lat="44.43933" lon="1.35978">
        <ele>196</ele>
        <time>2019-04-14T09:04:08Z</time>
      </trkpt>
      <trkpt lat="44.43934" lon="1.3598">
        <ele>196</ele>
        <time>2019-04-14T09:04:09Z</time>
      </trkpt>
      <trkpt lat="44.43935" lon="1.35982">
        <ele>195</ele>
        <time>2019-04-14T09:04:10Z</time>
      </trkpt>
      <trkpt lat="44.43937" lon="1.35984">
        <ele>194</ele>
        <time>2019-04-14T09:04:11Z</time>
      </trkpt>
      <trkpt lat="44.43938" lon="1.35985">
        <ele>194</ele>
        <time>2019-04-14T09:04:12Z</time>
      </trkpt>
      <trkpt lat="44.43939" lon="1.35986">
        <ele>193</ele>
        <time>2019-04-14T09:04:13Z</time>
      </trkpt>
      <trkpt lat="44.4394" lon="1.35986">
        <ele>192</ele>
        <time>2019-04-14T09:04:14Z</time>
      </trkpt>
      <trkpt lat="44.43942" lon="1.35987">
        <ele>192</ele>
        <time>2019-04-14T09:04:15Z</time>
      </trkpt>
      <trkpt lat="44.43944" lon="1.35987">
        <ele>191</ele>
        <time>2019-04-14T09:04:16Z</time>
      </trkpt>
      <trkpt lat="44.43946" lon="1.35988">
        <ele>190</ele>
        <time>2019-04-14T09:04:17Z</time>
      </trkpt>
      <trkpt lat="44.4395" lon="1.35989">
        <ele>190</ele>
        <time>2019-04-14T09:04:18Z</time>
      </trkpt>
      <trkpt lat="44.43954" lon="1.3599">
        <ele>189</ele>
        <time>2019-04-14T09:04:19Z</time>
      </trkpt>
      <trkpt lat="44.43957" lon="1.35991">
        <ele>188</ele>
        <time>2019-04-14T09:04:20Z</time>
      </trkpt>
      <trkpt lat="44.43962" lon="1.3599">
        <ele>187</ele>
        <time>2019-04-14T09:04:21Z</time>
      </trkpt>
      <trkpt lat="44.43966" lon="1.3599">
        <ele>186</ele>
        <time>2019-04-14T09:04:22Z</time>
      </trkpt>
      <trkpt lat="44.4397" lon="1.3599">
        <ele>186</ele>
        <time>2019-04-14T09:04:23Z</time>
      </trkpt>
      <trkpt lat="44.43974" lon="1.3599">
        <ele>185</ele>
        <time>2019-04-14T09:04:24Z</time>
      </trkpt>
      <trkpt lat="44.43975" lon="1.3599">
        <ele>184</ele>
        <time>2019-04-14T09:04:25Z</time>
      </trkpt>
      <trkpt lat="44.43977" lon="1.35991">
        <ele>183</ele>
        <time>2019-04-14T09:04:26Z</time>
      </trkpt>
      <trkpt lat="44.43979" lon="1.35991">
        <ele>183</ele>
        <time>2019-04-14T09:04:27Z</time>
      </trkpt>
      <trkpt lat="44.43981" lon="1.35989">
        <ele>183</ele>
        <time>2019-04-14T09:04:28Z</time>
      </trkpt>
      <trkpt lat="44.43985" lon="1.35988">
        <ele>182</ele>
        <time>2019-04-14T09:04:29Z</time>
      </trkpt>
      <trkpt lat="44.43988" lon="1.35987">
        <ele>181</ele>
        <time>2019-04-14T09:04:30Z</time>
      </trkpt>
      <trkpt lat="44.43991" lon="1.35988">
        <ele>181</ele>
        <time>2019-04-14T09:04:31Z</time>
      </trkpt>
      <trkpt lat="44.43994" lon="1.35989">
        <ele>180</ele>
        <time>2019-04-14T09:04:32Z</time>
      </trkpt>
      <trkpt lat="44.43997" lon="1.35991">
        <ele>177</ele>
        <time>2019-04-14T09:04:33Z</time>
      </trkpt>
      <trkpt lat="44.44" lon="1.3599">
        <ele>177</ele>
        <time>2019-04-14T09:04:34Z</time>
      </trkpt>
      <trkpt lat="44.44003" lon="1.35989">
        <ele>176</ele>
        <time>2019-04-14T09:04:35Z</time>
      </trkpt>
      <trkpt lat="44.44007" lon="1.35988">
        <ele>175</ele>
        <time>2019-04-14T09:04:36Z</time>
      </trkpt>
      <trkpt lat="44.4401" lon="1.35986">
        <ele>174</ele>
        <time>2019-04-14T09:04:37Z</time>
      </trkpt>
      <trkpt lat="44.44012" lon="1.35986">
        <ele>173</ele>
        <time>2019-04-14T09:04:38Z</time>
      </trkpt>
      <trkpt lat="44.44013" lon="1.35986">
        <ele>172</ele>
        <time>2019-04-14T09:04:39Z</time>
      </trkpt>
      <trkpt lat="44.44015" lon="1.35985">
        <ele>172</ele>
        <time>2019-04-14T09:04:40Z</time>
      </trkpt>
      <trkpt lat="44.44018" lon="1.35983">
        <ele>171</ele>
        <time>2019-04-14T09:04:41Z</time>
      </trkpt>
      <trkpt lat="44.44021" lon="1.35982">
        <ele>170</ele>
        <time>2019-04-14T09:04:42Z</time>
      </trkpt>
      <trkpt lat="44.44024" lon="1.3598">
        <ele>169</ele>
        <time>2019-04-14T09:04:43Z</time>
      </trkpt>
      <trkpt lat="44.44026" lon="1.35978">
        <ele>168</ele>
        <time>2019-04-14T09:04:44Z</time>
      </trkpt>
      <trkpt lat="44.44028" lon="1.35977">
        <ele>167</ele>
        <time>2019-04-14T09:04:45Z</time>
      </trkpt>
      <trkpt lat="44.4403" lon="1.35977">
        <ele>167</ele>
        <time>2019-04-14T09:04:46Z</time>
      </trkpt>
      <trkpt lat="44.44032" lon="1.35976">
        <ele>166</ele>
        <time>2019-04-14T09:04:47Z</time>
      </trkpt>
      <trkpt lat="44.44034" lon="1.35976">
        <ele>165</ele>
        <time>2019-04-14T09:04:48Z</time>
      </trkpt>
      <trkpt lat="44.44036" lon="1.35976">
        <ele>164</ele>
        <time>2019-04-14T09:04:49Z</time>
      </trkpt>
      <trkpt lat="44.44038" lon="1.35976">
        <ele>163</ele>
        <time>2019-04-14T09:04:50Z</time>
      </trkpt>
      <trkpt lat="44.44039" lon="1.35976">
        <ele>161</ele>
        <time>2019-04-14T09:04:51Z</time>
      </trkpt>
      <trkpt lat="44.4404" lon="1.35976">
        <ele>161</ele>
        <time>2019-04-14T09:04:52Z</time>
      </trkpt>
      <trkpt lat="44.44042" lon="1.35977">
        <ele>160</ele>
        <time>2019-04-14T09:04:53Z</time>
      </trkpt>
      <trkpt lat="44.44045" lon="1.35977">
        <ele>159</ele>
        <time>2019-04-14T09:04:54Z</time>
      </trkpt>
      <trkpt lat="44.44047" lon="1.35977">
        <ele>157</ele>
        <time>2019-04-14T09:04:55Z</time>
      </trkpt>
      <trkpt lat="44.4405" lon="1.35977">
        <ele>156</ele>
        <time>2019-04-14T09:04:56Z</time>
      </trkpt>
      <trkpt lat="44.44054" lon="1.35976">
        <ele>155</ele>
        <time>2019-04-14T09:04:57Z</time>
      </trkpt>
      <trkpt lat="44.44057" lon="1.35975">
        <ele>154</ele>
        <time>2019-04-14T09:04:58Z</time>
      </trkpt>
      <trkpt lat="44.4406" lon="1.35973">
        <ele>153</ele>
        <time>2019-04-14T09:04:59Z</time>
      </trkpt>
      <trkpt lat="44.44062" lon="1.3597">
        <ele>152</ele>
        <time>2019-04-14T09:05:00Z</time>
      </trkpt>
      <trkpt lat="44.44063" lon="1.35966">
        <ele>151</ele>
        <time>2019-04-14T09:05:01Z</time>
      </trkpt>
      <trkpt lat="44.44064" lon="1.35963">
        <ele>150</ele>
        <time>2019-04-14T09:05:02Z</time>
      </trkpt>
      <trkpt lat="44.44065" lon="1.3596">
        <ele>149</ele>
        <time>2019-04-14T09:05:03Z</time>
      </trkpt>
      <trkpt lat="44.44067" lon="1.35958">
        <ele>148</ele>
        <time>2019-04-14T09:05:04Z</time>
      </trkpt>
      <trkpt lat="44.4407" lon="1.35954">
        <ele>147</ele>
        <time>2019-04-14T09:05:05Z</time>
      </trkpt>
      <trkpt lat="44.44073" lon="1.35952">
        <ele>146</ele>
        <time>2019-04-14T09:05:06Z</time>
      </trkpt>
      <trkpt lat="44.44076" lon="1.35952">
        <ele>146</ele>
        <time>2019-04-14T09:05:07Z</time>
      </trkpt>
      <trkpt lat="44.44079" lon="1.35954">
        <ele>145</ele>
        <time>2019-04-14T09:05:08Z</time>
      </trkpt>
      <trkpt lat="44.4408" lon="1.35957">
        <ele>144</ele>
        <time>2019-04-14T09:05:09Z</time>
      </trkpt>
      <trkpt lat="44.4408" lon="1.35962">
        <ele>144</ele>
        <time>2019-04-14T09:05:10Z</time>
      </trkpt>
      <trkpt lat="44.44083" lon="1.35964">
        <ele>144</ele>
        <time>2019-04-14T09:05:11Z</time>
      </trkpt>
      <trkpt lat="44.44087" lon="1.35966">
        <ele>143</ele>
        <time>2019-04-14T09:05:12Z</time>
      </trkpt>
      <trkpt lat="44.44092" lon="1.3597">
        <ele>142</ele>
        <time>2019-04-14T09:05:13Z</time>
      </trkpt>
      <trkpt lat="44.44096" lon="1.35975">
        <ele>142</ele>
        <time>2019-04-14T09:05:14Z</time>
      </trkpt>
      <trkpt lat="44.44099" lon="1.35979">
        <ele>141</ele>
        <time>2019-04-14T09:05:15Z</time>
      </trkpt>
      <trkpt lat="44.44101" lon="1.35982">
        <ele>141</ele>
        <time>2019-04-14T09:05:16Z</time>
      </trkpt>
      <trkpt lat="44.44101" lon="1.35983">
        <ele>141</ele>
        <time>2019-04-14T09:05:17Z</time>
      </trkpt>
      <trkpt lat="44.44102" lon="1.35982">
        <ele>141</ele>
        <time>2019-04-14T09:05:18Z</time>
      </trkpt>
      <trkpt lat="44.44102" lon="1.35982">
        <ele>141</ele>
        <time>2019-04-14T09:05:19Z</time>
      </trkpt>
      <trkpt lat="44.44102" lon="1.35982">
        <ele>141</ele>
        <time>2019-04-14T09:05:20Z</time>
      </trkpt>
      <trkpt lat="44.44102" lon="1.35982">
        <ele>141</ele>
        <time>2019-04-14T09:05:21Z</time>
      </trkpt>
      <trkpt lat="44.44102" lon="1.35982">
        <ele>141</ele>
        <time>2019-04-14T09:05:22Z</time>
      </trkpt>
      <trkpt lat="44.44103" lon="1.35982">
        <ele>141</ele>
        <time>2019-04-14T09:05:23Z</time>
      </trkpt>
      <trkpt lat="44.44103" lon="1.35982">
        <ele>141</ele>
        <time>2019-04-14T09:05:24Z</time>
      </trkpt>
      <trkpt lat="44.44116" lon="1.35978">
        <ele>135</ele>
        <time>2019-04-14T09:10:01Z</time>
      </trkpt>
      <trkpt lat="44.44116" lon="1.35979">
        <ele>135</ele>
        <time>2019-04-14T09:10:02Z</time>
      </trkpt>
      <trkpt lat="44.44116" lon="1.35979">
        <ele>135</ele>
        <time>2019-04-14T09:10:03Z</time>
      </trkpt>
      <trkpt lat="44.44116" lon="1.35978">
        <ele>135</ele>
        <time>2019-04-14T09:10:04Z</time>
      </trkpt>
      <trkpt lat="44.44116" lon="1.35978">
        <ele>135</ele>
        <time>2019-04-14T09:10:05Z</time>
      </trkpt>
      <trkpt lat="44.44142" lon="1.35989">
        <ele>131</ele>
        <time>2019-04-14T09:10:19Z</time>
      </trkpt>
      <trkpt lat="44.44144" lon="1.35992">
        <ele>131</ele>
        <time>2019-04-14T09:10:20Z</time>
      </trkpt>
      <trkpt lat="44.44145" lon="1.35995">
        <ele>130</ele>
        <time>2019-04-14T09:10:21Z</time>
      </trkpt>
      <trkpt lat="44.44147" lon="1.35996">
        <ele>130</ele>
        <time>2019-04-14T09:10:22Z</time>
      </trkpt>
      <trkpt lat="44.44149" lon="1.35999">
        <ele>129</ele>
        <time>2019-04-14T09:10:23Z</time>
      </trkpt>
      <trkpt lat="44.4415" lon="1.36001">
        <ele>129</ele>
        <time>2019-04-14T09:10:24Z</time>
      </trkpt>
      <trkpt lat="44.44151" lon="1.36003">
        <ele>128</ele>
        <time>2019-04-14T09:10:25Z</time>
      </trkpt>
      <trkpt lat="44.44152" lon="1.36005">
        <ele>128</ele>
        <time>2019-04-14T09:10:26Z</time>
      </trkpt>
      <trkpt lat="44.44153" lon="1.36008">
        <ele>127</ele>
        <time>2019-04-14T09:10:27Z</time>
      </trkpt>
      <trkpt lat="44.44154" lon="1.36011">
        <ele>127</ele>
        <time>2019-04-14T09:10:28Z</time>
      </trkpt>
      <trkpt lat="44.44155" lon="1.36015">
        <ele>126</ele>
        <time>2019-04-14T09:10:29Z</time>
      </trkpt>
      <trkpt lat="44.44155" lon="1.36019">
        <ele>126</ele>
        <time>2019-04-14T09:10:30Z</time>
      </trkpt>
      <trkpt lat="44.44156" lon="1.36022">
        <ele>125</ele>
        <time>2019-04-14T09:10:31Z</time>
      </trkpt>
      <trkpt lat="44.44157" lon="1.36024">
        <ele>125</ele>
        <time>2019-04-14T09:10:32Z</time>
      </trkpt>
      <trkpt lat="44.44157" lon="1.36026">
        <ele>125</ele>
        <time>2019-04-14T09:10:33Z</time>
      </trkpt>
      <trkpt lat="44.44158" lon="1.36027">
        <ele>125</ele>
        <time>2019-04-14T09:10:34Z</time>
      </trkpt>
      <trkpt lat="44.44159" lon="1.36028">
        <ele>125</ele>
        <time>2019-04-14T09:10:35Z</time>
      </trkpt>
      <trkpt lat="44.44159" lon="1.3603">
        <ele>125</ele>
        <time>2019-04-14T09:10:36Z</time>
      </trkpt>
      <trkpt lat="44.44159" lon="1.36031">
        <ele>125</ele>
        <time>2019-04-14T09:10:37Z</time>
      </trkpt>
      <trkpt lat="44.44159" lon="1.36032">
        <ele>124</ele>
        <time>2019-04-14T09:10:38Z</time>
      </trkpt>
      <trkpt lat="44.44159" lon="1.36033">
        <ele>124</ele>
        <time>2019-04-14T09:10:39Z</time>
      </trkpt>
      <trkpt lat="44.44158" lon="1.36035">
        <ele>124</ele>
        <time>2019-04-14T09:10:40Z</time>
      </trkpt>
      <trkpt lat="44.44159" lon="1.36036">
        <ele>124</ele>
        <time>2019-04-14T09:10:41Z</time>
      </trkpt>
      <trkpt lat="44.44159" lon="1.36035">
        <ele>123</ele>
        <time>2019-04-14T09:10:42Z</time>
      </trkpt>
      <trkpt lat="44.44161" lon="1.36034">
        <ele>123</ele>
        <time>2019-04-14T09:10:43Z</time>
      </trkpt>
      <trkpt lat="44.44163" lon="1.36033">
        <ele>123</ele>
        <time>2019-04-14T09:10:44Z</time>
      </trkpt>
      <trkpt lat="44.44166" lon="1.36032">
        <ele>122</ele>
        <time>2019-04-14T09:10:45Z</time>
      </trkpt>
      <trkpt lat="44.4417" lon="1.36028">
        <ele>122</ele>
        <time>2019-04-14T09:10:46Z</time>
      </trkpt>
      <trkpt lat="44.44174" lon="1.36025">
        <ele>121</ele>
        <time>2019-04-14T09:10:47Z</time>
      </trkpt>
      <trkpt lat="44.44179" lon="1.36023">
        <ele>121</ele>
        <time>2019-04-14T09:10:48Z</time>
      </trkpt>
      <trkpt lat="44.44183" lon="1.3602">
        <ele>121</ele>
        <time>2019-04-14T09:10:49Z</time>
      </trkpt>
      <trkpt lat="44.4419" lon="1.36017">
        <ele>121</ele>
        <time>2019-04-14T09:10:50Z</time>
      </trkpt>
      <trkpt lat="44.44196" lon="1.36014">
        <ele>121</ele>
        <time>2019-04-14T09:10:51Z</time>
      </trkpt>
      <trkpt lat="44.44202" lon="1.3601">
        <ele>121</ele>
        <time>2019-04-14T09:10:52Z</time>
      </trkpt>
      <trkpt lat="44.44206" lon="1.36008">
        <ele>121</ele>
        <time>2019-04-14T09:10:53Z</time>
      </trkpt>
      <trkpt lat="44.4421" lon="1.36004">
        <ele>121</ele>
        <time>2019-04-14T09:10:54Z</time>
      </trkpt>
      <trkpt lat="44.44213" lon="1.35999">
        <ele>121</ele>
        <time>2019-04-14T09:10:55Z</time>
      </trkpt>
      <trkpt lat="44.44215" lon="1.35995">
        <ele>121</ele>
        <time>2019-04-14T09:10:56Z</time>
      </trkpt>
      <trkpt lat="44.44219" lon="1.35991">
        <ele>121</ele>
        <time>2019-04-14T09:10:57Z</time>
      </trkpt>
      <trkpt lat="44.44223" lon="1.35988">
        <ele>121</ele>
        <time>2019-04-14T09:10:58Z</time>
      </trkpt>
      <trkpt lat="44.44227" lon="1.35985">
        <ele>121</ele>
        <time>2019-04-14T09:10:59Z</time>
      </trkpt>
      <trkpt lat="44.44231" lon="1.35983">
        <ele>121</ele>
        <time>2019-04-14T09:11:00Z</time>
      </trkpt>
      <trkpt lat="44.44234" lon="1.3598">
        <ele>121</ele>
        <time>2019-04-14T09:11:01Z</time>
      </trkpt>
      <trkpt lat="44.44238" lon="1.35977">
        <ele>121</ele>
        <time>2019-04-14T09:11:02Z</time>
      </trkpt>
      <trkpt lat="44.44241" lon="1.35974">
        <ele>121</ele>
        <time>2019-04-14T09:11:03Z</time>
      </trkpt>
      <trkpt lat="44.44243" lon="1.3597">
        <ele>121</ele>
        <time>2019-04-14T09:11:04Z</time>
      </trkpt>
      <trkpt lat="44.44247" lon="1.35968">
        <ele>121</ele>
        <time>2019-04-14T09:11:05Z</time>
      </trkpt>
      <trkpt lat="44.4425" lon="1.35966">
        <ele>121</ele>
        <time>2019-04-14T09:11:06Z</time>
      </trkpt>
      <trkpt lat="44.44251" lon="1.35962">
        <ele>121</ele>
        <time>2019-04-14T09:11:07Z</time>
      </trkpt>
      <trkpt lat="44.44254" lon="1.35959">
        <ele>121</ele>
        <time>2019-04-14T09:11:08Z</time>
      </trkpt>
      <trkpt lat="44.44255" lon="1.35959">
        <ele>121</ele>
        <time>2019-04-14T09:11:09Z</time>
      </trkpt>
      <trkpt lat="44.44258" lon="1.35959">
        <ele>121</ele>
        <time>2019-04-14T09:11:10Z</time>
      </trkpt>
      <trkpt lat="44.4426" lon="1.35958">
        <ele>121</ele>
        <time>2019-04-14T09:11:11Z</time>
      </trkpt>
      <trkpt lat="44.4426" lon="1.35957">
        <ele>121</ele>
        <time>2019-04-14T09:11:12Z</time>
      </trkpt>
      <trkpt lat="44.4426" lon="1.35957">
        <ele>121</ele>
        <time>2019-04-14T09:11:13Z</time>
      </trkpt>
      <trkpt lat="44.4426" lon="1.35957">
        <ele>121</ele>
        <time>2019-04-14T09:11:14Z</time>
      </trkpt>
      <trkpt lat="44.44261" lon="1.35956">
        <ele>121</ele>
        <time>2019-04-14T09:11:15Z</time>
      </trkpt>
      <trkpt lat="44.44261" lon="1.35956">
        <ele>121</ele>
        <time>2019-04-14T09:11:16Z</time>
      </trkpt>
      <trkpt lat="44.44296" lon="1.35947">
        <ele>121</ele>
        <time>2019-04-14T09:11:40Z</time>
      </trkpt>
      <trkpt lat="44.44299" lon="1.35945">
        <ele>121</ele>
        <time>2019-04-14T09:11:41Z</time>
      </trkpt>
      <trkpt lat="44.44302" lon="1.35943">
        <ele>121</ele>
        <time>2019-04-14T09:11:42Z</time>
      </trkpt>
      <trkpt lat="44.44305" lon="1.3594">
        <ele>121</ele>
        <time>2019-04-14T09:11:43Z</time>
      </trkpt>
      <trkpt lat="44.44307" lon="1.35939">
        <ele>121</ele>
        <time>2019-04-14T09:11:44Z</time>
      </trkpt>
      <trkpt lat="44.44309" lon="1.35938">
        <ele>121</ele>
        <time>2019-04-14T09:11:45Z</time>
      </trkpt>
      <trkpt lat="44.44312" lon="1.35937">
        <ele>120</ele>
        <time>2019-04-14T09:11:46Z</time>
      </trkpt>
      <trkpt lat="44.44315" lon="1.35936">
        <ele>120</ele>
        <time>2019-04-14T09:11:47Z</time>
      </trkpt>
      <trkpt lat="44.44319" lon="1.35935">
        <ele>120</ele>
        <time>2019-04-14T09:11:48Z</time>
      </trkpt>
      <trkpt lat="44.44321" lon="1.35933">
        <ele>120</ele>
        <time>2019-04-14T09:11:49Z</time>
      </trkpt>
      <trkpt lat="44.44323" lon="1.3593">
        <ele>120</ele>
        <time>2019-04-14T09:11:50Z</time>
      </trkpt>
      <trkpt lat="44.44325" lon="1.35928">
        <ele>120</ele>
        <time>2019-04-14T09:11:51Z</time>
      </trkpt>
      <trkpt lat="44.44327" lon="1.35926">
        <ele>120</ele>
        <time>2019-04-14T09:11:52Z</time>
      </trkpt>
      <trkpt lat="44.4433" lon="1.35924">
        <ele>120</ele>
        <time>2019-04-14T09:11:53Z</time>
      </trkpt>
      <trkpt lat="44.44332" lon="1.35923">
        <ele>121</ele>
        <time>2019-04-14T09:11:54Z</time>
      </trkpt>
      <trkpt lat="44.44333" lon="1.35922">
        <ele>121</ele>
        <time>2019-04-14T09:11:55Z</time>
      </trkpt>
      <trkpt lat="44.44333" lon="1.35921">
        <ele>121</ele>
        <time>2019-04-14T09:11:56Z</time>
      </trkpt>
      <trkpt lat="44.44334" lon="1.35922">
        <ele>121</ele>
        <time>2019-04-14T09:11:57Z</time>
      </trkpt>
      <trkpt lat="44.44335" lon="1.35921">
        <ele>121</ele>
        <time>2019-04-14T09:11:58Z</time>
      </trkpt>
      <trkpt lat="44.44337" lon="1.35921">
        <ele>121</ele>
        <time>2019-04-14T09:11:59Z</time>
      </trkpt>
      <trkpt lat="44.4434" lon="1.3592">
        <ele>121</ele>
        <time>2019-04-14T09:12:00Z</time>
      </trkpt>
      <trkpt lat="44.44344" lon="1.35919">
        <ele>121</ele>
        <time>2019-04-14T09:12:01Z</time>
      </trkpt>
      <trkpt lat="44.44349" lon="1.35917">
        <ele>121</ele>
        <time>2019-04-14T09:12:02Z</time>
      </trkpt>
      <trkpt lat="44.44353" lon="1.35916">
        <ele>121</ele>
        <time>2019-04-14T09:12:03Z</time>
      </trkpt>
      <trkpt lat="44.44357" lon="1.35915">
        <ele>121</ele>
        <time>2019-04-14T09:12:04Z</time>
      </trkpt>
      <trkpt lat="44.44361" lon="1.35916">
        <ele>121</ele>
        <time>2019-04-14T09:12:05Z</time>
      </trkpt>
      <trkpt lat="44.44366" lon="1.35916">
        <ele>121</ele>
        <time>2019-04-14T09:12:06Z</time>
      </trkpt>
      <trkpt lat="44.4437" lon="1.35916">
        <ele>121</ele>
        <time>2019-04-14T09:12:07Z</time>
      </trkpt>
      <trkpt lat="44.44375" lon="1.35915">
        <ele>120</ele>
        <time>2019-04-14T09:12:08Z</time>
      </trkpt>
      <trkpt lat="44.44378" lon="1.35914">
        <ele>120</ele>
        <time>2019-04-14T09:12:09Z</time>
      </trkpt>
      <trkpt lat="44.4438" lon="1.35914">
        <ele>120</ele>
        <time>2019-04-14T09:12:10Z</time>
      </trkpt>
      <trkpt lat="44.44382" lon="1.35915">
        <ele>120</ele>
        <time>2019-04-14T09:12:11Z</time>
      </trkpt>
      <trkpt lat="44.44384" lon="1.35916">
        <ele>120</ele>
        <time>2019-04-14T09:12:12Z</time>
      </trkpt>
      <trkpt lat="44.44388" lon="1.35916">
        <ele>120</ele>
        <time>2019-04-14T09:12:13Z</time>
      </trkpt>
      <trkpt lat="44.44391" lon="1.35916">
        <ele>120</ele>
        <time>2019-04-14T09:12:14Z</time>
      </trkpt>
      <trkpt lat="44.44394" lon="1.35917">
        <ele>120</ele>
        <time>2019-04-14T09:12:15Z</time>
      </trkpt>
      <trkpt lat="44.44397" lon="1.35916">
        <ele>120</ele>
        <time>2019-04-14T09:12:16Z</time>
      </trkpt>
      <trkpt lat="44.44401" lon="1.35915">
        <ele>120</ele>
        <time>2019-04-14T09:12:17Z</time>
      </trkpt>
      <trkpt lat="44.44405" lon="1.35915">
        <ele>120</ele>
        <time>2019-04-14T09:12:18Z</time>
      </trkpt>
      <trkpt lat="44.44409" lon="1.35915">
        <ele>120</ele>
        <time>2019-04-14T09:12:19Z</time>
      </trkpt>
      <trkpt lat="44.4441" lon="1.35915">
        <ele>120</ele>
        <time>2019-04-14T09:12:20Z</time>
      </trkpt>
      <trkpt lat="44.44413" lon="1.35915">
        <ele>120</ele>
        <time>2019-04-14T09:12:21Z</time>
      </trkpt>
      <trkpt lat="44.44416" lon="1.35916">
        <ele>120</ele>
        <time>2019-04-14T09:12:22Z</time>
      </trkpt>
      <trkpt lat="44.44417" lon="1.35916">
        <ele>120</ele>
        <time>2019-04-14T09:12:23Z</time>
      </trkpt>
      <trkpt lat="44.44421" lon="1.35916">
        <ele>120</ele>
        <time>2019-04-14T09:12:24Z</time>
      </trkpt>
      <trkpt lat="44.44425" lon="1.35917">
        <ele>120</ele>
        <time>2019-04-14T09:12:25Z</time>
      </trkpt>
      <trkpt lat="44.44428" lon="1.35917">
        <ele>120</ele>
        <time>2019-04-14T09:12:26Z</time>
      </trkpt>
      <trkpt lat="44.44431" lon="1.35916">
        <ele>120</ele>
        <time>2019-04-14T09:12:27Z</time>
      </trkpt>
      <trkpt lat="44.44433" lon="1.35916">
        <ele>120</ele>
        <time>2019-04-14T09:12:28Z</time>
      </trkpt>
      <trkpt lat="44.44437" lon="1.35917">
        <ele>120</ele>
        <time>2019-04-14T09:12:29Z</time>
      </trkpt>
      <trkpt lat="44.44441" lon="1.35918">
        <ele>120</ele>
        <time>2019-04-14T09:12:30Z</time>
      </trkpt>
      <trkpt lat="44.44444" lon="1.35917">
        <ele>120</ele>
        <time>2019-04-14T09:12:31Z</time>
      </trkpt>
      <trkpt lat="44.44448" lon="1.35918">
        <ele>120</ele>
        <time>2019-04-14T09:12:32Z</time>
      </trkpt>
      <trkpt lat="44.44451" lon="1.35919">
        <ele>120</ele>
        <time>2019-04-14T09:12:33Z</time>
      </trkpt>
      <trkpt lat="44.44454" lon="1.35919">
        <ele>120</ele>
        <time>2019-04-14T09:12:34Z</time>
      </trkpt>
      <trkpt lat="44.44457" lon="1.3592">
        <ele>120</ele>
        <time>2019-04-14T09:12:35Z</time>
      </trkpt>
      <trkpt lat="44.44459" lon="1.3592">
        <ele>120</ele>
        <time>2019-04-14T09:12:36Z</time>
      </trkpt>
      <trkpt lat="44.44462" lon="1.35921">
        <ele>120</ele>
        <time>2019-04-14T09:12:37Z</time>
      </trkpt>
      <trkpt lat="44.44465" lon="1.35921">
        <ele>120</ele>
        <time>2019-04-14T09:12:38Z</time>
      </trkpt>
      <trkpt lat="44.44468" lon="1.35922">
        <ele>120</ele>
        <time>2019-04-14T09:12:39Z</time>
      </trkpt>
      <trkpt lat="44.4447" lon="1.35922">
        <ele>119</ele>
        <time>2019-04-14T09:12:40Z</time>
      </trkpt>
      <trkpt lat="44.44474" lon="1.35923">
        <ele>119</ele>
        <time>2019-04-14T09:12:41Z</time>
      </trkpt>
      <trkpt lat="44.44478" lon="1.35923">
        <ele>118</ele>
        <time>2019-04-14T09:12:42Z</time>
      </trkpt>
      <trkpt lat="44.44482" lon="1.35924">
        <ele>118</ele>
        <time>2019-04-14T09:12:43Z</time>
      </trkpt>
      <trkpt lat="44.44487" lon="1.35923">
        <ele>118</ele>
        <time>2019-04-14T09:12:44Z</time>
      </trkpt>
      <trkpt lat="44.44491" lon="1.35923">
        <ele>118</ele>
        <time>2019-04-14T09:12:45Z</time>
      </trkpt>
      <trkpt lat="44.44494" lon="1.35924">
        <ele>118</ele>
        <time>2019-04-14T09:12:46Z</time>
      </trkpt>
      <trkpt lat="44.44497" lon="1.35926">
        <ele>118</ele>
        <time>2019-04-14T09:12:47Z</time>
      </trkpt>
      <trkpt lat="44.44501" lon="1.35927">
        <ele>118</ele>
        <time>2019-04-14T09:12:48Z</time>
      </trkpt>
      <trkpt lat="44.44505" lon="1.3593">
        <ele>118</ele>
        <time>2019-04-14T09:12:49Z</time>
      </trkpt>
      <trkpt lat="44.44507" lon="1.35931">
        <ele>118</ele>
        <time>2019-04-14T09:12:50Z</time>
      </trkpt>
      <trkpt lat="44.4451" lon="1.35931">
        <ele>118</ele>
        <time>2019-04-14T09:12:51Z</time>
      </trkpt>
      <trkpt lat="44.44511" lon="1.35932">
        <ele>118</ele>
        <time>2019-04-14T09:12:52Z</time>
      </trkpt>
      <trkpt lat="44.44514" lon="1.35934">
        <ele>118</ele>
        <time>2019-04-14T09:12:53Z</time>
      </trkpt>
      <trkpt lat="44.44519" lon="1.35935">
        <ele>118</ele>
        <time>2019-04-14T09:12:54Z</time>
      </trkpt>
      <trkpt lat="44.44522" lon="1.35935">
        <ele>118</ele>
        <time>2019-04-14T09:12:55Z</time>
      </trkpt>
      <trkpt lat="44.44524" lon="1.35936">
        <ele>118</ele>
        <time>2019-04-14T09:12:56Z</time>
      </trkpt>
      <trkpt lat="44.44527" lon="1.35938">
        <ele>118</ele>
        <time>2019-04-14T09:12:57Z</time>
      </trkpt>
      <trkpt lat="44.44529" lon="1.35939">
        <ele>118</ele>
        <time>2019-04-14T09:12:58Z</time>
      </trkpt>
      <trkpt lat="44.44531" lon="1.3594">
        <ele>117</ele>
        <time>2019-04-14T09:12:59Z</time>
      </trkpt>
      <trkpt lat="44.44534" lon="1.35941">
        <ele>117</ele>
        <time>2019-04-14T09:13:00Z</time>
      </trkpt>
      <trkpt lat="44.44535" lon="1.35943">
        <ele>117</ele>
        <time>2019-04-14T09:13:01Z</time>
      </trkpt>
      <trkpt lat="44.44537" lon="1.35943">
        <ele>117</ele>
        <time>2019-04-14T09:13:02Z</time>
      </trkpt>
      <trkpt lat="44.4454" lon="1.35943">
        <ele>117</ele>
        <time>2019-04-14T09:13:03Z</time>
      </trkpt>
      <trkpt lat="44.44544" lon="1.35943">
        <ele>118</ele>
        <time>2019-04-14T09:13:04Z</time>
      </trkpt>
      <trkpt lat="44.44547" lon="1.35943">
        <ele>118</ele>
        <time>2019-04-14T09:13:05Z</time>
      </trkpt>
      <trkpt lat="44.44551" lon="1.35944">
        <ele>118</ele>
        <time>2019-04-14T09:13:06Z</time>
      </trkpt>
      <trkpt lat="44.44553" lon="1.35946">
        <ele>118</ele>
        <time>2019-04-14T09:13:07Z</time>
      </trkpt>
      <trkpt lat="44.44554" lon="1.35945">
        <ele>118</ele>
        <time>2019-04-14T09:13:08Z</time>
      </trkpt>
      <trkpt lat="44.44556" lon="1.35945">
        <ele>118</ele>
        <time>2019-04-14T09:13:09Z</time>
      </trkpt>
      <trkpt lat="44.44558" lon="1.35946">
        <ele>119</ele>
        <time>2019-04-14T09:13:10Z</time>
      </trkpt>
      <trkpt lat="44.44561" lon="1.35947">
        <ele>119</ele>
        <time>2019-04-14T09:13:11Z</time>
      </trkpt>
      <trkpt lat="44.44564" lon="1.35948">
        <ele>118</ele>
        <time>2019-04-14T09:13:12Z</time>
      </trkpt>
      <trkpt lat="44.44566" lon="1.35948">
        <ele>118</ele>
        <time>2019-04-14T09:13:13Z</time>
      </trkpt>
      <trkpt lat="44.44567" lon="1.35949">
        <ele>118</ele>
        <time>2019-04-14T09:13:14Z</time>
      </trkpt>
      <trkpt lat="44.44569" lon="1.35951">
        <ele>118</ele>
        <time>2019-04-14T09:13:15Z</time>
      </trkpt>
      <trkpt lat="44.4457" lon="1.35953">
        <ele>118</ele>
        <time>2019-04-14T09:13:16Z</time>
      </trkpt>
      <trkpt lat="44.44572" lon="1.35956">
        <ele>118</ele>
        <time>2019-04-14T09:13:17Z</time>
      </trkpt>
      <trkpt lat="44.44574" lon="1.35956">
        <ele>118</ele>
        <time>2019-04-14T09:13:18Z</time>
      </trkpt>
      <trkpt lat="44.44575" lon="1.35956">
        <ele>118</ele>
        <time>2019-04-14T09:13:19Z</time>
      </trkpt>
      <trkpt lat="44.44577" lon="1.35956">
        <ele>118</ele>
        <time>2019-04-14T09:13:20Z</time>
      </trkpt>
      <trkpt lat="44.44577" lon="1.35956">
        <ele>118</ele>
        <time>2019-04-14T09:13:21Z</time>
      </trkpt>
      <trkpt lat="44.44577" lon="1.35956">
        <ele>118</ele>
        <time>2019-04-14T09:13:22Z</time>
      </trkpt>
      <trkpt lat="44.44577" lon="1.35956">
        <ele>118</ele>
        <time>2019-04-14T09:13:23Z</time>
      </trkpt>
      <trkpt lat="44.44578" lon="1.35957">
        <ele>118</ele>
        <time>2019-04-14T09:13:24Z</time>
      </trkpt>
      <trkpt lat="44.44578" lon="1.35957">
        <ele>118</ele>
        <time>2019-04-14T09:13:25Z</time>
      </trkpt>
      <trkpt lat="44.44579" lon="1.35958">
        <ele>118</ele>
        <time>2019-04-14T09:13:26Z</time>
      </trkpt>
      <trkpt lat="44.44579" lon="1.35958">
        <ele>118</ele>
        <time>2019-04-14T09:13:27Z</time>
      </trkpt>
      <trkpt lat="44.4461" lon="1.35974">
        <ele>116</ele>
        <time>2019-04-14T09:13:58Z</time>
      </trkpt>
      <trkpt lat="44.44611" lon="1.35974">
        <ele>116</ele>
        <time>2019-04-14T09:13:59Z</time>
      </trkpt>
      <trkpt lat="44.44612" lon="1.35975">
        <ele>116</ele>
        <time>2019-04-14T09:14:00Z</time>
      </trkpt>
      <trkpt lat="44.44613" lon="1.35975">
        <ele>116</ele>
        <time>2019-04-14T09:14:01Z</time>
      </trkpt>
      <trkpt lat="44.44613" lon="1.35976">
        <ele>116</ele>
        <time>2019-04-14T09:14:02Z</time>
      </trkpt>
      <trkpt lat="44.44615" lon="1.35976">
        <ele>116</ele>
        <time>2019-04-14T09:14:03Z</time>
      </trkpt>
      <trkpt lat="44.44617" lon="1.35976">
        <ele>116</ele>
        <time>2019-04-14T09:14:04Z</time>
      </trkpt>
      <trkpt lat="44.4462" lon="1.35977">
        <ele>116</ele>
        <time>2019-04-14T09:14:05Z</time>
      </trkpt>
      <trkpt lat="44.44622" lon="1.35977">
        <ele>116</ele>
        <time>2019-04-14T09:14:06Z</time>
      </trkpt>
      <trkpt lat="44.44624" lon="1.35978">
        <ele>116</ele>
        <time>2019-04-14T09:14:07Z</time>
      </trkpt>
      <trkpt lat="44.44626" lon="1.35979">
        <ele>115</ele>
        <time>2019-04-14T09:14:08Z</time>
      </trkpt>
      <trkpt lat="44.4463" lon="1.35981">
        <ele>116</ele>
        <time>2019-04-14T09:14:09Z</time>
      </trkpt>
      <trkpt lat="44.44632" lon="1.35982">
        <ele>115</ele>
        <time>2019-04-14T09:14:10Z</time>
      </trkpt>
      <trkpt lat="44.44635" lon="1.35983">
        <ele>115</ele>
        <time>2019-04-14T09:14:11Z</time>
      </trkpt>
      <trkpt lat="44.44638" lon="1.35983">
        <ele>115</ele>
        <time>2019-04-14T09:14:12Z</time>
      </trkpt>
      <trkpt lat="44.44641" lon="1.35983">
        <ele>115</ele>
        <time>2019-04-14T09:14:13Z</time>
      </trkpt>
      <trkpt lat="44.44643" lon="1.35983">
        <ele>115</ele>
        <time>2019-04-14T09:14:14Z</time>
      </trkpt>
      <trkpt lat="44.44645" lon="1.35986">
        <ele>115</ele>
        <time>2019-04-14T09:14:15Z</time>
      </trkpt>
      <trkpt lat="44.44649" lon="1.35989">
        <ele>115</ele>
        <time>2019-04-14T09:14:16Z</time>
      </trkpt>
      <trkpt lat="44.44651" lon="1.35991">
        <ele>115</ele>
        <time>2019-04-14T09:14:17Z</time>
      </trkpt>
      <trkpt lat="44.44654" lon="1.35994">
        <ele>115</ele>
        <time>2019-04-14T09:14:18Z</time>
      </trkpt>
      <trkpt lat="44.44657" lon="1.35995">
        <ele>114</ele>
        <time>2019-04-14T09:14:19Z</time>
      </trkpt>
      <trkpt lat="44.44659" lon="1.35996">
        <ele>114</ele>
        <time>2019-04-14T09:14:20Z</time>
      </trkpt>
      <trkpt lat="44.44661" lon="1.35996">
        <ele>114</ele>
        <time>2019-04-14T09:14:21Z</time>
      </trkpt>
      <trkpt lat="44.44662" lon="1.35996">
        <ele>114</ele>
        <time>2019-04-14T09:14:22Z</time>
      </trkpt>
      <trkpt lat="44.44665" lon="1.35997">
        <ele>114</ele>
        <time>2019-04-14T09:14:23Z</time>
      </trkpt>
      <trkpt lat="44.44668" lon="1.35998">
        <ele>114</ele>
        <time>2019-04-14T09:14:24Z</time>
      </trkpt>
      <trkpt lat="44.44671" lon="1.35998">
        <ele>114</ele>
        <time>2019-04-14T09:14:25Z</time>
      </trkpt>
      <trkpt lat="44.44673" lon="1.35998">
        <ele>114</ele>
        <time>2019-04-14T09:14:26Z</time>
      </trkpt>
      <trkpt lat="44.44675" lon="1.35999">
        <ele>114</ele>
        <time>2019-04-14T09:14:27Z</time>
      </trkpt>
      <trkpt lat="44.44678" lon="1.36">
        <ele>114</ele>
        <time>2019-04-14T09:14:28Z</time>
      </trkpt>
      <trkpt lat="44.44679" lon="1.35999">
        <ele>114</ele>
        <time>2019-04-14T09:14:29Z</time>
      </trkpt>
      <trkpt lat="44.44683" lon="1.35998">
        <ele>114</ele>
        <time>2019-04-14T09:14:30Z</time>
      </trkpt>
      <trkpt lat="44.44686" lon="1.35997">
        <ele>115</ele>
        <time>2019-04-14T09:14:31Z</time>
      </trkpt>
      <trkpt lat="44.44689" lon="1.35996">
        <ele>115</ele>
        <time>2019-04-14T09:14:32Z</time>
      </trkpt>
      <trkpt lat="44.44692" lon="1.35995">
        <ele>115</ele>
        <time>2019-04-14T09:14:33Z</time>
      </trkpt>
      <trkpt lat="44.44694" lon="1.35996">
        <ele>115</ele>
        <time>2019-04-14T09:14:34Z</time>
      </trkpt>
      <trkpt lat="44.44696" lon="1.35997">
        <ele>115</ele>
        <time>2019-04-14T09:14:35Z</time>
      </trkpt>
      <trkpt lat="44.44698" lon="1.35997">
        <ele>115</ele>
        <time>2019-04-14T09:14:36Z</time>
      </trkpt>
      <trkpt lat="44.447" lon="1.35997">
        <ele>115</ele>
        <time>2019-04-14T09:14:37Z</time>
      </trkpt>
      <trkpt lat="44.44703" lon="1.35998">
        <ele>115</ele>
        <time>2019-04-14T09:14:38Z</time>
      </trkpt>
      <trkpt lat="44.44706" lon="1.35999">
        <ele>115</ele>
        <time>2019-04-14T09:14:39Z</time>
      </trkpt>
      <trkpt lat="44.44708" lon="1.35999">
        <ele>115</ele>
        <time>2019-04-14T09:14:40Z</time>
      </trkpt>
      <trkpt lat="44.4471" lon="1.36">
        <ele>115</ele>
        <time>2019-04-14T09:14:41Z</time>
      </trkpt>
      <trkpt lat="44.44713" lon="1.36003">
        <ele>114</ele>
        <time>2019-04-14T09:14:42Z</time>
      </trkpt>
      <trkpt lat="44.44717" lon="1.36005">
        <ele>114</ele>
        <time>2019-04-14T09:14:43Z</time>
      </trkpt>
      <trkpt lat="44.4472" lon="1.36005">
        <ele>113</ele>
        <time>2019-04-14T09:14:44Z</time>
      </trkpt>
      <trkpt lat="44.44723" lon="1.36005">
        <ele>113</ele>
        <time>2019-04-14T09:14:45Z</time>
      </trkpt>
      <trkpt lat="44.44725" lon="1.36006">
        <ele>113</ele>
        <time>2019-04-14T09:14:46Z</time>
      </trkpt>
      <trkpt lat="44.44728" lon="1.36006">
        <ele>113</ele>
        <time>2019-04-14T09:14:47Z</time>
      </trkpt>
      <trkpt lat="44.44728" lon="1.36007">
        <ele>113</ele>
        <time>2019-04-14T09:14:48Z</time>
      </trkpt>
      <trkpt lat="44.44731" lon="1.36008">
        <ele>113</ele>
        <time>2019-04-14T09:14:49Z</time>
      </trkpt>
      <trkpt lat="44.44735" lon="1.36008">
        <ele>113</ele>
        <time>2019-04-14T09:14:50Z</time>
      </trkpt>
      <trkpt lat="44.44738" lon="1.36008">
        <ele>112</ele>
        <time>2019-04-14T09:14:51Z</time>
      </trkpt>
      <trkpt lat="44.44739" lon="1.36007">
        <ele>113</ele>
        <time>2019-04-14T09:14:52Z</time>
      </trkpt>
      <trkpt lat="44.44743" lon="1.36007">
        <ele>113</ele>
        <time>2019-04-14T09:14:53Z</time>
      </trkpt>
      <trkpt lat="44.44746" lon="1.36007">
        <ele>113</ele>
        <time>2019-04-14T09:14:54Z</time>
      </trkpt>
      <trkpt lat="44.44749" lon="1.36006">
        <ele>113</ele>
        <time>2019-04-14T09:14:55Z</time>
      </trkpt>
      <trkpt lat="44.44753" lon="1.36005">
        <ele>113</ele>
        <time>2019-04-14T09:14:56Z</time>
      </trkpt>
      <trkpt lat="44.44756" lon="1.36003">
        <ele>113</ele>
        <time>2019-04-14T09:14:57Z</time>
      </trkpt>
      <trkpt lat="44.4476" lon="1.36003">
        <ele>113</ele>
        <time>2019-04-14T09:14:58Z</time>
      </trkpt>
      <trkpt lat="44.44763" lon="1.36003">
        <ele>113</ele>
        <time>2019-04-14T09:14:59Z</time>
      </trkpt>
      <trkpt lat="44.44765" lon="1.36003">
        <ele>114</ele>
        <time>2019-04-14T09:15:00Z</time>
      </trkpt>
      <trkpt lat="44.44767" lon="1.36002">
        <ele>114</ele>
        <time>2019-04-14T09:15:01Z</time>
      </trkpt>
      <trkpt lat="44.44769" lon="1.36001">
        <ele>114</ele>
        <time>2019-04-14T09:15:02Z</time>
      </trkpt>
      <trkpt lat="44.44771" lon="1.36">
        <ele>114</ele>
        <time>2019-04-14T09:15:03Z</time>
      </trkpt>
      <trkpt lat="44.44773" lon="1.35998">
        <ele>114</ele>
        <time>2019-04-14T09:15:04Z</time>
      </trkpt>
      <trkpt lat="44.44776" lon="1.35998">
        <ele>114</ele>
        <time>2019-04-14T09:15:05Z</time>
      </trkpt>
      <trkpt lat="44.44779" lon="1.35998">
        <ele>114</ele>
        <time>2019-04-14T09:15:06Z</time>
      </trkpt>
      <trkpt lat="44.44782" lon="1.35998">
        <ele>114</ele>
        <time>2019-04-14T09:15:07Z</time>
      </trkpt>
      <trkpt lat="44.44784" lon="1.35998">
        <ele>114</ele>
        <time>2019-04-14T09:15:08Z</time>
      </trkpt>
      <trkpt lat="44.44788" lon="1.35999">
        <ele>113</ele>
        <time>2019-04-14T09:15:09Z</time>
      </trkpt>
      <trkpt lat="44.44791" lon="1.35998">
        <ele>113</ele>
        <time>2019-04-14T09:15:10Z</time>
      </trkpt>
      <trkpt lat="44.44795" lon="1.35997">
        <ele>112</ele>
        <time>2019-04-14T09:15:11Z</time>
      </trkpt>
      <trkpt lat="44.44799" lon="1.35995">
        <ele>112</ele>
        <time>2019-04-14T09:15:12Z</time>
      </trkpt>
      <trkpt lat="44.44801" lon="1.35991">
        <ele>112</ele>
        <time>2019-04-14T09:15:13Z</time>
      </trkpt>
      <trkpt lat="44.44805" lon="1.35987">
        <ele>112</ele>
        <time>2019-04-14T09:15:14Z</time>
      </trkpt>
      <trkpt lat="44.44809" lon="1.35986">
        <ele>112</ele>
        <time>2019-04-14T09:15:15Z</time>
      </trkpt>
      <trkpt lat="44.44813" lon="1.35984">
        <ele>112</ele>
        <time>2019-04-14T09:15:16Z</time>
      </trkpt>
      <trkpt lat="44.44815" lon="1.35982">
        <ele>112</ele>
        <time>2019-04-14T09:15:17Z</time>
      </trkpt>
      <trkpt lat="44.44818" lon="1.3598">
        <ele>112</ele>
        <time>2019-04-14T09:15:18Z</time>
      </trkpt>
      <trkpt lat="44.44821" lon="1.3598">
        <ele>112</ele>
        <time>2019-04-14T09:15:19Z</time>
      </trkpt>
      <trkpt lat="44.44823" lon="1.35978">
        <ele>112</ele>
        <time>2019-04-14T09:15:20Z</time>
      </trkpt>
      <trkpt lat="44.44825" lon="1.35975">
        <ele>112</ele>
        <time>2019-04-14T09:15:21Z</time>
      </trkpt>
      <trkpt lat="44.44827" lon="1.35973">
        <ele>112</ele>
        <time>2019-04-14T09:15:22Z</time>
      </trkpt>
      <trkpt lat="44.44827" lon="1.35971">
        <ele>112</ele>
        <time>2019-04-14T09:15:23Z</time>
      </trkpt>
      <trkpt lat="44.44832" lon="1.35969">
        <ele>112</ele>
        <time>2019-04-14T09:15:24Z</time>
      </trkpt>
      <trkpt lat="44.44835" lon="1.35967">
        <ele>112</ele>
        <time>2019-04-14T09:15:25Z</time>
      </trkpt>
      <trkpt lat="44.44838" lon="1.35966">
        <ele>112</ele>
        <time>2019-04-14T09:15:26Z</time>
      </trkpt>
      <trkpt lat="44.44841" lon="1.35963">
        <ele>112</ele>
        <time>2019-04-14T09:15:27Z</time>
      </trkpt>
      <trkpt lat="44.44845" lon="1.35961">
        <ele>112</ele>
        <time>2019-04-14T09:15:28Z</time>
      </trkpt>
      <trkpt lat="44.44848" lon="1.3596">
        <ele>112</ele>
        <time>2019-04-14T09:15:29Z</time>
      </trkpt>
      <trkpt lat="44.44851" lon="1.35959">
        <ele>112</ele>
        <time>2019-04-14T09:15:30Z</time>
      </trkpt>
      <trkpt lat="44.44853" lon="1.35958">
        <ele>112</ele>
        <time>2019-04-14T09:15:31Z</time>
      </trkpt>
      <trkpt lat="44.44854" lon="1.35956">
        <ele>112</ele>
        <time>2019-04-14T09:15:32Z</time>
      </trkpt>
      <trkpt lat="44.44858" lon="1.35953">
        <ele>112</ele>
        <time>2019-04-14T09:15:33Z</time>
      </trkpt>
      <trkpt lat="44.44862" lon="1.35951">
        <ele>111</ele>
        <time>2019-04-14T09:15:34Z</time>
      </trkpt>
      <trkpt lat="44.44865" lon="1.35948">
        <ele>111</ele>
        <time>2019-04-14T09:15:35Z</time>
      </trkpt>
      <trkpt lat="44.44869" lon="1.35945">
        <ele>111</ele>
        <time>2019-04-14T09:15:36Z</time>
      </trkpt>
      <trkpt lat="44.44872" lon="1.35943">
        <ele>111</ele>
        <time>2019-04-14T09:15:37Z</time>
      </trkpt>
      <trkpt lat="44.44874" lon="1.3594">
        <ele>112</ele>
        <time>2019-04-14T09:15:38Z</time>
      </trkpt>
      <trkpt lat="44.44876" lon="1.35939">
        <ele>112</ele>
        <time>2019-04-14T09:15:39Z</time>
      </trkpt>
      <trkpt lat="44.44878" lon="1.35937">
        <ele>111</ele>
        <time>2019-04-14T09:15:40Z</time>
      </trkpt>
      <trkpt lat="44.44881" lon="1.35935">
        <ele>111</ele>
        <time>2019-04-14T09:15:41Z</time>
      </trkpt>
      <trkpt lat="44.44884" lon="1.35933">
        <ele>111</ele>
        <time>2019-04-14T09:15:42Z</time>
      </trkpt>
      <trkpt lat="44.44886" lon="1.35931">
        <ele>111</ele>
        <time>2019-04-14T09:15:43Z</time>
      </trkpt>
      <trkpt lat="44.44888" lon="1.35929">
        <ele>111</ele>
        <time>2019-04-14T09:15:44Z</time>
      </trkpt>
      <trkpt lat="44.44889" lon="1.35926">
        <ele>111</ele>
        <time>2019-04-14T09:15:45Z</time>
      </trkpt>
      <trkpt lat="44.44891" lon="1.35922">
        <ele>111</ele>
        <time>2019-04-14T09:15:46Z</time>
      </trkpt>
      <trkpt lat="44.44893" lon="1.35918">
        <ele>111</ele>
        <time>2019-04-14T09:15:47Z</time>
      </trkpt>
      <trkpt lat="44.44893" lon="1.35916">
        <ele>111</ele>
        <time>2019-04-14T09:15:48Z</time>
      </trkpt>
      <trkpt lat="44.44895" lon="1.35913">
        <ele>111</ele>
        <time>2019-04-14T09:15:49Z</time>
      </trkpt>
      <trkpt lat="44.44897" lon="1.3591">
        <ele>111</ele>
        <time>2019-04-14T09:15:50Z</time>
      </trkpt>
      <trkpt lat="44.44899" lon="1.35907">
        <ele>111</ele>
        <time>2019-04-14T09:15:51Z</time>
      </trkpt>
      <trkpt lat="44.44902" lon="1.35904">
        <ele>111</ele>
        <time>2019-04-14T09:15:52Z</time>
      </trkpt>
      <trkpt lat="44.44904" lon="1.35902">
        <ele>111</ele>
        <time>2019-04-14T09:15:53Z</time>
      </trkpt>
      <trkpt lat="44.44907" lon="1.359">
        <ele>111</ele>
        <time>2019-04-14T09:15:54Z</time>
      </trkpt>
      <trkpt lat="44.4491" lon="1.35898">
        <ele>111</ele>
        <time>2019-04-14T09:15:55Z</time>
      </trkpt>
      <trkpt lat="44.44913" lon="1.35896">
        <ele>111</ele>
        <time>2019-04-14T09:15:56Z</time>
      </trkpt>
      <trkpt lat="44.44914" lon="1.35894">
        <ele>111</ele>
        <time>2019-04-14T09:15:57Z</time>
      </trkpt>
      <trkpt lat="44.44917" lon="1.35891">
        <ele>111</ele>
        <time>2019-04-14T09:15:58Z</time>
      </trkpt>
      <trkpt lat="44.4492" lon="1.35889">
        <ele>111</ele>
        <time>2019-04-14T09:15:59Z</time>
      </trkpt>
      <trkpt lat="44.44923" lon="1.35887">
        <ele>111</ele>
        <time>2019-04-14T09:16:00Z</time>
      </trkpt>
      <trkpt lat="44.44926" lon="1.35884">
        <ele>111</ele>
        <time>2019-04-14T09:16:01Z</time>
      </trkpt>
      <trkpt lat="44.44929" lon="1.35881">
        <ele>111</ele>
        <time>2019-04-14T09:16:02Z</time>
      </trkpt>
      <trkpt lat="44.44932" lon="1.35878">
        <ele>111</ele>
        <time>2019-04-14T09:16:03Z</time>
      </trkpt>
      <trkpt lat="44.44935" lon="1.35874">
        <ele>111</ele>
        <time>2019-04-14T09:16:04Z</time>
      </trkpt>
      <trkpt lat="44.44938" lon="1.35872">
        <ele>111</ele>
        <time>2019-04-14T09:16:05Z</time>
      </trkpt>
      <trkpt lat="44.44939" lon="1.35869">
        <ele>111</ele>
        <time>2019-04-14T09:16:06Z</time>
      </trkpt>
      <trkpt lat="44.44941" lon="1.35866">
        <ele>111</ele>
        <time>2019-04-14T09:16:07Z</time>
      </trkpt>
      <trkpt lat="44.44943" lon="1.35864">
        <ele>111</ele>
        <time>2019-04-14T09:16:08Z</time>
      </trkpt>
      <trkpt lat="44.44946" lon="1.35862">
        <ele>111</ele>
        <time>2019-04-14T09:16:09Z</time>
      </trkpt>
      <trkpt lat="44.44948" lon="1.3586">
        <ele>111</ele>
        <time>2019-04-14T09:16:10Z</time>
      </trkpt>
      <trkpt lat="44.44951" lon="1.35859">
        <ele>111</ele>
        <time>2019-04-14T09:16:11Z</time>
      </trkpt>
      <trkpt lat="44.44952" lon="1.35858">
        <ele>111</ele>
        <time>2019-04-14T09:16:12Z</time>
      </trkpt>
      <trkpt lat="44.44954" lon="1.35855">
        <ele>110</ele>
        <time>2019-04-14T09:16:13Z</time>
      </trkpt>
      <trkpt lat="44.44955" lon="1.35852">
        <ele>110</ele>
        <time>2019-04-14T09:16:14Z</time>
      </trkpt>
      <trkpt lat="44.44957" lon="1.35848">
        <ele>110</ele>
        <time>2019-04-14T09:16:15Z</time>
      </trkpt>
      <trkpt lat="44.44959" lon="1.35846">
        <ele>111</ele>
        <time>2019-04-14T09:16:16Z</time>
      </trkpt>
      <trkpt lat="44.44962" lon="1.35843">
        <ele>111</ele>
        <time>2019-04-14T09:16:17Z</time>
      </trkpt>
      <trkpt lat="44.44965" lon="1.35841">
        <ele>111</ele>
        <time>2019-04-14T09:16:18Z</time>
      </trkpt>
      <trkpt lat="44.44967" lon="1.3584">
        <ele>111</ele>
        <time>2019-04-14T09:16:19Z</time>
      </trkpt>
      <trkpt lat="44.44967" lon="1.35838">
        <ele>112</ele>
        <time>2019-04-14T09:16:20Z</time>
      </trkpt>
      <trkpt lat="44.44968" lon="1.35838">
        <ele>112</ele>
        <time>2019-04-14T09:16:21Z</time>
      </trkpt>
      <trkpt lat="44.44966" lon="1.35836">
        <ele>112</ele>
        <time>2019-04-14T09:16:22Z</time>
      </trkpt>
      <trkpt lat="44.44968" lon="1.35833">
        <ele>112</ele>
        <time>2019-04-14T09:16:23Z</time>
      </trkpt>
      <trkpt lat="44.44969" lon="1.35831">
        <ele>112</ele>
        <time>2019-04-14T09:16:24Z</time>
      </trkpt>
      <trkpt lat="44.44973" lon="1.35828">
        <ele>112</ele>
        <time>2019-04-14T09:16:25Z</time>
      </trkpt>
      <trkpt lat="44.44975" lon="1.35824">
        <ele>113</ele>
        <time>2019-04-14T09:16:26Z</time>
      </trkpt>
      <trkpt lat="44.44977" lon="1.35821">
        <ele>113</ele>
        <time>2019-04-14T09:16:27Z</time>
      </trkpt>
      <trkpt lat="44.44979" lon="1.35818">
        <ele>113</ele>
        <time>2019-04-14T09:16:28Z</time>
      </trkpt>
      <trkpt lat="44.4498" lon="1.35816">
        <ele>113</ele>
        <time>2019-04-14T09:16:29Z</time>
      </trkpt>
      <trkpt lat="44.44983" lon="1.35813">
        <ele>113</ele>
        <time>2019-04-14T09:16:30Z</time>
      </trkpt>
      <trkpt lat="44.44984" lon="1.35809">
        <ele>112</ele>
        <time>2019-04-14T09:16:31Z</time>
      </trkpt>
      <trkpt lat="44.44987" lon="1.35805">
        <ele>112</ele>
        <time>2019-04-14T09:16:32Z</time>
      </trkpt>
      <trkpt lat="44.4499" lon="1.35801">
        <ele>112</ele>
        <time>2019-04-14T09:16:33Z</time>
      </trkpt>
      <trkpt lat="44.44992" lon="1.35798">
        <ele>111</ele>
        <time>2019-04-14T09:16:34Z</time>
      </trkpt>
      <trkpt lat="44.44992" lon="1.35794">
        <ele>111</ele>
        <time>2019-04-14T09:16:35Z</time>
      </trkpt>
      <trkpt lat="44.44993" lon="1.3579">
        <ele>111</ele>
        <time>2019-04-14T09:16:36Z</time>
      </trkpt>
      <trkpt lat="44.44993" lon="1.35788">
        <ele>113</ele>
        <time>2019-04-14T09:16:37Z</time>
      </trkpt>
      <trkpt lat="44.44993" lon="1.35787">
        <ele>111</ele>
        <time>2019-04-14T09:16:38Z</time>
      </trkpt>
      <trkpt lat="44.44993" lon="1.35787">
        <ele>111</ele>
        <time>2019-04-14T09:16:39Z</time>
      </trkpt>
      <trkpt lat="44.44993" lon="1.35786">
        <ele>111</ele>
        <time>2019-04-14T09:16:40Z</time>
      </trkpt>
      <trkpt lat="44.44994" lon="1.35785">
        <ele>111</ele>
        <time>2019-04-14T09:16:41Z</time>
      </trkpt>
      <trkpt lat="44.44994" lon="1.35785">
        <ele>111</ele>
        <time>2019-04-14T09:16:42Z</time>
      </trkpt>
      <trkpt lat="44.44994" lon="1.35784">
        <ele>111</ele>
        <time>2019-04-14T09:16:43Z</time>
      </trkpt>
      <trkpt lat="44.44996" lon="1.35784">
        <ele>111</ele>
        <time>2019-04-14T09:16:44Z</time>
      </trkpt>
      <trkpt lat="44.45015" lon="1.35782">
        <ele>107</ele>
        <time>2019-04-14T09:17:12Z</time>
      </trkpt>
      <trkpt lat="44.45016" lon="1.3578">
        <ele>107</ele>
        <time>2019-04-14T09:17:13Z</time>
      </trkpt>
      <trkpt lat="44.45017" lon="1.35778">
        <ele>107</ele>
        <time>2019-04-14T09:17:14Z</time>
      </trkpt>
      <trkpt lat="44.45018" lon="1.35775">
        <ele>107</ele>
        <time>2019-04-14T09:17:15Z</time>
      </trkpt>
      <trkpt lat="44.45019" lon="1.35773">
        <ele>107</ele>
        <time>2019-04-14T09:17:16Z</time>
      </trkpt>
      <trkpt lat="44.45019" lon="1.35772">
        <ele>106</ele>
        <time>2019-04-14T09:17:17Z</time>
      </trkpt>
      <trkpt lat="44.45019" lon="1.35771">
        <ele>106</ele>
        <time>2019-04-14T09:17:18Z</time>
      </trkpt>
      <trkpt lat="44.45019" lon="1.3577">
        <ele>106</ele>
        <time>2019-04-14T09:17:19Z</time>
      </trkpt>
      <trkpt lat="44.4502" lon="1.35769">
        <ele>106</ele>
        <time>2019-04-14T09:17:20Z</time>
      </trkpt>
      <trkpt lat="44.4502" lon="1.35768">
        <ele>106</ele>
        <time>2019-04-14T09:17:21Z</time>
      </trkpt>
      <trkpt lat="44.4502" lon="1.35769">
        <ele>106</ele>
        <time>2019-04-14T09:17:22Z</time>
      </trkpt>
      <trkpt lat="44.4502" lon="1.35769">
        <ele>106</ele>
        <time>2019-04-14T09:17:23Z</time>
      </trkpt>
      <trkpt lat="44.4502" lon="1.35769">
        <ele>106</ele>
        <time>2019-04-14T09:17:24Z</time>
      </trkpt>
      <trkpt lat="44.4502" lon="1.35769">
        <ele>106</ele>
        <time>2019-04-14T09:17:25Z</time>
      </trkpt>
      <trkpt lat="44.4502" lon="1.35768">
        <ele>106</ele>
        <time>2019-04-14T09:17:26Z</time>
      </trkpt>
      <trkpt lat="44.45019" lon="1.35768">
        <ele>106</ele>
        <time>2019-04-14T09:17:27Z</time>
      </trkpt>
      <trkpt lat="44.45002" lon="1.35748">
        <ele>106</ele>
        <time>2019-04-14T09:17:43Z</time>
      </trkpt>
      <trkpt lat="44.44999" lon="1.35746">
        <ele>106</ele>
        <time>2019-04-14T09:17:44Z</time>
      </trkpt>
      <trkpt lat="44.44996" lon="1.35745">
        <ele>106</ele>
        <time>2019-04-14T09:17:45Z</time>
      </trkpt>
      <trkpt lat="44.44994" lon="1.35744">
        <ele>107</ele>
        <time>2019-04-14T09:17:46Z</time>
      </trkpt>
      <trkpt lat="44.44993" lon="1.35744">
        <ele>107</ele>
        <time>2019-04-14T09:17:47Z</time>
      </trkpt>
      <trkpt lat="44.44991" lon="1.35742">
        <ele>107</ele>
        <time>2019-04-14T09:17:48Z</time>
      </trkpt>
      <trkpt lat="44.44989" lon="1.3574">
        <ele>107</ele>
        <time>2019-04-14T09:17:49Z</time>
      </trkpt>
      <trkpt lat="44.44988" lon="1.35738">
        <ele>107</ele>
        <time>2019-04-14T09:17:50Z</time>
      </trkpt>
      <trkpt lat="44.44984" lon="1.35736">
        <ele>107</ele>
        <time>2019-04-14T09:17:51Z</time>
      </trkpt>
      <trkpt lat="44.44981" lon="1.35734">
        <ele>107</ele>
        <time>2019-04-14T09:17:52Z</time>
      </trkpt>
      <trkpt lat="44.44981" lon="1.35732">
        <ele>107</ele>
        <time>2019-04-14T09:17:53Z</time>
      </trkpt>
      <trkpt lat="44.44979" lon="1.3573">
        <ele>108</ele>
        <time>2019-04-14T09:17:54Z</time>
      </trkpt>
      <trkpt lat="44.44976" lon="1.35729">
        <ele>108</ele>
        <time>2019-04-14T09:17:55Z</time>
      </trkpt>
      <trkpt lat="44.44973" lon="1.35727">
        <ele>108</ele>
        <time>2019-04-14T09:17:56Z</time>
      </trkpt>
      <trkpt lat="44.4497" lon="1.35726">
        <ele>108</ele>
        <time>2019-04-14T09:17:57Z</time>
      </trkpt>
      <trkpt lat="44.44966" lon="1.35726">
        <ele>108</ele>
        <time>2019-04-14T09:17:58Z</time>
      </trkpt>
      <trkpt lat="44.44964" lon="1.35725">
        <ele>108</ele>
        <time>2019-04-14T09:17:59Z</time>
      </trkpt>
      <trkpt lat="44.44962" lon="1.35724">
        <ele>108</ele>
        <time>2019-04-14T09:18:00Z</time>
      </trkpt>
      <trkpt lat="44.44961" lon="1.35723">
        <ele>108</ele>
        <time>2019-04-14T09:18:01Z</time>
      </trkpt>
      <trkpt lat="44.44957" lon="1.35721">
        <ele>108</ele>
        <time>2019-04-14T09:18:02Z</time>
      </trkpt>
      <trkpt lat="44.44955" lon="1.35718">
        <ele>108</ele>
        <time>2019-04-14T09:18:03Z</time>
      </trkpt>
      <trkpt lat="44.44951" lon="1.35715">
        <ele>108</ele>
        <time>2019-04-14T09:18:04Z</time>
      </trkpt>
      <trkpt lat="44.44947" lon="1.35713">
        <ele>108</ele>
        <time>2019-04-14T09:18:05Z</time>
      </trkpt>
      <trkpt lat="44.44944" lon="1.35711">
        <ele>108</ele>
        <time>2019-04-14T09:18:06Z</time>
      </trkpt>
      <trkpt lat="44.44941" lon="1.35709">
        <ele>108</ele>
        <time>2019-04-14T09:18:07Z</time>
      </trkpt>
      <trkpt lat="44.44939" lon="1.35708">
        <ele>107</ele>
        <time>2019-04-14T09:18:08Z</time>
      </trkpt>
      <trkpt lat="44.44935" lon="1.35703">
        <ele>107</ele>
        <time>2019-04-14T09:18:09Z</time>
      </trkpt>
      <trkpt lat="44.44932" lon="1.35699">
        <ele>107</ele>
        <time>2019-04-14T09:18:10Z</time>
      </trkpt>
      <trkpt lat="44.44929" lon="1.35698">
        <ele>107</ele>
        <time>2019-04-14T09:18:11Z</time>
      </trkpt>
      <trkpt lat="44.44927" lon="1.35698">
        <ele>107</ele>
        <time>2019-04-14T09:18:12Z</time>
      </trkpt>
      <trkpt lat="44.44924" lon="1.35697">
        <ele>107</ele>
        <time>2019-04-14T09:18:13Z</time>
      </trkpt>
      <trkpt lat="44.44921" lon="1.35696">
        <ele>108</ele>
        <time>2019-04-14T09:18:14Z</time>
      </trkpt>
      <trkpt lat="44.44919" lon="1.35694">
        <ele>108</ele>
        <time>2019-04-14T09:18:15Z</time>
      </trkpt>
      <trkpt lat="44.44917" lon="1.35692">
        <ele>107</ele>
        <time>2019-04-14T09:18:16Z</time>
      </trkpt>
      <trkpt lat="44.44913" lon="1.35691">
        <ele>107</ele>
        <time>2019-04-14T09:18:17Z</time>
      </trkpt>
      <trkpt lat="44.4491" lon="1.35689">
        <ele>108</ele>
        <time>2019-04-14T09:18:18Z</time>
      </trkpt>
      <trkpt lat="44.44907" lon="1.35688">
        <ele>108</ele>
        <time>2019-04-14T09:18:19Z</time>
      </trkpt>
      <trkpt lat="44.44905" lon="1.35687">
        <ele>108</ele>
        <time>2019-04-14T09:18:20Z</time>
      </trkpt>
      <trkpt lat="44.44904" lon="1.35688">
        <ele>108</ele>
        <time>2019-04-14T09:18:21Z</time>
      </trkpt>
      <trkpt lat="44.44901" lon="1.35688">
        <ele>108</ele>
        <time>2019-04-14T09:18:22Z</time>
      </trkpt>
      <trkpt lat="44.44899" lon="1.35688">
        <ele>109</ele>
        <time>2019-04-14T09:18:23Z</time>
      </trkpt>
      <trkpt lat="44.44897" lon="1.35688">
        <ele>109</ele>
        <time>2019-04-14T09:18:24Z</time>
      </trkpt>
      <trkpt lat="44.44895" lon="1.35689">
        <ele>110</ele>
        <time>2019-04-14T09:18:25Z</time>
      </trkpt>
      <trkpt lat="44.44894" lon="1.35688">
        <ele>110</ele>
        <time>2019-04-14T09:18:26Z</time>
      </trkpt>
      <trkpt lat="44.44892" lon="1.35688">
        <ele>110</ele>
        <time>2019-04-14T09:18:27Z</time>
      </trkpt>
      <trkpt lat="44.44889" lon="1.35688">
        <ele>110</ele>
        <time>2019-04-14T09:18:28Z</time>
      </trkpt>
      <trkpt lat="44.44885" lon="1.35687">
        <ele>110</ele>
        <time>2019-04-14T09:18:29Z</time>
      </trkpt>
      <trkpt lat="44.44882" lon="1.35687">
        <ele>110</ele>
        <time>2019-04-14T09:18:30Z</time>
      </trkpt>
      <trkpt lat="44.44879" lon="1.35687">
        <ele>110</ele>
        <time>2019-04-14T09:18:31Z</time>
      </trkpt>
      <trkpt lat="44.44876" lon="1.35687">
        <ele>111</ele>
        <time>2019-04-14T09:18:32Z</time>
      </trkpt>
      <trkpt lat="44.44874" lon="1.35686">
        <ele>111</ele>
        <time>2019-04-14T09:18:33Z</time>
      </trkpt>
      <trkpt lat="44.44872" lon="1.35685">
        <ele>111</ele>
        <time>2019-04-14T09:18:34Z</time>
      </trkpt>
      <trkpt lat="44.44871" lon="1.35685">
        <ele>111</ele>
        <time>2019-04-14T09:18:35Z</time>
      </trkpt>
      <trkpt lat="44.44869" lon="1.35684">
        <ele>111</ele>
        <time>2019-04-14T09:18:36Z</time>
      </trkpt>
      <trkpt lat="44.44868" lon="1.35683">
        <ele>111</ele>
        <time>2019-04-14T09:18:37Z</time>
      </trkpt>
      <trkpt lat="44.44867" lon="1.35681">
        <ele>110</ele>
        <time>2019-04-14T09:18:38Z</time>
      </trkpt>
      <trkpt lat="44.44865" lon="1.35676">
        <ele>109</ele>
        <time>2019-04-14T09:18:39Z</time>
      </trkpt>
      <trkpt lat="44.44863" lon="1.35673">
        <ele>109</ele>
        <time>2019-04-14T09:18:40Z</time>
      </trkpt>
      <trkpt lat="44.44859" lon="1.35672">
        <ele>109</ele>
        <time>2019-04-14T09:18:41Z</time>
      </trkpt>
      <trkpt lat="44.44857" lon="1.35672">
        <ele>109</ele>
        <time>2019-04-14T09:18:42Z</time>
      </trkpt>
      <trkpt lat="44.44855" lon="1.35672">
        <ele>109</ele>
        <time>2019-04-14T09:18:43Z</time>
      </trkpt>
      <trkpt lat="44.44852" lon="1.35671">
        <ele>110</ele>
        <time>2019-04-14T09:18:44Z</time>
      </trkpt>
      <trkpt lat="44.44849" lon="1.3567">
        <ele>109</ele>
        <time>2019-04-14T09:18:45Z</time>
      </trkpt>
      <trkpt lat="44.44846" lon="1.35669">
        <ele>109</ele>
        <time>2019-04-14T09:18:46Z</time>
      </trkpt>
      <trkpt lat="44.44843" lon="1.35666">
        <ele>109</ele>
        <time>2019-04-14T09:18:47Z</time>
      </trkpt>
      <trkpt lat="44.44841" lon="1.35665">
        <ele>109</ele>
        <time>2019-04-14T09:18:48Z</time>
      </trkpt>
      <trkpt lat="44.44839" lon="1.35663">
        <ele>109</ele>
        <time>2019-04-14T09:18:49Z</time>
      </trkpt>
      <trkpt lat="44.44837" lon="1.35661">
        <ele>109</ele>
        <time>2019-04-14T09:18:50Z</time>
      </trkpt>
      <trkpt lat="44.44834" lon="1.3566">
        <ele>109</ele>
        <time>2019-04-14T09:18:51Z</time>
      </trkpt>
      <trkpt lat="44.44831" lon="1.35658">
        <ele>109</ele>
        <time>2019-04-14T09:18:52Z</time>
      </trkpt>
      <trkpt lat="44.44828" lon="1.35654">
        <ele>109</ele>
        <time>2019-04-14T09:18:53Z</time>
      </trkpt>
      <trkpt lat="44.44826" lon="1.35652">
        <ele>109</ele>
        <time>2019-04-14T09:18:54Z</time>
      </trkpt>
      <trkpt lat="44.44823" lon="1.35649">
        <ele>109</ele>
        <time>2019-04-14T09:18:55Z</time>
      </trkpt>
      <trkpt lat="44.4482" lon="1.35648">
        <ele>109</ele>
        <time>2019-04-14T09:18:56Z</time>
      </trkpt>
      <trkpt lat="44.44817" lon="1.35646">
        <ele>109</ele>
        <time>2019-04-14T09:18:57Z</time>
      </trkpt>
      <trkpt lat="44.44813" lon="1.35646">
        <ele>109</ele>
        <time>2019-04-14T09:18:58Z</time>
      </trkpt>
      <trkpt lat="44.4481" lon="1.35645">
        <ele>109</ele>
        <time>2019-04-14T09:18:59Z</time>
      </trkpt>
      <trkpt lat="44.44806" lon="1.35642">
        <ele>109</ele>
        <time>2019-04-14T09:19:00Z</time>
      </trkpt>
      <trkpt lat="44.44803" lon="1.35641">
        <ele>109</ele>
        <time>2019-04-14T09:19:01Z</time>
      </trkpt>
      <trkpt lat="44.44801" lon="1.3564">
        <ele>109</ele>
        <time>2019-04-14T09:19:02Z</time>
      </trkpt>
      <trkpt lat="44.448" lon="1.3564">
        <ele>109</ele>
        <time>2019-04-14T09:19:03Z</time>
      </trkpt>
      <trkpt lat="44.44796" lon="1.35637">
        <ele>109</ele>
        <time>2019-04-14T09:19:04Z</time>
      </trkpt>
      <trkpt lat="44.44794" lon="1.35635">
        <ele>109</ele>
        <time>2019-04-14T09:19:05Z</time>
      </trkpt>
      <trkpt lat="44.44791" lon="1.35634">
        <ele>109</ele>
        <time>2019-04-14T09:19:06Z</time>
      </trkpt>
      <trkpt lat="44.44788" lon="1.35634">
        <ele>110</ele>
        <time>2019-04-14T09:19:07Z</time>
      </trkpt>
      <trkpt lat="44.44785" lon="1.35633">
        <ele>110</ele>
        <time>2019-04-14T09:19:08Z</time>
      </trkpt>
      <trkpt lat="44.44782" lon="1.35633">
        <ele>110</ele>
        <time>2019-04-14T09:19:09Z</time>
      </trkpt>
      <trkpt lat="44.44779" lon="1.35632">
        <ele>110</ele>
        <time>2019-04-14T09:19:10Z</time>
      </trkpt>
      <trkpt lat="44.44776" lon="1.3563">
        <ele>110</ele>
        <time>2019-04-14T09:19:11Z</time>
      </trkpt>
      <trkpt lat="44.44773" lon="1.35629">
        <ele>110</ele>
        <time>2019-04-14T09:19:12Z</time>
      </trkpt>
      <trkpt lat="44.44771" lon="1.35629">
        <ele>110</ele>
        <time>2019-04-14T09:19:13Z</time>
      </trkpt>
      <trkpt lat="44.44769" lon="1.35628">
        <ele>110</ele>
        <time>2019-04-14T09:19:14Z</time>
      </trkpt>
      <trkpt lat="44.44766" lon="1.35627">
        <ele>110</ele>
        <time>2019-04-14T09:19:15Z</time>
      </trkpt>
      <trkpt lat="44.44763" lon="1.35626">
        <ele>110</ele>
        <time>2019-04-14T09:19:16Z</time>
      </trkpt>
      <trkpt lat="44.4476" lon="1.35625">
        <ele>110</ele>
        <time>2019-04-14T09:19:17Z</time>
      </trkpt>
      <trkpt lat="44.44757" lon="1.35623">
        <ele>110</ele>
        <time>2019-04-14T09:19:18Z</time>
      </trkpt>
      <trkpt lat="44.44754" lon="1.35622">
        <ele>110</ele>
        <time>2019-04-14T09:19:19Z</time>
      </trkpt>
      <trkpt lat="44.4475" lon="1.3562">
        <ele>110</ele>
        <time>2019-04-14T09:19:20Z</time>
      </trkpt>
      <trkpt lat="44.44746" lon="1.35619">
        <ele>110</ele>
        <time>2019-04-14T09:19:21Z</time>
      </trkpt>
      <trkpt lat="44.44744" lon="1.35619">
        <ele>111</ele>
        <time>2019-04-14T09:19:22Z</time>
      </trkpt>
      <trkpt lat="44.44742" lon="1.35618">
        <ele>111</ele>
        <time>2019-04-14T09:19:23Z</time>
      </trkpt>
      <trkpt lat="44.44739" lon="1.35618">
        <ele>111</ele>
        <time>2019-04-14T09:19:24Z</time>
      </trkpt>
      <trkpt lat="44.44736" lon="1.35618">
        <ele>111</ele>
        <time>2019-04-14T09:19:25Z</time>
      </trkpt>
      <trkpt lat="44.44733" lon="1.35616">
        <ele>111</ele>
        <time>2019-04-14T09:19:26Z</time>
      </trkpt>
      <trkpt lat="44.44731" lon="1.35615">
        <ele>111</ele>
        <time>2019-04-14T09:19:27Z</time>
      </trkpt>
      <trkpt lat="44.44729" lon="1.35614">
        <ele>111</ele>
        <time>2019-04-14T09:19:28Z</time>
      </trkpt>
      <trkpt lat="44.44726" lon="1.35614">
        <ele>111</ele>
        <time>2019-04-14T09:19:29Z</time>
      </trkpt>
      <trkpt lat="44.44722" lon="1.35613">
        <ele>111</ele>
        <time>2019-04-14T09:19:30Z</time>
      </trkpt>
      <trkpt lat="44.44719" lon="1.35612">
        <ele>112</ele>
        <time>2019-04-14T09:19:31Z</time>
      </trkpt>
      <trkpt lat="44.44716" lon="1.35609">
        <ele>112</ele>
        <time>2019-04-14T09:19:32Z</time>
      </trkpt>
      <trkpt lat="44.44713" lon="1.35607">
        <ele>112</ele>
        <time>2019-04-14T09:19:33Z</time>
      </trkpt>
      <trkpt lat="44.4471" lon="1.35605">
        <ele>112</ele>
        <time>2019-04-14T09:19:34Z</time>
      </trkpt>
      <trkpt lat="44.44707" lon="1.35605">
        <ele>112</ele>
        <time>2019-04-14T09:19:35Z</time>
      </trkpt>
      <trkpt lat="44.44703" lon="1.35605">
        <ele>112</ele>
        <time>2019-04-14T09:19:36Z</time>
      </trkpt>
      <trkpt lat="44.447" lon="1.35606">
        <ele>112</ele>
        <time>2019-04-14T09:19:37Z</time>
      </trkpt>
      <trkpt lat="44.44698" lon="1.35604">
        <ele>112</ele>
        <time>2019-04-14T09:19:38Z</time>
      </trkpt>
      <trkpt lat="44.44694" lon="1.35603">
        <ele>112</ele>
        <time>2019-04-14T09:19:39Z</time>
      </trkpt>
      <trkpt lat="44.44691" lon="1.35602">
        <ele>112</ele>
        <time>2019-04-14T09:19:40Z</time>
      </trkpt>
      <trkpt lat="44.44687" lon="1.35601">
        <ele>112</ele>
        <time>2019-04-14T09:19:41Z</time>
      </trkpt>
      <trkpt lat="44.44683" lon="1.35599">
        <ele>112</ele>
        <time>2019-04-14T09:19:42Z</time>
      </trkpt>
      <trkpt lat="44.44679" lon="1.35598">
        <ele>112</ele>
        <time>2019-04-14T09:19:43Z</time>
      </trkpt>
      <trkpt lat="44.44675" lon="1.35598">
        <ele>112</ele>
        <time>2019-04-14T09:19:44Z</time>
      </trkpt>
      <trkpt lat="44.44671" lon="1.35598">
        <ele>112</ele>
        <time>2019-04-14T09:19:45Z</time>
      </trkpt>
      <trkpt lat="44.44667" lon="1.35599">
        <ele>113</ele>
        <time>2019-04-14T09:19:46Z</time>
      </trkpt>
      <trkpt lat="44.44665" lon="1.35599">
        <ele>113</ele>
        <time>2019-04-14T09:19:47Z</time>
      </trkpt>
      <trkpt lat="44.44664" lon="1.356">
        <ele>113</ele>
        <time>2019-04-14T09:19:48Z</time>
      </trkpt>
      <trkpt lat="44.44662" lon="1.35602">
        <ele>113</ele>
        <time>2019-04-14T09:19:49Z</time>
      </trkpt>
      <trkpt lat="44.44661" lon="1.356">
        <ele>113</ele>
        <time>2019-04-14T09:19:50Z</time>
      </trkpt>
      <trkpt lat="44.44659" lon="1.35598">
        <ele>113</ele>
        <time>2019-04-14T09:19:51Z</time>
      </trkpt>
      <trkpt lat="44.44656" lon="1.35598">
        <ele>113</ele>
        <time>2019-04-14T09:19:52Z</time>
      </trkpt>
      <trkpt lat="44.44653" lon="1.35596">
        <ele>113</ele>
        <time>2019-04-14T09:19:53Z</time>
      </trkpt>
      <trkpt lat="44.4465" lon="1.35595">
        <ele>113</ele>
        <time>2019-04-14T09:19:54Z</time>
      </trkpt>
      <trkpt lat="44.44649" lon="1.35595">
        <ele>113</ele>
        <time>2019-04-14T09:19:55Z</time>
      </trkpt>
      <trkpt lat="44.44646" lon="1.35596">
        <ele>113</ele>
        <time>2019-04-14T09:19:56Z</time>
      </trkpt>
      <trkpt lat="44.44643" lon="1.35596">
        <ele>113</ele>
        <time>2019-04-14T09:19:57Z</time>
      </trkpt>
      <trkpt lat="44.4464" lon="1.35595">
        <ele>113</ele>
        <time>2019-04-14T09:19:58Z</time>
      </trkpt>
      <trkpt lat="44.44637" lon="1.35594">
        <ele>113</ele>
        <time>2019-04-14T09:19:59Z</time>
      </trkpt>
      <trkpt lat="44.44634" lon="1.35594">
        <ele>113</ele>
        <time>2019-04-14T09:20:00Z</time>
      </trkpt>
      <trkpt lat="44.44631" lon="1.35594">
        <ele>113</ele>
        <time>2019-04-14T09:20:01Z</time>
      </trkpt>
      <trkpt lat="44.44627" lon="1.35594">
        <ele>113</ele>
        <time>2019-04-14T09:20:02Z</time>
      </trkpt>
      <trkpt lat="44.44624" lon="1.35593">
        <ele>113</ele>
        <time>2019-04-14T09:20:03Z</time>
      </trkpt>
      <trkpt lat="44.4462" lon="1.35592">
        <ele>113</ele>
        <time>2019-04-14T09:20:04Z</time>
      </trkpt>
      <trkpt lat="44.44616" lon="1.35591">
        <ele>113</ele>
        <time>2019-04-14T09:20:05Z</time>
      </trkpt>
      <trkpt lat="44.44613" lon="1.3559">
        <ele>113</ele>
        <time>2019-04-14T09:20:06Z</time>
      </trkpt>
      <trkpt lat="44.44609" lon="1.3559">
        <ele>113</ele>
        <time>2019-04-14T09:20:07Z</time>
      </trkpt>
      <trkpt lat="44.44606" lon="1.35589">
        <ele>113</ele>
        <time>2019-04-14T09:20:08Z</time>
      </trkpt>
      <trkpt lat="44.44603" lon="1.35586">
        <ele>113</ele>
        <time>2019-04-14T09:20:09Z</time>
      </trkpt>
      <trkpt lat="44.446" lon="1.35583">
        <ele>113</ele>
        <time>2019-04-14T09:20:10Z</time>
      </trkpt>
      <trkpt lat="44.44596" lon="1.35581">
        <ele>113</ele>
        <time>2019-04-14T09:20:11Z</time>
      </trkpt>
      <trkpt lat="44.44593" lon="1.3558">
        <ele>112</ele>
        <time>2019-04-14T09:20:12Z</time>
      </trkpt>
      <trkpt lat="44.4459" lon="1.35579">
        <ele>113</ele>
        <time>2019-04-14T09:20:13Z</time>
      </trkpt>
      <trkpt lat="44.44589" lon="1.3558">
        <ele>113</ele>
        <time>2019-04-14T09:20:14Z</time>
      </trkpt>
      <trkpt lat="44.44587" lon="1.3558">
        <ele>113</ele>
        <time>2019-04-14T09:20:15Z</time>
      </trkpt>
      <trkpt lat="44.44586" lon="1.3558">
        <ele>113</ele>
        <time>2019-04-14T09:20:16Z</time>
      </trkpt>
      <trkpt lat="44.44585" lon="1.35581">
        <ele>113</ele>
        <time>2019-04-14T09:20:17Z</time>
      </trkpt>
      <trkpt lat="44.44585" lon="1.35582">
        <ele>114</ele>
        <time>2019-04-14T09:20:18Z</time>
      </trkpt>
      <trkpt lat="44.44583" lon="1.35582">
        <ele>113</ele>
        <time>2019-04-14T09:20:19Z</time>
      </trkpt>
      <trkpt lat="44.44581" lon="1.35581">
        <ele>113</ele>
        <time>2019-04-14T09:20:20Z</time>
      </trkpt>
      <trkpt lat="44.44579" lon="1.35578">
        <ele>113</ele>
        <time>2019-04-14T09:20:21Z</time>
      </trkpt>
      <trkpt lat="44.44576" lon="1.35577">
        <ele>112</ele>
        <time>2019-04-14T09:20:22Z</time>
      </trkpt>
      <trkpt lat="44.44573" lon="1.35576">
        <ele>112</ele>
        <time>2019-04-14T09:20:23Z</time>
      </trkpt>
      <trkpt lat="44.4457" lon="1.35575">
        <ele>112</ele>
        <time>2019-04-14T09:20:24Z</time>
      </trkpt>
      <trkpt lat="44.44568" lon="1.35574">
        <ele>112</ele>
        <time>2019-04-14T09:20:25Z</time>
      </trkpt>
      <trkpt lat="44.44565" lon="1.35574">
        <ele>112</ele>
        <time>2019-04-14T09:20:26Z</time>
      </trkpt>
      <trkpt lat="44.44563" lon="1.35575">
        <ele>112</ele>
        <time>2019-04-14T09:20:27Z</time>
      </trkpt>
      <trkpt lat="44.4456" lon="1.35574">
        <ele>112</ele>
        <time>2019-04-14T09:20:28Z</time>
      </trkpt>
      <trkpt lat="44.44558" lon="1.35574">
        <ele>112</ele>
        <time>2019-04-14T09:20:29Z</time>
      </trkpt>
      <trkpt lat="44.44555" lon="1.35575">
        <ele>112</ele>
        <time>2019-04-14T09:20:30Z</time>
      </trkpt>
      <trkpt lat="44.44553" lon="1.35574">
        <ele>112</ele>
        <time>2019-04-14T09:20:31Z</time>
      </trkpt>
      <trkpt lat="44.4455" lon="1.35573">
        <ele>113</ele>
        <time>2019-04-14T09:20:32Z</time>
      </trkpt>
      <trkpt lat="44.44547" lon="1.3557">
        <ele>113</ele>
        <time>2019-04-14T09:20:33Z</time>
      </trkpt>
      <trkpt lat="44.44544" lon="1.35568">
        <ele>113</ele>
        <time>2019-04-14T09:20:34Z</time>
      </trkpt>
      <trkpt lat="44.44541" lon="1.35565">
        <ele>112</ele>
        <time>2019-04-14T09:20:35Z</time>
      </trkpt>
      <trkpt lat="44.44538" lon="1.35561">
        <ele>112</ele>
        <time>2019-04-14T09:20:36Z</time>
      </trkpt>
      <trkpt lat="44.44534" lon="1.35561">
        <ele>112</ele>
        <time>2019-04-14T09:20:37Z</time>
      </trkpt>
      <trkpt lat="44.44531" lon="1.35562">
        <ele>113</ele>
        <time>2019-04-14T09:20:38Z</time>
      </trkpt>
      <trkpt lat="44.44528" lon="1.35561">
        <ele>113</ele>
        <time>2019-04-14T09:20:39Z</time>
      </trkpt>
      <trkpt lat="44.44525" lon="1.3556">
        <ele>113</ele>
        <time>2019-04-14T09:20:40Z</time>
      </trkpt>
      <trkpt lat="44.44522" lon="1.35558">
        <ele>113</ele>
        <time>2019-04-14T09:20:41Z</time>
      </trkpt>
      <trkpt lat="44.44519" lon="1.35556">
        <ele>113</ele>
        <time>2019-04-14T09:20:42Z</time>
      </trkpt>
      <trkpt lat="44.44517" lon="1.35555">
        <ele>114</ele>
        <time>2019-04-14T09:20:43Z</time>
      </trkpt>
      <trkpt lat="44.44514" lon="1.35554">
        <ele>114</ele>
        <time>2019-04-14T09:20:44Z</time>
      </trkpt>
      <trkpt lat="44.44512" lon="1.35552">
        <ele>114</ele>
        <time>2019-04-14T09:20:45Z</time>
      </trkpt>
      <trkpt lat="44.44508" lon="1.35552">
        <ele>114</ele>
        <time>2019-04-14T09:20:46Z</time>
      </trkpt>
      <trkpt lat="44.44506" lon="1.35551">
        <ele>114</ele>
        <time>2019-04-14T09:20:47Z</time>
      </trkpt>
      <trkpt lat="44.44504" lon="1.3555">
        <ele>114</ele>
        <time>2019-04-14T09:20:48Z</time>
      </trkpt>
      <trkpt lat="44.44502" lon="1.35548">
        <ele>114</ele>
        <time>2019-04-14T09:20:49Z</time>
      </trkpt>
      <trkpt lat="44.44499" lon="1.35547">
        <ele>114</ele>
        <time>2019-04-14T09:20:50Z</time>
      </trkpt>
      <trkpt lat="44.44496" lon="1.35545">
        <ele>114</ele>
        <time>2019-04-14T09:20:51Z</time>
      </trkpt>
      <trkpt lat="44.44493" lon="1.35542">
        <ele>114</ele>
        <time>2019-04-14T09:20:52Z</time>
      </trkpt>
      <trkpt lat="44.44489" lon="1.35541">
        <ele>114</ele>
        <time>2019-04-14T09:20:53Z</time>
      </trkpt>
      <trkpt lat="44.44485" lon="1.3554">
        <ele>113</ele>
        <time>2019-04-14T09:20:54Z</time>
      </trkpt>
      <trkpt lat="44.44482" lon="1.35538">
        <ele>114</ele>
        <time>2019-04-14T09:20:55Z</time>
      </trkpt>
      <trkpt lat="44.4448" lon="1.35536">
        <ele>114</ele>
        <time>2019-04-14T09:20:56Z</time>
      </trkpt>
      <trkpt lat="44.44478" lon="1.35535">
        <ele>113</ele>
        <time>2019-04-14T09:20:57Z</time>
      </trkpt>
      <trkpt lat="44.44474" lon="1.35533">
        <ele>113</ele>
        <time>2019-04-14T09:20:58Z</time>
      </trkpt>
      <trkpt lat="44.44471" lon="1.3553">
        <ele>113</ele>
        <time>2019-04-14T09:20:59Z</time>
      </trkpt>
      <trkpt lat="44.44469" lon="1.3553">
        <ele>114</ele>
        <time>2019-04-14T09:21:00Z</time>
      </trkpt>
      <trkpt lat="44.44466" lon="1.3553">
        <ele>114</ele>
        <time>2019-04-14T09:21:01Z</time>
      </trkpt>
      <trkpt lat="44.44465" lon="1.35528">
        <ele>115</ele>
        <time>2019-04-14T09:21:02Z</time>
      </trkpt>
      <trkpt lat="44.44463" lon="1.3553">
        <ele>115</ele>
        <time>2019-04-14T09:21:03Z</time>
      </trkpt>
      <trkpt lat="44.44462" lon="1.35532">
        <ele>116</ele>
        <time>2019-04-14T09:21:04Z</time>
      </trkpt>
      <trkpt lat="44.4446" lon="1.35531">
        <ele>116</ele>
        <time>2019-04-14T09:21:05Z</time>
      </trkpt>
      <trkpt lat="44.44457" lon="1.35531">
        <ele>116</ele>
        <time>2019-04-14T09:21:06Z</time>
      </trkpt>
      <trkpt lat="44.44455" lon="1.35529">
        <ele>116</ele>
        <time>2019-04-14T09:21:07Z</time>
      </trkpt>
      <trkpt lat="44.44452" lon="1.35528">
        <ele>116</ele>
        <time>2019-04-14T09:21:08Z</time>
      </trkpt>
      <trkpt lat="44.44449" lon="1.35527">
        <ele>115</ele>
        <time>2019-04-14T09:21:09Z</time>
      </trkpt>
      <trkpt lat="44.44448" lon="1.35525">
        <ele>115</ele>
        <time>2019-04-14T09:21:10Z</time>
      </trkpt>
      <trkpt lat="44.44447" lon="1.35524">
        <ele>115</ele>
        <time>2019-04-14T09:21:11Z</time>
      </trkpt>
      <trkpt lat="44.44445" lon="1.35524">
        <ele>115</ele>
        <time>2019-04-14T09:21:12Z</time>
      </trkpt>
      <trkpt lat="44.44445" lon="1.35524">
        <ele>115</ele>
        <time>2019-04-14T09:21:13Z</time>
      </trkpt>
      <trkpt lat="44.44444" lon="1.35524">
        <ele>115</ele>
        <time>2019-04-14T09:21:14Z</time>
      </trkpt>
      <trkpt lat="44.44443" lon="1.35524">
        <ele>115</ele>
        <time>2019-04-14T09:21:15Z</time>
      </trkpt>
      <trkpt lat="44.44443" lon="1.35525">
        <ele>115</ele>
        <time>2019-04-14T09:21:16Z</time>
      </trkpt>
      <trkpt lat="44.44442" lon="1.35525">
        <ele>115</ele>
        <time>2019-04-14T09:21:17Z</time>
      </trkpt>
      <trkpt lat="44.44442" lon="1.35525">
        <ele>115</ele>
        <time>2019-04-14T09:21:18Z</time>
      </trkpt>
      <trkpt lat="44.44441" lon="1.35525">
        <ele>115</ele>
        <time>2019-04-14T09:21:19Z</time>
      </trkpt>
      <trkpt lat="44.44441" lon="1.35525">
        <ele>115</ele>
        <time>2019-04-14T09:21:20Z</time>
      </trkpt>
      <trkpt lat="44.44441" lon="1.35526">
        <ele>115</ele>
        <time>2019-04-14T09:21:21Z</time>
      </trkpt>
      <trkpt lat="44.44441" lon="1.35526">
        <ele>115</ele>
        <time>2019-04-14T09:21:22Z</time>
      </trkpt>
      <trkpt lat="44.44441" lon="1.35526">
        <ele>115</ele>
        <time>2019-04-14T09:21:23Z</time>
      </trkpt>
      <trkpt lat="44.44427" lon="1.35532">
        <ele>119</ele>
        <time>2019-04-14T09:21:36Z</time>
      </trkpt>
      <trkpt lat="44.44425" lon="1.35534">
        <ele>120</ele>
        <time>2019-04-14T09:21:37Z</time>
      </trkpt>
      <trkpt lat="44.44424" lon="1.35533">
        <ele>120</ele>
        <time>2019-04-14T09:21:38Z</time>
      </trkpt>
      <trkpt lat="44.44423" lon="1.35534">
        <ele>120</ele>
        <time>2019-04-14T09:21:39Z</time>
      </trkpt>
      <trkpt lat="44.44422" lon="1.35534">
        <ele>120</ele>
        <time>2019-04-14T09:21:40Z</time>
      </trkpt>
      <trkpt lat="44.44422" lon="1.35534">
        <ele>120</ele>
        <time>2019-04-14T09:21:41Z</time>
      </trkpt>
      <trkpt lat="44.44422" lon="1.35534">
        <ele>120</ele>
        <time>2019-04-14T09:21:42Z</time>
      </trkpt>
      <trkpt lat="44.44422" lon="1.35534">
        <ele>120</ele>
        <time>2019-04-14T09:21:43Z</time>
      </trkpt>
      <trkpt lat="44.44422" lon="1.35534">
        <ele>120</ele>
        <time>2019-04-14T09:21:44Z</time>
      </trkpt>
      <trkpt lat="44.44422" lon="1.35534">
        <ele>120</ele>
        <time>2019-04-14T09:21:45Z</time>
      </trkpt>
      <trkpt lat="44.44422" lon="1.35534">
        <ele>120</ele>
        <time>2019-04-14T09:21:46Z</time>
      </trkpt>
      <trkpt lat="44.44399" lon="1.35524">
        <ele>119</ele>
        <time>2019-04-14T09:22:06Z</time>
      </trkpt>
      <trkpt lat="44.44397" lon="1.35522">
        <ele>119</ele>
        <time>2019-04-14T09:22:07Z</time>
      </trkpt>
      <trkpt lat="44.44395" lon="1.35521">
        <ele>119</ele>
        <time>2019-04-14T09:22:08Z</time>
      </trkpt>
      <trkpt lat="44.44392" lon="1.3552">
        <ele>119</ele>
        <time>2019-04-14T09:22:09Z</time>
      </trkpt>
      <trkpt lat="44.44391" lon="1.35519">
        <ele>119</ele>
        <time>2019-04-14T09:22:10Z</time>
      </trkpt>
      <trkpt lat="44.44388" lon="1.35518">
        <ele>119</ele>
        <time>2019-04-14T09:22:11Z</time>
      </trkpt>
      <trkpt lat="44.44386" lon="1.35517">
        <ele>119</ele>
        <time>2019-04-14T09:22:12Z</time>
      </trkpt>
      <trkpt lat="44.44384" lon="1.35516">
        <ele>119</ele>
        <time>2019-04-14T09:22:13Z</time>
      </trkpt>
      <trkpt lat="44.44382" lon="1.35515">
        <ele>119</ele>
        <time>2019-04-14T09:22:14Z</time>
      </trkpt>
      <trkpt lat="44.44381" lon="1.35514">
        <ele>119</ele>
        <time>2019-04-14T09:22:15Z</time>
      </trkpt>
      <trkpt lat="44.44381" lon="1.3551">
        <ele>119</ele>
        <time>2019-04-14T09:22:16Z</time>
      </trkpt>
      <trkpt lat="44.44377" lon="1.35512">
        <ele>118</ele>
        <time>2019-04-14T09:22:17Z</time>
      </trkpt>
      <trkpt lat="44.44374" lon="1.35512">
        <ele>118</ele>
        <time>2019-04-14T09:22:18Z</time>
      </trkpt>
      <trkpt lat="44.44372" lon="1.35512">
        <ele>119</ele>
        <time>2019-04-14T09:22:19Z</time>
      </trkpt>
      <trkpt lat="44.4437" lon="1.35512">
        <ele>119</ele>
        <time>2019-04-14T09:22:20Z</time>
      </trkpt>
      <trkpt lat="44.44368" lon="1.35514">
        <ele>119</ele>
        <time>2019-04-14T09:22:21Z</time>
      </trkpt>
      <trkpt lat="44.44366" lon="1.35514">
        <ele>120</ele>
        <time>2019-04-14T09:22:22Z</time>
      </trkpt>
      <trkpt lat="44.44364" lon="1.35513">
        <ele>120</ele>
        <time>2019-04-14T09:22:23Z</time>
      </trkpt>
      <trkpt lat="44.44362" lon="1.35511">
        <ele>120</ele>
        <time>2019-04-14T09:22:24Z</time>
      </trkpt>
      <trkpt lat="44.4436" lon="1.35509">
        <ele>119</ele>
        <time>2019-04-14T09:22:25Z</time>
      </trkpt>
      <trkpt lat="44.44358" lon="1.35507">
        <ele>119</ele>
        <time>2019-04-14T09:22:26Z</time>
      </trkpt>
      <trkpt lat="44.44356" lon="1.35504">
        <ele>118</ele>
        <time>2019-04-14T09:22:27Z</time>
      </trkpt>
      <trkpt lat="44.44353" lon="1.35503">
        <ele>118</ele>
        <time>2019-04-14T09:22:28Z</time>
      </trkpt>
      <trkpt lat="44.4435" lon="1.35503">
        <ele>118</ele>
        <time>2019-04-14T09:22:29Z</time>
      </trkpt>
      <trkpt lat="44.44346" lon="1.35502">
        <ele>118</ele>
        <time>2019-04-14T09:22:30Z</time>
      </trkpt>
      <trkpt lat="44.44343" lon="1.35501">
        <ele>118</ele>
        <time>2019-04-14T09:22:31Z</time>
      </trkpt>
      <trkpt lat="44.44341" lon="1.35501">
        <ele>118</ele>
        <time>2019-04-14T09:22:32Z</time>
      </trkpt>
      <trkpt lat="44.44338" lon="1.355">
        <ele>118</ele>
        <time>2019-04-14T09:22:33Z</time>
      </trkpt>
      <trkpt lat="44.44335" lon="1.35499">
        <ele>118</ele>
        <time>2019-04-14T09:22:34Z</time>
      </trkpt>
      <trkpt lat="44.44333" lon="1.35499">
        <ele>119</ele>
        <time>2019-04-14T09:22:35Z</time>
      </trkpt>
      <trkpt lat="44.44331" lon="1.35499">
        <ele>119</ele>
        <time>2019-04-14T09:22:36Z</time>
      </trkpt>
      <trkpt lat="44.44329" lon="1.35497">
        <ele>118</ele>
        <time>2019-04-14T09:22:37Z</time>
      </trkpt>
      <trkpt lat="44.44326" lon="1.35497">
        <ele>118</ele>
        <time>2019-04-14T09:22:38Z</time>
      </trkpt>
      <trkpt lat="44.44323" lon="1.35496">
        <ele>118</ele>
        <time>2019-04-14T09:22:39Z</time>
      </trkpt>
      <trkpt lat="44.4432" lon="1.35495">
        <ele>118</ele>
        <time>2019-04-14T09:22:40Z</time>
      </trkpt>
      <trkpt lat="44.44317" lon="1.35493">
        <ele>118</ele>
        <time>2019-04-14T09:22:41Z</time>
      </trkpt>
      <trkpt lat="44.44315" lon="1.35492">
        <ele>118</ele>
        <time>2019-04-14T09:22:42Z</time>
      </trkpt>
      <trkpt lat="44.44312" lon="1.35489">
        <ele>118</ele>
        <time>2019-04-14T09:22:43Z</time>
      </trkpt>
      <trkpt lat="44.44309" lon="1.35486">
        <ele>118</ele>
        <time>2019-04-14T09:22:44Z</time>
      </trkpt>
      <trkpt lat="44.44306" lon="1.35486">
        <ele>118</ele>
        <time>2019-04-14T09:22:45Z</time>
      </trkpt>
      <trkpt lat="44.44304" lon="1.35486">
        <ele>118</ele>
        <time>2019-04-14T09:22:46Z</time>
      </trkpt>
      <trkpt lat="44.44301" lon="1.35485">
        <ele>117</ele>
        <time>2019-04-14T09:22:47Z</time>
      </trkpt>
      <trkpt lat="44.44298" lon="1.35484">
        <ele>117</ele>
        <time>2019-04-14T09:22:48Z</time>
      </trkpt>
      <trkpt lat="44.44295" lon="1.35484">
        <ele>118</ele>
        <time>2019-04-14T09:22:49Z</time>
      </trkpt>
      <trkpt lat="44.44293" lon="1.35484">
        <ele>118</ele>
        <time>2019-04-14T09:22:50Z</time>
      </trkpt>
      <trkpt lat="44.4429" lon="1.35485">
        <ele>118</ele>
        <time>2019-04-14T09:22:51Z</time>
      </trkpt>
      <trkpt lat="44.44287" lon="1.35485">
        <ele>119</ele>
        <time>2019-04-14T09:22:52Z</time>
      </trkpt>
      <trkpt lat="44.44285" lon="1.35486">
        <ele>119</ele>
        <time>2019-04-14T09:22:54Z</time>
      </trkpt>
      <trkpt lat="44.4428" lon="1.35484">
        <ele>119</ele>
        <time>2019-04-14T09:22:55Z</time>
      </trkpt>
      <trkpt lat="44.44277" lon="1.35483">
        <ele>119</ele>
        <time>2019-04-14T09:22:56Z</time>
      </trkpt>
      <trkpt lat="44.44274" lon="1.35482">
        <ele>119</ele>
        <time>2019-04-14T09:22:57Z</time>
      </trkpt>
      <trkpt lat="44.44271" lon="1.3548">
        <ele>119</ele>
        <time>2019-04-14T09:22:58Z</time>
      </trkpt>
      <trkpt lat="44.44269" lon="1.35478">
        <ele>119</ele>
        <time>2019-04-14T09:22:59Z</time>
      </trkpt>
      <trkpt lat="44.44266" lon="1.35475">
        <ele>118</ele>
        <time>2019-04-14T09:23:00Z</time>
      </trkpt>
      <trkpt lat="44.44264" lon="1.35474">
        <ele>118</ele>
        <time>2019-04-14T09:23:01Z</time>
      </trkpt>
      <trkpt lat="44.4426" lon="1.35471">
        <ele>118</ele>
        <time>2019-04-14T09:23:02Z</time>
      </trkpt>
      <trkpt lat="44.44256" lon="1.3547">
        <ele>118</ele>
        <time>2019-04-14T09:23:03Z</time>
      </trkpt>
      <trkpt lat="44.44253" lon="1.3547">
        <ele>118</ele>
        <time>2019-04-14T09:23:04Z</time>
      </trkpt>
      <trkpt lat="44.4425" lon="1.35469">
        <ele>118</ele>
        <time>2019-04-14T09:23:05Z</time>
      </trkpt>
      <trkpt lat="44.44247" lon="1.35467">
        <ele>118</ele>
        <time>2019-04-14T09:23:06Z</time>
      </trkpt>
      <trkpt lat="44.44244" lon="1.35467">
        <ele>118</ele>
        <time>2019-04-14T09:23:07Z</time>
      </trkpt>
      <trkpt lat="44.44242" lon="1.35466">
        <ele>118</ele>
        <time>2019-04-14T09:23:08Z</time>
      </trkpt>
      <trkpt lat="44.4424" lon="1.35466">
        <ele>118</ele>
        <time>2019-04-14T09:23:09Z</time>
      </trkpt>
      <trkpt lat="44.44238" lon="1.35466">
        <ele>119</ele>
        <time>2019-04-14T09:23:10Z</time>
      </trkpt>
      <trkpt lat="44.44236" lon="1.35468">
        <ele>119</ele>
        <time>2019-04-14T09:23:11Z</time>
      </trkpt>
      <trkpt lat="44.44233" lon="1.35469">
        <ele>119</ele>
        <time>2019-04-14T09:23:13Z</time>
      </trkpt>
      <trkpt lat="44.44228" lon="1.35466">
        <ele>119</ele>
        <time>2019-04-14T09:23:14Z</time>
      </trkpt>
      <trkpt lat="44.44225" lon="1.35465">
        <ele>119</ele>
        <time>2019-04-14T09:23:15Z</time>
      </trkpt>
      <trkpt lat="44.44222" lon="1.35465">
        <ele>120</ele>
        <time>2019-04-14T09:23:16Z</time>
      </trkpt>
      <trkpt lat="44.44219" lon="1.35465">
        <ele>120</ele>
        <time>2019-04-14T09:23:17Z</time>
      </trkpt>
      <trkpt lat="44.44217" lon="1.35464">
        <ele>120</ele>
        <time>2019-04-14T09:23:18Z</time>
      </trkpt>
      <trkpt lat="44.44214" lon="1.35464">
        <ele>120</ele>
        <time>2019-04-14T09:23:19Z</time>
      </trkpt>
      <trkpt lat="44.44211" lon="1.35462">
        <ele>120</ele>
        <time>2019-04-14T09:23:20Z</time>
      </trkpt>
      <trkpt lat="44.44209" lon="1.35461">
        <ele>120</ele>
        <time>2019-04-14T09:23:21Z</time>
      </trkpt>
      <trkpt lat="44.44206" lon="1.35459">
        <ele>120</ele>
        <time>2019-04-14T09:23:22Z</time>
      </trkpt>
      <trkpt lat="44.44203" lon="1.35458">
        <ele>120</ele>
        <time>2019-04-14T09:23:23Z</time>
      </trkpt>
      <trkpt lat="44.442" lon="1.35458">
        <ele>120</ele>
        <time>2019-04-14T09:23:24Z</time>
      </trkpt>
      <trkpt lat="44.44197" lon="1.35458">
        <ele>120</ele>
        <time>2019-04-14T09:23:25Z</time>
      </trkpt>
      <trkpt lat="44.44195" lon="1.35457">
        <ele>121</ele>
        <time>2019-04-14T09:23:26Z</time>
      </trkpt>
      <trkpt lat="44.44192" lon="1.35456">
        <ele>121</ele>
        <time>2019-04-14T09:23:27Z</time>
      </trkpt>
      <trkpt lat="44.4419" lon="1.35456">
        <ele>121</ele>
        <time>2019-04-14T09:23:28Z</time>
      </trkpt>
      <trkpt lat="44.44188" lon="1.35455">
        <ele>121</ele>
        <time>2019-04-14T09:23:29Z</time>
      </trkpt>
      <trkpt lat="44.44186" lon="1.35454">
        <ele>121</ele>
        <time>2019-04-14T09:23:31Z</time>
      </trkpt>
      <trkpt lat="44.44183" lon="1.35449">
        <ele>120</ele>
        <time>2019-04-14T09:23:32Z</time>
      </trkpt>
      <trkpt lat="44.4418" lon="1.35447">
        <ele>120</ele>
        <time>2019-04-14T09:23:33Z</time>
      </trkpt>
      <trkpt lat="44.44178" lon="1.35445">
        <ele>120</ele>
        <time>2019-04-14T09:23:34Z</time>
      </trkpt>
      <trkpt lat="44.44175" lon="1.35443">
        <ele>120</ele>
        <time>2019-04-14T09:23:35Z</time>
      </trkpt>
      <trkpt lat="44.44171" lon="1.35441">
        <ele>120</ele>
        <time>2019-04-14T09:23:36Z</time>
      </trkpt>
      <trkpt lat="44.44168" lon="1.35439">
        <ele>121</ele>
        <time>2019-04-14T09:23:37Z</time>
      </trkpt>
      <trkpt lat="44.44164" lon="1.35438">
        <ele>121</ele>
        <time>2019-04-14T09:23:38Z</time>
      </trkpt>
      <trkpt lat="44.44161" lon="1.35437">
        <ele>121</ele>
        <time>2019-04-14T09:23:39Z</time>
      </trkpt>
      <trkpt lat="44.44158" lon="1.35438">
        <ele>121</ele>
        <time>2019-04-14T09:23:40Z</time>
      </trkpt>
      <trkpt lat="44.44156" lon="1.35439">
        <ele>121</ele>
        <time>2019-04-14T09:23:41Z</time>
      </trkpt>
      <trkpt lat="44.44153" lon="1.35438">
        <ele>121</ele>
        <time>2019-04-14T09:23:42Z</time>
      </trkpt>
      <trkpt lat="44.4415" lon="1.35437">
        <ele>121</ele>
        <time>2019-04-14T09:23:43Z</time>
      </trkpt>
      <trkpt lat="44.44149" lon="1.35436">
        <ele>121</ele>
        <time>2019-04-14T09:23:44Z</time>
      </trkpt>
      <trkpt lat="44.44147" lon="1.35433">
        <ele>121</ele>
        <time>2019-04-14T09:23:45Z</time>
      </trkpt>
      <trkpt lat="44.44147" lon="1.35431">
        <ele>121</ele>
        <time>2019-04-14T09:23:46Z</time>
      </trkpt>
      <trkpt lat="44.44146" lon="1.35429">
        <ele>121</ele>
        <time>2019-04-14T09:23:48Z</time>
      </trkpt>
      <trkpt lat="44.44142" lon="1.35425">
        <ele>120</ele>
        <time>2019-04-14T09:23:49Z</time>
      </trkpt>
      <trkpt lat="44.4414" lon="1.35425">
        <ele>120</ele>
        <time>2019-04-14T09:23:50Z</time>
      </trkpt>
      <trkpt lat="44.44137" lon="1.35425">
        <ele>120</ele>
        <time>2019-04-14T09:23:51Z</time>
      </trkpt>
      <trkpt lat="44.44135" lon="1.35423">
        <ele>120</ele>
        <time>2019-04-14T09:23:52Z</time>
      </trkpt>
      <trkpt lat="44.44133" lon="1.3542">
        <ele>120</ele>
        <time>2019-04-14T09:23:53Z</time>
      </trkpt>
      <trkpt lat="44.44132" lon="1.35418">
        <ele>120</ele>
        <time>2019-04-14T09:23:54Z</time>
      </trkpt>
      <trkpt lat="44.4413" lon="1.35417">
        <ele>120</ele>
        <time>2019-04-14T09:23:55Z</time>
      </trkpt>
      <trkpt lat="44.44128" lon="1.35416">
        <ele>120</ele>
        <time>2019-04-14T09:23:56Z</time>
      </trkpt>
      <trkpt lat="44.44126" lon="1.35413">
        <ele>121</ele>
        <time>2019-04-14T09:23:57Z</time>
      </trkpt>
      <trkpt lat="44.44123" lon="1.3541">
        <ele>121</ele>
        <time>2019-04-14T09:23:58Z</time>
      </trkpt>
      <trkpt lat="44.4412" lon="1.35407">
        <ele>121</ele>
        <time>2019-04-14T09:23:59Z</time>
      </trkpt>
      <trkpt lat="44.44117" lon="1.35405">
        <ele>121</ele>
        <time>2019-04-14T09:24:00Z</time>
      </trkpt>
      <trkpt lat="44.44116" lon="1.35403">
        <ele>121</ele>
        <time>2019-04-14T09:24:01Z</time>
      </trkpt>
      <trkpt lat="44.44115" lon="1.35402">
        <ele>121</ele>
        <time>2019-04-14T09:24:02Z</time>
      </trkpt>
      <trkpt lat="44.44113" lon="1.354">
        <ele>121</ele>
        <time>2019-04-14T09:24:03Z</time>
      </trkpt>
      <trkpt lat="44.44111" lon="1.35399">
        <ele>121</ele>
        <time>2019-04-14T09:24:04Z</time>
      </trkpt>
      <trkpt lat="44.44109" lon="1.35396">
        <ele>121</ele>
        <time>2019-04-14T09:24:05Z</time>
      </trkpt>
      <trkpt lat="44.44107" lon="1.35393">
        <ele>121</ele>
        <time>2019-04-14T09:24:07Z</time>
      </trkpt>
      <trkpt lat="44.44105" lon="1.3539">
        <ele>121</ele>
        <time>2019-04-14T09:24:08Z</time>
      </trkpt>
      <trkpt lat="44.44104" lon="1.35387">
        <ele>121</ele>
        <time>2019-04-14T09:24:09Z</time>
      </trkpt>
      <trkpt lat="44.44099" lon="1.35381">
        <ele>121</ele>
        <time>2019-04-14T09:24:10Z</time>
      </trkpt>
      <trkpt lat="44.44096" lon="1.3538">
        <ele>121</ele>
        <time>2019-04-14T09:24:11Z</time>
      </trkpt>
      <trkpt lat="44.44094" lon="1.35377">
        <ele>121</ele>
        <time>2019-04-14T09:24:12Z</time>
      </trkpt>
      <trkpt lat="44.44091" lon="1.35375">
        <ele>121</ele>
        <time>2019-04-14T09:24:13Z</time>
      </trkpt>
      <trkpt lat="44.44089" lon="1.35372">
        <ele>121</ele>
        <time>2019-04-14T09:24:14Z</time>
      </trkpt>
      <trkpt lat="44.44087" lon="1.3537">
        <ele>121</ele>
        <time>2019-04-14T09:24:15Z</time>
      </trkpt>
      <trkpt lat="44.44085" lon="1.35367">
        <ele>121</ele>
        <time>2019-04-14T09:24:16Z</time>
      </trkpt>
      <trkpt lat="44.44083" lon="1.35365">
        <ele>121</ele>
        <time>2019-04-14T09:24:17Z</time>
      </trkpt>
      <trkpt lat="44.44079" lon="1.35361">
        <ele>121</ele>
        <time>2019-04-14T09:24:18Z</time>
      </trkpt>
      <trkpt lat="44.44075" lon="1.35358">
        <ele>122</ele>
        <time>2019-04-14T09:24:19Z</time>
      </trkpt>
      <trkpt lat="44.44074" lon="1.35355">
        <ele>122</ele>
        <time>2019-04-14T09:24:20Z</time>
      </trkpt>
      <trkpt lat="44.44072" lon="1.35353">
        <ele>122</ele>
        <time>2019-04-14T09:24:22Z</time>
      </trkpt>
      <trkpt lat="44.4407" lon="1.35351">
        <ele>122</ele>
        <time>2019-04-14T09:24:23Z</time>
      </trkpt>
      <trkpt lat="44.44067" lon="1.35348">
        <ele>122</ele>
        <time>2019-04-14T09:24:24Z</time>
      </trkpt>
      <trkpt lat="44.44064" lon="1.35347">
        <ele>122</ele>
        <time>2019-04-14T09:24:25Z</time>
      </trkpt>
      <trkpt lat="44.44062" lon="1.35345">
        <ele>122</ele>
        <time>2019-04-14T09:24:26Z</time>
      </trkpt>
      <trkpt lat="44.44057" lon="1.35341">
        <ele>123</ele>
        <time>2019-04-14T09:24:27Z</time>
      </trkpt>
      <trkpt lat="44.44055" lon="1.35339">
        <ele>123</ele>
        <time>2019-04-14T09:24:28Z</time>
      </trkpt>
      <trkpt lat="44.44052" lon="1.35336">
        <ele>123</ele>
        <time>2019-04-14T09:24:29Z</time>
      </trkpt>
      <trkpt lat="44.4405" lon="1.35333">
        <ele>124</ele>
        <time>2019-04-14T09:24:30Z</time>
      </trkpt>
      <trkpt lat="44.44048" lon="1.3533">
        <ele>124</ele>
        <time>2019-04-14T09:24:31Z</time>
      </trkpt>
      <trkpt lat="44.44046" lon="1.35327">
        <ele>124</ele>
        <time>2019-04-14T09:24:32Z</time>
      </trkpt>
      <trkpt lat="44.44045" lon="1.35324">
        <ele>123</ele>
        <time>2019-04-14T09:24:33Z</time>
      </trkpt>
      <trkpt lat="44.44044" lon="1.35319">
        <ele>123</ele>
        <time>2019-04-14T09:24:34Z</time>
      </trkpt>
      <trkpt lat="44.44043" lon="1.35316">
        <ele>123</ele>
        <time>2019-04-14T09:24:35Z</time>
      </trkpt>
      <trkpt lat="44.44041" lon="1.35314">
        <ele>123</ele>
        <time>2019-04-14T09:24:36Z</time>
      </trkpt>
      <trkpt lat="44.44038" lon="1.35311">
        <ele>123</ele>
        <time>2019-04-14T09:24:37Z</time>
      </trkpt>
      <trkpt lat="44.44035" lon="1.35309">
        <ele>123</ele>
        <time>2019-04-14T09:24:38Z</time>
      </trkpt>
      <trkpt lat="44.44034" lon="1.35308">
        <ele>123</ele>
        <time>2019-04-14T09:24:39Z</time>
      </trkpt>
      <trkpt lat="44.44033" lon="1.35305">
        <ele>123</ele>
        <time>2019-04-14T09:24:40Z</time>
      </trkpt>
      <trkpt lat="44.44032" lon="1.35303">
        <ele>123</ele>
        <time>2019-04-14T09:24:41Z</time>
      </trkpt>
      <trkpt lat="44.44031" lon="1.35301">
        <ele>123</ele>
        <time>2019-04-14T09:24:42Z</time>
      </trkpt>
      <trkpt lat="44.44029" lon="1.35298">
        <ele>123</ele>
        <time>2019-04-14T09:24:43Z</time>
      </trkpt>
      <trkpt lat="44.44028" lon="1.35296">
        <ele>123</ele>
        <time>2019-04-14T09:24:44Z</time>
      </trkpt>
      <trkpt lat="44.44027" lon="1.35292">
        <ele>123</ele>
        <time>2019-04-14T09:24:45Z</time>
      </trkpt>
      <trkpt lat="44.44026" lon="1.35288">
        <ele>123</ele>
        <time>2019-04-14T09:24:46Z</time>
      </trkpt>
      <trkpt lat="44.44024" lon="1.35284">
        <ele>123</ele>
        <time>2019-04-14T09:24:47Z</time>
      </trkpt>
      <trkpt lat="44.44022" lon="1.3528">
        <ele>123</ele>
        <time>2019-04-14T09:24:49Z</time>
      </trkpt>
      <trkpt lat="44.44022" lon="1.35277">
        <ele>123</ele>
        <time>2019-04-14T09:24:50Z</time>
      </trkpt>
      <trkpt lat="44.44019" lon="1.35273">
        <ele>123</ele>
        <time>2019-04-14T09:24:51Z</time>
      </trkpt>
      <trkpt lat="44.44017" lon="1.35271">
        <ele>123</ele>
        <time>2019-04-14T09:24:52Z</time>
      </trkpt>
      <trkpt lat="44.44015" lon="1.35268">
        <ele>123</ele>
        <time>2019-04-14T09:24:53Z</time>
      </trkpt>
      <trkpt lat="44.44013" lon="1.35266">
        <ele>122</ele>
        <time>2019-04-14T09:24:54Z</time>
      </trkpt>
      <trkpt lat="44.44011" lon="1.35264">
        <ele>122</ele>
        <time>2019-04-14T09:24:55Z</time>
      </trkpt>
      <trkpt lat="44.4401" lon="1.35262">
        <ele>122</ele>
        <time>2019-04-14T09:24:56Z</time>
      </trkpt>
      <trkpt lat="44.44007" lon="1.35261">
        <ele>122</ele>
        <time>2019-04-14T09:24:57Z</time>
      </trkpt>
      <trkpt lat="44.44006" lon="1.35261">
        <ele>122</ele>
        <time>2019-04-14T09:24:58Z</time>
      </trkpt>
      <trkpt lat="44.44003" lon="1.35259">
        <ele>122</ele>
        <time>2019-04-14T09:24:59Z</time>
      </trkpt>
      <trkpt lat="44.44001" lon="1.35257">
        <ele>122</ele>
        <time>2019-04-14T09:25:00Z</time>
      </trkpt>
      <trkpt lat="44.43997" lon="1.35254">
        <ele>122</ele>
        <time>2019-04-14T09:25:01Z</time>
      </trkpt>
      <trkpt lat="44.43993" lon="1.35253">
        <ele>122</ele>
        <time>2019-04-14T09:25:02Z</time>
      </trkpt>
      <trkpt lat="44.43991" lon="1.35252">
        <ele>122</ele>
        <time>2019-04-14T09:25:03Z</time>
      </trkpt>
      <trkpt lat="44.43987" lon="1.35251">
        <ele>123</ele>
        <time>2019-04-14T09:25:04Z</time>
      </trkpt>
      <trkpt lat="44.43984" lon="1.3525">
        <ele>123</ele>
        <time>2019-04-14T09:25:06Z</time>
      </trkpt>
      <trkpt lat="44.43982" lon="1.35251">
        <ele>123</ele>
        <time>2019-04-14T09:25:07Z</time>
      </trkpt>
      <trkpt lat="44.43979" lon="1.35251">
        <ele>123</ele>
        <time>2019-04-14T09:25:08Z</time>
      </trkpt>
      <trkpt lat="44.43974" lon="1.35252">
        <ele>123</ele>
        <time>2019-04-14T09:25:09Z</time>
      </trkpt>
      <trkpt lat="44.43972" lon="1.35252">
        <ele>124</ele>
        <time>2019-04-14T09:25:10Z</time>
      </trkpt>
      <trkpt lat="44.43969" lon="1.35253">
        <ele>124</ele>
        <time>2019-04-14T09:25:11Z</time>
      </trkpt>
      <trkpt lat="44.43967" lon="1.35253">
        <ele>124</ele>
        <time>2019-04-14T09:25:12Z</time>
      </trkpt>
      <trkpt lat="44.43965" lon="1.35252">
        <ele>125</ele>
        <time>2019-04-14T09:25:13Z</time>
      </trkpt>
      <trkpt lat="44.43963" lon="1.35251">
        <ele>125</ele>
        <time>2019-04-14T09:25:14Z</time>
      </trkpt>
      <trkpt lat="44.4396" lon="1.35251">
        <ele>125</ele>
        <time>2019-04-14T09:25:15Z</time>
      </trkpt>
      <trkpt lat="44.43957" lon="1.35251">
        <ele>125</ele>
        <time>2019-04-14T09:25:16Z</time>
      </trkpt>
      <trkpt lat="44.43955" lon="1.35251">
        <ele>126</ele>
        <time>2019-04-14T09:25:17Z</time>
      </trkpt>
      <trkpt lat="44.43953" lon="1.35251">
        <ele>126</ele>
        <time>2019-04-14T09:25:18Z</time>
      </trkpt>
      <trkpt lat="44.43951" lon="1.35252">
        <ele>126</ele>
        <time>2019-04-14T09:25:19Z</time>
      </trkpt>
      <trkpt lat="44.43949" lon="1.35252">
        <ele>127</ele>
        <time>2019-04-14T09:25:20Z</time>
      </trkpt>
      <trkpt lat="44.43947" lon="1.35251">
        <ele>127</ele>
        <time>2019-04-14T09:25:21Z</time>
      </trkpt>
      <trkpt lat="44.43944" lon="1.3525">
        <ele>127</ele>
        <time>2019-04-14T09:25:22Z</time>
      </trkpt>
      <trkpt lat="44.43941" lon="1.35249">
        <ele>128</ele>
        <time>2019-04-14T09:25:23Z</time>
      </trkpt>
      <trkpt lat="44.43939" lon="1.35247">
        <ele>127</ele>
        <time>2019-04-14T09:25:25Z</time>
      </trkpt>
      <trkpt lat="44.43937" lon="1.35244">
        <ele>127</ele>
        <time>2019-04-14T09:25:26Z</time>
      </trkpt>
      <trkpt lat="44.43935" lon="1.35242">
        <ele>127</ele>
        <time>2019-04-14T09:25:27Z</time>
      </trkpt>
      <trkpt lat="44.43932" lon="1.3524">
        <ele>127</ele>
        <time>2019-04-14T09:25:28Z</time>
      </trkpt>
      <trkpt lat="44.43929" lon="1.35239">
        <ele>127</ele>
        <time>2019-04-14T09:25:29Z</time>
      </trkpt>
      <trkpt lat="44.43926" lon="1.35239">
        <ele>128</ele>
        <time>2019-04-14T09:25:30Z</time>
      </trkpt>
      <trkpt lat="44.43924" lon="1.35239">
        <ele>128</ele>
        <time>2019-04-14T09:25:31Z</time>
      </trkpt>
      <trkpt lat="44.43919" lon="1.35239">
        <ele>129</ele>
        <time>2019-04-14T09:25:32Z</time>
      </trkpt>
      <trkpt lat="44.43917" lon="1.35239">
        <ele>129</ele>
        <time>2019-04-14T09:25:33Z</time>
      </trkpt>
      <trkpt lat="44.43914" lon="1.35238">
        <ele>129</ele>
        <time>2019-04-14T09:25:34Z</time>
      </trkpt>
      <trkpt lat="44.43911" lon="1.35238">
        <ele>129</ele>
        <time>2019-04-14T09:25:35Z</time>
      </trkpt>
      <trkpt lat="44.43909" lon="1.35236">
        <ele>128</ele>
        <time>2019-04-14T09:25:36Z</time>
      </trkpt>
      <trkpt lat="44.43906" lon="1.35234">
        <ele>128</ele>
        <time>2019-04-14T09:25:37Z</time>
      </trkpt>
      <trkpt lat="44.43902" lon="1.35232">
        <ele>128</ele>
        <time>2019-04-14T09:25:38Z</time>
      </trkpt>
      <trkpt lat="44.43899" lon="1.35229">
        <ele>128</ele>
        <time>2019-04-14T09:25:39Z</time>
      </trkpt>
      <trkpt lat="44.43895" lon="1.35228">
        <ele>128</ele>
        <time>2019-04-14T09:25:40Z</time>
      </trkpt>
      <trkpt lat="44.43892" lon="1.35227">
        <ele>128</ele>
        <time>2019-04-14T09:25:41Z</time>
      </trkpt>
      <trkpt lat="44.4389" lon="1.35226">
        <ele>128</ele>
        <time>2019-04-14T09:25:42Z</time>
      </trkpt>
      <trkpt lat="44.43886" lon="1.35225">
        <ele>128</ele>
        <time>2019-04-14T09:25:43Z</time>
      </trkpt>
      <trkpt lat="44.43883" lon="1.35225">
        <ele>128</ele>
        <time>2019-04-14T09:25:44Z</time>
      </trkpt>
      <trkpt lat="44.4388" lon="1.35225">
        <ele>128</ele>
        <time>2019-04-14T09:25:45Z</time>
      </trkpt>
      <trkpt lat="44.43878" lon="1.35224">
        <ele>128</ele>
        <time>2019-04-14T09:25:46Z</time>
      </trkpt>
      <trkpt lat="44.43875" lon="1.35224">
        <ele>128</ele>
        <time>2019-04-14T09:25:48Z</time>
      </trkpt>
      <trkpt lat="44.43872" lon="1.35224">
        <ele>128</ele>
        <time>2019-04-14T09:25:49Z</time>
      </trkpt>
      <trkpt lat="44.4387" lon="1.35222">
        <ele>128</ele>
        <time>2019-04-14T09:25:50Z</time>
      </trkpt>
      <trkpt lat="44.43868" lon="1.35222">
        <ele>128</ele>
        <time>2019-04-14T09:25:51Z</time>
      </trkpt>
      <trkpt lat="44.43866" lon="1.35221">
        <ele>129</ele>
        <time>2019-04-14T09:25:52Z</time>
      </trkpt>
      <trkpt lat="44.43863" lon="1.3522">
        <ele>129</ele>
        <time>2019-04-14T09:25:53Z</time>
      </trkpt>
      <trkpt lat="44.4386" lon="1.35219">
        <ele>129</ele>
        <time>2019-04-14T09:25:54Z</time>
      </trkpt>
      <trkpt lat="44.43859" lon="1.35219">
        <ele>129</ele>
        <time>2019-04-14T09:25:55Z</time>
      </trkpt>
      <trkpt lat="44.43859" lon="1.3522">
        <ele>129</ele>
        <time>2019-04-14T09:25:56Z</time>
      </trkpt>
      <trkpt lat="44.43857" lon="1.35219">
        <ele>129</ele>
        <time>2019-04-14T09:25:57Z</time>
      </trkpt>
      <trkpt lat="44.43854" lon="1.35218">
        <ele>130</ele>
        <time>2019-04-14T09:25:58Z</time>
      </trkpt>
      <trkpt lat="44.43852" lon="1.35217">
        <ele>130</ele>
        <time>2019-04-14T09:25:59Z</time>
      </trkpt>
      <trkpt lat="44.43849" lon="1.35216">
        <ele>130</ele>
        <time>2019-04-14T09:26:00Z</time>
      </trkpt>
      <trkpt lat="44.43846" lon="1.35214">
        <ele>130</ele>
        <time>2019-04-14T09:26:01Z</time>
      </trkpt>
      <trkpt lat="44.43843" lon="1.35212">
        <ele>130</ele>
        <time>2019-04-14T09:26:02Z</time>
      </trkpt>
      <trkpt lat="44.4384" lon="1.35209">
        <ele>130</ele>
        <time>2019-04-14T09:26:03Z</time>
      </trkpt>
      <trkpt lat="44.43837" lon="1.35208">
        <ele>130</ele>
        <time>2019-04-14T09:26:04Z</time>
      </trkpt>
      <trkpt lat="44.43834" lon="1.35209">
        <ele>130</ele>
        <time>2019-04-14T09:26:05Z</time>
      </trkpt>
      <trkpt lat="44.43831" lon="1.35209">
        <ele>130</ele>
        <time>2019-04-14T09:26:06Z</time>
      </trkpt>
      <trkpt lat="44.43828" lon="1.35209">
        <ele>130</ele>
        <time>2019-04-14T09:26:07Z</time>
      </trkpt>
      <trkpt lat="44.43826" lon="1.35209">
        <ele>130</ele>
        <time>2019-04-14T09:26:08Z</time>
      </trkpt>
      <trkpt lat="44.43823" lon="1.35209">
        <ele>130</ele>
        <time>2019-04-14T09:26:09Z</time>
      </trkpt>
      <trkpt lat="44.4382" lon="1.35208">
        <ele>130</ele>
        <time>2019-04-14T09:26:10Z</time>
      </trkpt>
      <trkpt lat="44.43817" lon="1.35206">
        <ele>130</ele>
        <time>2019-04-14T09:26:11Z</time>
      </trkpt>
      <trkpt lat="44.43814" lon="1.35205">
        <ele>130</ele>
        <time>2019-04-14T09:26:12Z</time>
      </trkpt>
      <trkpt lat="44.43811" lon="1.35204">
        <ele>130</ele>
        <time>2019-04-14T09:26:13Z</time>
      </trkpt>
      <trkpt lat="44.43809" lon="1.35205">
        <ele>130</ele>
        <time>2019-04-14T09:26:15Z</time>
      </trkpt>
      <trkpt lat="44.43806" lon="1.35204">
        <ele>131</ele>
        <time>2019-04-14T09:26:16Z</time>
      </trkpt>
      <trkpt lat="44.43804" lon="1.35203">
        <ele>131</ele>
        <time>2019-04-14T09:26:17Z</time>
      </trkpt>
      <trkpt lat="44.43802" lon="1.35201">
        <ele>131</ele>
        <time>2019-04-14T09:26:18Z</time>
      </trkpt>
      <trkpt lat="44.43799" lon="1.35201">
        <ele>131</ele>
        <time>2019-04-14T09:26:19Z</time>
      </trkpt>
      <trkpt lat="44.43796" lon="1.352">
        <ele>131</ele>
        <time>2019-04-14T09:26:20Z</time>
      </trkpt>
      <trkpt lat="44.43792" lon="1.35199">
        <ele>131</ele>
        <time>2019-04-14T09:26:21Z</time>
      </trkpt>
      <trkpt lat="44.43789" lon="1.35198">
        <ele>131</ele>
        <time>2019-04-14T09:26:22Z</time>
      </trkpt>
      <trkpt lat="44.43782" lon="1.35194">
        <ele>131</ele>
        <time>2019-04-14T09:26:23Z</time>
      </trkpt>
      <trkpt lat="44.43778" lon="1.35192">
        <ele>131</ele>
        <time>2019-04-14T09:26:24Z</time>
      </trkpt>
      <trkpt lat="44.43774" lon="1.35191">
        <ele>131</ele>
        <time>2019-04-14T09:26:25Z</time>
      </trkpt>
      <trkpt lat="44.4377" lon="1.35189">
        <ele>131</ele>
        <time>2019-04-14T09:26:26Z</time>
      </trkpt>
      <trkpt lat="44.43767" lon="1.35188">
        <ele>131</ele>
        <time>2019-04-14T09:26:27Z</time>
      </trkpt>
      <trkpt lat="44.43764" lon="1.35186">
        <ele>132</ele>
        <time>2019-04-14T09:26:28Z</time>
      </trkpt>
      <trkpt lat="44.4376" lon="1.35185">
        <ele>132</ele>
        <time>2019-04-14T09:26:29Z</time>
      </trkpt>
      <trkpt lat="44.43756" lon="1.35184">
        <ele>132</ele>
        <time>2019-04-14T09:26:31Z</time>
      </trkpt>
      <trkpt lat="44.43753" lon="1.35182">
        <ele>132</ele>
        <time>2019-04-14T09:26:32Z</time>
      </trkpt>
      <trkpt lat="44.43749" lon="1.35181">
        <ele>132</ele>
        <time>2019-04-14T09:26:33Z</time>
      </trkpt>
      <trkpt lat="44.43744" lon="1.3518">
        <ele>132</ele>
        <time>2019-04-14T09:26:34Z</time>
      </trkpt>
      <trkpt lat="44.4374" lon="1.35178">
        <ele>132</ele>
        <time>2019-04-14T09:26:35Z</time>
      </trkpt>
      <trkpt lat="44.43736" lon="1.35177">
        <ele>132</ele>
        <time>2019-04-14T09:26:36Z</time>
      </trkpt>
      <trkpt lat="44.43732" lon="1.35176">
        <ele>132</ele>
        <time>2019-04-14T09:26:37Z</time>
      </trkpt>
      <trkpt lat="44.43728" lon="1.35175">
        <ele>132</ele>
        <time>2019-04-14T09:26:38Z</time>
      </trkpt>
      <trkpt lat="44.43725" lon="1.35175">
        <ele>132</ele>
        <time>2019-04-14T09:26:39Z</time>
      </trkpt>
      <trkpt lat="44.43721" lon="1.35175">
        <ele>132</ele>
        <time>2019-04-14T09:26:40Z</time>
      </trkpt>
      <trkpt lat="44.43717" lon="1.35173">
        <ele>132</ele>
        <time>2019-04-14T09:26:41Z</time>
      </trkpt>
      <trkpt lat="44.43714" lon="1.35173">
        <ele>132</ele>
        <time>2019-04-14T09:26:42Z</time>
      </trkpt>
      <trkpt lat="44.4371" lon="1.35171">
        <ele>132</ele>
        <time>2019-04-14T09:26:43Z</time>
      </trkpt>
      <trkpt lat="44.43706" lon="1.3517">
        <ele>132</ele>
        <time>2019-04-14T09:26:44Z</time>
      </trkpt>
      <trkpt lat="44.43701" lon="1.35169">
        <ele>132</ele>
        <time>2019-04-14T09:26:45Z</time>
      </trkpt>
      <trkpt lat="44.43698" lon="1.35169">
        <ele>132</ele>
        <time>2019-04-14T09:26:46Z</time>
      </trkpt>
      <trkpt lat="44.43694" lon="1.35168">
        <ele>132</ele>
        <time>2019-04-14T09:26:47Z</time>
      </trkpt>
      <trkpt lat="44.43691" lon="1.35167">
        <ele>132</ele>
        <time>2019-04-14T09:26:48Z</time>
      </trkpt>
      <trkpt lat="44.43688" lon="1.35166">
        <ele>132</ele>
        <time>2019-04-14T09:26:49Z</time>
      </trkpt>
      <trkpt lat="44.43686" lon="1.35165">
        <ele>132</ele>
        <time>2019-04-14T09:26:50Z</time>
      </trkpt>
      <trkpt lat="44.43683" lon="1.35163">
        <ele>132</ele>
        <time>2019-04-14T09:26:51Z</time>
      </trkpt>
      <trkpt lat="44.43677" lon="1.35161">
        <ele>132</ele>
        <time>2019-04-14T09:26:52Z</time>
      </trkpt>
      <trkpt lat="44.43674" lon="1.35162">
        <ele>132</ele>
        <time>2019-04-14T09:26:53Z</time>
      </trkpt>
      <trkpt lat="44.43671" lon="1.35161">
        <ele>132</ele>
        <time>2019-04-14T09:26:54Z</time>
      </trkpt>
      <trkpt lat="44.43667" lon="1.35161">
        <ele>132</ele>
        <time>2019-04-14T09:26:55Z</time>
      </trkpt>
      <trkpt lat="44.43664" lon="1.3516">
        <ele>132</ele>
        <time>2019-04-14T09:26:56Z</time>
      </trkpt>
      <trkpt lat="44.43661" lon="1.3516">
        <ele>132</ele>
        <time>2019-04-14T09:26:57Z</time>
      </trkpt>
      <trkpt lat="44.43657" lon="1.3516">
        <ele>132</ele>
        <time>2019-04-14T09:26:58Z</time>
      </trkpt>
      <trkpt lat="44.43654" lon="1.3516">
        <ele>132</ele>
        <time>2019-04-14T09:26:59Z</time>
      </trkpt>
      <trkpt lat="44.4365" lon="1.3516">
        <ele>133</ele>
        <time>2019-04-14T09:27:00Z</time>
      </trkpt>
      <trkpt lat="44.43647" lon="1.35159">
        <ele>133</ele>
        <time>2019-04-14T09:27:01Z</time>
      </trkpt>
      <trkpt lat="44.43643" lon="1.3516">
        <ele>133</ele>
        <time>2019-04-14T09:27:02Z</time>
      </trkpt>
      <trkpt lat="44.43641" lon="1.35159">
        <ele>133</ele>
        <time>2019-04-14T09:27:03Z</time>
      </trkpt>
      <trkpt lat="44.43638" lon="1.35159">
        <ele>133</ele>
        <time>2019-04-14T09:27:05Z</time>
      </trkpt>
      <trkpt lat="44.43636" lon="1.35159">
        <ele>133</ele>
        <time>2019-04-14T09:27:06Z</time>
      </trkpt>
      <trkpt lat="44.43632" lon="1.35159">
        <ele>134</ele>
        <time>2019-04-14T09:27:07Z</time>
      </trkpt>
      <trkpt lat="44.43628" lon="1.35158">
        <ele>134</ele>
        <time>2019-04-14T09:27:08Z</time>
      </trkpt>
      <trkpt lat="44.43625" lon="1.35158">
        <ele>134</ele>
        <time>2019-04-14T09:27:09Z</time>
      </trkpt>
      <trkpt lat="44.43623" lon="1.35156">
        <ele>135</ele>
        <time>2019-04-14T09:27:10Z</time>
      </trkpt>
      <trkpt lat="44.43619" lon="1.35156">
        <ele>135</ele>
        <time>2019-04-14T09:27:11Z</time>
      </trkpt>
      <trkpt lat="44.43616" lon="1.35155">
        <ele>135</ele>
        <time>2019-04-14T09:27:12Z</time>
      </trkpt>
      <trkpt lat="44.43614" lon="1.35154">
        <ele>135</ele>
        <time>2019-04-14T09:27:13Z</time>
      </trkpt>
      <trkpt lat="44.43612" lon="1.35154">
        <ele>135</ele>
        <time>2019-04-14T09:27:14Z</time>
      </trkpt>
      <trkpt lat="44.43608" lon="1.35152">
        <ele>134</ele>
        <time>2019-04-14T09:27:15Z</time>
      </trkpt>
      <trkpt lat="44.43606" lon="1.35149">
        <ele>134</ele>
        <time>2019-04-14T09:27:16Z</time>
      </trkpt>
      <trkpt lat="44.43604" lon="1.35146">
        <ele>134</ele>
        <time>2019-04-14T09:27:17Z</time>
      </trkpt>
      <trkpt lat="44.436" lon="1.35142">
        <ele>133</ele>
        <time>2019-04-14T09:27:19Z</time>
      </trkpt>
      <trkpt lat="44.43596" lon="1.3514">
        <ele>133</ele>
        <time>2019-04-14T09:27:20Z</time>
      </trkpt>
      <trkpt lat="44.43593" lon="1.35137">
        <ele>133</ele>
        <time>2019-04-14T09:27:21Z</time>
      </trkpt>
      <trkpt lat="44.4359" lon="1.35134">
        <ele>133</ele>
        <time>2019-04-14T09:27:22Z</time>
      </trkpt>
      <trkpt lat="44.43587" lon="1.35132">
        <ele>133</ele>
        <time>2019-04-14T09:27:23Z</time>
      </trkpt>
      <trkpt lat="44.43584" lon="1.35129">
        <ele>133</ele>
        <time>2019-04-14T09:27:24Z</time>
      </trkpt>
      <trkpt lat="44.43581" lon="1.35127">
        <ele>133</ele>
        <time>2019-04-14T09:27:25Z</time>
      </trkpt>
      <trkpt lat="44.43579" lon="1.35125">
        <ele>133</ele>
        <time>2019-04-14T09:27:26Z</time>
      </trkpt>
      <trkpt lat="44.43576" lon="1.35123">
        <ele>133</ele>
        <time>2019-04-14T09:27:27Z</time>
      </trkpt>
      <trkpt lat="44.43575" lon="1.35119">
        <ele>133</ele>
        <time>2019-04-14T09:27:28Z</time>
      </trkpt>
      <trkpt lat="44.43573" lon="1.35117">
        <ele>133</ele>
        <time>2019-04-14T09:27:29Z</time>
      </trkpt>
      <trkpt lat="44.4357" lon="1.35115">
        <ele>133</ele>
        <time>2019-04-14T09:27:30Z</time>
      </trkpt>
      <trkpt lat="44.43568" lon="1.35113">
        <ele>134</ele>
        <time>2019-04-14T09:27:31Z</time>
      </trkpt>
      <trkpt lat="44.43566" lon="1.35112">
        <ele>134</ele>
        <time>2019-04-14T09:27:32Z</time>
      </trkpt>
      <trkpt lat="44.43561" lon="1.35108">
        <ele>134</ele>
        <time>2019-04-14T09:27:33Z</time>
      </trkpt>
      <trkpt lat="44.43558" lon="1.35105">
        <ele>134</ele>
        <time>2019-04-14T09:27:34Z</time>
      </trkpt>
      <trkpt lat="44.43555" lon="1.35103">
        <ele>134</ele>
        <time>2019-04-14T09:27:35Z</time>
      </trkpt>
      <trkpt lat="44.43552" lon="1.35101">
        <ele>134</ele>
        <time>2019-04-14T09:27:36Z</time>
      </trkpt>
      <trkpt lat="44.43549" lon="1.35099">
        <ele>134</ele>
        <time>2019-04-14T09:27:38Z</time>
      </trkpt>
      <trkpt lat="44.43546" lon="1.35096">
        <ele>134</ele>
        <time>2019-04-14T09:27:39Z</time>
      </trkpt>
      <trkpt lat="44.43543" lon="1.35092">
        <ele>134</ele>
        <time>2019-04-14T09:27:40Z</time>
      </trkpt>
      <trkpt lat="44.4354" lon="1.35089">
        <ele>134</ele>
        <time>2019-04-14T09:27:41Z</time>
      </trkpt>
      <trkpt lat="44.43536" lon="1.35086">
        <ele>134</ele>
        <time>2019-04-14T09:27:42Z</time>
      </trkpt>
      <trkpt lat="44.43533" lon="1.35084">
        <ele>134</ele>
        <time>2019-04-14T09:27:43Z</time>
      </trkpt>
      <trkpt lat="44.4353" lon="1.35085">
        <ele>134</ele>
        <time>2019-04-14T09:27:44Z</time>
      </trkpt>
      <trkpt lat="44.43529" lon="1.35084">
        <ele>134</ele>
        <time>2019-04-14T09:27:45Z</time>
      </trkpt>
      <trkpt lat="44.43527" lon="1.35082">
        <ele>134</ele>
        <time>2019-04-14T09:27:46Z</time>
      </trkpt>
      <trkpt lat="44.43522" lon="1.35078">
        <ele>134</ele>
        <time>2019-04-14T09:27:47Z</time>
      </trkpt>
      <trkpt lat="44.43519" lon="1.35075">
        <ele>134</ele>
        <time>2019-04-14T09:27:48Z</time>
      </trkpt>
      <trkpt lat="44.43515" lon="1.35071">
        <ele>134</ele>
        <time>2019-04-14T09:27:49Z</time>
      </trkpt>
      <trkpt lat="44.43512" lon="1.35067">
        <ele>134</ele>
        <time>2019-04-14T09:27:50Z</time>
      </trkpt>
      <trkpt lat="44.43509" lon="1.35064">
        <ele>134</ele>
        <time>2019-04-14T09:27:51Z</time>
      </trkpt>
      <trkpt lat="44.43507" lon="1.35061">
        <ele>134</ele>
        <time>2019-04-14T09:27:52Z</time>
      </trkpt>
      <trkpt lat="44.43504" lon="1.35058">
        <ele>134</ele>
        <time>2019-04-14T09:27:53Z</time>
      </trkpt>
      <trkpt lat="44.435" lon="1.35057">
        <ele>134</ele>
        <time>2019-04-14T09:27:54Z</time>
      </trkpt>
      <trkpt lat="44.43495" lon="1.35055">
        <ele>134</ele>
        <time>2019-04-14T09:27:55Z</time>
      </trkpt>
      <trkpt lat="44.43491" lon="1.35052">
        <ele>134</ele>
        <time>2019-04-14T09:27:56Z</time>
      </trkpt>
      <trkpt lat="44.43485" lon="1.35049">
        <ele>134</ele>
        <time>2019-04-14T09:27:57Z</time>
      </trkpt>
      <trkpt lat="44.4348" lon="1.35046">
        <ele>134</ele>
        <time>2019-04-14T09:27:59Z</time>
      </trkpt>
      <trkpt lat="44.43477" lon="1.35044">
        <ele>134</ele>
        <time>2019-04-14T09:28:00Z</time>
      </trkpt>
      <trkpt lat="44.43475" lon="1.35042">
        <ele>134</ele>
        <time>2019-04-14T09:28:01Z</time>
      </trkpt>
      <trkpt lat="44.43471" lon="1.3504">
        <ele>134</ele>
        <time>2019-04-14T09:28:02Z</time>
      </trkpt>
      <trkpt lat="44.43467" lon="1.35039">
        <ele>135</ele>
        <time>2019-04-14T09:28:03Z</time>
      </trkpt>
      <trkpt lat="44.43464" lon="1.35039">
        <ele>135</ele>
        <time>2019-04-14T09:28:04Z</time>
      </trkpt>
      <trkpt lat="44.4346" lon="1.35039">
        <ele>135</ele>
        <time>2019-04-14T09:28:05Z</time>
      </trkpt>
      <trkpt lat="44.43456" lon="1.35038">
        <ele>135</ele>
        <time>2019-04-14T09:28:06Z</time>
      </trkpt>
      <trkpt lat="44.43452" lon="1.35038">
        <ele>135</ele>
        <time>2019-04-14T09:28:07Z</time>
      </trkpt>
      <trkpt lat="44.43449" lon="1.35038">
        <ele>136</ele>
        <time>2019-04-14T09:28:08Z</time>
      </trkpt>
      <trkpt lat="44.43447" lon="1.35038">
        <ele>136</ele>
        <time>2019-04-14T09:28:09Z</time>
      </trkpt>
      <trkpt lat="44.43445" lon="1.35037">
        <ele>136</ele>
        <time>2019-04-14T09:28:10Z</time>
      </trkpt>
      <trkpt lat="44.43442" lon="1.35038">
        <ele>136</ele>
        <time>2019-04-14T09:28:11Z</time>
      </trkpt>
      <trkpt lat="44.43439" lon="1.35038">
        <ele>136</ele>
        <time>2019-04-14T09:28:12Z</time>
      </trkpt>
      <trkpt lat="44.43435" lon="1.35038">
        <ele>136</ele>
        <time>2019-04-14T09:28:13Z</time>
      </trkpt>
      <trkpt lat="44.43431" lon="1.35038">
        <ele>136</ele>
        <time>2019-04-14T09:28:14Z</time>
      </trkpt>
      <trkpt lat="44.43428" lon="1.3504">
        <ele>136</ele>
        <time>2019-04-14T09:28:15Z</time>
      </trkpt>
      <trkpt lat="44.43425" lon="1.3504">
        <ele>136</ele>
        <time>2019-04-14T09:28:16Z</time>
      </trkpt>
      <trkpt lat="44.43421" lon="1.35041">
        <ele>136</ele>
        <time>2019-04-14T09:28:17Z</time>
      </trkpt>
      <trkpt lat="44.43417" lon="1.35042">
        <ele>136</ele>
        <time>2019-04-14T09:28:18Z</time>
      </trkpt>
      <trkpt lat="44.43414" lon="1.35042">
        <ele>136</ele>
        <time>2019-04-14T09:28:19Z</time>
      </trkpt>
      <trkpt lat="44.4341" lon="1.35043">
        <ele>136</ele>
        <time>2019-04-14T09:28:20Z</time>
      </trkpt>
      <trkpt lat="44.43407" lon="1.35044">
        <ele>137</ele>
        <time>2019-04-14T09:28:21Z</time>
      </trkpt>
      <trkpt lat="44.43403" lon="1.35043">
        <ele>137</ele>
        <time>2019-04-14T09:28:22Z</time>
      </trkpt>
      <trkpt lat="44.434" lon="1.35044">
        <ele>137</ele>
        <time>2019-04-14T09:28:23Z</time>
      </trkpt>
      <trkpt lat="44.43397" lon="1.35045">
        <ele>137</ele>
        <time>2019-04-14T09:28:24Z</time>
      </trkpt>
      <trkpt lat="44.43393" lon="1.35047">
        <ele>137</ele>
        <time>2019-04-14T09:28:25Z</time>
      </trkpt>
      <trkpt lat="44.43389" lon="1.35047">
        <ele>137</ele>
        <time>2019-04-14T09:28:26Z</time>
      </trkpt>
      <trkpt lat="44.43385" lon="1.35048">
        <ele>137</ele>
        <time>2019-04-14T09:28:27Z</time>
      </trkpt>
      <trkpt lat="44.43377" lon="1.35049">
        <ele>137</ele>
        <time>2019-04-14T09:28:28Z</time>
      </trkpt>
      <trkpt lat="44.43373" lon="1.35049">
        <ele>137</ele>
        <time>2019-04-14T09:28:29Z</time>
      </trkpt>
      <trkpt lat="44.43368" lon="1.35049">
        <ele>136</ele>
        <time>2019-04-14T09:28:30Z</time>
      </trkpt>
      <trkpt lat="44.43365" lon="1.35051">
        <ele>136</ele>
        <time>2019-04-14T09:28:31Z</time>
      </trkpt>
      <trkpt lat="44.43361" lon="1.35051">
        <ele>136</ele>
        <time>2019-04-14T09:28:32Z</time>
      </trkpt>
      <trkpt lat="44.43358" lon="1.35053">
        <ele>137</ele>
        <time>2019-04-14T09:28:33Z</time>
      </trkpt>
      <trkpt lat="44.43354" lon="1.35054">
        <ele>137</ele>
        <time>2019-04-14T09:28:34Z</time>
      </trkpt>
      <trkpt lat="44.43351" lon="1.35055">
        <ele>137</ele>
        <time>2019-04-14T09:28:36Z</time>
      </trkpt>
      <trkpt lat="44.43348" lon="1.35057">
        <ele>137</ele>
        <time>2019-04-14T09:28:37Z</time>
      </trkpt>
      <trkpt lat="44.43346" lon="1.3506">
        <ele>137</ele>
        <time>2019-04-14T09:28:38Z</time>
      </trkpt>
      <trkpt lat="44.43346" lon="1.35064">
        <ele>137</ele>
        <time>2019-04-14T09:28:39Z</time>
      </trkpt>
      <trkpt lat="44.43344" lon="1.35066">
        <ele>137</ele>
        <time>2019-04-14T09:28:40Z</time>
      </trkpt>
      <trkpt lat="44.43342" lon="1.35067">
        <ele>137</ele>
        <time>2019-04-14T09:28:41Z</time>
      </trkpt>
      <trkpt lat="44.4334" lon="1.35068">
        <ele>137</ele>
        <time>2019-04-14T09:28:42Z</time>
      </trkpt>
      <trkpt lat="44.43337" lon="1.35069">
        <ele>137</ele>
        <time>2019-04-14T09:28:43Z</time>
      </trkpt>
      <trkpt lat="44.43335" lon="1.35072">
        <ele>137</ele>
        <time>2019-04-14T09:28:44Z</time>
      </trkpt>
      <trkpt lat="44.43333" lon="1.35075">
        <ele>138</ele>
        <time>2019-04-14T09:28:45Z</time>
      </trkpt>
      <trkpt lat="44.4333" lon="1.35078">
        <ele>138</ele>
        <time>2019-04-14T09:28:46Z</time>
      </trkpt>
      <trkpt lat="44.43328" lon="1.35078">
        <ele>138</ele>
        <time>2019-04-14T09:28:47Z</time>
      </trkpt>
      <trkpt lat="44.43325" lon="1.35078">
        <ele>137</ele>
        <time>2019-04-14T09:28:48Z</time>
      </trkpt>
      <trkpt lat="44.43322" lon="1.35078">
        <ele>137</ele>
        <time>2019-04-14T09:28:49Z</time>
      </trkpt>
      <trkpt lat="44.43319" lon="1.35076">
        <ele>137</ele>
        <time>2019-04-14T09:28:50Z</time>
      </trkpt>
      <trkpt lat="44.43315" lon="1.35074">
        <ele>137</ele>
        <time>2019-04-14T09:28:51Z</time>
      </trkpt>
      <trkpt lat="44.43312" lon="1.35074">
        <ele>137</ele>
        <time>2019-04-14T09:28:52Z</time>
      </trkpt>
      <trkpt lat="44.43307" lon="1.35075">
        <ele>137</ele>
        <time>2019-04-14T09:28:53Z</time>
      </trkpt>
      <trkpt lat="44.43303" lon="1.35076">
        <ele>137</ele>
        <time>2019-04-14T09:28:54Z</time>
      </trkpt>
      <trkpt lat="44.433" lon="1.35078">
        <ele>137</ele>
        <time>2019-04-14T09:28:55Z</time>
      </trkpt>
      <trkpt lat="44.43296" lon="1.35079">
        <ele>138</ele>
        <time>2019-04-14T09:28:56Z</time>
      </trkpt>
      <trkpt lat="44.43293" lon="1.3508">
        <ele>138</ele>
        <time>2019-04-14T09:28:57Z</time>
      </trkpt>
      <trkpt lat="44.4329" lon="1.35081">
        <ele>138</ele>
        <time>2019-04-14T09:28:58Z</time>
      </trkpt>
      <trkpt lat="44.43287" lon="1.35083">
        <ele>138</ele>
        <time>2019-04-14T09:28:59Z</time>
      </trkpt>
      <trkpt lat="44.43284" lon="1.35084">
        <ele>138</ele>
        <time>2019-04-14T09:29:00Z</time>
      </trkpt>
      <trkpt lat="44.43281" lon="1.35084">
        <ele>139</ele>
        <time>2019-04-14T09:29:01Z</time>
      </trkpt>
      <trkpt lat="44.43279" lon="1.35082">
        <ele>138</ele>
        <time>2019-04-14T09:29:02Z</time>
      </trkpt>
      <trkpt lat="44.43277" lon="1.35077">
        <ele>138</ele>
        <time>2019-04-14T09:29:04Z</time>
      </trkpt>
      <trkpt lat="44.43277" lon="1.35075">
        <ele>138</ele>
        <time>2019-04-14T09:29:05Z</time>
      </trkpt>
      <trkpt lat="44.43278" lon="1.35072">
        <ele>138</ele>
        <time>2019-04-14T09:29:06Z</time>
      </trkpt>
      <trkpt lat="44.4328" lon="1.3507">
        <ele>138</ele>
        <time>2019-04-14T09:29:07Z</time>
      </trkpt>
      <trkpt lat="44.43281" lon="1.35068">
        <ele>138</ele>
        <time>2019-04-14T09:29:08Z</time>
      </trkpt>
      <trkpt lat="44.43281" lon="1.35067">
        <ele>138</ele>
        <time>2019-04-14T09:29:09Z</time>
      </trkpt>
      <trkpt lat="44.43281" lon="1.35067">
        <ele>138</ele>
        <time>2019-04-14T09:29:10Z</time>
      </trkpt>
      <trkpt lat="44.43281" lon="1.35067">
        <ele>138</ele>
        <time>2019-04-14T09:29:11Z</time>
      </trkpt>
      <trkpt lat="44.43281" lon="1.35067">
        <ele>138</ele>
        <time>2019-04-14T09:29:12Z</time>
      </trkpt>
      <trkpt lat="44.43281" lon="1.35067">
        <ele>138</ele>
        <time>2019-04-14T09:29:13Z</time>
      </trkpt>
      <trkpt lat="44.43281" lon="1.35067">
        <ele>138</ele>
        <time>2019-04-14T09:29:14Z</time>
      </trkpt>
      <trkpt lat="44.43281" lon="1.35067">
        <ele>138</ele>
        <time>2019-04-14T09:29:15Z</time>
      </trkpt>
      <trkpt lat="44.4328" lon="1.35067">
        <ele>138</ele>
        <time>2019-04-14T09:29:16Z</time>
      </trkpt>
      <trkpt lat="44.43265" lon="1.35056">
        <ele>140</ele>
        <time>2019-04-14T09:30:01Z</time>
      </trkpt>
      <trkpt lat="44.43264" lon="1.35057">
        <ele>141</ele>
        <time>2019-04-14T09:30:02Z</time>
      </trkpt>
      <trkpt lat="44.43262" lon="1.35057">
        <ele>141</ele>
        <time>2019-04-14T09:30:03Z</time>
      </trkpt>
      <trkpt lat="44.4326" lon="1.35058">
        <ele>141</ele>
        <time>2019-04-14T09:30:04Z</time>
      </trkpt>
      <trkpt lat="44.43259" lon="1.35059">
        <ele>141</ele>
        <time>2019-04-14T09:30:05Z</time>
      </trkpt>
      <trkpt lat="44.43257" lon="1.35059">
        <ele>142</ele>
        <time>2019-04-14T09:30:06Z</time>
      </trkpt>
      <trkpt lat="44.43255" lon="1.3506">
        <ele>142</ele>
        <time>2019-04-14T09:30:07Z</time>
      </trkpt>
      <trkpt lat="44.43253" lon="1.3506">
        <ele>142</ele>
        <time>2019-04-14T09:30:08Z</time>
      </trkpt>
      <trkpt lat="44.43251" lon="1.35061">
        <ele>142</ele>
        <time>2019-04-14T09:30:09Z</time>
      </trkpt>
      <trkpt lat="44.43249" lon="1.35062">
        <ele>143</ele>
        <time>2019-04-14T09:30:10Z</time>
      </trkpt>
      <trkpt lat="44.43248" lon="1.35062">
        <ele>143</ele>
        <time>2019-04-14T09:30:11Z</time>
      </trkpt>
      <trkpt lat="44.43247" lon="1.35061">
        <ele>143</ele>
        <time>2019-04-14T09:30:12Z</time>
      </trkpt>
      <trkpt lat="44.43246" lon="1.35061">
        <ele>144</ele>
        <time>2019-04-14T09:30:13Z</time>
      </trkpt>
      <trkpt lat="44.43244" lon="1.35062">
        <ele>144</ele>
        <time>2019-04-14T09:30:14Z</time>
      </trkpt>
      <trkpt lat="44.43242" lon="1.35063">
        <ele>144</ele>
        <time>2019-04-14T09:30:15Z</time>
      </trkpt>
      <trkpt lat="44.4324" lon="1.35063">
        <ele>144</ele>
        <time>2019-04-14T09:30:16Z</time>
      </trkpt>
      <trkpt lat="44.43238" lon="1.35064">
        <ele>145</ele>
        <time>2019-04-14T09:30:17Z</time>
      </trkpt>
      <trkpt lat="44.43236" lon="1.35064">
        <ele>145</ele>
        <time>2019-04-14T09:30:18Z</time>
      </trkpt>
      <trkpt lat="44.43234" lon="1.35064">
        <ele>145</ele>
        <time>2019-04-14T09:30:19Z</time>
      </trkpt>
      <trkpt lat="44.43232" lon="1.35064">
        <ele>146</ele>
        <time>2019-04-14T09:30:20Z</time>
      </trkpt>
      <trkpt lat="44.4323" lon="1.35063">
        <ele>146</ele>
        <time>2019-04-14T09:30:21Z</time>
      </trkpt>
      <trkpt lat="44.43229" lon="1.35063">
        <ele>146</ele>
        <time>2019-04-14T09:30:22Z</time>
      </trkpt>
      <trkpt lat="44.43227" lon="1.35062">
        <ele>146</ele>
        <time>2019-04-14T09:30:23Z</time>
      </trkpt>
      <trkpt lat="44.43226" lon="1.35061">
        <ele>147</ele>
        <time>2019-04-14T09:30:24Z</time>
      </trkpt>
      <trkpt lat="44.43225" lon="1.35061">
        <ele>147</ele>
        <time>2019-04-14T09:30:25Z</time>
      </trkpt>
      <trkpt lat="44.43225" lon="1.3506">
        <ele>147</ele>
        <time>2019-04-14T09:30:26Z</time>
      </trkpt>
      <trkpt lat="44.43223" lon="1.35059">
        <ele>148</ele>
        <time>2019-04-14T09:30:27Z</time>
      </trkpt>
      <trkpt lat="44.43222" lon="1.35058">
        <ele>148</ele>
        <time>2019-04-14T09:30:28Z</time>
      </trkpt>
      <trkpt lat="44.43221" lon="1.35058">
        <ele>148</ele>
        <time>2019-04-14T09:30:29Z</time>
      </trkpt>
      <trkpt lat="44.4322" lon="1.35058">
        <ele>148</ele>
        <time>2019-04-14T09:30:30Z</time>
      </trkpt>
      <trkpt lat="44.43219" lon="1.35058">
        <ele>148</ele>
        <time>2019-04-14T09:30:31Z</time>
      </trkpt>
      <trkpt lat="44.43218" lon="1.35059">
        <ele>148</ele>
        <time>2019-04-14T09:30:32Z</time>
      </trkpt>
      <trkpt lat="44.43217" lon="1.35061">
        <ele>148</ele>
        <time>2019-04-14T09:30:33Z</time>
      </trkpt>
      <trkpt lat="44.43218" lon="1.35062">
        <ele>148</ele>
        <time>2019-04-14T09:30:34Z</time>
      </trkpt>
      <trkpt lat="44.43218" lon="1.35066">
        <ele>148</ele>
        <time>2019-04-14T09:30:35Z</time>
      </trkpt>
      <trkpt lat="44.43217" lon="1.35068">
        <ele>147</ele>
        <time>2019-04-14T09:30:36Z</time>
      </trkpt>
      <trkpt lat="44.43215" lon="1.35069">
        <ele>147</ele>
        <time>2019-04-14T09:30:37Z</time>
      </trkpt>
      <trkpt lat="44.43213" lon="1.3507">
        <ele>147</ele>
        <time>2019-04-14T09:30:38Z</time>
      </trkpt>
      <trkpt lat="44.4321" lon="1.35069">
        <ele>147</ele>
        <time>2019-04-14T09:30:39Z</time>
      </trkpt>
      <trkpt lat="44.43208" lon="1.3507">
        <ele>146</ele>
        <time>2019-04-14T09:30:41Z</time>
      </trkpt>
      <trkpt lat="44.43207" lon="1.35069">
        <ele>145</ele>
        <time>2019-04-14T09:30:42Z</time>
      </trkpt>
      <trkpt lat="44.43205" lon="1.35071">
        <ele>144</ele>
        <time>2019-04-14T09:30:43Z</time>
      </trkpt>
      <trkpt lat="44.43203" lon="1.35073">
        <ele>144</ele>
        <time>2019-04-14T09:30:44Z</time>
      </trkpt>
      <trkpt lat="44.43199" lon="1.35075">
        <ele>142</ele>
        <time>2019-04-14T09:30:45Z</time>
      </trkpt>
      <trkpt lat="44.43196" lon="1.35075">
        <ele>142</ele>
        <time>2019-04-14T09:30:46Z</time>
      </trkpt>
      <trkpt lat="44.43193" lon="1.35075">
        <ele>142</ele>
        <time>2019-04-14T09:30:47Z</time>
      </trkpt>
      <trkpt lat="44.43191" lon="1.35075">
        <ele>142</ele>
        <time>2019-04-14T09:30:48Z</time>
      </trkpt>
      <trkpt lat="44.43188" lon="1.35075">
        <ele>142</ele>
        <time>2019-04-14T09:30:49Z</time>
      </trkpt>
      <trkpt lat="44.43188" lon="1.35073">
        <ele>142</ele>
        <time>2019-04-14T09:30:50Z</time>
      </trkpt>
      <trkpt lat="44.43185" lon="1.35073">
        <ele>142</ele>
        <time>2019-04-14T09:30:51Z</time>
      </trkpt>
      <trkpt lat="44.43183" lon="1.35072">
        <ele>142</ele>
        <time>2019-04-14T09:30:52Z</time>
      </trkpt>
      <trkpt lat="44.43181" lon="1.35073">
        <ele>142</ele>
        <time>2019-04-14T09:30:53Z</time>
      </trkpt>
      <trkpt lat="44.4318" lon="1.35074">
        <ele>142</ele>
        <time>2019-04-14T09:30:54Z</time>
      </trkpt>
      <trkpt lat="44.4318" lon="1.35074">
        <ele>142</ele>
        <time>2019-04-14T09:30:55Z</time>
      </trkpt>
      <trkpt lat="44.4318" lon="1.35075">
        <ele>142</ele>
        <time>2019-04-14T09:30:56Z</time>
      </trkpt>
      <trkpt lat="44.4318" lon="1.35075">
        <ele>142</ele>
        <time>2019-04-14T09:30:57Z</time>
      </trkpt>
      <trkpt lat="44.43181" lon="1.35075">
        <ele>142</ele>
        <time>2019-04-14T09:30:58Z</time>
      </trkpt>
      <trkpt lat="44.43181" lon="1.35075">
        <ele>142</ele>
        <time>2019-04-14T09:30:59Z</time>
      </trkpt>
      <trkpt lat="44.43181" lon="1.35075">
        <ele>142</ele>
        <time>2019-04-14T09:31:00Z</time>
      </trkpt>
      <trkpt lat="44.43181" lon="1.35075">
        <ele>142</ele>
        <time>2019-04-14T09:31:01Z</time>
      </trkpt>
      <trkpt lat="44.43156" lon="1.35092">
        <ele>142</ele>
        <time>2019-04-14T09:32:14Z</time>
      </trkpt>
      <trkpt lat="44.43154" lon="1.35093">
        <ele>142</ele>
        <time>2019-04-14T09:32:15Z</time>
      </trkpt>
      <trkpt lat="44.43152" lon="1.35093">
        <ele>142</ele>
        <time>2019-04-14T09:32:16Z</time>
      </trkpt>
      <trkpt lat="44.4315" lon="1.35094">
        <ele>142</ele>
        <time>2019-04-14T09:32:17Z</time>
      </trkpt>
      <trkpt lat="44.43148" lon="1.35095">
        <ele>142</ele>
        <time>2019-04-14T09:32:18Z</time>
      </trkpt>
      <trkpt lat="44.43147" lon="1.35095">
        <ele>142</ele>
        <time>2019-04-14T09:32:19Z</time>
      </trkpt>
      <trkpt lat="44.43146" lon="1.35096">
        <ele>142</ele>
        <time>2019-04-14T09:32:20Z</time>
      </trkpt>
      <trkpt lat="44.43142" lon="1.35097">
        <ele>142</ele>
        <time>2019-04-14T09:32:21Z</time>
      </trkpt>
      <trkpt lat="44.4314" lon="1.35099">
        <ele>142</ele>
        <time>2019-04-14T09:32:22Z</time>
      </trkpt>
      <trkpt lat="44.43139" lon="1.35099">
        <ele>143</ele>
        <time>2019-04-14T09:32:23Z</time>
      </trkpt>
      <trkpt lat="44.43138" lon="1.35099">
        <ele>143</ele>
        <time>2019-04-14T09:32:24Z</time>
      </trkpt>
      <trkpt lat="44.43137" lon="1.351">
        <ele>143</ele>
        <time>2019-04-14T09:32:25Z</time>
      </trkpt>
      <trkpt lat="44.43135" lon="1.35101">
        <ele>143</ele>
        <time>2019-04-14T09:32:26Z</time>
      </trkpt>
      <trkpt lat="44.43134" lon="1.35101">
        <ele>144</ele>
        <time>2019-04-14T09:32:27Z</time>
      </trkpt>
      <trkpt lat="44.43132" lon="1.351">
        <ele>144</ele>
        <time>2019-04-14T09:32:28Z</time>
      </trkpt>
      <trkpt lat="44.43131" lon="1.35099">
        <ele>145</ele>
        <time>2019-04-14T09:32:29Z</time>
      </trkpt>
      <trkpt lat="44.43128" lon="1.351">
        <ele>145</ele>
        <time>2019-04-14T09:32:30Z</time>
      </trkpt>
      <trkpt lat="44.43126" lon="1.351">
        <ele>146</ele>
        <time>2019-04-14T09:32:32Z</time>
      </trkpt>
      <trkpt lat="44.43125" lon="1.35101">
        <ele>146</ele>
        <time>2019-04-14T09:32:33Z</time>
      </trkpt>
      <trkpt lat="44.43123" lon="1.35102">
        <ele>146</ele>
        <time>2019-04-14T09:32:34Z</time>
      </trkpt>
      <trkpt lat="44.43122" lon="1.35103">
        <ele>146</ele>
        <time>2019-04-14T09:32:35Z</time>
      </trkpt>
      <trkpt lat="44.4312" lon="1.35104">
        <ele>146</ele>
        <time>2019-04-14T09:32:36Z</time>
      </trkpt>
      <trkpt lat="44.43119" lon="1.35104">
        <ele>146</ele>
        <time>2019-04-14T09:32:37Z</time>
      </trkpt>
      <trkpt lat="44.43117" lon="1.35104">
        <ele>146</ele>
        <time>2019-04-14T09:32:38Z</time>
      </trkpt>
      <trkpt lat="44.43116" lon="1.35105">
        <ele>146</ele>
        <time>2019-04-14T09:32:39Z</time>
      </trkpt>
      <trkpt lat="44.43114" lon="1.35106">
        <ele>146</ele>
        <time>2019-04-14T09:32:40Z</time>
      </trkpt>
      <trkpt lat="44.43112" lon="1.35107">
        <ele>146</ele>
        <time>2019-04-14T09:32:41Z</time>
      </trkpt>
      <trkpt lat="44.43111" lon="1.35107">
        <ele>146</ele>
        <time>2019-04-14T09:32:42Z</time>
      </trkpt>
      <trkpt lat="44.43109" lon="1.35107">
        <ele>147</ele>
        <time>2019-04-14T09:32:43Z</time>
      </trkpt>
      <trkpt lat="44.43108" lon="1.35107">
        <ele>147</ele>
        <time>2019-04-14T09:32:44Z</time>
      </trkpt>
      <trkpt lat="44.43106" lon="1.35108">
        <ele>147</ele>
        <time>2019-04-14T09:32:45Z</time>
      </trkpt>
      <trkpt lat="44.43105" lon="1.35109">
        <ele>147</ele>
        <time>2019-04-14T09:32:46Z</time>
      </trkpt>
      <trkpt lat="44.43103" lon="1.3511">
        <ele>146</ele>
        <time>2019-04-14T09:32:47Z</time>
      </trkpt>
      <trkpt lat="44.43101" lon="1.35112">
        <ele>146</ele>
        <time>2019-04-14T09:32:48Z</time>
      </trkpt>
      <trkpt lat="44.43099" lon="1.35114">
        <ele>146</ele>
        <time>2019-04-14T09:32:49Z</time>
      </trkpt>
      <trkpt lat="44.43097" lon="1.35116">
        <ele>146</ele>
        <time>2019-04-14T09:32:50Z</time>
      </trkpt>
      <trkpt lat="44.43095" lon="1.35118">
        <ele>146</ele>
        <time>2019-04-14T09:32:51Z</time>
      </trkpt>
      <trkpt lat="44.43094" lon="1.35119">
        <ele>146</ele>
        <time>2019-04-14T09:32:52Z</time>
      </trkpt>
      <trkpt lat="44.43091" lon="1.35122">
        <ele>147</ele>
        <time>2019-04-14T09:32:53Z</time>
      </trkpt>
      <trkpt lat="44.43089" lon="1.35123">
        <ele>147</ele>
        <time>2019-04-14T09:32:54Z</time>
      </trkpt>
      <trkpt lat="44.43088" lon="1.35124">
        <ele>147</ele>
        <time>2019-04-14T09:32:55Z</time>
      </trkpt>
      <trkpt lat="44.43088" lon="1.35125">
        <ele>147</ele>
        <time>2019-04-14T09:32:56Z</time>
      </trkpt>
      <trkpt lat="44.43088" lon="1.35126">
        <ele>147</ele>
        <time>2019-04-14T09:32:57Z</time>
      </trkpt>
      <trkpt lat="44.43086" lon="1.35127">
        <ele>147</ele>
        <time>2019-04-14T09:32:58Z</time>
      </trkpt>
      <trkpt lat="44.43083" lon="1.3513">
        <ele>147</ele>
        <time>2019-04-14T09:32:59Z</time>
      </trkpt>
      <trkpt lat="44.4308" lon="1.35132">
        <ele>147</ele>
        <time>2019-04-14T09:33:00Z</time>
      </trkpt>
      <trkpt lat="44.43078" lon="1.35132">
        <ele>147</ele>
        <time>2019-04-14T09:33:01Z</time>
      </trkpt>
      <trkpt lat="44.43077" lon="1.35134">
        <ele>147</ele>
        <time>2019-04-14T09:33:02Z</time>
      </trkpt>
      <trkpt lat="44.43076" lon="1.35136">
        <ele>147</ele>
        <time>2019-04-14T09:33:03Z</time>
      </trkpt>
      <trkpt lat="44.43074" lon="1.35139">
        <ele>147</ele>
        <time>2019-04-14T09:33:04Z</time>
      </trkpt>
      <trkpt lat="44.43072" lon="1.35141">
        <ele>147</ele>
        <time>2019-04-14T09:33:05Z</time>
      </trkpt>
      <trkpt lat="44.43068" lon="1.35145">
        <ele>147</ele>
        <time>2019-04-14T09:33:06Z</time>
      </trkpt>
      <trkpt lat="44.43068" lon="1.35146">
        <ele>147</ele>
        <time>2019-04-14T09:33:07Z</time>
      </trkpt>
      <trkpt lat="44.43065" lon="1.35149">
        <ele>147</ele>
        <time>2019-04-14T09:33:09Z</time>
      </trkpt>
      <trkpt lat="44.43065" lon="1.3515">
        <ele>147</ele>
        <time>2019-04-14T09:33:10Z</time>
      </trkpt>
      <trkpt lat="44.43065" lon="1.3515">
        <ele>147</ele>
        <time>2019-04-14T09:33:11Z</time>
      </trkpt>
      <trkpt lat="44.43065" lon="1.3515">
        <ele>147</ele>
        <time>2019-04-14T09:33:12Z</time>
      </trkpt>
      <trkpt lat="44.43066" lon="1.3515">
        <ele>147</ele>
        <time>2019-04-14T09:33:14Z</time>
      </trkpt>
      <trkpt lat="44.43048" lon="1.35168">
        <ele>148</ele>
        <time>2019-04-14T09:33:32Z</time>
      </trkpt>
      <trkpt lat="44.43046" lon="1.35169">
        <ele>148</ele>
        <time>2019-04-14T09:33:34Z</time>
      </trkpt>
      <trkpt lat="44.43042" lon="1.35172">
        <ele>148</ele>
        <time>2019-04-14T09:33:35Z</time>
      </trkpt>
      <trkpt lat="44.4304" lon="1.35174">
        <ele>148</ele>
        <time>2019-04-14T09:33:36Z</time>
      </trkpt>
      <trkpt lat="44.4304" lon="1.35175">
        <ele>148</ele>
        <time>2019-04-14T09:33:37Z</time>
      </trkpt>
      <trkpt lat="44.43039" lon="1.35177">
        <ele>148</ele>
        <time>2019-04-14T09:33:38Z</time>
      </trkpt>
      <trkpt lat="44.43038" lon="1.35179">
        <ele>149</ele>
        <time>2019-04-14T09:33:39Z</time>
      </trkpt>
      <trkpt lat="44.43038" lon="1.3518">
        <ele>149</ele>
        <time>2019-04-14T09:33:40Z</time>
      </trkpt>
      <trkpt lat="44.43037" lon="1.35182">
        <ele>149</ele>
        <time>2019-04-14T09:33:41Z</time>
      </trkpt>
      <trkpt lat="44.43035" lon="1.35182">
        <ele>148</ele>
        <time>2019-04-14T09:33:42Z</time>
      </trkpt>
      <trkpt lat="44.43033" lon="1.3518">
        <ele>149</ele>
        <time>2019-04-14T09:33:43Z</time>
      </trkpt>
      <trkpt lat="44.43031" lon="1.35183">
        <ele>148</ele>
        <time>2019-04-14T09:33:44Z</time>
      </trkpt>
      <trkpt lat="44.4303" lon="1.35186">
        <ele>148</ele>
        <time>2019-04-14T09:33:45Z</time>
      </trkpt>
      <trkpt lat="44.43028" lon="1.35188">
        <ele>148</ele>
        <time>2019-04-14T09:33:47Z</time>
      </trkpt>
      <trkpt lat="44.43026" lon="1.35189">
        <ele>148</ele>
        <time>2019-04-14T09:33:48Z</time>
      </trkpt>
      <trkpt lat="44.43027" lon="1.35188">
        <ele>148</ele>
        <time>2019-04-14T09:33:49Z</time>
      </trkpt>
      <trkpt lat="44.43028" lon="1.3519">
        <ele>148</ele>
        <time>2019-04-14T09:33:50Z</time>
      </trkpt>
      <trkpt lat="44.43027" lon="1.35192">
        <ele>148</ele>
        <time>2019-04-14T09:33:51Z</time>
      </trkpt>
      <trkpt lat="44.43026" lon="1.35192">
        <ele>148</ele>
        <time>2019-04-14T09:33:53Z</time>
      </trkpt>
      <trkpt lat="44.43024" lon="1.35198">
        <ele>148</ele>
        <time>2019-04-14T09:33:54Z</time>
      </trkpt>
      <trkpt lat="44.43023" lon="1.352">
        <ele>148</ele>
        <time>2019-04-14T09:33:55Z</time>
      </trkpt>
      <trkpt lat="44.43021" lon="1.35203">
        <ele>148</ele>
        <time>2019-04-14T09:33:56Z</time>
      </trkpt>
      <trkpt lat="44.4302" lon="1.35204">
        <ele>148</ele>
        <time>2019-04-14T09:33:57Z</time>
      </trkpt>
      <trkpt lat="44.43019" lon="1.35206">
        <ele>148</ele>
        <time>2019-04-14T09:33:58Z</time>
      </trkpt>
      <trkpt lat="44.43019" lon="1.35205">
        <ele>148</ele>
        <time>2019-04-14T09:33:59Z</time>
      </trkpt>
      <trkpt lat="44.43017" lon="1.35207">
        <ele>148</ele>
        <time>2019-04-14T09:34:00Z</time>
      </trkpt>
      <trkpt lat="44.43015" lon="1.35208">
        <ele>148</ele>
        <time>2019-04-14T09:34:01Z</time>
      </trkpt>
      <trkpt lat="44.43014" lon="1.35209">
        <ele>149</ele>
        <time>2019-04-14T09:34:02Z</time>
      </trkpt>
      <trkpt lat="44.43013" lon="1.3521">
        <ele>149</ele>
        <time>2019-04-14T09:34:03Z</time>
      </trkpt>
      <trkpt lat="44.43011" lon="1.35211">
        <ele>149</ele>
        <time>2019-04-14T09:34:04Z</time>
      </trkpt>
      <trkpt lat="44.4301" lon="1.3521">
        <ele>149</ele>
        <time>2019-04-14T09:34:05Z</time>
      </trkpt>
      <trkpt lat="44.43008" lon="1.35211">
        <ele>150</ele>
        <time>2019-04-14T09:34:06Z</time>
      </trkpt>
      <trkpt lat="44.43007" lon="1.35212">
        <ele>150</ele>
        <time>2019-04-14T09:34:07Z</time>
      </trkpt>
      <trkpt lat="44.43005" lon="1.35215">
        <ele>150</ele>
        <time>2019-04-14T09:34:08Z</time>
      </trkpt>
      <trkpt lat="44.43003" lon="1.35218">
        <ele>150</ele>
        <time>2019-04-14T09:34:09Z</time>
      </trkpt>
      <trkpt lat="44.43001" lon="1.3522">
        <ele>151</ele>
        <time>2019-04-14T09:34:10Z</time>
      </trkpt>
      <trkpt lat="44.42999" lon="1.35222">
        <ele>151</ele>
        <time>2019-04-14T09:34:11Z</time>
      </trkpt>
      <trkpt lat="44.42996" lon="1.35225">
        <ele>151</ele>
        <time>2019-04-14T09:34:13Z</time>
      </trkpt>
      <trkpt lat="44.42995" lon="1.35225">
        <ele>151</ele>
        <time>2019-04-14T09:34:14Z</time>
      </trkpt>
      <trkpt lat="44.42994" lon="1.35226">
        <ele>151</ele>
        <time>2019-04-14T09:34:16Z</time>
      </trkpt>
      <trkpt lat="44.42993" lon="1.35228">
        <ele>151</ele>
        <time>2019-04-14T09:34:17Z</time>
      </trkpt>
      <trkpt lat="44.42992" lon="1.35229">
        <ele>151</ele>
        <time>2019-04-14T09:34:18Z</time>
      </trkpt>
      <trkpt lat="44.42989" lon="1.3523">
        <ele>151</ele>
        <time>2019-04-14T09:34:19Z</time>
      </trkpt>
      <trkpt lat="44.42988" lon="1.35231">
        <ele>151</ele>
        <time>2019-04-14T09:34:20Z</time>
      </trkpt>
      <trkpt lat="44.42987" lon="1.35233">
        <ele>151</ele>
        <time>2019-04-14T09:34:21Z</time>
      </trkpt>
      <trkpt lat="44.42985" lon="1.35235">
        <ele>151</ele>
        <time>2019-04-14T09:34:22Z</time>
      </trkpt>
      <trkpt lat="44.42983" lon="1.35237">
        <ele>151</ele>
        <time>2019-04-14T09:34:23Z</time>
      </trkpt>
      <trkpt lat="44.42984" lon="1.35238">
        <ele>151</ele>
        <time>2019-04-14T09:34:24Z</time>
      </trkpt>
      <trkpt lat="44.42984" lon="1.3524">
        <ele>151</ele>
        <time>2019-04-14T09:34:25Z</time>
      </trkpt>
      <trkpt lat="44.42982" lon="1.35242">
        <ele>151</ele>
        <time>2019-04-14T09:34:26Z</time>
      </trkpt>
      <trkpt lat="44.42979" lon="1.35246">
        <ele>151</ele>
        <time>2019-04-14T09:34:27Z</time>
      </trkpt>
      <trkpt lat="44.42978" lon="1.35246">
        <ele>152</ele>
        <time>2019-04-14T09:34:29Z</time>
      </trkpt>
      <trkpt lat="44.42976" lon="1.35247">
        <ele>151</ele>
        <time>2019-04-14T09:34:30Z</time>
      </trkpt>
      <trkpt lat="44.42975" lon="1.35247">
        <ele>152</ele>
        <time>2019-04-14T09:34:31Z</time>
      </trkpt>
      <trkpt lat="44.42974" lon="1.3525">
        <ele>152</ele>
        <time>2019-04-14T09:34:32Z</time>
      </trkpt>
      <trkpt lat="44.4297" lon="1.35251">
        <ele>152</ele>
        <time>2019-04-14T09:34:34Z</time>
      </trkpt>
      <trkpt lat="44.42968" lon="1.35253">
        <ele>152</ele>
        <time>2019-04-14T09:34:35Z</time>
      </trkpt>
      <trkpt lat="44.42966" lon="1.35254">
        <ele>153</ele>
        <time>2019-04-14T09:34:36Z</time>
      </trkpt>
      <trkpt lat="44.42963" lon="1.35255">
        <ele>153</ele>
        <time>2019-04-14T09:34:37Z</time>
      </trkpt>
      <trkpt lat="44.42943" lon="1.35291">
        <ele>154</ele>
        <time>2019-04-14T09:34:55Z</time>
      </trkpt>
      <trkpt lat="44.42938" lon="1.35295">
        <ele>154</ele>
        <time>2019-04-14T09:34:56Z</time>
      </trkpt>
      <trkpt lat="44.42936" lon="1.35298">
        <ele>154</ele>
        <time>2019-04-14T09:34:57Z</time>
      </trkpt>
      <trkpt lat="44.42934" lon="1.35299">
        <ele>154</ele>
        <time>2019-04-14T09:34:58Z</time>
      </trkpt>
      <trkpt lat="44.42933" lon="1.35301">
        <ele>154</ele>
        <time>2019-04-14T09:34:59Z</time>
      </trkpt>
      <trkpt lat="44.42932" lon="1.35303">
        <ele>154</ele>
        <time>2019-04-14T09:35:00Z</time>
      </trkpt>
      <trkpt lat="44.42932" lon="1.35305">
        <ele>154</ele>
        <time>2019-04-14T09:35:01Z</time>
      </trkpt>
      <trkpt lat="44.42931" lon="1.35305">
        <ele>154</ele>
        <time>2019-04-14T09:35:02Z</time>
      </trkpt>
      <trkpt lat="44.42929" lon="1.35307">
        <ele>154</ele>
        <time>2019-04-14T09:35:03Z</time>
      </trkpt>
      <trkpt lat="44.42927" lon="1.35309">
        <ele>154</ele>
        <time>2019-04-14T09:35:04Z</time>
      </trkpt>
      <trkpt lat="44.42923" lon="1.35313">
        <ele>154</ele>
        <time>2019-04-14T09:35:05Z</time>
      </trkpt>
      <trkpt lat="44.42921" lon="1.35315">
        <ele>154</ele>
        <time>2019-04-14T09:35:06Z</time>
      </trkpt>
      <trkpt lat="44.42919" lon="1.35316">
        <ele>154</ele>
        <time>2019-04-14T09:35:07Z</time>
      </trkpt>
      <trkpt lat="44.42918" lon="1.35317">
        <ele>155</ele>
        <time>2019-04-14T09:35:09Z</time>
      </trkpt>
      <trkpt lat="44.42916" lon="1.3532">
        <ele>154</ele>
        <time>2019-04-14T09:35:10Z</time>
      </trkpt>
      <trkpt lat="44.42914" lon="1.35321">
        <ele>155</ele>
        <time>2019-04-14T09:35:11Z</time>
      </trkpt>
      <trkpt lat="44.42912" lon="1.35326">
        <ele>154</ele>
        <time>2019-04-14T09:35:12Z</time>
      </trkpt>
      <trkpt lat="44.42911" lon="1.35328">
        <ele>154</ele>
        <time>2019-04-14T09:35:13Z</time>
      </trkpt>
      <trkpt lat="44.42909" lon="1.35329">
        <ele>154</ele>
        <time>2019-04-14T09:35:14Z</time>
      </trkpt>
      <trkpt lat="44.42906" lon="1.35331">
        <ele>154</ele>
        <time>2019-04-14T09:35:15Z</time>
      </trkpt>
      <trkpt lat="44.42903" lon="1.35332">
        <ele>154</ele>
        <time>2019-04-14T09:35:16Z</time>
      </trkpt>
      <trkpt lat="44.429" lon="1.35335">
        <ele>154</ele>
        <time>2019-04-14T09:35:17Z</time>
      </trkpt>
      <trkpt lat="44.42899" lon="1.35336">
        <ele>154</ele>
        <time>2019-04-14T09:35:18Z</time>
      </trkpt>
      <trkpt lat="44.42897" lon="1.35337">
        <ele>155</ele>
        <time>2019-04-14T09:35:19Z</time>
      </trkpt>
      <trkpt lat="44.42894" lon="1.35338">
        <ele>155</ele>
        <time>2019-04-14T09:35:20Z</time>
      </trkpt>
      <trkpt lat="44.42892" lon="1.35339">
        <ele>155</ele>
        <time>2019-04-14T09:35:21Z</time>
      </trkpt>
      <trkpt lat="44.4289" lon="1.35339">
        <ele>155</ele>
        <time>2019-04-14T09:35:22Z</time>
      </trkpt>
      <trkpt lat="44.42888" lon="1.35339">
        <ele>155</ele>
        <time>2019-04-14T09:35:23Z</time>
      </trkpt>
      <trkpt lat="44.42886" lon="1.35339">
        <ele>155</ele>
        <time>2019-04-14T09:35:24Z</time>
      </trkpt>
      <trkpt lat="44.42884" lon="1.35339">
        <ele>155</ele>
        <time>2019-04-14T09:35:25Z</time>
      </trkpt>
      <trkpt lat="44.42881" lon="1.35339">
        <ele>155</ele>
        <time>2019-04-14T09:35:26Z</time>
      </trkpt>
      <trkpt lat="44.42878" lon="1.35339">
        <ele>156</ele>
        <time>2019-04-14T09:35:27Z</time>
      </trkpt>
      <trkpt lat="44.42876" lon="1.35338">
        <ele>156</ele>
        <time>2019-04-14T09:35:28Z</time>
      </trkpt>
      <trkpt lat="44.42874" lon="1.35338">
        <ele>156</ele>
        <time>2019-04-14T09:35:29Z</time>
      </trkpt>
      <trkpt lat="44.42873" lon="1.35337">
        <ele>156</ele>
        <time>2019-04-14T09:35:31Z</time>
      </trkpt>
      <trkpt lat="44.42872" lon="1.35337">
        <ele>156</ele>
        <time>2019-04-14T09:35:32Z</time>
      </trkpt>
      <trkpt lat="44.4287" lon="1.35337">
        <ele>156</ele>
        <time>2019-04-14T09:35:33Z</time>
      </trkpt>
      <trkpt lat="44.42869" lon="1.35336">
        <ele>156</ele>
        <time>2019-04-14T09:35:34Z</time>
      </trkpt>
      <trkpt lat="44.42865" lon="1.35337">
        <ele>156</ele>
        <time>2019-04-14T09:35:35Z</time>
      </trkpt>
      <trkpt lat="44.42863" lon="1.35337">
        <ele>156</ele>
        <time>2019-04-14T09:35:36Z</time>
      </trkpt>
      <trkpt lat="44.42861" lon="1.35337">
        <ele>156</ele>
        <time>2019-04-14T09:35:37Z</time>
      </trkpt>
      <trkpt lat="44.4286" lon="1.35337">
        <ele>156</ele>
        <time>2019-04-14T09:35:38Z</time>
      </trkpt>
      <trkpt lat="44.42858" lon="1.35336">
        <ele>156</ele>
        <time>2019-04-14T09:35:39Z</time>
      </trkpt>
      <trkpt lat="44.42857" lon="1.35335">
        <ele>156</ele>
        <time>2019-04-14T09:35:40Z</time>
      </trkpt>
      <trkpt lat="44.42856" lon="1.35334">
        <ele>156</ele>
        <time>2019-04-14T09:35:41Z</time>
      </trkpt>
      <trkpt lat="44.42854" lon="1.35333">
        <ele>156</ele>
        <time>2019-04-14T09:35:42Z</time>
      </trkpt>
      <trkpt lat="44.42853" lon="1.35333">
        <ele>157</ele>
        <time>2019-04-14T09:35:43Z</time>
      </trkpt>
      <trkpt lat="44.42852" lon="1.35332">
        <ele>157</ele>
        <time>2019-04-14T09:35:44Z</time>
      </trkpt>
      <trkpt lat="44.42851" lon="1.35331">
        <ele>157</ele>
        <time>2019-04-14T09:35:45Z</time>
      </trkpt>
      <trkpt lat="44.4285" lon="1.3533">
        <ele>157</ele>
        <time>2019-04-14T09:35:46Z</time>
      </trkpt>
      <trkpt lat="44.42848" lon="1.35329">
        <ele>157</ele>
        <time>2019-04-14T09:35:47Z</time>
      </trkpt>
      <trkpt lat="44.42846" lon="1.35328">
        <ele>156</ele>
        <time>2019-04-14T09:35:48Z</time>
      </trkpt>
      <trkpt lat="44.42843" lon="1.35328">
        <ele>156</ele>
        <time>2019-04-14T09:35:49Z</time>
      </trkpt>
      <trkpt lat="44.42841" lon="1.35326">
        <ele>156</ele>
        <time>2019-04-14T09:35:50Z</time>
      </trkpt>
      <trkpt lat="44.42839" lon="1.35325">
        <ele>156</ele>
        <time>2019-04-14T09:35:51Z</time>
      </trkpt>
      <trkpt lat="44.42837" lon="1.35324">
        <ele>156</ele>
        <time>2019-04-14T09:35:52Z</time>
      </trkpt>
      <trkpt lat="44.42834" lon="1.35323">
        <ele>156</ele>
        <time>2019-04-14T09:35:53Z</time>
      </trkpt>
      <trkpt lat="44.42832" lon="1.35321">
        <ele>156</ele>
        <time>2019-04-14T09:35:54Z</time>
      </trkpt>
      <trkpt lat="44.4283" lon="1.35319">
        <ele>156</ele>
        <time>2019-04-14T09:35:55Z</time>
      </trkpt>
      <trkpt lat="44.42829" lon="1.35317">
        <ele>156</ele>
        <time>2019-04-14T09:35:56Z</time>
      </trkpt>
      <trkpt lat="44.42826" lon="1.35316">
        <ele>155</ele>
        <time>2019-04-14T09:35:57Z</time>
      </trkpt>
      <trkpt lat="44.42824" lon="1.35315">
        <ele>155</ele>
        <time>2019-04-14T09:35:58Z</time>
      </trkpt>
      <trkpt lat="44.42822" lon="1.35315">
        <ele>156</ele>
        <time>2019-04-14T09:36:00Z</time>
      </trkpt>
      <trkpt lat="44.42819" lon="1.35312">
        <ele>156</ele>
        <time>2019-04-14T09:36:01Z</time>
      </trkpt>
      <trkpt lat="44.42817" lon="1.35311">
        <ele>156</ele>
        <time>2019-04-14T09:36:02Z</time>
      </trkpt>
      <trkpt lat="44.42816" lon="1.35309">
        <ele>156</ele>
        <time>2019-04-14T09:36:03Z</time>
      </trkpt>
      <trkpt lat="44.42815" lon="1.35308">
        <ele>156</ele>
        <time>2019-04-14T09:36:04Z</time>
      </trkpt>
      <trkpt lat="44.42814" lon="1.35306">
        <ele>156</ele>
        <time>2019-04-14T09:36:05Z</time>
      </trkpt>
      <trkpt lat="44.42812" lon="1.35303">
        <ele>156</ele>
        <time>2019-04-14T09:36:06Z</time>
      </trkpt>
      <trkpt lat="44.4281" lon="1.35302">
        <ele>156</ele>
        <time>2019-04-14T09:36:07Z</time>
      </trkpt>
      <trkpt lat="44.42808" lon="1.35301">
        <ele>157</ele>
        <time>2019-04-14T09:36:08Z</time>
      </trkpt>
      <trkpt lat="44.42805" lon="1.35299">
        <ele>157</ele>
        <time>2019-04-14T09:36:09Z</time>
      </trkpt>
      <trkpt lat="44.42804" lon="1.35296">
        <ele>157</ele>
        <time>2019-04-14T09:36:10Z</time>
      </trkpt>
      <trkpt lat="44.42801" lon="1.35295">
        <ele>157</ele>
        <time>2019-04-14T09:36:11Z</time>
      </trkpt>
      <trkpt lat="44.42799" lon="1.35293">
        <ele>157</ele>
        <time>2019-04-14T09:36:12Z</time>
      </trkpt>
      <trkpt lat="44.42798" lon="1.35292">
        <ele>157</ele>
        <time>2019-04-14T09:36:13Z</time>
      </trkpt>
      <trkpt lat="44.42797" lon="1.35291">
        <ele>157</ele>
        <time>2019-04-14T09:36:14Z</time>
      </trkpt>
      <trkpt lat="44.42797" lon="1.3529">
        <ele>157</ele>
        <time>2019-04-14T09:36:15Z</time>
      </trkpt>
      <trkpt lat="44.42796" lon="1.35288">
        <ele>157</ele>
        <time>2019-04-14T09:36:16Z</time>
      </trkpt>
      <trkpt lat="44.42796" lon="1.35288">
        <ele>157</ele>
        <time>2019-04-14T09:36:17Z</time>
      </trkpt>
      <trkpt lat="44.42796" lon="1.35287">
        <ele>157</ele>
        <time>2019-04-14T09:36:18Z</time>
      </trkpt>
      <trkpt lat="44.42796" lon="1.35287">
        <ele>157</ele>
        <time>2019-04-14T09:36:19Z</time>
      </trkpt>
      <trkpt lat="44.42795" lon="1.35286">
        <ele>157</ele>
        <time>2019-04-14T09:36:20Z</time>
      </trkpt>
      <trkpt lat="44.42795" lon="1.35284">
        <ele>158</ele>
        <time>2019-04-14T09:36:21Z</time>
      </trkpt>
      <trkpt lat="44.42795" lon="1.35282">
        <ele>158</ele>
        <time>2019-04-14T09:36:22Z</time>
      </trkpt>
      <trkpt lat="44.42795" lon="1.35283">
        <ele>158</ele>
        <time>2019-04-14T09:36:23Z</time>
      </trkpt>
      <trkpt lat="44.42793" lon="1.35282">
        <ele>158</ele>
        <time>2019-04-14T09:36:24Z</time>
      </trkpt>
      <trkpt lat="44.42815" lon="1.35283">
        <ele>162</ele>
        <time>2019-04-14T09:36:48Z</time>
      </trkpt>
      <trkpt lat="44.42817" lon="1.35283">
        <ele>162</ele>
        <time>2019-04-14T09:36:49Z</time>
      </trkpt>
      <trkpt lat="44.42819" lon="1.35284">
        <ele>162</ele>
        <time>2019-04-14T09:36:50Z</time>
      </trkpt>
      <trkpt lat="44.4282" lon="1.35285">
        <ele>163</ele>
        <time>2019-04-14T09:36:51Z</time>
      </trkpt>
      <trkpt lat="44.42822" lon="1.35283">
        <ele>163</ele>
        <time>2019-04-14T09:36:52Z</time>
      </trkpt>
      <trkpt lat="44.42823" lon="1.35283">
        <ele>163</ele>
        <time>2019-04-14T09:36:53Z</time>
      </trkpt>
      <trkpt lat="44.42824" lon="1.35284">
        <ele>163</ele>
        <time>2019-04-14T09:36:54Z</time>
      </trkpt>
      <trkpt lat="44.42825" lon="1.35285">
        <ele>164</ele>
        <time>2019-04-14T09:36:56Z</time>
      </trkpt>
      <trkpt lat="44.42829" lon="1.35288">
        <ele>164</ele>
        <time>2019-04-14T09:36:57Z</time>
      </trkpt>
      <trkpt lat="44.4283" lon="1.35289">
        <ele>164</ele>
        <time>2019-04-14T09:36:58Z</time>
      </trkpt>
      <trkpt lat="44.42831" lon="1.3529">
        <ele>165</ele>
        <time>2019-04-14T09:36:59Z</time>
      </trkpt>
      <trkpt lat="44.42833" lon="1.35291">
        <ele>165</ele>
        <time>2019-04-14T09:37:01Z</time>
      </trkpt>
      <trkpt lat="44.42835" lon="1.35292">
        <ele>166</ele>
        <time>2019-04-14T09:37:02Z</time>
      </trkpt>
      <trkpt lat="44.42837" lon="1.35292">
        <ele>166</ele>
        <time>2019-04-14T09:37:03Z</time>
      </trkpt>
      <trkpt lat="44.42838" lon="1.35293">
        <ele>166</ele>
        <time>2019-04-14T09:37:04Z</time>
      </trkpt>
      <trkpt lat="44.42839" lon="1.35294">
        <ele>166</ele>
        <time>2019-04-14T09:37:05Z</time>
      </trkpt>
      <trkpt lat="44.4284" lon="1.35295">
        <ele>167</ele>
        <time>2019-04-14T09:37:06Z</time>
      </trkpt>
      <trkpt lat="44.42841" lon="1.35296">
        <ele>167</ele>
        <time>2019-04-14T09:37:07Z</time>
      </trkpt>
      <trkpt lat="44.42842" lon="1.35297">
        <ele>167</ele>
        <time>2019-04-14T09:37:08Z</time>
      </trkpt>
      <trkpt lat="44.42844" lon="1.35298">
        <ele>167</ele>
        <time>2019-04-14T09:37:09Z</time>
      </trkpt>
      <trkpt lat="44.42846" lon="1.35299">
        <ele>168</ele>
        <time>2019-04-14T09:37:10Z</time>
      </trkpt>
      <trkpt lat="44.42847" lon="1.35299">
        <ele>168</ele>
        <time>2019-04-14T09:37:11Z</time>
      </trkpt>
      <trkpt lat="44.42849" lon="1.353">
        <ele>168</ele>
        <time>2019-04-14T09:37:12Z</time>
      </trkpt>
      <trkpt lat="44.42851" lon="1.353">
        <ele>169</ele>
        <time>2019-04-14T09:37:13Z</time>
      </trkpt>
      <trkpt lat="44.42853" lon="1.353">
        <ele>169</ele>
        <time>2019-04-14T09:37:14Z</time>
      </trkpt>
      <trkpt lat="44.42855" lon="1.353">
        <ele>169</ele>
        <time>2019-04-14T09:37:15Z</time>
      </trkpt>
      <trkpt lat="44.42856" lon="1.353">
        <ele>169</ele>
        <time>2019-04-14T09:37:16Z</time>
      </trkpt>
      <trkpt lat="44.42857" lon="1.353">
        <ele>170</ele>
        <time>2019-04-14T09:37:17Z</time>
      </trkpt>
      <trkpt lat="44.42858" lon="1.35301">
        <ele>170</ele>
        <time>2019-04-14T09:37:18Z</time>
      </trkpt>
      <trkpt lat="44.42859" lon="1.353">
        <ele>170</ele>
        <time>2019-04-14T09:37:19Z</time>
      </trkpt>
      <trkpt lat="44.4286" lon="1.353">
        <ele>170</ele>
        <time>2019-04-14T09:37:20Z</time>
      </trkpt>
      <trkpt lat="44.42861" lon="1.353">
        <ele>170</ele>
        <time>2019-04-14T09:37:21Z</time>
      </trkpt>
      <trkpt lat="44.42862" lon="1.35299">
        <ele>170</ele>
        <time>2019-04-14T09:37:22Z</time>
      </trkpt>
      <trkpt lat="44.42862" lon="1.353">
        <ele>170</ele>
        <time>2019-04-14T09:37:23Z</time>
      </trkpt>
      <trkpt lat="44.42862" lon="1.353">
        <ele>170</ele>
        <time>2019-04-14T09:37:24Z</time>
      </trkpt>
      <trkpt lat="44.42862" lon="1.35301">
        <ele>170</ele>
        <time>2019-04-14T09:37:25Z</time>
      </trkpt>
      <trkpt lat="44.42863" lon="1.353">
        <ele>170</ele>
        <time>2019-04-14T09:37:26Z</time>
      </trkpt>
      <trkpt lat="44.42864" lon="1.353">
        <ele>170</ele>
        <time>2019-04-14T09:37:27Z</time>
      </trkpt>
      <trkpt lat="44.42864" lon="1.35299">
        <ele>170</ele>
        <time>2019-04-14T09:37:28Z</time>
      </trkpt>
      <trkpt lat="44.42864" lon="1.35299">
        <ele>170</ele>
        <time>2019-04-14T09:37:29Z</time>
      </trkpt>
      <trkpt lat="44.42865" lon="1.35299">
        <ele>170</ele>
        <time>2019-04-14T09:37:30Z</time>
      </trkpt>
      <trkpt lat="44.42865" lon="1.35299">
        <ele>170</ele>
        <time>2019-04-14T09:37:31Z</time>
      </trkpt>
      <trkpt lat="44.42865" lon="1.35299">
        <ele>170</ele>
        <time>2019-04-14T09:37:32Z</time>
      </trkpt>
      <trkpt lat="44.42864" lon="1.35299">
        <ele>170</ele>
        <time>2019-04-14T09:37:33Z</time>
      </trkpt>
      <trkpt lat="44.42864" lon="1.35299">
        <ele>167</ele>
        <time>2019-04-14T09:37:34Z</time>
      </trkpt>
      <trkpt lat="44.42864" lon="1.35299">
        <ele>170</ele>
        <time>2019-04-14T09:37:35Z</time>
      </trkpt>
      <trkpt lat="44.42854" lon="1.35287">
        <ele>172</ele>
        <time>2019-04-14T09:42:25Z</time>
      </trkpt>
      <trkpt lat="44.42853" lon="1.35286">
        <ele>172</ele>
        <time>2019-04-14T09:42:26Z</time>
      </trkpt>
      <trkpt lat="44.42852" lon="1.35285">
        <ele>172</ele>
        <time>2019-04-14T09:42:27Z</time>
      </trkpt>
      <trkpt lat="44.42851" lon="1.35284">
        <ele>172</ele>
        <time>2019-04-14T09:42:28Z</time>
      </trkpt>
      <trkpt lat="44.42851" lon="1.35284">
        <ele>173</ele>
        <time>2019-04-14T09:42:29Z</time>
      </trkpt>
      <trkpt lat="44.4285" lon="1.35283">
        <ele>173</ele>
        <time>2019-04-14T09:42:30Z</time>
      </trkpt>
      <trkpt lat="44.4285" lon="1.35282">
        <ele>173</ele>
        <time>2019-04-14T09:42:31Z</time>
      </trkpt>
      <trkpt lat="44.4285" lon="1.35281">
        <ele>173</ele>
        <time>2019-04-14T09:42:32Z</time>
      </trkpt>
      <trkpt lat="44.42849" lon="1.3528">
        <ele>173</ele>
        <time>2019-04-14T09:42:33Z</time>
      </trkpt>
      <trkpt lat="44.42848" lon="1.35279">
        <ele>173</ele>
        <time>2019-04-14T09:42:34Z</time>
      </trkpt>
      <trkpt lat="44.42848" lon="1.35278">
        <ele>174</ele>
        <time>2019-04-14T09:42:35Z</time>
      </trkpt>
      <trkpt lat="44.42847" lon="1.35278">
        <ele>174</ele>
        <time>2019-04-14T09:42:36Z</time>
      </trkpt>
      <trkpt lat="44.42847" lon="1.35277">
        <ele>174</ele>
        <time>2019-04-14T09:42:37Z</time>
      </trkpt>
      <trkpt lat="44.42846" lon="1.35274">
        <ele>174</ele>
        <time>2019-04-14T09:42:38Z</time>
      </trkpt>
      <trkpt lat="44.42845" lon="1.35273">
        <ele>174</ele>
        <time>2019-04-14T09:42:39Z</time>
      </trkpt>
      <trkpt lat="44.42845" lon="1.35273">
        <ele>175</ele>
        <time>2019-04-14T09:42:40Z</time>
      </trkpt>
      <trkpt lat="44.42844" lon="1.35272">
        <ele>175</ele>
        <time>2019-04-14T09:42:41Z</time>
      </trkpt>
      <trkpt lat="44.42843" lon="1.35271">
        <ele>175</ele>
        <time>2019-04-14T09:42:42Z</time>
      </trkpt>
      <trkpt lat="44.42842" lon="1.3527">
        <ele>175</ele>
        <time>2019-04-14T09:42:43Z</time>
      </trkpt>
      <trkpt lat="44.42841" lon="1.35268">
        <ele>175</ele>
        <time>2019-04-14T09:42:44Z</time>
      </trkpt>
      <trkpt lat="44.4284" lon="1.35267">
        <ele>175</ele>
        <time>2019-04-14T09:42:45Z</time>
      </trkpt>
      <trkpt lat="44.42839" lon="1.35265">
        <ele>175</ele>
        <time>2019-04-14T09:42:46Z</time>
      </trkpt>
      <trkpt lat="44.42839" lon="1.35265">
        <ele>176</ele>
        <time>2019-04-14T09:42:47Z</time>
      </trkpt>
      <trkpt lat="44.42838" lon="1.35264">
        <ele>176</ele>
        <time>2019-04-14T09:42:48Z</time>
      </trkpt>
      <trkpt lat="44.42838" lon="1.35263">
        <ele>176</ele>
        <time>2019-04-14T09:42:49Z</time>
      </trkpt>
      <trkpt lat="44.42837" lon="1.35262">
        <ele>176</ele>
        <time>2019-04-14T09:42:50Z</time>
      </trkpt>
      <trkpt lat="44.42836" lon="1.35261">
        <ele>176</ele>
        <time>2019-04-14T09:42:51Z</time>
      </trkpt>
      <trkpt lat="44.42835" lon="1.35261">
        <ele>176</ele>
        <time>2019-04-14T09:42:52Z</time>
      </trkpt>
      <trkpt lat="44.42834" lon="1.35259">
        <ele>176</ele>
        <time>2019-04-14T09:42:53Z</time>
      </trkpt>
      <trkpt lat="44.42833" lon="1.35259">
        <ele>177</ele>
        <time>2019-04-14T09:42:54Z</time>
      </trkpt>
      <trkpt lat="44.42832" lon="1.35257">
        <ele>177</ele>
        <time>2019-04-14T09:42:55Z</time>
      </trkpt>
      <trkpt lat="44.42831" lon="1.35257">
        <ele>177</ele>
        <time>2019-04-14T09:42:56Z</time>
      </trkpt>
      <trkpt lat="44.4283" lon="1.35255">
        <ele>177</ele>
        <time>2019-04-14T09:42:57Z</time>
      </trkpt>
      <trkpt lat="44.42829" lon="1.35254">
        <ele>177</ele>
        <time>2019-04-14T09:42:58Z</time>
      </trkpt>
      <trkpt lat="44.42829" lon="1.35254">
        <ele>177</ele>
        <time>2019-04-14T09:42:59Z</time>
      </trkpt>
      <trkpt lat="44.42828" lon="1.35253">
        <ele>178</ele>
        <time>2019-04-14T09:43:00Z</time>
      </trkpt>
      <trkpt lat="44.42827" lon="1.35252">
        <ele>178</ele>
        <time>2019-04-14T09:43:01Z</time>
      </trkpt>
      <trkpt lat="44.42826" lon="1.35251">
        <ele>178</ele>
        <time>2019-04-14T09:43:02Z</time>
      </trkpt>
      <trkpt lat="44.42826" lon="1.3525">
        <ele>178</ele>
        <time>2019-04-14T09:43:03Z</time>
      </trkpt>
      <trkpt lat="44.42825" lon="1.35249">
        <ele>178</ele>
        <time>2019-04-14T09:43:04Z</time>
      </trkpt>
      <trkpt lat="44.42824" lon="1.35248">
        <ele>178</ele>
        <time>2019-04-14T09:43:05Z</time>
      </trkpt>
      <trkpt lat="44.42824" lon="1.35247">
        <ele>178</ele>
        <time>2019-04-14T09:43:06Z</time>
      </trkpt>
      <trkpt lat="44.42824" lon="1.35246">
        <ele>179</ele>
        <time>2019-04-14T09:43:07Z</time>
      </trkpt>
      <trkpt lat="44.42824" lon="1.35245">
        <ele>179</ele>
        <time>2019-04-14T09:43:08Z</time>
      </trkpt>
      <trkpt lat="44.42823" lon="1.35244">
        <ele>179</ele>
        <time>2019-04-14T09:43:09Z</time>
      </trkpt>
      <trkpt lat="44.42823" lon="1.35243">
        <ele>179</ele>
        <time>2019-04-14T09:43:10Z</time>
      </trkpt>
      <trkpt lat="44.42823" lon="1.35243">
        <ele>179</ele>
        <time>2019-04-14T09:43:11Z</time>
      </trkpt>
      <trkpt lat="44.42822" lon="1.35242">
        <ele>180</ele>
        <time>2019-04-14T09:43:12Z</time>
      </trkpt>
      <trkpt lat="44.42821" lon="1.35241">
        <ele>180</ele>
        <time>2019-04-14T09:43:13Z</time>
      </trkpt>
      <trkpt lat="44.42821" lon="1.3524">
        <ele>180</ele>
        <time>2019-04-14T09:43:14Z</time>
      </trkpt>
      <trkpt lat="44.4282" lon="1.3524">
        <ele>180</ele>
        <time>2019-04-14T09:43:15Z</time>
      </trkpt>
      <trkpt lat="44.42819" lon="1.35239">
        <ele>180</ele>
        <time>2019-04-14T09:43:16Z</time>
      </trkpt>
      <trkpt lat="44.42819" lon="1.35238">
        <ele>181</ele>
        <time>2019-04-14T09:43:17Z</time>
      </trkpt>
      <trkpt lat="44.42818" lon="1.35237">
        <ele>181</ele>
        <time>2019-04-14T09:43:18Z</time>
      </trkpt>
      <trkpt lat="44.42816" lon="1.35236">
        <ele>181</ele>
        <time>2019-04-14T09:43:19Z</time>
      </trkpt>
      <trkpt lat="44.42815" lon="1.35235">
        <ele>181</ele>
        <time>2019-04-14T09:43:20Z</time>
      </trkpt>
      <trkpt lat="44.42815" lon="1.35234">
        <ele>182</ele>
        <time>2019-04-14T09:43:21Z</time>
      </trkpt>
      <trkpt lat="44.42814" lon="1.35233">
        <ele>182</ele>
        <time>2019-04-14T09:43:22Z</time>
      </trkpt>
      <trkpt lat="44.42814" lon="1.35232">
        <ele>182</ele>
        <time>2019-04-14T09:43:23Z</time>
      </trkpt>
      <trkpt lat="44.42813" lon="1.35231">
        <ele>182</ele>
        <time>2019-04-14T09:43:24Z</time>
      </trkpt>
      <trkpt lat="44.42812" lon="1.3523">
        <ele>182</ele>
        <time>2019-04-14T09:43:25Z</time>
      </trkpt>
      <trkpt lat="44.42812" lon="1.3523">
        <ele>182</ele>
        <time>2019-04-14T09:43:26Z</time>
      </trkpt>
      <trkpt lat="44.42811" lon="1.35229">
        <ele>183</ele>
        <time>2019-04-14T09:43:27Z</time>
      </trkpt>
      <trkpt lat="44.4281" lon="1.35228">
        <ele>183</ele>
        <time>2019-04-14T09:43:28Z</time>
      </trkpt>
      <trkpt lat="44.4281" lon="1.35227">
        <ele>183</ele>
        <time>2019-04-14T09:43:29Z</time>
      </trkpt>
      <trkpt lat="44.42809" lon="1.35226">
        <ele>183</ele>
        <time>2019-04-14T09:43:30Z</time>
      </trkpt>
      <trkpt lat="44.42785" lon="1.35191">
        <ele>191</ele>
        <time>2019-04-14T09:44:27Z</time>
      </trkpt>
      <trkpt lat="44.42784" lon="1.3519">
        <ele>191</ele>
        <time>2019-04-14T09:44:28Z</time>
      </trkpt>
      <trkpt lat="44.42783" lon="1.35189">
        <ele>192</ele>
        <time>2019-04-14T09:44:29Z</time>
      </trkpt>
      <trkpt lat="44.42782" lon="1.35189">
        <ele>192</ele>
        <time>2019-04-14T09:44:30Z</time>
      </trkpt>
      <trkpt lat="44.42781" lon="1.35187">
        <ele>192</ele>
        <time>2019-04-14T09:44:31Z</time>
      </trkpt>
      <trkpt lat="44.4278" lon="1.35187">
        <ele>192</ele>
        <time>2019-04-14T09:44:32Z</time>
      </trkpt>
      <trkpt lat="44.4278" lon="1.35186">
        <ele>193</ele>
        <time>2019-04-14T09:44:33Z</time>
      </trkpt>
      <trkpt lat="44.42779" lon="1.35185">
        <ele>193</ele>
        <time>2019-04-14T09:44:34Z</time>
      </trkpt>
      <trkpt lat="44.42778" lon="1.35184">
        <ele>193</ele>
        <time>2019-04-14T09:44:35Z</time>
      </trkpt>
      <trkpt lat="44.42777" lon="1.35183">
        <ele>193</ele>
        <time>2019-04-14T09:44:36Z</time>
      </trkpt>
      <trkpt lat="44.42777" lon="1.35182">
        <ele>194</ele>
        <time>2019-04-14T09:44:37Z</time>
      </trkpt>
      <trkpt lat="44.42776" lon="1.35181">
        <ele>194</ele>
        <time>2019-04-14T09:44:38Z</time>
      </trkpt>
      <trkpt lat="44.42775" lon="1.3518">
        <ele>194</ele>
        <time>2019-04-14T09:44:39Z</time>
      </trkpt>
      <trkpt lat="44.42774" lon="1.35179">
        <ele>194</ele>
        <time>2019-04-14T09:44:40Z</time>
      </trkpt>
      <trkpt lat="44.42773" lon="1.35178">
        <ele>195</ele>
        <time>2019-04-14T09:44:41Z</time>
      </trkpt>
      <trkpt lat="44.42772" lon="1.35177">
        <ele>195</ele>
        <time>2019-04-14T09:44:42Z</time>
      </trkpt>
      <trkpt lat="44.42771" lon="1.35176">
        <ele>196</ele>
        <time>2019-04-14T09:44:43Z</time>
      </trkpt>
      <trkpt lat="44.4277" lon="1.35175">
        <ele>196</ele>
        <time>2019-04-14T09:44:44Z</time>
      </trkpt>
      <trkpt lat="44.42769" lon="1.35174">
        <ele>196</ele>
        <time>2019-04-14T09:44:45Z</time>
      </trkpt>
      <trkpt lat="44.42768" lon="1.35173">
        <ele>196</ele>
        <time>2019-04-14T09:44:46Z</time>
      </trkpt>
      <trkpt lat="44.42767" lon="1.35171">
        <ele>197</ele>
        <time>2019-04-14T09:44:47Z</time>
      </trkpt>
      <trkpt lat="44.42766" lon="1.3517">
        <ele>197</ele>
        <time>2019-04-14T09:44:48Z</time>
      </trkpt>
      <trkpt lat="44.42765" lon="1.3517">
        <ele>197</ele>
        <time>2019-04-14T09:44:49Z</time>
      </trkpt>
      <trkpt lat="44.42764" lon="1.35169">
        <ele>197</ele>
        <time>2019-04-14T09:44:50Z</time>
      </trkpt>
      <trkpt lat="44.42763" lon="1.35168">
        <ele>197</ele>
        <time>2019-04-14T09:44:51Z</time>
      </trkpt>
      <trkpt lat="44.42762" lon="1.35167">
        <ele>198</ele>
        <time>2019-04-14T09:44:52Z</time>
      </trkpt>
      <trkpt lat="44.42761" lon="1.35166">
        <ele>198</ele>
        <time>2019-04-14T09:44:53Z</time>
      </trkpt>
      <trkpt lat="44.4276" lon="1.35165">
        <ele>198</ele>
        <time>2019-04-14T09:44:54Z</time>
      </trkpt>
      <trkpt lat="44.42758" lon="1.35165">
        <ele>198</ele>
        <time>2019-04-14T09:44:55Z</time>
      </trkpt>
      <trkpt lat="44.42757" lon="1.35164">
        <ele>198</ele>
        <time>2019-04-14T09:44:56Z</time>
      </trkpt>
      <trkpt lat="44.42756" lon="1.35164">
        <ele>199</ele>
        <time>2019-04-14T09:44:57Z</time>
      </trkpt>
      <trkpt lat="44.42755" lon="1.35163">
        <ele>199</ele>
        <time>2019-04-14T09:44:58Z</time>
      </trkpt>
      <trkpt lat="44.42755" lon="1.35162">
        <ele>199</ele>
        <time>2019-04-14T09:44:59Z</time>
      </trkpt>
      <trkpt lat="44.42754" lon="1.35162">
        <ele>199</ele>
        <time>2019-04-14T09:45:00Z</time>
      </trkpt>
      <trkpt lat="44.42753" lon="1.35161">
        <ele>199</ele>
        <time>2019-04-14T09:45:01Z</time>
      </trkpt>
      <trkpt lat="44.42752" lon="1.3516">
        <ele>200</ele>
        <time>2019-04-14T09:45:02Z</time>
      </trkpt>
      <trkpt lat="44.42751" lon="1.3516">
        <ele>200</ele>
        <time>2019-04-14T09:45:03Z</time>
      </trkpt>
      <trkpt lat="44.42751" lon="1.35159">
        <ele>200</ele>
        <time>2019-04-14T09:45:04Z</time>
      </trkpt>
      <trkpt lat="44.42749" lon="1.35158">
        <ele>200</ele>
        <time>2019-04-14T09:45:05Z</time>
      </trkpt>
      <trkpt lat="44.42748" lon="1.35157">
        <ele>200</ele>
        <time>2019-04-14T09:45:06Z</time>
      </trkpt>
      <trkpt lat="44.42747" lon="1.35156">
        <ele>201</ele>
        <time>2019-04-14T09:45:07Z</time>
      </trkpt>
      <trkpt lat="44.42746" lon="1.35156">
        <ele>201</ele>
        <time>2019-04-14T09:45:08Z</time>
      </trkpt>
      <trkpt lat="44.42745" lon="1.35155">
        <ele>201</ele>
        <time>2019-04-14T09:45:09Z</time>
      </trkpt>
      <trkpt lat="44.42744" lon="1.35154">
        <ele>201</ele>
        <time>2019-04-14T09:45:10Z</time>
      </trkpt>
      <trkpt lat="44.42742" lon="1.35154">
        <ele>201</ele>
        <time>2019-04-14T09:45:11Z</time>
      </trkpt>
      <trkpt lat="44.42741" lon="1.35153">
        <ele>201</ele>
        <time>2019-04-14T09:45:12Z</time>
      </trkpt>
      <trkpt lat="44.4274" lon="1.35153">
        <ele>202</ele>
        <time>2019-04-14T09:45:13Z</time>
      </trkpt>
      <trkpt lat="44.42739" lon="1.35152">
        <ele>202</ele>
        <time>2019-04-14T09:45:14Z</time>
      </trkpt>
      <trkpt lat="44.42738" lon="1.35151">
        <ele>202</ele>
        <time>2019-04-14T09:45:15Z</time>
      </trkpt>
      <trkpt lat="44.42737" lon="1.3515">
        <ele>202</ele>
        <time>2019-04-14T09:45:16Z</time>
      </trkpt>
      <trkpt lat="44.42736" lon="1.3515">
        <ele>202</ele>
        <time>2019-04-14T09:45:17Z</time>
      </trkpt>
      <trkpt lat="44.42735" lon="1.35149">
        <ele>203</ele>
        <time>2019-04-14T09:45:18Z</time>
      </trkpt>
      <trkpt lat="44.42735" lon="1.35148">
        <ele>203</ele>
        <time>2019-04-14T09:45:19Z</time>
      </trkpt>
      <trkpt lat="44.42734" lon="1.35148">
        <ele>203</ele>
        <time>2019-04-14T09:45:20Z</time>
      </trkpt>
      <trkpt lat="44.42733" lon="1.35147">
        <ele>203</ele>
        <time>2019-04-14T09:45:21Z</time>
      </trkpt>
      <trkpt lat="44.42733" lon="1.35146">
        <ele>204</ele>
        <time>2019-04-14T09:45:22Z</time>
      </trkpt>
      <trkpt lat="44.42732" lon="1.35145">
        <ele>204</ele>
        <time>2019-04-14T09:45:23Z</time>
      </trkpt>
      <trkpt lat="44.42731" lon="1.35144">
        <ele>204</ele>
        <time>2019-04-14T09:45:24Z</time>
      </trkpt>
      <trkpt lat="44.4273" lon="1.35144">
        <ele>204</ele>
        <time>2019-04-14T09:45:25Z</time>
      </trkpt>
      <trkpt lat="44.4273" lon="1.35143">
        <ele>204</ele>
        <time>2019-04-14T09:45:26Z</time>
      </trkpt>
      <trkpt lat="44.42729" lon="1.35143">
        <ele>205</ele>
        <time>2019-04-14T09:45:27Z</time>
      </trkpt>
      <trkpt lat="44.42728" lon="1.35142">
        <ele>205</ele>
        <time>2019-04-14T09:45:28Z</time>
      </trkpt>
      <trkpt lat="44.42727" lon="1.35142">
        <ele>205</ele>
        <time>2019-04-14T09:45:29Z</time>
      </trkpt>
      <trkpt lat="44.42726" lon="1.35142">
        <ele>205</ele>
        <time>2019-04-14T09:45:30Z</time>
      </trkpt>
      <trkpt lat="44.42725" lon="1.35141">
        <ele>205</ele>
        <time>2019-04-14T09:45:31Z</time>
      </trkpt>
      <trkpt lat="44.42724" lon="1.35141">
        <ele>206</ele>
        <time>2019-04-14T09:45:32Z</time>
      </trkpt>
      <trkpt lat="44.42723" lon="1.3514">
        <ele>206</ele>
        <time>2019-04-14T09:45:33Z</time>
      </trkpt>
      <trkpt lat="44.42723" lon="1.35139">
        <ele>206</ele>
        <time>2019-04-14T09:45:34Z</time>
      </trkpt>
      <trkpt lat="44.42722" lon="1.35138">
        <ele>206</ele>
        <time>2019-04-14T09:45:35Z</time>
      </trkpt>
      <trkpt lat="44.42721" lon="1.35138">
        <ele>207</ele>
        <time>2019-04-14T09:45:36Z</time>
      </trkpt>
      <trkpt lat="44.4272" lon="1.35137">
        <ele>207</ele>
        <time>2019-04-14T09:45:37Z</time>
      </trkpt>
      <trkpt lat="44.42719" lon="1.35137">
        <ele>207</ele>
        <time>2019-04-14T09:45:38Z</time>
      </trkpt>
      <trkpt lat="44.42718" lon="1.35136">
        <ele>207</ele>
        <time>2019-04-14T09:45:39Z</time>
      </trkpt>
      <trkpt lat="44.42718" lon="1.35136">
        <ele>207</ele>
        <time>2019-04-14T09:45:40Z</time>
      </trkpt>
      <trkpt lat="44.42718" lon="1.35135">
        <ele>208</ele>
        <time>2019-04-14T09:45:41Z</time>
      </trkpt>
      <trkpt lat="44.42718" lon="1.35135">
        <ele>208</ele>
        <time>2019-04-14T09:45:42Z</time>
      </trkpt>
      <trkpt lat="44.42717" lon="1.35135">
        <ele>208</ele>
        <time>2019-04-14T09:45:43Z</time>
      </trkpt>
      <trkpt lat="44.42716" lon="1.35134">
        <ele>208</ele>
        <time>2019-04-14T09:45:44Z</time>
      </trkpt>
      <trkpt lat="44.42716" lon="1.35133">
        <ele>208</ele>
        <time>2019-04-14T09:45:45Z</time>
      </trkpt>
      <trkpt lat="44.42715" lon="1.35133">
        <ele>209</ele>
        <time>2019-04-14T09:45:46Z</time>
      </trkpt>
      <trkpt lat="44.42715" lon="1.35133">
        <ele>209</ele>
        <time>2019-04-14T09:45:47Z</time>
      </trkpt>
      <trkpt lat="44.42734" lon="1.35126">
        <ele>214</ele>
        <time>2019-04-14T09:46:52Z</time>
      </trkpt>
      <trkpt lat="44.42736" lon="1.35125">
        <ele>214</ele>
        <time>2019-04-14T09:46:53Z</time>
      </trkpt>
      <trkpt lat="44.42737" lon="1.35125">
        <ele>215</ele>
        <time>2019-04-14T09:46:54Z</time>
      </trkpt>
      <trkpt lat="44.42739" lon="1.35125">
        <ele>215</ele>
        <time>2019-04-14T09:46:55Z</time>
      </trkpt>
      <trkpt lat="44.4274" lon="1.35125">
        <ele>215</ele>
        <time>2019-04-14T09:46:56Z</time>
      </trkpt>
      <trkpt lat="44.42741" lon="1.35124">
        <ele>215</ele>
        <time>2019-04-14T09:46:57Z</time>
      </trkpt>
      <trkpt lat="44.42742" lon="1.35124">
        <ele>216</ele>
        <time>2019-04-14T09:46:58Z</time>
      </trkpt>
      <trkpt lat="44.42743" lon="1.35124">
        <ele>216</ele>
        <time>2019-04-14T09:46:59Z</time>
      </trkpt>
      <trkpt lat="44.42744" lon="1.35124">
        <ele>216</ele>
        <time>2019-04-14T09:47:00Z</time>
      </trkpt>
      <trkpt lat="44.42746" lon="1.35124">
        <ele>216</ele>
        <time>2019-04-14T09:47:01Z</time>
      </trkpt>
      <trkpt lat="44.42747" lon="1.35123">
        <ele>217</ele>
        <time>2019-04-14T09:47:02Z</time>
      </trkpt>
      <trkpt lat="44.42748" lon="1.35123">
        <ele>217</ele>
        <time>2019-04-14T09:47:03Z</time>
      </trkpt>
      <trkpt lat="44.42749" lon="1.35123">
        <ele>217</ele>
        <time>2019-04-14T09:47:04Z</time>
      </trkpt>
      <trkpt lat="44.42751" lon="1.35123">
        <ele>217</ele>
        <time>2019-04-14T09:47:05Z</time>
      </trkpt>
      <trkpt lat="44.42752" lon="1.35123">
        <ele>217</ele>
        <time>2019-04-14T09:47:06Z</time>
      </trkpt>
      <trkpt lat="44.42754" lon="1.35123">
        <ele>218</ele>
        <time>2019-04-14T09:47:07Z</time>
      </trkpt>
      <trkpt lat="44.42756" lon="1.35123">
        <ele>218</ele>
        <time>2019-04-14T09:47:08Z</time>
      </trkpt>
      <trkpt lat="44.42757" lon="1.35123">
        <ele>218</ele>
        <time>2019-04-14T09:47:09Z</time>
      </trkpt>
      <trkpt lat="44.42758" lon="1.35123">
        <ele>218</ele>
        <time>2019-04-14T09:47:10Z</time>
      </trkpt>
      <trkpt lat="44.4276" lon="1.35123">
        <ele>218</ele>
        <time>2019-04-14T09:47:11Z</time>
      </trkpt>
      <trkpt lat="44.42762" lon="1.35122">
        <ele>219</ele>
        <time>2019-04-14T09:47:12Z</time>
      </trkpt>
      <trkpt lat="44.42763" lon="1.35122">
        <ele>219</ele>
        <time>2019-04-14T09:47:13Z</time>
      </trkpt>
      <trkpt lat="44.42765" lon="1.35121">
        <ele>219</ele>
        <time>2019-04-14T09:47:14Z</time>
      </trkpt>
      <trkpt lat="44.42765" lon="1.35121">
        <ele>219</ele>
        <time>2019-04-14T09:47:15Z</time>
      </trkpt>
      <trkpt lat="44.42766" lon="1.35121">
        <ele>219</ele>
        <time>2019-04-14T09:47:16Z</time>
      </trkpt>
      <trkpt lat="44.42768" lon="1.35121">
        <ele>220</ele>
        <time>2019-04-14T09:47:17Z</time>
      </trkpt>
      <trkpt lat="44.42769" lon="1.35121">
        <ele>220</ele>
        <time>2019-04-14T09:47:18Z</time>
      </trkpt>
      <trkpt lat="44.4277" lon="1.35121">
        <ele>220</ele>
        <time>2019-04-14T09:47:19Z</time>
      </trkpt>
      <trkpt lat="44.42771" lon="1.35121">
        <ele>220</ele>
        <time>2019-04-14T09:47:20Z</time>
      </trkpt>
      <trkpt lat="44.42773" lon="1.35121">
        <ele>221</ele>
        <time>2019-04-14T09:47:21Z</time>
      </trkpt>
      <trkpt lat="44.42774" lon="1.3512">
        <ele>221</ele>
        <time>2019-04-14T09:47:22Z</time>
      </trkpt>
      <trkpt lat="44.42776" lon="1.3512">
        <ele>221</ele>
        <time>2019-04-14T09:47:23Z</time>
      </trkpt>
      <trkpt lat="44.42777" lon="1.3512">
        <ele>221</ele>
        <time>2019-04-14T09:47:24Z</time>
      </trkpt>
      <trkpt lat="44.42778" lon="1.3512">
        <ele>222</ele>
        <time>2019-04-14T09:47:25Z</time>
      </trkpt>
      <trkpt lat="44.4278" lon="1.35119">
        <ele>222</ele>
        <time>2019-04-14T09:47:26Z</time>
      </trkpt>
      <trkpt lat="44.42781" lon="1.35119">
        <ele>222</ele>
        <time>2019-04-14T09:47:27Z</time>
      </trkpt>
      <trkpt lat="44.42782" lon="1.35118">
        <ele>222</ele>
        <time>2019-04-14T09:47:28Z</time>
      </trkpt>
      <trkpt lat="44.42784" lon="1.35118">
        <ele>223</ele>
        <time>2019-04-14T09:47:29Z</time>
      </trkpt>
      <trkpt lat="44.42785" lon="1.35118">
        <ele>223</ele>
        <time>2019-04-14T09:47:30Z</time>
      </trkpt>
      <trkpt lat="44.42786" lon="1.35118">
        <ele>223</ele>
        <time>2019-04-14T09:47:31Z</time>
      </trkpt>
      <trkpt lat="44.42787" lon="1.35118">
        <ele>223</ele>
        <time>2019-04-14T09:47:32Z</time>
      </trkpt>
      <trkpt lat="44.42788" lon="1.35118">
        <ele>224</ele>
        <time>2019-04-14T09:47:33Z</time>
      </trkpt>
      <trkpt lat="44.42789" lon="1.35118">
        <ele>224</ele>
        <time>2019-04-14T09:47:34Z</time>
      </trkpt>
      <trkpt lat="44.42789" lon="1.35118">
        <ele>224</ele>
        <time>2019-04-14T09:47:35Z</time>
      </trkpt>
      <trkpt lat="44.4279" lon="1.35118">
        <ele>224</ele>
        <time>2019-04-14T09:47:36Z</time>
      </trkpt>
      <trkpt lat="44.42791" lon="1.35118">
        <ele>225</ele>
        <time>2019-04-14T09:47:37Z</time>
      </trkpt>
      <trkpt lat="44.42792" lon="1.35117">
        <ele>225</ele>
        <time>2019-04-14T09:47:38Z</time>
      </trkpt>
      <trkpt lat="44.42793" lon="1.35117">
        <ele>225</ele>
        <time>2019-04-14T09:47:39Z</time>
      </trkpt>
      <trkpt lat="44.42794" lon="1.35117">
        <ele>226</ele>
        <time>2019-04-14T09:47:40Z</time>
      </trkpt>
      <trkpt lat="44.42796" lon="1.35117">
        <ele>226</ele>
        <time>2019-04-14T09:47:41Z</time>
      </trkpt>
      <trkpt lat="44.42798" lon="1.35117">
        <ele>226</ele>
        <time>2019-04-14T09:47:42Z</time>
      </trkpt>
      <trkpt lat="44.42799" lon="1.35117">
        <ele>226</ele>
        <time>2019-04-14T09:47:43Z</time>
      </trkpt>
      <trkpt lat="44.428" lon="1.35117">
        <ele>227</ele>
        <time>2019-04-14T09:47:44Z</time>
      </trkpt>
      <trkpt lat="44.42801" lon="1.35117">
        <ele>227</ele>
        <time>2019-04-14T09:47:45Z</time>
      </trkpt>
      <trkpt lat="44.42803" lon="1.35117">
        <ele>227</ele>
        <time>2019-04-14T09:47:46Z</time>
      </trkpt>
      <trkpt lat="44.42804" lon="1.35117">
        <ele>227</ele>
        <time>2019-04-14T09:47:47Z</time>
      </trkpt>
      <trkpt lat="44.42805" lon="1.35117">
        <ele>228</ele>
        <time>2019-04-14T09:47:48Z</time>
      </trkpt>
      <trkpt lat="44.42806" lon="1.35117">
        <ele>228</ele>
        <time>2019-04-14T09:47:49Z</time>
      </trkpt>
      <trkpt lat="44.42807" lon="1.35117">
        <ele>228</ele>
        <time>2019-04-14T09:47:50Z</time>
      </trkpt>
      <trkpt lat="44.42808" lon="1.35117">
        <ele>228</ele>
        <time>2019-04-14T09:47:51Z</time>
      </trkpt>
      <trkpt lat="44.42808" lon="1.35118">
        <ele>229</ele>
        <time>2019-04-14T09:47:52Z</time>
      </trkpt>
      <trkpt lat="44.42809" lon="1.35117">
        <ele>229</ele>
        <time>2019-04-14T09:47:53Z</time>
      </trkpt>
      <trkpt lat="44.42811" lon="1.35118">
        <ele>229</ele>
        <time>2019-04-14T09:47:54Z</time>
      </trkpt>
      <trkpt lat="44.42812" lon="1.35118">
        <ele>229</ele>
        <time>2019-04-14T09:47:55Z</time>
      </trkpt>
      <trkpt lat="44.42814" lon="1.35118">
        <ele>229</ele>
        <time>2019-04-14T09:47:56Z</time>
      </trkpt>
      <trkpt lat="44.42814" lon="1.35117">
        <ele>229</ele>
        <time>2019-04-14T09:47:57Z</time>
      </trkpt>
      <trkpt lat="44.42816" lon="1.35116">
        <ele>230</ele>
        <time>2019-04-14T09:47:58Z</time>
      </trkpt>
      <trkpt lat="44.42817" lon="1.35115">
        <ele>230</ele>
        <time>2019-04-14T09:47:59Z</time>
      </trkpt>
      <trkpt lat="44.42818" lon="1.35114">
        <ele>230</ele>
        <time>2019-04-14T09:48:00Z</time>
      </trkpt>
      <trkpt lat="44.42818" lon="1.35112">
        <ele>230</ele>
        <time>2019-04-14T09:48:01Z</time>
      </trkpt>
      <trkpt lat="44.42818" lon="1.35111">
        <ele>230</ele>
        <time>2019-04-14T09:48:02Z</time>
      </trkpt>
      <trkpt lat="44.42818" lon="1.3511">
        <ele>231</ele>
        <time>2019-04-14T09:48:03Z</time>
      </trkpt>
      <trkpt lat="44.42818" lon="1.35109">
        <ele>231</ele>
        <time>2019-04-14T09:48:04Z</time>
      </trkpt>
      <trkpt lat="44.42817" lon="1.35109">
        <ele>231</ele>
        <time>2019-04-14T09:48:05Z</time>
      </trkpt>
      <trkpt lat="44.42816" lon="1.35108">
        <ele>231</ele>
        <time>2019-04-14T09:48:06Z</time>
      </trkpt>
      <trkpt lat="44.42816" lon="1.35107">
        <ele>231</ele>
        <time>2019-04-14T09:48:07Z</time>
      </trkpt>
      <trkpt lat="44.42815" lon="1.35106">
        <ele>231</ele>
        <time>2019-04-14T09:48:08Z</time>
      </trkpt>
      <trkpt lat="44.42814" lon="1.35105">
        <ele>232</ele>
        <time>2019-04-14T09:48:09Z</time>
      </trkpt>
      <trkpt lat="44.42814" lon="1.35105">
        <ele>232</ele>
        <time>2019-04-14T09:48:10Z</time>
      </trkpt>
      <trkpt lat="44.42814" lon="1.35104">
        <ele>232</ele>
        <time>2019-04-14T09:48:11Z</time>
      </trkpt>
      <trkpt lat="44.42814" lon="1.35102">
        <ele>232</ele>
        <time>2019-04-14T09:48:12Z</time>
      </trkpt>
      <trkpt lat="44.42814" lon="1.35101">
        <ele>232</ele>
        <time>2019-04-14T09:48:13Z</time>
      </trkpt>
      <trkpt lat="44.42814" lon="1.351">
        <ele>232</ele>
        <time>2019-04-14T09:48:14Z</time>
      </trkpt>
      <trkpt lat="44.42814" lon="1.35098">
        <ele>232</ele>
        <time>2019-04-14T09:48:15Z</time>
      </trkpt>
      <trkpt lat="44.42815" lon="1.35097">
        <ele>232</ele>
        <time>2019-04-14T09:48:16Z</time>
      </trkpt>
      <trkpt lat="44.42815" lon="1.35096">
        <ele>232</ele>
        <time>2019-04-14T09:48:17Z</time>
      </trkpt>
      <trkpt lat="44.42815" lon="1.35095">
        <ele>232</ele>
        <time>2019-04-14T09:48:18Z</time>
      </trkpt>
      <trkpt lat="44.42816" lon="1.35093">
        <ele>233</ele>
        <time>2019-04-14T09:48:19Z</time>
      </trkpt>
      <trkpt lat="44.42816" lon="1.35092">
        <ele>233</ele>
        <time>2019-04-14T09:48:20Z</time>
      </trkpt>
      <trkpt lat="44.42817" lon="1.3509">
        <ele>233</ele>
        <time>2019-04-14T09:48:21Z</time>
      </trkpt>
      <trkpt lat="44.42818" lon="1.35089">
        <ele>233</ele>
        <time>2019-04-14T09:48:22Z</time>
      </trkpt>
      <trkpt lat="44.42819" lon="1.35088">
        <ele>233</ele>
        <time>2019-04-14T09:48:23Z</time>
      </trkpt>
      <trkpt lat="44.42819" lon="1.35087">
        <ele>233</ele>
        <time>2019-04-14T09:48:24Z</time>
      </trkpt>
      <trkpt lat="44.4282" lon="1.35086">
        <ele>233</ele>
        <time>2019-04-14T09:48:25Z</time>
      </trkpt>
      <trkpt lat="44.4282" lon="1.35086">
        <ele>233</ele>
        <time>2019-04-14T09:48:26Z</time>
      </trkpt>
      <trkpt lat="44.42821" lon="1.35086">
        <ele>233</ele>
        <time>2019-04-14T09:48:27Z</time>
      </trkpt>
      <trkpt lat="44.42821" lon="1.35087">
        <ele>233</ele>
        <time>2019-04-14T09:48:28Z</time>
      </trkpt>
      <trkpt lat="44.42821" lon="1.35087">
        <ele>233</ele>
        <time>2019-04-14T09:48:29Z</time>
      </trkpt>
      <trkpt lat="44.42821" lon="1.35086">
        <ele>233</ele>
        <time>2019-04-14T09:48:30Z</time>
      </trkpt>
      <trkpt lat="44.42821" lon="1.35086">
        <ele>233</ele>
        <time>2019-04-14T09:48:31Z</time>
      </trkpt>
      <trkpt lat="44.42821" lon="1.35086">
        <ele>233</ele>
        <time>2019-04-14T09:48:32Z</time>
      </trkpt>
      <trkpt lat="44.4282" lon="1.35086">
        <ele>233</ele>
        <time>2019-04-14T09:48:33Z</time>
      </trkpt>
      <trkpt lat="44.42819" lon="1.35079">
        <ele>234</ele>
        <time>2019-04-14T09:53:17Z</time>
      </trkpt>
      <trkpt lat="44.42818" lon="1.35079">
        <ele>234</ele>
        <time>2019-04-14T09:53:18Z</time>
      </trkpt>
      <trkpt lat="44.42817" lon="1.35078">
        <ele>234</ele>
        <time>2019-04-14T09:53:19Z</time>
      </trkpt>
      <trkpt lat="44.42816" lon="1.35078">
        <ele>234</ele>
        <time>2019-04-14T09:53:20Z</time>
      </trkpt>
      <trkpt lat="44.42814" lon="1.35078">
        <ele>234</ele>
        <time>2019-04-14T09:53:21Z</time>
      </trkpt>
      <trkpt lat="44.42813" lon="1.35077">
        <ele>234</ele>
        <time>2019-04-14T09:53:22Z</time>
      </trkpt>
      <trkpt lat="44.42811" lon="1.35076">
        <ele>234</ele>
        <time>2019-04-14T09:53:23Z</time>
      </trkpt>
      <trkpt lat="44.4281" lon="1.35074">
        <ele>234</ele>
        <time>2019-04-14T09:53:24Z</time>
      </trkpt>
      <trkpt lat="44.42808" lon="1.35074">
        <ele>234</ele>
        <time>2019-04-14T09:53:25Z</time>
      </trkpt>
      <trkpt lat="44.42806" lon="1.35073">
        <ele>234</ele>
        <time>2019-04-14T09:53:26Z</time>
      </trkpt>
      <trkpt lat="44.42805" lon="1.35072">
        <ele>235</ele>
        <time>2019-04-14T09:53:27Z</time>
      </trkpt>
      <trkpt lat="44.42803" lon="1.35071">
        <ele>235</ele>
        <time>2019-04-14T09:53:28Z</time>
      </trkpt>
      <trkpt lat="44.42801" lon="1.35069">
        <ele>235</ele>
        <time>2019-04-14T09:53:29Z</time>
      </trkpt>
      <trkpt lat="44.42799" lon="1.35069">
        <ele>235</ele>
        <time>2019-04-14T09:53:30Z</time>
      </trkpt>
      <trkpt lat="44.42798" lon="1.35069">
        <ele>235</ele>
        <time>2019-04-14T09:53:31Z</time>
      </trkpt>
      <trkpt lat="44.42796" lon="1.35068">
        <ele>235</ele>
        <time>2019-04-14T09:53:32Z</time>
      </trkpt>
      <trkpt lat="44.42794" lon="1.35068">
        <ele>235</ele>
        <time>2019-04-14T09:53:33Z</time>
      </trkpt>
      <trkpt lat="44.42793" lon="1.35067">
        <ele>236</ele>
        <time>2019-04-14T09:53:34Z</time>
      </trkpt>
      <trkpt lat="44.42791" lon="1.35067">
        <ele>236</ele>
        <time>2019-04-14T09:53:35Z</time>
      </trkpt>
      <trkpt lat="44.42789" lon="1.35067">
        <ele>236</ele>
        <time>2019-04-14T09:53:36Z</time>
      </trkpt>
      <trkpt lat="44.42787" lon="1.35067">
        <ele>236</ele>
        <time>2019-04-14T09:53:37Z</time>
      </trkpt>
      <trkpt lat="44.42785" lon="1.35066">
        <ele>236</ele>
        <time>2019-04-14T09:53:38Z</time>
      </trkpt>
      <trkpt lat="44.42783" lon="1.35066">
        <ele>236</ele>
        <time>2019-04-14T09:53:39Z</time>
      </trkpt>
      <trkpt lat="44.42782" lon="1.35065">
        <ele>236</ele>
        <time>2019-04-14T09:53:40Z</time>
      </trkpt>
      <trkpt lat="44.42781" lon="1.35065">
        <ele>236</ele>
        <time>2019-04-14T09:53:41Z</time>
      </trkpt>
      <trkpt lat="44.42779" lon="1.35064">
        <ele>237</ele>
        <time>2019-04-14T09:53:42Z</time>
      </trkpt>
      <trkpt lat="44.42778" lon="1.35064">
        <ele>237</ele>
        <time>2019-04-14T09:53:43Z</time>
      </trkpt>
      <trkpt lat="44.42777" lon="1.35063">
        <ele>237</ele>
        <time>2019-04-14T09:53:44Z</time>
      </trkpt>
      <trkpt lat="44.42776" lon="1.35062">
        <ele>237</ele>
        <time>2019-04-14T09:53:45Z</time>
      </trkpt>
      <trkpt lat="44.42775" lon="1.35061">
        <ele>237</ele>
        <time>2019-04-14T09:53:46Z</time>
      </trkpt>
      <trkpt lat="44.42773" lon="1.35061">
        <ele>237</ele>
        <time>2019-04-14T09:53:47Z</time>
      </trkpt>
      <trkpt lat="44.42772" lon="1.3506">
        <ele>238</ele>
        <time>2019-04-14T09:53:48Z</time>
      </trkpt>
      <trkpt lat="44.4277" lon="1.35059">
        <ele>238</ele>
        <time>2019-04-14T09:53:49Z</time>
      </trkpt>
      <trkpt lat="44.42769" lon="1.35058">
        <ele>238</ele>
        <time>2019-04-14T09:53:50Z</time>
      </trkpt>
      <trkpt lat="44.42768" lon="1.35058">
        <ele>238</ele>
        <time>2019-04-14T09:53:51Z</time>
      </trkpt>
      <trkpt lat="44.42766" lon="1.35057">
        <ele>238</ele>
        <time>2019-04-14T09:53:52Z</time>
      </trkpt>
      <trkpt lat="44.42765" lon="1.35056">
        <ele>238</ele>
        <time>2019-04-14T09:53:53Z</time>
      </trkpt>
      <trkpt lat="44.42764" lon="1.35056">
        <ele>239</ele>
        <time>2019-04-14T09:53:54Z</time>
      </trkpt>
      <trkpt lat="44.42763" lon="1.35055">
        <ele>239</ele>
        <time>2019-04-14T09:53:55Z</time>
      </trkpt>
      <trkpt lat="44.42761" lon="1.35054">
        <ele>239</ele>
        <time>2019-04-14T09:53:56Z</time>
      </trkpt>
      <trkpt lat="44.4276" lon="1.35053">
        <ele>239</ele>
        <time>2019-04-14T09:53:57Z</time>
      </trkpt>
      <trkpt lat="44.42758" lon="1.35052">
        <ele>239</ele>
        <time>2019-04-14T09:53:58Z</time>
      </trkpt>
      <trkpt lat="44.42757" lon="1.35051">
        <ele>239</ele>
        <time>2019-04-14T09:53:59Z</time>
      </trkpt>
      <trkpt lat="44.42756" lon="1.3505">
        <ele>240</ele>
        <time>2019-04-14T09:54:00Z</time>
      </trkpt>
      <trkpt lat="44.42754" lon="1.3505">
        <ele>240</ele>
        <time>2019-04-14T09:54:01Z</time>
      </trkpt>
      <trkpt lat="44.42753" lon="1.35049">
        <ele>240</ele>
        <time>2019-04-14T09:54:02Z</time>
      </trkpt>
      <trkpt lat="44.42752" lon="1.35048">
        <ele>240</ele>
        <time>2019-04-14T09:54:03Z</time>
      </trkpt>
      <trkpt lat="44.4275" lon="1.35048">
        <ele>241</ele>
        <time>2019-04-14T09:54:04Z</time>
      </trkpt>
      <trkpt lat="44.42749" lon="1.35047">
        <ele>241</ele>
        <time>2019-04-14T09:54:05Z</time>
      </trkpt>
      <trkpt lat="44.42748" lon="1.35047">
        <ele>241</ele>
        <time>2019-04-14T09:54:06Z</time>
      </trkpt>
      <trkpt lat="44.42747" lon="1.35046">
        <ele>241</ele>
        <time>2019-04-14T09:54:07Z</time>
      </trkpt>
      <trkpt lat="44.42745" lon="1.35045">
        <ele>241</ele>
        <time>2019-04-14T09:54:08Z</time>
      </trkpt>
      <trkpt lat="44.42744" lon="1.35045">
        <ele>242</ele>
        <time>2019-04-14T09:54:09Z</time>
      </trkpt>
      <trkpt lat="44.42742" lon="1.35044">
        <ele>242</ele>
        <time>2019-04-14T09:54:10Z</time>
      </trkpt>
      <trkpt lat="44.42741" lon="1.35044">
        <ele>242</ele>
        <time>2019-04-14T09:54:11Z</time>
      </trkpt>
      <trkpt lat="44.4274" lon="1.35043">
        <ele>242</ele>
        <time>2019-04-14T09:54:12Z</time>
      </trkpt>
      <trkpt lat="44.42739" lon="1.35043">
        <ele>243</ele>
        <time>2019-04-14T09:54:13Z</time>
      </trkpt>
      <trkpt lat="44.42738" lon="1.35042">
        <ele>243</ele>
        <time>2019-04-14T09:54:14Z</time>
      </trkpt>
      <trkpt lat="44.42736" lon="1.35042">
        <ele>243</ele>
        <time>2019-04-14T09:54:15Z</time>
      </trkpt>
      <trkpt lat="44.42735" lon="1.35042">
        <ele>243</ele>
        <time>2019-04-14T09:54:16Z</time>
      </trkpt>
      <trkpt lat="44.42734" lon="1.35041">
        <ele>243</ele>
        <time>2019-04-14T09:54:17Z</time>
      </trkpt>
      <trkpt lat="44.42732" lon="1.35041">
        <ele>243</ele>
        <time>2019-04-14T09:54:18Z</time>
      </trkpt>
      <trkpt lat="44.42731" lon="1.3504">
        <ele>244</ele>
        <time>2019-04-14T09:54:19Z</time>
      </trkpt>
      <trkpt lat="44.4273" lon="1.3504">
        <ele>244</ele>
        <time>2019-04-14T09:54:20Z</time>
      </trkpt>
      <trkpt lat="44.42729" lon="1.3504">
        <ele>244</ele>
        <time>2019-04-14T09:54:21Z</time>
      </trkpt>
      <trkpt lat="44.42728" lon="1.35039">
        <ele>244</ele>
        <time>2019-04-14T09:54:22Z</time>
      </trkpt>
      <trkpt lat="44.42727" lon="1.35038">
        <ele>244</ele>
        <time>2019-04-14T09:54:23Z</time>
      </trkpt>
      <trkpt lat="44.42727" lon="1.35038">
        <ele>245</ele>
        <time>2019-04-14T09:54:24Z</time>
      </trkpt>
      <trkpt lat="44.42726" lon="1.35038">
        <ele>245</ele>
        <time>2019-04-14T09:54:25Z</time>
      </trkpt>
      <trkpt lat="44.42724" lon="1.35037">
        <ele>245</ele>
        <time>2019-04-14T09:54:26Z</time>
      </trkpt>
      <trkpt lat="44.42723" lon="1.35037">
        <ele>245</ele>
        <time>2019-04-14T09:54:27Z</time>
      </trkpt>
      <trkpt lat="44.42722" lon="1.35037">
        <ele>245</ele>
        <time>2019-04-14T09:54:28Z</time>
      </trkpt>
      <trkpt lat="44.4272" lon="1.35037">
        <ele>245</ele>
        <time>2019-04-14T09:54:29Z</time>
      </trkpt>
      <trkpt lat="44.42719" lon="1.35036">
        <ele>246</ele>
        <time>2019-04-14T09:54:30Z</time>
      </trkpt>
      <trkpt lat="44.42717" lon="1.35036">
        <ele>246</ele>
        <time>2019-04-14T09:54:31Z</time>
      </trkpt>
      <trkpt lat="44.42716" lon="1.35035">
        <ele>246</ele>
        <time>2019-04-14T09:54:32Z</time>
      </trkpt>
      <trkpt lat="44.42714" lon="1.35034">
        <ele>246</ele>
        <time>2019-04-14T09:54:33Z</time>
      </trkpt>
      <trkpt lat="44.42713" lon="1.35034">
        <ele>246</ele>
        <time>2019-04-14T09:54:34Z</time>
      </trkpt>
      <trkpt lat="44.42712" lon="1.35033">
        <ele>246</ele>
        <time>2019-04-14T09:54:35Z</time>
      </trkpt>
      <trkpt lat="44.42711" lon="1.35033">
        <ele>247</ele>
        <time>2019-04-14T09:54:36Z</time>
      </trkpt>
      <trkpt lat="44.42709" lon="1.35033">
        <ele>247</ele>
        <time>2019-04-14T09:54:37Z</time>
      </trkpt>
      <trkpt lat="44.42707" lon="1.35032">
        <ele>247</ele>
        <time>2019-04-14T09:54:38Z</time>
      </trkpt>
      <trkpt lat="44.42706" lon="1.35032">
        <ele>247</ele>
        <time>2019-04-14T09:54:39Z</time>
      </trkpt>
      <trkpt lat="44.42705" lon="1.35032">
        <ele>247</ele>
        <time>2019-04-14T09:54:40Z</time>
      </trkpt>
      <trkpt lat="44.42704" lon="1.35031">
        <ele>248</ele>
        <time>2019-04-14T09:54:41Z</time>
      </trkpt>
      <trkpt lat="44.42702" lon="1.3503">
        <ele>248</ele>
        <time>2019-04-14T09:54:42Z</time>
      </trkpt>
      <trkpt lat="44.427" lon="1.3503">
        <ele>248</ele>
        <time>2019-04-14T09:54:43Z</time>
      </trkpt>
      <trkpt lat="44.42699" lon="1.3503">
        <ele>249</ele>
        <time>2019-04-14T09:54:44Z</time>
      </trkpt>
      <trkpt lat="44.42698" lon="1.35031">
        <ele>249</ele>
        <time>2019-04-14T09:54:45Z</time>
      </trkpt>
      <trkpt lat="44.42697" lon="1.3503">
        <ele>249</ele>
        <time>2019-04-14T09:54:46Z</time>
      </trkpt>
      <trkpt lat="44.42695" lon="1.3503">
        <ele>249</ele>
        <time>2019-04-14T09:54:47Z</time>
      </trkpt>
      <trkpt lat="44.42694" lon="1.3503">
        <ele>249</ele>
        <time>2019-04-14T09:54:48Z</time>
      </trkpt>
      <trkpt lat="44.42692" lon="1.3503">
        <ele>249</ele>
        <time>2019-04-14T09:54:49Z</time>
      </trkpt>
      <trkpt lat="44.42691" lon="1.3503">
        <ele>249</ele>
        <time>2019-04-14T09:54:50Z</time>
      </trkpt>
      <trkpt lat="44.42689" lon="1.3503">
        <ele>250</ele>
        <time>2019-04-14T09:54:51Z</time>
      </trkpt>
      <trkpt lat="44.42688" lon="1.3503">
        <ele>250</ele>
        <time>2019-04-14T09:54:52Z</time>
      </trkpt>
      <trkpt lat="44.42686" lon="1.3503">
        <ele>250</ele>
        <time>2019-04-14T09:54:53Z</time>
      </trkpt>
      <trkpt lat="44.42685" lon="1.3503">
        <ele>250</ele>
        <time>2019-04-14T09:54:54Z</time>
      </trkpt>
      <trkpt lat="44.42683" lon="1.3503">
        <ele>250</ele>
        <time>2019-04-14T09:54:55Z</time>
      </trkpt>
      <trkpt lat="44.42682" lon="1.3503">
        <ele>251</ele>
        <time>2019-04-14T09:54:56Z</time>
      </trkpt>
      <trkpt lat="44.4268" lon="1.3503">
        <ele>251</ele>
        <time>2019-04-14T09:54:57Z</time>
      </trkpt>
      <trkpt lat="44.42679" lon="1.3503">
        <ele>251</ele>
        <time>2019-04-14T09:54:58Z</time>
      </trkpt>
      <trkpt lat="44.42678" lon="1.3503">
        <ele>251</ele>
        <time>2019-04-14T09:54:59Z</time>
      </trkpt>
      <trkpt lat="44.42677" lon="1.35029">
        <ele>251</ele>
        <time>2019-04-14T09:55:00Z</time>
      </trkpt>
      <trkpt lat="44.42675" lon="1.35029">
        <ele>251</ele>
        <time>2019-04-14T09:55:01Z</time>
      </trkpt>
      <trkpt lat="44.42674" lon="1.35029">
        <ele>252</ele>
        <time>2019-04-14T09:55:02Z</time>
      </trkpt>
      <trkpt lat="44.42673" lon="1.35029">
        <ele>252</ele>
        <time>2019-04-14T09:55:03Z</time>
      </trkpt>
      <trkpt lat="44.42671" lon="1.35029">
        <ele>252</ele>
        <time>2019-04-14T09:55:04Z</time>
      </trkpt>
      <trkpt lat="44.4267" lon="1.35029">
        <ele>252</ele>
        <time>2019-04-14T09:55:05Z</time>
      </trkpt>
      <trkpt lat="44.42669" lon="1.35028">
        <ele>252</ele>
        <time>2019-04-14T09:55:06Z</time>
      </trkpt>
      <trkpt lat="44.42667" lon="1.35028">
        <ele>252</ele>
        <time>2019-04-14T09:55:07Z</time>
      </trkpt>
      <trkpt lat="44.42666" lon="1.35028">
        <ele>253</ele>
        <time>2019-04-14T09:55:08Z</time>
      </trkpt>
      <trkpt lat="44.42665" lon="1.35028">
        <ele>253</ele>
        <time>2019-04-14T09:55:09Z</time>
      </trkpt>
      <trkpt lat="44.42664" lon="1.35027">
        <ele>253</ele>
        <time>2019-04-14T09:55:10Z</time>
      </trkpt>
      <trkpt lat="44.42663" lon="1.35028">
        <ele>253</ele>
        <time>2019-04-14T09:55:11Z</time>
      </trkpt>
      <trkpt lat="44.42661" lon="1.35028">
        <ele>253</ele>
        <time>2019-04-14T09:55:12Z</time>
      </trkpt>
      <trkpt lat="44.4266" lon="1.35028">
        <ele>253</ele>
        <time>2019-04-14T09:55:13Z</time>
      </trkpt>
      <trkpt lat="44.42659" lon="1.35028">
        <ele>253</ele>
        <time>2019-04-14T09:55:14Z</time>
      </trkpt>
      <trkpt lat="44.42658" lon="1.35028">
        <ele>254</ele>
        <time>2019-04-14T09:55:15Z</time>
      </trkpt>
      <trkpt lat="44.42657" lon="1.35029">
        <ele>254</ele>
        <time>2019-04-14T09:55:16Z</time>
      </trkpt>
      <trkpt lat="44.42656" lon="1.35028">
        <ele>254</ele>
        <time>2019-04-14T09:55:17Z</time>
      </trkpt>
      <trkpt lat="44.42654" lon="1.35028">
        <ele>254</ele>
        <time>2019-04-14T09:55:18Z</time>
      </trkpt>
      <trkpt lat="44.42653" lon="1.35028">
        <ele>254</ele>
        <time>2019-04-14T09:55:19Z</time>
      </trkpt>
      <trkpt lat="44.42651" lon="1.35028">
        <ele>254</ele>
        <time>2019-04-14T09:55:20Z</time>
      </trkpt>
      <trkpt lat="44.4265" lon="1.35028">
        <ele>255</ele>
        <time>2019-04-14T09:55:21Z</time>
      </trkpt>
      <trkpt lat="44.42648" lon="1.35028">
        <ele>255</ele>
        <time>2019-04-14T09:55:22Z</time>
      </trkpt>
      <trkpt lat="44.42647" lon="1.35028">
        <ele>255</ele>
        <time>2019-04-14T09:55:23Z</time>
      </trkpt>
      <trkpt lat="44.42646" lon="1.35028">
        <ele>255</ele>
        <time>2019-04-14T09:55:24Z</time>
      </trkpt>
      <trkpt lat="44.42645" lon="1.35028">
        <ele>255</ele>
        <time>2019-04-14T09:55:25Z</time>
      </trkpt>
      <trkpt lat="44.42643" lon="1.35028">
        <ele>255</ele>
        <time>2019-04-14T09:55:26Z</time>
      </trkpt>
      <trkpt lat="44.42642" lon="1.35028">
        <ele>255</ele>
        <time>2019-04-14T09:55:27Z</time>
      </trkpt>
      <trkpt lat="44.42641" lon="1.35028">
        <ele>256</ele>
        <time>2019-04-14T09:55:28Z</time>
      </trkpt>
      <trkpt lat="44.42639" lon="1.35028">
        <ele>256</ele>
        <time>2019-04-14T09:55:29Z</time>
      </trkpt>
      <trkpt lat="44.42638" lon="1.35028">
        <ele>256</ele>
        <time>2019-04-14T09:55:30Z</time>
      </trkpt>
      <trkpt lat="44.42636" lon="1.35028">
        <ele>256</ele>
        <time>2019-04-14T09:55:31Z</time>
      </trkpt>
      <trkpt lat="44.42635" lon="1.35028">
        <ele>256</ele>
        <time>2019-04-14T09:55:32Z</time>
      </trkpt>
      <trkpt lat="44.42633" lon="1.35028">
        <ele>257</ele>
        <time>2019-04-14T09:55:33Z</time>
      </trkpt>
      <trkpt lat="44.42632" lon="1.35028">
        <ele>257</ele>
        <time>2019-04-14T09:55:34Z</time>
      </trkpt>
      <trkpt lat="44.42631" lon="1.35028">
        <ele>257</ele>
        <time>2019-04-14T09:55:35Z</time>
      </trkpt>
      <trkpt lat="44.42629" lon="1.35027">
        <ele>257</ele>
        <time>2019-04-14T09:55:36Z</time>
      </trkpt>
      <trkpt lat="44.42628" lon="1.35027">
        <ele>257</ele>
        <time>2019-04-14T09:55:37Z</time>
      </trkpt>
      <trkpt lat="44.42626" lon="1.35027">
        <ele>257</ele>
        <time>2019-04-14T09:55:38Z</time>
      </trkpt>
      <trkpt lat="44.42625" lon="1.35027">
        <ele>258</ele>
        <time>2019-04-14T09:55:39Z</time>
      </trkpt>
      <trkpt lat="44.42623" lon="1.35027">
        <ele>258</ele>
        <time>2019-04-14T09:55:40Z</time>
      </trkpt>
      <trkpt lat="44.42621" lon="1.35027">
        <ele>258</ele>
        <time>2019-04-14T09:55:41Z</time>
      </trkpt>
      <trkpt lat="44.4262" lon="1.35027">
        <ele>258</ele>
        <time>2019-04-14T09:55:42Z</time>
      </trkpt>
      <trkpt lat="44.42618" lon="1.35027">
        <ele>258</ele>
        <time>2019-04-14T09:55:43Z</time>
      </trkpt>
      <trkpt lat="44.42617" lon="1.35027">
        <ele>259</ele>
        <time>2019-04-14T09:55:44Z</time>
      </trkpt>
      <trkpt lat="44.42616" lon="1.35027">
        <ele>259</ele>
        <time>2019-04-14T09:55:45Z</time>
      </trkpt>
      <trkpt lat="44.42614" lon="1.35027">
        <ele>259</ele>
        <time>2019-04-14T09:55:46Z</time>
      </trkpt>
      <trkpt lat="44.42613" lon="1.35026">
        <ele>259</ele>
        <time>2019-04-14T09:55:47Z</time>
      </trkpt>
      <trkpt lat="44.42612" lon="1.35026">
        <ele>259</ele>
        <time>2019-04-14T09:55:48Z</time>
      </trkpt>
      <trkpt lat="44.4261" lon="1.35026">
        <ele>259</ele>
        <time>2019-04-14T09:55:49Z</time>
      </trkpt>
      <trkpt lat="44.42608" lon="1.35027">
        <ele>259</ele>
        <time>2019-04-14T09:55:50Z</time>
      </trkpt>
      <trkpt lat="44.42607" lon="1.35027">
        <ele>260</ele>
        <time>2019-04-14T09:55:51Z</time>
      </trkpt>
      <trkpt lat="44.42605" lon="1.35028">
        <ele>260</ele>
        <time>2019-04-14T09:55:52Z</time>
      </trkpt>
      <trkpt lat="44.42603" lon="1.35028">
        <ele>260</ele>
        <time>2019-04-14T09:55:53Z</time>
      </trkpt>
      <trkpt lat="44.42602" lon="1.35028">
        <ele>260</ele>
        <time>2019-04-14T09:55:54Z</time>
      </trkpt>
      <trkpt lat="44.426" lon="1.35027">
        <ele>260</ele>
        <time>2019-04-14T09:55:55Z</time>
      </trkpt>
      <trkpt lat="44.42599" lon="1.35027">
        <ele>260</ele>
        <time>2019-04-14T09:55:56Z</time>
      </trkpt>
      <trkpt lat="44.42598" lon="1.35027">
        <ele>260</ele>
        <time>2019-04-14T09:55:57Z</time>
      </trkpt>
      <trkpt lat="44.42596" lon="1.35027">
        <ele>261</ele>
        <time>2019-04-14T09:55:58Z</time>
      </trkpt>
      <trkpt lat="44.42595" lon="1.35028">
        <ele>261</ele>
        <time>2019-04-14T09:55:59Z</time>
      </trkpt>
      <trkpt lat="44.42594" lon="1.35028">
        <ele>261</ele>
        <time>2019-04-14T09:56:00Z</time>
      </trkpt>
      <trkpt lat="44.42592" lon="1.35028">
        <ele>261</ele>
        <time>2019-04-14T09:56:01Z</time>
      </trkpt>
      <trkpt lat="44.42592" lon="1.35028">
        <ele>261</ele>
        <time>2019-04-14T09:56:02Z</time>
      </trkpt>
      <trkpt lat="44.42591" lon="1.35029">
        <ele>261</ele>
        <time>2019-04-14T09:56:03Z</time>
      </trkpt>
      <trkpt lat="44.42589" lon="1.35029">
        <ele>261</ele>
        <time>2019-04-14T09:56:04Z</time>
      </trkpt>
      <trkpt lat="44.42588" lon="1.3503">
        <ele>261</ele>
        <time>2019-04-14T09:56:05Z</time>
      </trkpt>
      <trkpt lat="44.42587" lon="1.35031">
        <ele>262</ele>
        <time>2019-04-14T09:56:06Z</time>
      </trkpt>
      <trkpt lat="44.42586" lon="1.35031">
        <ele>262</ele>
        <time>2019-04-14T09:56:07Z</time>
      </trkpt>
      <trkpt lat="44.42585" lon="1.35031">
        <ele>262</ele>
        <time>2019-04-14T09:56:08Z</time>
      </trkpt>
      <trkpt lat="44.42584" lon="1.35031">
        <ele>262</ele>
        <time>2019-04-14T09:56:09Z</time>
      </trkpt>
      <trkpt lat="44.42582" lon="1.35031">
        <ele>262</ele>
        <time>2019-04-14T09:56:10Z</time>
      </trkpt>
      <trkpt lat="44.42581" lon="1.35032">
        <ele>262</ele>
        <time>2019-04-14T09:56:11Z</time>
      </trkpt>
      <trkpt lat="44.4258" lon="1.35032">
        <ele>262</ele>
        <time>2019-04-14T09:56:12Z</time>
      </trkpt>
      <trkpt lat="44.42578" lon="1.35031">
        <ele>263</ele>
        <time>2019-04-14T09:56:13Z</time>
      </trkpt>
      <trkpt lat="44.42577" lon="1.3503">
        <ele>263</ele>
        <time>2019-04-14T09:56:14Z</time>
      </trkpt>
      <trkpt lat="44.42575" lon="1.3503">
        <ele>263</ele>
        <time>2019-04-14T09:56:15Z</time>
      </trkpt>
      <trkpt lat="44.42573" lon="1.35029">
        <ele>263</ele>
        <time>2019-04-14T09:56:16Z</time>
      </trkpt>
      <trkpt lat="44.42572" lon="1.35027">
        <ele>263</ele>
        <time>2019-04-14T09:56:17Z</time>
      </trkpt>
      <trkpt lat="44.42571" lon="1.35026">
        <ele>264</ele>
        <time>2019-04-14T09:56:18Z</time>
      </trkpt>
      <trkpt lat="44.42571" lon="1.35024">
        <ele>264</ele>
        <time>2019-04-14T09:56:19Z</time>
      </trkpt>
      <trkpt lat="44.4257" lon="1.35022">
        <ele>264</ele>
        <time>2019-04-14T09:56:20Z</time>
      </trkpt>
      <trkpt lat="44.4257" lon="1.3502">
        <ele>264</ele>
        <time>2019-04-14T09:56:21Z</time>
      </trkpt>
      <trkpt lat="44.4257" lon="1.35018">
        <ele>264</ele>
        <time>2019-04-14T09:56:22Z</time>
      </trkpt>
      <trkpt lat="44.42569" lon="1.35016">
        <ele>264</ele>
        <time>2019-04-14T09:56:23Z</time>
      </trkpt>
      <trkpt lat="44.42569" lon="1.35013">
        <ele>264</ele>
        <time>2019-04-14T09:56:24Z</time>
      </trkpt>
      <trkpt lat="44.42568" lon="1.35011">
        <ele>264</ele>
        <time>2019-04-14T09:56:25Z</time>
      </trkpt>
      <trkpt lat="44.42568" lon="1.35009">
        <ele>265</ele>
        <time>2019-04-14T09:56:26Z</time>
      </trkpt>
      <trkpt lat="44.42567" lon="1.35006">
        <ele>265</ele>
        <time>2019-04-14T09:56:27Z</time>
      </trkpt>
      <trkpt lat="44.42567" lon="1.35004">
        <ele>265</ele>
        <time>2019-04-14T09:56:28Z</time>
      </trkpt>
      <trkpt lat="44.42567" lon="1.35001">
        <ele>265</ele>
        <time>2019-04-14T09:56:29Z</time>
      </trkpt>
      <trkpt lat="44.42567" lon="1.34999">
        <ele>265</ele>
        <time>2019-04-14T09:56:30Z</time>
      </trkpt>
      <trkpt lat="44.42566" lon="1.34997">
        <ele>265</ele>
        <time>2019-04-14T09:56:31Z</time>
      </trkpt>
      <trkpt lat="44.42566" lon="1.34995">
        <ele>265</ele>
        <time>2019-04-14T09:56:32Z</time>
      </trkpt>
      <trkpt lat="44.42565" lon="1.34992">
        <ele>265</ele>
        <time>2019-04-14T09:56:33Z</time>
      </trkpt>
      <trkpt lat="44.42565" lon="1.3499">
        <ele>265</ele>
        <time>2019-04-14T09:56:34Z</time>
      </trkpt>
      <trkpt lat="44.42564" lon="1.34988">
        <ele>265</ele>
        <time>2019-04-14T09:56:35Z</time>
      </trkpt>
      <trkpt lat="44.42565" lon="1.34985">
        <ele>265</ele>
        <time>2019-04-14T09:56:36Z</time>
      </trkpt>
      <trkpt lat="44.42565" lon="1.34983">
        <ele>265</ele>
        <time>2019-04-14T09:56:37Z</time>
      </trkpt>
      <trkpt lat="44.42564" lon="1.3498">
        <ele>265</ele>
        <time>2019-04-14T09:56:38Z</time>
      </trkpt>
      <trkpt lat="44.42563" lon="1.34978">
        <ele>266</ele>
        <time>2019-04-14T09:56:39Z</time>
      </trkpt>
      <trkpt lat="44.42563" lon="1.34976">
        <ele>266</ele>
        <time>2019-04-14T09:56:40Z</time>
      </trkpt>
      <trkpt lat="44.42562" lon="1.34974">
        <ele>266</ele>
        <time>2019-04-14T09:56:41Z</time>
      </trkpt>
      <trkpt lat="44.42561" lon="1.34971">
        <ele>266</ele>
        <time>2019-04-14T09:56:42Z</time>
      </trkpt>
      <trkpt lat="44.4256" lon="1.34969">
        <ele>266</ele>
        <time>2019-04-14T09:56:43Z</time>
      </trkpt>
      <trkpt lat="44.4256" lon="1.34966">
        <ele>266</ele>
        <time>2019-04-14T09:56:44Z</time>
      </trkpt>
      <trkpt lat="44.4256" lon="1.34963">
        <ele>266</ele>
        <time>2019-04-14T09:56:45Z</time>
      </trkpt>
      <trkpt lat="44.4256" lon="1.3496">
        <ele>266</ele>
        <time>2019-04-14T09:56:46Z</time>
      </trkpt>
      <trkpt lat="44.42559" lon="1.34958">
        <ele>266</ele>
        <time>2019-04-14T09:56:47Z</time>
      </trkpt>
      <trkpt lat="44.42558" lon="1.34955">
        <ele>266</ele>
        <time>2019-04-14T09:56:48Z</time>
      </trkpt>
      <trkpt lat="44.42558" lon="1.34952">
        <ele>266</ele>
        <time>2019-04-14T09:56:49Z</time>
      </trkpt>
      <trkpt lat="44.42557" lon="1.34949">
        <ele>265</ele>
        <time>2019-04-14T09:56:50Z</time>
      </trkpt>
      <trkpt lat="44.42556" lon="1.34946">
        <ele>265</ele>
        <time>2019-04-14T09:56:51Z</time>
      </trkpt>
      <trkpt lat="44.42555" lon="1.34943">
        <ele>265</ele>
        <time>2019-04-14T09:56:52Z</time>
      </trkpt>
      <trkpt lat="44.42555" lon="1.3494">
        <ele>265</ele>
        <time>2019-04-14T09:56:53Z</time>
      </trkpt>
      <trkpt lat="44.42554" lon="1.34937">
        <ele>265</ele>
        <time>2019-04-14T09:56:54Z</time>
      </trkpt>
      <trkpt lat="44.42553" lon="1.34933">
        <ele>265</ele>
        <time>2019-04-14T09:56:55Z</time>
      </trkpt>
      <trkpt lat="44.42552" lon="1.34929">
        <ele>265</ele>
        <time>2019-04-14T09:56:56Z</time>
      </trkpt>
      <trkpt lat="44.42551" lon="1.34926">
        <ele>265</ele>
        <time>2019-04-14T09:56:57Z</time>
      </trkpt>
      <trkpt lat="44.4255" lon="1.34922">
        <ele>265</ele>
        <time>2019-04-14T09:56:58Z</time>
      </trkpt>
      <trkpt lat="44.42549" lon="1.34918">
        <ele>265</ele>
        <time>2019-04-14T09:56:59Z</time>
      </trkpt>
      <trkpt lat="44.42547" lon="1.34913">
        <ele>265</ele>
        <time>2019-04-14T09:57:00Z</time>
      </trkpt>
      <trkpt lat="44.42546" lon="1.34909">
        <ele>264</ele>
        <time>2019-04-14T09:57:01Z</time>
      </trkpt>
      <trkpt lat="44.42545" lon="1.34904">
        <ele>264</ele>
        <time>2019-04-14T09:57:02Z</time>
      </trkpt>
      <trkpt lat="44.42544" lon="1.349">
        <ele>264</ele>
        <time>2019-04-14T09:57:03Z</time>
      </trkpt>
      <trkpt lat="44.42542" lon="1.34896">
        <ele>264</ele>
        <time>2019-04-14T09:57:04Z</time>
      </trkpt>
      <trkpt lat="44.4254" lon="1.34893">
        <ele>264</ele>
        <time>2019-04-14T09:57:05Z</time>
      </trkpt>
      <trkpt lat="44.42539" lon="1.34891">
        <ele>264</ele>
        <time>2019-04-14T09:57:06Z</time>
      </trkpt>
      <trkpt lat="44.42537" lon="1.3489">
        <ele>264</ele>
        <time>2019-04-14T09:57:07Z</time>
      </trkpt>
      <trkpt lat="44.42535" lon="1.34888">
        <ele>264</ele>
        <time>2019-04-14T09:57:08Z</time>
      </trkpt>
      <trkpt lat="44.42533" lon="1.34887">
        <ele>265</ele>
        <time>2019-04-14T09:57:09Z</time>
      </trkpt>
      <trkpt lat="44.42531" lon="1.34887">
        <ele>265</ele>
        <time>2019-04-14T09:57:10Z</time>
      </trkpt>
      <trkpt lat="44.4253" lon="1.34887">
        <ele>265</ele>
        <time>2019-04-14T09:57:11Z</time>
      </trkpt>
      <trkpt lat="44.42528" lon="1.34888">
        <ele>265</ele>
        <time>2019-04-14T09:57:12Z</time>
      </trkpt>
      <trkpt lat="44.42526" lon="1.34889">
        <ele>265</ele>
        <time>2019-04-14T09:57:13Z</time>
      </trkpt>
      <trkpt lat="44.42524" lon="1.3489">
        <ele>266</ele>
        <time>2019-04-14T09:57:14Z</time>
      </trkpt>
      <trkpt lat="44.42522" lon="1.3489">
        <ele>266</ele>
        <time>2019-04-14T09:57:15Z</time>
      </trkpt>
      <trkpt lat="44.4252" lon="1.34891">
        <ele>266</ele>
        <time>2019-04-14T09:57:16Z</time>
      </trkpt>
      <trkpt lat="44.42518" lon="1.34891">
        <ele>266</ele>
        <time>2019-04-14T09:57:17Z</time>
      </trkpt>
      <trkpt lat="44.42516" lon="1.34892">
        <ele>267</ele>
        <time>2019-04-14T09:57:18Z</time>
      </trkpt>
      <trkpt lat="44.42514" lon="1.34892">
        <ele>267</ele>
        <time>2019-04-14T09:57:19Z</time>
      </trkpt>
      <trkpt lat="44.42513" lon="1.34892">
        <ele>267</ele>
        <time>2019-04-14T09:57:20Z</time>
      </trkpt>
      <trkpt lat="44.42511" lon="1.34893">
        <ele>268</ele>
        <time>2019-04-14T09:57:21Z</time>
      </trkpt>
      <trkpt lat="44.4251" lon="1.34893">
        <ele>268</ele>
        <time>2019-04-14T09:57:22Z</time>
      </trkpt>
      <trkpt lat="44.42508" lon="1.34894">
        <ele>268</ele>
        <time>2019-04-14T09:57:23Z</time>
      </trkpt>
      <trkpt lat="44.42506" lon="1.34894">
        <ele>268</ele>
        <time>2019-04-14T09:57:24Z</time>
      </trkpt>
      <trkpt lat="44.42504" lon="1.34895">
        <ele>268</ele>
        <time>2019-04-14T09:57:25Z</time>
      </trkpt>
      <trkpt lat="44.42502" lon="1.34895">
        <ele>269</ele>
        <time>2019-04-14T09:57:26Z</time>
      </trkpt>
      <trkpt lat="44.425" lon="1.34896">
        <ele>269</ele>
        <time>2019-04-14T09:57:27Z</time>
      </trkpt>
      <trkpt lat="44.42498" lon="1.34896">
        <ele>269</ele>
        <time>2019-04-14T09:57:28Z</time>
      </trkpt>
      <trkpt lat="44.42497" lon="1.34895">
        <ele>269</ele>
        <time>2019-04-14T09:57:29Z</time>
      </trkpt>
      <trkpt lat="44.42495" lon="1.34894">
        <ele>269</ele>
        <time>2019-04-14T09:57:30Z</time>
      </trkpt>
      <trkpt lat="44.42494" lon="1.34893">
        <ele>269</ele>
        <time>2019-04-14T09:57:31Z</time>
      </trkpt>
      <trkpt lat="44.42493" lon="1.34891">
        <ele>270</ele>
        <time>2019-04-14T09:57:32Z</time>
      </trkpt>
      <trkpt lat="44.42493" lon="1.34889">
        <ele>270</ele>
        <time>2019-04-14T09:57:33Z</time>
      </trkpt>
      <trkpt lat="44.42492" lon="1.34887">
        <ele>270</ele>
        <time>2019-04-14T09:57:34Z</time>
      </trkpt>
      <trkpt lat="44.42491" lon="1.34885">
        <ele>270</ele>
        <time>2019-04-14T09:57:35Z</time>
      </trkpt>
      <trkpt lat="44.42491" lon="1.34882">
        <ele>270</ele>
        <time>2019-04-14T09:57:36Z</time>
      </trkpt>
      <trkpt lat="44.4249" lon="1.3488">
        <ele>270</ele>
        <time>2019-04-14T09:57:37Z</time>
      </trkpt>
      <trkpt lat="44.42489" lon="1.34878">
        <ele>270</ele>
        <time>2019-04-14T09:57:38Z</time>
      </trkpt>
      <trkpt lat="44.42489" lon="1.34876">
        <ele>270</ele>
        <time>2019-04-14T09:57:39Z</time>
      </trkpt>
      <trkpt lat="44.42488" lon="1.34873">
        <ele>271</ele>
        <time>2019-04-14T09:57:40Z</time>
      </trkpt>
      <trkpt lat="44.42487" lon="1.34871">
        <ele>271</ele>
        <time>2019-04-14T09:57:41Z</time>
      </trkpt>
      <trkpt lat="44.42486" lon="1.34869">
        <ele>271</ele>
        <time>2019-04-14T09:57:42Z</time>
      </trkpt>
      <trkpt lat="44.42486" lon="1.34867">
        <ele>271</ele>
        <time>2019-04-14T09:57:43Z</time>
      </trkpt>
      <trkpt lat="44.42485" lon="1.34865">
        <ele>271</ele>
        <time>2019-04-14T09:57:44Z</time>
      </trkpt>
      <trkpt lat="44.42484" lon="1.34863">
        <ele>272</ele>
        <time>2019-04-14T09:57:45Z</time>
      </trkpt>
      <trkpt lat="44.42484" lon="1.34861">
        <ele>272</ele>
        <time>2019-04-14T09:57:46Z</time>
      </trkpt>
      <trkpt lat="44.42483" lon="1.34859">
        <ele>272</ele>
        <time>2019-04-14T09:57:47Z</time>
      </trkpt>
      <trkpt lat="44.42482" lon="1.34856">
        <ele>272</ele>
        <time>2019-04-14T09:57:48Z</time>
      </trkpt>
      <trkpt lat="44.42481" lon="1.34854">
        <ele>272</ele>
        <time>2019-04-14T09:57:49Z</time>
      </trkpt>
      <trkpt lat="44.4248" lon="1.34852">
        <ele>273</ele>
        <time>2019-04-14T09:57:50Z</time>
      </trkpt>
      <trkpt lat="44.42479" lon="1.3485">
        <ele>273</ele>
        <time>2019-04-14T09:57:51Z</time>
      </trkpt>
      <trkpt lat="44.42479" lon="1.34848">
        <ele>273</ele>
        <time>2019-04-14T09:57:52Z</time>
      </trkpt>
      <trkpt lat="44.42478" lon="1.34846">
        <ele>273</ele>
        <time>2019-04-14T09:57:53Z</time>
      </trkpt>
      <trkpt lat="44.42477" lon="1.34844">
        <ele>274</ele>
        <time>2019-04-14T09:57:54Z</time>
      </trkpt>
      <trkpt lat="44.42476" lon="1.34842">
        <ele>274</ele>
        <time>2019-04-14T09:57:55Z</time>
      </trkpt>
      <trkpt lat="44.42476" lon="1.3484">
        <ele>274</ele>
        <time>2019-04-14T09:57:56Z</time>
      </trkpt>
      <trkpt lat="44.42476" lon="1.34838">
        <ele>274</ele>
        <time>2019-04-14T09:57:57Z</time>
      </trkpt>
      <trkpt lat="44.42475" lon="1.34836">
        <ele>275</ele>
        <time>2019-04-14T09:57:58Z</time>
      </trkpt>
      <trkpt lat="44.42474" lon="1.34835">
        <ele>275</ele>
        <time>2019-04-14T09:57:59Z</time>
      </trkpt>
      <trkpt lat="44.42473" lon="1.34833">
        <ele>275</ele>
        <time>2019-04-14T09:58:00Z</time>
      </trkpt>
      <trkpt lat="44.42472" lon="1.34832">
        <ele>275</ele>
        <time>2019-04-14T09:58:01Z</time>
      </trkpt>
      <trkpt lat="44.42471" lon="1.3483">
        <ele>275</ele>
        <time>2019-04-14T09:58:02Z</time>
      </trkpt>
      <trkpt lat="44.4247" lon="1.34829">
        <ele>275</ele>
        <time>2019-04-14T09:58:03Z</time>
      </trkpt>
      <trkpt lat="44.42469" lon="1.34829">
        <ele>276</ele>
        <time>2019-04-14T09:58:04Z</time>
      </trkpt>
      <trkpt lat="44.42467" lon="1.34828">
        <ele>276</ele>
        <time>2019-04-14T09:58:05Z</time>
      </trkpt>
      <trkpt lat="44.42466" lon="1.34828">
        <ele>276</ele>
        <time>2019-04-14T09:58:06Z</time>
      </trkpt>
      <trkpt lat="44.42465" lon="1.34828">
        <ele>276</ele>
        <time>2019-04-14T09:58:07Z</time>
      </trkpt>
      <trkpt lat="44.42464" lon="1.34828">
        <ele>276</ele>
        <time>2019-04-14T09:58:08Z</time>
      </trkpt>
      <trkpt lat="44.42462" lon="1.34828">
        <ele>276</ele>
        <time>2019-04-14T09:58:09Z</time>
      </trkpt>
      <trkpt lat="44.42461" lon="1.34829">
        <ele>276</ele>
        <time>2019-04-14T09:58:10Z</time>
      </trkpt>
      <trkpt lat="44.42461" lon="1.3483">
        <ele>276</ele>
        <time>2019-04-14T09:58:11Z</time>
      </trkpt>
      <trkpt lat="44.4246" lon="1.34832">
        <ele>276</ele>
        <time>2019-04-14T09:58:12Z</time>
      </trkpt>
      <trkpt lat="44.42459" lon="1.34833">
        <ele>276</ele>
        <time>2019-04-14T09:58:13Z</time>
      </trkpt>
      <trkpt lat="44.42457" lon="1.34834">
        <ele>276</ele>
        <time>2019-04-14T09:58:14Z</time>
      </trkpt>
      <trkpt lat="44.42456" lon="1.34835">
        <ele>276</ele>
        <time>2019-04-14T09:58:15Z</time>
      </trkpt>
      <trkpt lat="44.42454" lon="1.34837">
        <ele>276</ele>
        <time>2019-04-14T09:58:16Z</time>
      </trkpt>
      <trkpt lat="44.42453" lon="1.34838">
        <ele>276</ele>
        <time>2019-04-14T09:58:17Z</time>
      </trkpt>
      <trkpt lat="44.42452" lon="1.3484">
        <ele>276</ele>
        <time>2019-04-14T09:58:18Z</time>
      </trkpt>
      <trkpt lat="44.42452" lon="1.34842">
        <ele>276</ele>
        <time>2019-04-14T09:58:19Z</time>
      </trkpt>
      <trkpt lat="44.42451" lon="1.34844">
        <ele>276</ele>
        <time>2019-04-14T09:58:20Z</time>
      </trkpt>
      <trkpt lat="44.4245" lon="1.34845">
        <ele>276</ele>
        <time>2019-04-14T09:58:21Z</time>
      </trkpt>
      <trkpt lat="44.42448" lon="1.34847">
        <ele>276</ele>
        <time>2019-04-14T09:58:22Z</time>
      </trkpt>
      <trkpt lat="44.42447" lon="1.34849">
        <ele>276</ele>
        <time>2019-04-14T09:58:23Z</time>
      </trkpt>
      <trkpt lat="44.42446" lon="1.3485">
        <ele>276</ele>
        <time>2019-04-14T09:58:24Z</time>
      </trkpt>
      <trkpt lat="44.42445" lon="1.34853">
        <ele>276</ele>
        <time>2019-04-14T09:58:25Z</time>
      </trkpt>
      <trkpt lat="44.42444" lon="1.34855">
        <ele>276</ele>
        <time>2019-04-14T09:58:26Z</time>
      </trkpt>
      <trkpt lat="44.42443" lon="1.34857">
        <ele>276</ele>
        <time>2019-04-14T09:58:27Z</time>
      </trkpt>
      <trkpt lat="44.42441" lon="1.34859">
        <ele>276</ele>
        <time>2019-04-14T09:58:28Z</time>
      </trkpt>
      <trkpt lat="44.42441" lon="1.34862">
        <ele>276</ele>
        <time>2019-04-14T09:58:29Z</time>
      </trkpt>
      <trkpt lat="44.42439" lon="1.34864">
        <ele>277</ele>
        <time>2019-04-14T09:58:30Z</time>
      </trkpt>
      <trkpt lat="44.42438" lon="1.34866">
        <ele>276</ele>
        <time>2019-04-14T09:58:31Z</time>
      </trkpt>
      <trkpt lat="44.42437" lon="1.34869">
        <ele>277</ele>
        <time>2019-04-14T09:58:32Z</time>
      </trkpt>
      <trkpt lat="44.42436" lon="1.34871">
        <ele>276</ele>
        <time>2019-04-14T09:58:33Z</time>
      </trkpt>
      <trkpt lat="44.42435" lon="1.34873">
        <ele>277</ele>
        <time>2019-04-14T09:58:34Z</time>
      </trkpt>
      <trkpt lat="44.42433" lon="1.34875">
        <ele>277</ele>
        <time>2019-04-14T09:58:35Z</time>
      </trkpt>
      <trkpt lat="44.42432" lon="1.34877">
        <ele>277</ele>
        <time>2019-04-14T09:58:36Z</time>
      </trkpt>
      <trkpt lat="44.4243" lon="1.3488">
        <ele>277</ele>
        <time>2019-04-14T09:58:37Z</time>
      </trkpt>
      <trkpt lat="44.42429" lon="1.34882">
        <ele>277</ele>
        <time>2019-04-14T09:58:38Z</time>
      </trkpt>
      <trkpt lat="44.42427" lon="1.34885">
        <ele>277</ele>
        <time>2019-04-14T09:58:39Z</time>
      </trkpt>
      <trkpt lat="44.42426" lon="1.34888">
        <ele>277</ele>
        <time>2019-04-14T09:58:40Z</time>
      </trkpt>
      <trkpt lat="44.42424" lon="1.34891">
        <ele>277</ele>
        <time>2019-04-14T09:58:41Z</time>
      </trkpt>
      <trkpt lat="44.42423" lon="1.34894">
        <ele>277</ele>
        <time>2019-04-14T09:58:42Z</time>
      </trkpt>
      <trkpt lat="44.42422" lon="1.34897">
        <ele>277</ele>
        <time>2019-04-14T09:58:43Z</time>
      </trkpt>
      <trkpt lat="44.4242" lon="1.349">
        <ele>277</ele>
        <time>2019-04-14T09:58:44Z</time>
      </trkpt>
      <trkpt lat="44.42418" lon="1.34903">
        <ele>276</ele>
        <time>2019-04-14T09:58:45Z</time>
      </trkpt>
      <trkpt lat="44.42416" lon="1.34906">
        <ele>276</ele>
        <time>2019-04-14T09:58:46Z</time>
      </trkpt>
      <trkpt lat="44.42414" lon="1.34908">
        <ele>276</ele>
        <time>2019-04-14T09:58:47Z</time>
      </trkpt>
      <trkpt lat="44.42412" lon="1.34909">
        <ele>276</ele>
        <time>2019-04-14T09:58:48Z</time>
      </trkpt>
      <trkpt lat="44.4241" lon="1.34909">
        <ele>276</ele>
        <time>2019-04-14T09:58:49Z</time>
      </trkpt>
      <trkpt lat="44.42408" lon="1.34908">
        <ele>276</ele>
        <time>2019-04-14T09:58:50Z</time>
      </trkpt>
      <trkpt lat="44.42406" lon="1.34907">
        <ele>277</ele>
        <time>2019-04-14T09:58:51Z</time>
      </trkpt>
      <trkpt lat="44.42405" lon="1.34905">
        <ele>276</ele>
        <time>2019-04-14T09:58:52Z</time>
      </trkpt>
      <trkpt lat="44.42403" lon="1.34903">
        <ele>277</ele>
        <time>2019-04-14T09:58:53Z</time>
      </trkpt>
      <trkpt lat="44.42402" lon="1.34901">
        <ele>277</ele>
        <time>2019-04-14T09:58:54Z</time>
      </trkpt>
      <trkpt lat="44.42401" lon="1.34899">
        <ele>277</ele>
        <time>2019-04-14T09:58:55Z</time>
      </trkpt>
      <trkpt lat="44.424" lon="1.34896">
        <ele>276</ele>
        <time>2019-04-14T09:58:56Z</time>
      </trkpt>
      <trkpt lat="44.42398" lon="1.34893">
        <ele>276</ele>
        <time>2019-04-14T09:58:57Z</time>
      </trkpt>
      <trkpt lat="44.42397" lon="1.34888">
        <ele>276</ele>
        <time>2019-04-14T09:58:58Z</time>
      </trkpt>
      <trkpt lat="44.42397" lon="1.34884">
        <ele>276</ele>
        <time>2019-04-14T09:58:59Z</time>
      </trkpt>
      <trkpt lat="44.42396" lon="1.34879">
        <ele>276</ele>
        <time>2019-04-14T09:59:00Z</time>
      </trkpt>
      <trkpt lat="44.42395" lon="1.34878">
        <ele>276</ele>
        <time>2019-04-14T09:59:01Z</time>
      </trkpt>
      <trkpt lat="44.42393" lon="1.34875">
        <ele>275</ele>
        <time>2019-04-14T09:59:02Z</time>
      </trkpt>
      <trkpt lat="44.42389" lon="1.34872">
        <ele>275</ele>
        <time>2019-04-14T09:59:03Z</time>
      </trkpt>
      <trkpt lat="44.42387" lon="1.34868">
        <ele>275</ele>
        <time>2019-04-14T09:59:04Z</time>
      </trkpt>
      <trkpt lat="44.42385" lon="1.34864">
        <ele>274</ele>
        <time>2019-04-14T09:59:05Z</time>
      </trkpt>
      <trkpt lat="44.42385" lon="1.3486">
        <ele>274</ele>
        <time>2019-04-14T09:59:06Z</time>
      </trkpt>
      <trkpt lat="44.42386" lon="1.34856">
        <ele>274</ele>
        <time>2019-04-14T09:59:07Z</time>
      </trkpt>
      <trkpt lat="44.42388" lon="1.34853">
        <ele>273</ele>
        <time>2019-04-14T09:59:08Z</time>
      </trkpt>
      <trkpt lat="44.4239" lon="1.3485">
        <ele>273</ele>
        <time>2019-04-14T09:59:09Z</time>
      </trkpt>
      <trkpt lat="44.42392" lon="1.34848">
        <ele>273</ele>
        <time>2019-04-14T09:59:10Z</time>
      </trkpt>
      <trkpt lat="44.42393" lon="1.34845">
        <ele>273</ele>
        <time>2019-04-14T09:59:11Z</time>
      </trkpt>
      <trkpt lat="44.42394" lon="1.34843">
        <ele>273</ele>
        <time>2019-04-14T09:59:12Z</time>
      </trkpt>
      <trkpt lat="44.42395" lon="1.34843">
        <ele>273</ele>
        <time>2019-04-14T09:59:13Z</time>
      </trkpt>
      <trkpt lat="44.42396" lon="1.34842">
        <ele>274</ele>
        <time>2019-04-14T09:59:14Z</time>
      </trkpt>
      <trkpt lat="44.42398" lon="1.3484">
        <ele>274</ele>
        <time>2019-04-14T09:59:15Z</time>
      </trkpt>
      <trkpt lat="44.42401" lon="1.34838">
        <ele>274</ele>
        <time>2019-04-14T09:59:16Z</time>
      </trkpt>
      <trkpt lat="44.42402" lon="1.34836">
        <ele>274</ele>
        <time>2019-04-14T09:59:17Z</time>
      </trkpt>
      <trkpt lat="44.42404" lon="1.34834">
        <ele>274</ele>
        <time>2019-04-14T09:59:18Z</time>
      </trkpt>
      <trkpt lat="44.42406" lon="1.34831">
        <ele>274</ele>
        <time>2019-04-14T09:59:19Z</time>
      </trkpt>
      <trkpt lat="44.42408" lon="1.3483">
        <ele>274</ele>
        <time>2019-04-14T09:59:20Z</time>
      </trkpt>
      <trkpt lat="44.4241" lon="1.34828">
        <ele>274</ele>
        <time>2019-04-14T09:59:21Z</time>
      </trkpt>
      <trkpt lat="44.42411" lon="1.34826">
        <ele>274</ele>
        <time>2019-04-14T09:59:22Z</time>
      </trkpt>
      <trkpt lat="44.42411" lon="1.34824">
        <ele>274</ele>
        <time>2019-04-14T09:59:23Z</time>
      </trkpt>
      <trkpt lat="44.4241" lon="1.34822">
        <ele>274</ele>
        <time>2019-04-14T09:59:24Z</time>
      </trkpt>
      <trkpt lat="44.42409" lon="1.34821">
        <ele>274</ele>
        <time>2019-04-14T09:59:25Z</time>
      </trkpt>
      <trkpt lat="44.42407" lon="1.34819">
        <ele>273</ele>
        <time>2019-04-14T09:59:26Z</time>
      </trkpt>
      <trkpt lat="44.42407" lon="1.34816">
        <ele>273</ele>
        <time>2019-04-14T09:59:27Z</time>
      </trkpt>
      <trkpt lat="44.42407" lon="1.34814">
        <ele>273</ele>
        <time>2019-04-14T09:59:28Z</time>
      </trkpt>
      <trkpt lat="44.42408" lon="1.34811">
        <ele>273</ele>
        <time>2019-04-14T09:59:29Z</time>
      </trkpt>
      <trkpt lat="44.42409" lon="1.34809">
        <ele>273</ele>
        <time>2019-04-14T09:59:30Z</time>
      </trkpt>
      <trkpt lat="44.42411" lon="1.34806">
        <ele>273</ele>
        <time>2019-04-14T09:59:31Z</time>
      </trkpt>
      <trkpt lat="44.42412" lon="1.34804">
        <ele>274</ele>
        <time>2019-04-14T09:59:32Z</time>
      </trkpt>
      <trkpt lat="44.42413" lon="1.34801">
        <ele>273</ele>
        <time>2019-04-14T09:59:33Z</time>
      </trkpt>
      <trkpt lat="44.42414" lon="1.34799">
        <ele>273</ele>
        <time>2019-04-14T09:59:34Z</time>
      </trkpt>
      <trkpt lat="44.42416" lon="1.34796">
        <ele>273</ele>
        <time>2019-04-14T09:59:35Z</time>
      </trkpt>
      <trkpt lat="44.42417" lon="1.34794">
        <ele>273</ele>
        <time>2019-04-14T09:59:36Z</time>
      </trkpt>
      <trkpt lat="44.42419" lon="1.34793">
        <ele>273</ele>
        <time>2019-04-14T09:59:37Z</time>
      </trkpt>
      <trkpt lat="44.4242" lon="1.34792">
        <ele>274</ele>
        <time>2019-04-14T09:59:38Z</time>
      </trkpt>
      <trkpt lat="44.42421" lon="1.3479">
        <ele>274</ele>
        <time>2019-04-14T09:59:39Z</time>
      </trkpt>
      <trkpt lat="44.42422" lon="1.34787">
        <ele>274</ele>
        <time>2019-04-14T09:59:40Z</time>
      </trkpt>
      <trkpt lat="44.42423" lon="1.34786">
        <ele>274</ele>
        <time>2019-04-14T09:59:41Z</time>
      </trkpt>
      <trkpt lat="44.42424" lon="1.34784">
        <ele>274</ele>
        <time>2019-04-14T09:59:42Z</time>
      </trkpt>
      <trkpt lat="44.42425" lon="1.34782">
        <ele>274</ele>
        <time>2019-04-14T09:59:43Z</time>
      </trkpt>
      <trkpt lat="44.42427" lon="1.34781">
        <ele>274</ele>
        <time>2019-04-14T09:59:44Z</time>
      </trkpt>
      <trkpt lat="44.42428" lon="1.3478">
        <ele>274</ele>
        <time>2019-04-14T09:59:45Z</time>
      </trkpt>
      <trkpt lat="44.42429" lon="1.34779">
        <ele>274</ele>
        <time>2019-04-14T09:59:46Z</time>
      </trkpt>
      <trkpt lat="44.4243" lon="1.34778">
        <ele>274</ele>
        <time>2019-04-14T09:59:47Z</time>
      </trkpt>
      <trkpt lat="44.4243" lon="1.34778">
        <ele>275</ele>
        <time>2019-04-14T09:59:48Z</time>
      </trkpt>
      <trkpt lat="44.4243" lon="1.34778">
        <ele>275</ele>
        <time>2019-04-14T09:59:49Z</time>
      </trkpt>
      <trkpt lat="44.42431" lon="1.34778">
        <ele>275</ele>
        <time>2019-04-14T09:59:50Z</time>
      </trkpt>
      <trkpt lat="44.42431" lon="1.34779">
        <ele>275</ele>
        <time>2019-04-14T09:59:51Z</time>
      </trkpt>
      <trkpt lat="44.42432" lon="1.34779">
        <ele>275</ele>
        <time>2019-04-14T09:59:52Z</time>
      </trkpt>
      <trkpt lat="44.42433" lon="1.3478">
        <ele>275</ele>
        <time>2019-04-14T09:59:53Z</time>
      </trkpt>
      <trkpt lat="44.42435" lon="1.34779">
        <ele>275</ele>
        <time>2019-04-14T09:59:54Z</time>
      </trkpt>
      <trkpt lat="44.42436" lon="1.34778">
        <ele>275</ele>
        <time>2019-04-14T09:59:55Z</time>
      </trkpt>
      <trkpt lat="44.4244" lon="1.3477">
        <ele>275</ele>
        <time>2019-04-14T10:00:00Z</time>
      </trkpt>
      <trkpt lat="44.4244" lon="1.34769">
        <ele>275</ele>
        <time>2019-04-14T10:00:01Z</time>
      </trkpt>
      <trkpt lat="44.4244" lon="1.34769">
        <ele>275</ele>
        <time>2019-04-14T10:00:02Z</time>
      </trkpt>
      <trkpt lat="44.4244" lon="1.34769">
        <ele>275</ele>
        <time>2019-04-14T10:00:03Z</time>
      </trkpt>
      <trkpt lat="44.42441" lon="1.34769">
        <ele>275</ele>
        <time>2019-04-14T10:00:04Z</time>
      </trkpt>
      <trkpt lat="44.42441" lon="1.34769">
        <ele>275</ele>
        <time>2019-04-14T10:00:05Z</time>
      </trkpt>
      <trkpt lat="44.42441" lon="1.34769">
        <ele>275</ele>
        <time>2019-04-14T10:00:06Z</time>
      </trkpt>
      <trkpt lat="44.42441" lon="1.34769">
        <ele>275</ele>
        <time>2019-04-14T10:00:07Z</time>
      </trkpt>
      <trkpt lat="44.42441" lon="1.34769">
        <ele>275</ele>
        <time>2019-04-14T10:00:08Z</time>
      </trkpt>
      <trkpt lat="44.4243" lon="1.34741">
        <ele>272</ele>
        <time>2019-04-14T10:01:17Z</time>
      </trkpt>
      <trkpt lat="44.42429" lon="1.34739">
        <ele>272</ele>
        <time>2019-04-14T10:01:18Z</time>
      </trkpt>
      <trkpt lat="44.42429" lon="1.34737">
        <ele>271</ele>
        <time>2019-04-14T10:01:19Z</time>
      </trkpt>
      <trkpt lat="44.42429" lon="1.34734">
        <ele>271</ele>
        <time>2019-04-14T10:01:20Z</time>
      </trkpt>
      <trkpt lat="44.42429" lon="1.34731">
        <ele>271</ele>
        <time>2019-04-14T10:01:21Z</time>
      </trkpt>
      <trkpt lat="44.4243" lon="1.34729">
        <ele>271</ele>
        <time>2019-04-14T10:01:22Z</time>
      </trkpt>
      <trkpt lat="44.42431" lon="1.34727">
        <ele>271</ele>
        <time>2019-04-14T10:01:23Z</time>
      </trkpt>
      <trkpt lat="44.42431" lon="1.34726">
        <ele>270</ele>
        <time>2019-04-14T10:01:24Z</time>
      </trkpt>
      <trkpt lat="44.42432" lon="1.34724">
        <ele>270</ele>
        <time>2019-04-14T10:01:25Z</time>
      </trkpt>
      <trkpt lat="44.42433" lon="1.34721">
        <ele>270</ele>
        <time>2019-04-14T10:01:26Z</time>
      </trkpt>
      <trkpt lat="44.42432" lon="1.34718">
        <ele>270</ele>
        <time>2019-04-14T10:01:27Z</time>
      </trkpt>
      <trkpt lat="44.42432" lon="1.34716">
        <ele>269</ele>
        <time>2019-04-14T10:01:28Z</time>
      </trkpt>
      <trkpt lat="44.42432" lon="1.34713">
        <ele>269</ele>
        <time>2019-04-14T10:01:29Z</time>
      </trkpt>
      <trkpt lat="44.42433" lon="1.3471">
        <ele>269</ele>
        <time>2019-04-14T10:01:30Z</time>
      </trkpt>
      <trkpt lat="44.42434" lon="1.34709">
        <ele>269</ele>
        <time>2019-04-14T10:01:31Z</time>
      </trkpt>
      <trkpt lat="44.42435" lon="1.34707">
        <ele>269</ele>
        <time>2019-04-14T10:01:32Z</time>
      </trkpt>
      <trkpt lat="44.42437" lon="1.34706">
        <ele>269</ele>
        <time>2019-04-14T10:01:33Z</time>
      </trkpt>
      <trkpt lat="44.42438" lon="1.34704">
        <ele>269</ele>
        <time>2019-04-14T10:01:34Z</time>
      </trkpt>
      <trkpt lat="44.4244" lon="1.34702">
        <ele>269</ele>
        <time>2019-04-14T10:01:35Z</time>
      </trkpt>
      <trkpt lat="44.42441" lon="1.347">
        <ele>269</ele>
        <time>2019-04-14T10:01:36Z</time>
      </trkpt>
      <trkpt lat="44.42443" lon="1.34699">
        <ele>269</ele>
        <time>2019-04-14T10:01:37Z</time>
      </trkpt>
      <trkpt lat="44.42445" lon="1.34698">
        <ele>269</ele>
        <time>2019-04-14T10:01:38Z</time>
      </trkpt>
      <trkpt lat="44.42448" lon="1.34697">
        <ele>270</ele>
        <time>2019-04-14T10:01:39Z</time>
      </trkpt>
      <trkpt lat="44.42449" lon="1.34696">
        <ele>270</ele>
        <time>2019-04-14T10:01:40Z</time>
      </trkpt>
      <trkpt lat="44.42451" lon="1.34695">
        <ele>270</ele>
        <time>2019-04-14T10:01:41Z</time>
      </trkpt>
      <trkpt lat="44.42453" lon="1.34693">
        <ele>270</ele>
        <time>2019-04-14T10:01:42Z</time>
      </trkpt>
      <trkpt lat="44.42454" lon="1.34691">
        <ele>270</ele>
        <time>2019-04-14T10:01:43Z</time>
      </trkpt>
      <trkpt lat="44.42456" lon="1.34689">
        <ele>270</ele>
        <time>2019-04-14T10:01:44Z</time>
      </trkpt>
      <trkpt lat="44.42457" lon="1.34688">
        <ele>270</ele>
        <time>2019-04-14T10:01:45Z</time>
      </trkpt>
      <trkpt lat="44.42459" lon="1.34687">
        <ele>270</ele>
        <time>2019-04-14T10:01:46Z</time>
      </trkpt>
      <trkpt lat="44.4246" lon="1.34687">
        <ele>270</ele>
        <time>2019-04-14T10:01:47Z</time>
      </trkpt>
      <trkpt lat="44.42461" lon="1.34686">
        <ele>271</ele>
        <time>2019-04-14T10:01:48Z</time>
      </trkpt>
      <trkpt lat="44.42463" lon="1.34685">
        <ele>271</ele>
        <time>2019-04-14T10:01:49Z</time>
      </trkpt>
      <trkpt lat="44.42465" lon="1.34684">
        <ele>271</ele>
        <time>2019-04-14T10:01:50Z</time>
      </trkpt>
      <trkpt lat="44.42466" lon="1.34682">
        <ele>271</ele>
        <time>2019-04-14T10:01:51Z</time>
      </trkpt>
      <trkpt lat="44.42467" lon="1.3468">
        <ele>271</ele>
        <time>2019-04-14T10:01:52Z</time>
      </trkpt>
      <trkpt lat="44.42469" lon="1.34678">
        <ele>271</ele>
        <time>2019-04-14T10:01:53Z</time>
      </trkpt>
      <trkpt lat="44.4247" lon="1.34677">
        <ele>271</ele>
        <time>2019-04-14T10:01:54Z</time>
      </trkpt>
      <trkpt lat="44.42471" lon="1.34674">
        <ele>271</ele>
        <time>2019-04-14T10:01:55Z</time>
      </trkpt>
      <trkpt lat="44.42471" lon="1.34671">
        <ele>271</ele>
        <time>2019-04-14T10:01:56Z</time>
      </trkpt>
      <trkpt lat="44.42472" lon="1.34669">
        <ele>270</ele>
        <time>2019-04-14T10:01:57Z</time>
      </trkpt>
      <trkpt lat="44.42471" lon="1.34668">
        <ele>270</ele>
        <time>2019-04-14T10:01:58Z</time>
      </trkpt>
      <trkpt lat="44.42471" lon="1.34667">
        <ele>270</ele>
        <time>2019-04-14T10:01:59Z</time>
      </trkpt>
      <trkpt lat="44.42472" lon="1.34667">
        <ele>270</ele>
        <time>2019-04-14T10:02:00Z</time>
      </trkpt>
      <trkpt lat="44.42472" lon="1.34666">
        <ele>270</ele>
        <time>2019-04-14T10:02:01Z</time>
      </trkpt>
      <trkpt lat="44.42472" lon="1.34666">
        <ele>270</ele>
        <time>2019-04-14T10:02:02Z</time>
      </trkpt>
      <trkpt lat="44.42472" lon="1.34666">
        <ele>270</ele>
        <time>2019-04-14T10:02:03Z</time>
      </trkpt>
      <trkpt lat="44.42472" lon="1.34666">
        <ele>270</ele>
        <time>2019-04-14T10:02:04Z</time>
      </trkpt>
      <trkpt lat="44.42472" lon="1.34666">
        <ele>270</ele>
        <time>2019-04-14T10:02:05Z</time>
      </trkpt>
      <trkpt lat="44.4248" lon="1.34642">
        <ele>268</ele>
        <time>2019-04-14T10:02:33Z</time>
      </trkpt>
      <trkpt lat="44.42481" lon="1.34638">
        <ele>268</ele>
        <time>2019-04-14T10:02:34Z</time>
      </trkpt>
      <trkpt lat="44.42483" lon="1.34635">
        <ele>268</ele>
        <time>2019-04-14T10:02:35Z</time>
      </trkpt>
      <trkpt lat="44.42486" lon="1.3463">
        <ele>267</ele>
        <time>2019-04-14T10:02:36Z</time>
      </trkpt>
      <trkpt lat="44.42487" lon="1.34626">
        <ele>267</ele>
        <time>2019-04-14T10:02:37Z</time>
      </trkpt>
      <trkpt lat="44.42489" lon="1.34621">
        <ele>266</ele>
        <time>2019-04-14T10:02:38Z</time>
      </trkpt>
      <trkpt lat="44.4249" lon="1.34616">
        <ele>266</ele>
        <time>2019-04-14T10:02:39Z</time>
      </trkpt>
      <trkpt lat="44.42492" lon="1.34612">
        <ele>266</ele>
        <time>2019-04-14T10:02:40Z</time>
      </trkpt>
      <trkpt lat="44.42492" lon="1.34608">
        <ele>265</ele>
        <time>2019-04-14T10:02:41Z</time>
      </trkpt>
      <trkpt lat="44.42492" lon="1.34606">
        <ele>264</ele>
        <time>2019-04-14T10:02:42Z</time>
      </trkpt>
      <trkpt lat="44.42493" lon="1.34604">
        <ele>264</ele>
        <time>2019-04-14T10:02:43Z</time>
      </trkpt>
      <trkpt lat="44.42494" lon="1.34602">
        <ele>264</ele>
        <time>2019-04-14T10:02:44Z</time>
      </trkpt>
      <trkpt lat="44.42494" lon="1.346">
        <ele>264</ele>
        <time>2019-04-14T10:02:45Z</time>
      </trkpt>
      <trkpt lat="44.42493" lon="1.34598">
        <ele>263</ele>
        <time>2019-04-14T10:02:46Z</time>
      </trkpt>
      <trkpt lat="44.42492" lon="1.34596">
        <ele>263</ele>
        <time>2019-04-14T10:02:47Z</time>
      </trkpt>
      <trkpt lat="44.42492" lon="1.34593">
        <ele>262</ele>
        <time>2019-04-14T10:02:48Z</time>
      </trkpt>
      <trkpt lat="44.42491" lon="1.3459">
        <ele>262</ele>
        <time>2019-04-14T10:02:49Z</time>
      </trkpt>
      <trkpt lat="44.42492" lon="1.34587">
        <ele>262</ele>
        <time>2019-04-14T10:02:50Z</time>
      </trkpt>
      <trkpt lat="44.42493" lon="1.34584">
        <ele>261</ele>
        <time>2019-04-14T10:02:51Z</time>
      </trkpt>
      <trkpt lat="44.42496" lon="1.34581">
        <ele>261</ele>
        <time>2019-04-14T10:02:52Z</time>
      </trkpt>
      <trkpt lat="44.42498" lon="1.34579">
        <ele>261</ele>
        <time>2019-04-14T10:02:53Z</time>
      </trkpt>
      <trkpt lat="44.425" lon="1.34577">
        <ele>260</ele>
        <time>2019-04-14T10:02:54Z</time>
      </trkpt>
      <trkpt lat="44.42501" lon="1.34574">
        <ele>260</ele>
        <time>2019-04-14T10:02:55Z</time>
      </trkpt>
      <trkpt lat="44.42501" lon="1.34571">
        <ele>260</ele>
        <time>2019-04-14T10:02:56Z</time>
      </trkpt>
      <trkpt lat="44.425" lon="1.34568">
        <ele>259</ele>
        <time>2019-04-14T10:02:57Z</time>
      </trkpt>
      <trkpt lat="44.425" lon="1.34565">
        <ele>258</ele>
        <time>2019-04-14T10:02:58Z</time>
      </trkpt>
      <trkpt lat="44.42501" lon="1.34563">
        <ele>258</ele>
        <time>2019-04-14T10:02:59Z</time>
      </trkpt>
      <trkpt lat="44.42502" lon="1.34561">
        <ele>258</ele>
        <time>2019-04-14T10:03:00Z</time>
      </trkpt>
      <trkpt lat="44.42504" lon="1.34558">
        <ele>258</ele>
        <time>2019-04-14T10:03:01Z</time>
      </trkpt>
      <trkpt lat="44.42505" lon="1.34554">
        <ele>257</ele>
        <time>2019-04-14T10:03:02Z</time>
      </trkpt>
      <trkpt lat="44.42506" lon="1.34549">
        <ele>257</ele>
        <time>2019-04-14T10:03:03Z</time>
      </trkpt>
      <trkpt lat="44.42509" lon="1.34546">
        <ele>256</ele>
        <time>2019-04-14T10:03:04Z</time>
      </trkpt>
      <trkpt lat="44.42511" lon="1.34543">
        <ele>255</ele>
        <time>2019-04-14T10:03:05Z</time>
      </trkpt>
      <trkpt lat="44.42515" lon="1.34539">
        <ele>255</ele>
        <time>2019-04-14T10:03:06Z</time>
      </trkpt>
      <trkpt lat="44.42518" lon="1.34536">
        <ele>254</ele>
        <time>2019-04-14T10:03:07Z</time>
      </trkpt>
      <trkpt lat="44.4252" lon="1.34534">
        <ele>254</ele>
        <time>2019-04-14T10:03:08Z</time>
      </trkpt>
      <trkpt lat="44.42521" lon="1.34533">
        <ele>254</ele>
        <time>2019-04-14T10:03:09Z</time>
      </trkpt>
      <trkpt lat="44.42522" lon="1.34532">
        <ele>254</ele>
        <time>2019-04-14T10:03:10Z</time>
      </trkpt>
      <trkpt lat="44.42523" lon="1.34532">
        <ele>254</ele>
        <time>2019-04-14T10:03:11Z</time>
      </trkpt>
      <trkpt lat="44.42524" lon="1.34532">
        <ele>254</ele>
        <time>2019-04-14T10:03:12Z</time>
      </trkpt>
      <trkpt lat="44.42525" lon="1.34532">
        <ele>255</ele>
        <time>2019-04-14T10:03:13Z</time>
      </trkpt>
      <trkpt lat="44.42526" lon="1.34531">
        <ele>255</ele>
        <time>2019-04-14T10:03:14Z</time>
      </trkpt>
      <trkpt lat="44.42528" lon="1.3453">
        <ele>255</ele>
        <time>2019-04-14T10:03:15Z</time>
      </trkpt>
      <trkpt lat="44.4253" lon="1.3453">
        <ele>255</ele>
        <time>2019-04-14T10:03:16Z</time>
      </trkpt>
      <trkpt lat="44.42532" lon="1.3453">
        <ele>255</ele>
        <time>2019-04-14T10:03:17Z</time>
      </trkpt>
      <trkpt lat="44.42534" lon="1.34531">
        <ele>255</ele>
        <time>2019-04-14T10:03:18Z</time>
      </trkpt>
      <trkpt lat="44.42536" lon="1.34532">
        <ele>255</ele>
        <time>2019-04-14T10:03:19Z</time>
      </trkpt>
      <trkpt lat="44.42538" lon="1.34533">
        <ele>255</ele>
        <time>2019-04-14T10:03:20Z</time>
      </trkpt>
      <trkpt lat="44.42541" lon="1.34532">
        <ele>255</ele>
        <time>2019-04-14T10:03:21Z</time>
      </trkpt>
      <trkpt lat="44.42544" lon="1.34532">
        <ele>255</ele>
        <time>2019-04-14T10:03:22Z</time>
      </trkpt>
      <trkpt lat="44.42547" lon="1.34532">
        <ele>255</ele>
        <time>2019-04-14T10:03:23Z</time>
      </trkpt>
      <trkpt lat="44.42549" lon="1.34532">
        <ele>255</ele>
        <time>2019-04-14T10:03:24Z</time>
      </trkpt>
      <trkpt lat="44.42552" lon="1.34533">
        <ele>255</ele>
        <time>2019-04-14T10:03:25Z</time>
      </trkpt>
      <trkpt lat="44.42554" lon="1.34535">
        <ele>255</ele>
        <time>2019-04-14T10:03:26Z</time>
      </trkpt>
      <trkpt lat="44.42556" lon="1.34537">
        <ele>255</ele>
        <time>2019-04-14T10:03:27Z</time>
      </trkpt>
      <trkpt lat="44.42559" lon="1.34537">
        <ele>255</ele>
        <time>2019-04-14T10:03:28Z</time>
      </trkpt>
      <trkpt lat="44.42561" lon="1.34539">
        <ele>255</ele>
        <time>2019-04-14T10:03:29Z</time>
      </trkpt>
      <trkpt lat="44.42564" lon="1.34541">
        <ele>256</ele>
        <time>2019-04-14T10:03:30Z</time>
      </trkpt>
      <trkpt lat="44.42566" lon="1.34543">
        <ele>256</ele>
        <time>2019-04-14T10:03:31Z</time>
      </trkpt>
      <trkpt lat="44.42567" lon="1.34545">
        <ele>256</ele>
        <time>2019-04-14T10:03:32Z</time>
      </trkpt>
      <trkpt lat="44.42568" lon="1.34546">
        <ele>256</ele>
        <time>2019-04-14T10:03:33Z</time>
      </trkpt>
      <trkpt lat="44.42568" lon="1.34545">
        <ele>256</ele>
        <time>2019-04-14T10:03:34Z</time>
      </trkpt>
      <trkpt lat="44.42568" lon="1.34545">
        <ele>256</ele>
        <time>2019-04-14T10:03:35Z</time>
      </trkpt>
      <trkpt lat="44.42568" lon="1.34545">
        <ele>256</ele>
        <time>2019-04-14T10:03:36Z</time>
      </trkpt>
      <trkpt lat="44.42568" lon="1.34545">
        <ele>256</ele>
        <time>2019-04-14T10:03:37Z</time>
      </trkpt>
      <trkpt lat="44.42569" lon="1.34545">
        <ele>256</ele>
        <time>2019-04-14T10:03:38Z</time>
      </trkpt>
      <trkpt lat="44.4257" lon="1.34545">
        <ele>256</ele>
        <time>2019-04-14T10:03:39Z</time>
      </trkpt>
      <trkpt lat="44.4257" lon="1.34545">
        <ele>256</ele>
        <time>2019-04-14T10:03:40Z</time>
      </trkpt>
      <trkpt lat="44.42593" lon="1.34539">
        <ele>251</ele>
        <time>2019-04-14T10:06:06Z</time>
      </trkpt>
      <trkpt lat="44.42594" lon="1.34539">
        <ele>251</ele>
        <time>2019-04-14T10:06:07Z</time>
      </trkpt>
      <trkpt lat="44.42594" lon="1.34538">
        <ele>251</ele>
        <time>2019-04-14T10:06:08Z</time>
      </trkpt>
      <trkpt lat="44.42595" lon="1.34537">
        <ele>251</ele>
        <time>2019-04-14T10:06:09Z</time>
      </trkpt>
      <trkpt lat="44.42596" lon="1.34537">
        <ele>251</ele>
        <time>2019-04-14T10:06:10Z</time>
      </trkpt>
      <trkpt lat="44.42597" lon="1.34536">
        <ele>251</ele>
        <time>2019-04-14T10:06:11Z</time>
      </trkpt>
      <trkpt lat="44.42598" lon="1.34535">
        <ele>251</ele>
        <time>2019-04-14T10:06:12Z</time>
      </trkpt>
      <trkpt lat="44.426" lon="1.34533">
        <ele>250</ele>
        <time>2019-04-14T10:06:13Z</time>
      </trkpt>
      <trkpt lat="44.42602" lon="1.34533">
        <ele>250</ele>
        <time>2019-04-14T10:06:14Z</time>
      </trkpt>
      <trkpt lat="44.42604" lon="1.34535">
        <ele>249</ele>
        <time>2019-04-14T10:06:15Z</time>
      </trkpt>
      <trkpt lat="44.42606" lon="1.34536">
        <ele>249</ele>
        <time>2019-04-14T10:06:16Z</time>
      </trkpt>
      <trkpt lat="44.42607" lon="1.34539">
        <ele>249</ele>
        <time>2019-04-14T10:06:17Z</time>
      </trkpt>
      <trkpt lat="44.42608" lon="1.34542">
        <ele>249</ele>
        <time>2019-04-14T10:06:18Z</time>
      </trkpt>
      <trkpt lat="44.42609" lon="1.34546">
        <ele>250</ele>
        <time>2019-04-14T10:06:19Z</time>
      </trkpt>
      <trkpt lat="44.4261" lon="1.3455">
        <ele>250</ele>
        <time>2019-04-14T10:06:20Z</time>
      </trkpt>
      <trkpt lat="44.4261" lon="1.34552">
        <ele>250</ele>
        <time>2019-04-14T10:06:21Z</time>
      </trkpt>
      <trkpt lat="44.4261" lon="1.34555">
        <ele>251</ele>
        <time>2019-04-14T10:06:22Z</time>
      </trkpt>
      <trkpt lat="44.42611" lon="1.34556">
        <ele>251</ele>
        <time>2019-04-14T10:06:23Z</time>
      </trkpt>
      <trkpt lat="44.42611" lon="1.34557">
        <ele>251</ele>
        <time>2019-04-14T10:06:24Z</time>
      </trkpt>
      <trkpt lat="44.42611" lon="1.34557">
        <ele>251</ele>
        <time>2019-04-14T10:06:25Z</time>
      </trkpt>
      <trkpt lat="44.42611" lon="1.34557">
        <ele>251</ele>
        <time>2019-04-14T10:06:26Z</time>
      </trkpt>
      <trkpt lat="44.42611" lon="1.34557">
        <ele>251</ele>
        <time>2019-04-14T10:06:27Z</time>
      </trkpt>
      <trkpt lat="44.42611" lon="1.34558">
        <ele>251</ele>
        <time>2019-04-14T10:06:28Z</time>
      </trkpt>
      <trkpt lat="44.42611" lon="1.34558">
        <ele>251</ele>
        <time>2019-04-14T10:06:29Z</time>
      </trkpt>
      <trkpt lat="44.42612" lon="1.34557">
        <ele>251</ele>
        <time>2019-04-14T10:06:30Z</time>
      </trkpt>
      <trkpt lat="44.42612" lon="1.34557">
        <ele>251</ele>
        <time>2019-04-14T10:06:31Z</time>
      </trkpt>
      <trkpt lat="44.42643" lon="1.34549">
        <ele>244</ele>
        <time>2019-04-14T10:08:12Z</time>
      </trkpt>
      <trkpt lat="44.42645" lon="1.34549">
        <ele>243</ele>
        <time>2019-04-14T10:08:13Z</time>
      </trkpt>
      <trkpt lat="44.42647" lon="1.34549">
        <ele>242</ele>
        <time>2019-04-14T10:08:14Z</time>
      </trkpt>
      <trkpt lat="44.42649" lon="1.34548">
        <ele>242</ele>
        <time>2019-04-14T10:08:15Z</time>
      </trkpt>
      <trkpt lat="44.4265" lon="1.34549">
        <ele>241</ele>
        <time>2019-04-14T10:08:16Z</time>
      </trkpt>
      <trkpt lat="44.42652" lon="1.34551">
        <ele>241</ele>
        <time>2019-04-14T10:08:17Z</time>
      </trkpt>
      <trkpt lat="44.42655" lon="1.34552">
        <ele>241</ele>
        <time>2019-04-14T10:08:18Z</time>
      </trkpt>
      <trkpt lat="44.42657" lon="1.34555">
        <ele>241</ele>
        <time>2019-04-14T10:08:19Z</time>
      </trkpt>
      <trkpt lat="44.42659" lon="1.34559">
        <ele>240</ele>
        <time>2019-04-14T10:08:20Z</time>
      </trkpt>
      <trkpt lat="44.42662" lon="1.34563">
        <ele>240</ele>
        <time>2019-04-14T10:08:21Z</time>
      </trkpt>
      <trkpt lat="44.42663" lon="1.34567">
        <ele>240</ele>
        <time>2019-04-14T10:08:22Z</time>
      </trkpt>
      <trkpt lat="44.42664" lon="1.34571">
        <ele>240</ele>
        <time>2019-04-14T10:08:23Z</time>
      </trkpt>
      <trkpt lat="44.42663" lon="1.34574">
        <ele>240</ele>
        <time>2019-04-14T10:08:24Z</time>
      </trkpt>
      <trkpt lat="44.42664" lon="1.34576">
        <ele>241</ele>
        <time>2019-04-14T10:08:25Z</time>
      </trkpt>
      <trkpt lat="44.42665" lon="1.34578">
        <ele>241</ele>
        <time>2019-04-14T10:08:26Z</time>
      </trkpt>
      <trkpt lat="44.42666" lon="1.34581">
        <ele>241</ele>
        <time>2019-04-14T10:08:27Z</time>
      </trkpt>
      <trkpt lat="44.42667" lon="1.34583">
        <ele>241</ele>
        <time>2019-04-14T10:08:28Z</time>
      </trkpt>
      <trkpt lat="44.42668" lon="1.34586">
        <ele>241</ele>
        <time>2019-04-14T10:08:29Z</time>
      </trkpt>
      <trkpt lat="44.4267" lon="1.34588">
        <ele>241</ele>
        <time>2019-04-14T10:08:30Z</time>
      </trkpt>
      <trkpt lat="44.42672" lon="1.34591">
        <ele>241</ele>
        <time>2019-04-14T10:08:31Z</time>
      </trkpt>
      <trkpt lat="44.42674" lon="1.34593">
        <ele>241</ele>
        <time>2019-04-14T10:08:32Z</time>
      </trkpt>
      <trkpt lat="44.42676" lon="1.34596">
        <ele>241</ele>
        <time>2019-04-14T10:08:33Z</time>
      </trkpt>
      <trkpt lat="44.42678" lon="1.34599">
        <ele>241</ele>
        <time>2019-04-14T10:08:34Z</time>
      </trkpt>
      <trkpt lat="44.4268" lon="1.34602">
        <ele>241</ele>
        <time>2019-04-14T10:08:35Z</time>
      </trkpt>
      <trkpt lat="44.42683" lon="1.34605">
        <ele>241</ele>
        <time>2019-04-14T10:08:36Z</time>
      </trkpt>
      <trkpt lat="44.42686" lon="1.34608">
        <ele>241</ele>
        <time>2019-04-14T10:08:37Z</time>
      </trkpt>
      <trkpt lat="44.42689" lon="1.34611">
        <ele>241</ele>
        <time>2019-04-14T10:08:38Z</time>
      </trkpt>
      <trkpt lat="44.42693" lon="1.34615">
        <ele>240</ele>
        <time>2019-04-14T10:08:39Z</time>
      </trkpt>
      <trkpt lat="44.42696" lon="1.34618">
        <ele>240</ele>
        <time>2019-04-14T10:08:40Z</time>
      </trkpt>
      <trkpt lat="44.42699" lon="1.34621">
        <ele>241</ele>
        <time>2019-04-14T10:08:41Z</time>
      </trkpt>
      <trkpt lat="44.42701" lon="1.34624">
        <ele>241</ele>
        <time>2019-04-14T10:08:42Z</time>
      </trkpt>
      <trkpt lat="44.42703" lon="1.34627">
        <ele>241</ele>
        <time>2019-04-14T10:08:43Z</time>
      </trkpt>
      <trkpt lat="44.42705" lon="1.3463">
        <ele>241</ele>
        <time>2019-04-14T10:08:44Z</time>
      </trkpt>
      <trkpt lat="44.42707" lon="1.34633">
        <ele>241</ele>
        <time>2019-04-14T10:08:45Z</time>
      </trkpt>
      <trkpt lat="44.4271" lon="1.34636">
        <ele>241</ele>
        <time>2019-04-14T10:08:46Z</time>
      </trkpt>
      <trkpt lat="44.42713" lon="1.3464">
        <ele>240</ele>
        <time>2019-04-14T10:08:47Z</time>
      </trkpt>
      <trkpt lat="44.42716" lon="1.34643">
        <ele>240</ele>
        <time>2019-04-14T10:08:48Z</time>
      </trkpt>
      <trkpt lat="44.42719" lon="1.34647">
        <ele>240</ele>
        <time>2019-04-14T10:08:49Z</time>
      </trkpt>
      <trkpt lat="44.4272" lon="1.3465">
        <ele>240</ele>
        <time>2019-04-14T10:08:50Z</time>
      </trkpt>
      <trkpt lat="44.42722" lon="1.34651">
        <ele>240</ele>
        <time>2019-04-14T10:08:51Z</time>
      </trkpt>
      <trkpt lat="44.42725" lon="1.34652">
        <ele>240</ele>
        <time>2019-04-14T10:08:52Z</time>
      </trkpt>
      <trkpt lat="44.42728" lon="1.34654">
        <ele>240</ele>
        <time>2019-04-14T10:08:53Z</time>
      </trkpt>
      <trkpt lat="44.42731" lon="1.34654">
        <ele>239</ele>
        <time>2019-04-14T10:08:54Z</time>
      </trkpt>
      <trkpt lat="44.42735" lon="1.34655">
        <ele>239</ele>
        <time>2019-04-14T10:08:55Z</time>
      </trkpt>
      <trkpt lat="44.42739" lon="1.34657">
        <ele>238</ele>
        <time>2019-04-14T10:08:56Z</time>
      </trkpt>
      <trkpt lat="44.42742" lon="1.34659">
        <ele>238</ele>
        <time>2019-04-14T10:08:57Z</time>
      </trkpt>
      <trkpt lat="44.42744" lon="1.34662">
        <ele>237</ele>
        <time>2019-04-14T10:08:58Z</time>
      </trkpt>
      <trkpt lat="44.42744" lon="1.34665">
        <ele>237</ele>
        <time>2019-04-14T10:08:59Z</time>
      </trkpt>
      <trkpt lat="44.42744" lon="1.34667">
        <ele>237</ele>
        <time>2019-04-14T10:09:00Z</time>
      </trkpt>
      <trkpt lat="44.42745" lon="1.34669">
        <ele>238</ele>
        <time>2019-04-14T10:09:01Z</time>
      </trkpt>
      <trkpt lat="44.42745" lon="1.34671">
        <ele>238</ele>
        <time>2019-04-14T10:09:02Z</time>
      </trkpt>
      <trkpt lat="44.42745" lon="1.34672">
        <ele>238</ele>
        <time>2019-04-14T10:09:03Z</time>
      </trkpt>
      <trkpt lat="44.42746" lon="1.34673">
        <ele>238</ele>
        <time>2019-04-14T10:09:04Z</time>
      </trkpt>
      <trkpt lat="44.42746" lon="1.34673">
        <ele>238</ele>
        <time>2019-04-14T10:09:05Z</time>
      </trkpt>
      <trkpt lat="44.42746" lon="1.34673">
        <ele>238</ele>
        <time>2019-04-14T10:09:06Z</time>
      </trkpt>
      <trkpt lat="44.42746" lon="1.34673">
        <ele>238</ele>
        <time>2019-04-14T10:09:07Z</time>
      </trkpt>
      <trkpt lat="44.42746" lon="1.34673">
        <ele>238</ele>
        <time>2019-04-14T10:09:08Z</time>
      </trkpt>
      <trkpt lat="44.42746" lon="1.34673">
        <ele>238</ele>
        <time>2019-04-14T10:09:09Z</time>
      </trkpt>
      <trkpt lat="44.42746" lon="1.34673">
        <ele>237</ele>
        <time>2019-04-14T10:09:10Z</time>
      </trkpt>
      <trkpt lat="44.42761" lon="1.34701">
        <ele>235</ele>
        <time>2019-04-14T10:10:11Z</time>
      </trkpt>
      <trkpt lat="44.42759" lon="1.34703">
        <ele>236</ele>
        <time>2019-04-14T10:10:12Z</time>
      </trkpt>
      <trkpt lat="44.42759" lon="1.34705">
        <ele>236</ele>
        <time>2019-04-14T10:10:13Z</time>
      </trkpt>
      <trkpt lat="44.42759" lon="1.34707">
        <ele>236</ele>
        <time>2019-04-14T10:10:14Z</time>
      </trkpt>
      <trkpt lat="44.42758" lon="1.3471">
        <ele>236</ele>
        <time>2019-04-14T10:10:15Z</time>
      </trkpt>
      <trkpt lat="44.42757" lon="1.34713">
        <ele>236</ele>
        <time>2019-04-14T10:10:16Z</time>
      </trkpt>
      <trkpt lat="44.42755" lon="1.34714">
        <ele>236</ele>
        <time>2019-04-14T10:10:17Z</time>
      </trkpt>
      <trkpt lat="44.42754" lon="1.34715">
        <ele>236</ele>
        <time>2019-04-14T10:10:18Z</time>
      </trkpt>
      <trkpt lat="44.42753" lon="1.34715">
        <ele>236</ele>
        <time>2019-04-14T10:10:19Z</time>
      </trkpt>
      <trkpt lat="44.42751" lon="1.34715">
        <ele>236</ele>
        <time>2019-04-14T10:10:20Z</time>
      </trkpt>
      <trkpt lat="44.4275" lon="1.34713">
        <ele>237</ele>
        <time>2019-04-14T10:10:21Z</time>
      </trkpt>
      <trkpt lat="44.42749" lon="1.34711">
        <ele>237</ele>
        <time>2019-04-14T10:10:22Z</time>
      </trkpt>
      <trkpt lat="44.42748" lon="1.34709">
        <ele>237</ele>
        <time>2019-04-14T10:10:23Z</time>
      </trkpt>
      <trkpt lat="44.42747" lon="1.34708">
        <ele>238</ele>
        <time>2019-04-14T10:10:24Z</time>
      </trkpt>
      <trkpt lat="44.42745" lon="1.34707">
        <ele>238</ele>
        <time>2019-04-14T10:10:25Z</time>
      </trkpt>
      <trkpt lat="44.42744" lon="1.34707">
        <ele>238</ele>
        <time>2019-04-14T10:10:26Z</time>
      </trkpt>
      <trkpt lat="44.42743" lon="1.34707">
        <ele>239</ele>
        <time>2019-04-14T10:10:27Z</time>
      </trkpt>
      <trkpt lat="44.42742" lon="1.34706">
        <ele>239</ele>
        <time>2019-04-14T10:10:28Z</time>
      </trkpt>
      <trkpt lat="44.42741" lon="1.34706">
        <ele>240</ele>
        <time>2019-04-14T10:10:29Z</time>
      </trkpt>
      <trkpt lat="44.4274" lon="1.34706">
        <ele>240</ele>
        <time>2019-04-14T10:10:30Z</time>
      </trkpt>
      <trkpt lat="44.42739" lon="1.34705">
        <ele>240</ele>
        <time>2019-04-14T10:10:31Z</time>
      </trkpt>
      <trkpt lat="44.42737" lon="1.34705">
        <ele>241</ele>
        <time>2019-04-14T10:10:32Z</time>
      </trkpt>
      <trkpt lat="44.42736" lon="1.34704">
        <ele>241</ele>
        <time>2019-04-14T10:10:33Z</time>
      </trkpt>
      <trkpt lat="44.42734" lon="1.34703">
        <ele>241</ele>
        <time>2019-04-14T10:10:34Z</time>
      </trkpt>
      <trkpt lat="44.42733" lon="1.34702">
        <ele>242</ele>
        <time>2019-04-14T10:10:35Z</time>
      </trkpt>
      <trkpt lat="44.42731" lon="1.34702">
        <ele>242</ele>
        <time>2019-04-14T10:10:36Z</time>
      </trkpt>
      <trkpt lat="44.4273" lon="1.34703">
        <ele>242</ele>
        <time>2019-04-14T10:10:37Z</time>
      </trkpt>
      <trkpt lat="44.42728" lon="1.34703">
        <ele>242</ele>
        <time>2019-04-14T10:10:38Z</time>
      </trkpt>
      <trkpt lat="44.42726" lon="1.34703">
        <ele>243</ele>
        <time>2019-04-14T10:10:39Z</time>
      </trkpt>
      <trkpt lat="44.42724" lon="1.34704">
        <ele>243</ele>
        <time>2019-04-14T10:10:40Z</time>
      </trkpt>
      <trkpt lat="44.42722" lon="1.34706">
        <ele>243</ele>
        <time>2019-04-14T10:10:41Z</time>
      </trkpt>
      <trkpt lat="44.42721" lon="1.34707">
        <ele>243</ele>
        <time>2019-04-14T10:10:42Z</time>
      </trkpt>
      <trkpt lat="44.4272" lon="1.34709">
        <ele>243</ele>
        <time>2019-04-14T10:10:43Z</time>
      </trkpt>
      <trkpt lat="44.42717" lon="1.3471">
        <ele>243</ele>
        <time>2019-04-14T10:10:44Z</time>
      </trkpt>
      <trkpt lat="44.42716" lon="1.3471">
        <ele>244</ele>
        <time>2019-04-14T10:10:45Z</time>
      </trkpt>
      <trkpt lat="44.42715" lon="1.3471">
        <ele>244</ele>
        <time>2019-04-14T10:10:46Z</time>
      </trkpt>
      <trkpt lat="44.42714" lon="1.34709">
        <ele>244</ele>
        <time>2019-04-14T10:10:47Z</time>
      </trkpt>
      <trkpt lat="44.42713" lon="1.34709">
        <ele>244</ele>
        <time>2019-04-14T10:10:48Z</time>
      </trkpt>
      <trkpt lat="44.42711" lon="1.34709">
        <ele>244</ele>
        <time>2019-04-14T10:10:49Z</time>
      </trkpt>
      <trkpt lat="44.4271" lon="1.34709">
        <ele>245</ele>
        <time>2019-04-14T10:10:50Z</time>
      </trkpt>
      <trkpt lat="44.42709" lon="1.34709">
        <ele>245</ele>
        <time>2019-04-14T10:10:51Z</time>
      </trkpt>
      <trkpt lat="44.42707" lon="1.34709">
        <ele>245</ele>
        <time>2019-04-14T10:10:52Z</time>
      </trkpt>
      <trkpt lat="44.42705" lon="1.34708">
        <ele>246</ele>
        <time>2019-04-14T10:10:53Z</time>
      </trkpt>
      <trkpt lat="44.42703" lon="1.34709">
        <ele>246</ele>
        <time>2019-04-14T10:10:54Z</time>
      </trkpt>
      <trkpt lat="44.42701" lon="1.3471">
        <ele>246</ele>
        <time>2019-04-14T10:10:55Z</time>
      </trkpt>
      <trkpt lat="44.427" lon="1.34711">
        <ele>246</ele>
        <time>2019-04-14T10:10:56Z</time>
      </trkpt>
      <trkpt lat="44.42699" lon="1.34712">
        <ele>246</ele>
        <time>2019-04-14T10:10:57Z</time>
      </trkpt>
      <trkpt lat="44.42698" lon="1.34712">
        <ele>246</ele>
        <time>2019-04-14T10:10:58Z</time>
      </trkpt>
      <trkpt lat="44.42697" lon="1.34713">
        <ele>246</ele>
        <time>2019-04-14T10:10:59Z</time>
      </trkpt>
      <trkpt lat="44.42695" lon="1.34713">
        <ele>246</ele>
        <time>2019-04-14T10:11:00Z</time>
      </trkpt>
      <trkpt lat="44.42694" lon="1.34713">
        <ele>247</ele>
        <time>2019-04-14T10:11:01Z</time>
      </trkpt>
      <trkpt lat="44.42692" lon="1.34715">
        <ele>247</ele>
        <time>2019-04-14T10:11:02Z</time>
      </trkpt>
      <trkpt lat="44.4269" lon="1.34716">
        <ele>247</ele>
        <time>2019-04-14T10:11:03Z</time>
      </trkpt>
      <trkpt lat="44.42689" lon="1.34717">
        <ele>247</ele>
        <time>2019-04-14T10:11:04Z</time>
      </trkpt>
      <trkpt lat="44.42688" lon="1.34718">
        <ele>247</ele>
        <time>2019-04-14T10:11:05Z</time>
      </trkpt>
      <trkpt lat="44.42687" lon="1.34718">
        <ele>248</ele>
        <time>2019-04-14T10:11:06Z</time>
      </trkpt>
      <trkpt lat="44.42685" lon="1.34718">
        <ele>248</ele>
        <time>2019-04-14T10:11:07Z</time>
      </trkpt>
      <trkpt lat="44.42685" lon="1.34719">
        <ele>248</ele>
        <time>2019-04-14T10:11:08Z</time>
      </trkpt>
      <trkpt lat="44.42684" lon="1.34721">
        <ele>248</ele>
        <time>2019-04-14T10:11:09Z</time>
      </trkpt>
      <trkpt lat="44.42683" lon="1.34723">
        <ele>248</ele>
        <time>2019-04-14T10:11:10Z</time>
      </trkpt>
      <trkpt lat="44.42682" lon="1.34724">
        <ele>249</ele>
        <time>2019-04-14T10:11:11Z</time>
      </trkpt>
      <trkpt lat="44.42681" lon="1.34724">
        <ele>249</ele>
        <time>2019-04-14T10:11:12Z</time>
      </trkpt>
      <trkpt lat="44.42679" lon="1.34724">
        <ele>249</ele>
        <time>2019-04-14T10:11:13Z</time>
      </trkpt>
      <trkpt lat="44.42678" lon="1.34725">
        <ele>249</ele>
        <time>2019-04-14T10:11:14Z</time>
      </trkpt>
      <trkpt lat="44.42677" lon="1.34725">
        <ele>249</ele>
        <time>2019-04-14T10:11:15Z</time>
      </trkpt>
      <trkpt lat="44.42675" lon="1.34726">
        <ele>250</ele>
        <time>2019-04-14T10:11:16Z</time>
      </trkpt>
      <trkpt lat="44.42674" lon="1.34726">
        <ele>250</ele>
        <time>2019-04-14T10:11:17Z</time>
      </trkpt>
      <trkpt lat="44.42673" lon="1.34727">
        <ele>250</ele>
        <time>2019-04-14T10:11:18Z</time>
      </trkpt>
      <trkpt lat="44.42672" lon="1.34729">
        <ele>250</ele>
        <time>2019-04-14T10:11:19Z</time>
      </trkpt>
      <trkpt lat="44.4267" lon="1.34729">
        <ele>250</ele>
        <time>2019-04-14T10:11:20Z</time>
      </trkpt>
      <trkpt lat="44.42669" lon="1.3473">
        <ele>250</ele>
        <time>2019-04-14T10:11:21Z</time>
      </trkpt>
      <trkpt lat="44.42668" lon="1.34731">
        <ele>250</ele>
        <time>2019-04-14T10:11:22Z</time>
      </trkpt>
      <trkpt lat="44.42667" lon="1.34733">
        <ele>250</ele>
        <time>2019-04-14T10:11:23Z</time>
      </trkpt>
      <trkpt lat="44.42665" lon="1.34734">
        <ele>250</ele>
        <time>2019-04-14T10:11:24Z</time>
      </trkpt>
      <trkpt lat="44.42665" lon="1.34736">
        <ele>250</ele>
        <time>2019-04-14T10:11:25Z</time>
      </trkpt>
      <trkpt lat="44.42663" lon="1.34737">
        <ele>250</ele>
        <time>2019-04-14T10:11:26Z</time>
      </trkpt>
      <trkpt lat="44.42663" lon="1.34738">
        <ele>250</ele>
        <time>2019-04-14T10:11:27Z</time>
      </trkpt>
      <trkpt lat="44.42661" lon="1.34739">
        <ele>250</ele>
        <time>2019-04-14T10:11:28Z</time>
      </trkpt>
      <trkpt lat="44.42659" lon="1.3474">
        <ele>250</ele>
        <time>2019-04-14T10:11:29Z</time>
      </trkpt>
      <trkpt lat="44.42659" lon="1.34742">
        <ele>250</ele>
        <time>2019-04-14T10:11:30Z</time>
      </trkpt>
      <trkpt lat="44.42658" lon="1.34743">
        <ele>250</ele>
        <time>2019-04-14T10:11:31Z</time>
      </trkpt>
      <trkpt lat="44.42657" lon="1.34744">
        <ele>250</ele>
        <time>2019-04-14T10:11:32Z</time>
      </trkpt>
      <trkpt lat="44.42656" lon="1.34745">
        <ele>250</ele>
        <time>2019-04-14T10:11:33Z</time>
      </trkpt>
      <trkpt lat="44.42655" lon="1.34746">
        <ele>250</ele>
        <time>2019-04-14T10:11:34Z</time>
      </trkpt>
      <trkpt lat="44.42654" lon="1.34747">
        <ele>250</ele>
        <time>2019-04-14T10:11:35Z</time>
      </trkpt>
      <trkpt lat="44.42652" lon="1.34748">
        <ele>251</ele>
        <time>2019-04-14T10:11:36Z</time>
      </trkpt>
      <trkpt lat="44.4265" lon="1.3475">
        <ele>251</ele>
        <time>2019-04-14T10:11:37Z</time>
      </trkpt>
      <trkpt lat="44.42649" lon="1.34751">
        <ele>251</ele>
        <time>2019-04-14T10:11:38Z</time>
      </trkpt>
      <trkpt lat="44.42647" lon="1.34752">
        <ele>251</ele>
        <time>2019-04-14T10:11:39Z</time>
      </trkpt>
      <trkpt lat="44.42645" lon="1.34753">
        <ele>251</ele>
        <time>2019-04-14T10:11:40Z</time>
      </trkpt>
      <trkpt lat="44.42644" lon="1.34755">
        <ele>251</ele>
        <time>2019-04-14T10:11:41Z</time>
      </trkpt>
      <trkpt lat="44.42642" lon="1.34757">
        <ele>251</ele>
        <time>2019-04-14T10:11:42Z</time>
      </trkpt>
      <trkpt lat="44.4264" lon="1.34759">
        <ele>251</ele>
        <time>2019-04-14T10:11:43Z</time>
      </trkpt>
      <trkpt lat="44.42638" lon="1.34761">
        <ele>251</ele>
        <time>2019-04-14T10:11:44Z</time>
      </trkpt>
      <trkpt lat="44.42636" lon="1.34762">
        <ele>251</ele>
        <time>2019-04-14T10:11:45Z</time>
      </trkpt>
      <trkpt lat="44.42635" lon="1.34765">
        <ele>251</ele>
        <time>2019-04-14T10:11:46Z</time>
      </trkpt>
      <trkpt lat="44.42632" lon="1.34767">
        <ele>252</ele>
        <time>2019-04-14T10:11:47Z</time>
      </trkpt>
      <trkpt lat="44.4263" lon="1.34769">
        <ele>252</ele>
        <time>2019-04-14T10:11:48Z</time>
      </trkpt>
      <trkpt lat="44.42629" lon="1.3477">
        <ele>252</ele>
        <time>2019-04-14T10:11:49Z</time>
      </trkpt>
      <trkpt lat="44.42626" lon="1.34772">
        <ele>252</ele>
        <time>2019-04-14T10:11:50Z</time>
      </trkpt>
      <trkpt lat="44.42624" lon="1.34773">
        <ele>252</ele>
        <time>2019-04-14T10:11:51Z</time>
      </trkpt>
      <trkpt lat="44.42623" lon="1.34775">
        <ele>252</ele>
        <time>2019-04-14T10:11:52Z</time>
      </trkpt>
      <trkpt lat="44.42621" lon="1.34777">
        <ele>252</ele>
        <time>2019-04-14T10:11:53Z</time>
      </trkpt>
      <trkpt lat="44.42622" lon="1.34777">
        <ele>252</ele>
        <time>2019-04-14T10:11:54Z</time>
      </trkpt>
      <trkpt lat="44.4262" lon="1.34778">
        <ele>252</ele>
        <time>2019-04-14T10:11:55Z</time>
      </trkpt>
      <trkpt lat="44.42619" lon="1.3478">
        <ele>253</ele>
        <time>2019-04-14T10:11:56Z</time>
      </trkpt>
      <trkpt lat="44.42617" lon="1.34782">
        <ele>253</ele>
        <time>2019-04-14T10:11:57Z</time>
      </trkpt>
      <trkpt lat="44.42615" lon="1.34784">
        <ele>253</ele>
        <time>2019-04-14T10:11:58Z</time>
      </trkpt>
      <trkpt lat="44.42614" lon="1.34786">
        <ele>253</ele>
        <time>2019-04-14T10:11:59Z</time>
      </trkpt>
      <trkpt lat="44.42612" lon="1.34788">
        <ele>253</ele>
        <time>2019-04-14T10:12:00Z</time>
      </trkpt>
      <trkpt lat="44.4261" lon="1.34789">
        <ele>254</ele>
        <time>2019-04-14T10:12:01Z</time>
      </trkpt>
      <trkpt lat="44.42608" lon="1.3479">
        <ele>254</ele>
        <time>2019-04-14T10:12:02Z</time>
      </trkpt>
      <trkpt lat="44.42608" lon="1.34791">
        <ele>254</ele>
        <time>2019-04-14T10:12:03Z</time>
      </trkpt>
      <trkpt lat="44.42608" lon="1.34793">
        <ele>254</ele>
        <time>2019-04-14T10:12:04Z</time>
      </trkpt>
      <trkpt lat="44.42608" lon="1.34795">
        <ele>254</ele>
        <time>2019-04-14T10:12:05Z</time>
      </trkpt>
      <trkpt lat="44.42607" lon="1.34798">
        <ele>253</ele>
        <time>2019-04-14T10:12:06Z</time>
      </trkpt>
      <trkpt lat="44.42606" lon="1.34801">
        <ele>253</ele>
        <time>2019-04-14T10:12:07Z</time>
      </trkpt>
      <trkpt lat="44.42606" lon="1.34805">
        <ele>253</ele>
        <time>2019-04-14T10:12:08Z</time>
      </trkpt>
      <trkpt lat="44.42605" lon="1.34807">
        <ele>253</ele>
        <time>2019-04-14T10:12:09Z</time>
      </trkpt>
      <trkpt lat="44.42605" lon="1.3481">
        <ele>253</ele>
        <time>2019-04-14T10:12:10Z</time>
      </trkpt>
      <trkpt lat="44.42604" lon="1.34812">
        <ele>253</ele>
        <time>2019-04-14T10:12:11Z</time>
      </trkpt>
      <trkpt lat="44.42603" lon="1.34815">
        <ele>253</ele>
        <time>2019-04-14T10:12:12Z</time>
      </trkpt>
      <trkpt lat="44.42603" lon="1.34818">
        <ele>253</ele>
        <time>2019-04-14T10:12:13Z</time>
      </trkpt>
      <trkpt lat="44.42603" lon="1.34821">
        <ele>253</ele>
        <time>2019-04-14T10:12:14Z</time>
      </trkpt>
      <trkpt lat="44.42602" lon="1.34825">
        <ele>252</ele>
        <time>2019-04-14T10:12:15Z</time>
      </trkpt>
      <trkpt lat="44.42605" lon="1.34829">
        <ele>252</ele>
        <time>2019-04-14T10:12:16Z</time>
      </trkpt>
      <trkpt lat="44.42607" lon="1.34835">
        <ele>251</ele>
        <time>2019-04-14T10:12:17Z</time>
      </trkpt>
      <trkpt lat="44.4261" lon="1.3484">
        <ele>251</ele>
        <time>2019-04-14T10:12:18Z</time>
      </trkpt>
      <trkpt lat="44.42612" lon="1.34845">
        <ele>251</ele>
        <time>2019-04-14T10:12:19Z</time>
      </trkpt>
      <trkpt lat="44.42612" lon="1.34851">
        <ele>251</ele>
        <time>2019-04-14T10:12:20Z</time>
      </trkpt>
      <trkpt lat="44.42614" lon="1.34855">
        <ele>251</ele>
        <time>2019-04-14T10:12:21Z</time>
      </trkpt>
      <trkpt lat="44.42616" lon="1.34857">
        <ele>251</ele>
        <time>2019-04-14T10:12:22Z</time>
      </trkpt>
      <trkpt lat="44.42617" lon="1.34858">
        <ele>250</ele>
        <time>2019-04-14T10:12:23Z</time>
      </trkpt>
      <trkpt lat="44.42619" lon="1.3486">
        <ele>250</ele>
        <time>2019-04-14T10:12:24Z</time>
      </trkpt>
      <trkpt lat="44.42621" lon="1.34861">
        <ele>250</ele>
        <time>2019-04-14T10:12:25Z</time>
      </trkpt>
      <trkpt lat="44.42623" lon="1.34862">
        <ele>250</ele>
        <time>2019-04-14T10:12:26Z</time>
      </trkpt>
      <trkpt lat="44.42625" lon="1.34864">
        <ele>250</ele>
        <time>2019-04-14T10:12:27Z</time>
      </trkpt>
      <trkpt lat="44.42627" lon="1.34867">
        <ele>250</ele>
        <time>2019-04-14T10:12:28Z</time>
      </trkpt>
      <trkpt lat="44.42629" lon="1.34869">
        <ele>250</ele>
        <time>2019-04-14T10:12:29Z</time>
      </trkpt>
      <trkpt lat="44.4263" lon="1.34873">
        <ele>250</ele>
        <time>2019-04-14T10:12:30Z</time>
      </trkpt>
      <trkpt lat="44.42632" lon="1.34875">
        <ele>250</ele>
        <time>2019-04-14T10:12:31Z</time>
      </trkpt>
      <trkpt lat="44.42634" lon="1.34878">
        <ele>251</ele>
        <time>2019-04-14T10:12:32Z</time>
      </trkpt>
      <trkpt lat="44.42636" lon="1.34881">
        <ele>251</ele>
        <time>2019-04-14T10:12:33Z</time>
      </trkpt>
      <trkpt lat="44.42638" lon="1.34884">
        <ele>251</ele>
        <time>2019-04-14T10:12:34Z</time>
      </trkpt>
      <trkpt lat="44.42639" lon="1.34885">
        <ele>251</ele>
        <time>2019-04-14T10:12:35Z</time>
      </trkpt>
      <trkpt lat="44.42642" lon="1.34887">
        <ele>251</ele>
        <time>2019-04-14T10:12:36Z</time>
      </trkpt>
      <trkpt lat="44.42644" lon="1.34889">
        <ele>250</ele>
        <time>2019-04-14T10:12:37Z</time>
      </trkpt>
      <trkpt lat="44.42646" lon="1.34891">
        <ele>251</ele>
        <time>2019-04-14T10:12:38Z</time>
      </trkpt>
      <trkpt lat="44.42648" lon="1.34892">
        <ele>250</ele>
        <time>2019-04-14T10:12:39Z</time>
      </trkpt>
      <trkpt lat="44.4265" lon="1.34895">
        <ele>250</ele>
        <time>2019-04-14T10:12:40Z</time>
      </trkpt>
      <trkpt lat="44.42653" lon="1.34897">
        <ele>250</ele>
        <time>2019-04-14T10:12:41Z</time>
      </trkpt>
      <trkpt lat="44.42655" lon="1.34899">
        <ele>249</ele>
        <time>2019-04-14T10:12:42Z</time>
      </trkpt>
      <trkpt lat="44.42657" lon="1.34902">
        <ele>249</ele>
        <time>2019-04-14T10:12:43Z</time>
      </trkpt>
      <trkpt lat="44.42659" lon="1.34905">
        <ele>249</ele>
        <time>2019-04-14T10:12:44Z</time>
      </trkpt>
      <trkpt lat="44.4266" lon="1.34908">
        <ele>249</ele>
        <time>2019-04-14T10:12:45Z</time>
      </trkpt>
      <trkpt lat="44.4266" lon="1.34911">
        <ele>249</ele>
        <time>2019-04-14T10:12:46Z</time>
      </trkpt>
      <trkpt lat="44.4266" lon="1.34914">
        <ele>249</ele>
        <time>2019-04-14T10:12:47Z</time>
      </trkpt>
      <trkpt lat="44.4266" lon="1.34917">
        <ele>249</ele>
        <time>2019-04-14T10:12:48Z</time>
      </trkpt>
      <trkpt lat="44.42661" lon="1.3492">
        <ele>249</ele>
        <time>2019-04-14T10:12:49Z</time>
      </trkpt>
      <trkpt lat="44.42662" lon="1.34922">
        <ele>249</ele>
        <time>2019-04-14T10:12:50Z</time>
      </trkpt>
      <trkpt lat="44.42664" lon="1.34923">
        <ele>249</ele>
        <time>2019-04-14T10:12:51Z</time>
      </trkpt>
      <trkpt lat="44.42667" lon="1.34924">
        <ele>249</ele>
        <time>2019-04-14T10:12:52Z</time>
      </trkpt>
      <trkpt lat="44.42669" lon="1.34927">
        <ele>249</ele>
        <time>2019-04-14T10:12:53Z</time>
      </trkpt>
      <trkpt lat="44.42671" lon="1.3493">
        <ele>248</ele>
        <time>2019-04-14T10:12:54Z</time>
      </trkpt>
      <trkpt lat="44.42673" lon="1.34934">
        <ele>248</ele>
        <time>2019-04-14T10:12:55Z</time>
      </trkpt>
      <trkpt lat="44.42675" lon="1.34937">
        <ele>248</ele>
        <time>2019-04-14T10:12:56Z</time>
      </trkpt>
      <trkpt lat="44.42677" lon="1.3494">
        <ele>248</ele>
        <time>2019-04-14T10:12:57Z</time>
      </trkpt>
      <trkpt lat="44.42678" lon="1.34941">
        <ele>247</ele>
        <time>2019-04-14T10:12:58Z</time>
      </trkpt>
      <trkpt lat="44.4268" lon="1.34941">
        <ele>247</ele>
        <time>2019-04-14T10:12:59Z</time>
      </trkpt>
      <trkpt lat="44.42682" lon="1.34939">
        <ele>247</ele>
        <time>2019-04-14T10:13:00Z</time>
      </trkpt>
      <trkpt lat="44.42683" lon="1.34937">
        <ele>246</ele>
        <time>2019-04-14T10:13:01Z</time>
      </trkpt>
      <trkpt lat="44.42685" lon="1.34936">
        <ele>246</ele>
        <time>2019-04-14T10:13:02Z</time>
      </trkpt>
      <trkpt lat="44.42687" lon="1.34937">
        <ele>246</ele>
        <time>2019-04-14T10:13:03Z</time>
      </trkpt>
      <trkpt lat="44.4269" lon="1.34938">
        <ele>245</ele>
        <time>2019-04-14T10:13:04Z</time>
      </trkpt>
      <trkpt lat="44.42693" lon="1.34939">
        <ele>245</ele>
        <time>2019-04-14T10:13:05Z</time>
      </trkpt>
      <trkpt lat="44.42695" lon="1.34941">
        <ele>244</ele>
        <time>2019-04-14T10:13:06Z</time>
      </trkpt>
      <trkpt lat="44.42696" lon="1.34942">
        <ele>244</ele>
        <time>2019-04-14T10:13:07Z</time>
      </trkpt>
      <trkpt lat="44.42697" lon="1.34943">
        <ele>244</ele>
        <time>2019-04-14T10:13:08Z</time>
      </trkpt>
      <trkpt lat="44.42699" lon="1.34943">
        <ele>244</ele>
        <time>2019-04-14T10:13:09Z</time>
      </trkpt>
      <trkpt lat="44.42702" lon="1.34944">
        <ele>244</ele>
        <time>2019-04-14T10:13:10Z</time>
      </trkpt>
      <trkpt lat="44.42704" lon="1.34945">
        <ele>243</ele>
        <time>2019-04-14T10:13:11Z</time>
      </trkpt>
      <trkpt lat="44.42706" lon="1.34947">
        <ele>243</ele>
        <time>2019-04-14T10:13:12Z</time>
      </trkpt>
      <trkpt lat="44.42709" lon="1.34949">
        <ele>243</ele>
        <time>2019-04-14T10:13:13Z</time>
      </trkpt>
      <trkpt lat="44.4271" lon="1.34951">
        <ele>242</ele>
        <time>2019-04-14T10:13:14Z</time>
      </trkpt>
      <trkpt lat="44.42712" lon="1.34953">
        <ele>242</ele>
        <time>2019-04-14T10:13:15Z</time>
      </trkpt>
      <trkpt lat="44.42714" lon="1.34955">
        <ele>241</ele>
        <time>2019-04-14T10:13:16Z</time>
      </trkpt>
      <trkpt lat="44.42715" lon="1.34957">
        <ele>241</ele>
        <time>2019-04-14T10:13:17Z</time>
      </trkpt>
      <trkpt lat="44.42716" lon="1.34959">
        <ele>241</ele>
        <time>2019-04-14T10:13:18Z</time>
      </trkpt>
      <trkpt lat="44.42717" lon="1.34961">
        <ele>241</ele>
        <time>2019-04-14T10:13:19Z</time>
      </trkpt>
      <trkpt lat="44.42718" lon="1.34963">
        <ele>241</ele>
        <time>2019-04-14T10:13:20Z</time>
      </trkpt>
      <trkpt lat="44.42719" lon="1.34966">
        <ele>241</ele>
        <time>2019-04-14T10:13:21Z</time>
      </trkpt>
      <trkpt lat="44.4272" lon="1.34968">
        <ele>241</ele>
        <time>2019-04-14T10:13:22Z</time>
      </trkpt>
      <trkpt lat="44.42722" lon="1.34971">
        <ele>241</ele>
        <time>2019-04-14T10:13:23Z</time>
      </trkpt>
      <trkpt lat="44.42722" lon="1.34974">
        <ele>241</ele>
        <time>2019-04-14T10:13:24Z</time>
      </trkpt>
      <trkpt lat="44.42722" lon="1.34976">
        <ele>241</ele>
        <time>2019-04-14T10:13:25Z</time>
      </trkpt>
      <trkpt lat="44.42721" lon="1.34978">
        <ele>241</ele>
        <time>2019-04-14T10:13:26Z</time>
      </trkpt>
      <trkpt lat="44.42721" lon="1.3498">
        <ele>241</ele>
        <time>2019-04-14T10:13:27Z</time>
      </trkpt>
      <trkpt lat="44.42722" lon="1.34981">
        <ele>241</ele>
        <time>2019-04-14T10:13:28Z</time>
      </trkpt>
      <trkpt lat="44.42722" lon="1.34983">
        <ele>241</ele>
        <time>2019-04-14T10:13:29Z</time>
      </trkpt>
      <trkpt lat="44.42721" lon="1.34985">
        <ele>241</ele>
        <time>2019-04-14T10:13:30Z</time>
      </trkpt>
      <trkpt lat="44.42723" lon="1.34988">
        <ele>241</ele>
        <time>2019-04-14T10:13:31Z</time>
      </trkpt>
      <trkpt lat="44.42725" lon="1.34991">
        <ele>241</ele>
        <time>2019-04-14T10:13:32Z</time>
      </trkpt>
      <trkpt lat="44.42727" lon="1.34995">
        <ele>240</ele>
        <time>2019-04-14T10:13:33Z</time>
      </trkpt>
      <trkpt lat="44.42727" lon="1.34999">
        <ele>240</ele>
        <time>2019-04-14T10:13:34Z</time>
      </trkpt>
      <trkpt lat="44.42729" lon="1.35002">
        <ele>240</ele>
        <time>2019-04-14T10:13:35Z</time>
      </trkpt>
      <trkpt lat="44.42731" lon="1.35005">
        <ele>240</ele>
        <time>2019-04-14T10:13:36Z</time>
      </trkpt>
      <trkpt lat="44.42732" lon="1.35009">
        <ele>239</ele>
        <time>2019-04-14T10:13:37Z</time>
      </trkpt>
      <trkpt lat="44.42734" lon="1.35012">
        <ele>239</ele>
        <time>2019-04-14T10:13:38Z</time>
      </trkpt>
      <trkpt lat="44.42736" lon="1.35013">
        <ele>239</ele>
        <time>2019-04-14T10:13:39Z</time>
      </trkpt>
      <trkpt lat="44.42738" lon="1.35013">
        <ele>239</ele>
        <time>2019-04-14T10:13:40Z</time>
      </trkpt>
      <trkpt lat="44.4274" lon="1.35014">
        <ele>238</ele>
        <time>2019-04-14T10:13:41Z</time>
      </trkpt>
      <trkpt lat="44.42742" lon="1.35014">
        <ele>238</ele>
        <time>2019-04-14T10:13:42Z</time>
      </trkpt>
      <trkpt lat="44.42745" lon="1.35015">
        <ele>237</ele>
        <time>2019-04-14T10:13:43Z</time>
      </trkpt>
      <trkpt lat="44.42747" lon="1.35015">
        <ele>237</ele>
        <time>2019-04-14T10:13:44Z</time>
      </trkpt>
      <trkpt lat="44.4275" lon="1.35018">
        <ele>237</ele>
        <time>2019-04-14T10:13:45Z</time>
      </trkpt>
      <trkpt lat="44.42753" lon="1.35018">
        <ele>236</ele>
        <time>2019-04-14T10:13:46Z</time>
      </trkpt>
      <trkpt lat="44.42756" lon="1.35017">
        <ele>236</ele>
        <time>2019-04-14T10:13:47Z</time>
      </trkpt>
      <trkpt lat="44.42757" lon="1.35016">
        <ele>235</ele>
        <time>2019-04-14T10:13:48Z</time>
      </trkpt>
      <trkpt lat="44.42759" lon="1.35015">
        <ele>235</ele>
        <time>2019-04-14T10:13:49Z</time>
      </trkpt>
      <trkpt lat="44.4276" lon="1.35015">
        <ele>234</ele>
        <time>2019-04-14T10:13:50Z</time>
      </trkpt>
      <trkpt lat="44.4276" lon="1.35015">
        <ele>234</ele>
        <time>2019-04-14T10:13:51Z</time>
      </trkpt>
      <trkpt lat="44.42761" lon="1.35015">
        <ele>234</ele>
        <time>2019-04-14T10:13:52Z</time>
      </trkpt>
      <trkpt lat="44.42762" lon="1.35015">
        <ele>234</ele>
        <time>2019-04-14T10:13:53Z</time>
      </trkpt>
      <trkpt lat="44.42763" lon="1.35014">
        <ele>233</ele>
        <time>2019-04-14T10:13:54Z</time>
      </trkpt>
      <trkpt lat="44.42764" lon="1.35013">
        <ele>233</ele>
        <time>2019-04-14T10:13:55Z</time>
      </trkpt>
      <trkpt lat="44.42764" lon="1.35011">
        <ele>233</ele>
        <time>2019-04-14T10:13:56Z</time>
      </trkpt>
      <trkpt lat="44.42764" lon="1.35007">
        <ele>233</ele>
        <time>2019-04-14T10:13:57Z</time>
      </trkpt>
      <trkpt lat="44.42764" lon="1.35004">
        <ele>233</ele>
        <time>2019-04-14T10:13:58Z</time>
      </trkpt>
      <trkpt lat="44.42765" lon="1.35002">
        <ele>233</ele>
        <time>2019-04-14T10:13:59Z</time>
      </trkpt>
      <trkpt lat="44.42765" lon="1.34999">
        <ele>233</ele>
        <time>2019-04-14T10:14:00Z</time>
      </trkpt>
      <trkpt lat="44.42764" lon="1.34998">
        <ele>233</ele>
        <time>2019-04-14T10:14:01Z</time>
      </trkpt>
      <trkpt lat="44.42764" lon="1.34998">
        <ele>233</ele>
        <time>2019-04-14T10:14:02Z</time>
      </trkpt>
      <trkpt lat="44.42764" lon="1.34998">
        <ele>233</ele>
        <time>2019-04-14T10:14:03Z</time>
      </trkpt>
      <trkpt lat="44.42765" lon="1.34999">
        <ele>233</ele>
        <time>2019-04-14T10:14:04Z</time>
      </trkpt>
      <trkpt lat="44.42765" lon="1.34998">
        <ele>233</ele>
        <time>2019-04-14T10:14:05Z</time>
      </trkpt>
      <trkpt lat="44.42765" lon="1.34998">
        <ele>233</ele>
        <time>2019-04-14T10:14:06Z</time>
      </trkpt>
      <trkpt lat="44.42765" lon="1.34997">
        <ele>233</ele>
        <time>2019-04-14T10:14:07Z</time>
      </trkpt>
      <trkpt lat="44.42766" lon="1.34996">
        <ele>233</ele>
        <time>2019-04-14T10:14:08Z</time>
      </trkpt>
      <trkpt lat="44.42782" lon="1.35003">
        <ele>230</ele>
        <time>2019-04-14T10:15:36Z</time>
      </trkpt>
      <trkpt lat="44.42783" lon="1.35005">
        <ele>230</ele>
        <time>2019-04-14T10:15:37Z</time>
      </trkpt>
      <trkpt lat="44.42782" lon="1.35006">
        <ele>230</ele>
        <time>2019-04-14T10:15:38Z</time>
      </trkpt>
      <trkpt lat="44.42782" lon="1.35008">
        <ele>230</ele>
        <time>2019-04-14T10:15:39Z</time>
      </trkpt>
      <trkpt lat="44.42783" lon="1.3501">
        <ele>231</ele>
        <time>2019-04-14T10:15:40Z</time>
      </trkpt>
      <trkpt lat="44.42784" lon="1.35012">
        <ele>231</ele>
        <time>2019-04-14T10:15:41Z</time>
      </trkpt>
      <trkpt lat="44.42784" lon="1.35016">
        <ele>231</ele>
        <time>2019-04-14T10:15:42Z</time>
      </trkpt>
      <trkpt lat="44.42786" lon="1.35017">
        <ele>231</ele>
        <time>2019-04-14T10:15:43Z</time>
      </trkpt>
      <trkpt lat="44.42787" lon="1.35018">
        <ele>231</ele>
        <time>2019-04-14T10:15:44Z</time>
      </trkpt>
      <trkpt lat="44.42789" lon="1.3502">
        <ele>231</ele>
        <time>2019-04-14T10:15:45Z</time>
      </trkpt>
      <trkpt lat="44.42791" lon="1.35021">
        <ele>230</ele>
        <time>2019-04-14T10:15:46Z</time>
      </trkpt>
      <trkpt lat="44.42794" lon="1.35022">
        <ele>230</ele>
        <time>2019-04-14T10:15:47Z</time>
      </trkpt>
      <trkpt lat="44.42796" lon="1.35024">
        <ele>229</ele>
        <time>2019-04-14T10:15:48Z</time>
      </trkpt>
      <trkpt lat="44.42796" lon="1.35027">
        <ele>229</ele>
        <time>2019-04-14T10:15:49Z</time>
      </trkpt>
      <trkpt lat="44.42797" lon="1.3503">
        <ele>229</ele>
        <time>2019-04-14T10:15:50Z</time>
      </trkpt>
      <trkpt lat="44.42798" lon="1.35033">
        <ele>229</ele>
        <time>2019-04-14T10:15:51Z</time>
      </trkpt>
      <trkpt lat="44.42799" lon="1.35036">
        <ele>229</ele>
        <time>2019-04-14T10:15:52Z</time>
      </trkpt>
      <trkpt lat="44.42801" lon="1.35039">
        <ele>229</ele>
        <time>2019-04-14T10:15:53Z</time>
      </trkpt>
      <trkpt lat="44.42803" lon="1.35042">
        <ele>229</ele>
        <time>2019-04-14T10:15:54Z</time>
      </trkpt>
      <trkpt lat="44.42805" lon="1.35045">
        <ele>229</ele>
        <time>2019-04-14T10:15:55Z</time>
      </trkpt>
      <trkpt lat="44.42806" lon="1.35046">
        <ele>229</ele>
        <time>2019-04-14T10:15:56Z</time>
      </trkpt>
      <trkpt lat="44.42807" lon="1.35047">
        <ele>229</ele>
        <time>2019-04-14T10:15:57Z</time>
      </trkpt>
      <trkpt lat="44.42809" lon="1.35049">
        <ele>229</ele>
        <time>2019-04-14T10:15:58Z</time>
      </trkpt>
      <trkpt lat="44.4281" lon="1.35051">
        <ele>229</ele>
        <time>2019-04-14T10:15:59Z</time>
      </trkpt>
      <trkpt lat="44.42811" lon="1.35053">
        <ele>229</ele>
        <time>2019-04-14T10:16:00Z</time>
      </trkpt>
      <trkpt lat="44.42813" lon="1.35054">
        <ele>229</ele>
        <time>2019-04-14T10:16:01Z</time>
      </trkpt>
      <trkpt lat="44.42814" lon="1.35055">
        <ele>229</ele>
        <time>2019-04-14T10:16:02Z</time>
      </trkpt>
      <trkpt lat="44.42816" lon="1.35056">
        <ele>229</ele>
        <time>2019-04-14T10:16:03Z</time>
      </trkpt>
      <trkpt lat="44.42817" lon="1.35056">
        <ele>229</ele>
        <time>2019-04-14T10:16:04Z</time>
      </trkpt>
      <trkpt lat="44.42819" lon="1.35055">
        <ele>228</ele>
        <time>2019-04-14T10:16:05Z</time>
      </trkpt>
      <trkpt lat="44.42822" lon="1.35057">
        <ele>228</ele>
        <time>2019-04-14T10:16:06Z</time>
      </trkpt>
      <trkpt lat="44.42822" lon="1.35058">
        <ele>228</ele>
        <time>2019-04-14T10:16:07Z</time>
      </trkpt>
      <trkpt lat="44.42825" lon="1.35057">
        <ele>227</ele>
        <time>2019-04-14T10:16:08Z</time>
      </trkpt>
      <trkpt lat="44.42828" lon="1.35055">
        <ele>226</ele>
        <time>2019-04-14T10:16:09Z</time>
      </trkpt>
      <trkpt lat="44.42831" lon="1.35055">
        <ele>226</ele>
        <time>2019-04-14T10:16:10Z</time>
      </trkpt>
      <trkpt lat="44.42834" lon="1.35056">
        <ele>225</ele>
        <time>2019-04-14T10:16:11Z</time>
      </trkpt>
      <trkpt lat="44.42838" lon="1.35057">
        <ele>225</ele>
        <time>2019-04-14T10:16:12Z</time>
      </trkpt>
      <trkpt lat="44.42842" lon="1.35059">
        <ele>224</ele>
        <time>2019-04-14T10:16:13Z</time>
      </trkpt>
      <trkpt lat="44.42846" lon="1.35061">
        <ele>224</ele>
        <time>2019-04-14T10:16:14Z</time>
      </trkpt>
      <trkpt lat="44.42849" lon="1.35064">
        <ele>224</ele>
        <time>2019-04-14T10:16:15Z</time>
      </trkpt>
      <trkpt lat="44.42853" lon="1.35064">
        <ele>224</ele>
        <time>2019-04-14T10:16:16Z</time>
      </trkpt>
      <trkpt lat="44.42857" lon="1.35064">
        <ele>223</ele>
        <time>2019-04-14T10:16:17Z</time>
      </trkpt>
      <trkpt lat="44.4286" lon="1.35063">
        <ele>223</ele>
        <time>2019-04-14T10:16:18Z</time>
      </trkpt>
      <trkpt lat="44.42863" lon="1.35061">
        <ele>222</ele>
        <time>2019-04-14T10:16:19Z</time>
      </trkpt>
      <trkpt lat="44.42865" lon="1.3506">
        <ele>222</ele>
        <time>2019-04-14T10:16:20Z</time>
      </trkpt>
      <trkpt lat="44.42868" lon="1.35059">
        <ele>221</ele>
        <time>2019-04-14T10:16:21Z</time>
      </trkpt>
      <trkpt lat="44.42871" lon="1.35059">
        <ele>221</ele>
        <time>2019-04-14T10:16:22Z</time>
      </trkpt>
      <trkpt lat="44.42874" lon="1.35058">
        <ele>221</ele>
        <time>2019-04-14T10:16:23Z</time>
      </trkpt>
      <trkpt lat="44.42877" lon="1.35056">
        <ele>220</ele>
        <time>2019-04-14T10:16:24Z</time>
      </trkpt>
      <trkpt lat="44.42882" lon="1.35055">
        <ele>219</ele>
        <time>2019-04-14T10:16:25Z</time>
      </trkpt>
      <trkpt lat="44.42885" lon="1.35057">
        <ele>219</ele>
        <time>2019-04-14T10:16:26Z</time>
      </trkpt>
      <trkpt lat="44.4289" lon="1.35057">
        <ele>218</ele>
        <time>2019-04-14T10:16:27Z</time>
      </trkpt>
      <trkpt lat="44.42893" lon="1.35055">
        <ele>217</ele>
        <time>2019-04-14T10:16:28Z</time>
      </trkpt>
      <trkpt lat="44.42895" lon="1.35049">
        <ele>217</ele>
        <time>2019-04-14T10:16:29Z</time>
      </trkpt>
      <trkpt lat="44.42894" lon="1.35045">
        <ele>216</ele>
        <time>2019-04-14T10:16:30Z</time>
      </trkpt>
      <trkpt lat="44.42896" lon="1.35042">
        <ele>215</ele>
        <time>2019-04-14T10:16:31Z</time>
      </trkpt>
      <trkpt lat="44.42898" lon="1.35041">
        <ele>215</ele>
        <time>2019-04-14T10:16:32Z</time>
      </trkpt>
      <trkpt lat="44.42901" lon="1.35041">
        <ele>214</ele>
        <time>2019-04-14T10:16:33Z</time>
      </trkpt>
      <trkpt lat="44.42903" lon="1.35041">
        <ele>214</ele>
        <time>2019-04-14T10:16:34Z</time>
      </trkpt>
      <trkpt lat="44.42905" lon="1.35042">
        <ele>214</ele>
        <time>2019-04-14T10:16:35Z</time>
      </trkpt>
      <trkpt lat="44.42907" lon="1.35042">
        <ele>213</ele>
        <time>2019-04-14T10:16:36Z</time>
      </trkpt>
      <trkpt lat="44.42911" lon="1.35043">
        <ele>213</ele>
        <time>2019-04-14T10:16:37Z</time>
      </trkpt>
      <trkpt lat="44.42915" lon="1.35042">
        <ele>213</ele>
        <time>2019-04-14T10:16:38Z</time>
      </trkpt>
      <trkpt lat="44.42918" lon="1.3504">
        <ele>212</ele>
        <time>2019-04-14T10:16:39Z</time>
      </trkpt>
      <trkpt lat="44.42922" lon="1.35037">
        <ele>211</ele>
        <time>2019-04-14T10:16:40Z</time>
      </trkpt>
      <trkpt lat="44.42925" lon="1.35034">
        <ele>210</ele>
        <time>2019-04-14T10:16:41Z</time>
      </trkpt>
      <trkpt lat="44.42929" lon="1.35033">
        <ele>209</ele>
        <time>2019-04-14T10:16:42Z</time>
      </trkpt>
      <trkpt lat="44.42931" lon="1.35035">
        <ele>209</ele>
        <time>2019-04-14T10:16:43Z</time>
      </trkpt>
      <trkpt lat="44.42934" lon="1.35037">
        <ele>209</ele>
        <time>2019-04-14T10:16:44Z</time>
      </trkpt>
      <trkpt lat="44.42937" lon="1.35037">
        <ele>208</ele>
        <time>2019-04-14T10:16:45Z</time>
      </trkpt>
      <trkpt lat="44.42939" lon="1.35038">
        <ele>208</ele>
        <time>2019-04-14T10:16:46Z</time>
      </trkpt>
      <trkpt lat="44.42941" lon="1.35038">
        <ele>208</ele>
        <time>2019-04-14T10:16:47Z</time>
      </trkpt>
      <trkpt lat="44.42942" lon="1.35036">
        <ele>207</ele>
        <time>2019-04-14T10:16:48Z</time>
      </trkpt>
      <trkpt lat="44.42943" lon="1.35033">
        <ele>207</ele>
        <time>2019-04-14T10:16:49Z</time>
      </trkpt>
      <trkpt lat="44.42943" lon="1.3503">
        <ele>207</ele>
        <time>2019-04-14T10:16:50Z</time>
      </trkpt>
      <trkpt lat="44.42946" lon="1.3503">
        <ele>206</ele>
        <time>2019-04-14T10:16:51Z</time>
      </trkpt>
      <trkpt lat="44.4295" lon="1.3503">
        <ele>206</ele>
        <time>2019-04-14T10:16:52Z</time>
      </trkpt>
      <trkpt lat="44.42954" lon="1.3503">
        <ele>205</ele>
        <time>2019-04-14T10:16:53Z</time>
      </trkpt>
      <trkpt lat="44.42958" lon="1.3503">
        <ele>205</ele>
        <time>2019-04-14T10:16:54Z</time>
      </trkpt>
      <trkpt lat="44.42961" lon="1.35028">
        <ele>204</ele>
        <time>2019-04-14T10:16:55Z</time>
      </trkpt>
      <trkpt lat="44.42965" lon="1.35027">
        <ele>203</ele>
        <time>2019-04-14T10:16:56Z</time>
      </trkpt>
      <trkpt lat="44.4297" lon="1.35027">
        <ele>203</ele>
        <time>2019-04-14T10:16:57Z</time>
      </trkpt>
      <trkpt lat="44.42973" lon="1.35025">
        <ele>202</ele>
        <time>2019-04-14T10:16:58Z</time>
      </trkpt>
      <trkpt lat="44.42977" lon="1.35024">
        <ele>201</ele>
        <time>2019-04-14T10:16:59Z</time>
      </trkpt>
      <trkpt lat="44.42981" lon="1.35023">
        <ele>201</ele>
        <time>2019-04-14T10:17:00Z</time>
      </trkpt>
      <trkpt lat="44.42984" lon="1.35024">
        <ele>200</ele>
        <time>2019-04-14T10:17:01Z</time>
      </trkpt>
      <trkpt lat="44.42988" lon="1.35023">
        <ele>200</ele>
        <time>2019-04-14T10:17:02Z</time>
      </trkpt>
      <trkpt lat="44.42993" lon="1.3502">
        <ele>199</ele>
        <time>2019-04-14T10:17:03Z</time>
      </trkpt>
      <trkpt lat="44.42998" lon="1.35018">
        <ele>198</ele>
        <time>2019-04-14T10:17:04Z</time>
      </trkpt>
      <trkpt lat="44.43003" lon="1.35016">
        <ele>197</ele>
        <time>2019-04-14T10:17:05Z</time>
      </trkpt>
      <trkpt lat="44.43006" lon="1.35014">
        <ele>196</ele>
        <time>2019-04-14T10:17:06Z</time>
      </trkpt>
      <trkpt lat="44.4301" lon="1.35013">
        <ele>196</ele>
        <time>2019-04-14T10:17:07Z</time>
      </trkpt>
      <trkpt lat="44.43015" lon="1.3501">
        <ele>195</ele>
        <time>2019-04-14T10:17:08Z</time>
      </trkpt>
      <trkpt lat="44.43019" lon="1.35006">
        <ele>194</ele>
        <time>2019-04-14T10:17:09Z</time>
      </trkpt>
      <trkpt lat="44.43022" lon="1.35002">
        <ele>193</ele>
        <time>2019-04-14T10:17:10Z</time>
      </trkpt>
      <trkpt lat="44.43026" lon="1.34999">
        <ele>192</ele>
        <time>2019-04-14T10:17:11Z</time>
      </trkpt>
      <trkpt lat="44.43029" lon="1.34997">
        <ele>192</ele>
        <time>2019-04-14T10:17:12Z</time>
      </trkpt>
      <trkpt lat="44.43032" lon="1.34995">
        <ele>191</ele>
        <time>2019-04-14T10:17:13Z</time>
      </trkpt>
      <trkpt lat="44.43033" lon="1.34992">
        <ele>190</ele>
        <time>2019-04-14T10:17:14Z</time>
      </trkpt>
      <trkpt lat="44.43035" lon="1.34989">
        <ele>189</ele>
        <time>2019-04-14T10:17:15Z</time>
      </trkpt>
      <trkpt lat="44.43038" lon="1.34986">
        <ele>188</ele>
        <time>2019-04-14T10:17:16Z</time>
      </trkpt>
      <trkpt lat="44.4304" lon="1.34984">
        <ele>188</ele>
        <time>2019-04-14T10:17:17Z</time>
      </trkpt>
      <trkpt lat="44.43043" lon="1.34984">
        <ele>187</ele>
        <time>2019-04-14T10:17:18Z</time>
      </trkpt>
      <trkpt lat="44.43045" lon="1.34985">
        <ele>187</ele>
        <time>2019-04-14T10:17:19Z</time>
      </trkpt>
      <trkpt lat="44.43048" lon="1.34985">
        <ele>187</ele>
        <time>2019-04-14T10:17:20Z</time>
      </trkpt>
      <trkpt lat="44.43051" lon="1.34986">
        <ele>187</ele>
        <time>2019-04-14T10:17:21Z</time>
      </trkpt>
      <trkpt lat="44.43053" lon="1.34988">
        <ele>187</ele>
        <time>2019-04-14T10:17:22Z</time>
      </trkpt>
      <trkpt lat="44.43055" lon="1.3499">
        <ele>186</ele>
        <time>2019-04-14T10:17:23Z</time>
      </trkpt>
      <trkpt lat="44.43056" lon="1.34992">
        <ele>187</ele>
        <time>2019-04-14T10:17:24Z</time>
      </trkpt>
      <trkpt lat="44.43058" lon="1.34993">
        <ele>187</ele>
        <time>2019-04-14T10:17:25Z</time>
      </trkpt>
      <trkpt lat="44.4306" lon="1.34992">
        <ele>186</ele>
        <time>2019-04-14T10:17:26Z</time>
      </trkpt>
      <trkpt lat="44.43063" lon="1.34991">
        <ele>186</ele>
        <time>2019-04-14T10:17:27Z</time>
      </trkpt>
      <trkpt lat="44.43065" lon="1.3499">
        <ele>185</ele>
        <time>2019-04-14T10:17:28Z</time>
      </trkpt>
      <trkpt lat="44.43068" lon="1.34986">
        <ele>185</ele>
        <time>2019-04-14T10:17:29Z</time>
      </trkpt>
      <trkpt lat="44.4307" lon="1.34983">
        <ele>184</ele>
        <time>2019-04-14T10:17:30Z</time>
      </trkpt>
      <trkpt lat="44.43072" lon="1.34979">
        <ele>183</ele>
        <time>2019-04-14T10:17:31Z</time>
      </trkpt>
      <trkpt lat="44.43074" lon="1.34977">
        <ele>182</ele>
        <time>2019-04-14T10:17:32Z</time>
      </trkpt>
      <trkpt lat="44.43076" lon="1.34976">
        <ele>180</ele>
        <time>2019-04-14T10:17:33Z</time>
      </trkpt>
      <trkpt lat="44.43079" lon="1.34976">
        <ele>180</ele>
        <time>2019-04-14T10:17:34Z</time>
      </trkpt>
      <trkpt lat="44.43082" lon="1.34977">
        <ele>179</ele>
        <time>2019-04-14T10:17:35Z</time>
      </trkpt>
      <trkpt lat="44.43085" lon="1.34978">
        <ele>178</ele>
        <time>2019-04-14T10:17:36Z</time>
      </trkpt>
      <trkpt lat="44.43088" lon="1.34979">
        <ele>178</ele>
        <time>2019-04-14T10:17:37Z</time>
      </trkpt>
      <trkpt lat="44.43092" lon="1.34981">
        <ele>177</ele>
        <time>2019-04-14T10:17:38Z</time>
      </trkpt>
      <trkpt lat="44.43095" lon="1.34983">
        <ele>176</ele>
        <time>2019-04-14T10:17:39Z</time>
      </trkpt>
      <trkpt lat="44.43099" lon="1.34985">
        <ele>175</ele>
        <time>2019-04-14T10:17:40Z</time>
      </trkpt>
      <trkpt lat="44.43102" lon="1.34988">
        <ele>175</ele>
        <time>2019-04-14T10:17:41Z</time>
      </trkpt>
      <trkpt lat="44.43105" lon="1.34989">
        <ele>174</ele>
        <time>2019-04-14T10:17:42Z</time>
      </trkpt>
      <trkpt lat="44.43108" lon="1.34989">
        <ele>173</ele>
        <time>2019-04-14T10:17:43Z</time>
      </trkpt>
      <trkpt lat="44.43111" lon="1.3499">
        <ele>172</ele>
        <time>2019-04-14T10:17:44Z</time>
      </trkpt>
      <trkpt lat="44.43115" lon="1.34993">
        <ele>171</ele>
        <time>2019-04-14T10:17:45Z</time>
      </trkpt>
      <trkpt lat="44.43118" lon="1.34996">
        <ele>170</ele>
        <time>2019-04-14T10:17:46Z</time>
      </trkpt>
      <trkpt lat="44.43121" lon="1.34998">
        <ele>170</ele>
        <time>2019-04-14T10:17:47Z</time>
      </trkpt>
      <trkpt lat="44.43123" lon="1.35">
        <ele>169</ele>
        <time>2019-04-14T10:17:48Z</time>
      </trkpt>
      <trkpt lat="44.43123" lon="1.35">
        <ele>169</ele>
        <time>2019-04-14T10:17:49Z</time>
      </trkpt>
      <trkpt lat="44.43123" lon="1.35">
        <ele>169</ele>
        <time>2019-04-14T10:17:50Z</time>
      </trkpt>
      <trkpt lat="44.43124" lon="1.35">
        <ele>169</ele>
        <time>2019-04-14T10:17:51Z</time>
      </trkpt>
      <trkpt lat="44.43124" lon="1.35001">
        <ele>169</ele>
        <time>2019-04-14T10:17:52Z</time>
      </trkpt>
      <trkpt lat="44.43124" lon="1.35001">
        <ele>169</ele>
        <time>2019-04-14T10:17:53Z</time>
      </trkpt>
      <trkpt lat="44.43124" lon="1.35001">
        <ele>169</ele>
        <time>2019-04-14T10:17:54Z</time>
      </trkpt>
      <trkpt lat="44.43124" lon="1.35001">
        <ele>169</ele>
        <time>2019-04-14T10:17:55Z</time>
      </trkpt>
      <trkpt lat="44.43124" lon="1.35001">
        <ele>169</ele>
        <time>2019-04-14T10:17:56Z</time>
      </trkpt>
      <trkpt lat="44.43141" lon="1.34998">
        <ele>163</ele>
        <time>2019-04-14T10:22:41Z</time>
      </trkpt>
      <trkpt lat="44.43142" lon="1.35">
        <ele>163</ele>
        <time>2019-04-14T10:22:42Z</time>
      </trkpt>
      <trkpt lat="44.43144" lon="1.35001">
        <ele>163</ele>
        <time>2019-04-14T10:22:43Z</time>
      </trkpt>
      <trkpt lat="44.43145" lon="1.35001">
        <ele>162</ele>
        <time>2019-04-14T10:22:44Z</time>
      </trkpt>
      <trkpt lat="44.43146" lon="1.35">
        <ele>162</ele>
        <time>2019-04-14T10:22:45Z</time>
      </trkpt>
      <trkpt lat="44.43147" lon="1.34998">
        <ele>161</ele>
        <time>2019-04-14T10:22:46Z</time>
      </trkpt>
      <trkpt lat="44.43148" lon="1.34996">
        <ele>160</ele>
        <time>2019-04-14T10:22:47Z</time>
      </trkpt>
      <trkpt lat="44.43149" lon="1.34994">
        <ele>160</ele>
        <time>2019-04-14T10:22:48Z</time>
      </trkpt>
      <trkpt lat="44.43149" lon="1.34991">
        <ele>159</ele>
        <time>2019-04-14T10:22:49Z</time>
      </trkpt>
      <trkpt lat="44.43148" lon="1.34989">
        <ele>159</ele>
        <time>2019-04-14T10:22:50Z</time>
      </trkpt>
      <trkpt lat="44.43147" lon="1.34987">
        <ele>159</ele>
        <time>2019-04-14T10:22:51Z</time>
      </trkpt>
      <trkpt lat="44.43146" lon="1.34986">
        <ele>159</ele>
        <time>2019-04-14T10:22:52Z</time>
      </trkpt>
      <trkpt lat="44.43147" lon="1.34984">
        <ele>159</ele>
        <time>2019-04-14T10:22:53Z</time>
      </trkpt>
      <trkpt lat="44.43147" lon="1.34982">
        <ele>158</ele>
        <time>2019-04-14T10:22:54Z</time>
      </trkpt>
      <trkpt lat="44.43149" lon="1.34981">
        <ele>158</ele>
        <time>2019-04-14T10:22:55Z</time>
      </trkpt>
      <trkpt lat="44.43152" lon="1.3498">
        <ele>157</ele>
        <time>2019-04-14T10:22:56Z</time>
      </trkpt>
      <trkpt lat="44.43154" lon="1.34978">
        <ele>156</ele>
        <time>2019-04-14T10:22:57Z</time>
      </trkpt>
      <trkpt lat="44.43155" lon="1.34977">
        <ele>155</ele>
        <time>2019-04-14T10:22:58Z</time>
      </trkpt>
      <trkpt lat="44.43156" lon="1.34977">
        <ele>154</ele>
        <time>2019-04-14T10:22:59Z</time>
      </trkpt>
      <trkpt lat="44.43157" lon="1.34979">
        <ele>154</ele>
        <time>2019-04-14T10:23:00Z</time>
      </trkpt>
      <trkpt lat="44.43159" lon="1.3498">
        <ele>154</ele>
        <time>2019-04-14T10:23:01Z</time>
      </trkpt>
      <trkpt lat="44.43162" lon="1.34983">
        <ele>153</ele>
        <time>2019-04-14T10:23:02Z</time>
      </trkpt>
      <trkpt lat="44.43163" lon="1.34986">
        <ele>153</ele>
        <time>2019-04-14T10:23:03Z</time>
      </trkpt>
      <trkpt lat="44.43166" lon="1.34986">
        <ele>152</ele>
        <time>2019-04-14T10:23:04Z</time>
      </trkpt>
      <trkpt lat="44.43167" lon="1.34984">
        <ele>152</ele>
        <time>2019-04-14T10:23:05Z</time>
      </trkpt>
      <trkpt lat="44.43168" lon="1.34981">
        <ele>151</ele>
        <time>2019-04-14T10:23:06Z</time>
      </trkpt>
      <trkpt lat="44.43169" lon="1.34977">
        <ele>150</ele>
        <time>2019-04-14T10:23:07Z</time>
      </trkpt>
      <trkpt lat="44.43171" lon="1.34974">
        <ele>149</ele>
        <time>2019-04-14T10:23:08Z</time>
      </trkpt>
      <trkpt lat="44.43172" lon="1.34973">
        <ele>148</ele>
        <time>2019-04-14T10:23:09Z</time>
      </trkpt>
      <trkpt lat="44.43174" lon="1.34973">
        <ele>147</ele>
        <time>2019-04-14T10:23:10Z</time>
      </trkpt>
      <trkpt lat="44.43175" lon="1.34974">
        <ele>146</ele>
        <time>2019-04-14T10:23:11Z</time>
      </trkpt>
      <trkpt lat="44.43176" lon="1.34976">
        <ele>146</ele>
        <time>2019-04-14T10:23:12Z</time>
      </trkpt>
      <trkpt lat="44.43178" lon="1.34978">
        <ele>146</ele>
        <time>2019-04-14T10:23:13Z</time>
      </trkpt>
      <trkpt lat="44.43181" lon="1.34979">
        <ele>145</ele>
        <time>2019-04-14T10:23:14Z</time>
      </trkpt>
      <trkpt lat="44.43183" lon="1.34981">
        <ele>144</ele>
        <time>2019-04-14T10:23:15Z</time>
      </trkpt>
      <trkpt lat="44.43185" lon="1.34983">
        <ele>144</ele>
        <time>2019-04-14T10:23:16Z</time>
      </trkpt>
      <trkpt lat="44.43187" lon="1.34985">
        <ele>143</ele>
        <time>2019-04-14T10:23:17Z</time>
      </trkpt>
      <trkpt lat="44.43188" lon="1.34987">
        <ele>143</ele>
        <time>2019-04-14T10:23:18Z</time>
      </trkpt>
      <trkpt lat="44.43191" lon="1.34989">
        <ele>142</ele>
        <time>2019-04-14T10:23:19Z</time>
      </trkpt>
      <trkpt lat="44.43195" lon="1.34993">
        <ele>142</ele>
        <time>2019-04-14T10:23:20Z</time>
      </trkpt>
      <trkpt lat="44.432" lon="1.34996">
        <ele>142</ele>
        <time>2019-04-14T10:23:21Z</time>
      </trkpt>
      <trkpt lat="44.43203" lon="1.34999">
        <ele>141</ele>
        <time>2019-04-14T10:23:22Z</time>
      </trkpt>
      <trkpt lat="44.43207" lon="1.35001">
        <ele>140</ele>
        <time>2019-04-14T10:23:23Z</time>
      </trkpt>
      <trkpt lat="44.4321" lon="1.35">
        <ele>139</ele>
        <time>2019-04-14T10:23:24Z</time>
      </trkpt>
      <trkpt lat="44.43212" lon="1.34997">
        <ele>138</ele>
        <time>2019-04-14T10:23:25Z</time>
      </trkpt>
      <trkpt lat="44.43215" lon="1.34997">
        <ele>138</ele>
        <time>2019-04-14T10:23:26Z</time>
      </trkpt>
      <trkpt lat="44.43217" lon="1.34996">
        <ele>137</ele>
        <time>2019-04-14T10:23:27Z</time>
      </trkpt>
      <trkpt lat="44.43219" lon="1.34997">
        <ele>137</ele>
        <time>2019-04-14T10:23:28Z</time>
      </trkpt>
      <trkpt lat="44.43221" lon="1.35">
        <ele>137</ele>
        <time>2019-04-14T10:23:29Z</time>
      </trkpt>
      <trkpt lat="44.43224" lon="1.35001">
        <ele>136</ele>
        <time>2019-04-14T10:23:30Z</time>
      </trkpt>
      <trkpt lat="44.43226" lon="1.35002">
        <ele>136</ele>
        <time>2019-04-14T10:23:31Z</time>
      </trkpt>
      <trkpt lat="44.43229" lon="1.35005">
        <ele>136</ele>
        <time>2019-04-14T10:23:32Z</time>
      </trkpt>
      <trkpt lat="44.43232" lon="1.35007">
        <ele>136</ele>
        <time>2019-04-14T10:23:33Z</time>
      </trkpt>
      <trkpt lat="44.43235" lon="1.35011">
        <ele>136</ele>
        <time>2019-04-14T10:23:34Z</time>
      </trkpt>
      <trkpt lat="44.43238" lon="1.35014">
        <ele>136</ele>
        <time>2019-04-14T10:23:35Z</time>
      </trkpt>
      <trkpt lat="44.4324" lon="1.35016">
        <ele>136</ele>
        <time>2019-04-14T10:23:36Z</time>
      </trkpt>
      <trkpt lat="44.43241" lon="1.35016">
        <ele>136</ele>
        <time>2019-04-14T10:23:37Z</time>
      </trkpt>
      <trkpt lat="44.43243" lon="1.35015">
        <ele>135</ele>
        <time>2019-04-14T10:23:38Z</time>
      </trkpt>
      <trkpt lat="44.43244" lon="1.35013">
        <ele>135</ele>
        <time>2019-04-14T10:23:39Z</time>
      </trkpt>
      <trkpt lat="44.43244" lon="1.35011">
        <ele>134</ele>
        <time>2019-04-14T10:23:40Z</time>
      </trkpt>
      <trkpt lat="44.43244" lon="1.3501">
        <ele>134</ele>
        <time>2019-04-14T10:23:41Z</time>
      </trkpt>
      <trkpt lat="44.43243" lon="1.35009">
        <ele>134</ele>
        <time>2019-04-14T10:23:42Z</time>
      </trkpt>
      <trkpt lat="44.43242" lon="1.35008">
        <ele>134</ele>
        <time>2019-04-14T10:23:43Z</time>
      </trkpt>
      <trkpt lat="44.43241" lon="1.35006">
        <ele>134</ele>
        <time>2019-04-14T10:23:44Z</time>
      </trkpt>
      <trkpt lat="44.4324" lon="1.35005">
        <ele>134</ele>
        <time>2019-04-14T10:23:45Z</time>
      </trkpt>
      <trkpt lat="44.43239" lon="1.35004">
        <ele>134</ele>
        <time>2019-04-14T10:23:46Z</time>
      </trkpt>
      <trkpt lat="44.43237" lon="1.35002">
        <ele>134</ele>
        <time>2019-04-14T10:23:47Z</time>
      </trkpt>
      <trkpt lat="44.43235" lon="1.35001">
        <ele>134</ele>
        <time>2019-04-14T10:23:48Z</time>
      </trkpt>
      <trkpt lat="44.43235" lon="1.35">
        <ele>130</ele>
        <time>2019-04-14T10:23:49Z</time>
      </trkpt>
      <trkpt lat="44.43235" lon="1.35">
        <ele>135</ele>
        <time>2019-04-14T10:23:50Z</time>
      </trkpt>
      <trkpt lat="44.43235" lon="1.35">
        <ele>134</ele>
        <time>2019-04-14T10:23:51Z</time>
      </trkpt>
      <trkpt lat="44.43235" lon="1.35">
        <ele>134</ele>
        <time>2019-04-14T10:23:52Z</time>
      </trkpt>
      <trkpt lat="44.43234" lon="1.34999">
        <ele>134</ele>
        <time>2019-04-14T10:23:53Z</time>
      </trkpt>
      <trkpt lat="44.43234" lon="1.34998">
        <ele>134</ele>
        <time>2019-04-14T10:23:54Z</time>
      </trkpt>
      <trkpt lat="44.43232" lon="1.34998">
        <ele>135</ele>
        <time>2019-04-14T10:23:55Z</time>
      </trkpt>
      <trkpt lat="44.43232" lon="1.34997">
        <ele>135</ele>
        <time>2019-04-14T10:23:56Z</time>
      </trkpt>
      <trkpt lat="44.43231" lon="1.34997">
        <ele>135</ele>
        <time>2019-04-14T10:23:57Z</time>
      </trkpt>
      <trkpt lat="44.43232" lon="1.34997">
        <ele>135</ele>
        <time>2019-04-14T10:23:58Z</time>
      </trkpt>
      <trkpt lat="44.43233" lon="1.34998">
        <ele>135</ele>
        <time>2019-04-14T10:23:59Z</time>
      </trkpt>
      <trkpt lat="44.43233" lon="1.34998">
        <ele>135</ele>
        <time>2019-04-14T10:24:00Z</time>
      </trkpt>
      <trkpt lat="44.43233" lon="1.34998">
        <ele>135</ele>
        <time>2019-04-14T10:24:01Z</time>
      </trkpt>
      <trkpt lat="44.43233" lon="1.34998">
        <ele>135</ele>
        <time>2019-04-14T10:24:02Z</time>
      </trkpt>
      <trkpt lat="44.43234" lon="1.34999">
        <ele>135</ele>
        <time>2019-04-14T10:24:03Z</time>
      </trkpt>
      <trkpt lat="44.43225" lon="1.34979">
        <ele>136</ele>
        <time>2019-04-14T10:24:53Z</time>
      </trkpt>
      <trkpt lat="44.43223" lon="1.34977">
        <ele>136</ele>
        <time>2019-04-14T10:24:54Z</time>
      </trkpt>
      <trkpt lat="44.43223" lon="1.34976">
        <ele>136</ele>
        <time>2019-04-14T10:24:55Z</time>
      </trkpt>
      <trkpt lat="44.43222" lon="1.34975">
        <ele>136</ele>
        <time>2019-04-14T10:24:56Z</time>
      </trkpt>
      <trkpt lat="44.43224" lon="1.34977">
        <ele>136</ele>
        <time>2019-04-14T10:24:57Z</time>
      </trkpt>
      <trkpt lat="44.43223" lon="1.34976">
        <ele>136</ele>
        <time>2019-04-14T10:24:58Z</time>
      </trkpt>
      <trkpt lat="44.43222" lon="1.34974">
        <ele>136</ele>
        <time>2019-04-14T10:24:59Z</time>
      </trkpt>
      <trkpt lat="44.4322" lon="1.34972">
        <ele>136</ele>
        <time>2019-04-14T10:25:00Z</time>
      </trkpt>
      <trkpt lat="44.43217" lon="1.34968">
        <ele>136</ele>
        <time>2019-04-14T10:25:01Z</time>
      </trkpt>
      <trkpt lat="44.43215" lon="1.34965">
        <ele>136</ele>
        <time>2019-04-14T10:25:02Z</time>
      </trkpt>
      <trkpt lat="44.43212" lon="1.34963">
        <ele>136</ele>
        <time>2019-04-14T10:25:03Z</time>
      </trkpt>
      <trkpt lat="44.43209" lon="1.34959">
        <ele>137</ele>
        <time>2019-04-14T10:25:04Z</time>
      </trkpt>
      <trkpt lat="44.43207" lon="1.34955">
        <ele>137</ele>
        <time>2019-04-14T10:25:05Z</time>
      </trkpt>
      <trkpt lat="44.43204" lon="1.34951">
        <ele>136</ele>
        <time>2019-04-14T10:25:06Z</time>
      </trkpt>
      <trkpt lat="44.432" lon="1.34948">
        <ele>136</ele>
        <time>2019-04-14T10:25:07Z</time>
      </trkpt>
      <trkpt lat="44.43198" lon="1.34945">
        <ele>136</ele>
        <time>2019-04-14T10:25:08Z</time>
      </trkpt>
      <trkpt lat="44.43197" lon="1.3494">
        <ele>136</ele>
        <time>2019-04-14T10:25:09Z</time>
      </trkpt>
      <trkpt lat="44.43196" lon="1.34937">
        <ele>136</ele>
        <time>2019-04-14T10:25:10Z</time>
      </trkpt>
      <trkpt lat="44.43195" lon="1.34933">
        <ele>136</ele>
        <time>2019-04-14T10:25:11Z</time>
      </trkpt>
      <trkpt lat="44.43193" lon="1.3493">
        <ele>136</ele>
        <time>2019-04-14T10:25:12Z</time>
      </trkpt>
      <trkpt lat="44.43189" lon="1.34927">
        <ele>136</ele>
        <time>2019-04-14T10:25:13Z</time>
      </trkpt>
      <trkpt lat="44.43187" lon="1.34923">
        <ele>136</ele>
        <time>2019-04-14T10:25:14Z</time>
      </trkpt>
      <trkpt lat="44.43186" lon="1.34919">
        <ele>136</ele>
        <time>2019-04-14T10:25:15Z</time>
      </trkpt>
      <trkpt lat="44.43183" lon="1.34915">
        <ele>136</ele>
        <time>2019-04-14T10:25:16Z</time>
      </trkpt>
      <trkpt lat="44.43181" lon="1.34911">
        <ele>136</ele>
        <time>2019-04-14T10:25:17Z</time>
      </trkpt>
      <trkpt lat="44.43179" lon="1.34907">
        <ele>136</ele>
        <time>2019-04-14T10:25:18Z</time>
      </trkpt>
      <trkpt lat="44.43178" lon="1.34904">
        <ele>136</ele>
        <time>2019-04-14T10:25:19Z</time>
      </trkpt>
      <trkpt lat="44.43175" lon="1.34899">
        <ele>136</ele>
        <time>2019-04-14T10:25:20Z</time>
      </trkpt>
      <trkpt lat="44.43172" lon="1.34894">
        <ele>136</ele>
        <time>2019-04-14T10:25:21Z</time>
      </trkpt>
      <trkpt lat="44.43171" lon="1.3489">
        <ele>137</ele>
        <time>2019-04-14T10:25:22Z</time>
      </trkpt>
      <trkpt lat="44.4317" lon="1.34887">
        <ele>137</ele>
        <time>2019-04-14T10:25:23Z</time>
      </trkpt>
      <trkpt lat="44.43168" lon="1.34883">
        <ele>137</ele>
        <time>2019-04-14T10:25:24Z</time>
      </trkpt>
      <trkpt lat="44.43166" lon="1.34879">
        <ele>137</ele>
        <time>2019-04-14T10:25:25Z</time>
      </trkpt>
      <trkpt lat="44.43163" lon="1.34875">
        <ele>137</ele>
        <time>2019-04-14T10:25:26Z</time>
      </trkpt>
      <trkpt lat="44.43161" lon="1.34872">
        <ele>137</ele>
        <time>2019-04-14T10:25:27Z</time>
      </trkpt>
      <trkpt lat="44.4316" lon="1.3487">
        <ele>137</ele>
        <time>2019-04-14T10:25:28Z</time>
      </trkpt>
      <trkpt lat="44.43159" lon="1.34867">
        <ele>137</ele>
        <time>2019-04-14T10:25:29Z</time>
      </trkpt>
      <trkpt lat="44.4316" lon="1.34865">
        <ele>137</ele>
        <time>2019-04-14T10:25:30Z</time>
      </trkpt>
      <trkpt lat="44.4316" lon="1.34864">
        <ele>137</ele>
        <time>2019-04-14T10:25:31Z</time>
      </trkpt>
      <trkpt lat="44.43158" lon="1.34862">
        <ele>137</ele>
        <time>2019-04-14T10:25:32Z</time>
      </trkpt>
      <trkpt lat="44.43157" lon="1.3486">
        <ele>137</ele>
        <time>2019-04-14T10:25:33Z</time>
      </trkpt>
      <trkpt lat="44.43155" lon="1.34858">
        <ele>137</ele>
        <time>2019-04-14T10:25:34Z</time>
      </trkpt>
      <trkpt lat="44.43153" lon="1.34856">
        <ele>137</ele>
        <time>2019-04-14T10:25:35Z</time>
      </trkpt>
      <trkpt lat="44.43151" lon="1.34854">
        <ele>137</ele>
        <time>2019-04-14T10:25:36Z</time>
      </trkpt>
      <trkpt lat="44.43147" lon="1.34852">
        <ele>137</ele>
        <time>2019-04-14T10:25:37Z</time>
      </trkpt>
      <trkpt lat="44.43144" lon="1.3485">
        <ele>137</ele>
        <time>2019-04-14T10:25:38Z</time>
      </trkpt>
      <trkpt lat="44.4314" lon="1.34847">
        <ele>138</ele>
        <time>2019-04-14T10:25:39Z</time>
      </trkpt>
      <trkpt lat="44.43134" lon="1.34843">
        <ele>138</ele>
        <time>2019-04-14T10:25:40Z</time>
      </trkpt>
      <trkpt lat="44.43132" lon="1.34841">
        <ele>138</ele>
        <time>2019-04-14T10:25:41Z</time>
      </trkpt>
      <trkpt lat="44.43127" lon="1.34839">
        <ele>138</ele>
        <time>2019-04-14T10:25:42Z</time>
      </trkpt>
      <trkpt lat="44.43124" lon="1.34836">
        <ele>138</ele>
        <time>2019-04-14T10:25:43Z</time>
      </trkpt>
      <trkpt lat="44.43122" lon="1.34833">
        <ele>138</ele>
        <time>2019-04-14T10:25:44Z</time>
      </trkpt>
      <trkpt lat="44.4312" lon="1.34831">
        <ele>138</ele>
        <time>2019-04-14T10:25:45Z</time>
      </trkpt>
      <trkpt lat="44.43118" lon="1.34828">
        <ele>138</ele>
        <time>2019-04-14T10:25:46Z</time>
      </trkpt>
      <trkpt lat="44.43118" lon="1.34824">
        <ele>138</ele>
        <time>2019-04-14T10:25:47Z</time>
      </trkpt>
      <trkpt lat="44.43119" lon="1.34821">
        <ele>138</ele>
        <time>2019-04-14T10:25:48Z</time>
      </trkpt>
      <trkpt lat="44.43118" lon="1.34818">
        <ele>138</ele>
        <time>2019-04-14T10:25:49Z</time>
      </trkpt>
      <trkpt lat="44.43119" lon="1.34816">
        <ele>138</ele>
        <time>2019-04-14T10:25:50Z</time>
      </trkpt>
      <trkpt lat="44.4312" lon="1.34813">
        <ele>138</ele>
        <time>2019-04-14T10:25:51Z</time>
      </trkpt>
      <trkpt lat="44.4312" lon="1.3481">
        <ele>138</ele>
        <time>2019-04-14T10:25:52Z</time>
      </trkpt>
      <trkpt lat="44.43119" lon="1.34807">
        <ele>138</ele>
        <time>2019-04-14T10:25:53Z</time>
      </trkpt>
      <trkpt lat="44.43119" lon="1.34803">
        <ele>138</ele>
        <time>2019-04-14T10:25:54Z</time>
      </trkpt>
      <trkpt lat="44.4312" lon="1.34798">
        <ele>138</ele>
        <time>2019-04-14T10:25:55Z</time>
      </trkpt>
      <trkpt lat="44.4312" lon="1.34795">
        <ele>138</ele>
        <time>2019-04-14T10:25:56Z</time>
      </trkpt>
      <trkpt lat="44.4312" lon="1.34792">
        <ele>138</ele>
        <time>2019-04-14T10:25:57Z</time>
      </trkpt>
      <trkpt lat="44.43118" lon="1.3479">
        <ele>138</ele>
        <time>2019-04-14T10:25:58Z</time>
      </trkpt>
      <trkpt lat="44.43116" lon="1.34787">
        <ele>138</ele>
        <time>2019-04-14T10:25:59Z</time>
      </trkpt>
      <trkpt lat="44.43112" lon="1.34782">
        <ele>139</ele>
        <time>2019-04-14T10:26:00Z</time>
      </trkpt>
      <trkpt lat="44.43111" lon="1.34777">
        <ele>139</ele>
        <time>2019-04-14T10:26:01Z</time>
      </trkpt>
      <trkpt lat="44.43108" lon="1.34773">
        <ele>139</ele>
        <time>2019-04-14T10:26:02Z</time>
      </trkpt>
      <trkpt lat="44.43107" lon="1.34768">
        <ele>139</ele>
        <time>2019-04-14T10:26:03Z</time>
      </trkpt>
      <trkpt lat="44.43107" lon="1.34765">
        <ele>139</ele>
        <time>2019-04-14T10:26:04Z</time>
      </trkpt>
      <trkpt lat="44.43108" lon="1.34762">
        <ele>139</ele>
        <time>2019-04-14T10:26:05Z</time>
      </trkpt>
      <trkpt lat="44.43106" lon="1.34757">
        <ele>139</ele>
        <time>2019-04-14T10:26:06Z</time>
      </trkpt>
      <trkpt lat="44.43104" lon="1.34753">
        <ele>139</ele>
        <time>2019-04-14T10:26:07Z</time>
      </trkpt>
      <trkpt lat="44.43105" lon="1.3475">
        <ele>139</ele>
        <time>2019-04-14T10:26:08Z</time>
      </trkpt>
      <trkpt lat="44.43099" lon="1.34747">
        <ele>139</ele>
        <time>2019-04-14T10:26:09Z</time>
      </trkpt>
      <trkpt lat="44.43097" lon="1.34744">
        <ele>140</ele>
        <time>2019-04-14T10:26:10Z</time>
      </trkpt>
      <trkpt lat="44.43096" lon="1.34741">
        <ele>140</ele>
        <time>2019-04-14T10:26:11Z</time>
      </trkpt>
      <trkpt lat="44.43099" lon="1.34737">
        <ele>140</ele>
        <time>2019-04-14T10:26:12Z</time>
      </trkpt>
      <trkpt lat="44.43101" lon="1.34735">
        <ele>140</ele>
        <time>2019-04-14T10:26:13Z</time>
      </trkpt>
      <trkpt lat="44.43099" lon="1.34731">
        <ele>140</ele>
        <time>2019-04-14T10:26:14Z</time>
      </trkpt>
      <trkpt lat="44.43095" lon="1.34727">
        <ele>140</ele>
        <time>2019-04-14T10:26:15Z</time>
      </trkpt>
      <trkpt lat="44.43089" lon="1.34722">
        <ele>140</ele>
        <time>2019-04-14T10:26:16Z</time>
      </trkpt>
      <trkpt lat="44.43089" lon="1.3472">
        <ele>140</ele>
        <time>2019-04-14T10:26:17Z</time>
      </trkpt>
      <trkpt lat="44.43088" lon="1.34717">
        <ele>140</ele>
        <time>2019-04-14T10:26:18Z</time>
      </trkpt>
      <trkpt lat="44.43085" lon="1.34715">
        <ele>140</ele>
        <time>2019-04-14T10:26:19Z</time>
      </trkpt>
      <trkpt lat="44.43085" lon="1.34712">
        <ele>140</ele>
        <time>2019-04-14T10:26:20Z</time>
      </trkpt>
      <trkpt lat="44.43083" lon="1.34709">
        <ele>140</ele>
        <time>2019-04-14T10:26:21Z</time>
      </trkpt>
      <trkpt lat="44.43079" lon="1.34706">
        <ele>140</ele>
        <time>2019-04-14T10:26:22Z</time>
      </trkpt>
      <trkpt lat="44.43073" lon="1.347">
        <ele>140</ele>
        <time>2019-04-14T10:26:23Z</time>
      </trkpt>
      <trkpt lat="44.43071" lon="1.34697">
        <ele>140</ele>
        <time>2019-04-14T10:26:24Z</time>
      </trkpt>
      <trkpt lat="44.43071" lon="1.34693">
        <ele>140</ele>
        <time>2019-04-14T10:26:25Z</time>
      </trkpt>
      <trkpt lat="44.43069" lon="1.34691">
        <ele>140</ele>
        <time>2019-04-14T10:26:26Z</time>
      </trkpt>
      <trkpt lat="44.43067" lon="1.34687">
        <ele>140</ele>
        <time>2019-04-14T10:26:27Z</time>
      </trkpt>
      <trkpt lat="44.43063" lon="1.34684">
        <ele>140</ele>
        <time>2019-04-14T10:26:28Z</time>
      </trkpt>
      <trkpt lat="44.4306" lon="1.34681">
        <ele>140</ele>
        <time>2019-04-14T10:26:29Z</time>
      </trkpt>
      <trkpt lat="44.4306" lon="1.34679">
        <ele>140</ele>
        <time>2019-04-14T10:26:30Z</time>
      </trkpt>
      <trkpt lat="44.43061" lon="1.34676">
        <ele>140</ele>
        <time>2019-04-14T10:26:31Z</time>
      </trkpt>
      <trkpt lat="44.43055" lon="1.34673">
        <ele>141</ele>
        <time>2019-04-14T10:26:32Z</time>
      </trkpt>
      <trkpt lat="44.43053" lon="1.3467">
        <ele>141</ele>
        <time>2019-04-14T10:26:33Z</time>
      </trkpt>
      <trkpt lat="44.43054" lon="1.34667">
        <ele>141</ele>
        <time>2019-04-14T10:26:34Z</time>
      </trkpt>
      <trkpt lat="44.43054" lon="1.34665">
        <ele>141</ele>
        <time>2019-04-14T10:26:35Z</time>
      </trkpt>
      <trkpt lat="44.43051" lon="1.34661">
        <ele>141</ele>
        <time>2019-04-14T10:26:36Z</time>
      </trkpt>
      <trkpt lat="44.4305" lon="1.34658">
        <ele>141</ele>
        <time>2019-04-14T10:26:37Z</time>
      </trkpt>
      <trkpt lat="44.43048" lon="1.34657">
        <ele>141</ele>
        <time>2019-04-14T10:26:38Z</time>
      </trkpt>
      <trkpt lat="44.43045" lon="1.34654">
        <ele>141</ele>
        <time>2019-04-14T10:26:39Z</time>
      </trkpt>
      <trkpt lat="44.43046" lon="1.34652">
        <ele>141</ele>
        <time>2019-04-14T10:26:40Z</time>
      </trkpt>
      <trkpt lat="44.43045" lon="1.34649">
        <ele>141</ele>
        <time>2019-04-14T10:26:41Z</time>
      </trkpt>
      <trkpt lat="44.43042" lon="1.34646">
        <ele>141</ele>
        <time>2019-04-14T10:26:42Z</time>
      </trkpt>
      <trkpt lat="44.43038" lon="1.34643">
        <ele>141</ele>
        <time>2019-04-14T10:26:43Z</time>
      </trkpt>
      <trkpt lat="44.43036" lon="1.3464">
        <ele>141</ele>
        <time>2019-04-14T10:26:44Z</time>
      </trkpt>
      <trkpt lat="44.43032" lon="1.34637">
        <ele>141</ele>
        <time>2019-04-14T10:26:45Z</time>
      </trkpt>
      <trkpt lat="44.43034" lon="1.34634">
        <ele>141</ele>
        <time>2019-04-14T10:26:46Z</time>
      </trkpt>
      <trkpt lat="44.43028" lon="1.34632">
        <ele>141</ele>
        <time>2019-04-14T10:26:47Z</time>
      </trkpt>
      <trkpt lat="44.43024" lon="1.34628">
        <ele>141</ele>
        <time>2019-04-14T10:26:48Z</time>
      </trkpt>
      <trkpt lat="44.43023" lon="1.34626">
        <ele>142</ele>
        <time>2019-04-14T10:26:49Z</time>
      </trkpt>
      <trkpt lat="44.43021" lon="1.34622">
        <ele>142</ele>
        <time>2019-04-14T10:26:50Z</time>
      </trkpt>
      <trkpt lat="44.43017" lon="1.3462">
        <ele>142</ele>
        <time>2019-04-14T10:26:51Z</time>
      </trkpt>
      <trkpt lat="44.43017" lon="1.34616">
        <ele>142</ele>
        <time>2019-04-14T10:26:52Z</time>
      </trkpt>
      <trkpt lat="44.43013" lon="1.34614">
        <ele>142</ele>
        <time>2019-04-14T10:26:53Z</time>
      </trkpt>
      <trkpt lat="44.43009" lon="1.34611">
        <ele>142</ele>
        <time>2019-04-14T10:26:54Z</time>
      </trkpt>
      <trkpt lat="44.43007" lon="1.34607">
        <ele>142</ele>
        <time>2019-04-14T10:26:55Z</time>
      </trkpt>
      <trkpt lat="44.43006" lon="1.34604">
        <ele>142</ele>
        <time>2019-04-14T10:26:56Z</time>
      </trkpt>
      <trkpt lat="44.43007" lon="1.34601">
        <ele>142</ele>
        <time>2019-04-14T10:26:57Z</time>
      </trkpt>
      <trkpt lat="44.43007" lon="1.34599">
        <ele>142</ele>
        <time>2019-04-14T10:26:58Z</time>
      </trkpt>
      <trkpt lat="44.43006" lon="1.34597">
        <ele>142</ele>
        <time>2019-04-14T10:26:59Z</time>
      </trkpt>
      <trkpt lat="44.43006" lon="1.34593">
        <ele>142</ele>
        <time>2019-04-14T10:27:00Z</time>
      </trkpt>
      <trkpt lat="44.43005" lon="1.34589">
        <ele>142</ele>
        <time>2019-04-14T10:27:01Z</time>
      </trkpt>
      <trkpt lat="44.43005" lon="1.34587">
        <ele>143</ele>
        <time>2019-04-14T10:27:02Z</time>
      </trkpt>
      <trkpt lat="44.43006" lon="1.34584">
        <ele>143</ele>
        <time>2019-04-14T10:27:03Z</time>
      </trkpt>
      <trkpt lat="44.43005" lon="1.34581">
        <ele>143</ele>
        <time>2019-04-14T10:27:04Z</time>
      </trkpt>
      <trkpt lat="44.43003" lon="1.34579">
        <ele>143</ele>
        <time>2019-04-14T10:27:05Z</time>
      </trkpt>
      <trkpt lat="44.43001" lon="1.34575">
        <ele>143</ele>
        <time>2019-04-14T10:27:06Z</time>
      </trkpt>
      <trkpt lat="44.43" lon="1.34572">
        <ele>143</ele>
        <time>2019-04-14T10:27:07Z</time>
      </trkpt>
      <trkpt lat="44.42998" lon="1.34569">
        <ele>143</ele>
        <time>2019-04-14T10:27:08Z</time>
      </trkpt>
      <trkpt lat="44.42997" lon="1.34565">
        <ele>143</ele>
        <time>2019-04-14T10:27:09Z</time>
      </trkpt>
      <trkpt lat="44.42996" lon="1.34563">
        <ele>143</ele>
        <time>2019-04-14T10:27:10Z</time>
      </trkpt>
      <trkpt lat="44.42994" lon="1.3456">
        <ele>143</ele>
        <time>2019-04-14T10:27:11Z</time>
      </trkpt>
      <trkpt lat="44.42992" lon="1.34557">
        <ele>143</ele>
        <time>2019-04-14T10:27:12Z</time>
      </trkpt>
      <trkpt lat="44.4299" lon="1.34554">
        <ele>143</ele>
        <time>2019-04-14T10:27:13Z</time>
      </trkpt>
      <trkpt lat="44.4299" lon="1.34552">
        <ele>143</ele>
        <time>2019-04-14T10:27:14Z</time>
      </trkpt>
      <trkpt lat="44.42991" lon="1.34549">
        <ele>144</ele>
        <time>2019-04-14T10:27:15Z</time>
      </trkpt>
      <trkpt lat="44.4299" lon="1.34545">
        <ele>144</ele>
        <time>2019-04-14T10:27:16Z</time>
      </trkpt>
      <trkpt lat="44.42988" lon="1.34542">
        <ele>144</ele>
        <time>2019-04-14T10:27:17Z</time>
      </trkpt>
      <trkpt lat="44.42984" lon="1.34538">
        <ele>144</ele>
        <time>2019-04-14T10:27:18Z</time>
      </trkpt>
      <trkpt lat="44.42984" lon="1.34534">
        <ele>144</ele>
        <time>2019-04-14T10:27:19Z</time>
      </trkpt>
      <trkpt lat="44.42983" lon="1.34532">
        <ele>144</ele>
        <time>2019-04-14T10:27:20Z</time>
      </trkpt>
      <trkpt lat="44.42982" lon="1.34527">
        <ele>144</ele>
        <time>2019-04-14T10:27:21Z</time>
      </trkpt>
      <trkpt lat="44.42982" lon="1.34522">
        <ele>144</ele>
        <time>2019-04-14T10:27:22Z</time>
      </trkpt>
      <trkpt lat="44.42982" lon="1.3452">
        <ele>144</ele>
        <time>2019-04-14T10:27:23Z</time>
      </trkpt>
      <trkpt lat="44.42977" lon="1.34516">
        <ele>144</ele>
        <time>2019-04-14T10:27:24Z</time>
      </trkpt>
      <trkpt lat="44.42975" lon="1.34513">
        <ele>144</ele>
        <time>2019-04-14T10:27:25Z</time>
      </trkpt>
      <trkpt lat="44.42974" lon="1.3451">
        <ele>144</ele>
        <time>2019-04-14T10:27:26Z</time>
      </trkpt>
      <trkpt lat="44.42975" lon="1.34507">
        <ele>144</ele>
        <time>2019-04-14T10:27:27Z</time>
      </trkpt>
      <trkpt lat="44.42974" lon="1.34504">
        <ele>144</ele>
        <time>2019-04-14T10:27:28Z</time>
      </trkpt>
      <trkpt lat="44.42972" lon="1.34501">
        <ele>144</ele>
        <time>2019-04-14T10:27:29Z</time>
      </trkpt>
      <trkpt lat="44.4297" lon="1.34499">
        <ele>144</ele>
        <time>2019-04-14T10:27:30Z</time>
      </trkpt>
      <trkpt lat="44.42971" lon="1.34496">
        <ele>144</ele>
        <time>2019-04-14T10:27:31Z</time>
      </trkpt>
      <trkpt lat="44.4297" lon="1.34494">
        <ele>144</ele>
        <time>2019-04-14T10:27:32Z</time>
      </trkpt>
      <trkpt lat="44.42968" lon="1.34491">
        <ele>144</ele>
        <time>2019-04-14T10:27:33Z</time>
      </trkpt>
      <trkpt lat="44.42967" lon="1.34488">
        <ele>144</ele>
        <time>2019-04-14T10:27:34Z</time>
      </trkpt>
      <trkpt lat="44.42965" lon="1.34486">
        <ele>145</ele>
        <time>2019-04-14T10:27:35Z</time>
      </trkpt>
      <trkpt lat="44.42964" lon="1.34484">
        <ele>145</ele>
        <time>2019-04-14T10:27:36Z</time>
      </trkpt>
      <trkpt lat="44.42962" lon="1.34481">
        <ele>145</ele>
        <time>2019-04-14T10:27:37Z</time>
      </trkpt>
      <trkpt lat="44.42959" lon="1.34478">
        <ele>145</ele>
        <time>2019-04-14T10:27:38Z</time>
      </trkpt>
      <trkpt lat="44.42959" lon="1.34476">
        <ele>145</ele>
        <time>2019-04-14T10:27:39Z</time>
      </trkpt>
      <trkpt lat="44.42956" lon="1.34474">
        <ele>145</ele>
        <time>2019-04-14T10:27:40Z</time>
      </trkpt>
      <trkpt lat="44.42955" lon="1.34472">
        <ele>145</ele>
        <time>2019-04-14T10:27:41Z</time>
      </trkpt>
      <trkpt lat="44.42954" lon="1.3447">
        <ele>145</ele>
        <time>2019-04-14T10:27:42Z</time>
      </trkpt>
      <trkpt lat="44.42953" lon="1.34468">
        <ele>145</ele>
        <time>2019-04-14T10:27:43Z</time>
      </trkpt>
      <trkpt lat="44.42953" lon="1.34466">
        <ele>146</ele>
        <time>2019-04-14T10:27:44Z</time>
      </trkpt>
      <trkpt lat="44.42951" lon="1.34464">
        <ele>146</ele>
        <time>2019-04-14T10:27:45Z</time>
      </trkpt>
      <trkpt lat="44.42948" lon="1.3446">
        <ele>146</ele>
        <time>2019-04-14T10:27:46Z</time>
      </trkpt>
      <trkpt lat="44.42947" lon="1.34457">
        <ele>146</ele>
        <time>2019-04-14T10:27:47Z</time>
      </trkpt>
      <trkpt lat="44.42945" lon="1.34452">
        <ele>146</ele>
        <time>2019-04-14T10:27:48Z</time>
      </trkpt>
      <trkpt lat="44.42943" lon="1.3445">
        <ele>146</ele>
        <time>2019-04-14T10:27:49Z</time>
      </trkpt>
      <trkpt lat="44.42939" lon="1.34446">
        <ele>146</ele>
        <time>2019-04-14T10:27:50Z</time>
      </trkpt>
      <trkpt lat="44.42936" lon="1.34443">
        <ele>146</ele>
        <time>2019-04-14T10:27:51Z</time>
      </trkpt>
      <trkpt lat="44.42934" lon="1.3444">
        <ele>146</ele>
        <time>2019-04-14T10:27:52Z</time>
      </trkpt>
      <trkpt lat="44.42932" lon="1.34439">
        <ele>146</ele>
        <time>2019-04-14T10:27:53Z</time>
      </trkpt>
      <trkpt lat="44.42932" lon="1.34438">
        <ele>147</ele>
        <time>2019-04-14T10:27:54Z</time>
      </trkpt>
      <trkpt lat="44.42929" lon="1.34435">
        <ele>147</ele>
        <time>2019-04-14T10:27:55Z</time>
      </trkpt>
      <trkpt lat="44.42928" lon="1.34433">
        <ele>147</ele>
        <time>2019-04-14T10:27:56Z</time>
      </trkpt>
      <trkpt lat="44.42925" lon="1.34431">
        <ele>147</ele>
        <time>2019-04-14T10:27:57Z</time>
      </trkpt>
      <trkpt lat="44.42923" lon="1.34428">
        <ele>146</ele>
        <time>2019-04-14T10:27:58Z</time>
      </trkpt>
      <trkpt lat="44.42919" lon="1.34426">
        <ele>146</ele>
        <time>2019-04-14T10:27:59Z</time>
      </trkpt>
      <trkpt lat="44.42914" lon="1.34422">
        <ele>146</ele>
        <time>2019-04-14T10:28:00Z</time>
      </trkpt>
      <trkpt lat="44.42911" lon="1.34419">
        <ele>146</ele>
        <time>2019-04-14T10:28:01Z</time>
      </trkpt>
      <trkpt lat="44.42906" lon="1.34419">
        <ele>146</ele>
        <time>2019-04-14T10:28:02Z</time>
      </trkpt>
      <trkpt lat="44.42902" lon="1.34418">
        <ele>146</ele>
        <time>2019-04-14T10:28:03Z</time>
      </trkpt>
      <trkpt lat="44.42902" lon="1.34415">
        <ele>146</ele>
        <time>2019-04-14T10:28:04Z</time>
      </trkpt>
      <trkpt lat="44.42901" lon="1.34413">
        <ele>147</ele>
        <time>2019-04-14T10:28:05Z</time>
      </trkpt>
      <trkpt lat="44.42901" lon="1.34411">
        <ele>147</ele>
        <time>2019-04-14T10:28:06Z</time>
      </trkpt>
      <trkpt lat="44.42899" lon="1.3441">
        <ele>147</ele>
        <time>2019-04-14T10:28:07Z</time>
      </trkpt>
      <trkpt lat="44.42898" lon="1.34407">
        <ele>147</ele>
        <time>2019-04-14T10:28:08Z</time>
      </trkpt>
      <trkpt lat="44.42897" lon="1.34404">
        <ele>147</ele>
        <time>2019-04-14T10:28:09Z</time>
      </trkpt>
      <trkpt lat="44.42894" lon="1.344">
        <ele>147</ele>
        <time>2019-04-14T10:28:10Z</time>
      </trkpt>
      <trkpt lat="44.42893" lon="1.34396">
        <ele>147</ele>
        <time>2019-04-14T10:28:11Z</time>
      </trkpt>
      <trkpt lat="44.4289" lon="1.34393">
        <ele>147</ele>
        <time>2019-04-14T10:28:12Z</time>
      </trkpt>
      <trkpt lat="44.42887" lon="1.34391">
        <ele>147</ele>
        <time>2019-04-14T10:28:13Z</time>
      </trkpt>
      <trkpt lat="44.42885" lon="1.34388">
        <ele>147</ele>
        <time>2019-04-14T10:28:14Z</time>
      </trkpt>
      <trkpt lat="44.42884" lon="1.34386">
        <ele>147</ele>
        <time>2019-04-14T10:28:15Z</time>
      </trkpt>
      <trkpt lat="44.42882" lon="1.34384">
        <ele>147</ele>
        <time>2019-04-14T10:28:16Z</time>
      </trkpt>
      <trkpt lat="44.42881" lon="1.3438">
        <ele>147</ele>
        <time>2019-04-14T10:28:17Z</time>
      </trkpt>
      <trkpt lat="44.42879" lon="1.34379">
        <ele>147</ele>
        <time>2019-04-14T10:28:18Z</time>
      </trkpt>
      <trkpt lat="44.42876" lon="1.34376">
        <ele>147</ele>
        <time>2019-04-14T10:28:19Z</time>
      </trkpt>
      <trkpt lat="44.42875" lon="1.34375">
        <ele>147</ele>
        <time>2019-04-14T10:28:20Z</time>
      </trkpt>
      <trkpt lat="44.42871" lon="1.34374">
        <ele>148</ele>
        <time>2019-04-14T10:28:21Z</time>
      </trkpt>
      <trkpt lat="44.42869" lon="1.3437">
        <ele>148</ele>
        <time>2019-04-14T10:28:22Z</time>
      </trkpt>
      <trkpt lat="44.42865" lon="1.34367">
        <ele>148</ele>
        <time>2019-04-14T10:28:23Z</time>
      </trkpt>
      <trkpt lat="44.42861" lon="1.34364">
        <ele>148</ele>
        <time>2019-04-14T10:28:24Z</time>
      </trkpt>
      <trkpt lat="44.42859" lon="1.34361">
        <ele>148</ele>
        <time>2019-04-14T10:28:25Z</time>
      </trkpt>
      <trkpt lat="44.42857" lon="1.34358">
        <ele>148</ele>
        <time>2019-04-14T10:28:26Z</time>
      </trkpt>
      <trkpt lat="44.42856" lon="1.34357">
        <ele>148</ele>
        <time>2019-04-14T10:28:27Z</time>
      </trkpt>
      <trkpt lat="44.42854" lon="1.34354">
        <ele>148</ele>
        <time>2019-04-14T10:28:28Z</time>
      </trkpt>
      <trkpt lat="44.42852" lon="1.34352">
        <ele>148</ele>
        <time>2019-04-14T10:28:29Z</time>
      </trkpt>
      <trkpt lat="44.42853" lon="1.34349">
        <ele>148</ele>
        <time>2019-04-14T10:28:30Z</time>
      </trkpt>
      <trkpt lat="44.42853" lon="1.34348">
        <ele>148</ele>
        <time>2019-04-14T10:28:31Z</time>
      </trkpt>
      <trkpt lat="44.4285" lon="1.34346">
        <ele>149</ele>
        <time>2019-04-14T10:28:32Z</time>
      </trkpt>
      <trkpt lat="44.42846" lon="1.34343">
        <ele>149</ele>
        <time>2019-04-14T10:28:33Z</time>
      </trkpt>
      <trkpt lat="44.42846" lon="1.34339">
        <ele>149</ele>
        <time>2019-04-14T10:28:34Z</time>
      </trkpt>
      <trkpt lat="44.42843" lon="1.34336">
        <ele>149</ele>
        <time>2019-04-14T10:28:35Z</time>
      </trkpt>
      <trkpt lat="44.4284" lon="1.34333">
        <ele>149</ele>
        <time>2019-04-14T10:28:36Z</time>
      </trkpt>
      <trkpt lat="44.42837" lon="1.3433">
        <ele>149</ele>
        <time>2019-04-14T10:28:37Z</time>
      </trkpt>
      <trkpt lat="44.42835" lon="1.34329">
        <ele>149</ele>
        <time>2019-04-14T10:28:38Z</time>
      </trkpt>
      <trkpt lat="44.42836" lon="1.34328">
        <ele>149</ele>
        <time>2019-04-14T10:28:39Z</time>
      </trkpt>
      <trkpt lat="44.42836" lon="1.34327">
        <ele>150</ele>
        <time>2019-04-14T10:28:40Z</time>
      </trkpt>
      <trkpt lat="44.42834" lon="1.34326">
        <ele>150</ele>
        <time>2019-04-14T10:28:41Z</time>
      </trkpt>
      <trkpt lat="44.42834" lon="1.34325">
        <ele>150</ele>
        <time>2019-04-14T10:28:42Z</time>
      </trkpt>
      <trkpt lat="44.42831" lon="1.34324">
        <ele>150</ele>
        <time>2019-04-14T10:28:43Z</time>
      </trkpt>
      <trkpt lat="44.4283" lon="1.34322">
        <ele>151</ele>
        <time>2019-04-14T10:28:44Z</time>
      </trkpt>
      <trkpt lat="44.42828" lon="1.3432">
        <ele>151</ele>
        <time>2019-04-14T10:28:45Z</time>
      </trkpt>
      <trkpt lat="44.42825" lon="1.34318">
        <ele>151</ele>
        <time>2019-04-14T10:28:46Z</time>
      </trkpt>
      <trkpt lat="44.42823" lon="1.34314">
        <ele>150</ele>
        <time>2019-04-14T10:28:47Z</time>
      </trkpt>
      <trkpt lat="44.4282" lon="1.3431">
        <ele>151</ele>
        <time>2019-04-14T10:28:48Z</time>
      </trkpt>
      <trkpt lat="44.42818" lon="1.34308">
        <ele>151</ele>
        <time>2019-04-14T10:28:49Z</time>
      </trkpt>
      <trkpt lat="44.42816" lon="1.34307">
        <ele>151</ele>
        <time>2019-04-14T10:28:50Z</time>
      </trkpt>
      <trkpt lat="44.42815" lon="1.34306">
        <ele>151</ele>
        <time>2019-04-14T10:28:51Z</time>
      </trkpt>
      <trkpt lat="44.42812" lon="1.34304">
        <ele>151</ele>
        <time>2019-04-14T10:28:52Z</time>
      </trkpt>
      <trkpt lat="44.4281" lon="1.34301">
        <ele>151</ele>
        <time>2019-04-14T10:28:53Z</time>
      </trkpt>
      <trkpt lat="44.42807" lon="1.34298">
        <ele>151</ele>
        <time>2019-04-14T10:28:54Z</time>
      </trkpt>
      <trkpt lat="44.42807" lon="1.34296">
        <ele>151</ele>
        <time>2019-04-14T10:28:55Z</time>
      </trkpt>
      <trkpt lat="44.42806" lon="1.34294">
        <ele>151</ele>
        <time>2019-04-14T10:28:56Z</time>
      </trkpt>
      <trkpt lat="44.42805" lon="1.34292">
        <ele>151</ele>
        <time>2019-04-14T10:28:57Z</time>
      </trkpt>
      <trkpt lat="44.42804" lon="1.3429">
        <ele>151</ele>
        <time>2019-04-14T10:28:58Z</time>
      </trkpt>
      <trkpt lat="44.42801" lon="1.34288">
        <ele>151</ele>
        <time>2019-04-14T10:28:59Z</time>
      </trkpt>
      <trkpt lat="44.42797" lon="1.34285">
        <ele>151</ele>
        <time>2019-04-14T10:29:00Z</time>
      </trkpt>
      <trkpt lat="44.42795" lon="1.34283">
        <ele>151</ele>
        <time>2019-04-14T10:29:01Z</time>
      </trkpt>
      <trkpt lat="44.42793" lon="1.34281">
        <ele>152</ele>
        <time>2019-04-14T10:29:02Z</time>
      </trkpt>
      <trkpt lat="44.4279" lon="1.3428">
        <ele>152</ele>
        <time>2019-04-14T10:29:03Z</time>
      </trkpt>
      <trkpt lat="44.42786" lon="1.34278">
        <ele>152</ele>
        <time>2019-04-14T10:29:04Z</time>
      </trkpt>
      <trkpt lat="44.42784" lon="1.34275">
        <ele>152</ele>
        <time>2019-04-14T10:29:05Z</time>
      </trkpt>
      <trkpt lat="44.42779" lon="1.34273">
        <ele>152</ele>
        <time>2019-04-14T10:29:06Z</time>
      </trkpt>
      <trkpt lat="44.42777" lon="1.34271">
        <ele>152</ele>
        <time>2019-04-14T10:29:07Z</time>
      </trkpt>
      <trkpt lat="44.42775" lon="1.34269">
        <ele>152</ele>
        <time>2019-04-14T10:29:08Z</time>
      </trkpt>
      <trkpt lat="44.42775" lon="1.34268">
        <ele>152</ele>
        <time>2019-04-14T10:29:09Z</time>
      </trkpt>
      <trkpt lat="44.42774" lon="1.34267">
        <ele>151</ele>
        <time>2019-04-14T10:29:10Z</time>
      </trkpt>
      <trkpt lat="44.42771" lon="1.34265">
        <ele>151</ele>
        <time>2019-04-14T10:29:11Z</time>
      </trkpt>
      <trkpt lat="44.42769" lon="1.34264">
        <ele>151</ele>
        <time>2019-04-14T10:29:12Z</time>
      </trkpt>
      <trkpt lat="44.42765" lon="1.34263">
        <ele>152</ele>
        <time>2019-04-14T10:29:13Z</time>
      </trkpt>
      <trkpt lat="44.4276" lon="1.34261">
        <ele>152</ele>
        <time>2019-04-14T10:29:14Z</time>
      </trkpt>
      <trkpt lat="44.42759" lon="1.34261">
        <ele>152</ele>
        <time>2019-04-14T10:29:15Z</time>
      </trkpt>
      <trkpt lat="44.42756" lon="1.34259">
        <ele>152</ele>
        <time>2019-04-14T10:29:16Z</time>
      </trkpt>
      <trkpt lat="44.42752" lon="1.34258">
        <ele>152</ele>
        <time>2019-04-14T10:29:17Z</time>
      </trkpt>
      <trkpt lat="44.42751" lon="1.34256">
        <ele>152</ele>
        <time>2019-04-14T10:29:18Z</time>
      </trkpt>
      <trkpt lat="44.42748" lon="1.34255">
        <ele>152</ele>
        <time>2019-04-14T10:29:19Z</time>
      </trkpt>
      <trkpt lat="44.42745" lon="1.34254">
        <ele>152</ele>
        <time>2019-04-14T10:29:20Z</time>
      </trkpt>
      <trkpt lat="44.42744" lon="1.34252">
        <ele>152</ele>
        <time>2019-04-14T10:29:21Z</time>
      </trkpt>
      <trkpt lat="44.42741" lon="1.34251">
        <ele>152</ele>
        <time>2019-04-14T10:29:22Z</time>
      </trkpt>
      <trkpt lat="44.42739" lon="1.34249">
        <ele>152</ele>
        <time>2019-04-14T10:29:23Z</time>
      </trkpt>
      <trkpt lat="44.42737" lon="1.34249">
        <ele>152</ele>
        <time>2019-04-14T10:29:24Z</time>
      </trkpt>
      <trkpt lat="44.42736" lon="1.34248">
        <ele>153</ele>
        <time>2019-04-14T10:29:25Z</time>
      </trkpt>
      <trkpt lat="44.42735" lon="1.34247">
        <ele>153</ele>
        <time>2019-04-14T10:29:26Z</time>
      </trkpt>
      <trkpt lat="44.42732" lon="1.34247">
        <ele>153</ele>
        <time>2019-04-14T10:29:27Z</time>
      </trkpt>
      <trkpt lat="44.42732" lon="1.34247">
        <ele>152</ele>
        <time>2019-04-14T10:29:28Z</time>
      </trkpt>
      <trkpt lat="44.42729" lon="1.34246">
        <ele>152</ele>
        <time>2019-04-14T10:29:29Z</time>
      </trkpt>
      <trkpt lat="44.42727" lon="1.34246">
        <ele>153</ele>
        <time>2019-04-14T10:29:30Z</time>
      </trkpt>
      <trkpt lat="44.42726" lon="1.34246">
        <ele>153</ele>
        <time>2019-04-14T10:29:31Z</time>
      </trkpt>
      <trkpt lat="44.42724" lon="1.34245">
        <ele>153</ele>
        <time>2019-04-14T10:29:32Z</time>
      </trkpt>
      <trkpt lat="44.42722" lon="1.34244">
        <ele>153</ele>
        <time>2019-04-14T10:29:33Z</time>
      </trkpt>
      <trkpt lat="44.4272" lon="1.34243">
        <ele>153</ele>
        <time>2019-04-14T10:29:34Z</time>
      </trkpt>
      <trkpt lat="44.42716" lon="1.34243">
        <ele>153</ele>
        <time>2019-04-14T10:29:35Z</time>
      </trkpt>
      <trkpt lat="44.42714" lon="1.34243">
        <ele>153</ele>
        <time>2019-04-14T10:29:36Z</time>
      </trkpt>
      <trkpt lat="44.42713" lon="1.34242">
        <ele>153</ele>
        <time>2019-04-14T10:29:37Z</time>
      </trkpt>
      <trkpt lat="44.42711" lon="1.34241">
        <ele>153</ele>
        <time>2019-04-14T10:29:38Z</time>
      </trkpt>
      <trkpt lat="44.42708" lon="1.34239">
        <ele>153</ele>
        <time>2019-04-14T10:29:39Z</time>
      </trkpt>
      <trkpt lat="44.42707" lon="1.34238">
        <ele>152</ele>
        <time>2019-04-14T10:29:40Z</time>
      </trkpt>
      <trkpt lat="44.42705" lon="1.34237">
        <ele>152</ele>
        <time>2019-04-14T10:29:41Z</time>
      </trkpt>
      <trkpt lat="44.42702" lon="1.34237">
        <ele>152</ele>
        <time>2019-04-14T10:29:42Z</time>
      </trkpt>
      <trkpt lat="44.427" lon="1.34237">
        <ele>153</ele>
        <time>2019-04-14T10:29:43Z</time>
      </trkpt>
      <trkpt lat="44.42696" lon="1.34235">
        <ele>153</ele>
        <time>2019-04-14T10:29:44Z</time>
      </trkpt>
      <trkpt lat="44.42694" lon="1.34235">
        <ele>153</ele>
        <time>2019-04-14T10:29:45Z</time>
      </trkpt>
      <trkpt lat="44.42692" lon="1.34234">
        <ele>153</ele>
        <time>2019-04-14T10:29:46Z</time>
      </trkpt>
      <trkpt lat="44.4269" lon="1.34233">
        <ele>153</ele>
        <time>2019-04-14T10:29:47Z</time>
      </trkpt>
      <trkpt lat="44.42686" lon="1.34231">
        <ele>153</ele>
        <time>2019-04-14T10:29:48Z</time>
      </trkpt>
      <trkpt lat="44.42683" lon="1.34231">
        <ele>153</ele>
        <time>2019-04-14T10:29:49Z</time>
      </trkpt>
      <trkpt lat="44.42681" lon="1.3423">
        <ele>153</ele>
        <time>2019-04-14T10:29:50Z</time>
      </trkpt>
      <trkpt lat="44.4268" lon="1.34229">
        <ele>154</ele>
        <time>2019-04-14T10:29:51Z</time>
      </trkpt>
      <trkpt lat="44.42677" lon="1.34228">
        <ele>154</ele>
        <time>2019-04-14T10:29:52Z</time>
      </trkpt>
      <trkpt lat="44.42676" lon="1.34228">
        <ele>154</ele>
        <time>2019-04-14T10:29:53Z</time>
      </trkpt>
      <trkpt lat="44.42675" lon="1.34227">
        <ele>154</ele>
        <time>2019-04-14T10:29:54Z</time>
      </trkpt>
      <trkpt lat="44.42674" lon="1.34226">
        <ele>154</ele>
        <time>2019-04-14T10:29:55Z</time>
      </trkpt>
      <trkpt lat="44.42672" lon="1.34226">
        <ele>154</ele>
        <time>2019-04-14T10:29:56Z</time>
      </trkpt>
      <trkpt lat="44.42671" lon="1.34226">
        <ele>154</ele>
        <time>2019-04-14T10:29:57Z</time>
      </trkpt>
      <trkpt lat="44.42666" lon="1.34225">
        <ele>154</ele>
        <time>2019-04-14T10:29:58Z</time>
      </trkpt>
      <trkpt lat="44.42666" lon="1.34228">
        <ele>154</ele>
        <time>2019-04-14T10:29:59Z</time>
      </trkpt>
      <trkpt lat="44.42662" lon="1.3423">
        <ele>154</ele>
        <time>2019-04-14T10:30:00Z</time>
      </trkpt>
      <trkpt lat="44.42643" lon="1.34224">
        <ele>155</ele>
        <time>2019-04-14T10:30:06Z</time>
      </trkpt>
      <trkpt lat="44.42642" lon="1.34223">
        <ele>155</ele>
        <time>2019-04-14T10:30:07Z</time>
      </trkpt>
      <trkpt lat="44.4264" lon="1.34223">
        <ele>155</ele>
        <time>2019-04-14T10:30:08Z</time>
      </trkpt>
      <trkpt lat="44.42638" lon="1.34223">
        <ele>155</ele>
        <time>2019-04-14T10:30:09Z</time>
      </trkpt>
      <trkpt lat="44.42638" lon="1.34223">
        <ele>155</ele>
        <time>2019-04-14T10:30:10Z</time>
      </trkpt>
      <trkpt lat="44.42635" lon="1.34222">
        <ele>155</ele>
        <time>2019-04-14T10:30:11Z</time>
      </trkpt>
      <trkpt lat="44.42635" lon="1.34223">
        <ele>155</ele>
        <time>2019-04-14T10:30:12Z</time>
      </trkpt>
      <trkpt lat="44.42633" lon="1.34223">
        <ele>155</ele>
        <time>2019-04-14T10:30:13Z</time>
      </trkpt>
      <trkpt lat="44.42632" lon="1.34223">
        <ele>155</ele>
        <time>2019-04-14T10:30:14Z</time>
      </trkpt>
      <trkpt lat="44.4263" lon="1.34223">
        <ele>155</ele>
        <time>2019-04-14T10:30:15Z</time>
      </trkpt>
      <trkpt lat="44.42629" lon="1.34222">
        <ele>155</ele>
        <time>2019-04-14T10:30:16Z</time>
      </trkpt>
      <trkpt lat="44.42627" lon="1.34222">
        <ele>155</ele>
        <time>2019-04-14T10:30:17Z</time>
      </trkpt>
      <trkpt lat="44.42625" lon="1.34221">
        <ele>155</ele>
        <time>2019-04-14T10:30:18Z</time>
      </trkpt>
      <trkpt lat="44.42624" lon="1.34221">
        <ele>155</ele>
        <time>2019-04-14T10:30:19Z</time>
      </trkpt>
      <trkpt lat="44.42624" lon="1.34221">
        <ele>155</ele>
        <time>2019-04-14T10:30:20Z</time>
      </trkpt>
      <trkpt lat="44.42584" lon="1.34213">
        <ele>158</ele>
        <time>2019-04-14T10:30:49Z</time>
      </trkpt>
      <trkpt lat="44.42581" lon="1.34213">
        <ele>158</ele>
        <time>2019-04-14T10:30:50Z</time>
      </trkpt>
      <trkpt lat="44.42578" lon="1.34212">
        <ele>158</ele>
        <time>2019-04-14T10:30:51Z</time>
      </trkpt>
      <trkpt lat="44.42576" lon="1.34212">
        <ele>158</ele>
        <time>2019-04-14T10:30:52Z</time>
      </trkpt>
      <trkpt lat="44.42574" lon="1.34212">
        <ele>159</ele>
        <time>2019-04-14T10:30:53Z</time>
      </trkpt>
      <trkpt lat="44.42572" lon="1.34212">
        <ele>158</ele>
        <time>2019-04-14T10:30:54Z</time>
      </trkpt>
      <trkpt lat="44.42569" lon="1.34211">
        <ele>159</ele>
        <time>2019-04-14T10:30:55Z</time>
      </trkpt>
      <trkpt lat="44.42567" lon="1.34211">
        <ele>159</ele>
        <time>2019-04-14T10:30:56Z</time>
      </trkpt>
      <trkpt lat="44.42564" lon="1.34211">
        <ele>159</ele>
        <time>2019-04-14T10:30:57Z</time>
      </trkpt>
      <trkpt lat="44.42562" lon="1.34211">
        <ele>159</ele>
        <time>2019-04-14T10:30:58Z</time>
      </trkpt>
      <trkpt lat="44.42559" lon="1.34212">
        <ele>159</ele>
        <time>2019-04-14T10:30:59Z</time>
      </trkpt>
      <trkpt lat="44.42556" lon="1.34212">
        <ele>159</ele>
        <time>2019-04-14T10:31:00Z</time>
      </trkpt>
      <trkpt lat="44.42553" lon="1.34212">
        <ele>159</ele>
        <time>2019-04-14T10:31:01Z</time>
      </trkpt>
      <trkpt lat="44.42551" lon="1.34212">
        <ele>159</ele>
        <time>2019-04-14T10:31:02Z</time>
      </trkpt>
      <trkpt lat="44.42549" lon="1.34213">
        <ele>159</ele>
        <time>2019-04-14T10:31:03Z</time>
      </trkpt>
      <trkpt lat="44.42547" lon="1.34212">
        <ele>159</ele>
        <time>2019-04-14T10:31:04Z</time>
      </trkpt>
      <trkpt lat="44.42545" lon="1.34212">
        <ele>159</ele>
        <time>2019-04-14T10:31:05Z</time>
      </trkpt>
      <trkpt lat="44.42544" lon="1.34213">
        <ele>159</ele>
        <time>2019-04-14T10:31:06Z</time>
      </trkpt>
      <trkpt lat="44.42542" lon="1.34214">
        <ele>159</ele>
        <time>2019-04-14T10:31:07Z</time>
      </trkpt>
      <trkpt lat="44.4254" lon="1.34214">
        <ele>159</ele>
        <time>2019-04-14T10:31:08Z</time>
      </trkpt>
      <trkpt lat="44.42537" lon="1.34214">
        <ele>159</ele>
        <time>2019-04-14T10:31:09Z</time>
      </trkpt>
      <trkpt lat="44.42535" lon="1.34215">
        <ele>159</ele>
        <time>2019-04-14T10:31:10Z</time>
      </trkpt>
      <trkpt lat="44.42533" lon="1.34217">
        <ele>159</ele>
        <time>2019-04-14T10:31:11Z</time>
      </trkpt>
      <trkpt lat="44.42531" lon="1.34217">
        <ele>159</ele>
        <time>2019-04-14T10:31:12Z</time>
      </trkpt>
      <trkpt lat="44.42529" lon="1.34218">
        <ele>159</ele>
        <time>2019-04-14T10:31:13Z</time>
      </trkpt>
      <trkpt lat="44.42528" lon="1.34217">
        <ele>159</ele>
        <time>2019-04-14T10:31:14Z</time>
      </trkpt>
      <trkpt lat="44.42527" lon="1.34218">
        <ele>159</ele>
        <time>2019-04-14T10:31:15Z</time>
      </trkpt>
      <trkpt lat="44.42524" lon="1.34219">
        <ele>159</ele>
        <time>2019-04-14T10:31:16Z</time>
      </trkpt>
      <trkpt lat="44.42522" lon="1.34221">
        <ele>159</ele>
        <time>2019-04-14T10:31:17Z</time>
      </trkpt>
      <trkpt lat="44.42519" lon="1.34223">
        <ele>159</ele>
        <time>2019-04-14T10:31:18Z</time>
      </trkpt>
      <trkpt lat="44.42517" lon="1.34225">
        <ele>159</ele>
        <time>2019-04-14T10:31:19Z</time>
      </trkpt>
      <trkpt lat="44.42516" lon="1.34227">
        <ele>159</ele>
        <time>2019-04-14T10:31:20Z</time>
      </trkpt>
      <trkpt lat="44.42514" lon="1.34229">
        <ele>159</ele>
        <time>2019-04-14T10:31:21Z</time>
      </trkpt>
      <trkpt lat="44.42512" lon="1.3423">
        <ele>159</ele>
        <time>2019-04-14T10:31:22Z</time>
      </trkpt>
      <trkpt lat="44.4251" lon="1.34231">
        <ele>159</ele>
        <time>2019-04-14T10:31:23Z</time>
      </trkpt>
      <trkpt lat="44.42508" lon="1.34232">
        <ele>159</ele>
        <time>2019-04-14T10:31:24Z</time>
      </trkpt>
      <trkpt lat="44.42507" lon="1.34235">
        <ele>158</ele>
        <time>2019-04-14T10:31:25Z</time>
      </trkpt>
      <trkpt lat="44.42504" lon="1.34235">
        <ele>158</ele>
        <time>2019-04-14T10:31:26Z</time>
      </trkpt>
      <trkpt lat="44.42502" lon="1.34235">
        <ele>158</ele>
        <time>2019-04-14T10:31:27Z</time>
      </trkpt>
      <trkpt lat="44.42499" lon="1.34236">
        <ele>158</ele>
        <time>2019-04-14T10:31:28Z</time>
      </trkpt>
      <trkpt lat="44.42497" lon="1.34238">
        <ele>158</ele>
        <time>2019-04-14T10:31:29Z</time>
      </trkpt>
      <trkpt lat="44.42496" lon="1.34241">
        <ele>158</ele>
        <time>2019-04-14T10:31:30Z</time>
      </trkpt>
      <trkpt lat="44.42493" lon="1.34243">
        <ele>158</ele>
        <time>2019-04-14T10:31:31Z</time>
      </trkpt>
      <trkpt lat="44.42492" lon="1.34246">
        <ele>158</ele>
        <time>2019-04-14T10:31:32Z</time>
      </trkpt>
      <trkpt lat="44.4249" lon="1.34248">
        <ele>158</ele>
        <time>2019-04-14T10:31:33Z</time>
      </trkpt>
      <trkpt lat="44.4249" lon="1.3425">
        <ele>158</ele>
        <time>2019-04-14T10:31:34Z</time>
      </trkpt>
      <trkpt lat="44.42487" lon="1.34252">
        <ele>158</ele>
        <time>2019-04-14T10:31:35Z</time>
      </trkpt>
      <trkpt lat="44.42485" lon="1.34254">
        <ele>158</ele>
        <time>2019-04-14T10:31:36Z</time>
      </trkpt>
      <trkpt lat="44.42482" lon="1.34256">
        <ele>158</ele>
        <time>2019-04-14T10:31:37Z</time>
      </trkpt>
      <trkpt lat="44.42481" lon="1.34259">
        <ele>158</ele>
        <time>2019-04-14T10:31:38Z</time>
      </trkpt>
      <trkpt lat="44.42478" lon="1.34261">
        <ele>159</ele>
        <time>2019-04-14T10:31:39Z</time>
      </trkpt>
      <trkpt lat="44.42477" lon="1.34263">
        <ele>159</ele>
        <time>2019-04-14T10:31:40Z</time>
      </trkpt>
      <trkpt lat="44.42476" lon="1.34265">
        <ele>158</ele>
        <time>2019-04-14T10:31:41Z</time>
      </trkpt>
      <trkpt lat="44.42476" lon="1.34267">
        <ele>158</ele>
        <time>2019-04-14T10:31:42Z</time>
      </trkpt>
      <trkpt lat="44.42472" lon="1.34268">
        <ele>158</ele>
        <time>2019-04-14T10:31:43Z</time>
      </trkpt>
      <trkpt lat="44.42469" lon="1.3427">
        <ele>158</ele>
        <time>2019-04-14T10:31:44Z</time>
      </trkpt>
      <trkpt lat="44.42467" lon="1.34271">
        <ele>158</ele>
        <time>2019-04-14T10:31:45Z</time>
      </trkpt>
      <trkpt lat="44.42466" lon="1.34274">
        <ele>158</ele>
        <time>2019-04-14T10:31:46Z</time>
      </trkpt>
      <trkpt lat="44.42465" lon="1.34276">
        <ele>158</ele>
        <time>2019-04-14T10:31:47Z</time>
      </trkpt>
      <trkpt lat="44.42464" lon="1.34278">
        <ele>158</ele>
        <time>2019-04-14T10:31:48Z</time>
      </trkpt>
      <trkpt lat="44.42464" lon="1.34279">
        <ele>158</ele>
        <time>2019-04-14T10:31:49Z</time>
      </trkpt>
      <trkpt lat="44.42462" lon="1.3428">
        <ele>159</ele>
        <time>2019-04-14T10:31:50Z</time>
      </trkpt>
      <trkpt lat="44.42462" lon="1.34283">
        <ele>159</ele>
        <time>2019-04-14T10:31:51Z</time>
      </trkpt>
      <trkpt lat="44.42461" lon="1.34284">
        <ele>159</ele>
        <time>2019-04-14T10:31:52Z</time>
      </trkpt>
      <trkpt lat="44.4246" lon="1.34286">
        <ele>160</ele>
        <time>2019-04-14T10:31:53Z</time>
      </trkpt>
      <trkpt lat="44.4246" lon="1.34285">
        <ele>159</ele>
        <time>2019-04-14T10:31:54Z</time>
      </trkpt>
      <trkpt lat="44.4246" lon="1.34286">
        <ele>159</ele>
        <time>2019-04-14T10:31:55Z</time>
      </trkpt>
      <trkpt lat="44.4246" lon="1.34286">
        <ele>159</ele>
        <time>2019-04-14T10:31:56Z</time>
      </trkpt>
      <trkpt lat="44.42459" lon="1.34286">
        <ele>160</ele>
        <time>2019-04-14T10:31:57Z</time>
      </trkpt>
      <trkpt lat="44.42458" lon="1.34287">
        <ele>160</ele>
        <time>2019-04-14T10:31:58Z</time>
      </trkpt>
      <trkpt lat="44.42456" lon="1.34288">
        <ele>160</ele>
        <time>2019-04-14T10:31:59Z</time>
      </trkpt>
      <trkpt lat="44.42438" lon="1.343">
        <ele>161</ele>
        <time>2019-04-14T10:32:09Z</time>
      </trkpt>
      <trkpt lat="44.42436" lon="1.34302">
        <ele>161</ele>
        <time>2019-04-14T10:32:10Z</time>
      </trkpt>
      <trkpt lat="44.42435" lon="1.34304">
        <ele>161</ele>
        <time>2019-04-14T10:32:11Z</time>
      </trkpt>
      <trkpt lat="44.42432" lon="1.34304">
        <ele>161</ele>
        <time>2019-04-14T10:32:12Z</time>
      </trkpt>
      <trkpt lat="44.4243" lon="1.34306">
        <ele>161</ele>
        <time>2019-04-14T10:32:13Z</time>
      </trkpt>
      <trkpt lat="44.42429" lon="1.34309">
        <ele>161</ele>
        <time>2019-04-14T10:32:14Z</time>
      </trkpt>
      <trkpt lat="44.42427" lon="1.34311">
        <ele>161</ele>
        <time>2019-04-14T10:32:15Z</time>
      </trkpt>
      <trkpt lat="44.42423" lon="1.34311">
        <ele>161</ele>
        <time>2019-04-14T10:32:16Z</time>
      </trkpt>
      <trkpt lat="44.4242" lon="1.34311">
        <ele>160</ele>
        <time>2019-04-14T10:32:17Z</time>
      </trkpt>
      <trkpt lat="44.42416" lon="1.34312">
        <ele>160</ele>
        <time>2019-04-14T10:32:18Z</time>
      </trkpt>
      <trkpt lat="44.42413" lon="1.34313">
        <ele>160</ele>
        <time>2019-04-14T10:32:19Z</time>
      </trkpt>
      <trkpt lat="44.42411" lon="1.34316">
        <ele>160</ele>
        <time>2019-04-14T10:32:20Z</time>
      </trkpt>
      <trkpt lat="44.4241" lon="1.34319">
        <ele>160</ele>
        <time>2019-04-14T10:32:21Z</time>
      </trkpt>
      <trkpt lat="44.42408" lon="1.34322">
        <ele>161</ele>
        <time>2019-04-14T10:32:22Z</time>
      </trkpt>
      <trkpt lat="44.42405" lon="1.34324">
        <ele>161</ele>
        <time>2019-04-14T10:32:23Z</time>
      </trkpt>
      <trkpt lat="44.42404" lon="1.34326">
        <ele>161</ele>
        <time>2019-04-14T10:32:24Z</time>
      </trkpt>
      <trkpt lat="44.42402" lon="1.34328">
        <ele>161</ele>
        <time>2019-04-14T10:32:25Z</time>
      </trkpt>
      <trkpt lat="44.424" lon="1.34329">
        <ele>161</ele>
        <time>2019-04-14T10:32:26Z</time>
      </trkpt>
      <trkpt lat="44.42398" lon="1.3433">
        <ele>161</ele>
        <time>2019-04-14T10:32:27Z</time>
      </trkpt>
      <trkpt lat="44.42396" lon="1.34331">
        <ele>161</ele>
        <time>2019-04-14T10:32:28Z</time>
      </trkpt>
      <trkpt lat="44.42394" lon="1.34332">
        <ele>161</ele>
        <time>2019-04-14T10:32:29Z</time>
      </trkpt>
      <trkpt lat="44.42391" lon="1.34333">
        <ele>161</ele>
        <time>2019-04-14T10:32:30Z</time>
      </trkpt>
      <trkpt lat="44.42389" lon="1.34335">
        <ele>161</ele>
        <time>2019-04-14T10:32:31Z</time>
      </trkpt>
      <trkpt lat="44.42388" lon="1.34337">
        <ele>161</ele>
        <time>2019-04-14T10:32:32Z</time>
      </trkpt>
      <trkpt lat="44.42386" lon="1.34339">
        <ele>162</ele>
        <time>2019-04-14T10:32:33Z</time>
      </trkpt>
      <trkpt lat="44.42384" lon="1.34339">
        <ele>162</ele>
        <time>2019-04-14T10:32:34Z</time>
      </trkpt>
      <trkpt lat="44.42382" lon="1.34338">
        <ele>162</ele>
        <time>2019-04-14T10:32:35Z</time>
      </trkpt>
      <trkpt lat="44.42381" lon="1.34336">
        <ele>161</ele>
        <time>2019-04-14T10:32:36Z</time>
      </trkpt>
      <trkpt lat="44.42378" lon="1.34335">
        <ele>161</ele>
        <time>2019-04-14T10:32:37Z</time>
      </trkpt>
      <trkpt lat="44.42376" lon="1.34331">
        <ele>161</ele>
        <time>2019-04-14T10:32:38Z</time>
      </trkpt>
      <trkpt lat="44.42376" lon="1.34328">
        <ele>160</ele>
        <time>2019-04-14T10:32:39Z</time>
      </trkpt>
      <trkpt lat="44.42375" lon="1.34325">
        <ele>160</ele>
        <time>2019-04-14T10:32:40Z</time>
      </trkpt>
      <trkpt lat="44.42373" lon="1.34322">
        <ele>160</ele>
        <time>2019-04-14T10:32:41Z</time>
      </trkpt>
      <trkpt lat="44.42373" lon="1.34319">
        <ele>160</ele>
        <time>2019-04-14T10:32:42Z</time>
      </trkpt>
      <trkpt lat="44.42373" lon="1.34317">
        <ele>160</ele>
        <time>2019-04-14T10:32:43Z</time>
      </trkpt>
      <trkpt lat="44.42373" lon="1.34315">
        <ele>160</ele>
        <time>2019-04-14T10:32:44Z</time>
      </trkpt>
      <trkpt lat="44.42373" lon="1.34314">
        <ele>160</ele>
        <time>2019-04-14T10:32:45Z</time>
      </trkpt>
      <trkpt lat="44.42372" lon="1.34313">
        <ele>160</ele>
        <time>2019-04-14T10:32:46Z</time>
      </trkpt>
      <trkpt lat="44.42373" lon="1.34312">
        <ele>160</ele>
        <time>2019-04-14T10:32:47Z</time>
      </trkpt>
      <trkpt lat="44.42373" lon="1.34311">
        <ele>160</ele>
        <time>2019-04-14T10:32:48Z</time>
      </trkpt>
      <trkpt lat="44.42373" lon="1.3431">
        <ele>160</ele>
        <time>2019-04-14T10:32:49Z</time>
      </trkpt>
      <trkpt lat="44.42374" lon="1.34309">
        <ele>160</ele>
        <time>2019-04-14T10:32:50Z</time>
      </trkpt>
      <trkpt lat="44.42375" lon="1.34308">
        <ele>160</ele>
        <time>2019-04-14T10:32:51Z</time>
      </trkpt>
      <trkpt lat="44.42376" lon="1.34307">
        <ele>160</ele>
        <time>2019-04-14T10:32:52Z</time>
      </trkpt>
      <trkpt lat="44.42377" lon="1.34305">
        <ele>160</ele>
        <time>2019-04-14T10:32:53Z</time>
      </trkpt>
      <trkpt lat="44.42378" lon="1.34303">
        <ele>160</ele>
        <time>2019-04-14T10:32:54Z</time>
      </trkpt>
      <trkpt lat="44.42379" lon="1.34302">
        <ele>160</ele>
        <time>2019-04-14T10:32:55Z</time>
      </trkpt>
      <trkpt lat="44.42379" lon="1.34301">
        <ele>160</ele>
        <time>2019-04-14T10:32:56Z</time>
      </trkpt>
      <trkpt lat="44.42381" lon="1.34299">
        <ele>160</ele>
        <time>2019-04-14T10:32:57Z</time>
      </trkpt>
      <trkpt lat="44.42383" lon="1.34297">
        <ele>160</ele>
        <time>2019-04-14T10:32:58Z</time>
      </trkpt>
      <trkpt lat="44.42384" lon="1.34296">
        <ele>160</ele>
        <time>2019-04-14T10:32:59Z</time>
      </trkpt>
      <trkpt lat="44.42386" lon="1.34296">
        <ele>160</ele>
        <time>2019-04-14T10:33:00Z</time>
      </trkpt>
      <trkpt lat="44.42387" lon="1.34295">
        <ele>160</ele>
        <time>2019-04-14T10:33:01Z</time>
      </trkpt>
      <trkpt lat="44.42389" lon="1.34292">
        <ele>160</ele>
        <time>2019-04-14T10:33:02Z</time>
      </trkpt>
      <trkpt lat="44.4239" lon="1.34291">
        <ele>160</ele>
        <time>2019-04-14T10:33:03Z</time>
      </trkpt>
      <trkpt lat="44.42391" lon="1.34289">
        <ele>160</ele>
        <time>2019-04-14T10:33:04Z</time>
      </trkpt>
      <trkpt lat="44.42393" lon="1.34288">
        <ele>160</ele>
        <time>2019-04-14T10:33:05Z</time>
      </trkpt>
      <trkpt lat="44.42396" lon="1.34285">
        <ele>160</ele>
        <time>2019-04-14T10:33:06Z</time>
      </trkpt>
      <trkpt lat="44.42398" lon="1.34283">
        <ele>159</ele>
        <time>2019-04-14T10:33:07Z</time>
      </trkpt>
      <trkpt lat="44.42401" lon="1.34281">
        <ele>159</ele>
        <time>2019-04-14T10:33:08Z</time>
      </trkpt>
      <trkpt lat="44.42404" lon="1.34278">
        <ele>159</ele>
        <time>2019-04-14T10:33:09Z</time>
      </trkpt>
      <trkpt lat="44.42406" lon="1.34275">
        <ele>159</ele>
        <time>2019-04-14T10:33:10Z</time>
      </trkpt>
      <trkpt lat="44.42408" lon="1.34272">
        <ele>159</ele>
        <time>2019-04-14T10:33:11Z</time>
      </trkpt>
      <trkpt lat="44.42411" lon="1.34269">
        <ele>159</ele>
        <time>2019-04-14T10:33:12Z</time>
      </trkpt>
      <trkpt lat="44.42415" lon="1.34266">
        <ele>159</ele>
        <time>2019-04-14T10:33:13Z</time>
      </trkpt>
      <trkpt lat="44.42419" lon="1.34263">
        <ele>159</ele>
        <time>2019-04-14T10:33:14Z</time>
      </trkpt>
      <trkpt lat="44.42421" lon="1.3426">
        <ele>159</ele>
        <time>2019-04-14T10:33:15Z</time>
      </trkpt>
      <trkpt lat="44.42423" lon="1.34256">
        <ele>159</ele>
        <time>2019-04-14T10:33:16Z</time>
      </trkpt>
      <trkpt lat="44.42426" lon="1.34252">
        <ele>159</ele>
        <time>2019-04-14T10:33:17Z</time>
      </trkpt>
      <trkpt lat="44.42428" lon="1.34249">
        <ele>158</ele>
        <time>2019-04-14T10:33:18Z</time>
      </trkpt>
      <trkpt lat="44.42431" lon="1.34245">
        <ele>158</ele>
        <time>2019-04-14T10:33:19Z</time>
      </trkpt>
      <trkpt lat="44.42435" lon="1.34241">
        <ele>158</ele>
        <time>2019-04-14T10:33:20Z</time>
      </trkpt>
      <trkpt lat="44.42437" lon="1.34237">
        <ele>158</ele>
        <time>2019-04-14T10:33:21Z</time>
      </trkpt>
      <trkpt lat="44.42439" lon="1.34232">
        <ele>158</ele>
        <time>2019-04-14T10:33:22Z</time>
      </trkpt>
      <trkpt lat="44.42442" lon="1.34227">
        <ele>158</ele>
        <time>2019-04-14T10:33:23Z</time>
      </trkpt>
      <trkpt lat="44.42445" lon="1.34222">
        <ele>158</ele>
        <time>2019-04-14T10:33:24Z</time>
      </trkpt>
      <trkpt lat="44.42447" lon="1.34217">
        <ele>158</ele>
        <time>2019-04-14T10:33:25Z</time>
      </trkpt>
      <trkpt lat="44.4245" lon="1.34212">
        <ele>158</ele>
        <time>2019-04-14T10:33:26Z</time>
      </trkpt>
      <trkpt lat="44.42454" lon="1.34208">
        <ele>157</ele>
        <time>2019-04-14T10:33:27Z</time>
      </trkpt>
      <trkpt lat="44.42457" lon="1.34204">
        <ele>157</ele>
        <time>2019-04-14T10:33:28Z</time>
      </trkpt>
      <trkpt lat="44.4246" lon="1.342">
        <ele>157</ele>
        <time>2019-04-14T10:33:29Z</time>
      </trkpt>
      <trkpt lat="44.42463" lon="1.34196">
        <ele>157</ele>
        <time>2019-04-14T10:33:30Z</time>
      </trkpt>
      <trkpt lat="44.42466" lon="1.34192">
        <ele>157</ele>
        <time>2019-04-14T10:33:31Z</time>
      </trkpt>
      <trkpt lat="44.42469" lon="1.34188">
        <ele>157</ele>
        <time>2019-04-14T10:33:32Z</time>
      </trkpt>
      <trkpt lat="44.42471" lon="1.34184">
        <ele>157</ele>
        <time>2019-04-14T10:33:33Z</time>
      </trkpt>
      <trkpt lat="44.42473" lon="1.3418">
        <ele>157</ele>
        <time>2019-04-14T10:33:34Z</time>
      </trkpt>
      <trkpt lat="44.42474" lon="1.34176">
        <ele>157</ele>
        <time>2019-04-14T10:33:35Z</time>
      </trkpt>
      <trkpt lat="44.42476" lon="1.34172">
        <ele>157</ele>
        <time>2019-04-14T10:33:36Z</time>
      </trkpt>
      <trkpt lat="44.42478" lon="1.34168">
        <ele>157</ele>
        <time>2019-04-14T10:33:37Z</time>
      </trkpt>
      <trkpt lat="44.42481" lon="1.34164">
        <ele>157</ele>
        <time>2019-04-14T10:33:38Z</time>
      </trkpt>
      <trkpt lat="44.42484" lon="1.34162">
        <ele>157</ele>
        <time>2019-04-14T10:33:39Z</time>
      </trkpt>
      <trkpt lat="44.42489" lon="1.3416">
        <ele>157</ele>
        <time>2019-04-14T10:33:40Z</time>
      </trkpt>
      <trkpt lat="44.42493" lon="1.34157">
        <ele>157</ele>
        <time>2019-04-14T10:33:41Z</time>
      </trkpt>
      <trkpt lat="44.42497" lon="1.34155">
        <ele>157</ele>
        <time>2019-04-14T10:33:42Z</time>
      </trkpt>
      <trkpt lat="44.42499" lon="1.34152">
        <ele>158</ele>
        <time>2019-04-14T10:33:43Z</time>
      </trkpt>
      <trkpt lat="44.42501" lon="1.34149">
        <ele>158</ele>
        <time>2019-04-14T10:33:44Z</time>
      </trkpt>
      <trkpt lat="44.42503" lon="1.34148">
        <ele>158</ele>
        <time>2019-04-14T10:33:45Z</time>
      </trkpt>
      <trkpt lat="44.42506" lon="1.34148">
        <ele>158</ele>
        <time>2019-04-14T10:33:46Z</time>
      </trkpt>
      <trkpt lat="44.4251" lon="1.34149">
        <ele>157</ele>
        <time>2019-04-14T10:33:47Z</time>
      </trkpt>
      <trkpt lat="44.42513" lon="1.3415">
        <ele>157</ele>
        <time>2019-04-14T10:33:48Z</time>
      </trkpt>
      <trkpt lat="44.42517" lon="1.3415">
        <ele>157</ele>
        <time>2019-04-14T10:33:49Z</time>
      </trkpt>
      <trkpt lat="44.42521" lon="1.34151">
        <ele>157</ele>
        <time>2019-04-14T10:33:50Z</time>
      </trkpt>
      <trkpt lat="44.42524" lon="1.34152">
        <ele>157</ele>
        <time>2019-04-14T10:33:51Z</time>
      </trkpt>
      <trkpt lat="44.42529" lon="1.34151">
        <ele>157</ele>
        <time>2019-04-14T10:33:52Z</time>
      </trkpt>
      <trkpt lat="44.42534" lon="1.34152">
        <ele>157</ele>
        <time>2019-04-14T10:33:53Z</time>
      </trkpt>
      <trkpt lat="44.42537" lon="1.34152">
        <ele>157</ele>
        <time>2019-04-14T10:33:54Z</time>
      </trkpt>
      <trkpt lat="44.42541" lon="1.34152">
        <ele>157</ele>
        <time>2019-04-14T10:33:55Z</time>
      </trkpt>
      <trkpt lat="44.42545" lon="1.34152">
        <ele>157</ele>
        <time>2019-04-14T10:33:56Z</time>
      </trkpt>
      <trkpt lat="44.42549" lon="1.34153">
        <ele>157</ele>
        <time>2019-04-14T10:33:57Z</time>
      </trkpt>
      <trkpt lat="44.42553" lon="1.34154">
        <ele>156</ele>
        <time>2019-04-14T10:33:58Z</time>
      </trkpt>
      <trkpt lat="44.42557" lon="1.34153">
        <ele>156</ele>
        <time>2019-04-14T10:33:59Z</time>
      </trkpt>
      <trkpt lat="44.42562" lon="1.34152">
        <ele>156</ele>
        <time>2019-04-14T10:34:00Z</time>
      </trkpt>
      <trkpt lat="44.42567" lon="1.34152">
        <ele>156</ele>
        <time>2019-04-14T10:34:01Z</time>
      </trkpt>
      <trkpt lat="44.42571" lon="1.34153">
        <ele>156</ele>
        <time>2019-04-14T10:34:03Z</time>
      </trkpt>
      <trkpt lat="44.42581" lon="1.34153">
        <ele>156</ele>
        <time>2019-04-14T10:34:04Z</time>
      </trkpt>
      <trkpt lat="44.42586" lon="1.34152">
        <ele>156</ele>
        <time>2019-04-14T10:34:05Z</time>
      </trkpt>
      <trkpt lat="44.4259" lon="1.34151">
        <ele>156</ele>
        <time>2019-04-14T10:34:06Z</time>
      </trkpt>
      <trkpt lat="44.42596" lon="1.3415">
        <ele>156</ele>
        <time>2019-04-14T10:34:07Z</time>
      </trkpt>
      <trkpt lat="44.426" lon="1.34149">
        <ele>155</ele>
        <time>2019-04-14T10:34:08Z</time>
      </trkpt>
      <trkpt lat="44.42605" lon="1.3415">
        <ele>155</ele>
        <time>2019-04-14T10:34:09Z</time>
      </trkpt>
      <trkpt lat="44.4261" lon="1.34151">
        <ele>155</ele>
        <time>2019-04-14T10:34:10Z</time>
      </trkpt>
      <trkpt lat="44.42615" lon="1.34151">
        <ele>155</ele>
        <time>2019-04-14T10:34:11Z</time>
      </trkpt>
      <trkpt lat="44.42618" lon="1.3415">
        <ele>155</ele>
        <time>2019-04-14T10:34:12Z</time>
      </trkpt>
      <trkpt lat="44.42622" lon="1.34149">
        <ele>155</ele>
        <time>2019-04-14T10:34:13Z</time>
      </trkpt>
      <trkpt lat="44.42626" lon="1.34149">
        <ele>154</ele>
        <time>2019-04-14T10:34:14Z</time>
      </trkpt>
      <trkpt lat="44.4263" lon="1.3415">
        <ele>154</ele>
        <time>2019-04-14T10:34:15Z</time>
      </trkpt>
      <trkpt lat="44.42634" lon="1.34149">
        <ele>154</ele>
        <time>2019-04-14T10:34:16Z</time>
      </trkpt>
      <trkpt lat="44.42638" lon="1.34149">
        <ele>154</ele>
        <time>2019-04-14T10:34:17Z</time>
      </trkpt>
      <trkpt lat="44.42642" lon="1.34149">
        <ele>154</ele>
        <time>2019-04-14T10:34:18Z</time>
      </trkpt>
      <trkpt lat="44.42646" lon="1.34149">
        <ele>154</ele>
        <time>2019-04-14T10:34:19Z</time>
      </trkpt>
      <trkpt lat="44.42649" lon="1.34147">
        <ele>154</ele>
        <time>2019-04-14T10:34:20Z</time>
      </trkpt>
      <trkpt lat="44.42652" lon="1.34146">
        <ele>154</ele>
        <time>2019-04-14T10:34:21Z</time>
      </trkpt>
      <trkpt lat="44.42655" lon="1.34144">
        <ele>154</ele>
        <time>2019-04-14T10:34:22Z</time>
      </trkpt>
      <trkpt lat="44.42657" lon="1.34143">
        <ele>154</ele>
        <time>2019-04-14T10:34:23Z</time>
      </trkpt>
      <trkpt lat="44.42659" lon="1.34142">
        <ele>154</ele>
        <time>2019-04-14T10:34:24Z</time>
      </trkpt>
      <trkpt lat="44.42661" lon="1.34141">
        <ele>154</ele>
        <time>2019-04-14T10:34:25Z</time>
      </trkpt>
      <trkpt lat="44.42664" lon="1.34139">
        <ele>154</ele>
        <time>2019-04-14T10:34:26Z</time>
      </trkpt>
      <trkpt lat="44.42666" lon="1.34139">
        <ele>154</ele>
        <time>2019-04-14T10:34:27Z</time>
      </trkpt>
      <trkpt lat="44.42667" lon="1.34139">
        <ele>154</ele>
        <time>2019-04-14T10:34:28Z</time>
      </trkpt>
      <trkpt lat="44.42669" lon="1.34138">
        <ele>155</ele>
        <time>2019-04-14T10:34:29Z</time>
      </trkpt>
      <trkpt lat="44.42671" lon="1.34139">
        <ele>155</ele>
        <time>2019-04-14T10:34:30Z</time>
      </trkpt>
      <trkpt lat="44.42672" lon="1.34139">
        <ele>155</ele>
        <time>2019-04-14T10:34:31Z</time>
      </trkpt>
      <trkpt lat="44.42674" lon="1.34138">
        <ele>155</ele>
        <time>2019-04-14T10:34:33Z</time>
      </trkpt>
      <trkpt lat="44.42678" lon="1.34138">
        <ele>155</ele>
        <time>2019-04-14T10:34:34Z</time>
      </trkpt>
      <trkpt lat="44.42679" lon="1.34138">
        <ele>156</ele>
        <time>2019-04-14T10:34:35Z</time>
      </trkpt>
      <trkpt lat="44.42682" lon="1.34138">
        <ele>156</ele>
        <time>2019-04-14T10:34:36Z</time>
      </trkpt>
      <trkpt lat="44.42683" lon="1.34138">
        <ele>156</ele>
        <time>2019-04-14T10:34:37Z</time>
      </trkpt>
      <trkpt lat="44.42685" lon="1.34138">
        <ele>157</ele>
        <time>2019-04-14T10:34:38Z</time>
      </trkpt>
      <trkpt lat="44.42687" lon="1.34138">
        <ele>157</ele>
        <time>2019-04-14T10:34:39Z</time>
      </trkpt>
      <trkpt lat="44.42688" lon="1.34138">
        <ele>157</ele>
        <time>2019-04-14T10:34:40Z</time>
      </trkpt>
      <trkpt lat="44.4269" lon="1.34138">
        <ele>157</ele>
        <time>2019-04-14T10:34:41Z</time>
      </trkpt>
      <trkpt lat="44.42692" lon="1.34138">
        <ele>157</ele>
        <time>2019-04-14T10:34:42Z</time>
      </trkpt>
      <trkpt lat="44.42693" lon="1.34138">
        <ele>158</ele>
        <time>2019-04-14T10:34:43Z</time>
      </trkpt>
      <trkpt lat="44.42694" lon="1.34138">
        <ele>158</ele>
        <time>2019-04-14T10:34:44Z</time>
      </trkpt>
      <trkpt lat="44.42696" lon="1.34138">
        <ele>158</ele>
        <time>2019-04-14T10:34:45Z</time>
      </trkpt>
      <trkpt lat="44.42697" lon="1.34138">
        <ele>159</ele>
        <time>2019-04-14T10:34:46Z</time>
      </trkpt>
      <trkpt lat="44.42699" lon="1.34138">
        <ele>159</ele>
        <time>2019-04-14T10:34:47Z</time>
      </trkpt>
      <trkpt lat="44.427" lon="1.34138">
        <ele>159</ele>
        <time>2019-04-14T10:34:48Z</time>
      </trkpt>
      <trkpt lat="44.42701" lon="1.34137">
        <ele>159</ele>
        <time>2019-04-14T10:34:49Z</time>
      </trkpt>
      <trkpt lat="44.42702" lon="1.34138">
        <ele>160</ele>
        <time>2019-04-14T10:34:50Z</time>
      </trkpt>
      <trkpt lat="44.42703" lon="1.34138">
        <ele>160</ele>
        <time>2019-04-14T10:34:51Z</time>
      </trkpt>
      <trkpt lat="44.42705" lon="1.34138">
        <ele>160</ele>
        <time>2019-04-14T10:34:52Z</time>
      </trkpt>
      <trkpt lat="44.42706" lon="1.34138">
        <ele>160</ele>
        <time>2019-04-14T10:34:53Z</time>
      </trkpt>
      <trkpt lat="44.42708" lon="1.34138">
        <ele>160</ele>
        <time>2019-04-14T10:34:54Z</time>
      </trkpt>
      <trkpt lat="44.4271" lon="1.34138">
        <ele>161</ele>
        <time>2019-04-14T10:34:55Z</time>
      </trkpt>
      <trkpt lat="44.42712" lon="1.34138">
        <ele>161</ele>
        <time>2019-04-14T10:34:56Z</time>
      </trkpt>
      <trkpt lat="44.42714" lon="1.34138">
        <ele>161</ele>
        <time>2019-04-14T10:34:57Z</time>
      </trkpt>
      <trkpt lat="44.42715" lon="1.34138">
        <ele>161</ele>
        <time>2019-04-14T10:34:58Z</time>
      </trkpt>
      <trkpt lat="44.42716" lon="1.34138">
        <ele>162</ele>
        <time>2019-04-14T10:34:59Z</time>
      </trkpt>
      <trkpt lat="44.42718" lon="1.34138">
        <ele>162</ele>
        <time>2019-04-14T10:35:01Z</time>
      </trkpt>
      <trkpt lat="44.42722" lon="1.34137">
        <ele>162</ele>
        <time>2019-04-14T10:35:02Z</time>
      </trkpt>
      <trkpt lat="44.42725" lon="1.34138">
        <ele>163</ele>
        <time>2019-04-14T10:35:03Z</time>
      </trkpt>
      <trkpt lat="44.42727" lon="1.34138">
        <ele>163</ele>
        <time>2019-04-14T10:35:04Z</time>
      </trkpt>
      <trkpt lat="44.42728" lon="1.34138">
        <ele>163</ele>
        <time>2019-04-14T10:35:05Z</time>
      </trkpt>
      <trkpt lat="44.4273" lon="1.34138">
        <ele>163</ele>
        <time>2019-04-14T10:35:06Z</time>
      </trkpt>
      <trkpt lat="44.42732" lon="1.34138">
        <ele>163</ele>
        <time>2019-04-14T10:35:07Z</time>
      </trkpt>
      <trkpt lat="44.42733" lon="1.34138">
        <ele>164</ele>
        <time>2019-04-14T10:35:08Z</time>
      </trkpt>
      <trkpt lat="44.42735" lon="1.34138">
        <ele>164</ele>
        <time>2019-04-14T10:35:09Z</time>
      </trkpt>
      <trkpt lat="44.42736" lon="1.34139">
        <ele>164</ele>
        <time>2019-04-14T10:35:10Z</time>
      </trkpt>
      <trkpt lat="44.42737" lon="1.34139">
        <ele>164</ele>
        <time>2019-04-14T10:35:11Z</time>
      </trkpt>
      <trkpt lat="44.42738" lon="1.34139">
        <ele>165</ele>
        <time>2019-04-14T10:35:12Z</time>
      </trkpt>
      <trkpt lat="44.4274" lon="1.34139">
        <ele>165</ele>
        <time>2019-04-14T10:35:13Z</time>
      </trkpt>
      <trkpt lat="44.42741" lon="1.34139">
        <ele>165</ele>
        <time>2019-04-14T10:35:14Z</time>
      </trkpt>
      <trkpt lat="44.42743" lon="1.34139">
        <ele>165</ele>
        <time>2019-04-14T10:35:15Z</time>
      </trkpt>
      <trkpt lat="44.42744" lon="1.34139">
        <ele>166</ele>
        <time>2019-04-14T10:35:16Z</time>
      </trkpt>
      <trkpt lat="44.42745" lon="1.34139">
        <ele>166</ele>
        <time>2019-04-14T10:35:17Z</time>
      </trkpt>
      <trkpt lat="44.42746" lon="1.34139">
        <ele>166</ele>
        <time>2019-04-14T10:35:18Z</time>
      </trkpt>
      <trkpt lat="44.42747" lon="1.34139">
        <ele>166</ele>
        <time>2019-04-14T10:35:19Z</time>
      </trkpt>
      <trkpt lat="44.42749" lon="1.34139">
        <ele>166</ele>
        <time>2019-04-14T10:35:20Z</time>
      </trkpt>
      <trkpt lat="44.4275" lon="1.3414">
        <ele>167</ele>
        <time>2019-04-14T10:35:21Z</time>
      </trkpt>
      <trkpt lat="44.42752" lon="1.3414">
        <ele>167</ele>
        <time>2019-04-14T10:35:22Z</time>
      </trkpt>
      <trkpt lat="44.42753" lon="1.3414">
        <ele>167</ele>
        <time>2019-04-14T10:35:23Z</time>
      </trkpt>
      <trkpt lat="44.42755" lon="1.3414">
        <ele>167</ele>
        <time>2019-04-14T10:35:24Z</time>
      </trkpt>
      <trkpt lat="44.42755" lon="1.34141">
        <ele>168</ele>
        <time>2019-04-14T10:35:25Z</time>
      </trkpt>
      <trkpt lat="44.42757" lon="1.34141">
        <ele>168</ele>
        <time>2019-04-14T10:35:26Z</time>
      </trkpt>
      <trkpt lat="44.42758" lon="1.34141">
        <ele>168</ele>
        <time>2019-04-14T10:35:27Z</time>
      </trkpt>
      <trkpt lat="44.42759" lon="1.34141">
        <ele>168</ele>
        <time>2019-04-14T10:35:28Z</time>
      </trkpt>
      <trkpt lat="44.42759" lon="1.34141">
        <ele>169</ele>
        <time>2019-04-14T10:35:29Z</time>
      </trkpt>
      <trkpt lat="44.4276" lon="1.34141">
        <ele>169</ele>
        <time>2019-04-14T10:35:30Z</time>
      </trkpt>
      <trkpt lat="44.42761" lon="1.34141">
        <ele>169</ele>
        <time>2019-04-14T10:35:31Z</time>
      </trkpt>
      <trkpt lat="44.42762" lon="1.3414">
        <ele>169</ele>
        <time>2019-04-14T10:35:33Z</time>
      </trkpt>
      <trkpt lat="44.42764" lon="1.3414">
        <ele>169</ele>
        <time>2019-04-14T10:35:34Z</time>
      </trkpt>
      <trkpt lat="44.42765" lon="1.3414">
        <ele>170</ele>
        <time>2019-04-14T10:35:35Z</time>
      </trkpt>
      <trkpt lat="44.42768" lon="1.3414">
        <ele>170</ele>
        <time>2019-04-14T10:35:36Z</time>
      </trkpt>
      <trkpt lat="44.42769" lon="1.3414">
        <ele>170</ele>
        <time>2019-04-14T10:35:37Z</time>
      </trkpt>
      <trkpt lat="44.4277" lon="1.3414">
        <ele>170</ele>
        <time>2019-04-14T10:35:38Z</time>
      </trkpt>
      <trkpt lat="44.42771" lon="1.34141">
        <ele>171</ele>
        <time>2019-04-14T10:35:39Z</time>
      </trkpt>
      <trkpt lat="44.42773" lon="1.34141">
        <ele>171</ele>
        <time>2019-04-14T10:35:40Z</time>
      </trkpt>
      <trkpt lat="44.42774" lon="1.34141">
        <ele>171</ele>
        <time>2019-04-14T10:35:41Z</time>
      </trkpt>
      <trkpt lat="44.42775" lon="1.34142">
        <ele>171</ele>
        <time>2019-04-14T10:35:42Z</time>
      </trkpt>
      <trkpt lat="44.42776" lon="1.34142">
        <ele>172</ele>
        <time>2019-04-14T10:35:43Z</time>
      </trkpt>
      <trkpt lat="44.42778" lon="1.34142">
        <ele>172</ele>
        <time>2019-04-14T10:35:44Z</time>
      </trkpt>
      <trkpt lat="44.42778" lon="1.34142">
        <ele>172</ele>
        <time>2019-04-14T10:35:45Z</time>
      </trkpt>
      <trkpt lat="44.42779" lon="1.34143">
        <ele>172</ele>
        <time>2019-04-14T10:35:46Z</time>
      </trkpt>
      <trkpt lat="44.4278" lon="1.34144">
        <ele>172</ele>
        <time>2019-04-14T10:35:47Z</time>
      </trkpt>
      <trkpt lat="44.42781" lon="1.34144">
        <ele>172</ele>
        <time>2019-04-14T10:35:48Z</time>
      </trkpt>
      <trkpt lat="44.42783" lon="1.34145">
        <ele>173</ele>
        <time>2019-04-14T10:35:49Z</time>
      </trkpt>
      <trkpt lat="44.42784" lon="1.34146">
        <ele>173</ele>
        <time>2019-04-14T10:35:50Z</time>
      </trkpt>
      <trkpt lat="44.42785" lon="1.34146">
        <ele>173</ele>
        <time>2019-04-14T10:35:51Z</time>
      </trkpt>
      <trkpt lat="44.42786" lon="1.34147">
        <ele>173</ele>
        <time>2019-04-14T10:35:52Z</time>
      </trkpt>
      <trkpt lat="44.42787" lon="1.34148">
        <ele>173</ele>
        <time>2019-04-14T10:35:53Z</time>
      </trkpt>
      <trkpt lat="44.42789" lon="1.34148">
        <ele>174</ele>
        <time>2019-04-14T10:35:54Z</time>
      </trkpt>
      <trkpt lat="44.4279" lon="1.34149">
        <ele>174</ele>
        <time>2019-04-14T10:35:55Z</time>
      </trkpt>
      <trkpt lat="44.42791" lon="1.3415">
        <ele>174</ele>
        <time>2019-04-14T10:35:56Z</time>
      </trkpt>
      <trkpt lat="44.42792" lon="1.34151">
        <ele>174</ele>
        <time>2019-04-14T10:35:57Z</time>
      </trkpt>
      <trkpt lat="44.42794" lon="1.34151">
        <ele>174</ele>
        <time>2019-04-14T10:35:58Z</time>
      </trkpt>
      <trkpt lat="44.42795" lon="1.34152">
        <ele>175</ele>
        <time>2019-04-14T10:35:59Z</time>
      </trkpt>
      <trkpt lat="44.42796" lon="1.34153">
        <ele>175</ele>
        <time>2019-04-14T10:36:00Z</time>
      </trkpt>
      <trkpt lat="44.42797" lon="1.34154">
        <ele>175</ele>
        <time>2019-04-14T10:36:01Z</time>
      </trkpt>
      <trkpt lat="44.42798" lon="1.34155">
        <ele>175</ele>
        <time>2019-04-14T10:36:03Z</time>
      </trkpt>
      <trkpt lat="44.42799" lon="1.34155">
        <ele>175</ele>
        <time>2019-04-14T10:36:04Z</time>
      </trkpt>
      <trkpt lat="44.428" lon="1.34156">
        <ele>176</ele>
        <time>2019-04-14T10:36:05Z</time>
      </trkpt>
      <trkpt lat="44.42801" lon="1.34157">
        <ele>176</ele>
        <time>2019-04-14T10:36:06Z</time>
      </trkpt>
      <trkpt lat="44.42803" lon="1.34157">
        <ele>176</ele>
        <time>2019-04-14T10:36:07Z</time>
      </trkpt>
      <trkpt lat="44.42804" lon="1.34158">
        <ele>176</ele>
        <time>2019-04-14T10:36:08Z</time>
      </trkpt>
      <trkpt lat="44.42805" lon="1.34158">
        <ele>176</ele>
        <time>2019-04-14T10:36:09Z</time>
      </trkpt>
      <trkpt lat="44.42806" lon="1.34159">
        <ele>177</ele>
        <time>2019-04-14T10:36:10Z</time>
      </trkpt>
      <trkpt lat="44.42807" lon="1.3416">
        <ele>177</ele>
        <time>2019-04-14T10:36:11Z</time>
      </trkpt>
      <trkpt lat="44.42808" lon="1.34161">
        <ele>177</ele>
        <time>2019-04-14T10:36:12Z</time>
      </trkpt>
      <trkpt lat="44.4281" lon="1.34161">
        <ele>177</ele>
        <time>2019-04-14T10:36:13Z</time>
      </trkpt>
      <trkpt lat="44.42811" lon="1.34161">
        <ele>178</ele>
        <time>2019-04-14T10:36:14Z</time>
      </trkpt>
      <trkpt lat="44.42812" lon="1.34162">
        <ele>178</ele>
        <time>2019-04-14T10:36:15Z</time>
      </trkpt>
      <trkpt lat="44.42813" lon="1.34162">
        <ele>178</ele>
        <time>2019-04-14T10:36:16Z</time>
      </trkpt>
      <trkpt lat="44.42814" lon="1.34163">
        <ele>178</ele>
        <time>2019-04-14T10:36:17Z</time>
      </trkpt>
      <trkpt lat="44.42815" lon="1.34163">
        <ele>178</ele>
        <time>2019-04-14T10:36:18Z</time>
      </trkpt>
      <trkpt lat="44.42816" lon="1.34164">
        <ele>179</ele>
        <time>2019-04-14T10:36:19Z</time>
      </trkpt>
      <trkpt lat="44.42817" lon="1.34164">
        <ele>179</ele>
        <time>2019-04-14T10:36:20Z</time>
      </trkpt>
      <trkpt lat="44.42818" lon="1.34165">
        <ele>179</ele>
        <time>2019-04-14T10:36:21Z</time>
      </trkpt>
      <trkpt lat="44.4282" lon="1.34166">
        <ele>180</ele>
        <time>2019-04-14T10:36:22Z</time>
      </trkpt>
      <trkpt lat="44.42821" lon="1.34167">
        <ele>180</ele>
        <time>2019-04-14T10:36:23Z</time>
      </trkpt>
      <trkpt lat="44.42822" lon="1.34168">
        <ele>180</ele>
        <time>2019-04-14T10:36:24Z</time>
      </trkpt>
      <trkpt lat="44.42823" lon="1.34169">
        <ele>180</ele>
        <time>2019-04-14T10:36:25Z</time>
      </trkpt>
      <trkpt lat="44.42824" lon="1.3417">
        <ele>180</ele>
        <time>2019-04-14T10:36:26Z</time>
      </trkpt>
      <trkpt lat="44.42825" lon="1.34171">
        <ele>181</ele>
        <time>2019-04-14T10:36:27Z</time>
      </trkpt>
      <trkpt lat="44.42826" lon="1.34171">
        <ele>181</ele>
        <time>2019-04-14T10:36:28Z</time>
      </trkpt>
      <trkpt lat="44.42827" lon="1.34172">
        <ele>181</ele>
        <time>2019-04-14T10:36:29Z</time>
      </trkpt>
      <trkpt lat="44.42828" lon="1.34173">
        <ele>181</ele>
        <time>2019-04-14T10:36:30Z</time>
      </trkpt>
      <trkpt lat="44.42829" lon="1.34173">
        <ele>182</ele>
        <time>2019-04-14T10:36:31Z</time>
      </trkpt>
      <trkpt lat="44.4283" lon="1.34174">
        <ele>182</ele>
        <time>2019-04-14T10:36:32Z</time>
      </trkpt>
      <trkpt lat="44.42831" lon="1.34174">
        <ele>182</ele>
        <time>2019-04-14T10:36:33Z</time>
      </trkpt>
      <trkpt lat="44.42831" lon="1.34174">
        <ele>182</ele>
        <time>2019-04-14T10:36:34Z</time>
      </trkpt>
      <trkpt lat="44.42831" lon="1.34174">
        <ele>182</ele>
        <time>2019-04-14T10:36:35Z</time>
      </trkpt>
      <trkpt lat="44.42831" lon="1.34174">
        <ele>182</ele>
        <time>2019-04-14T10:36:36Z</time>
      </trkpt>
      <trkpt lat="44.42831" lon="1.34174">
        <ele>182</ele>
        <time>2019-04-14T10:36:37Z</time>
      </trkpt>
      <trkpt lat="44.42832" lon="1.34174">
        <ele>182</ele>
        <time>2019-04-14T10:36:38Z</time>
      </trkpt>
      <trkpt lat="44.42832" lon="1.34174">
        <ele>182</ele>
        <time>2019-04-14T10:36:39Z</time>
      </trkpt>
      <trkpt lat="44.42832" lon="1.34174">
        <ele>182</ele>
        <time>2019-04-14T10:36:40Z</time>
      </trkpt>
      <trkpt lat="44.42851" lon="1.34184">
        <ele>186</ele>
        <time>2019-04-14T10:37:05Z</time>
      </trkpt>
      <trkpt lat="44.42852" lon="1.34185">
        <ele>187</ele>
        <time>2019-04-14T10:37:06Z</time>
      </trkpt>
      <trkpt lat="44.42853" lon="1.34185">
        <ele>187</ele>
        <time>2019-04-14T10:37:07Z</time>
      </trkpt>
      <trkpt lat="44.42854" lon="1.34185">
        <ele>187</ele>
        <time>2019-04-14T10:37:09Z</time>
      </trkpt>
      <trkpt lat="44.42854" lon="1.34185">
        <ele>187</ele>
        <time>2019-04-14T10:37:10Z</time>
      </trkpt>
      <trkpt lat="44.42855" lon="1.34185">
        <ele>187</ele>
        <time>2019-04-14T10:37:11Z</time>
      </trkpt>
      <trkpt lat="44.42856" lon="1.34186">
        <ele>187</ele>
        <time>2019-04-14T10:37:12Z</time>
      </trkpt>
      <trkpt lat="44.42856" lon="1.34186">
        <ele>188</ele>
        <time>2019-04-14T10:37:13Z</time>
      </trkpt>
      <trkpt lat="44.42857" lon="1.34186">
        <ele>188</ele>
        <time>2019-04-14T10:37:14Z</time>
      </trkpt>
      <trkpt lat="44.42858" lon="1.34187">
        <ele>188</ele>
        <time>2019-04-14T10:37:15Z</time>
      </trkpt>
      <trkpt lat="44.42858" lon="1.34187">
        <ele>188</ele>
        <time>2019-04-14T10:37:16Z</time>
      </trkpt>
      <trkpt lat="44.42859" lon="1.34187">
        <ele>188</ele>
        <time>2019-04-14T10:37:17Z</time>
      </trkpt>
      <trkpt lat="44.4286" lon="1.34187">
        <ele>188</ele>
        <time>2019-04-14T10:37:18Z</time>
      </trkpt>
      <trkpt lat="44.42862" lon="1.34188">
        <ele>189</ele>
        <time>2019-04-14T10:37:19Z</time>
      </trkpt>
      <trkpt lat="44.42863" lon="1.34187">
        <ele>189</ele>
        <time>2019-04-14T10:37:20Z</time>
      </trkpt>
      <trkpt lat="44.42864" lon="1.34188">
        <ele>189</ele>
        <time>2019-04-14T10:37:21Z</time>
      </trkpt>
      <trkpt lat="44.42865" lon="1.34188">
        <ele>189</ele>
        <time>2019-04-14T10:37:22Z</time>
      </trkpt>
      <trkpt lat="44.42865" lon="1.34188">
        <ele>189</ele>
        <time>2019-04-14T10:37:23Z</time>
      </trkpt>
      <trkpt lat="44.42866" lon="1.34188">
        <ele>189</ele>
        <time>2019-04-14T10:37:24Z</time>
      </trkpt>
      <trkpt lat="44.42867" lon="1.34188">
        <ele>189</ele>
        <time>2019-04-14T10:37:25Z</time>
      </trkpt>
      <trkpt lat="44.42868" lon="1.34188">
        <ele>190</ele>
        <time>2019-04-14T10:37:26Z</time>
      </trkpt>
      <trkpt lat="44.42868" lon="1.34188">
        <ele>190</ele>
        <time>2019-04-14T10:37:27Z</time>
      </trkpt>
      <trkpt lat="44.42869" lon="1.34188">
        <ele>190</ele>
        <time>2019-04-14T10:37:28Z</time>
      </trkpt>
      <trkpt lat="44.4287" lon="1.34189">
        <ele>190</ele>
        <time>2019-04-14T10:37:29Z</time>
      </trkpt>
      <trkpt lat="44.42871" lon="1.34189">
        <ele>190</ele>
        <time>2019-04-14T10:37:30Z</time>
      </trkpt>
      <trkpt lat="44.42871" lon="1.34189">
        <ele>190</ele>
        <time>2019-04-14T10:37:31Z</time>
      </trkpt>
      <trkpt lat="44.42871" lon="1.34189">
        <ele>190</ele>
        <time>2019-04-14T10:37:33Z</time>
      </trkpt>
      <trkpt lat="44.42871" lon="1.34189">
        <ele>190</ele>
        <time>2019-04-14T10:37:34Z</time>
      </trkpt>
      <trkpt lat="44.42871" lon="1.34189">
        <ele>190</ele>
        <time>2019-04-14T10:37:35Z</time>
      </trkpt>
      <trkpt lat="44.42872" lon="1.34189">
        <ele>190</ele>
        <time>2019-04-14T10:37:36Z</time>
      </trkpt>
      <trkpt lat="44.42872" lon="1.34189">
        <ele>190</ele>
        <time>2019-04-14T10:37:37Z</time>
      </trkpt>
      <trkpt lat="44.42872" lon="1.34189">
        <ele>190</ele>
        <time>2019-04-14T10:37:38Z</time>
      </trkpt>
      <trkpt lat="44.42886" lon="1.34189">
        <ele>192</ele>
        <time>2019-04-14T10:37:56Z</time>
      </trkpt>
      <trkpt lat="44.42887" lon="1.3419">
        <ele>193</ele>
        <time>2019-04-14T10:37:58Z</time>
      </trkpt>
      <trkpt lat="44.42887" lon="1.34189">
        <ele>193</ele>
        <time>2019-04-14T10:37:59Z</time>
      </trkpt>
      <trkpt lat="44.42888" lon="1.34189">
        <ele>193</ele>
        <time>2019-04-14T10:38:00Z</time>
      </trkpt>
      <trkpt lat="44.4289" lon="1.34188">
        <ele>193</ele>
        <time>2019-04-14T10:38:01Z</time>
      </trkpt>
      <trkpt lat="44.42891" lon="1.34187">
        <ele>194</ele>
        <time>2019-04-14T10:38:02Z</time>
      </trkpt>
      <trkpt lat="44.42892" lon="1.34186">
        <ele>194</ele>
        <time>2019-04-14T10:38:03Z</time>
      </trkpt>
      <trkpt lat="44.42893" lon="1.34186">
        <ele>194</ele>
        <time>2019-04-14T10:38:04Z</time>
      </trkpt>
      <trkpt lat="44.42894" lon="1.34185">
        <ele>194</ele>
        <time>2019-04-14T10:38:05Z</time>
      </trkpt>
      <trkpt lat="44.42895" lon="1.34185">
        <ele>194</ele>
        <time>2019-04-14T10:38:06Z</time>
      </trkpt>
      <trkpt lat="44.42897" lon="1.34184">
        <ele>194</ele>
        <time>2019-04-14T10:38:07Z</time>
      </trkpt>
      <trkpt lat="44.42898" lon="1.34183">
        <ele>195</ele>
        <time>2019-04-14T10:38:08Z</time>
      </trkpt>
      <trkpt lat="44.42899" lon="1.34182">
        <ele>195</ele>
        <time>2019-04-14T10:38:09Z</time>
      </trkpt>
      <trkpt lat="44.429" lon="1.34182">
        <ele>195</ele>
        <time>2019-04-14T10:38:10Z</time>
      </trkpt>
      <trkpt lat="44.429" lon="1.34181">
        <ele>195</ele>
        <time>2019-04-14T10:38:11Z</time>
      </trkpt>
      <trkpt lat="44.42901" lon="1.3418">
        <ele>195</ele>
        <time>2019-04-14T10:38:12Z</time>
      </trkpt>
      <trkpt lat="44.42902" lon="1.3418">
        <ele>195</ele>
        <time>2019-04-14T10:38:13Z</time>
      </trkpt>
      <trkpt lat="44.42904" lon="1.34177">
        <ele>196</ele>
        <time>2019-04-14T10:38:14Z</time>
      </trkpt>
      <trkpt lat="44.42905" lon="1.34176">
        <ele>196</ele>
        <time>2019-04-14T10:38:15Z</time>
      </trkpt>
      <trkpt lat="44.42906" lon="1.34174">
        <ele>196</ele>
        <time>2019-04-14T10:38:16Z</time>
      </trkpt>
      <trkpt lat="44.42906" lon="1.34173">
        <ele>196</ele>
        <time>2019-04-14T10:38:17Z</time>
      </trkpt>
      <trkpt lat="44.42907" lon="1.34172">
        <ele>196</ele>
        <time>2019-04-14T10:38:18Z</time>
      </trkpt>
      <trkpt lat="44.42908" lon="1.3417">
        <ele>196</ele>
        <time>2019-04-14T10:38:19Z</time>
      </trkpt>
      <trkpt lat="44.42909" lon="1.34169">
        <ele>197</ele>
        <time>2019-04-14T10:38:20Z</time>
      </trkpt>
      <trkpt lat="44.42909" lon="1.34167">
        <ele>197</ele>
        <time>2019-04-14T10:38:21Z</time>
      </trkpt>
      <trkpt lat="44.4291" lon="1.34165">
        <ele>197</ele>
        <time>2019-04-14T10:38:22Z</time>
      </trkpt>
      <trkpt lat="44.4291" lon="1.34164">
        <ele>197</ele>
        <time>2019-04-14T10:38:23Z</time>
      </trkpt>
      <trkpt lat="44.4291" lon="1.34162">
        <ele>197</ele>
        <time>2019-04-14T10:38:24Z</time>
      </trkpt>
      <trkpt lat="44.4291" lon="1.34161">
        <ele>197</ele>
        <time>2019-04-14T10:38:25Z</time>
      </trkpt>
      <trkpt lat="44.4291" lon="1.3416">
        <ele>198</ele>
        <time>2019-04-14T10:38:26Z</time>
      </trkpt>
      <trkpt lat="44.42911" lon="1.34158">
        <ele>198</ele>
        <time>2019-04-14T10:38:27Z</time>
      </trkpt>
      <trkpt lat="44.42911" lon="1.34157">
        <ele>198</ele>
        <time>2019-04-14T10:38:28Z</time>
      </trkpt>
      <trkpt lat="44.42912" lon="1.34156">
        <ele>198</ele>
        <time>2019-04-14T10:38:29Z</time>
      </trkpt>
      <trkpt lat="44.42913" lon="1.34154">
        <ele>198</ele>
        <time>2019-04-14T10:38:31Z</time>
      </trkpt>
      <trkpt lat="44.42914" lon="1.34153">
        <ele>199</ele>
        <time>2019-04-14T10:38:32Z</time>
      </trkpt>
      <trkpt lat="44.42914" lon="1.34151">
        <ele>199</ele>
        <time>2019-04-14T10:38:33Z</time>
      </trkpt>
      <trkpt lat="44.42914" lon="1.3415">
        <ele>199</ele>
        <time>2019-04-14T10:38:34Z</time>
      </trkpt>
      <trkpt lat="44.42915" lon="1.34149">
        <ele>199</ele>
        <time>2019-04-14T10:38:35Z</time>
      </trkpt>
      <trkpt lat="44.42915" lon="1.34147">
        <ele>199</ele>
        <time>2019-04-14T10:38:36Z</time>
      </trkpt>
      <trkpt lat="44.42916" lon="1.34146">
        <ele>200</ele>
        <time>2019-04-14T10:38:37Z</time>
      </trkpt>
      <trkpt lat="44.42917" lon="1.34145">
        <ele>200</ele>
        <time>2019-04-14T10:38:38Z</time>
      </trkpt>
      <trkpt lat="44.42918" lon="1.34143">
        <ele>200</ele>
        <time>2019-04-14T10:38:39Z</time>
      </trkpt>
      <trkpt lat="44.42918" lon="1.34142">
        <ele>200</ele>
        <time>2019-04-14T10:38:40Z</time>
      </trkpt>
      <trkpt lat="44.42919" lon="1.34141">
        <ele>200</ele>
        <time>2019-04-14T10:38:41Z</time>
      </trkpt>
      <trkpt lat="44.42921" lon="1.34139">
        <ele>201</ele>
        <time>2019-04-14T10:38:42Z</time>
      </trkpt>
      <trkpt lat="44.42922" lon="1.34138">
        <ele>201</ele>
        <time>2019-04-14T10:38:43Z</time>
      </trkpt>
      <trkpt lat="44.42923" lon="1.34136">
        <ele>201</ele>
        <time>2019-04-14T10:38:44Z</time>
      </trkpt>
      <trkpt lat="44.42924" lon="1.34134">
        <ele>202</ele>
        <time>2019-04-14T10:38:46Z</time>
      </trkpt>
      <trkpt lat="44.42926" lon="1.34133">
        <ele>202</ele>
        <time>2019-04-14T10:38:47Z</time>
      </trkpt>
      <trkpt lat="44.42927" lon="1.34132">
        <ele>202</ele>
        <time>2019-04-14T10:38:48Z</time>
      </trkpt>
      <trkpt lat="44.42928" lon="1.3413">
        <ele>202</ele>
        <time>2019-04-14T10:38:49Z</time>
      </trkpt>
      <trkpt lat="44.42928" lon="1.34129">
        <ele>203</ele>
        <time>2019-04-14T10:38:50Z</time>
      </trkpt>
      <trkpt lat="44.42928" lon="1.34127">
        <ele>203</ele>
        <time>2019-04-14T10:38:51Z</time>
      </trkpt>
      <trkpt lat="44.42928" lon="1.34125">
        <ele>203</ele>
        <time>2019-04-14T10:38:52Z</time>
      </trkpt>
      <trkpt lat="44.42929" lon="1.34122">
        <ele>203</ele>
        <time>2019-04-14T10:38:53Z</time>
      </trkpt>
      <trkpt lat="44.42929" lon="1.3412">
        <ele>204</ele>
        <time>2019-04-14T10:38:54Z</time>
      </trkpt>
      <trkpt lat="44.4293" lon="1.34119">
        <ele>204</ele>
        <time>2019-04-14T10:38:56Z</time>
      </trkpt>
      <trkpt lat="44.42931" lon="1.34117">
        <ele>204</ele>
        <time>2019-04-14T10:38:57Z</time>
      </trkpt>
      <trkpt lat="44.42933" lon="1.34115">
        <ele>204</ele>
        <time>2019-04-14T10:38:58Z</time>
      </trkpt>
      <trkpt lat="44.42933" lon="1.34114">
        <ele>205</ele>
        <time>2019-04-14T10:38:59Z</time>
      </trkpt>
      <trkpt lat="44.42933" lon="1.34112">
        <ele>205</ele>
        <time>2019-04-14T10:39:00Z</time>
      </trkpt>
      <trkpt lat="44.42934" lon="1.34111">
        <ele>205</ele>
        <time>2019-04-14T10:39:01Z</time>
      </trkpt>
      <trkpt lat="44.42935" lon="1.3411">
        <ele>205</ele>
        <time>2019-04-14T10:39:02Z</time>
      </trkpt>
      <trkpt lat="44.42936" lon="1.34108">
        <ele>206</ele>
        <time>2019-04-14T10:39:03Z</time>
      </trkpt>
      <trkpt lat="44.42937" lon="1.34107">
        <ele>206</ele>
        <time>2019-04-14T10:39:04Z</time>
      </trkpt>
      <trkpt lat="44.42935" lon="1.34105">
        <ele>206</ele>
        <time>2019-04-14T10:39:05Z</time>
      </trkpt>
      <trkpt lat="44.42936" lon="1.34104">
        <ele>206</ele>
        <time>2019-04-14T10:39:06Z</time>
      </trkpt>
      <trkpt lat="44.42937" lon="1.34102">
        <ele>207</ele>
        <time>2019-04-14T10:39:08Z</time>
      </trkpt>
      <trkpt lat="44.42938" lon="1.34101">
        <ele>207</ele>
        <time>2019-04-14T10:39:09Z</time>
      </trkpt>
      <trkpt lat="44.42938" lon="1.34099">
        <ele>207</ele>
        <time>2019-04-14T10:39:10Z</time>
      </trkpt>
      <trkpt lat="44.42939" lon="1.34097">
        <ele>207</ele>
        <time>2019-04-14T10:39:11Z</time>
      </trkpt>
      <trkpt lat="44.42939" lon="1.34096">
        <ele>207</ele>
        <time>2019-04-14T10:39:12Z</time>
      </trkpt>
      <trkpt lat="44.4294" lon="1.34094">
        <ele>208</ele>
        <time>2019-04-14T10:39:13Z</time>
      </trkpt>
      <trkpt lat="44.4294" lon="1.34093">
        <ele>208</ele>
        <time>2019-04-14T10:39:14Z</time>
      </trkpt>
      <trkpt lat="44.42942" lon="1.34092">
        <ele>208</ele>
        <time>2019-04-14T10:39:15Z</time>
      </trkpt>
      <trkpt lat="44.42943" lon="1.34091">
        <ele>208</ele>
        <time>2019-04-14T10:39:16Z</time>
      </trkpt>
      <trkpt lat="44.42943" lon="1.3409">
        <ele>208</ele>
        <time>2019-04-14T10:39:17Z</time>
      </trkpt>
      <trkpt lat="44.42944" lon="1.34089">
        <ele>209</ele>
        <time>2019-04-14T10:39:18Z</time>
      </trkpt>
      <trkpt lat="44.42944" lon="1.34088">
        <ele>209</ele>
        <time>2019-04-14T10:39:19Z</time>
      </trkpt>
      <trkpt lat="44.42945" lon="1.34086">
        <ele>209</ele>
        <time>2019-04-14T10:39:20Z</time>
      </trkpt>
      <trkpt lat="44.42947" lon="1.34085">
        <ele>209</ele>
        <time>2019-04-14T10:39:21Z</time>
      </trkpt>
      <trkpt lat="44.42948" lon="1.34083">
        <ele>209</ele>
        <time>2019-04-14T10:39:22Z</time>
      </trkpt>
      <trkpt lat="44.42949" lon="1.34081">
        <ele>210</ele>
        <time>2019-04-14T10:39:23Z</time>
      </trkpt>
      <trkpt lat="44.4295" lon="1.3408">
        <ele>210</ele>
        <time>2019-04-14T10:39:24Z</time>
      </trkpt>
      <trkpt lat="44.42952" lon="1.34079">
        <ele>210</ele>
        <time>2019-04-14T10:39:25Z</time>
      </trkpt>
      <trkpt lat="44.42952" lon="1.34077">
        <ele>211</ele>
        <time>2019-04-14T10:39:27Z</time>
      </trkpt>
      <trkpt lat="44.42954" lon="1.34074">
        <ele>211</ele>
        <time>2019-04-14T10:39:29Z</time>
      </trkpt>
      <trkpt lat="44.42954" lon="1.34073">
        <ele>211</ele>
        <time>2019-04-14T10:39:30Z</time>
      </trkpt>
      <trkpt lat="44.42956" lon="1.34072">
        <ele>211</ele>
        <time>2019-04-14T10:39:31Z</time>
      </trkpt>
      <trkpt lat="44.42957" lon="1.34071">
        <ele>211</ele>
        <time>2019-04-14T10:39:32Z</time>
      </trkpt>
      <trkpt lat="44.42959" lon="1.3407">
        <ele>212</ele>
        <time>2019-04-14T10:39:33Z</time>
      </trkpt>
      <trkpt lat="44.42961" lon="1.34069">
        <ele>212</ele>
        <time>2019-04-14T10:39:34Z</time>
      </trkpt>
      <trkpt lat="44.42962" lon="1.34068">
        <ele>212</ele>
        <time>2019-04-14T10:39:35Z</time>
      </trkpt>
      <trkpt lat="44.42963" lon="1.34067">
        <ele>212</ele>
        <time>2019-04-14T10:39:36Z</time>
      </trkpt>
      <trkpt lat="44.42963" lon="1.34065">
        <ele>212</ele>
        <time>2019-04-14T10:39:37Z</time>
      </trkpt>
      <trkpt lat="44.42965" lon="1.34062">
        <ele>213</ele>
        <time>2019-04-14T10:39:38Z</time>
      </trkpt>
      <trkpt lat="44.42966" lon="1.34061">
        <ele>213</ele>
        <time>2019-04-14T10:39:39Z</time>
      </trkpt>
      <trkpt lat="44.42967" lon="1.3406">
        <ele>213</ele>
        <time>2019-04-14T10:39:40Z</time>
      </trkpt>
      <trkpt lat="44.42967" lon="1.34059">
        <ele>213</ele>
        <time>2019-04-14T10:39:41Z</time>
      </trkpt>
      <trkpt lat="44.42968" lon="1.34057">
        <ele>213</ele>
        <time>2019-04-14T10:39:42Z</time>
      </trkpt>
      <trkpt lat="44.42969" lon="1.34056">
        <ele>214</ele>
        <time>2019-04-14T10:39:43Z</time>
      </trkpt>
      <trkpt lat="44.42969" lon="1.34055">
        <ele>214</ele>
        <time>2019-04-14T10:39:44Z</time>
      </trkpt>
      <trkpt lat="44.4297" lon="1.34053">
        <ele>214</ele>
        <time>2019-04-14T10:39:45Z</time>
      </trkpt>
      <trkpt lat="44.42971" lon="1.34052">
        <ele>215</ele>
        <time>2019-04-14T10:39:46Z</time>
      </trkpt>
      <trkpt lat="44.42972" lon="1.3405">
        <ele>215</ele>
        <time>2019-04-14T10:39:47Z</time>
      </trkpt>
      <trkpt lat="44.42973" lon="1.34049">
        <ele>215</ele>
        <time>2019-04-14T10:39:49Z</time>
      </trkpt>
      <trkpt lat="44.42973" lon="1.34049">
        <ele>215</ele>
        <time>2019-04-14T10:39:50Z</time>
      </trkpt>
      <trkpt lat="44.42973" lon="1.34047">
        <ele>215</ele>
        <time>2019-04-14T10:39:51Z</time>
      </trkpt>
      <trkpt lat="44.42974" lon="1.34046">
        <ele>216</ele>
        <time>2019-04-14T10:39:52Z</time>
      </trkpt>
      <trkpt lat="44.42975" lon="1.34045">
        <ele>216</ele>
        <time>2019-04-14T10:39:53Z</time>
      </trkpt>
      <trkpt lat="44.42976" lon="1.34044">
        <ele>216</ele>
        <time>2019-04-14T10:39:54Z</time>
      </trkpt>
      <trkpt lat="44.42976" lon="1.34043">
        <ele>216</ele>
        <time>2019-04-14T10:39:55Z</time>
      </trkpt>
      <trkpt lat="44.42977" lon="1.34042">
        <ele>216</ele>
        <time>2019-04-14T10:39:56Z</time>
      </trkpt>
      <trkpt lat="44.42978" lon="1.34041">
        <ele>217</ele>
        <time>2019-04-14T10:39:57Z</time>
      </trkpt>
      <trkpt lat="44.42979" lon="1.3404">
        <ele>217</ele>
        <time>2019-04-14T10:39:58Z</time>
      </trkpt>
      <trkpt lat="44.4298" lon="1.34038">
        <ele>217</ele>
        <time>2019-04-14T10:39:59Z</time>
      </trkpt>
      <trkpt lat="44.42982" lon="1.34038">
        <ele>217</ele>
        <time>2019-04-14T10:40:00Z</time>
      </trkpt>
      <trkpt lat="44.42983" lon="1.34036">
        <ele>218</ele>
        <time>2019-04-14T10:40:01Z</time>
      </trkpt>
      <trkpt lat="44.42983" lon="1.34036">
        <ele>218</ele>
        <time>2019-04-14T10:40:02Z</time>
      </trkpt>
      <trkpt lat="44.42984" lon="1.34034">
        <ele>218</ele>
        <time>2019-04-14T10:40:03Z</time>
      </trkpt>
      <trkpt lat="44.42984" lon="1.34033">
        <ele>218</ele>
        <time>2019-04-14T10:40:04Z</time>
      </trkpt>
      <trkpt lat="44.42985" lon="1.34031">
        <ele>219</ele>
        <time>2019-04-14T10:40:05Z</time>
      </trkpt>
      <trkpt lat="44.42985" lon="1.3403">
        <ele>219</ele>
        <time>2019-04-14T10:40:07Z</time>
      </trkpt>
      <trkpt lat="44.42986" lon="1.34028">
        <ele>219</ele>
        <time>2019-04-14T10:40:08Z</time>
      </trkpt>
      <trkpt lat="44.42987" lon="1.34027">
        <ele>219</ele>
        <time>2019-04-14T10:40:09Z</time>
      </trkpt>
      <trkpt lat="44.42988" lon="1.34025">
        <ele>220</ele>
        <time>2019-04-14T10:40:10Z</time>
      </trkpt>
      <trkpt lat="44.42989" lon="1.34024">
        <ele>220</ele>
        <time>2019-04-14T10:40:11Z</time>
      </trkpt>
      <trkpt lat="44.4299" lon="1.3402">
        <ele>220</ele>
        <time>2019-04-14T10:40:12Z</time>
      </trkpt>
      <trkpt lat="44.42991" lon="1.34018">
        <ele>220</ele>
        <time>2019-04-14T10:40:13Z</time>
      </trkpt>
      <trkpt lat="44.42991" lon="1.34016">
        <ele>221</ele>
        <time>2019-04-14T10:40:14Z</time>
      </trkpt>
      <trkpt lat="44.42991" lon="1.34015">
        <ele>221</ele>
        <time>2019-04-14T10:40:15Z</time>
      </trkpt>
      <trkpt lat="44.42991" lon="1.34013">
        <ele>221</ele>
        <time>2019-04-14T10:40:16Z</time>
      </trkpt>
      <trkpt lat="44.42992" lon="1.34012">
        <ele>221</ele>
        <time>2019-04-14T10:40:17Z</time>
      </trkpt>
      <trkpt lat="44.42993" lon="1.34011">
        <ele>221</ele>
        <time>2019-04-14T10:40:18Z</time>
      </trkpt>
      <trkpt lat="44.42993" lon="1.34009">
        <ele>222</ele>
        <time>2019-04-14T10:40:19Z</time>
      </trkpt>
      <trkpt lat="44.42994" lon="1.34008">
        <ele>222</ele>
        <time>2019-04-14T10:40:20Z</time>
      </trkpt>
      <trkpt lat="44.42994" lon="1.34007">
        <ele>222</ele>
        <time>2019-04-14T10:40:21Z</time>
      </trkpt>
      <trkpt lat="44.42995" lon="1.34006">
        <ele>222</ele>
        <time>2019-04-14T10:40:22Z</time>
      </trkpt>
      <trkpt lat="44.42995" lon="1.34004">
        <ele>222</ele>
        <time>2019-04-14T10:40:23Z</time>
      </trkpt>
      <trkpt lat="44.42995" lon="1.34003">
        <ele>222</ele>
        <time>2019-04-14T10:40:24Z</time>
      </trkpt>
      <trkpt lat="44.42996" lon="1.34001">
        <ele>222</ele>
        <time>2019-04-14T10:40:25Z</time>
      </trkpt>
      <trkpt lat="44.42996" lon="1.34">
        <ele>223</ele>
        <time>2019-04-14T10:40:26Z</time>
      </trkpt>
      <trkpt lat="44.42997" lon="1.33999">
        <ele>223</ele>
        <time>2019-04-14T10:40:27Z</time>
      </trkpt>
      <trkpt lat="44.42998" lon="1.33998">
        <ele>223</ele>
        <time>2019-04-14T10:40:29Z</time>
      </trkpt>
      <trkpt lat="44.42998" lon="1.33997">
        <ele>223</ele>
        <time>2019-04-14T10:40:30Z</time>
      </trkpt>
      <trkpt lat="44.42999" lon="1.33996">
        <ele>223</ele>
        <time>2019-04-14T10:40:31Z</time>
      </trkpt>
      <trkpt lat="44.43" lon="1.33994">
        <ele>224</ele>
        <time>2019-04-14T10:40:32Z</time>
      </trkpt>
      <trkpt lat="44.43001" lon="1.33993">
        <ele>224</ele>
        <time>2019-04-14T10:40:33Z</time>
      </trkpt>
      <trkpt lat="44.43001" lon="1.33991">
        <ele>224</ele>
        <time>2019-04-14T10:40:34Z</time>
      </trkpt>
      <trkpt lat="44.43002" lon="1.3399">
        <ele>224</ele>
        <time>2019-04-14T10:40:35Z</time>
      </trkpt>
      <trkpt lat="44.43002" lon="1.33987">
        <ele>224</ele>
        <time>2019-04-14T10:40:36Z</time>
      </trkpt>
      <trkpt lat="44.43003" lon="1.33986">
        <ele>224</ele>
        <time>2019-04-14T10:40:37Z</time>
      </trkpt>
      <trkpt lat="44.43004" lon="1.33984">
        <ele>225</ele>
        <time>2019-04-14T10:40:38Z</time>
      </trkpt>
      <trkpt lat="44.43004" lon="1.33982">
        <ele>225</ele>
        <time>2019-04-14T10:40:39Z</time>
      </trkpt>
      <trkpt lat="44.43005" lon="1.33981">
        <ele>225</ele>
        <time>2019-04-14T10:40:40Z</time>
      </trkpt>
      <trkpt lat="44.43006" lon="1.3398">
        <ele>225</ele>
        <time>2019-04-14T10:40:41Z</time>
      </trkpt>
      <trkpt lat="44.43007" lon="1.33978">
        <ele>225</ele>
        <time>2019-04-14T10:40:42Z</time>
      </trkpt>
      <trkpt lat="44.43008" lon="1.33977">
        <ele>226</ele>
        <time>2019-04-14T10:40:43Z</time>
      </trkpt>
      <trkpt lat="44.43009" lon="1.33975">
        <ele>226</ele>
        <time>2019-04-14T10:40:44Z</time>
      </trkpt>
      <trkpt lat="44.4301" lon="1.33974">
        <ele>226</ele>
        <time>2019-04-14T10:40:45Z</time>
      </trkpt>
      <trkpt lat="44.4301" lon="1.33973">
        <ele>226</ele>
        <time>2019-04-14T10:40:46Z</time>
      </trkpt>
      <trkpt lat="44.43011" lon="1.33973">
        <ele>226</ele>
        <time>2019-04-14T10:40:47Z</time>
      </trkpt>
      <trkpt lat="44.43011" lon="1.33971">
        <ele>226</ele>
        <time>2019-04-14T10:40:48Z</time>
      </trkpt>
      <trkpt lat="44.43012" lon="1.3397">
        <ele>227</ele>
        <time>2019-04-14T10:40:49Z</time>
      </trkpt>
      <trkpt lat="44.43012" lon="1.33968">
        <ele>227</ele>
        <time>2019-04-14T10:40:50Z</time>
      </trkpt>
      <trkpt lat="44.43012" lon="1.33967">
        <ele>227</ele>
        <time>2019-04-14T10:40:51Z</time>
      </trkpt>
      <trkpt lat="44.43012" lon="1.33965">
        <ele>227</ele>
        <time>2019-04-14T10:40:52Z</time>
      </trkpt>
      <trkpt lat="44.43012" lon="1.33963">
        <ele>227</ele>
        <time>2019-04-14T10:40:53Z</time>
      </trkpt>
      <trkpt lat="44.43013" lon="1.33961">
        <ele>227</ele>
        <time>2019-04-14T10:40:54Z</time>
      </trkpt>
      <trkpt lat="44.43015" lon="1.3396">
        <ele>228</ele>
        <time>2019-04-14T10:40:55Z</time>
      </trkpt>
      <trkpt lat="44.43015" lon="1.33959">
        <ele>228</ele>
        <time>2019-04-14T10:40:56Z</time>
      </trkpt>
      <trkpt lat="44.43016" lon="1.33957">
        <ele>228</ele>
        <time>2019-04-14T10:40:58Z</time>
      </trkpt>
      <trkpt lat="44.43015" lon="1.33955">
        <ele>228</ele>
        <time>2019-04-14T10:40:59Z</time>
      </trkpt>
      <trkpt lat="44.43015" lon="1.33954">
        <ele>229</ele>
        <time>2019-04-14T10:41:00Z</time>
      </trkpt>
      <trkpt lat="44.43014" lon="1.33954">
        <ele>229</ele>
        <time>2019-04-14T10:41:01Z</time>
      </trkpt>
      <trkpt lat="44.43014" lon="1.33954">
        <ele>230</ele>
        <time>2019-04-14T10:41:02Z</time>
      </trkpt>
      <trkpt lat="44.43014" lon="1.33955">
        <ele>230</ele>
        <time>2019-04-14T10:41:03Z</time>
      </trkpt>
      <trkpt lat="44.43014" lon="1.33955">
        <ele>230</ele>
        <time>2019-04-14T10:41:04Z</time>
      </trkpt>
      <trkpt lat="44.43014" lon="1.33955">
        <ele>230</ele>
        <time>2019-04-14T10:41:05Z</time>
      </trkpt>
      <trkpt lat="44.43013" lon="1.33955">
        <ele>231</ele>
        <time>2019-04-14T10:41:06Z</time>
      </trkpt>
      <trkpt lat="44.43012" lon="1.33956">
        <ele>231</ele>
        <time>2019-04-14T10:41:07Z</time>
      </trkpt>
      <trkpt lat="44.43001" lon="1.33966">
        <ele>235</ele>
        <time>2019-04-14T10:41:25Z</time>
      </trkpt>
      <trkpt lat="44.43" lon="1.33967">
        <ele>235</ele>
        <time>2019-04-14T10:41:26Z</time>
      </trkpt>
      <trkpt lat="44.42999" lon="1.33968">
        <ele>236</ele>
        <time>2019-04-14T10:41:27Z</time>
      </trkpt>
      <trkpt lat="44.42998" lon="1.33968">
        <ele>236</ele>
        <time>2019-04-14T10:41:28Z</time>
      </trkpt>
      <trkpt lat="44.42997" lon="1.33969">
        <ele>236</ele>
        <time>2019-04-14T10:41:29Z</time>
      </trkpt>
      <trkpt lat="44.42996" lon="1.3397">
        <ele>236</ele>
        <time>2019-04-14T10:41:30Z</time>
      </trkpt>
      <trkpt lat="44.42995" lon="1.33971">
        <ele>236</ele>
        <time>2019-04-14T10:41:31Z</time>
      </trkpt>
      <trkpt lat="44.42991" lon="1.3397">
        <ele>236</ele>
        <time>2019-04-14T10:41:32Z</time>
      </trkpt>
      <trkpt lat="44.42989" lon="1.33971">
        <ele>237</ele>
        <time>2019-04-14T10:41:33Z</time>
      </trkpt>
      <trkpt lat="44.42987" lon="1.33971">
        <ele>237</ele>
        <time>2019-04-14T10:41:34Z</time>
      </trkpt>
      <trkpt lat="44.42986" lon="1.33972">
        <ele>237</ele>
        <time>2019-04-14T10:41:36Z</time>
      </trkpt>
      <trkpt lat="44.42985" lon="1.33973">
        <ele>237</ele>
        <time>2019-04-14T10:41:37Z</time>
      </trkpt>
      <trkpt lat="44.42983" lon="1.33973">
        <ele>237</ele>
        <time>2019-04-14T10:41:38Z</time>
      </trkpt>
      <trkpt lat="44.42982" lon="1.33973">
        <ele>237</ele>
        <time>2019-04-14T10:41:39Z</time>
      </trkpt>
      <trkpt lat="44.42981" lon="1.33974">
        <ele>237</ele>
        <time>2019-04-14T10:41:40Z</time>
      </trkpt>
      <trkpt lat="44.4298" lon="1.33975">
        <ele>237</ele>
        <time>2019-04-14T10:41:41Z</time>
      </trkpt>
      <trkpt lat="44.42978" lon="1.33976">
        <ele>237</ele>
        <time>2019-04-14T10:41:42Z</time>
      </trkpt>
      <trkpt lat="44.42977" lon="1.33976">
        <ele>238</ele>
        <time>2019-04-14T10:41:43Z</time>
      </trkpt>
      <trkpt lat="44.42976" lon="1.33976">
        <ele>238</ele>
        <time>2019-04-14T10:41:44Z</time>
      </trkpt>
      <trkpt lat="44.42975" lon="1.33977">
        <ele>238</ele>
        <time>2019-04-14T10:41:45Z</time>
      </trkpt>
      <trkpt lat="44.42974" lon="1.33977">
        <ele>239</ele>
        <time>2019-04-14T10:41:46Z</time>
      </trkpt>
      <trkpt lat="44.42973" lon="1.33977">
        <ele>239</ele>
        <time>2019-04-14T10:41:47Z</time>
      </trkpt>
      <trkpt lat="44.42972" lon="1.33978">
        <ele>239</ele>
        <time>2019-04-14T10:41:48Z</time>
      </trkpt>
      <trkpt lat="44.4297" lon="1.33979">
        <ele>240</ele>
        <time>2019-04-14T10:41:49Z</time>
      </trkpt>
      <trkpt lat="44.42969" lon="1.33979">
        <ele>240</ele>
        <time>2019-04-14T10:41:50Z</time>
      </trkpt>
      <trkpt lat="44.42969" lon="1.33979">
        <ele>240</ele>
        <time>2019-04-14T10:41:51Z</time>
      </trkpt>
      <trkpt lat="44.42968" lon="1.33979">
        <ele>241</ele>
        <time>2019-04-14T10:41:52Z</time>
      </trkpt>
      <trkpt lat="44.42967" lon="1.33978">
        <ele>241</ele>
        <time>2019-04-14T10:41:53Z</time>
      </trkpt>
      <trkpt lat="44.42966" lon="1.33978">
        <ele>241</ele>
        <time>2019-04-14T10:41:55Z</time>
      </trkpt>
      <trkpt lat="44.42965" lon="1.33977">
        <ele>242</ele>
        <time>2019-04-14T10:41:56Z</time>
      </trkpt>
      <trkpt lat="44.42964" lon="1.33977">
        <ele>242</ele>
        <time>2019-04-14T10:41:57Z</time>
      </trkpt>
      <trkpt lat="44.42963" lon="1.33977">
        <ele>242</ele>
        <time>2019-04-14T10:41:58Z</time>
      </trkpt>
      <trkpt lat="44.42962" lon="1.33977">
        <ele>242</ele>
        <time>2019-04-14T10:41:59Z</time>
      </trkpt>
      <trkpt lat="44.42961" lon="1.33978">
        <ele>243</ele>
        <time>2019-04-14T10:42:00Z</time>
      </trkpt>
      <trkpt lat="44.42959" lon="1.33979">
        <ele>243</ele>
        <time>2019-04-14T10:42:01Z</time>
      </trkpt>
      <trkpt lat="44.42958" lon="1.33979">
        <ele>243</ele>
        <time>2019-04-14T10:42:02Z</time>
      </trkpt>
      <trkpt lat="44.42956" lon="1.3398">
        <ele>243</ele>
        <time>2019-04-14T10:42:03Z</time>
      </trkpt>
      <trkpt lat="44.42955" lon="1.33981">
        <ele>243</ele>
        <time>2019-04-14T10:42:04Z</time>
      </trkpt>
      <trkpt lat="44.42953" lon="1.33982">
        <ele>243</ele>
        <time>2019-04-14T10:42:05Z</time>
      </trkpt>
      <trkpt lat="44.42952" lon="1.33983">
        <ele>243</ele>
        <time>2019-04-14T10:42:06Z</time>
      </trkpt>
      <trkpt lat="44.42951" lon="1.33984">
        <ele>244</ele>
        <time>2019-04-14T10:42:07Z</time>
      </trkpt>
      <trkpt lat="44.4295" lon="1.33984">
        <ele>244</ele>
        <time>2019-04-14T10:42:08Z</time>
      </trkpt>
      <trkpt lat="44.42949" lon="1.33985">
        <ele>244</ele>
        <time>2019-04-14T10:42:09Z</time>
      </trkpt>
      <trkpt lat="44.42948" lon="1.33985">
        <ele>244</ele>
        <time>2019-04-14T10:42:10Z</time>
      </trkpt>
      <trkpt lat="44.42947" lon="1.33986">
        <ele>244</ele>
        <time>2019-04-14T10:42:11Z</time>
      </trkpt>
      <trkpt lat="44.42946" lon="1.33985">
        <ele>245</ele>
        <time>2019-04-14T10:42:13Z</time>
      </trkpt>
      <trkpt lat="44.42944" lon="1.33985">
        <ele>245</ele>
        <time>2019-04-14T10:42:14Z</time>
      </trkpt>
      <trkpt lat="44.42943" lon="1.33984">
        <ele>246</ele>
        <time>2019-04-14T10:42:15Z</time>
      </trkpt>
      <trkpt lat="44.42943" lon="1.33984">
        <ele>246</ele>
        <time>2019-04-14T10:42:16Z</time>
      </trkpt>
      <trkpt lat="44.42941" lon="1.33983">
        <ele>246</ele>
        <time>2019-04-14T10:42:17Z</time>
      </trkpt>
      <trkpt lat="44.4294" lon="1.33983">
        <ele>246</ele>
        <time>2019-04-14T10:42:18Z</time>
      </trkpt>
      <trkpt lat="44.42939" lon="1.33982">
        <ele>246</ele>
        <time>2019-04-14T10:42:19Z</time>
      </trkpt>
      <trkpt lat="44.42938" lon="1.33981">
        <ele>247</ele>
        <time>2019-04-14T10:42:21Z</time>
      </trkpt>
      <trkpt lat="44.42937" lon="1.33981">
        <ele>247</ele>
        <time>2019-04-14T10:42:22Z</time>
      </trkpt>
      <trkpt lat="44.42937" lon="1.33981">
        <ele>247</ele>
        <time>2019-04-14T10:42:23Z</time>
      </trkpt>
      <trkpt lat="44.42936" lon="1.33982">
        <ele>247</ele>
        <time>2019-04-14T10:42:24Z</time>
      </trkpt>
      <trkpt lat="44.42935" lon="1.33983">
        <ele>247</ele>
        <time>2019-04-14T10:42:25Z</time>
      </trkpt>
      <trkpt lat="44.42935" lon="1.33984">
        <ele>247</ele>
        <time>2019-04-14T10:42:26Z</time>
      </trkpt>
      <trkpt lat="44.42934" lon="1.33985">
        <ele>247</ele>
        <time>2019-04-14T10:42:27Z</time>
      </trkpt>
      <trkpt lat="44.42932" lon="1.33984">
        <ele>247</ele>
        <time>2019-04-14T10:42:28Z</time>
      </trkpt>
      <trkpt lat="44.42927" lon="1.33985">
        <ele>248</ele>
        <time>2019-04-14T10:42:33Z</time>
      </trkpt>
      <trkpt lat="44.42926" lon="1.33985">
        <ele>248</ele>
        <time>2019-04-14T10:42:34Z</time>
      </trkpt>
      <trkpt lat="44.42925" lon="1.33985">
        <ele>249</ele>
        <time>2019-04-14T10:42:35Z</time>
      </trkpt>
      <trkpt lat="44.42924" lon="1.33985">
        <ele>249</ele>
        <time>2019-04-14T10:42:36Z</time>
      </trkpt>
      <trkpt lat="44.42923" lon="1.33985">
        <ele>249</ele>
        <time>2019-04-14T10:42:37Z</time>
      </trkpt>
      <trkpt lat="44.42921" lon="1.33985">
        <ele>249</ele>
        <time>2019-04-14T10:42:38Z</time>
      </trkpt>
      <trkpt lat="44.42919" lon="1.33984">
        <ele>249</ele>
        <time>2019-04-14T10:42:39Z</time>
      </trkpt>
      <trkpt lat="44.42918" lon="1.33983">
        <ele>249</ele>
        <time>2019-04-14T10:42:40Z</time>
      </trkpt>
      <trkpt lat="44.42917" lon="1.33983">
        <ele>249</ele>
        <time>2019-04-14T10:42:41Z</time>
      </trkpt>
      <trkpt lat="44.42916" lon="1.33982">
        <ele>249</ele>
        <time>2019-04-14T10:42:42Z</time>
      </trkpt>
      <trkpt lat="44.42915" lon="1.33981">
        <ele>249</ele>
        <time>2019-04-14T10:42:44Z</time>
      </trkpt>
      <trkpt lat="44.42914" lon="1.3398">
        <ele>250</ele>
        <time>2019-04-14T10:42:45Z</time>
      </trkpt>
      <trkpt lat="44.42913" lon="1.33979">
        <ele>250</ele>
        <time>2019-04-14T10:42:46Z</time>
      </trkpt>
      <trkpt lat="44.42911" lon="1.33976">
        <ele>250</ele>
        <time>2019-04-14T10:42:47Z</time>
      </trkpt>
      <trkpt lat="44.4291" lon="1.33975">
        <ele>250</ele>
        <time>2019-04-14T10:42:48Z</time>
      </trkpt>
      <trkpt lat="44.42909" lon="1.33974">
        <ele>250</ele>
        <time>2019-04-14T10:42:49Z</time>
      </trkpt>
      <trkpt lat="44.42909" lon="1.33972">
        <ele>250</ele>
        <time>2019-04-14T10:42:50Z</time>
      </trkpt>
      <trkpt lat="44.42909" lon="1.33971">
        <ele>250</ele>
        <time>2019-04-14T10:42:51Z</time>
      </trkpt>
      <trkpt lat="44.42908" lon="1.3397">
        <ele>250</ele>
        <time>2019-04-14T10:42:52Z</time>
      </trkpt>
      <trkpt lat="44.42908" lon="1.33969">
        <ele>250</ele>
        <time>2019-04-14T10:42:53Z</time>
      </trkpt>
      <trkpt lat="44.42908" lon="1.33968">
        <ele>251</ele>
        <time>2019-04-14T10:42:54Z</time>
      </trkpt>
      <trkpt lat="44.42907" lon="1.33966">
        <ele>251</ele>
        <time>2019-04-14T10:42:55Z</time>
      </trkpt>
      <trkpt lat="44.42907" lon="1.33965">
        <ele>251</ele>
        <time>2019-04-14T10:42:56Z</time>
      </trkpt>
      <trkpt lat="44.42906" lon="1.33963">
        <ele>251</ele>
        <time>2019-04-14T10:42:57Z</time>
      </trkpt>
      <trkpt lat="44.42906" lon="1.33962">
        <ele>251</ele>
        <time>2019-04-14T10:42:58Z</time>
      </trkpt>
      <trkpt lat="44.42906" lon="1.3396">
        <ele>251</ele>
        <time>2019-04-14T10:42:59Z</time>
      </trkpt>
      <trkpt lat="44.42906" lon="1.33959">
        <ele>251</ele>
        <time>2019-04-14T10:43:00Z</time>
      </trkpt>
      <trkpt lat="44.42906" lon="1.33957">
        <ele>251</ele>
        <time>2019-04-14T10:43:01Z</time>
      </trkpt>
      <trkpt lat="44.42906" lon="1.33956">
        <ele>251</ele>
        <time>2019-04-14T10:43:02Z</time>
      </trkpt>
      <trkpt lat="44.42906" lon="1.33955">
        <ele>251</ele>
        <time>2019-04-14T10:43:03Z</time>
      </trkpt>
      <trkpt lat="44.42905" lon="1.33954">
        <ele>251</ele>
        <time>2019-04-14T10:43:04Z</time>
      </trkpt>
      <trkpt lat="44.42905" lon="1.33953">
        <ele>251</ele>
        <time>2019-04-14T10:43:05Z</time>
      </trkpt>
      <trkpt lat="44.42904" lon="1.33953">
        <ele>251</ele>
        <time>2019-04-14T10:43:06Z</time>
      </trkpt>
      <trkpt lat="44.42905" lon="1.33953">
        <ele>251</ele>
        <time>2019-04-14T10:43:08Z</time>
      </trkpt>
      <trkpt lat="44.42904" lon="1.33953">
        <ele>251</ele>
        <time>2019-04-14T10:43:09Z</time>
      </trkpt>
      <trkpt lat="44.42904" lon="1.33953">
        <ele>251</ele>
        <time>2019-04-14T10:43:10Z</time>
      </trkpt>
      <trkpt lat="44.42904" lon="1.33953">
        <ele>251</ele>
        <time>2019-04-14T10:43:11Z</time>
      </trkpt>
      <trkpt lat="44.42894" lon="1.33935">
        <ele>248</ele>
        <time>2019-04-14T10:48:35Z</time>
      </trkpt>
      <trkpt lat="44.42892" lon="1.33933">
        <ele>247</ele>
        <time>2019-04-14T10:48:36Z</time>
      </trkpt>
      <trkpt lat="44.4289" lon="1.3393">
        <ele>247</ele>
        <time>2019-04-14T10:48:37Z</time>
      </trkpt>
      <trkpt lat="44.42888" lon="1.33927">
        <ele>247</ele>
        <time>2019-04-14T10:48:38Z</time>
      </trkpt>
      <trkpt lat="44.42886" lon="1.33925">
        <ele>247</ele>
        <time>2019-04-14T10:48:39Z</time>
      </trkpt>
      <trkpt lat="44.42885" lon="1.33922">
        <ele>247</ele>
        <time>2019-04-14T10:48:40Z</time>
      </trkpt>
      <trkpt lat="44.42883" lon="1.33919">
        <ele>247</ele>
        <time>2019-04-14T10:48:41Z</time>
      </trkpt>
      <trkpt lat="44.42882" lon="1.33916">
        <ele>247</ele>
        <time>2019-04-14T10:48:42Z</time>
      </trkpt>
      <trkpt lat="44.4288" lon="1.33914">
        <ele>247</ele>
        <time>2019-04-14T10:48:43Z</time>
      </trkpt>
      <trkpt lat="44.42879" lon="1.3391">
        <ele>247</ele>
        <time>2019-04-14T10:48:44Z</time>
      </trkpt>
      <trkpt lat="44.42878" lon="1.33908">
        <ele>248</ele>
        <time>2019-04-14T10:48:45Z</time>
      </trkpt>
      <trkpt lat="44.42877" lon="1.33906">
        <ele>248</ele>
        <time>2019-04-14T10:48:46Z</time>
      </trkpt>
      <trkpt lat="44.42877" lon="1.33903">
        <ele>248</ele>
        <time>2019-04-14T10:48:47Z</time>
      </trkpt>
      <trkpt lat="44.42876" lon="1.33901">
        <ele>248</ele>
        <time>2019-04-14T10:48:48Z</time>
      </trkpt>
      <trkpt lat="44.42875" lon="1.33899">
        <ele>248</ele>
        <time>2019-04-14T10:48:49Z</time>
      </trkpt>
      <trkpt lat="44.42875" lon="1.33897">
        <ele>248</ele>
        <time>2019-04-14T10:48:50Z</time>
      </trkpt>
      <trkpt lat="44.42873" lon="1.33894">
        <ele>249</ele>
        <time>2019-04-14T10:48:51Z</time>
      </trkpt>
      <trkpt lat="44.42872" lon="1.33892">
        <ele>249</ele>
        <time>2019-04-14T10:48:52Z</time>
      </trkpt>
      <trkpt lat="44.42871" lon="1.3389">
        <ele>249</ele>
        <time>2019-04-14T10:48:53Z</time>
      </trkpt>
      <trkpt lat="44.4287" lon="1.33887">
        <ele>249</ele>
        <time>2019-04-14T10:48:54Z</time>
      </trkpt>
      <trkpt lat="44.42868" lon="1.33885">
        <ele>249</ele>
        <time>2019-04-14T10:48:55Z</time>
      </trkpt>
      <trkpt lat="44.42866" lon="1.33882">
        <ele>249</ele>
        <time>2019-04-14T10:48:56Z</time>
      </trkpt>
      <trkpt lat="44.42865" lon="1.33879">
        <ele>250</ele>
        <time>2019-04-14T10:48:57Z</time>
      </trkpt>
      <trkpt lat="44.42863" lon="1.33877">
        <ele>250</ele>
        <time>2019-04-14T10:48:58Z</time>
      </trkpt>
      <trkpt lat="44.42862" lon="1.33874">
        <ele>250</ele>
        <time>2019-04-14T10:48:59Z</time>
      </trkpt>
      <trkpt lat="44.42861" lon="1.33872">
        <ele>250</ele>
        <time>2019-04-14T10:49:00Z</time>
      </trkpt>
      <trkpt lat="44.4286" lon="1.33869">
        <ele>250</ele>
        <time>2019-04-14T10:49:01Z</time>
      </trkpt>
      <trkpt lat="44.4286" lon="1.33867">
        <ele>251</ele>
        <time>2019-04-14T10:49:02Z</time>
      </trkpt>
      <trkpt lat="44.42859" lon="1.33864">
        <ele>251</ele>
        <time>2019-04-14T10:49:03Z</time>
      </trkpt>
      <trkpt lat="44.42859" lon="1.33862">
        <ele>251</ele>
        <time>2019-04-14T10:49:04Z</time>
      </trkpt>
      <trkpt lat="44.42859" lon="1.33861">
        <ele>252</ele>
        <time>2019-04-14T10:49:05Z</time>
      </trkpt>
      <trkpt lat="44.42858" lon="1.33858">
        <ele>252</ele>
        <time>2019-04-14T10:49:06Z</time>
      </trkpt>
      <trkpt lat="44.42858" lon="1.33857">
        <ele>252</ele>
        <time>2019-04-14T10:49:07Z</time>
      </trkpt>
      <trkpt lat="44.42857" lon="1.33855">
        <ele>252</ele>
        <time>2019-04-14T10:49:08Z</time>
      </trkpt>
      <trkpt lat="44.42856" lon="1.33855">
        <ele>252</ele>
        <time>2019-04-14T10:49:09Z</time>
      </trkpt>
      <trkpt lat="44.42854" lon="1.33853">
        <ele>252</ele>
        <time>2019-04-14T10:49:10Z</time>
      </trkpt>
      <trkpt lat="44.42852" lon="1.33853">
        <ele>252</ele>
        <time>2019-04-14T10:49:11Z</time>
      </trkpt>
      <trkpt lat="44.4285" lon="1.33853">
        <ele>252</ele>
        <time>2019-04-14T10:49:12Z</time>
      </trkpt>
      <trkpt lat="44.42848" lon="1.33852">
        <ele>251</ele>
        <time>2019-04-14T10:49:13Z</time>
      </trkpt>
      <trkpt lat="44.42846" lon="1.33851">
        <ele>251</ele>
        <time>2019-04-14T10:49:14Z</time>
      </trkpt>
      <trkpt lat="44.42844" lon="1.3385">
        <ele>251</ele>
        <time>2019-04-14T10:49:15Z</time>
      </trkpt>
      <trkpt lat="44.42843" lon="1.3385">
        <ele>251</ele>
        <time>2019-04-14T10:49:16Z</time>
      </trkpt>
      <trkpt lat="44.42842" lon="1.3385">
        <ele>250</ele>
        <time>2019-04-14T10:49:17Z</time>
      </trkpt>
      <trkpt lat="44.42839" lon="1.33849">
        <ele>250</ele>
        <time>2019-04-14T10:49:18Z</time>
      </trkpt>
      <trkpt lat="44.42837" lon="1.33848">
        <ele>250</ele>
        <time>2019-04-14T10:49:19Z</time>
      </trkpt>
      <trkpt lat="44.42835" lon="1.33847">
        <ele>250</ele>
        <time>2019-04-14T10:49:20Z</time>
      </trkpt>
      <trkpt lat="44.42834" lon="1.33846">
        <ele>250</ele>
        <time>2019-04-14T10:49:21Z</time>
      </trkpt>
      <trkpt lat="44.42832" lon="1.33845">
        <ele>249</ele>
        <time>2019-04-14T10:49:22Z</time>
      </trkpt>
      <trkpt lat="44.42831" lon="1.33843">
        <ele>249</ele>
        <time>2019-04-14T10:49:23Z</time>
      </trkpt>
      <trkpt lat="44.42829" lon="1.33842">
        <ele>249</ele>
        <time>2019-04-14T10:49:24Z</time>
      </trkpt>
      <trkpt lat="44.42828" lon="1.33841">
        <ele>249</ele>
        <time>2019-04-14T10:49:25Z</time>
      </trkpt>
      <trkpt lat="44.42827" lon="1.33839">
        <ele>249</ele>
        <time>2019-04-14T10:49:26Z</time>
      </trkpt>
      <trkpt lat="44.42826" lon="1.33837">
        <ele>249</ele>
        <time>2019-04-14T10:49:27Z</time>
      </trkpt>
      <trkpt lat="44.42825" lon="1.33835">
        <ele>249</ele>
        <time>2019-04-14T10:49:28Z</time>
      </trkpt>
      <trkpt lat="44.42824" lon="1.33833">
        <ele>249</ele>
        <time>2019-04-14T10:49:29Z</time>
      </trkpt>
      <trkpt lat="44.42822" lon="1.3383">
        <ele>249</ele>
        <time>2019-04-14T10:49:30Z</time>
      </trkpt>
      <trkpt lat="44.42821" lon="1.33828">
        <ele>249</ele>
        <time>2019-04-14T10:49:31Z</time>
      </trkpt>
      <trkpt lat="44.42821" lon="1.33826">
        <ele>250</ele>
        <time>2019-04-14T10:49:32Z</time>
      </trkpt>
      <trkpt lat="44.42821" lon="1.33825">
        <ele>250</ele>
        <time>2019-04-14T10:49:33Z</time>
      </trkpt>
      <trkpt lat="44.42822" lon="1.33825">
        <ele>250</ele>
        <time>2019-04-14T10:49:34Z</time>
      </trkpt>
      <trkpt lat="44.42821" lon="1.33825">
        <ele>250</ele>
        <time>2019-04-14T10:49:35Z</time>
      </trkpt>
      <trkpt lat="44.42821" lon="1.33824">
        <ele>250</ele>
        <time>2019-04-14T10:49:36Z</time>
      </trkpt>
      <trkpt lat="44.42822" lon="1.33823">
        <ele>251</ele>
        <time>2019-04-14T10:49:37Z</time>
      </trkpt>
      <trkpt lat="44.42821" lon="1.33822">
        <ele>251</ele>
        <time>2019-04-14T10:49:38Z</time>
      </trkpt>
      <trkpt lat="44.42821" lon="1.33823">
        <ele>251</ele>
        <time>2019-04-14T10:49:39Z</time>
      </trkpt>
      <trkpt lat="44.42821" lon="1.33822">
        <ele>251</ele>
        <time>2019-04-14T10:49:40Z</time>
      </trkpt>
      <trkpt lat="44.4282" lon="1.33821">
        <ele>251</ele>
        <time>2019-04-14T10:49:41Z</time>
      </trkpt>
      <trkpt lat="44.42819" lon="1.33819">
        <ele>251</ele>
        <time>2019-04-14T10:49:42Z</time>
      </trkpt>
      <trkpt lat="44.4282" lon="1.33817">
        <ele>252</ele>
        <time>2019-04-14T10:49:43Z</time>
      </trkpt>
      <trkpt lat="44.4282" lon="1.33815">
        <ele>252</ele>
        <time>2019-04-14T10:49:44Z</time>
      </trkpt>
      <trkpt lat="44.42823" lon="1.3381">
        <ele>254</ele>
        <time>2019-04-14T10:49:49Z</time>
      </trkpt>
      <trkpt lat="44.42823" lon="1.33809">
        <ele>254</ele>
        <time>2019-04-14T10:49:50Z</time>
      </trkpt>
      <trkpt lat="44.42823" lon="1.33808">
        <ele>254</ele>
        <time>2019-04-14T10:49:51Z</time>
      </trkpt>
      <trkpt lat="44.42823" lon="1.33807">
        <ele>255</ele>
        <time>2019-04-14T10:49:52Z</time>
      </trkpt>
      <trkpt lat="44.42822" lon="1.33806">
        <ele>255</ele>
        <time>2019-04-14T10:49:53Z</time>
      </trkpt>
      <trkpt lat="44.42822" lon="1.33805">
        <ele>255</ele>
        <time>2019-04-14T10:49:54Z</time>
      </trkpt>
      <trkpt lat="44.42822" lon="1.33804">
        <ele>255</ele>
        <time>2019-04-14T10:49:55Z</time>
      </trkpt>
      <trkpt lat="44.42821" lon="1.33803">
        <ele>255</ele>
        <time>2019-04-14T10:49:56Z</time>
      </trkpt>
      <trkpt lat="44.42821" lon="1.33803">
        <ele>255</ele>
        <time>2019-04-14T10:49:57Z</time>
      </trkpt>
      <trkpt lat="44.42821" lon="1.33802">
        <ele>255</ele>
        <time>2019-04-14T10:49:58Z</time>
      </trkpt>
      <trkpt lat="44.4282" lon="1.33801">
        <ele>255</ele>
        <time>2019-04-14T10:49:59Z</time>
      </trkpt>
      <trkpt lat="44.42819" lon="1.338">
        <ele>255</ele>
        <time>2019-04-14T10:50:00Z</time>
      </trkpt>
      <trkpt lat="44.42817" lon="1.338">
        <ele>255</ele>
        <time>2019-04-14T10:50:01Z</time>
      </trkpt>
      <trkpt lat="44.42814" lon="1.338">
        <ele>255</ele>
        <time>2019-04-14T10:50:02Z</time>
      </trkpt>
      <trkpt lat="44.42802" lon="1.33805">
        <ele>252</ele>
        <time>2019-04-14T10:50:07Z</time>
      </trkpt>
      <trkpt lat="44.42798" lon="1.33804">
        <ele>251</ele>
        <time>2019-04-14T10:50:08Z</time>
      </trkpt>
      <trkpt lat="44.42795" lon="1.33802">
        <ele>251</ele>
        <time>2019-04-14T10:50:09Z</time>
      </trkpt>
      <trkpt lat="44.42794" lon="1.338">
        <ele>251</ele>
        <time>2019-04-14T10:50:10Z</time>
      </trkpt>
      <trkpt lat="44.42793" lon="1.33797">
        <ele>251</ele>
        <time>2019-04-14T10:50:11Z</time>
      </trkpt>
      <trkpt lat="44.42792" lon="1.33795">
        <ele>252</ele>
        <time>2019-04-14T10:50:12Z</time>
      </trkpt>
      <trkpt lat="44.42791" lon="1.33793">
        <ele>252</ele>
        <time>2019-04-14T10:50:13Z</time>
      </trkpt>
      <trkpt lat="44.42789" lon="1.33792">
        <ele>252</ele>
        <time>2019-04-14T10:50:14Z</time>
      </trkpt>
      <trkpt lat="44.42787" lon="1.33791">
        <ele>252</ele>
        <time>2019-04-14T10:50:15Z</time>
      </trkpt>
      <trkpt lat="44.42785" lon="1.33792">
        <ele>252</ele>
        <time>2019-04-14T10:50:16Z</time>
      </trkpt>
      <trkpt lat="44.42781" lon="1.33793">
        <ele>251</ele>
        <time>2019-04-14T10:50:17Z</time>
      </trkpt>
      <trkpt lat="44.42778" lon="1.33794">
        <ele>250</ele>
        <time>2019-04-14T10:50:18Z</time>
      </trkpt>
      <trkpt lat="44.42775" lon="1.33795">
        <ele>250</ele>
        <time>2019-04-14T10:50:19Z</time>
      </trkpt>
      <trkpt lat="44.42773" lon="1.33796">
        <ele>249</ele>
        <time>2019-04-14T10:50:20Z</time>
      </trkpt>
      <trkpt lat="44.4277" lon="1.33797">
        <ele>248</ele>
        <time>2019-04-14T10:50:21Z</time>
      </trkpt>
      <trkpt lat="44.42767" lon="1.33796">
        <ele>248</ele>
        <time>2019-04-14T10:50:22Z</time>
      </trkpt>
      <trkpt lat="44.42764" lon="1.33793">
        <ele>248</ele>
        <time>2019-04-14T10:50:23Z</time>
      </trkpt>
      <trkpt lat="44.42762" lon="1.3379">
        <ele>248</ele>
        <time>2019-04-14T10:50:24Z</time>
      </trkpt>
      <trkpt lat="44.4276" lon="1.33787">
        <ele>248</ele>
        <time>2019-04-14T10:50:25Z</time>
      </trkpt>
      <trkpt lat="44.42759" lon="1.33784">
        <ele>248</ele>
        <time>2019-04-14T10:50:26Z</time>
      </trkpt>
      <trkpt lat="44.42758" lon="1.33781">
        <ele>249</ele>
        <time>2019-04-14T10:50:27Z</time>
      </trkpt>
      <trkpt lat="44.42757" lon="1.33778">
        <ele>249</ele>
        <time>2019-04-14T10:50:28Z</time>
      </trkpt>
      <trkpt lat="44.42757" lon="1.33775">
        <ele>249</ele>
        <time>2019-04-14T10:50:29Z</time>
      </trkpt>
      <trkpt lat="44.42756" lon="1.33772">
        <ele>249</ele>
        <time>2019-04-14T10:50:30Z</time>
      </trkpt>
      <trkpt lat="44.42756" lon="1.33769">
        <ele>249</ele>
        <time>2019-04-14T10:50:31Z</time>
      </trkpt>
      <trkpt lat="44.42755" lon="1.33766">
        <ele>250</ele>
        <time>2019-04-14T10:50:32Z</time>
      </trkpt>
      <trkpt lat="44.42754" lon="1.33763">
        <ele>250</ele>
        <time>2019-04-14T10:50:33Z</time>
      </trkpt>
      <trkpt lat="44.42753" lon="1.3376">
        <ele>250</ele>
        <time>2019-04-14T10:50:34Z</time>
      </trkpt>
      <trkpt lat="44.42752" lon="1.33757">
        <ele>250</ele>
        <time>2019-04-14T10:50:35Z</time>
      </trkpt>
      <trkpt lat="44.4275" lon="1.33755">
        <ele>250</ele>
        <time>2019-04-14T10:50:36Z</time>
      </trkpt>
      <trkpt lat="44.42749" lon="1.33752">
        <ele>250</ele>
        <time>2019-04-14T10:50:37Z</time>
      </trkpt>
      <trkpt lat="44.42747" lon="1.3375">
        <ele>250</ele>
        <time>2019-04-14T10:50:38Z</time>
      </trkpt>
      <trkpt lat="44.42744" lon="1.33747">
        <ele>250</ele>
        <time>2019-04-14T10:50:39Z</time>
      </trkpt>
      <trkpt lat="44.4274" lon="1.33745">
        <ele>249</ele>
        <time>2019-04-14T10:50:40Z</time>
      </trkpt>
      <trkpt lat="44.42737" lon="1.33741">
        <ele>249</ele>
        <time>2019-04-14T10:50:41Z</time>
      </trkpt>
      <trkpt lat="44.42733" lon="1.33735">
        <ele>248</ele>
        <time>2019-04-14T10:50:42Z</time>
      </trkpt>
      <trkpt lat="44.42729" lon="1.33729">
        <ele>247</ele>
        <time>2019-04-14T10:50:43Z</time>
      </trkpt>
      <trkpt lat="44.42725" lon="1.33722">
        <ele>247</ele>
        <time>2019-04-14T10:50:44Z</time>
      </trkpt>
      <trkpt lat="44.42721" lon="1.33716">
        <ele>247</ele>
        <time>2019-04-14T10:50:45Z</time>
      </trkpt>
      <trkpt lat="44.42717" lon="1.33711">
        <ele>247</ele>
        <time>2019-04-14T10:50:46Z</time>
      </trkpt>
      <trkpt lat="44.42714" lon="1.33707">
        <ele>247</ele>
        <time>2019-04-14T10:50:47Z</time>
      </trkpt>
      <trkpt lat="44.42712" lon="1.33703">
        <ele>247</ele>
        <time>2019-04-14T10:50:48Z</time>
      </trkpt>
      <trkpt lat="44.42711" lon="1.337">
        <ele>248</ele>
        <time>2019-04-14T10:50:49Z</time>
      </trkpt>
      <trkpt lat="44.4271" lon="1.33697">
        <ele>248</ele>
        <time>2019-04-14T10:50:50Z</time>
      </trkpt>
      <trkpt lat="44.4271" lon="1.33694">
        <ele>248</ele>
        <time>2019-04-14T10:50:51Z</time>
      </trkpt>
      <trkpt lat="44.4271" lon="1.33692">
        <ele>249</ele>
        <time>2019-04-14T10:50:52Z</time>
      </trkpt>
      <trkpt lat="44.4271" lon="1.3369">
        <ele>249</ele>
        <time>2019-04-14T10:50:53Z</time>
      </trkpt>
      <trkpt lat="44.4271" lon="1.33687">
        <ele>249</ele>
        <time>2019-04-14T10:50:54Z</time>
      </trkpt>
      <trkpt lat="44.42708" lon="1.33685">
        <ele>250</ele>
        <time>2019-04-14T10:50:55Z</time>
      </trkpt>
      <trkpt lat="44.42707" lon="1.33682">
        <ele>250</ele>
        <time>2019-04-14T10:50:56Z</time>
      </trkpt>
      <trkpt lat="44.42706" lon="1.3368">
        <ele>250</ele>
        <time>2019-04-14T10:50:57Z</time>
      </trkpt>
      <trkpt lat="44.42705" lon="1.33677">
        <ele>250</ele>
        <time>2019-04-14T10:50:58Z</time>
      </trkpt>
      <trkpt lat="44.42703" lon="1.33674">
        <ele>250</ele>
        <time>2019-04-14T10:50:59Z</time>
      </trkpt>
      <trkpt lat="44.42702" lon="1.33671">
        <ele>250</ele>
        <time>2019-04-14T10:51:00Z</time>
      </trkpt>
      <trkpt lat="44.42702" lon="1.33668">
        <ele>250</ele>
        <time>2019-04-14T10:51:01Z</time>
      </trkpt>
      <trkpt lat="44.42702" lon="1.33666">
        <ele>251</ele>
        <time>2019-04-14T10:51:02Z</time>
      </trkpt>
      <trkpt lat="44.42702" lon="1.33663">
        <ele>251</ele>
        <time>2019-04-14T10:51:03Z</time>
      </trkpt>
      <trkpt lat="44.42703" lon="1.33662">
        <ele>251</ele>
        <time>2019-04-14T10:51:04Z</time>
      </trkpt>
      <trkpt lat="44.42704" lon="1.3366">
        <ele>251</ele>
        <time>2019-04-14T10:51:05Z</time>
      </trkpt>
      <trkpt lat="44.42705" lon="1.33659">
        <ele>252</ele>
        <time>2019-04-14T10:51:06Z</time>
      </trkpt>
      <trkpt lat="44.42706" lon="1.33658">
        <ele>252</ele>
        <time>2019-04-14T10:51:07Z</time>
      </trkpt>
      <trkpt lat="44.42706" lon="1.33657">
        <ele>253</ele>
        <time>2019-04-14T10:51:08Z</time>
      </trkpt>
      <trkpt lat="44.42707" lon="1.33656">
        <ele>253</ele>
        <time>2019-04-14T10:51:09Z</time>
      </trkpt>
      <trkpt lat="44.42709" lon="1.33656">
        <ele>253</ele>
        <time>2019-04-14T10:51:10Z</time>
      </trkpt>
      <trkpt lat="44.4271" lon="1.33656">
        <ele>253</ele>
        <time>2019-04-14T10:51:11Z</time>
      </trkpt>
      <trkpt lat="44.42711" lon="1.33656">
        <ele>254</ele>
        <time>2019-04-14T10:51:12Z</time>
      </trkpt>
      <trkpt lat="44.42712" lon="1.33656">
        <ele>254</ele>
        <time>2019-04-14T10:51:13Z</time>
      </trkpt>
      <trkpt lat="44.42714" lon="1.33656">
        <ele>254</ele>
        <time>2019-04-14T10:51:14Z</time>
      </trkpt>
      <trkpt lat="44.42714" lon="1.33655">
        <ele>255</ele>
        <time>2019-04-14T10:51:15Z</time>
      </trkpt>
      <trkpt lat="44.42715" lon="1.33654">
        <ele>255</ele>
        <time>2019-04-14T10:51:16Z</time>
      </trkpt>
      <trkpt lat="44.42716" lon="1.33654">
        <ele>255</ele>
        <time>2019-04-14T10:51:17Z</time>
      </trkpt>
      <trkpt lat="44.42717" lon="1.33654">
        <ele>256</ele>
        <time>2019-04-14T10:51:18Z</time>
      </trkpt>
      <trkpt lat="44.42719" lon="1.33653">
        <ele>256</ele>
        <time>2019-04-14T10:51:19Z</time>
      </trkpt>
      <trkpt lat="44.4272" lon="1.33652">
        <ele>256</ele>
        <time>2019-04-14T10:51:20Z</time>
      </trkpt>
      <trkpt lat="44.42721" lon="1.3365">
        <ele>256</ele>
        <time>2019-04-14T10:51:21Z</time>
      </trkpt>
      <trkpt lat="44.42722" lon="1.33649">
        <ele>257</ele>
        <time>2019-04-14T10:51:22Z</time>
      </trkpt>
      <trkpt lat="44.42723" lon="1.33648">
        <ele>257</ele>
        <time>2019-04-14T10:51:23Z</time>
      </trkpt>
      <trkpt lat="44.42723" lon="1.33646">
        <ele>257</ele>
        <time>2019-04-14T10:51:24Z</time>
      </trkpt>
      <trkpt lat="44.42723" lon="1.33644">
        <ele>257</ele>
        <time>2019-04-14T10:51:25Z</time>
      </trkpt>
      <trkpt lat="44.42723" lon="1.33642">
        <ele>258</ele>
        <time>2019-04-14T10:51:26Z</time>
      </trkpt>
      <trkpt lat="44.42722" lon="1.3364">
        <ele>258</ele>
        <time>2019-04-14T10:51:27Z</time>
      </trkpt>
      <trkpt lat="44.42722" lon="1.33638">
        <ele>258</ele>
        <time>2019-04-14T10:51:28Z</time>
      </trkpt>
      <trkpt lat="44.42722" lon="1.33636">
        <ele>258</ele>
        <time>2019-04-14T10:51:29Z</time>
      </trkpt>
      <trkpt lat="44.42722" lon="1.33635">
        <ele>258</ele>
        <time>2019-04-14T10:51:30Z</time>
      </trkpt>
      <trkpt lat="44.42721" lon="1.33632">
        <ele>258</ele>
        <time>2019-04-14T10:51:31Z</time>
      </trkpt>
      <trkpt lat="44.42721" lon="1.33631">
        <ele>258</ele>
        <time>2019-04-14T10:51:32Z</time>
      </trkpt>
      <trkpt lat="44.4272" lon="1.33629">
        <ele>258</ele>
        <time>2019-04-14T10:51:33Z</time>
      </trkpt>
      <trkpt lat="44.42719" lon="1.33627">
        <ele>258</ele>
        <time>2019-04-14T10:51:34Z</time>
      </trkpt>
      <trkpt lat="44.42718" lon="1.33625">
        <ele>258</ele>
        <time>2019-04-14T10:51:35Z</time>
      </trkpt>
      <trkpt lat="44.42716" lon="1.33622">
        <ele>258</ele>
        <time>2019-04-14T10:51:36Z</time>
      </trkpt>
      <trkpt lat="44.42714" lon="1.33619">
        <ele>258</ele>
        <time>2019-04-14T10:51:37Z</time>
      </trkpt>
      <trkpt lat="44.42712" lon="1.33616">
        <ele>258</ele>
        <time>2019-04-14T10:51:38Z</time>
      </trkpt>
      <trkpt lat="44.4271" lon="1.33613">
        <ele>258</ele>
        <time>2019-04-14T10:51:39Z</time>
      </trkpt>
      <trkpt lat="44.42709" lon="1.3361">
        <ele>258</ele>
        <time>2019-04-14T10:51:40Z</time>
      </trkpt>
      <trkpt lat="44.42707" lon="1.33606">
        <ele>258</ele>
        <time>2019-04-14T10:51:41Z</time>
      </trkpt>
      <trkpt lat="44.42706" lon="1.33603">
        <ele>258</ele>
        <time>2019-04-14T10:51:42Z</time>
      </trkpt>
      <trkpt lat="44.42706" lon="1.33599">
        <ele>258</ele>
        <time>2019-04-14T10:51:43Z</time>
      </trkpt>
      <trkpt lat="44.42705" lon="1.33596">
        <ele>258</ele>
        <time>2019-04-14T10:51:44Z</time>
      </trkpt>
      <trkpt lat="44.42703" lon="1.33593">
        <ele>259</ele>
        <time>2019-04-14T10:51:45Z</time>
      </trkpt>
      <trkpt lat="44.42702" lon="1.33589">
        <ele>259</ele>
        <time>2019-04-14T10:51:46Z</time>
      </trkpt>
      <trkpt lat="44.42701" lon="1.33586">
        <ele>259</ele>
        <time>2019-04-14T10:51:47Z</time>
      </trkpt>
      <trkpt lat="44.42699" lon="1.33584">
        <ele>259</ele>
        <time>2019-04-14T10:51:48Z</time>
      </trkpt>
      <trkpt lat="44.42698" lon="1.33581">
        <ele>259</ele>
        <time>2019-04-14T10:51:49Z</time>
      </trkpt>
      <trkpt lat="44.42697" lon="1.33578">
        <ele>259</ele>
        <time>2019-04-14T10:51:50Z</time>
      </trkpt>
      <trkpt lat="44.42696" lon="1.33576">
        <ele>259</ele>
        <time>2019-04-14T10:51:51Z</time>
      </trkpt>
      <trkpt lat="44.42694" lon="1.33574">
        <ele>259</ele>
        <time>2019-04-14T10:51:52Z</time>
      </trkpt>
      <trkpt lat="44.42692" lon="1.33571">
        <ele>259</ele>
        <time>2019-04-14T10:51:53Z</time>
      </trkpt>
      <trkpt lat="44.42691" lon="1.33567">
        <ele>259</ele>
        <time>2019-04-14T10:51:54Z</time>
      </trkpt>
      <trkpt lat="44.42693" lon="1.33565">
        <ele>259</ele>
        <time>2019-04-14T10:51:55Z</time>
      </trkpt>
      <trkpt lat="44.42694" lon="1.33563">
        <ele>259</ele>
        <time>2019-04-14T10:51:56Z</time>
      </trkpt>
      <trkpt lat="44.42694" lon="1.3356">
        <ele>259</ele>
        <time>2019-04-14T10:51:57Z</time>
      </trkpt>
      <trkpt lat="44.42695" lon="1.33558">
        <ele>260</ele>
        <time>2019-04-14T10:51:58Z</time>
      </trkpt>
      <trkpt lat="44.42696" lon="1.33556">
        <ele>260</ele>
        <time>2019-04-14T10:51:59Z</time>
      </trkpt>
      <trkpt lat="44.42696" lon="1.33554">
        <ele>260</ele>
        <time>2019-04-14T10:52:00Z</time>
      </trkpt>
      <trkpt lat="44.42697" lon="1.33552">
        <ele>261</ele>
        <time>2019-04-14T10:52:01Z</time>
      </trkpt>
      <trkpt lat="44.42698" lon="1.33549">
        <ele>261</ele>
        <time>2019-04-14T10:52:02Z</time>
      </trkpt>
      <trkpt lat="44.42698" lon="1.33547">
        <ele>261</ele>
        <time>2019-04-14T10:52:03Z</time>
      </trkpt>
      <trkpt lat="44.42699" lon="1.33545">
        <ele>261</ele>
        <time>2019-04-14T10:52:04Z</time>
      </trkpt>
      <trkpt lat="44.427" lon="1.33544">
        <ele>262</ele>
        <time>2019-04-14T10:52:05Z</time>
      </trkpt>
      <trkpt lat="44.42701" lon="1.33543">
        <ele>262</ele>
        <time>2019-04-14T10:52:06Z</time>
      </trkpt>
      <trkpt lat="44.42702" lon="1.33541">
        <ele>262</ele>
        <time>2019-04-14T10:52:07Z</time>
      </trkpt>
      <trkpt lat="44.42702" lon="1.33539">
        <ele>263</ele>
        <time>2019-04-14T10:52:08Z</time>
      </trkpt>
      <trkpt lat="44.42702" lon="1.33537">
        <ele>263</ele>
        <time>2019-04-14T10:52:09Z</time>
      </trkpt>
      <trkpt lat="44.42703" lon="1.33535">
        <ele>263</ele>
        <time>2019-04-14T10:52:10Z</time>
      </trkpt>
      <trkpt lat="44.42704" lon="1.33533">
        <ele>263</ele>
        <time>2019-04-14T10:52:11Z</time>
      </trkpt>
      <trkpt lat="44.42705" lon="1.33531">
        <ele>264</ele>
        <time>2019-04-14T10:52:12Z</time>
      </trkpt>
      <trkpt lat="44.42706" lon="1.3353">
        <ele>264</ele>
        <time>2019-04-14T10:52:13Z</time>
      </trkpt>
      <trkpt lat="44.42706" lon="1.33529">
        <ele>264</ele>
        <time>2019-04-14T10:52:14Z</time>
      </trkpt>
      <trkpt lat="44.42708" lon="1.33529">
        <ele>264</ele>
        <time>2019-04-14T10:52:15Z</time>
      </trkpt>
      <trkpt lat="44.42709" lon="1.33528">
        <ele>265</ele>
        <time>2019-04-14T10:52:16Z</time>
      </trkpt>
      <trkpt lat="44.4271" lon="1.33527">
        <ele>265</ele>
        <time>2019-04-14T10:52:17Z</time>
      </trkpt>
      <trkpt lat="44.42711" lon="1.33526">
        <ele>265</ele>
        <time>2019-04-14T10:52:18Z</time>
      </trkpt>
      <trkpt lat="44.42712" lon="1.33524">
        <ele>265</ele>
        <time>2019-04-14T10:52:19Z</time>
      </trkpt>
      <trkpt lat="44.42714" lon="1.33523">
        <ele>265</ele>
        <time>2019-04-14T10:52:20Z</time>
      </trkpt>
      <trkpt lat="44.42715" lon="1.33522">
        <ele>265</ele>
        <time>2019-04-14T10:52:21Z</time>
      </trkpt>
      <trkpt lat="44.42716" lon="1.3352">
        <ele>266</ele>
        <time>2019-04-14T10:52:22Z</time>
      </trkpt>
      <trkpt lat="44.42717" lon="1.33518">
        <ele>266</ele>
        <time>2019-04-14T10:52:23Z</time>
      </trkpt>
      <trkpt lat="44.42717" lon="1.33517">
        <ele>266</ele>
        <time>2019-04-14T10:52:24Z</time>
      </trkpt>
      <trkpt lat="44.42717" lon="1.33515">
        <ele>266</ele>
        <time>2019-04-14T10:52:25Z</time>
      </trkpt>
      <trkpt lat="44.42718" lon="1.33513">
        <ele>267</ele>
        <time>2019-04-14T10:52:26Z</time>
      </trkpt>
      <trkpt lat="44.42718" lon="1.33512">
        <ele>267</ele>
        <time>2019-04-14T10:52:27Z</time>
      </trkpt>
      <trkpt lat="44.42719" lon="1.3351">
        <ele>267</ele>
        <time>2019-04-14T10:52:28Z</time>
      </trkpt>
      <trkpt lat="44.42719" lon="1.33508">
        <ele>267</ele>
        <time>2019-04-14T10:52:29Z</time>
      </trkpt>
      <trkpt lat="44.42719" lon="1.33506">
        <ele>267</ele>
        <time>2019-04-14T10:52:30Z</time>
      </trkpt>
      <trkpt lat="44.4272" lon="1.33504">
        <ele>267</ele>
        <time>2019-04-14T10:52:31Z</time>
      </trkpt>
      <trkpt lat="44.42721" lon="1.33501">
        <ele>267</ele>
        <time>2019-04-14T10:52:32Z</time>
      </trkpt>
      <trkpt lat="44.42721" lon="1.33499">
        <ele>267</ele>
        <time>2019-04-14T10:52:33Z</time>
      </trkpt>
      <trkpt lat="44.42722" lon="1.33497">
        <ele>267</ele>
        <time>2019-04-14T10:52:34Z</time>
      </trkpt>
      <trkpt lat="44.42723" lon="1.33495">
        <ele>268</ele>
        <time>2019-04-14T10:52:35Z</time>
      </trkpt>
      <trkpt lat="44.42723" lon="1.33494">
        <ele>268</ele>
        <time>2019-04-14T10:52:36Z</time>
      </trkpt>
      <trkpt lat="44.42724" lon="1.33492">
        <ele>268</ele>
        <time>2019-04-14T10:52:37Z</time>
      </trkpt>
      <trkpt lat="44.42725" lon="1.3349">
        <ele>268</ele>
        <time>2019-04-14T10:52:38Z</time>
      </trkpt>
      <trkpt lat="44.42726" lon="1.33488">
        <ele>268</ele>
        <time>2019-04-14T10:52:39Z</time>
      </trkpt>
      <trkpt lat="44.42726" lon="1.33486">
        <ele>268</ele>
        <time>2019-04-14T10:52:40Z</time>
      </trkpt>
      <trkpt lat="44.42727" lon="1.33484">
        <ele>268</ele>
        <time>2019-04-14T10:52:41Z</time>
      </trkpt>
      <trkpt lat="44.42728" lon="1.33482">
        <ele>269</ele>
        <time>2019-04-14T10:52:42Z</time>
      </trkpt>
      <trkpt lat="44.42728" lon="1.3348">
        <ele>269</ele>
        <time>2019-04-14T10:52:43Z</time>
      </trkpt>
      <trkpt lat="44.42729" lon="1.33478">
        <ele>269</ele>
        <time>2019-04-14T10:52:44Z</time>
      </trkpt>
      <trkpt lat="44.4273" lon="1.33477">
        <ele>269</ele>
        <time>2019-04-14T10:52:45Z</time>
      </trkpt>
      <trkpt lat="44.42731" lon="1.33475">
        <ele>269</ele>
        <time>2019-04-14T10:52:46Z</time>
      </trkpt>
      <trkpt lat="44.42732" lon="1.33474">
        <ele>269</ele>
        <time>2019-04-14T10:52:47Z</time>
      </trkpt>
      <trkpt lat="44.42734" lon="1.33472">
        <ele>269</ele>
        <time>2019-04-14T10:52:48Z</time>
      </trkpt>
      <trkpt lat="44.42735" lon="1.3347">
        <ele>269</ele>
        <time>2019-04-14T10:52:49Z</time>
      </trkpt>
      <trkpt lat="44.42736" lon="1.33469">
        <ele>270</ele>
        <time>2019-04-14T10:52:50Z</time>
      </trkpt>
      <trkpt lat="44.42737" lon="1.33467">
        <ele>270</ele>
        <time>2019-04-14T10:52:51Z</time>
      </trkpt>
      <trkpt lat="44.42739" lon="1.33465">
        <ele>270</ele>
        <time>2019-04-14T10:52:52Z</time>
      </trkpt>
      <trkpt lat="44.4274" lon="1.33464">
        <ele>270</ele>
        <time>2019-04-14T10:52:53Z</time>
      </trkpt>
      <trkpt lat="44.42742" lon="1.33462">
        <ele>270</ele>
        <time>2019-04-14T10:52:54Z</time>
      </trkpt>
      <trkpt lat="44.42743" lon="1.3346">
        <ele>270</ele>
        <time>2019-04-14T10:52:55Z</time>
      </trkpt>
      <trkpt lat="44.42743" lon="1.33458">
        <ele>270</ele>
        <time>2019-04-14T10:52:56Z</time>
      </trkpt>
      <trkpt lat="44.42744" lon="1.33456">
        <ele>270</ele>
        <time>2019-04-14T10:52:57Z</time>
      </trkpt>
      <trkpt lat="44.42745" lon="1.33454">
        <ele>271</ele>
        <time>2019-04-14T10:52:58Z</time>
      </trkpt>
      <trkpt lat="44.42746" lon="1.33452">
        <ele>271</ele>
        <time>2019-04-14T10:52:59Z</time>
      </trkpt>
      <trkpt lat="44.42748" lon="1.3345">
        <ele>271</ele>
        <time>2019-04-14T10:53:00Z</time>
      </trkpt>
      <trkpt lat="44.4275" lon="1.33449">
        <ele>271</ele>
        <time>2019-04-14T10:53:01Z</time>
      </trkpt>
      <trkpt lat="44.42752" lon="1.33448">
        <ele>271</ele>
        <time>2019-04-14T10:53:02Z</time>
      </trkpt>
      <trkpt lat="44.42753" lon="1.33447">
        <ele>271</ele>
        <time>2019-04-14T10:53:03Z</time>
      </trkpt>
      <trkpt lat="44.42754" lon="1.33445">
        <ele>271</ele>
        <time>2019-04-14T10:53:04Z</time>
      </trkpt>
      <trkpt lat="44.42754" lon="1.33443">
        <ele>271</ele>
        <time>2019-04-14T10:53:05Z</time>
      </trkpt>
      <trkpt lat="44.42754" lon="1.33441">
        <ele>271</ele>
        <time>2019-04-14T10:53:06Z</time>
      </trkpt>
      <trkpt lat="44.42755" lon="1.33439">
        <ele>271</ele>
        <time>2019-04-14T10:53:07Z</time>
      </trkpt>
      <trkpt lat="44.42755" lon="1.33436">
        <ele>271</ele>
        <time>2019-04-14T10:53:08Z</time>
      </trkpt>
      <trkpt lat="44.42756" lon="1.33434">
        <ele>271</ele>
        <time>2019-04-14T10:53:09Z</time>
      </trkpt>
      <trkpt lat="44.42757" lon="1.33433">
        <ele>272</ele>
        <time>2019-04-14T10:53:10Z</time>
      </trkpt>
      <trkpt lat="44.42757" lon="1.33431">
        <ele>272</ele>
        <time>2019-04-14T10:53:11Z</time>
      </trkpt>
      <trkpt lat="44.42758" lon="1.3343">
        <ele>272</ele>
        <time>2019-04-14T10:53:12Z</time>
      </trkpt>
      <trkpt lat="44.42758" lon="1.33429">
        <ele>272</ele>
        <time>2019-04-14T10:53:13Z</time>
      </trkpt>
      <trkpt lat="44.42758" lon="1.33429">
        <ele>272</ele>
        <time>2019-04-14T10:53:14Z</time>
      </trkpt>
      <trkpt lat="44.42758" lon="1.33429">
        <ele>272</ele>
        <time>2019-04-14T10:53:15Z</time>
      </trkpt>
      <trkpt lat="44.42758" lon="1.33428">
        <ele>272</ele>
        <time>2019-04-14T10:53:16Z</time>
      </trkpt>
      <trkpt lat="44.42758" lon="1.33428">
        <ele>271</ele>
        <time>2019-04-14T10:53:17Z</time>
      </trkpt>
      <trkpt lat="44.42758" lon="1.33428">
        <ele>272</ele>
        <time>2019-04-14T10:53:18Z</time>
      </trkpt>
      <trkpt lat="44.42758" lon="1.33428">
        <ele>271</ele>
        <time>2019-04-14T10:53:19Z</time>
      </trkpt>
      <trkpt lat="44.42758" lon="1.33427">
        <ele>272</ele>
        <time>2019-04-14T10:53:20Z</time>
      </trkpt>
      <trkpt lat="44.42746" lon="1.33416">
        <ele>270</ele>
        <time>2019-04-14T10:57:39Z</time>
      </trkpt>
      <trkpt lat="44.42743" lon="1.33413">
        <ele>270</ele>
        <time>2019-04-14T10:57:40Z</time>
      </trkpt>
      <trkpt lat="44.4274" lon="1.3341">
        <ele>269</ele>
        <time>2019-04-14T10:57:41Z</time>
      </trkpt>
      <trkpt lat="44.42737" lon="1.33409">
        <ele>269</ele>
        <time>2019-04-14T10:57:42Z</time>
      </trkpt>
      <trkpt lat="44.42734" lon="1.3341">
        <ele>269</ele>
        <time>2019-04-14T10:57:43Z</time>
      </trkpt>
      <trkpt lat="44.42731" lon="1.33409">
        <ele>269</ele>
        <time>2019-04-14T10:57:44Z</time>
      </trkpt>
      <trkpt lat="44.42728" lon="1.33407">
        <ele>268</ele>
        <time>2019-04-14T10:57:45Z</time>
      </trkpt>
      <trkpt lat="44.42727" lon="1.33406">
        <ele>268</ele>
        <time>2019-04-14T10:57:46Z</time>
      </trkpt>
      <trkpt lat="44.42726" lon="1.33405">
        <ele>268</ele>
        <time>2019-04-14T10:57:47Z</time>
      </trkpt>
      <trkpt lat="44.42725" lon="1.33404">
        <ele>268</ele>
        <time>2019-04-14T10:57:48Z</time>
      </trkpt>
      <trkpt lat="44.42722" lon="1.33403">
        <ele>267</ele>
        <time>2019-04-14T10:57:49Z</time>
      </trkpt>
      <trkpt lat="44.4272" lon="1.33402">
        <ele>267</ele>
        <time>2019-04-14T10:57:50Z</time>
      </trkpt>
      <trkpt lat="44.42716" lon="1.33402">
        <ele>267</ele>
        <time>2019-04-14T10:57:51Z</time>
      </trkpt>
      <trkpt lat="44.42713" lon="1.334">
        <ele>267</ele>
        <time>2019-04-14T10:57:52Z</time>
      </trkpt>
      <trkpt lat="44.42709" lon="1.33401">
        <ele>266</ele>
        <time>2019-04-14T10:57:53Z</time>
      </trkpt>
      <trkpt lat="44.42706" lon="1.33401">
        <ele>266</ele>
        <time>2019-04-14T10:57:54Z</time>
      </trkpt>
      <trkpt lat="44.42705" lon="1.33399">
        <ele>265</ele>
        <time>2019-04-14T10:57:55Z</time>
      </trkpt>
      <trkpt lat="44.42703" lon="1.33397">
        <ele>265</ele>
        <time>2019-04-14T10:57:56Z</time>
      </trkpt>
      <trkpt lat="44.42701" lon="1.33398">
        <ele>265</ele>
        <time>2019-04-14T10:57:57Z</time>
      </trkpt>
      <trkpt lat="44.42699" lon="1.33399">
        <ele>265</ele>
        <time>2019-04-14T10:57:58Z</time>
      </trkpt>
      <trkpt lat="44.42697" lon="1.33402">
        <ele>264</ele>
        <time>2019-04-14T10:57:59Z</time>
      </trkpt>
      <trkpt lat="44.42693" lon="1.33404">
        <ele>264</ele>
        <time>2019-04-14T10:58:00Z</time>
      </trkpt>
      <trkpt lat="44.42689" lon="1.33407">
        <ele>263</ele>
        <time>2019-04-14T10:58:01Z</time>
      </trkpt>
      <trkpt lat="44.42687" lon="1.33408">
        <ele>263</ele>
        <time>2019-04-14T10:58:02Z</time>
      </trkpt>
      <trkpt lat="44.42684" lon="1.33409">
        <ele>262</ele>
        <time>2019-04-14T10:58:03Z</time>
      </trkpt>
      <trkpt lat="44.4268" lon="1.3341">
        <ele>261</ele>
        <time>2019-04-14T10:58:04Z</time>
      </trkpt>
      <trkpt lat="44.42678" lon="1.33413">
        <ele>261</ele>
        <time>2019-04-14T10:58:05Z</time>
      </trkpt>
      <trkpt lat="44.42675" lon="1.33417">
        <ele>260</ele>
        <time>2019-04-14T10:58:06Z</time>
      </trkpt>
      <trkpt lat="44.42674" lon="1.33421">
        <ele>260</ele>
        <time>2019-04-14T10:58:07Z</time>
      </trkpt>
      <trkpt lat="44.42669" lon="1.33423">
        <ele>259</ele>
        <time>2019-04-14T10:58:08Z</time>
      </trkpt>
      <trkpt lat="44.42665" lon="1.33423">
        <ele>258</ele>
        <time>2019-04-14T10:58:09Z</time>
      </trkpt>
      <trkpt lat="44.42661" lon="1.33426">
        <ele>257</ele>
        <time>2019-04-14T10:58:10Z</time>
      </trkpt>
      <trkpt lat="44.42658" lon="1.33428">
        <ele>255</ele>
        <time>2019-04-14T10:58:11Z</time>
      </trkpt>
      <trkpt lat="44.42654" lon="1.33428">
        <ele>254</ele>
        <time>2019-04-14T10:58:12Z</time>
      </trkpt>
      <trkpt lat="44.42649" lon="1.33429">
        <ele>253</ele>
        <time>2019-04-14T10:58:13Z</time>
      </trkpt>
      <trkpt lat="44.42644" lon="1.33429">
        <ele>252</ele>
        <time>2019-04-14T10:58:14Z</time>
      </trkpt>
      <trkpt lat="44.42641" lon="1.33428">
        <ele>252</ele>
        <time>2019-04-14T10:58:15Z</time>
      </trkpt>
      <trkpt lat="44.42639" lon="1.33426">
        <ele>252</ele>
        <time>2019-04-14T10:58:16Z</time>
      </trkpt>
      <trkpt lat="44.42636" lon="1.33427">
        <ele>252</ele>
        <time>2019-04-14T10:58:17Z</time>
      </trkpt>
      <trkpt lat="44.42633" lon="1.33429">
        <ele>252</ele>
        <time>2019-04-14T10:58:18Z</time>
      </trkpt>
      <trkpt lat="44.42631" lon="1.33432">
        <ele>252</ele>
        <time>2019-04-14T10:58:19Z</time>
      </trkpt>
      <trkpt lat="44.42629" lon="1.33434">
        <ele>251</ele>
        <time>2019-04-14T10:58:20Z</time>
      </trkpt>
      <trkpt lat="44.42627" lon="1.33436">
        <ele>251</ele>
        <time>2019-04-14T10:58:21Z</time>
      </trkpt>
      <trkpt lat="44.42626" lon="1.33437">
        <ele>250</ele>
        <time>2019-04-14T10:58:22Z</time>
      </trkpt>
      <trkpt lat="44.42624" lon="1.33438">
        <ele>251</ele>
        <time>2019-04-14T10:58:23Z</time>
      </trkpt>
      <trkpt lat="44.42624" lon="1.3344">
        <ele>251</ele>
        <time>2019-04-14T10:58:24Z</time>
      </trkpt>
      <trkpt lat="44.42622" lon="1.33443">
        <ele>251</ele>
        <time>2019-04-14T10:58:25Z</time>
      </trkpt>
      <trkpt lat="44.4262" lon="1.33445">
        <ele>252</ele>
        <time>2019-04-14T10:58:26Z</time>
      </trkpt>
      <trkpt lat="44.42617" lon="1.33447">
        <ele>252</ele>
        <time>2019-04-14T10:58:27Z</time>
      </trkpt>
      <trkpt lat="44.42614" lon="1.33448">
        <ele>252</ele>
        <time>2019-04-14T10:58:28Z</time>
      </trkpt>
      <trkpt lat="44.42612" lon="1.33449">
        <ele>252</ele>
        <time>2019-04-14T10:58:29Z</time>
      </trkpt>
      <trkpt lat="44.4261" lon="1.33451">
        <ele>253</ele>
        <time>2019-04-14T10:58:30Z</time>
      </trkpt>
      <trkpt lat="44.42608" lon="1.33452">
        <ele>253</ele>
        <time>2019-04-14T10:58:31Z</time>
      </trkpt>
      <trkpt lat="44.42606" lon="1.33453">
        <ele>253</ele>
        <time>2019-04-14T10:58:32Z</time>
      </trkpt>
      <trkpt lat="44.42602" lon="1.33454">
        <ele>254</ele>
        <time>2019-04-14T10:58:33Z</time>
      </trkpt>
      <trkpt lat="44.42599" lon="1.33454">
        <ele>254</ele>
        <time>2019-04-14T10:58:34Z</time>
      </trkpt>
      <trkpt lat="44.42597" lon="1.33454">
        <ele>254</ele>
        <time>2019-04-14T10:58:35Z</time>
      </trkpt>
      <trkpt lat="44.42596" lon="1.33454">
        <ele>255</ele>
        <time>2019-04-14T10:58:36Z</time>
      </trkpt>
      <trkpt lat="44.42594" lon="1.33453">
        <ele>255</ele>
        <time>2019-04-14T10:58:37Z</time>
      </trkpt>
      <trkpt lat="44.42592" lon="1.33452">
        <ele>256</ele>
        <time>2019-04-14T10:58:38Z</time>
      </trkpt>
      <trkpt lat="44.4259" lon="1.33453">
        <ele>256</ele>
        <time>2019-04-14T10:58:39Z</time>
      </trkpt>
      <trkpt lat="44.42588" lon="1.33454">
        <ele>256</ele>
        <time>2019-04-14T10:58:40Z</time>
      </trkpt>
      <trkpt lat="44.42586" lon="1.33455">
        <ele>257</ele>
        <time>2019-04-14T10:58:41Z</time>
      </trkpt>
      <trkpt lat="44.42584" lon="1.33456">
        <ele>257</ele>
        <time>2019-04-14T10:58:42Z</time>
      </trkpt>
      <trkpt lat="44.42581" lon="1.33457">
        <ele>257</ele>
        <time>2019-04-14T10:58:43Z</time>
      </trkpt>
      <trkpt lat="44.42579" lon="1.33459">
        <ele>257</ele>
        <time>2019-04-14T10:58:44Z</time>
      </trkpt>
      <trkpt lat="44.42578" lon="1.33461">
        <ele>257</ele>
        <time>2019-04-14T10:58:45Z</time>
      </trkpt>
      <trkpt lat="44.42577" lon="1.33463">
        <ele>257</ele>
        <time>2019-04-14T10:58:46Z</time>
      </trkpt>
      <trkpt lat="44.42575" lon="1.33465">
        <ele>258</ele>
        <time>2019-04-14T10:58:47Z</time>
      </trkpt>
      <trkpt lat="44.42573" lon="1.33466">
        <ele>258</ele>
        <time>2019-04-14T10:58:48Z</time>
      </trkpt>
      <trkpt lat="44.42571" lon="1.33468">
        <ele>258</ele>
        <time>2019-04-14T10:58:49Z</time>
      </trkpt>
      <trkpt lat="44.4257" lon="1.3347">
        <ele>258</ele>
        <time>2019-04-14T10:58:50Z</time>
      </trkpt>
      <trkpt lat="44.42568" lon="1.33473">
        <ele>258</ele>
        <time>2019-04-14T10:58:51Z</time>
      </trkpt>
      <trkpt lat="44.42566" lon="1.33476">
        <ele>258</ele>
        <time>2019-04-14T10:58:52Z</time>
      </trkpt>
      <trkpt lat="44.42564" lon="1.33479">
        <ele>258</ele>
        <time>2019-04-14T10:58:53Z</time>
      </trkpt>
      <trkpt lat="44.42563" lon="1.33482">
        <ele>258</ele>
        <time>2019-04-14T10:58:54Z</time>
      </trkpt>
      <trkpt lat="44.42561" lon="1.33484">
        <ele>258</ele>
        <time>2019-04-14T10:58:55Z</time>
      </trkpt>
      <trkpt lat="44.42559" lon="1.33485">
        <ele>258</ele>
        <time>2019-04-14T10:58:56Z</time>
      </trkpt>
      <trkpt lat="44.42557" lon="1.33484">
        <ele>259</ele>
        <time>2019-04-14T10:58:57Z</time>
      </trkpt>
      <trkpt lat="44.42556" lon="1.33482">
        <ele>259</ele>
        <time>2019-04-14T10:58:58Z</time>
      </trkpt>
      <trkpt lat="44.42555" lon="1.33481">
        <ele>260</ele>
        <time>2019-04-14T10:58:59Z</time>
      </trkpt>
      <trkpt lat="44.42553" lon="1.3348">
        <ele>260</ele>
        <time>2019-04-14T10:59:00Z</time>
      </trkpt>
      <trkpt lat="44.42551" lon="1.33479">
        <ele>261</ele>
        <time>2019-04-14T10:59:01Z</time>
      </trkpt>
      <trkpt lat="44.4255" lon="1.3348">
        <ele>261</ele>
        <time>2019-04-14T10:59:02Z</time>
      </trkpt>
      <trkpt lat="44.42549" lon="1.33481">
        <ele>261</ele>
        <time>2019-04-14T10:59:03Z</time>
      </trkpt>
      <trkpt lat="44.42548" lon="1.33481">
        <ele>262</ele>
        <time>2019-04-14T10:59:04Z</time>
      </trkpt>
      <trkpt lat="44.42546" lon="1.33481">
        <ele>262</ele>
        <time>2019-04-14T10:59:05Z</time>
      </trkpt>
      <trkpt lat="44.42544" lon="1.3348">
        <ele>262</ele>
        <time>2019-04-14T10:59:06Z</time>
      </trkpt>
      <trkpt lat="44.42542" lon="1.33479">
        <ele>262</ele>
        <time>2019-04-14T10:59:07Z</time>
      </trkpt>
      <trkpt lat="44.42541" lon="1.33478">
        <ele>262</ele>
        <time>2019-04-14T10:59:08Z</time>
      </trkpt>
      <trkpt lat="44.42539" lon="1.33477">
        <ele>263</ele>
        <time>2019-04-14T10:59:09Z</time>
      </trkpt>
      <trkpt lat="44.42537" lon="1.33476">
        <ele>263</ele>
        <time>2019-04-14T10:59:10Z</time>
      </trkpt>
      <trkpt lat="44.42535" lon="1.33474">
        <ele>263</ele>
        <time>2019-04-14T10:59:11Z</time>
      </trkpt>
      <trkpt lat="44.42535" lon="1.33472">
        <ele>263</ele>
        <time>2019-04-14T10:59:12Z</time>
      </trkpt>
      <trkpt lat="44.42535" lon="1.3347">
        <ele>264</ele>
        <time>2019-04-14T10:59:13Z</time>
      </trkpt>
      <trkpt lat="44.42535" lon="1.33468">
        <ele>264</ele>
        <time>2019-04-14T10:59:14Z</time>
      </trkpt>
      <trkpt lat="44.42536" lon="1.33466">
        <ele>264</ele>
        <time>2019-04-14T10:59:15Z</time>
      </trkpt>
      <trkpt lat="44.42536" lon="1.33464">
        <ele>264</ele>
        <time>2019-04-14T10:59:16Z</time>
      </trkpt>
      <trkpt lat="44.42537" lon="1.33462">
        <ele>264</ele>
        <time>2019-04-14T10:59:17Z</time>
      </trkpt>
      <trkpt lat="44.42536" lon="1.33461">
        <ele>264</ele>
        <time>2019-04-14T10:59:18Z</time>
      </trkpt>
      <trkpt lat="44.42534" lon="1.33459">
        <ele>264</ele>
        <time>2019-04-14T10:59:19Z</time>
      </trkpt>
      <trkpt lat="44.42532" lon="1.33458">
        <ele>264</ele>
        <time>2019-04-14T10:59:20Z</time>
      </trkpt>
      <trkpt lat="44.42531" lon="1.33457">
        <ele>264</ele>
        <time>2019-04-14T10:59:21Z</time>
      </trkpt>
      <trkpt lat="44.4253" lon="1.33457">
        <ele>265</ele>
        <time>2019-04-14T10:59:22Z</time>
      </trkpt>
      <trkpt lat="44.42529" lon="1.33456">
        <ele>265</ele>
        <time>2019-04-14T10:59:23Z</time>
      </trkpt>
      <trkpt lat="44.42528" lon="1.33455">
        <ele>265</ele>
        <time>2019-04-14T10:59:24Z</time>
      </trkpt>
      <trkpt lat="44.42526" lon="1.33454">
        <ele>265</ele>
        <time>2019-04-14T10:59:25Z</time>
      </trkpt>
      <trkpt lat="44.42524" lon="1.33453">
        <ele>265</ele>
        <time>2019-04-14T10:59:26Z</time>
      </trkpt>
      <trkpt lat="44.42522" lon="1.33451">
        <ele>265</ele>
        <time>2019-04-14T10:59:27Z</time>
      </trkpt>
      <trkpt lat="44.4252" lon="1.3345">
        <ele>265</ele>
        <time>2019-04-14T10:59:28Z</time>
      </trkpt>
      <trkpt lat="44.42518" lon="1.33448">
        <ele>265</ele>
        <time>2019-04-14T10:59:29Z</time>
      </trkpt>
      <trkpt lat="44.42516" lon="1.33447">
        <ele>266</ele>
        <time>2019-04-14T10:59:30Z</time>
      </trkpt>
      <trkpt lat="44.42514" lon="1.33445">
        <ele>266</ele>
        <time>2019-04-14T10:59:31Z</time>
      </trkpt>
      <trkpt lat="44.42512" lon="1.33444">
        <ele>266</ele>
        <time>2019-04-14T10:59:32Z</time>
      </trkpt>
      <trkpt lat="44.4251" lon="1.33442">
        <ele>266</ele>
        <time>2019-04-14T10:59:33Z</time>
      </trkpt>
      <trkpt lat="44.42508" lon="1.3344">
        <ele>266</ele>
        <time>2019-04-14T10:59:34Z</time>
      </trkpt>
      <trkpt lat="44.42506" lon="1.33438">
        <ele>266</ele>
        <time>2019-04-14T10:59:35Z</time>
      </trkpt>
      <trkpt lat="44.42504" lon="1.33436">
        <ele>266</ele>
        <time>2019-04-14T10:59:36Z</time>
      </trkpt>
      <trkpt lat="44.42502" lon="1.33434">
        <ele>266</ele>
        <time>2019-04-14T10:59:37Z</time>
      </trkpt>
      <trkpt lat="44.425" lon="1.33433">
        <ele>266</ele>
        <time>2019-04-14T10:59:38Z</time>
      </trkpt>
      <trkpt lat="44.42498" lon="1.33431">
        <ele>266</ele>
        <time>2019-04-14T10:59:39Z</time>
      </trkpt>
      <trkpt lat="44.42497" lon="1.33429">
        <ele>266</ele>
        <time>2019-04-14T10:59:40Z</time>
      </trkpt>
      <trkpt lat="44.42495" lon="1.33428">
        <ele>266</ele>
        <time>2019-04-14T10:59:41Z</time>
      </trkpt>
      <trkpt lat="44.42492" lon="1.33426">
        <ele>266</ele>
        <time>2019-04-14T10:59:42Z</time>
      </trkpt>
      <trkpt lat="44.4249" lon="1.33424">
        <ele>266</ele>
        <time>2019-04-14T10:59:43Z</time>
      </trkpt>
      <trkpt lat="44.42488" lon="1.33422">
        <ele>266</ele>
        <time>2019-04-14T10:59:44Z</time>
      </trkpt>
      <trkpt lat="44.42486" lon="1.33421">
        <ele>266</ele>
        <time>2019-04-14T10:59:45Z</time>
      </trkpt>
      <trkpt lat="44.42483" lon="1.33419">
        <ele>266</ele>
        <time>2019-04-14T10:59:46Z</time>
      </trkpt>
      <trkpt lat="44.42481" lon="1.33417">
        <ele>266</ele>
        <time>2019-04-14T10:59:47Z</time>
      </trkpt>
      <trkpt lat="44.42479" lon="1.33416">
        <ele>267</ele>
        <time>2019-04-14T10:59:48Z</time>
      </trkpt>
      <trkpt lat="44.42477" lon="1.33414">
        <ele>267</ele>
        <time>2019-04-14T10:59:49Z</time>
      </trkpt>
      <trkpt lat="44.42475" lon="1.33413">
        <ele>267</ele>
        <time>2019-04-14T10:59:50Z</time>
      </trkpt>
      <trkpt lat="44.42473" lon="1.33411">
        <ele>267</ele>
        <time>2019-04-14T10:59:51Z</time>
      </trkpt>
      <trkpt lat="44.4247" lon="1.33409">
        <ele>267</ele>
        <time>2019-04-14T10:59:52Z</time>
      </trkpt>
      <trkpt lat="44.42468" lon="1.33408">
        <ele>267</ele>
        <time>2019-04-14T10:59:53Z</time>
      </trkpt>
      <trkpt lat="44.42466" lon="1.33406">
        <ele>267</ele>
        <time>2019-04-14T10:59:54Z</time>
      </trkpt>
      <trkpt lat="44.42464" lon="1.33405">
        <ele>268</ele>
        <time>2019-04-14T10:59:55Z</time>
      </trkpt>
      <trkpt lat="44.42462" lon="1.33403">
        <ele>268</ele>
        <time>2019-04-14T10:59:56Z</time>
      </trkpt>
      <trkpt lat="44.4246" lon="1.33401">
        <ele>268</ele>
        <time>2019-04-14T10:59:57Z</time>
      </trkpt>
      <trkpt lat="44.42458" lon="1.334">
        <ele>268</ele>
        <time>2019-04-14T10:59:58Z</time>
      </trkpt>
      <trkpt lat="44.42457" lon="1.33399">
        <ele>268</ele>
        <time>2019-04-14T10:59:59Z</time>
      </trkpt>
      <trkpt lat="44.42454" lon="1.33397">
        <ele>269</ele>
        <time>2019-04-14T11:00:00Z</time>
      </trkpt>
      <trkpt lat="44.42452" lon="1.33395">
        <ele>269</ele>
        <time>2019-04-14T11:00:01Z</time>
      </trkpt>
      <trkpt lat="44.4245" lon="1.33394">
        <ele>269</ele>
        <time>2019-04-14T11:00:02Z</time>
      </trkpt>
      <trkpt lat="44.42448" lon="1.33393">
        <ele>269</ele>
        <time>2019-04-14T11:00:03Z</time>
      </trkpt>
      <trkpt lat="44.42446" lon="1.33391">
        <ele>269</ele>
        <time>2019-04-14T11:00:04Z</time>
      </trkpt>
      <trkpt lat="44.42444" lon="1.3339">
        <ele>270</ele>
        <time>2019-04-14T11:00:05Z</time>
      </trkpt>
      <trkpt lat="44.42442" lon="1.33389">
        <ele>270</ele>
        <time>2019-04-14T11:00:06Z</time>
      </trkpt>
      <trkpt lat="44.4244" lon="1.33387">
        <ele>270</ele>
        <time>2019-04-14T11:00:07Z</time>
      </trkpt>
      <trkpt lat="44.42438" lon="1.33386">
        <ele>271</ele>
        <time>2019-04-14T11:00:08Z</time>
      </trkpt>
      <trkpt lat="44.42437" lon="1.33385">
        <ele>271</ele>
        <time>2019-04-14T11:00:09Z</time>
      </trkpt>
      <trkpt lat="44.42435" lon="1.33384">
        <ele>271</ele>
        <time>2019-04-14T11:00:10Z</time>
      </trkpt>
      <trkpt lat="44.42433" lon="1.33383">
        <ele>271</ele>
        <time>2019-04-14T11:00:11Z</time>
      </trkpt>
      <trkpt lat="44.42432" lon="1.33382">
        <ele>271</ele>
        <time>2019-04-14T11:00:12Z</time>
      </trkpt>
      <trkpt lat="44.4243" lon="1.3338">
        <ele>272</ele>
        <time>2019-04-14T11:00:13Z</time>
      </trkpt>
      <trkpt lat="44.42428" lon="1.33378">
        <ele>272</ele>
        <time>2019-04-14T11:00:14Z</time>
      </trkpt>
      <trkpt lat="44.42426" lon="1.33377">
        <ele>272</ele>
        <time>2019-04-14T11:00:15Z</time>
      </trkpt>
      <trkpt lat="44.42424" lon="1.33375">
        <ele>272</ele>
        <time>2019-04-14T11:00:16Z</time>
      </trkpt>
      <trkpt lat="44.42422" lon="1.33374">
        <ele>272</ele>
        <time>2019-04-14T11:00:17Z</time>
      </trkpt>
      <trkpt lat="44.4242" lon="1.33372">
        <ele>272</ele>
        <time>2019-04-14T11:00:18Z</time>
      </trkpt>
      <trkpt lat="44.42418" lon="1.33371">
        <ele>272</ele>
        <time>2019-04-14T11:00:19Z</time>
      </trkpt>
      <trkpt lat="44.42417" lon="1.3337">
        <ele>273</ele>
        <time>2019-04-14T11:00:20Z</time>
      </trkpt>
      <trkpt lat="44.42416" lon="1.33368">
        <ele>273</ele>
        <time>2019-04-14T11:00:21Z</time>
      </trkpt>
      <trkpt lat="44.42415" lon="1.33365">
        <ele>273</ele>
        <time>2019-04-14T11:00:22Z</time>
      </trkpt>
      <trkpt lat="44.42415" lon="1.33362">
        <ele>273</ele>
        <time>2019-04-14T11:00:23Z</time>
      </trkpt>
      <trkpt lat="44.42414" lon="1.3336">
        <ele>273</ele>
        <time>2019-04-14T11:00:24Z</time>
      </trkpt>
      <trkpt lat="44.42413" lon="1.33357">
        <ele>273</ele>
        <time>2019-04-14T11:00:25Z</time>
      </trkpt>
      <trkpt lat="44.42413" lon="1.33354">
        <ele>273</ele>
        <time>2019-04-14T11:00:26Z</time>
      </trkpt>
      <trkpt lat="44.42413" lon="1.33351">
        <ele>274</ele>
        <time>2019-04-14T11:00:27Z</time>
      </trkpt>
      <trkpt lat="44.42413" lon="1.33348">
        <ele>274</ele>
        <time>2019-04-14T11:00:28Z</time>
      </trkpt>
      <trkpt lat="44.42412" lon="1.33345">
        <ele>274</ele>
        <time>2019-04-14T11:00:29Z</time>
      </trkpt>
      <trkpt lat="44.42411" lon="1.33342">
        <ele>274</ele>
        <time>2019-04-14T11:00:30Z</time>
      </trkpt>
      <trkpt lat="44.4241" lon="1.3334">
        <ele>274</ele>
        <time>2019-04-14T11:00:31Z</time>
      </trkpt>
      <trkpt lat="44.42409" lon="1.33337">
        <ele>275</ele>
        <time>2019-04-14T11:00:32Z</time>
      </trkpt>
      <trkpt lat="44.42409" lon="1.33334">
        <ele>275</ele>
        <time>2019-04-14T11:00:33Z</time>
      </trkpt>
      <trkpt lat="44.42408" lon="1.33331">
        <ele>275</ele>
        <time>2019-04-14T11:00:34Z</time>
      </trkpt>
      <trkpt lat="44.42408" lon="1.33327">
        <ele>275</ele>
        <time>2019-04-14T11:00:35Z</time>
      </trkpt>
      <trkpt lat="44.42407" lon="1.33324">
        <ele>275</ele>
        <time>2019-04-14T11:00:36Z</time>
      </trkpt>
      <trkpt lat="44.42407" lon="1.33322">
        <ele>275</ele>
        <time>2019-04-14T11:00:37Z</time>
      </trkpt>
      <trkpt lat="44.42407" lon="1.33319">
        <ele>276</ele>
        <time>2019-04-14T11:00:38Z</time>
      </trkpt>
      <trkpt lat="44.42406" lon="1.33315">
        <ele>276</ele>
        <time>2019-04-14T11:00:39Z</time>
      </trkpt>
      <trkpt lat="44.42406" lon="1.33312">
        <ele>276</ele>
        <time>2019-04-14T11:00:40Z</time>
      </trkpt>
      <trkpt lat="44.42405" lon="1.33309">
        <ele>276</ele>
        <time>2019-04-14T11:00:41Z</time>
      </trkpt>
      <trkpt lat="44.42405" lon="1.33306">
        <ele>276</ele>
        <time>2019-04-14T11:00:42Z</time>
      </trkpt>
      <trkpt lat="44.42404" lon="1.33303">
        <ele>276</ele>
        <time>2019-04-14T11:00:43Z</time>
      </trkpt>
      <trkpt lat="44.42404" lon="1.333">
        <ele>277</ele>
        <time>2019-04-14T11:00:44Z</time>
      </trkpt>
      <trkpt lat="44.42403" lon="1.33298">
        <ele>277</ele>
        <time>2019-04-14T11:00:45Z</time>
      </trkpt>
      <trkpt lat="44.42402" lon="1.33295">
        <ele>277</ele>
        <time>2019-04-14T11:00:46Z</time>
      </trkpt>
      <trkpt lat="44.42401" lon="1.33292">
        <ele>277</ele>
        <time>2019-04-14T11:00:47Z</time>
      </trkpt>
      <trkpt lat="44.424" lon="1.33289">
        <ele>277</ele>
        <time>2019-04-14T11:00:48Z</time>
      </trkpt>
      <trkpt lat="44.42399" lon="1.33286">
        <ele>278</ele>
        <time>2019-04-14T11:00:49Z</time>
      </trkpt>
      <trkpt lat="44.42398" lon="1.33283">
        <ele>278</ele>
        <time>2019-04-14T11:00:50Z</time>
      </trkpt>
      <trkpt lat="44.42396" lon="1.3328">
        <ele>278</ele>
        <time>2019-04-14T11:00:51Z</time>
      </trkpt>
      <trkpt lat="44.42395" lon="1.33278">
        <ele>278</ele>
        <time>2019-04-14T11:00:52Z</time>
      </trkpt>
      <trkpt lat="44.42393" lon="1.33276">
        <ele>278</ele>
        <time>2019-04-14T11:00:53Z</time>
      </trkpt>
      <trkpt lat="44.42391" lon="1.33273">
        <ele>278</ele>
        <time>2019-04-14T11:00:54Z</time>
      </trkpt>
      <trkpt lat="44.42389" lon="1.3327">
        <ele>278</ele>
        <time>2019-04-14T11:00:55Z</time>
      </trkpt>
      <trkpt lat="44.42388" lon="1.33267">
        <ele>278</ele>
        <time>2019-04-14T11:00:56Z</time>
      </trkpt>
      <trkpt lat="44.42387" lon="1.33264">
        <ele>278</ele>
        <time>2019-04-14T11:00:57Z</time>
      </trkpt>
      <trkpt lat="44.42387" lon="1.33261">
        <ele>278</ele>
        <time>2019-04-14T11:00:58Z</time>
      </trkpt>
      <trkpt lat="44.42387" lon="1.33258">
        <ele>279</ele>
        <time>2019-04-14T11:00:59Z</time>
      </trkpt>
      <trkpt lat="44.42388" lon="1.33255">
        <ele>279</ele>
        <time>2019-04-14T11:01:00Z</time>
      </trkpt>
      <trkpt lat="44.42389" lon="1.33253">
        <ele>279</ele>
        <time>2019-04-14T11:01:01Z</time>
      </trkpt>
      <trkpt lat="44.4239" lon="1.3325">
        <ele>279</ele>
        <time>2019-04-14T11:01:02Z</time>
      </trkpt>
      <trkpt lat="44.4239" lon="1.33248">
        <ele>280</ele>
        <time>2019-04-14T11:01:03Z</time>
      </trkpt>
      <trkpt lat="44.42391" lon="1.33245">
        <ele>280</ele>
        <time>2019-04-14T11:01:04Z</time>
      </trkpt>
      <trkpt lat="44.42393" lon="1.33244">
        <ele>280</ele>
        <time>2019-04-14T11:01:05Z</time>
      </trkpt>
      <trkpt lat="44.42394" lon="1.33242">
        <ele>280</ele>
        <time>2019-04-14T11:01:06Z</time>
      </trkpt>
      <trkpt lat="44.42395" lon="1.3324">
        <ele>280</ele>
        <time>2019-04-14T11:01:07Z</time>
      </trkpt>
      <trkpt lat="44.42395" lon="1.33237">
        <ele>280</ele>
        <time>2019-04-14T11:01:08Z</time>
      </trkpt>
      <trkpt lat="44.42396" lon="1.33234">
        <ele>280</ele>
        <time>2019-04-14T11:01:09Z</time>
      </trkpt>
      <trkpt lat="44.42397" lon="1.33231">
        <ele>281</ele>
        <time>2019-04-14T11:01:10Z</time>
      </trkpt>
      <trkpt lat="44.42399" lon="1.33229">
        <ele>281</ele>
        <time>2019-04-14T11:01:11Z</time>
      </trkpt>
      <trkpt lat="44.424" lon="1.33227">
        <ele>281</ele>
        <time>2019-04-14T11:01:12Z</time>
      </trkpt>
      <trkpt lat="44.42401" lon="1.33224">
        <ele>281</ele>
        <time>2019-04-14T11:01:13Z</time>
      </trkpt>
      <trkpt lat="44.42402" lon="1.33222">
        <ele>281</ele>
        <time>2019-04-14T11:01:14Z</time>
      </trkpt>
      <trkpt lat="44.42404" lon="1.33219">
        <ele>281</ele>
        <time>2019-04-14T11:01:15Z</time>
      </trkpt>
      <trkpt lat="44.42404" lon="1.33216">
        <ele>282</ele>
        <time>2019-04-14T11:01:16Z</time>
      </trkpt>
      <trkpt lat="44.42405" lon="1.33214">
        <ele>282</ele>
        <time>2019-04-14T11:01:17Z</time>
      </trkpt>
      <trkpt lat="44.42406" lon="1.33211">
        <ele>282</ele>
        <time>2019-04-14T11:01:18Z</time>
      </trkpt>
      <trkpt lat="44.42407" lon="1.33208">
        <ele>282</ele>
        <time>2019-04-14T11:01:19Z</time>
      </trkpt>
      <trkpt lat="44.42408" lon="1.33205">
        <ele>282</ele>
        <time>2019-04-14T11:01:20Z</time>
      </trkpt>
      <trkpt lat="44.42408" lon="1.33202">
        <ele>282</ele>
        <time>2019-04-14T11:01:21Z</time>
      </trkpt>
      <trkpt lat="44.42409" lon="1.33199">
        <ele>282</ele>
        <time>2019-04-14T11:01:22Z</time>
      </trkpt>
      <trkpt lat="44.4241" lon="1.33196">
        <ele>283</ele>
        <time>2019-04-14T11:01:23Z</time>
      </trkpt>
      <trkpt lat="44.42411" lon="1.33193">
        <ele>283</ele>
        <time>2019-04-14T11:01:24Z</time>
      </trkpt>
      <trkpt lat="44.42412" lon="1.3319">
        <ele>283</ele>
        <time>2019-04-14T11:01:25Z</time>
      </trkpt>
      <trkpt lat="44.42413" lon="1.33186">
        <ele>283</ele>
        <time>2019-04-14T11:01:26Z</time>
      </trkpt>
      <trkpt lat="44.42414" lon="1.33183">
        <ele>283</ele>
        <time>2019-04-14T11:01:27Z</time>
      </trkpt>
      <trkpt lat="44.42415" lon="1.3318">
        <ele>283</ele>
        <time>2019-04-14T11:01:28Z</time>
      </trkpt>
      <trkpt lat="44.42416" lon="1.33177">
        <ele>283</ele>
        <time>2019-04-14T11:01:29Z</time>
      </trkpt>
      <trkpt lat="44.42417" lon="1.33173">
        <ele>283</ele>
        <time>2019-04-14T11:01:30Z</time>
      </trkpt>
      <trkpt lat="44.42418" lon="1.33171">
        <ele>283</ele>
        <time>2019-04-14T11:01:31Z</time>
      </trkpt>
      <trkpt lat="44.42419" lon="1.33168">
        <ele>283</ele>
        <time>2019-04-14T11:01:32Z</time>
      </trkpt>
      <trkpt lat="44.4242" lon="1.33165">
        <ele>283</ele>
        <time>2019-04-14T11:01:33Z</time>
      </trkpt>
      <trkpt lat="44.42421" lon="1.33162">
        <ele>283</ele>
        <time>2019-04-14T11:01:34Z</time>
      </trkpt>
      <trkpt lat="44.42422" lon="1.33159">
        <ele>283</ele>
        <time>2019-04-14T11:01:35Z</time>
      </trkpt>
      <trkpt lat="44.42423" lon="1.33156">
        <ele>283</ele>
        <time>2019-04-14T11:01:36Z</time>
      </trkpt>
      <trkpt lat="44.42425" lon="1.33152">
        <ele>283</ele>
        <time>2019-04-14T11:01:37Z</time>
      </trkpt>
      <trkpt lat="44.42426" lon="1.33149">
        <ele>283</ele>
        <time>2019-04-14T11:01:38Z</time>
      </trkpt>
      <trkpt lat="44.42427" lon="1.33145">
        <ele>283</ele>
        <time>2019-04-14T11:01:39Z</time>
      </trkpt>
      <trkpt lat="44.42428" lon="1.33141">
        <ele>283</ele>
        <time>2019-04-14T11:01:40Z</time>
      </trkpt>
      <trkpt lat="44.4243" lon="1.33137">
        <ele>283</ele>
        <time>2019-04-14T11:01:41Z</time>
      </trkpt>
      <trkpt lat="44.42431" lon="1.33133">
        <ele>283</ele>
        <time>2019-04-14T11:01:42Z</time>
      </trkpt>
      <trkpt lat="44.42433" lon="1.33129">
        <ele>283</ele>
        <time>2019-04-14T11:01:43Z</time>
      </trkpt>
      <trkpt lat="44.42435" lon="1.33124">
        <ele>283</ele>
        <time>2019-04-14T11:01:44Z</time>
      </trkpt>
      <trkpt lat="44.42436" lon="1.3312">
        <ele>283</ele>
        <time>2019-04-14T11:01:45Z</time>
      </trkpt>
      <trkpt lat="44.42438" lon="1.33116">
        <ele>283</ele>
        <time>2019-04-14T11:01:46Z</time>
      </trkpt>
      <trkpt lat="44.4244" lon="1.33112">
        <ele>282</ele>
        <time>2019-04-14T11:01:47Z</time>
      </trkpt>
      <trkpt lat="44.42442" lon="1.33107">
        <ele>282</ele>
        <time>2019-04-14T11:01:48Z</time>
      </trkpt>
      <trkpt lat="44.42444" lon="1.33103">
        <ele>282</ele>
        <time>2019-04-14T11:01:49Z</time>
      </trkpt>
      <trkpt lat="44.42446" lon="1.33098">
        <ele>282</ele>
        <time>2019-04-14T11:01:50Z</time>
      </trkpt>
      <trkpt lat="44.42447" lon="1.33093">
        <ele>282</ele>
        <time>2019-04-14T11:01:51Z</time>
      </trkpt>
      <trkpt lat="44.42449" lon="1.33089">
        <ele>282</ele>
        <time>2019-04-14T11:01:52Z</time>
      </trkpt>
      <trkpt lat="44.42453" lon="1.33085">
        <ele>282</ele>
        <time>2019-04-14T11:01:53Z</time>
      </trkpt>
      <trkpt lat="44.42455" lon="1.33081">
        <ele>281</ele>
        <time>2019-04-14T11:01:54Z</time>
      </trkpt>
      <trkpt lat="44.42457" lon="1.33075">
        <ele>281</ele>
        <time>2019-04-14T11:01:55Z</time>
      </trkpt>
      <trkpt lat="44.42459" lon="1.33071">
        <ele>281</ele>
        <time>2019-04-14T11:01:56Z</time>
      </trkpt>
      <trkpt lat="44.42461" lon="1.33066">
        <ele>281</ele>
        <time>2019-04-14T11:01:57Z</time>
      </trkpt>
      <trkpt lat="44.42463" lon="1.33061">
        <ele>281</ele>
        <time>2019-04-14T11:01:58Z</time>
      </trkpt>
      <trkpt lat="44.42466" lon="1.33057">
        <ele>281</ele>
        <time>2019-04-14T11:01:59Z</time>
      </trkpt>
      <trkpt lat="44.42467" lon="1.33051">
        <ele>281</ele>
        <time>2019-04-14T11:02:00Z</time>
      </trkpt>
      <trkpt lat="44.42469" lon="1.33045">
        <ele>281</ele>
        <time>2019-04-14T11:02:01Z</time>
      </trkpt>
      <trkpt lat="44.42471" lon="1.33039">
        <ele>281</ele>
        <time>2019-04-14T11:02:02Z</time>
      </trkpt>
      <trkpt lat="44.42474" lon="1.33034">
        <ele>280</ele>
        <time>2019-04-14T11:02:03Z</time>
      </trkpt>
      <trkpt lat="44.42477" lon="1.33029">
        <ele>280</ele>
        <time>2019-04-14T11:02:04Z</time>
      </trkpt>
      <trkpt lat="44.4248" lon="1.33023">
        <ele>280</ele>
        <time>2019-04-14T11:02:05Z</time>
      </trkpt>
      <trkpt lat="44.42483" lon="1.33017">
        <ele>280</ele>
        <time>2019-04-14T11:02:06Z</time>
      </trkpt>
      <trkpt lat="44.42485" lon="1.33011">
        <ele>280</ele>
        <time>2019-04-14T11:02:07Z</time>
      </trkpt>
      <trkpt lat="44.42487" lon="1.33005">
        <ele>280</ele>
        <time>2019-04-14T11:02:08Z</time>
      </trkpt>
      <trkpt lat="44.42489" lon="1.32999">
        <ele>280</ele>
        <time>2019-04-14T11:02:09Z</time>
      </trkpt>
      <trkpt lat="44.4249" lon="1.32994">
        <ele>280</ele>
        <time>2019-04-14T11:02:10Z</time>
      </trkpt>
      <trkpt lat="44.4249" lon="1.32988">
        <ele>280</ele>
        <time>2019-04-14T11:02:11Z</time>
      </trkpt>
      <trkpt lat="44.42489" lon="1.32984">
        <ele>280</ele>
        <time>2019-04-14T11:02:12Z</time>
      </trkpt>
      <trkpt lat="44.42487" lon="1.32979">
        <ele>280</ele>
        <time>2019-04-14T11:02:13Z</time>
      </trkpt>
      <trkpt lat="44.42485" lon="1.32975">
        <ele>280</ele>
        <time>2019-04-14T11:02:14Z</time>
      </trkpt>
      <trkpt lat="44.42483" lon="1.32971">
        <ele>280</ele>
        <time>2019-04-14T11:02:15Z</time>
      </trkpt>
      <trkpt lat="44.42481" lon="1.32967">
        <ele>280</ele>
        <time>2019-04-14T11:02:16Z</time>
      </trkpt>
      <trkpt lat="44.42479" lon="1.32961">
        <ele>280</ele>
        <time>2019-04-14T11:02:17Z</time>
      </trkpt>
      <trkpt lat="44.42476" lon="1.32955">
        <ele>279</ele>
        <time>2019-04-14T11:02:18Z</time>
      </trkpt>
      <trkpt lat="44.42472" lon="1.32949">
        <ele>279</ele>
        <time>2019-04-14T11:02:19Z</time>
      </trkpt>
      <trkpt lat="44.42468" lon="1.32942">
        <ele>278</ele>
        <time>2019-04-14T11:02:20Z</time>
      </trkpt>
      <trkpt lat="44.42465" lon="1.32935">
        <ele>278</ele>
        <time>2019-04-14T11:02:21Z</time>
      </trkpt>
      <trkpt lat="44.42461" lon="1.32928">
        <ele>278</ele>
        <time>2019-04-14T11:02:22Z</time>
      </trkpt>
      <trkpt lat="44.42457" lon="1.32921">
        <ele>277</ele>
        <time>2019-04-14T11:02:23Z</time>
      </trkpt>
      <trkpt lat="44.42454" lon="1.32913">
        <ele>277</ele>
        <time>2019-04-14T11:02:24Z</time>
      </trkpt>
      <trkpt lat="44.4245" lon="1.32905">
        <ele>276</ele>
        <time>2019-04-14T11:02:25Z</time>
      </trkpt>
      <trkpt lat="44.42446" lon="1.32897">
        <ele>276</ele>
        <time>2019-04-14T11:02:26Z</time>
      </trkpt>
      <trkpt lat="44.42442" lon="1.32887">
        <ele>275</ele>
        <time>2019-04-14T11:02:27Z</time>
      </trkpt>
      <trkpt lat="44.42439" lon="1.32878">
        <ele>275</ele>
        <time>2019-04-14T11:02:28Z</time>
      </trkpt>
      <trkpt lat="44.42435" lon="1.32868">
        <ele>274</ele>
        <time>2019-04-14T11:02:29Z</time>
      </trkpt>
      <trkpt lat="44.42432" lon="1.32858">
        <ele>274</ele>
        <time>2019-04-14T11:02:30Z</time>
      </trkpt>
      <trkpt lat="44.42428" lon="1.32849">
        <ele>274</ele>
        <time>2019-04-14T11:02:31Z</time>
      </trkpt>
      <trkpt lat="44.42423" lon="1.32842">
        <ele>274</ele>
        <time>2019-04-14T11:02:32Z</time>
      </trkpt>
      <trkpt lat="44.42418" lon="1.32837">
        <ele>274</ele>
        <time>2019-04-14T11:02:33Z</time>
      </trkpt>
      <trkpt lat="44.42413" lon="1.32833">
        <ele>274</ele>
        <time>2019-04-14T11:02:34Z</time>
      </trkpt>
      <trkpt lat="44.42408" lon="1.3283">
        <ele>275</ele>
        <time>2019-04-14T11:02:35Z</time>
      </trkpt>
      <trkpt lat="44.42402" lon="1.32828">
        <ele>275</ele>
        <time>2019-04-14T11:02:36Z</time>
      </trkpt>
      <trkpt lat="44.42397" lon="1.32826">
        <ele>275</ele>
        <time>2019-04-14T11:02:37Z</time>
      </trkpt>
      <trkpt lat="44.42392" lon="1.32825">
        <ele>275</ele>
        <time>2019-04-14T11:02:38Z</time>
      </trkpt>
      <trkpt lat="44.42387" lon="1.32823">
        <ele>276</ele>
        <time>2019-04-14T11:02:39Z</time>
      </trkpt>
      <trkpt lat="44.42383" lon="1.32822">
        <ele>276</ele>
        <time>2019-04-14T11:02:40Z</time>
      </trkpt>
      <trkpt lat="44.42379" lon="1.3282">
        <ele>276</ele>
        <time>2019-04-14T11:02:41Z</time>
      </trkpt>
      <trkpt lat="44.42375" lon="1.32819">
        <ele>276</ele>
        <time>2019-04-14T11:02:42Z</time>
      </trkpt>
      <trkpt lat="44.42372" lon="1.32818">
        <ele>277</ele>
        <time>2019-04-14T11:02:43Z</time>
      </trkpt>
      <trkpt lat="44.42369" lon="1.32816">
        <ele>277</ele>
        <time>2019-04-14T11:02:44Z</time>
      </trkpt>
      <trkpt lat="44.42366" lon="1.32815">
        <ele>277</ele>
        <time>2019-04-14T11:02:45Z</time>
      </trkpt>
      <trkpt lat="44.42364" lon="1.32814">
        <ele>278</ele>
        <time>2019-04-14T11:02:46Z</time>
      </trkpt>
      <trkpt lat="44.42361" lon="1.32812">
        <ele>278</ele>
        <time>2019-04-14T11:02:47Z</time>
      </trkpt>
      <trkpt lat="44.42358" lon="1.3281">
        <ele>278</ele>
        <time>2019-04-14T11:02:48Z</time>
      </trkpt>
      <trkpt lat="44.42355" lon="1.32809">
        <ele>279</ele>
        <time>2019-04-14T11:02:49Z</time>
      </trkpt>
      <trkpt lat="44.42352" lon="1.32807">
        <ele>279</ele>
        <time>2019-04-14T11:02:50Z</time>
      </trkpt>
      <trkpt lat="44.4235" lon="1.32805">
        <ele>279</ele>
        <time>2019-04-14T11:02:51Z</time>
      </trkpt>
      <trkpt lat="44.42347" lon="1.32803">
        <ele>279</ele>
        <time>2019-04-14T11:02:52Z</time>
      </trkpt>
      <trkpt lat="44.42345" lon="1.328">
        <ele>279</ele>
        <time>2019-04-14T11:02:53Z</time>
      </trkpt>
      <trkpt lat="44.42342" lon="1.32798">
        <ele>280</ele>
        <time>2019-04-14T11:02:54Z</time>
      </trkpt>
      <trkpt lat="44.42339" lon="1.32796">
        <ele>280</ele>
        <time>2019-04-14T11:02:55Z</time>
      </trkpt>
      <trkpt lat="44.42337" lon="1.32794">
        <ele>280</ele>
        <time>2019-04-14T11:02:56Z</time>
      </trkpt>
      <trkpt lat="44.42334" lon="1.32792">
        <ele>280</ele>
        <time>2019-04-14T11:02:57Z</time>
      </trkpt>
      <trkpt lat="44.42332" lon="1.3279">
        <ele>280</ele>
        <time>2019-04-14T11:02:58Z</time>
      </trkpt>
      <trkpt lat="44.42329" lon="1.32787">
        <ele>280</ele>
        <time>2019-04-14T11:02:59Z</time>
      </trkpt>
      <trkpt lat="44.42327" lon="1.32784">
        <ele>280</ele>
        <time>2019-04-14T11:03:00Z</time>
      </trkpt>
      <trkpt lat="44.42324" lon="1.32781">
        <ele>280</ele>
        <time>2019-04-14T11:03:01Z</time>
      </trkpt>
      <trkpt lat="44.42321" lon="1.32778">
        <ele>280</ele>
        <time>2019-04-14T11:03:02Z</time>
      </trkpt>
      <trkpt lat="44.42318" lon="1.32775">
        <ele>280</ele>
        <time>2019-04-14T11:03:03Z</time>
      </trkpt>
      <trkpt lat="44.42314" lon="1.32771">
        <ele>280</ele>
        <time>2019-04-14T11:03:04Z</time>
      </trkpt>
      <trkpt lat="44.42311" lon="1.32768">
        <ele>280</ele>
        <time>2019-04-14T11:03:05Z</time>
      </trkpt>
      <trkpt lat="44.42308" lon="1.32764">
        <ele>280</ele>
        <time>2019-04-14T11:03:06Z</time>
      </trkpt>
      <trkpt lat="44.42304" lon="1.3276">
        <ele>279</ele>
        <time>2019-04-14T11:03:07Z</time>
      </trkpt>
      <trkpt lat="44.423" lon="1.32755">
        <ele>279</ele>
        <time>2019-04-14T11:03:08Z</time>
      </trkpt>
      <trkpt lat="44.42296" lon="1.3275">
        <ele>279</ele>
        <time>2019-04-14T11:03:09Z</time>
      </trkpt>
      <trkpt lat="44.42293" lon="1.32744">
        <ele>279</ele>
        <time>2019-04-14T11:03:10Z</time>
      </trkpt>
      <trkpt lat="44.4229" lon="1.32737">
        <ele>279</ele>
        <time>2019-04-14T11:03:11Z</time>
      </trkpt>
      <trkpt lat="44.42287" lon="1.3273">
        <ele>278</ele>
        <time>2019-04-14T11:03:12Z</time>
      </trkpt>
      <trkpt lat="44.42285" lon="1.32722">
        <ele>278</ele>
        <time>2019-04-14T11:03:13Z</time>
      </trkpt>
      <trkpt lat="44.42283" lon="1.32713">
        <ele>278</ele>
        <time>2019-04-14T11:03:14Z</time>
      </trkpt>
      <trkpt lat="44.42282" lon="1.32704">
        <ele>278</ele>
        <time>2019-04-14T11:03:15Z</time>
      </trkpt>
      <trkpt lat="44.42282" lon="1.32695">
        <ele>277</ele>
        <time>2019-04-14T11:03:16Z</time>
      </trkpt>
      <trkpt lat="44.42281" lon="1.32685">
        <ele>277</ele>
        <time>2019-04-14T11:03:17Z</time>
      </trkpt>
      <trkpt lat="44.42281" lon="1.32676">
        <ele>277</ele>
        <time>2019-04-14T11:03:18Z</time>
      </trkpt>
      <trkpt lat="44.42281" lon="1.32666">
        <ele>276</ele>
        <time>2019-04-14T11:03:19Z</time>
      </trkpt>
      <trkpt lat="44.4228" lon="1.32657">
        <ele>276</ele>
        <time>2019-04-14T11:03:20Z</time>
      </trkpt>
      <trkpt lat="44.4228" lon="1.32647">
        <ele>276</ele>
        <time>2019-04-14T11:03:21Z</time>
      </trkpt>
      <trkpt lat="44.42278" lon="1.32639">
        <ele>276</ele>
        <time>2019-04-14T11:03:22Z</time>
      </trkpt>
      <trkpt lat="44.42275" lon="1.32631">
        <ele>276</ele>
        <time>2019-04-14T11:03:23Z</time>
      </trkpt>
      <trkpt lat="44.42271" lon="1.32625">
        <ele>276</ele>
        <time>2019-04-14T11:03:24Z</time>
      </trkpt>
      <trkpt lat="44.42267" lon="1.32619">
        <ele>275</ele>
        <time>2019-04-14T11:03:25Z</time>
      </trkpt>
      <trkpt lat="44.42263" lon="1.32614">
        <ele>275</ele>
        <time>2019-04-14T11:03:26Z</time>
      </trkpt>
      <trkpt lat="44.42259" lon="1.3261">
        <ele>275</ele>
        <time>2019-04-14T11:03:27Z</time>
      </trkpt>
      <trkpt lat="44.42255" lon="1.32605">
        <ele>275</ele>
        <time>2019-04-14T11:03:28Z</time>
      </trkpt>
      <trkpt lat="44.42251" lon="1.32601">
        <ele>275</ele>
        <time>2019-04-14T11:03:29Z</time>
      </trkpt>
      <trkpt lat="44.42247" lon="1.32596">
        <ele>275</ele>
        <time>2019-04-14T11:03:30Z</time>
      </trkpt>
      <trkpt lat="44.42243" lon="1.32592">
        <ele>275</ele>
        <time>2019-04-14T11:03:31Z</time>
      </trkpt>
      <trkpt lat="44.4224" lon="1.32588">
        <ele>275</ele>
        <time>2019-04-14T11:03:32Z</time>
      </trkpt>
      <trkpt lat="44.42236" lon="1.32583">
        <ele>275</ele>
        <time>2019-04-14T11:03:33Z</time>
      </trkpt>
      <trkpt lat="44.42233" lon="1.3258">
        <ele>276</ele>
        <time>2019-04-14T11:03:34Z</time>
      </trkpt>
      <trkpt lat="44.42229" lon="1.32576">
        <ele>276</ele>
        <time>2019-04-14T11:03:35Z</time>
      </trkpt>
      <trkpt lat="44.42226" lon="1.32572">
        <ele>276</ele>
        <time>2019-04-14T11:03:36Z</time>
      </trkpt>
      <trkpt lat="44.42223" lon="1.32568">
        <ele>276</ele>
        <time>2019-04-14T11:03:37Z</time>
      </trkpt>
      <trkpt lat="44.4222" lon="1.32565">
        <ele>277</ele>
        <time>2019-04-14T11:03:38Z</time>
      </trkpt>
      <trkpt lat="44.42217" lon="1.32561">
        <ele>277</ele>
        <time>2019-04-14T11:03:39Z</time>
      </trkpt>
      <trkpt lat="44.42215" lon="1.32558">
        <ele>277</ele>
        <time>2019-04-14T11:03:40Z</time>
      </trkpt>
      <trkpt lat="44.42212" lon="1.32554">
        <ele>277</ele>
        <time>2019-04-14T11:03:41Z</time>
      </trkpt>
      <trkpt lat="44.4221" lon="1.32551">
        <ele>277</ele>
        <time>2019-04-14T11:03:42Z</time>
      </trkpt>
      <trkpt lat="44.4221" lon="1.32547">
        <ele>278</ele>
        <time>2019-04-14T11:03:43Z</time>
      </trkpt>
      <trkpt lat="44.42209" lon="1.32544">
        <ele>278</ele>
        <time>2019-04-14T11:03:44Z</time>
      </trkpt>
      <trkpt lat="44.42209" lon="1.3254">
        <ele>278</ele>
        <time>2019-04-14T11:03:45Z</time>
      </trkpt>
      <trkpt lat="44.42208" lon="1.32536">
        <ele>278</ele>
        <time>2019-04-14T11:03:46Z</time>
      </trkpt>
      <trkpt lat="44.42206" lon="1.32532">
        <ele>278</ele>
        <time>2019-04-14T11:03:47Z</time>
      </trkpt>
      <trkpt lat="44.42206" lon="1.32528">
        <ele>279</ele>
        <time>2019-04-14T11:03:48Z</time>
      </trkpt>
      <trkpt lat="44.42204" lon="1.32524">
        <ele>279</ele>
        <time>2019-04-14T11:03:49Z</time>
      </trkpt>
      <trkpt lat="44.42203" lon="1.3252">
        <ele>279</ele>
        <time>2019-04-14T11:03:50Z</time>
      </trkpt>
      <trkpt lat="44.42202" lon="1.32516">
        <ele>279</ele>
        <time>2019-04-14T11:03:51Z</time>
      </trkpt>
      <trkpt lat="44.42201" lon="1.32512">
        <ele>279</ele>
        <time>2019-04-14T11:03:52Z</time>
      </trkpt>
      <trkpt lat="44.42199" lon="1.32507">
        <ele>279</ele>
        <time>2019-04-14T11:03:53Z</time>
      </trkpt>
      <trkpt lat="44.42198" lon="1.32503">
        <ele>279</ele>
        <time>2019-04-14T11:03:54Z</time>
      </trkpt>
      <trkpt lat="44.42196" lon="1.325">
        <ele>279</ele>
        <time>2019-04-14T11:03:55Z</time>
      </trkpt>
      <trkpt lat="44.42194" lon="1.32496">
        <ele>278</ele>
        <time>2019-04-14T11:03:56Z</time>
      </trkpt>
      <trkpt lat="44.4219" lon="1.32491">
        <ele>278</ele>
        <time>2019-04-14T11:03:57Z</time>
      </trkpt>
      <trkpt lat="44.42187" lon="1.32485">
        <ele>278</ele>
        <time>2019-04-14T11:03:58Z</time>
      </trkpt>
      <trkpt lat="44.42184" lon="1.3248">
        <ele>277</ele>
        <time>2019-04-14T11:03:59Z</time>
      </trkpt>
      <trkpt lat="44.4218" lon="1.32474">
        <ele>277</ele>
        <time>2019-04-14T11:04:00Z</time>
      </trkpt>
      <trkpt lat="44.42177" lon="1.32469">
        <ele>277</ele>
        <time>2019-04-14T11:04:01Z</time>
      </trkpt>
      <trkpt lat="44.42173" lon="1.32464">
        <ele>276</ele>
        <time>2019-04-14T11:04:02Z</time>
      </trkpt>
      <trkpt lat="44.42169" lon="1.3246">
        <ele>275</ele>
        <time>2019-04-14T11:04:03Z</time>
      </trkpt>
      <trkpt lat="44.42166" lon="1.32455">
        <ele>275</ele>
        <time>2019-04-14T11:04:04Z</time>
      </trkpt>
      <trkpt lat="44.42163" lon="1.3245">
        <ele>274</ele>
        <time>2019-04-14T11:04:05Z</time>
      </trkpt>
      <trkpt lat="44.4216" lon="1.32446">
        <ele>274</ele>
        <time>2019-04-14T11:04:06Z</time>
      </trkpt>
      <trkpt lat="44.42156" lon="1.32441">
        <ele>274</ele>
        <time>2019-04-14T11:04:07Z</time>
      </trkpt>
      <trkpt lat="44.42153" lon="1.32436">
        <ele>273</ele>
        <time>2019-04-14T11:04:08Z</time>
      </trkpt>
      <trkpt lat="44.4215" lon="1.3243">
        <ele>273</ele>
        <time>2019-04-14T11:04:09Z</time>
      </trkpt>
      <trkpt lat="44.42146" lon="1.32425">
        <ele>272</ele>
        <time>2019-04-14T11:04:10Z</time>
      </trkpt>
      <trkpt lat="44.42142" lon="1.3242">
        <ele>272</ele>
        <time>2019-04-14T11:04:11Z</time>
      </trkpt>
      <trkpt lat="44.42139" lon="1.32417">
        <ele>271</ele>
        <time>2019-04-14T11:04:12Z</time>
      </trkpt>
      <trkpt lat="44.42138" lon="1.32415">
        <ele>270</ele>
        <time>2019-04-14T11:04:13Z</time>
      </trkpt>
      <trkpt lat="44.42136" lon="1.32412">
        <ele>270</ele>
        <time>2019-04-14T11:04:14Z</time>
      </trkpt>
      <trkpt lat="44.42136" lon="1.3241">
        <ele>269</ele>
        <time>2019-04-14T11:04:15Z</time>
      </trkpt>
      <trkpt lat="44.42136" lon="1.32407">
        <ele>269</ele>
        <time>2019-04-14T11:04:16Z</time>
      </trkpt>
      <trkpt lat="44.42137" lon="1.32405">
        <ele>269</ele>
        <time>2019-04-14T11:04:17Z</time>
      </trkpt>
      <trkpt lat="44.42139" lon="1.32403">
        <ele>269</ele>
        <time>2019-04-14T11:04:18Z</time>
      </trkpt>
      <trkpt lat="44.4214" lon="1.32401">
        <ele>270</ele>
        <time>2019-04-14T11:04:19Z</time>
      </trkpt>
      <trkpt lat="44.42142" lon="1.32399">
        <ele>270</ele>
        <time>2019-04-14T11:04:20Z</time>
      </trkpt>
      <trkpt lat="44.42143" lon="1.32398">
        <ele>270</ele>
        <time>2019-04-14T11:04:21Z</time>
      </trkpt>
      <trkpt lat="44.42145" lon="1.32396">
        <ele>270</ele>
        <time>2019-04-14T11:04:22Z</time>
      </trkpt>
      <trkpt lat="44.42146" lon="1.32395">
        <ele>270</ele>
        <time>2019-04-14T11:04:23Z</time>
      </trkpt>
      <trkpt lat="44.42148" lon="1.32393">
        <ele>270</ele>
        <time>2019-04-14T11:04:24Z</time>
      </trkpt>
      <trkpt lat="44.4215" lon="1.32391">
        <ele>271</ele>
        <time>2019-04-14T11:04:25Z</time>
      </trkpt>
      <trkpt lat="44.42152" lon="1.3239">
        <ele>271</ele>
        <time>2019-04-14T11:04:26Z</time>
      </trkpt>
      <trkpt lat="44.42153" lon="1.32388">
        <ele>271</ele>
        <time>2019-04-14T11:04:27Z</time>
      </trkpt>
      <trkpt lat="44.42155" lon="1.32387">
        <ele>271</ele>
        <time>2019-04-14T11:04:28Z</time>
      </trkpt>
      <trkpt lat="44.42156" lon="1.32385">
        <ele>272</ele>
        <time>2019-04-14T11:04:29Z</time>
      </trkpt>
      <trkpt lat="44.42158" lon="1.32383">
        <ele>272</ele>
        <time>2019-04-14T11:04:30Z</time>
      </trkpt>
      <trkpt lat="44.42159" lon="1.32382">
        <ele>272</ele>
        <time>2019-04-14T11:04:31Z</time>
      </trkpt>
      <trkpt lat="44.4216" lon="1.32381">
        <ele>273</ele>
        <time>2019-04-14T11:04:32Z</time>
      </trkpt>
      <trkpt lat="44.42161" lon="1.32379">
        <ele>273</ele>
        <time>2019-04-14T11:04:33Z</time>
      </trkpt>
      <trkpt lat="44.42162" lon="1.32378">
        <ele>273</ele>
        <time>2019-04-14T11:04:34Z</time>
      </trkpt>
      <trkpt lat="44.42164" lon="1.32376">
        <ele>273</ele>
        <time>2019-04-14T11:04:35Z</time>
      </trkpt>
      <trkpt lat="44.42165" lon="1.32374">
        <ele>273</ele>
        <time>2019-04-14T11:04:36Z</time>
      </trkpt>
      <trkpt lat="44.42167" lon="1.32372">
        <ele>274</ele>
        <time>2019-04-14T11:04:37Z</time>
      </trkpt>
      <trkpt lat="44.42168" lon="1.3237">
        <ele>274</ele>
        <time>2019-04-14T11:04:38Z</time>
      </trkpt>
      <trkpt lat="44.4217" lon="1.32368">
        <ele>274</ele>
        <time>2019-04-14T11:04:39Z</time>
      </trkpt>
      <trkpt lat="44.42171" lon="1.32366">
        <ele>274</ele>
        <time>2019-04-14T11:04:40Z</time>
      </trkpt>
      <trkpt lat="44.42173" lon="1.32364">
        <ele>274</ele>
        <time>2019-04-14T11:04:41Z</time>
      </trkpt>
      <trkpt lat="44.42175" lon="1.32362">
        <ele>275</ele>
        <time>2019-04-14T11:04:42Z</time>
      </trkpt>
      <trkpt lat="44.42177" lon="1.3236">
        <ele>275</ele>
        <time>2019-04-14T11:04:43Z</time>
      </trkpt>
      <trkpt lat="44.42179" lon="1.32358">
        <ele>275</ele>
        <time>2019-04-14T11:04:44Z</time>
      </trkpt>
      <trkpt lat="44.42181" lon="1.32356">
        <ele>275</ele>
        <time>2019-04-14T11:04:45Z</time>
      </trkpt>
      <trkpt lat="44.42182" lon="1.32354">
        <ele>275</ele>
        <time>2019-04-14T11:04:46Z</time>
      </trkpt>
      <trkpt lat="44.42184" lon="1.32352">
        <ele>275</ele>
        <time>2019-04-14T11:04:47Z</time>
      </trkpt>
      <trkpt lat="44.42185" lon="1.3235">
        <ele>275</ele>
        <time>2019-04-14T11:04:48Z</time>
      </trkpt>
      <trkpt lat="44.42187" lon="1.32348">
        <ele>275</ele>
        <time>2019-04-14T11:04:49Z</time>
      </trkpt>
      <trkpt lat="44.42189" lon="1.32345">
        <ele>275</ele>
        <time>2019-04-14T11:04:50Z</time>
      </trkpt>
      <trkpt lat="44.4219" lon="1.32343">
        <ele>275</ele>
        <time>2019-04-14T11:04:51Z</time>
      </trkpt>
      <trkpt lat="44.42192" lon="1.32342">
        <ele>275</ele>
        <time>2019-04-14T11:04:52Z</time>
      </trkpt>
      <trkpt lat="44.42194" lon="1.3234">
        <ele>275</ele>
        <time>2019-04-14T11:04:53Z</time>
      </trkpt>
      <trkpt lat="44.42196" lon="1.32338">
        <ele>276</ele>
        <time>2019-04-14T11:04:54Z</time>
      </trkpt>
      <trkpt lat="44.42197" lon="1.32335">
        <ele>276</ele>
        <time>2019-04-14T11:04:55Z</time>
      </trkpt>
      <trkpt lat="44.42198" lon="1.32333">
        <ele>276</ele>
        <time>2019-04-14T11:04:56Z</time>
      </trkpt>
      <trkpt lat="44.422" lon="1.32331">
        <ele>276</ele>
        <time>2019-04-14T11:04:57Z</time>
      </trkpt>
      <trkpt lat="44.42201" lon="1.3233">
        <ele>276</ele>
        <time>2019-04-14T11:04:58Z</time>
      </trkpt>
      <trkpt lat="44.42203" lon="1.32328">
        <ele>276</ele>
        <time>2019-04-14T11:04:59Z</time>
      </trkpt>
      <trkpt lat="44.42204" lon="1.32326">
        <ele>276</ele>
        <time>2019-04-14T11:05:00Z</time>
      </trkpt>
      <trkpt lat="44.42206" lon="1.32325">
        <ele>276</ele>
        <time>2019-04-14T11:05:01Z</time>
      </trkpt>
      <trkpt lat="44.42207" lon="1.32323">
        <ele>277</ele>
        <time>2019-04-14T11:05:02Z</time>
      </trkpt>
      <trkpt lat="44.42209" lon="1.32322">
        <ele>277</ele>
        <time>2019-04-14T11:05:03Z</time>
      </trkpt>
      <trkpt lat="44.4221" lon="1.32321">
        <ele>277</ele>
        <time>2019-04-14T11:05:04Z</time>
      </trkpt>
      <trkpt lat="44.4221" lon="1.32319">
        <ele>277</ele>
        <time>2019-04-14T11:05:05Z</time>
      </trkpt>
      <trkpt lat="44.42211" lon="1.32318">
        <ele>277</ele>
        <time>2019-04-14T11:05:06Z</time>
      </trkpt>
      <trkpt lat="44.42212" lon="1.32317">
        <ele>277</ele>
        <time>2019-04-14T11:05:07Z</time>
      </trkpt>
      <trkpt lat="44.42213" lon="1.32316">
        <ele>277</ele>
        <time>2019-04-14T11:05:08Z</time>
      </trkpt>
      <trkpt lat="44.42214" lon="1.32315">
        <ele>277</ele>
        <time>2019-04-14T11:05:09Z</time>
      </trkpt>
      <trkpt lat="44.42215" lon="1.32313">
        <ele>277</ele>
        <time>2019-04-14T11:05:10Z</time>
      </trkpt>
      <trkpt lat="44.42215" lon="1.32313">
        <ele>277</ele>
        <time>2019-04-14T11:05:11Z</time>
      </trkpt>
      <trkpt lat="44.42216" lon="1.32312">
        <ele>277</ele>
        <time>2019-04-14T11:05:12Z</time>
      </trkpt>
      <trkpt lat="44.42217" lon="1.32311">
        <ele>277</ele>
        <time>2019-04-14T11:05:13Z</time>
      </trkpt>
      <trkpt lat="44.42218" lon="1.3231">
        <ele>277</ele>
        <time>2019-04-14T11:05:14Z</time>
      </trkpt>
      <trkpt lat="44.42219" lon="1.32308">
        <ele>277</ele>
        <time>2019-04-14T11:05:15Z</time>
      </trkpt>
      <trkpt lat="44.42221" lon="1.32307">
        <ele>277</ele>
        <time>2019-04-14T11:05:16Z</time>
      </trkpt>
      <trkpt lat="44.42223" lon="1.32305">
        <ele>277</ele>
        <time>2019-04-14T11:05:17Z</time>
      </trkpt>
      <trkpt lat="44.42224" lon="1.32303">
        <ele>278</ele>
        <time>2019-04-14T11:05:18Z</time>
      </trkpt>
      <trkpt lat="44.42226" lon="1.32301">
        <ele>278</ele>
        <time>2019-04-14T11:05:19Z</time>
      </trkpt>
      <trkpt lat="44.42228" lon="1.32299">
        <ele>278</ele>
        <time>2019-04-14T11:05:20Z</time>
      </trkpt>
      <trkpt lat="44.4223" lon="1.32297">
        <ele>278</ele>
        <time>2019-04-14T11:05:21Z</time>
      </trkpt>
      <trkpt lat="44.42232" lon="1.32295">
        <ele>278</ele>
        <time>2019-04-14T11:05:22Z</time>
      </trkpt>
      <trkpt lat="44.42234" lon="1.32293">
        <ele>278</ele>
        <time>2019-04-14T11:05:23Z</time>
      </trkpt>
      <trkpt lat="44.42236" lon="1.32291">
        <ele>278</ele>
        <time>2019-04-14T11:05:24Z</time>
      </trkpt>
      <trkpt lat="44.42238" lon="1.32289">
        <ele>278</ele>
        <time>2019-04-14T11:05:25Z</time>
      </trkpt>
      <trkpt lat="44.4224" lon="1.32287">
        <ele>278</ele>
        <time>2019-04-14T11:05:26Z</time>
      </trkpt>
      <trkpt lat="44.42242" lon="1.32286">
        <ele>278</ele>
        <time>2019-04-14T11:05:27Z</time>
      </trkpt>
      <trkpt lat="44.42244" lon="1.32284">
        <ele>278</ele>
        <time>2019-04-14T11:05:28Z</time>
      </trkpt>
      <trkpt lat="44.42247" lon="1.32281">
        <ele>279</ele>
        <time>2019-04-14T11:05:29Z</time>
      </trkpt>
      <trkpt lat="44.42249" lon="1.32279">
        <ele>279</ele>
        <time>2019-04-14T11:05:30Z</time>
      </trkpt>
      <trkpt lat="44.42252" lon="1.32277">
        <ele>279</ele>
        <time>2019-04-14T11:05:31Z</time>
      </trkpt>
      <trkpt lat="44.42254" lon="1.32275">
        <ele>279</ele>
        <time>2019-04-14T11:05:32Z</time>
      </trkpt>
      <trkpt lat="44.42256" lon="1.32273">
        <ele>279</ele>
        <time>2019-04-14T11:05:33Z</time>
      </trkpt>
      <trkpt lat="44.42258" lon="1.3227">
        <ele>279</ele>
        <time>2019-04-14T11:05:34Z</time>
      </trkpt>
      <trkpt lat="44.42261" lon="1.32268">
        <ele>279</ele>
        <time>2019-04-14T11:05:35Z</time>
      </trkpt>
      <trkpt lat="44.42263" lon="1.32266">
        <ele>280</ele>
        <time>2019-04-14T11:05:36Z</time>
      </trkpt>
      <trkpt lat="44.42266" lon="1.32263">
        <ele>280</ele>
        <time>2019-04-14T11:05:37Z</time>
      </trkpt>
      <trkpt lat="44.42268" lon="1.32261">
        <ele>280</ele>
        <time>2019-04-14T11:05:38Z</time>
      </trkpt>
      <trkpt lat="44.42271" lon="1.32258">
        <ele>280</ele>
        <time>2019-04-14T11:05:39Z</time>
      </trkpt>
      <trkpt lat="44.42273" lon="1.32256">
        <ele>280</ele>
        <time>2019-04-14T11:05:40Z</time>
      </trkpt>
      <trkpt lat="44.42276" lon="1.32253">
        <ele>280</ele>
        <time>2019-04-14T11:05:41Z</time>
      </trkpt>
      <trkpt lat="44.42279" lon="1.3225">
        <ele>280</ele>
        <time>2019-04-14T11:05:42Z</time>
      </trkpt>
      <trkpt lat="44.42282" lon="1.32248">
        <ele>281</ele>
        <time>2019-04-14T11:05:43Z</time>
      </trkpt>
      <trkpt lat="44.42284" lon="1.32245">
        <ele>281</ele>
        <time>2019-04-14T11:05:44Z</time>
      </trkpt>
      <trkpt lat="44.42287" lon="1.32243">
        <ele>281</ele>
        <time>2019-04-14T11:05:45Z</time>
      </trkpt>
      <trkpt lat="44.42289" lon="1.32241">
        <ele>281</ele>
        <time>2019-04-14T11:05:46Z</time>
      </trkpt>
      <trkpt lat="44.42292" lon="1.32239">
        <ele>281</ele>
        <time>2019-04-14T11:05:47Z</time>
      </trkpt>
      <trkpt lat="44.42294" lon="1.32237">
        <ele>282</ele>
        <time>2019-04-14T11:05:48Z</time>
      </trkpt>
      <trkpt lat="44.42297" lon="1.32234">
        <ele>282</ele>
        <time>2019-04-14T11:05:49Z</time>
      </trkpt>
      <trkpt lat="44.42299" lon="1.32231">
        <ele>282</ele>
        <time>2019-04-14T11:05:50Z</time>
      </trkpt>
      <trkpt lat="44.42301" lon="1.32229">
        <ele>282</ele>
        <time>2019-04-14T11:05:51Z</time>
      </trkpt>
      <trkpt lat="44.42304" lon="1.32227">
        <ele>282</ele>
        <time>2019-04-14T11:05:52Z</time>
      </trkpt>
      <trkpt lat="44.42306" lon="1.32225">
        <ele>283</ele>
        <time>2019-04-14T11:05:53Z</time>
      </trkpt>
      <trkpt lat="44.42309" lon="1.32222">
        <ele>283</ele>
        <time>2019-04-14T11:05:54Z</time>
      </trkpt>
      <trkpt lat="44.42311" lon="1.3222">
        <ele>283</ele>
        <time>2019-04-14T11:05:55Z</time>
      </trkpt>
      <trkpt lat="44.42314" lon="1.32218">
        <ele>283</ele>
        <time>2019-04-14T11:05:56Z</time>
      </trkpt>
      <trkpt lat="44.42316" lon="1.32216">
        <ele>283</ele>
        <time>2019-04-14T11:05:57Z</time>
      </trkpt>
      <trkpt lat="44.42319" lon="1.32214">
        <ele>284</ele>
        <time>2019-04-14T11:05:58Z</time>
      </trkpt>
      <trkpt lat="44.42321" lon="1.32212">
        <ele>284</ele>
        <time>2019-04-14T11:05:59Z</time>
      </trkpt>
      <trkpt lat="44.42323" lon="1.32209">
        <ele>284</ele>
        <time>2019-04-14T11:06:00Z</time>
      </trkpt>
      <trkpt lat="44.42325" lon="1.32207">
        <ele>284</ele>
        <time>2019-04-14T11:06:01Z</time>
      </trkpt>
      <trkpt lat="44.42327" lon="1.32204">
        <ele>285</ele>
        <time>2019-04-14T11:06:02Z</time>
      </trkpt>
      <trkpt lat="44.42329" lon="1.32202">
        <ele>285</ele>
        <time>2019-04-14T11:06:03Z</time>
      </trkpt>
      <trkpt lat="44.42332" lon="1.32199">
        <ele>285</ele>
        <time>2019-04-14T11:06:04Z</time>
      </trkpt>
      <trkpt lat="44.42334" lon="1.32197">
        <ele>285</ele>
        <time>2019-04-14T11:06:05Z</time>
      </trkpt>
      <trkpt lat="44.42336" lon="1.32195">
        <ele>285</ele>
        <time>2019-04-14T11:06:06Z</time>
      </trkpt>
      <trkpt lat="44.42338" lon="1.32192">
        <ele>285</ele>
        <time>2019-04-14T11:06:07Z</time>
      </trkpt>
      <trkpt lat="44.4234" lon="1.3219">
        <ele>285</ele>
        <time>2019-04-14T11:06:08Z</time>
      </trkpt>
      <trkpt lat="44.42343" lon="1.32188">
        <ele>285</ele>
        <time>2019-04-14T11:06:09Z</time>
      </trkpt>
      <trkpt lat="44.42345" lon="1.32185">
        <ele>286</ele>
        <time>2019-04-14T11:06:10Z</time>
      </trkpt>
      <trkpt lat="44.42347" lon="1.32183">
        <ele>286</ele>
        <time>2019-04-14T11:06:11Z</time>
      </trkpt>
      <trkpt lat="44.42349" lon="1.32181">
        <ele>286</ele>
        <time>2019-04-14T11:06:12Z</time>
      </trkpt>
      <trkpt lat="44.42351" lon="1.32178">
        <ele>286</ele>
        <time>2019-04-14T11:06:13Z</time>
      </trkpt>
      <trkpt lat="44.42353" lon="1.32176">
        <ele>286</ele>
        <time>2019-04-14T11:06:14Z</time>
      </trkpt>
      <trkpt lat="44.42355" lon="1.32173">
        <ele>286</ele>
        <time>2019-04-14T11:06:15Z</time>
      </trkpt>
      <trkpt lat="44.42358" lon="1.32171">
        <ele>286</ele>
        <time>2019-04-14T11:06:16Z</time>
      </trkpt>
      <trkpt lat="44.4236" lon="1.32169">
        <ele>286</ele>
        <time>2019-04-14T11:06:17Z</time>
      </trkpt>
      <trkpt lat="44.42361" lon="1.32166">
        <ele>286</ele>
        <time>2019-04-14T11:06:18Z</time>
      </trkpt>
      <trkpt lat="44.42364" lon="1.32164">
        <ele>286</ele>
        <time>2019-04-14T11:06:19Z</time>
      </trkpt>
      <trkpt lat="44.42366" lon="1.32161">
        <ele>287</ele>
        <time>2019-04-14T11:06:20Z</time>
      </trkpt>
      <trkpt lat="44.42368" lon="1.32159">
        <ele>287</ele>
        <time>2019-04-14T11:06:21Z</time>
      </trkpt>
      <trkpt lat="44.42371" lon="1.32156">
        <ele>287</ele>
        <time>2019-04-14T11:06:22Z</time>
      </trkpt>
      <trkpt lat="44.42373" lon="1.32153">
        <ele>287</ele>
        <time>2019-04-14T11:06:23Z</time>
      </trkpt>
      <trkpt lat="44.42375" lon="1.3215">
        <ele>286</ele>
        <time>2019-04-14T11:06:24Z</time>
      </trkpt>
      <trkpt lat="44.42378" lon="1.32147">
        <ele>286</ele>
        <time>2019-04-14T11:06:25Z</time>
      </trkpt>
      <trkpt lat="44.4238" lon="1.32144">
        <ele>286</ele>
        <time>2019-04-14T11:06:26Z</time>
      </trkpt>
      <trkpt lat="44.42383" lon="1.32141">
        <ele>286</ele>
        <time>2019-04-14T11:06:27Z</time>
      </trkpt>
      <trkpt lat="44.42386" lon="1.32138">
        <ele>286</ele>
        <time>2019-04-14T11:06:28Z</time>
      </trkpt>
      <trkpt lat="44.42388" lon="1.32135">
        <ele>286</ele>
        <time>2019-04-14T11:06:29Z</time>
      </trkpt>
      <trkpt lat="44.42391" lon="1.32132">
        <ele>286</ele>
        <time>2019-04-14T11:06:30Z</time>
      </trkpt>
      <trkpt lat="44.42394" lon="1.32129">
        <ele>286</ele>
        <time>2019-04-14T11:06:31Z</time>
      </trkpt>
      <trkpt lat="44.42396" lon="1.32125">
        <ele>286</ele>
        <time>2019-04-14T11:06:32Z</time>
      </trkpt>
      <trkpt lat="44.42399" lon="1.32122">
        <ele>286</ele>
        <time>2019-04-14T11:06:33Z</time>
      </trkpt>
      <trkpt lat="44.42402" lon="1.32119">
        <ele>286</ele>
        <time>2019-04-14T11:06:34Z</time>
      </trkpt>
      <trkpt lat="44.42405" lon="1.32115">
        <ele>286</ele>
        <time>2019-04-14T11:06:35Z</time>
      </trkpt>
      <trkpt lat="44.42409" lon="1.32113">
        <ele>286</ele>
        <time>2019-04-14T11:06:36Z</time>
      </trkpt>
      <trkpt lat="44.42411" lon="1.3211">
        <ele>286</ele>
        <time>2019-04-14T11:06:37Z</time>
      </trkpt>
      <trkpt lat="44.42414" lon="1.32107">
        <ele>287</ele>
        <time>2019-04-14T11:06:38Z</time>
      </trkpt>
      <trkpt lat="44.42416" lon="1.32105">
        <ele>287</ele>
        <time>2019-04-14T11:06:39Z</time>
      </trkpt>
      <trkpt lat="44.42419" lon="1.32102">
        <ele>287</ele>
        <time>2019-04-14T11:06:40Z</time>
      </trkpt>
      <trkpt lat="44.42421" lon="1.32099">
        <ele>287</ele>
        <time>2019-04-14T11:06:41Z</time>
      </trkpt>
      <trkpt lat="44.42424" lon="1.32095">
        <ele>287</ele>
        <time>2019-04-14T11:06:42Z</time>
      </trkpt>
      <trkpt lat="44.42426" lon="1.32091">
        <ele>287</ele>
        <time>2019-04-14T11:06:43Z</time>
      </trkpt>
      <trkpt lat="44.42429" lon="1.32088">
        <ele>287</ele>
        <time>2019-04-14T11:06:44Z</time>
      </trkpt>
      <trkpt lat="44.42431" lon="1.32085">
        <ele>287</ele>
        <time>2019-04-14T11:06:45Z</time>
      </trkpt>
      <trkpt lat="44.42433" lon="1.32081">
        <ele>287</ele>
        <time>2019-04-14T11:06:46Z</time>
      </trkpt>
      <trkpt lat="44.42436" lon="1.32077">
        <ele>287</ele>
        <time>2019-04-14T11:06:47Z</time>
      </trkpt>
      <trkpt lat="44.42439" lon="1.32073">
        <ele>287</ele>
        <time>2019-04-14T11:06:48Z</time>
      </trkpt>
      <trkpt lat="44.42442" lon="1.32069">
        <ele>287</ele>
        <time>2019-04-14T11:06:49Z</time>
      </trkpt>
      <trkpt lat="44.42445" lon="1.32066">
        <ele>287</ele>
        <time>2019-04-14T11:06:50Z</time>
      </trkpt>
      <trkpt lat="44.42448" lon="1.32063">
        <ele>287</ele>
        <time>2019-04-14T11:06:51Z</time>
      </trkpt>
      <trkpt lat="44.42451" lon="1.32059">
        <ele>287</ele>
        <time>2019-04-14T11:06:52Z</time>
      </trkpt>
      <trkpt lat="44.42453" lon="1.32056">
        <ele>287</ele>
        <time>2019-04-14T11:06:53Z</time>
      </trkpt>
      <trkpt lat="44.42456" lon="1.32053">
        <ele>287</ele>
        <time>2019-04-14T11:06:54Z</time>
      </trkpt>
      <trkpt lat="44.42459" lon="1.3205">
        <ele>287</ele>
        <time>2019-04-14T11:06:55Z</time>
      </trkpt>
      <trkpt lat="44.42461" lon="1.32048">
        <ele>287</ele>
        <time>2019-04-14T11:06:56Z</time>
      </trkpt>
      <trkpt lat="44.42464" lon="1.32045">
        <ele>287</ele>
        <time>2019-04-14T11:06:57Z</time>
      </trkpt>
      <trkpt lat="44.42467" lon="1.32042">
        <ele>287</ele>
        <time>2019-04-14T11:06:58Z</time>
      </trkpt>
      <trkpt lat="44.4247" lon="1.32039">
        <ele>287</ele>
        <time>2019-04-14T11:06:59Z</time>
      </trkpt>
      <trkpt lat="44.42473" lon="1.32036">
        <ele>287</ele>
        <time>2019-04-14T11:07:00Z</time>
      </trkpt>
      <trkpt lat="44.42476" lon="1.32034">
        <ele>287</ele>
        <time>2019-04-14T11:07:01Z</time>
      </trkpt>
      <trkpt lat="44.42479" lon="1.32032">
        <ele>287</ele>
        <time>2019-04-14T11:07:02Z</time>
      </trkpt>
      <trkpt lat="44.42482" lon="1.32029">
        <ele>287</ele>
        <time>2019-04-14T11:07:03Z</time>
      </trkpt>
      <trkpt lat="44.42485" lon="1.32026">
        <ele>287</ele>
        <time>2019-04-14T11:07:04Z</time>
      </trkpt>
      <trkpt lat="44.42488" lon="1.32024">
        <ele>287</ele>
        <time>2019-04-14T11:07:05Z</time>
      </trkpt>
      <trkpt lat="44.42491" lon="1.32021">
        <ele>287</ele>
        <time>2019-04-14T11:07:06Z</time>
      </trkpt>
      <trkpt lat="44.42495" lon="1.32019">
        <ele>287</ele>
        <time>2019-04-14T11:07:07Z</time>
      </trkpt>
      <trkpt lat="44.42498" lon="1.32017">
        <ele>287</ele>
        <time>2019-04-14T11:07:08Z</time>
      </trkpt>
      <trkpt lat="44.42502" lon="1.32014">
        <ele>287</ele>
        <time>2019-04-14T11:07:09Z</time>
      </trkpt>
      <trkpt lat="44.42505" lon="1.32011">
        <ele>287</ele>
        <time>2019-04-14T11:07:10Z</time>
      </trkpt>
      <trkpt lat="44.42509" lon="1.32009">
        <ele>287</ele>
        <time>2019-04-14T11:07:11Z</time>
      </trkpt>
      <trkpt lat="44.42513" lon="1.32007">
        <ele>287</ele>
        <time>2019-04-14T11:07:12Z</time>
      </trkpt>
      <trkpt lat="44.42516" lon="1.32004">
        <ele>287</ele>
        <time>2019-04-14T11:07:13Z</time>
      </trkpt>
      <trkpt lat="44.4252" lon="1.32003">
        <ele>287</ele>
        <time>2019-04-14T11:07:14Z</time>
      </trkpt>
      <trkpt lat="44.42525" lon="1.32001">
        <ele>287</ele>
        <time>2019-04-14T11:07:15Z</time>
      </trkpt>
      <trkpt lat="44.42529" lon="1.31999">
        <ele>287</ele>
        <time>2019-04-14T11:07:16Z</time>
      </trkpt>
      <trkpt lat="44.42532" lon="1.31996">
        <ele>287</ele>
        <time>2019-04-14T11:07:17Z</time>
      </trkpt>
      <trkpt lat="44.42536" lon="1.31994">
        <ele>286</ele>
        <time>2019-04-14T11:07:18Z</time>
      </trkpt>
      <trkpt lat="44.4254" lon="1.31992">
        <ele>286</ele>
        <time>2019-04-14T11:07:19Z</time>
      </trkpt>
      <trkpt lat="44.42543" lon="1.3199">
        <ele>286</ele>
        <time>2019-04-14T11:07:20Z</time>
      </trkpt>
      <trkpt lat="44.42547" lon="1.31987">
        <ele>287</ele>
        <time>2019-04-14T11:07:21Z</time>
      </trkpt>
      <trkpt lat="44.4255" lon="1.31985">
        <ele>287</ele>
        <time>2019-04-14T11:07:22Z</time>
      </trkpt>
      <trkpt lat="44.42553" lon="1.31981">
        <ele>286</ele>
        <time>2019-04-14T11:07:23Z</time>
      </trkpt>
      <trkpt lat="44.42557" lon="1.31978">
        <ele>286</ele>
        <time>2019-04-14T11:07:24Z</time>
      </trkpt>
      <trkpt lat="44.42561" lon="1.31975">
        <ele>286</ele>
        <time>2019-04-14T11:07:25Z</time>
      </trkpt>
      <trkpt lat="44.42564" lon="1.31971">
        <ele>286</ele>
        <time>2019-04-14T11:07:26Z</time>
      </trkpt>
      <trkpt lat="44.42568" lon="1.31968">
        <ele>285</ele>
        <time>2019-04-14T11:07:27Z</time>
      </trkpt>
      <trkpt lat="44.42571" lon="1.31964">
        <ele>285</ele>
        <time>2019-04-14T11:07:28Z</time>
      </trkpt>
      <trkpt lat="44.42575" lon="1.3196">
        <ele>285</ele>
        <time>2019-04-14T11:07:29Z</time>
      </trkpt>
      <trkpt lat="44.42579" lon="1.31955">
        <ele>285</ele>
        <time>2019-04-14T11:07:30Z</time>
      </trkpt>
      <trkpt lat="44.42583" lon="1.31951">
        <ele>284</ele>
        <time>2019-04-14T11:07:31Z</time>
      </trkpt>
      <trkpt lat="44.42587" lon="1.31945">
        <ele>284</ele>
        <time>2019-04-14T11:07:32Z</time>
      </trkpt>
      <trkpt lat="44.42591" lon="1.31939">
        <ele>284</ele>
        <time>2019-04-14T11:07:33Z</time>
      </trkpt>
      <trkpt lat="44.42595" lon="1.31934">
        <ele>283</ele>
        <time>2019-04-14T11:07:34Z</time>
      </trkpt>
      <trkpt lat="44.426" lon="1.31928">
        <ele>283</ele>
        <time>2019-04-14T11:07:35Z</time>
      </trkpt>
      <trkpt lat="44.42604" lon="1.31921">
        <ele>282</ele>
        <time>2019-04-14T11:07:36Z</time>
      </trkpt>
      <trkpt lat="44.42609" lon="1.31915">
        <ele>282</ele>
        <time>2019-04-14T11:07:37Z</time>
      </trkpt>
      <trkpt lat="44.42614" lon="1.31909">
        <ele>282</ele>
        <time>2019-04-14T11:07:38Z</time>
      </trkpt>
      <trkpt lat="44.42618" lon="1.31902">
        <ele>281</ele>
        <time>2019-04-14T11:07:39Z</time>
      </trkpt>
      <trkpt lat="44.42622" lon="1.31896">
        <ele>281</ele>
        <time>2019-04-14T11:07:40Z</time>
      </trkpt>
      <trkpt lat="44.42627" lon="1.3189">
        <ele>281</ele>
        <time>2019-04-14T11:07:41Z</time>
      </trkpt>
      <trkpt lat="44.42631" lon="1.31885">
        <ele>281</ele>
        <time>2019-04-14T11:07:42Z</time>
      </trkpt>
      <trkpt lat="44.42636" lon="1.31879">
        <ele>281</ele>
        <time>2019-04-14T11:07:43Z</time>
      </trkpt>
      <trkpt lat="44.4264" lon="1.31874">
        <ele>280</ele>
        <time>2019-04-14T11:07:44Z</time>
      </trkpt>
      <trkpt lat="44.42645" lon="1.3187">
        <ele>280</ele>
        <time>2019-04-14T11:07:45Z</time>
      </trkpt>
      <trkpt lat="44.4265" lon="1.31865">
        <ele>279</ele>
        <time>2019-04-14T11:07:46Z</time>
      </trkpt>
      <trkpt lat="44.42656" lon="1.3186">
        <ele>279</ele>
        <time>2019-04-14T11:07:47Z</time>
      </trkpt>
      <trkpt lat="44.42661" lon="1.31855">
        <ele>278</ele>
        <time>2019-04-14T11:07:48Z</time>
      </trkpt>
      <trkpt lat="44.42667" lon="1.3185">
        <ele>278</ele>
        <time>2019-04-14T11:07:49Z</time>
      </trkpt>
      <trkpt lat="44.42673" lon="1.31845">
        <ele>277</ele>
        <time>2019-04-14T11:07:50Z</time>
      </trkpt>
      <trkpt lat="44.4268" lon="1.31839">
        <ele>277</ele>
        <time>2019-04-14T11:07:51Z</time>
      </trkpt>
      <trkpt lat="44.42687" lon="1.31834">
        <ele>276</ele>
        <time>2019-04-14T11:07:52Z</time>
      </trkpt>
      <trkpt lat="44.42693" lon="1.31829">
        <ele>275</ele>
        <time>2019-04-14T11:07:53Z</time>
      </trkpt>
      <trkpt lat="44.427" lon="1.31822">
        <ele>275</ele>
        <time>2019-04-14T11:07:54Z</time>
      </trkpt>
      <trkpt lat="44.42706" lon="1.31815">
        <ele>274</ele>
        <time>2019-04-14T11:07:55Z</time>
      </trkpt>
      <trkpt lat="44.42713" lon="1.31807">
        <ele>273</ele>
        <time>2019-04-14T11:07:56Z</time>
      </trkpt>
      <trkpt lat="44.42719" lon="1.31799">
        <ele>272</ele>
        <time>2019-04-14T11:07:57Z</time>
      </trkpt>
      <trkpt lat="44.42726" lon="1.31793">
        <ele>272</ele>
        <time>2019-04-14T11:07:58Z</time>
      </trkpt>
      <trkpt lat="44.4273" lon="1.31788">
        <ele>271</ele>
        <time>2019-04-14T11:07:59Z</time>
      </trkpt>
      <trkpt lat="44.42734" lon="1.31784">
        <ele>270</ele>
        <time>2019-04-14T11:08:00Z</time>
      </trkpt>
      <trkpt lat="44.42737" lon="1.31782">
        <ele>270</ele>
        <time>2019-04-14T11:08:01Z</time>
      </trkpt>
      <trkpt lat="44.42739" lon="1.31782">
        <ele>269</ele>
        <time>2019-04-14T11:08:02Z</time>
      </trkpt>
      <trkpt lat="44.42741" lon="1.31783">
        <ele>269</ele>
        <time>2019-04-14T11:08:03Z</time>
      </trkpt>
      <trkpt lat="44.42742" lon="1.31785">
        <ele>269</ele>
        <time>2019-04-14T11:08:04Z</time>
      </trkpt>
      <trkpt lat="44.42741" lon="1.31788">
        <ele>269</ele>
        <time>2019-04-14T11:08:05Z</time>
      </trkpt>
      <trkpt lat="44.4274" lon="1.31791">
        <ele>269</ele>
        <time>2019-04-14T11:08:06Z</time>
      </trkpt>
      <trkpt lat="44.42739" lon="1.31794">
        <ele>269</ele>
        <time>2019-04-14T11:08:07Z</time>
      </trkpt>
      <trkpt lat="44.42737" lon="1.31798">
        <ele>269</ele>
        <time>2019-04-14T11:08:08Z</time>
      </trkpt>
      <trkpt lat="44.42736" lon="1.31802">
        <ele>269</ele>
        <time>2019-04-14T11:08:09Z</time>
      </trkpt>
      <trkpt lat="44.42735" lon="1.31807">
        <ele>269</ele>
        <time>2019-04-14T11:08:10Z</time>
      </trkpt>
      <trkpt lat="44.42733" lon="1.31811">
        <ele>269</ele>
        <time>2019-04-14T11:08:11Z</time>
      </trkpt>
      <trkpt lat="44.42732" lon="1.31816">
        <ele>269</ele>
        <time>2019-04-14T11:08:12Z</time>
      </trkpt>
      <trkpt lat="44.42731" lon="1.3182">
        <ele>269</ele>
        <time>2019-04-14T11:08:13Z</time>
      </trkpt>
      <trkpt lat="44.4273" lon="1.31825">
        <ele>269</ele>
        <time>2019-04-14T11:08:14Z</time>
      </trkpt>
      <trkpt lat="44.42729" lon="1.31829">
        <ele>269</ele>
        <time>2019-04-14T11:08:15Z</time>
      </trkpt>
      <trkpt lat="44.42727" lon="1.31834">
        <ele>270</ele>
        <time>2019-04-14T11:08:16Z</time>
      </trkpt>
      <trkpt lat="44.42727" lon="1.31838">
        <ele>270</ele>
        <time>2019-04-14T11:08:17Z</time>
      </trkpt>
      <trkpt lat="44.42726" lon="1.31843">
        <ele>270</ele>
        <time>2019-04-14T11:08:18Z</time>
      </trkpt>
      <trkpt lat="44.42725" lon="1.31847">
        <ele>270</ele>
        <time>2019-04-14T11:08:19Z</time>
      </trkpt>
      <trkpt lat="44.42724" lon="1.31852">
        <ele>270</ele>
        <time>2019-04-14T11:08:20Z</time>
      </trkpt>
      <trkpt lat="44.42724" lon="1.31857">
        <ele>270</ele>
        <time>2019-04-14T11:08:21Z</time>
      </trkpt>
      <trkpt lat="44.42723" lon="1.31861">
        <ele>270</ele>
        <time>2019-04-14T11:08:22Z</time>
      </trkpt>
      <trkpt lat="44.42723" lon="1.31866">
        <ele>270</ele>
        <time>2019-04-14T11:08:23Z</time>
      </trkpt>
      <trkpt lat="44.42723" lon="1.31871">
        <ele>270</ele>
        <time>2019-04-14T11:08:24Z</time>
      </trkpt>
      <trkpt lat="44.42723" lon="1.31875">
        <ele>271</ele>
        <time>2019-04-14T11:08:25Z</time>
      </trkpt>
      <trkpt lat="44.42724" lon="1.3188">
        <ele>271</ele>
        <time>2019-04-14T11:08:26Z</time>
      </trkpt>
      <trkpt lat="44.42724" lon="1.31884">
        <ele>271</ele>
        <time>2019-04-14T11:08:27Z</time>
      </trkpt>
      <trkpt lat="44.42724" lon="1.31889">
        <ele>271</ele>
        <time>2019-04-14T11:08:28Z</time>
      </trkpt>
      <trkpt lat="44.42724" lon="1.31894">
        <ele>271</ele>
        <time>2019-04-14T11:08:29Z</time>
      </trkpt>
      <trkpt lat="44.42724" lon="1.31898">
        <ele>271</ele>
        <time>2019-04-14T11:08:30Z</time>
      </trkpt>
      <trkpt lat="44.42724" lon="1.31903">
        <ele>271</ele>
        <time>2019-04-14T11:08:31Z</time>
      </trkpt>
      <trkpt lat="44.42724" lon="1.31908">
        <ele>272</ele>
        <time>2019-04-14T11:08:32Z</time>
      </trkpt>
      <trkpt lat="44.42725" lon="1.31912">
        <ele>272</ele>
        <time>2019-04-14T11:08:33Z</time>
      </trkpt>
      <trkpt lat="44.42725" lon="1.31917">
        <ele>272</ele>
        <time>2019-04-14T11:08:34Z</time>
      </trkpt>
      <trkpt lat="44.42725" lon="1.31921">
        <ele>272</ele>
        <time>2019-04-14T11:08:35Z</time>
      </trkpt>
      <trkpt lat="44.42725" lon="1.31925">
        <ele>272</ele>
        <time>2019-04-14T11:08:36Z</time>
      </trkpt>
      <trkpt lat="44.42726" lon="1.3193">
        <ele>273</ele>
        <time>2019-04-14T11:08:37Z</time>
      </trkpt>
      <trkpt lat="44.42726" lon="1.31934">
        <ele>273</ele>
        <time>2019-04-14T11:08:38Z</time>
      </trkpt>
      <trkpt lat="44.42726" lon="1.31938">
        <ele>273</ele>
        <time>2019-04-14T11:08:39Z</time>
      </trkpt>
      <trkpt lat="44.42726" lon="1.31942">
        <ele>273</ele>
        <time>2019-04-14T11:08:40Z</time>
      </trkpt>
      <trkpt lat="44.42727" lon="1.31947">
        <ele>274</ele>
        <time>2019-04-14T11:08:41Z</time>
      </trkpt>
      <trkpt lat="44.42727" lon="1.31951">
        <ele>274</ele>
        <time>2019-04-14T11:08:42Z</time>
      </trkpt>
      <trkpt lat="44.42727" lon="1.31956">
        <ele>274</ele>
        <time>2019-04-14T11:08:43Z</time>
      </trkpt>
      <trkpt lat="44.42727" lon="1.3196">
        <ele>274</ele>
        <time>2019-04-14T11:08:44Z</time>
      </trkpt>
      <trkpt lat="44.42727" lon="1.31965">
        <ele>275</ele>
        <time>2019-04-14T11:08:45Z</time>
      </trkpt>
      <trkpt lat="44.42727" lon="1.31969">
        <ele>275</ele>
        <time>2019-04-14T11:08:46Z</time>
      </trkpt>
      <trkpt lat="44.42727" lon="1.31974">
        <ele>275</ele>
        <time>2019-04-14T11:08:47Z</time>
      </trkpt>
      <trkpt lat="44.42728" lon="1.31978">
        <ele>275</ele>
        <time>2019-04-14T11:08:48Z</time>
      </trkpt>
      <trkpt lat="44.42728" lon="1.31983">
        <ele>275</ele>
        <time>2019-04-14T11:08:49Z</time>
      </trkpt>
      <trkpt lat="44.42728" lon="1.31987">
        <ele>276</ele>
        <time>2019-04-14T11:08:50Z</time>
      </trkpt>
      <trkpt lat="44.42728" lon="1.31992">
        <ele>276</ele>
        <time>2019-04-14T11:08:51Z</time>
      </trkpt>
      <trkpt lat="44.42727" lon="1.31996">
        <ele>276</ele>
        <time>2019-04-14T11:08:52Z</time>
      </trkpt>
      <trkpt lat="44.42727" lon="1.32">
        <ele>276</ele>
        <time>2019-04-14T11:08:53Z</time>
      </trkpt>
      <trkpt lat="44.42727" lon="1.32005">
        <ele>276</ele>
        <time>2019-04-14T11:08:54Z</time>
      </trkpt>
      <trkpt lat="44.42726" lon="1.32009">
        <ele>277</ele>
        <time>2019-04-14T11:08:55Z</time>
      </trkpt>
      <trkpt lat="44.42725" lon="1.32014">
        <ele>277</ele>
        <time>2019-04-14T11:08:56Z</time>
      </trkpt>
      <trkpt lat="44.42725" lon="1.32018">
        <ele>277</ele>
        <time>2019-04-14T11:08:57Z</time>
      </trkpt>
      <trkpt lat="44.42725" lon="1.32022">
        <ele>277</ele>
        <time>2019-04-14T11:08:58Z</time>
      </trkpt>
      <trkpt lat="44.42725" lon="1.32026">
        <ele>278</ele>
        <time>2019-04-14T11:08:59Z</time>
      </trkpt>
      <trkpt lat="44.42725" lon="1.32029">
        <ele>278</ele>
        <time>2019-04-14T11:09:00Z</time>
      </trkpt>
      <trkpt lat="44.42726" lon="1.32033">
        <ele>278</ele>
        <time>2019-04-14T11:09:01Z</time>
      </trkpt>
      <trkpt lat="44.42728" lon="1.32036">
        <ele>278</ele>
        <time>2019-04-14T11:09:02Z</time>
      </trkpt>
      <trkpt lat="44.42731" lon="1.32038">
        <ele>277</ele>
        <time>2019-04-14T11:09:03Z</time>
      </trkpt>
      <trkpt lat="44.42733" lon="1.32041">
        <ele>277</ele>
        <time>2019-04-14T11:09:04Z</time>
      </trkpt>
      <trkpt lat="44.42735" lon="1.32043">
        <ele>277</ele>
        <time>2019-04-14T11:09:05Z</time>
      </trkpt>
      <trkpt lat="44.42737" lon="1.32046">
        <ele>277</ele>
        <time>2019-04-14T11:09:06Z</time>
      </trkpt>
      <trkpt lat="44.4274" lon="1.32048">
        <ele>276</ele>
        <time>2019-04-14T11:09:07Z</time>
      </trkpt>
      <trkpt lat="44.42744" lon="1.3205">
        <ele>276</ele>
        <time>2019-04-14T11:09:08Z</time>
      </trkpt>
      <trkpt lat="44.42746" lon="1.32052">
        <ele>276</ele>
        <time>2019-04-14T11:09:09Z</time>
      </trkpt>
      <trkpt lat="44.42748" lon="1.32054">
        <ele>275</ele>
        <time>2019-04-14T11:09:10Z</time>
      </trkpt>
      <trkpt lat="44.42748" lon="1.32058">
        <ele>275</ele>
        <time>2019-04-14T11:09:11Z</time>
      </trkpt>
      <trkpt lat="44.42748" lon="1.32062">
        <ele>275</ele>
        <time>2019-04-14T11:09:12Z</time>
      </trkpt>
      <trkpt lat="44.42747" lon="1.32068">
        <ele>275</ele>
        <time>2019-04-14T11:09:13Z</time>
      </trkpt>
      <trkpt lat="44.42748" lon="1.32075">
        <ele>274</ele>
        <time>2019-04-14T11:09:14Z</time>
      </trkpt>
      <trkpt lat="44.42748" lon="1.32081">
        <ele>274</ele>
        <time>2019-04-14T11:09:15Z</time>
      </trkpt>
      <trkpt lat="44.42746" lon="1.32086">
        <ele>273</ele>
        <time>2019-04-14T11:09:16Z</time>
      </trkpt>
      <trkpt lat="44.42743" lon="1.3209">
        <ele>273</ele>
        <time>2019-04-14T11:09:17Z</time>
      </trkpt>
      <trkpt lat="44.42739" lon="1.32093">
        <ele>273</ele>
        <time>2019-04-14T11:09:18Z</time>
      </trkpt>
      <trkpt lat="44.42735" lon="1.32097">
        <ele>273</ele>
        <time>2019-04-14T11:09:19Z</time>
      </trkpt>
      <trkpt lat="44.42732" lon="1.32102">
        <ele>272</ele>
        <time>2019-04-14T11:09:20Z</time>
      </trkpt>
      <trkpt lat="44.42729" lon="1.32108">
        <ele>272</ele>
        <time>2019-04-14T11:09:21Z</time>
      </trkpt>
      <trkpt lat="44.42727" lon="1.32114">
        <ele>271</ele>
        <time>2019-04-14T11:09:22Z</time>
      </trkpt>
      <trkpt lat="44.42723" lon="1.32121">
        <ele>271</ele>
        <time>2019-04-14T11:09:23Z</time>
      </trkpt>
      <trkpt lat="44.42721" lon="1.32126">
        <ele>270</ele>
        <time>2019-04-14T11:09:24Z</time>
      </trkpt>
      <trkpt lat="44.42717" lon="1.3213">
        <ele>270</ele>
        <time>2019-04-14T11:09:25Z</time>
      </trkpt>
      <trkpt lat="44.42714" lon="1.32135">
        <ele>269</ele>
        <time>2019-04-14T11:09:26Z</time>
      </trkpt>
      <trkpt lat="44.42712" lon="1.32142">
        <ele>269</ele>
        <time>2019-04-14T11:09:27Z</time>
      </trkpt>
      <trkpt lat="44.4271" lon="1.32149">
        <ele>268</ele>
        <time>2019-04-14T11:09:28Z</time>
      </trkpt>
      <trkpt lat="44.42708" lon="1.32155">
        <ele>268</ele>
        <time>2019-04-14T11:09:29Z</time>
      </trkpt>
      <trkpt lat="44.42708" lon="1.32162">
        <ele>268</ele>
        <time>2019-04-14T11:09:30Z</time>
      </trkpt>
      <trkpt lat="44.42708" lon="1.32169">
        <ele>267</ele>
        <time>2019-04-14T11:09:31Z</time>
      </trkpt>
      <trkpt lat="44.42708" lon="1.32176">
        <ele>267</ele>
        <time>2019-04-14T11:09:32Z</time>
      </trkpt>
      <trkpt lat="44.42707" lon="1.32184">
        <ele>267</ele>
        <time>2019-04-14T11:09:33Z</time>
      </trkpt>
      <trkpt lat="44.42707" lon="1.32191">
        <ele>267</ele>
        <time>2019-04-14T11:09:34Z</time>
      </trkpt>
      <trkpt lat="44.42706" lon="1.32198">
        <ele>266</ele>
        <time>2019-04-14T11:09:35Z</time>
      </trkpt>
      <trkpt lat="44.42705" lon="1.32206">
        <ele>266</ele>
        <time>2019-04-14T11:09:36Z</time>
      </trkpt>
      <trkpt lat="44.42703" lon="1.32213">
        <ele>265</ele>
        <time>2019-04-14T11:09:37Z</time>
      </trkpt>
      <trkpt lat="44.42702" lon="1.32219">
        <ele>265</ele>
        <time>2019-04-14T11:09:38Z</time>
      </trkpt>
      <trkpt lat="44.42701" lon="1.32225">
        <ele>265</ele>
        <time>2019-04-14T11:09:39Z</time>
      </trkpt>
      <trkpt lat="44.42701" lon="1.32229">
        <ele>265</ele>
        <time>2019-04-14T11:09:40Z</time>
      </trkpt>
      <trkpt lat="44.42702" lon="1.32232">
        <ele>265</ele>
        <time>2019-04-14T11:09:41Z</time>
      </trkpt>
      <trkpt lat="44.42702" lon="1.32232">
        <ele>265</ele>
        <time>2019-04-14T11:09:42Z</time>
      </trkpt>
      <trkpt lat="44.42703" lon="1.32232">
        <ele>265</ele>
        <time>2019-04-14T11:09:43Z</time>
      </trkpt>
      <trkpt lat="44.42703" lon="1.32232">
        <ele>264</ele>
        <time>2019-04-14T11:09:44Z</time>
      </trkpt>
      <trkpt lat="44.42703" lon="1.32232">
        <ele>264</ele>
        <time>2019-04-14T11:09:45Z</time>
      </trkpt>
      <trkpt lat="44.42703" lon="1.32232">
        <ele>264</ele>
        <time>2019-04-14T11:09:46Z</time>
      </trkpt>
      <trkpt lat="44.42703" lon="1.32232">
        <ele>264</ele>
        <time>2019-04-14T11:09:47Z</time>
      </trkpt>
      <trkpt lat="44.42704" lon="1.32232">
        <ele>264</ele>
        <time>2019-04-14T11:09:48Z</time>
      </trkpt>
      <trkpt lat="44.42705" lon="1.32233">
        <ele>264</ele>
        <time>2019-04-14T11:09:49Z</time>
      </trkpt>
      <trkpt lat="44.42721" lon="1.32252">
        <ele>264</ele>
        <time>2019-04-14T11:10:26Z</time>
      </trkpt>
      <trkpt lat="44.42722" lon="1.32253">
        <ele>264</ele>
        <time>2019-04-14T11:10:27Z</time>
      </trkpt>
      <trkpt lat="44.42724" lon="1.32255">
        <ele>264</ele>
        <time>2019-04-14T11:10:28Z</time>
      </trkpt>
      <trkpt lat="44.42725" lon="1.32257">
        <ele>264</ele>
        <time>2019-04-14T11:10:29Z</time>
      </trkpt>
      <trkpt lat="44.42726" lon="1.3226">
        <ele>264</ele>
        <time>2019-04-14T11:10:30Z</time>
      </trkpt>
      <trkpt lat="44.42726" lon="1.32262">
        <ele>265</ele>
        <time>2019-04-14T11:10:31Z</time>
      </trkpt>
      <trkpt lat="44.42727" lon="1.32265">
        <ele>265</ele>
        <time>2019-04-14T11:10:32Z</time>
      </trkpt>
      <trkpt lat="44.42727" lon="1.32267">
        <ele>265</ele>
        <time>2019-04-14T11:10:33Z</time>
      </trkpt>
      <trkpt lat="44.42728" lon="1.32269">
        <ele>265</ele>
        <time>2019-04-14T11:10:34Z</time>
      </trkpt>
      <trkpt lat="44.42728" lon="1.32271">
        <ele>266</ele>
        <time>2019-04-14T11:10:35Z</time>
      </trkpt>
      <trkpt lat="44.42729" lon="1.32274">
        <ele>266</ele>
        <time>2019-04-14T11:10:36Z</time>
      </trkpt>
      <trkpt lat="44.4273" lon="1.32276">
        <ele>266</ele>
        <time>2019-04-14T11:10:37Z</time>
      </trkpt>
      <trkpt lat="44.42729" lon="1.32278">
        <ele>266</ele>
        <time>2019-04-14T11:10:38Z</time>
      </trkpt>
      <trkpt lat="44.42729" lon="1.3228">
        <ele>267</ele>
        <time>2019-04-14T11:10:39Z</time>
      </trkpt>
      <trkpt lat="44.42729" lon="1.32283">
        <ele>267</ele>
        <time>2019-04-14T11:10:40Z</time>
      </trkpt>
      <trkpt lat="44.42729" lon="1.32285">
        <ele>267</ele>
        <time>2019-04-14T11:10:41Z</time>
      </trkpt>
      <trkpt lat="44.42728" lon="1.32287">
        <ele>267</ele>
        <time>2019-04-14T11:10:42Z</time>
      </trkpt>
      <trkpt lat="44.42728" lon="1.32289">
        <ele>268</ele>
        <time>2019-04-14T11:10:43Z</time>
      </trkpt>
      <trkpt lat="44.42728" lon="1.32291">
        <ele>268</ele>
        <time>2019-04-14T11:10:44Z</time>
      </trkpt>
      <trkpt lat="44.42727" lon="1.32293">
        <ele>268</ele>
        <time>2019-04-14T11:10:45Z</time>
      </trkpt>
      <trkpt lat="44.42728" lon="1.32295">
        <ele>268</ele>
        <time>2019-04-14T11:10:46Z</time>
      </trkpt>
      <trkpt lat="44.42728" lon="1.32298">
        <ele>268</ele>
        <time>2019-04-14T11:10:47Z</time>
      </trkpt>
      <trkpt lat="44.42728" lon="1.323">
        <ele>268</ele>
        <time>2019-04-14T11:10:48Z</time>
      </trkpt>
      <trkpt lat="44.42727" lon="1.32302">
        <ele>268</ele>
        <time>2019-04-14T11:10:49Z</time>
      </trkpt>
      <trkpt lat="44.42726" lon="1.32303">
        <ele>269</ele>
        <time>2019-04-14T11:10:50Z</time>
      </trkpt>
      <trkpt lat="44.42726" lon="1.32304">
        <ele>269</ele>
        <time>2019-04-14T11:10:51Z</time>
      </trkpt>
      <trkpt lat="44.42725" lon="1.32306">
        <ele>269</ele>
        <time>2019-04-14T11:10:52Z</time>
      </trkpt>
      <trkpt lat="44.42725" lon="1.32308">
        <ele>269</ele>
        <time>2019-04-14T11:10:53Z</time>
      </trkpt>
      <trkpt lat="44.42725" lon="1.3231">
        <ele>270</ele>
        <time>2019-04-14T11:10:54Z</time>
      </trkpt>
      <trkpt lat="44.42724" lon="1.32312">
        <ele>270</ele>
        <time>2019-04-14T11:10:55Z</time>
      </trkpt>
      <trkpt lat="44.42724" lon="1.32316">
        <ele>270</ele>
        <time>2019-04-14T11:10:56Z</time>
      </trkpt>
      <trkpt lat="44.42724" lon="1.32318">
        <ele>270</ele>
        <time>2019-04-14T11:10:57Z</time>
      </trkpt>
      <trkpt lat="44.42723" lon="1.32321">
        <ele>270</ele>
        <time>2019-04-14T11:10:58Z</time>
      </trkpt>
      <trkpt lat="44.42723" lon="1.32323">
        <ele>270</ele>
        <time>2019-04-14T11:10:59Z</time>
      </trkpt>
      <trkpt lat="44.42722" lon="1.32325">
        <ele>270</ele>
        <time>2019-04-14T11:11:00Z</time>
      </trkpt>
      <trkpt lat="44.42721" lon="1.32326">
        <ele>270</ele>
        <time>2019-04-14T11:11:01Z</time>
      </trkpt>
      <trkpt lat="44.42721" lon="1.32327">
        <ele>271</ele>
        <time>2019-04-14T11:11:02Z</time>
      </trkpt>
      <trkpt lat="44.42719" lon="1.32328">
        <ele>271</ele>
        <time>2019-04-14T11:11:03Z</time>
      </trkpt>
      <trkpt lat="44.42718" lon="1.32329">
        <ele>271</ele>
        <time>2019-04-14T11:11:04Z</time>
      </trkpt>
      <trkpt lat="44.42718" lon="1.3233">
        <ele>272</ele>
        <time>2019-04-14T11:11:05Z</time>
      </trkpt>
      <trkpt lat="44.42717" lon="1.32332">
        <ele>272</ele>
        <time>2019-04-14T11:11:06Z</time>
      </trkpt>
      <trkpt lat="44.42716" lon="1.32333">
        <ele>272</ele>
        <time>2019-04-14T11:11:07Z</time>
      </trkpt>
      <trkpt lat="44.42716" lon="1.32335">
        <ele>272</ele>
        <time>2019-04-14T11:11:08Z</time>
      </trkpt>
      <trkpt lat="44.42715" lon="1.32337">
        <ele>272</ele>
        <time>2019-04-14T11:11:09Z</time>
      </trkpt>
      <trkpt lat="44.42715" lon="1.32339">
        <ele>273</ele>
        <time>2019-04-14T11:11:10Z</time>
      </trkpt>
      <trkpt lat="44.42714" lon="1.32341">
        <ele>273</ele>
        <time>2019-04-14T11:11:11Z</time>
      </trkpt>
      <trkpt lat="44.42714" lon="1.32343">
        <ele>273</ele>
        <time>2019-04-14T11:11:12Z</time>
      </trkpt>
      <trkpt lat="44.42713" lon="1.32345">
        <ele>273</ele>
        <time>2019-04-14T11:11:13Z</time>
      </trkpt>
      <trkpt lat="44.42712" lon="1.32347">
        <ele>273</ele>
        <time>2019-04-14T11:11:14Z</time>
      </trkpt>
      <trkpt lat="44.42712" lon="1.32348">
        <ele>273</ele>
        <time>2019-04-14T11:11:15Z</time>
      </trkpt>
      <trkpt lat="44.42711" lon="1.3235">
        <ele>273</ele>
        <time>2019-04-14T11:11:16Z</time>
      </trkpt>
      <trkpt lat="44.42711" lon="1.32352">
        <ele>274</ele>
        <time>2019-04-14T11:11:17Z</time>
      </trkpt>
      <trkpt lat="44.4271" lon="1.32354">
        <ele>274</ele>
        <time>2019-04-14T11:11:18Z</time>
      </trkpt>
      <trkpt lat="44.42711" lon="1.32356">
        <ele>274</ele>
        <time>2019-04-14T11:11:19Z</time>
      </trkpt>
      <trkpt lat="44.42711" lon="1.32359">
        <ele>274</ele>
        <time>2019-04-14T11:11:20Z</time>
      </trkpt>
      <trkpt lat="44.42711" lon="1.32361">
        <ele>274</ele>
        <time>2019-04-14T11:11:21Z</time>
      </trkpt>
      <trkpt lat="44.42712" lon="1.32364">
        <ele>274</ele>
        <time>2019-04-14T11:11:22Z</time>
      </trkpt>
      <trkpt lat="44.42712" lon="1.32366">
        <ele>274</ele>
        <time>2019-04-14T11:11:23Z</time>
      </trkpt>
      <trkpt lat="44.42713" lon="1.32368">
        <ele>273</ele>
        <time>2019-04-14T11:11:24Z</time>
      </trkpt>
      <trkpt lat="44.42715" lon="1.32371">
        <ele>273</ele>
        <time>2019-04-14T11:11:25Z</time>
      </trkpt>
      <trkpt lat="44.42717" lon="1.32374">
        <ele>273</ele>
        <time>2019-04-14T11:11:26Z</time>
      </trkpt>
      <trkpt lat="44.42719" lon="1.32377">
        <ele>272</ele>
        <time>2019-04-14T11:11:27Z</time>
      </trkpt>
      <trkpt lat="44.42721" lon="1.32379">
        <ele>272</ele>
        <time>2019-04-14T11:11:28Z</time>
      </trkpt>
      <trkpt lat="44.42723" lon="1.32381">
        <ele>271</ele>
        <time>2019-04-14T11:11:29Z</time>
      </trkpt>
      <trkpt lat="44.42724" lon="1.32382">
        <ele>271</ele>
        <time>2019-04-14T11:11:30Z</time>
      </trkpt>
      <trkpt lat="44.42726" lon="1.32384">
        <ele>271</ele>
        <time>2019-04-14T11:11:31Z</time>
      </trkpt>
      <trkpt lat="44.42728" lon="1.32385">
        <ele>270</ele>
        <time>2019-04-14T11:11:32Z</time>
      </trkpt>
      <trkpt lat="44.4273" lon="1.32387">
        <ele>270</ele>
        <time>2019-04-14T11:11:33Z</time>
      </trkpt>
      <trkpt lat="44.42732" lon="1.32387">
        <ele>269</ele>
        <time>2019-04-14T11:11:34Z</time>
      </trkpt>
      <trkpt lat="44.42733" lon="1.32387">
        <ele>269</ele>
        <time>2019-04-14T11:11:35Z</time>
      </trkpt>
      <trkpt lat="44.42734" lon="1.32388">
        <ele>269</ele>
        <time>2019-04-14T11:11:36Z</time>
      </trkpt>
      <trkpt lat="44.42735" lon="1.32388">
        <ele>269</ele>
        <time>2019-04-14T11:11:37Z</time>
      </trkpt>
      <trkpt lat="44.42737" lon="1.32389">
        <ele>268</ele>
        <time>2019-04-14T11:11:38Z</time>
      </trkpt>
      <trkpt lat="44.42738" lon="1.3239">
        <ele>268</ele>
        <time>2019-04-14T11:11:39Z</time>
      </trkpt>
      <trkpt lat="44.4274" lon="1.32391">
        <ele>268</ele>
        <time>2019-04-14T11:11:40Z</time>
      </trkpt>
      <trkpt lat="44.42741" lon="1.32392">
        <ele>268</ele>
        <time>2019-04-14T11:11:41Z</time>
      </trkpt>
      <trkpt lat="44.42742" lon="1.32393">
        <ele>268</ele>
        <time>2019-04-14T11:11:42Z</time>
      </trkpt>
      <trkpt lat="44.42743" lon="1.32395">
        <ele>268</ele>
        <time>2019-04-14T11:11:43Z</time>
      </trkpt>
      <trkpt lat="44.42744" lon="1.32396">
        <ele>269</ele>
        <time>2019-04-14T11:11:44Z</time>
      </trkpt>
      <trkpt lat="44.42745" lon="1.32397">
        <ele>269</ele>
        <time>2019-04-14T11:11:45Z</time>
      </trkpt>
      <trkpt lat="44.42745" lon="1.32397">
        <ele>269</ele>
        <time>2019-04-14T11:11:46Z</time>
      </trkpt>
      <trkpt lat="44.42745" lon="1.32398">
        <ele>269</ele>
        <time>2019-04-14T11:11:47Z</time>
      </trkpt>
      <trkpt lat="44.42746" lon="1.32399">
        <ele>270</ele>
        <time>2019-04-14T11:11:48Z</time>
      </trkpt>
      <trkpt lat="44.42748" lon="1.324">
        <ele>270</ele>
        <time>2019-04-14T11:11:49Z</time>
      </trkpt>
      <trkpt lat="44.42749" lon="1.32401">
        <ele>270</ele>
        <time>2019-04-14T11:11:50Z</time>
      </trkpt>
      <trkpt lat="44.4275" lon="1.32401">
        <ele>270</ele>
        <time>2019-04-14T11:11:51Z</time>
      </trkpt>
      <trkpt lat="44.42752" lon="1.32402">
        <ele>270</ele>
        <time>2019-04-14T11:11:52Z</time>
      </trkpt>
      <trkpt lat="44.42754" lon="1.32401">
        <ele>270</ele>
        <time>2019-04-14T11:11:53Z</time>
      </trkpt>
      <trkpt lat="44.42757" lon="1.32401">
        <ele>270</ele>
        <time>2019-04-14T11:11:54Z</time>
      </trkpt>
      <trkpt lat="44.42759" lon="1.32401">
        <ele>269</ele>
        <time>2019-04-14T11:11:55Z</time>
      </trkpt>
      <trkpt lat="44.42761" lon="1.32399">
        <ele>269</ele>
        <time>2019-04-14T11:11:56Z</time>
      </trkpt>
      <trkpt lat="44.42764" lon="1.32398">
        <ele>269</ele>
        <time>2019-04-14T11:11:57Z</time>
      </trkpt>
      <trkpt lat="44.42766" lon="1.32396">
        <ele>268</ele>
        <time>2019-04-14T11:11:58Z</time>
      </trkpt>
      <trkpt lat="44.42768" lon="1.32394">
        <ele>268</ele>
        <time>2019-04-14T11:11:59Z</time>
      </trkpt>
      <trkpt lat="44.4277" lon="1.32391">
        <ele>267</ele>
        <time>2019-04-14T11:12:00Z</time>
      </trkpt>
      <trkpt lat="44.42772" lon="1.32388">
        <ele>267</ele>
        <time>2019-04-14T11:12:01Z</time>
      </trkpt>
      <trkpt lat="44.42774" lon="1.32386">
        <ele>266</ele>
        <time>2019-04-14T11:12:02Z</time>
      </trkpt>
      <trkpt lat="44.42775" lon="1.32384">
        <ele>266</ele>
        <time>2019-04-14T11:12:03Z</time>
      </trkpt>
      <trkpt lat="44.42778" lon="1.32383">
        <ele>265</ele>
        <time>2019-04-14T11:12:04Z</time>
      </trkpt>
      <trkpt lat="44.42779" lon="1.32383">
        <ele>265</ele>
        <time>2019-04-14T11:12:05Z</time>
      </trkpt>
      <trkpt lat="44.4278" lon="1.32383">
        <ele>265</ele>
        <time>2019-04-14T11:12:06Z</time>
      </trkpt>
      <trkpt lat="44.42781" lon="1.32383">
        <ele>266</ele>
        <time>2019-04-14T11:12:07Z</time>
      </trkpt>
      <trkpt lat="44.42783" lon="1.32382">
        <ele>266</ele>
        <time>2019-04-14T11:12:08Z</time>
      </trkpt>
      <trkpt lat="44.42784" lon="1.32381">
        <ele>266</ele>
        <time>2019-04-14T11:12:09Z</time>
      </trkpt>
      <trkpt lat="44.42785" lon="1.32381">
        <ele>266</ele>
        <time>2019-04-14T11:12:10Z</time>
      </trkpt>
      <trkpt lat="44.42785" lon="1.32379">
        <ele>266</ele>
        <time>2019-04-14T11:12:11Z</time>
      </trkpt>
      <trkpt lat="44.42786" lon="1.32379">
        <ele>266</ele>
        <time>2019-04-14T11:12:12Z</time>
      </trkpt>
      <trkpt lat="44.42787" lon="1.32379">
        <ele>266</ele>
        <time>2019-04-14T11:12:13Z</time>
      </trkpt>
      <trkpt lat="44.42789" lon="1.32379">
        <ele>266</ele>
        <time>2019-04-14T11:12:14Z</time>
      </trkpt>
      <trkpt lat="44.42791" lon="1.32379">
        <ele>267</ele>
        <time>2019-04-14T11:12:15Z</time>
      </trkpt>
      <trkpt lat="44.42792" lon="1.32379">
        <ele>267</ele>
        <time>2019-04-14T11:12:16Z</time>
      </trkpt>
      <trkpt lat="44.42794" lon="1.32379">
        <ele>267</ele>
        <time>2019-04-14T11:12:17Z</time>
      </trkpt>
      <trkpt lat="44.42796" lon="1.32379">
        <ele>267</ele>
        <time>2019-04-14T11:12:18Z</time>
      </trkpt>
      <trkpt lat="44.42797" lon="1.32379">
        <ele>267</ele>
        <time>2019-04-14T11:12:19Z</time>
      </trkpt>
      <trkpt lat="44.42799" lon="1.32378">
        <ele>268</ele>
        <time>2019-04-14T11:12:20Z</time>
      </trkpt>
      <trkpt lat="44.428" lon="1.32377">
        <ele>268</ele>
        <time>2019-04-14T11:12:21Z</time>
      </trkpt>
      <trkpt lat="44.42802" lon="1.32376">
        <ele>267</ele>
        <time>2019-04-14T11:12:22Z</time>
      </trkpt>
      <trkpt lat="44.42804" lon="1.32374">
        <ele>267</ele>
        <time>2019-04-14T11:12:23Z</time>
      </trkpt>
      <trkpt lat="44.42806" lon="1.32373">
        <ele>267</ele>
        <time>2019-04-14T11:12:24Z</time>
      </trkpt>
      <trkpt lat="44.42809" lon="1.32372">
        <ele>267</ele>
        <time>2019-04-14T11:12:25Z</time>
      </trkpt>
      <trkpt lat="44.42811" lon="1.32372">
        <ele>267</ele>
        <time>2019-04-14T11:12:26Z</time>
      </trkpt>
      <trkpt lat="44.42813" lon="1.32371">
        <ele>267</ele>
        <time>2019-04-14T11:12:27Z</time>
      </trkpt>
      <trkpt lat="44.42815" lon="1.3237">
        <ele>267</ele>
        <time>2019-04-14T11:12:28Z</time>
      </trkpt>
      <trkpt lat="44.42817" lon="1.32369">
        <ele>267</ele>
        <time>2019-04-14T11:12:29Z</time>
      </trkpt>
      <trkpt lat="44.42819" lon="1.32368">
        <ele>267</ele>
        <time>2019-04-14T11:12:30Z</time>
      </trkpt>
      <trkpt lat="44.42821" lon="1.32368">
        <ele>267</ele>
        <time>2019-04-14T11:12:31Z</time>
      </trkpt>
      <trkpt lat="44.42823" lon="1.32368">
        <ele>267</ele>
        <time>2019-04-14T11:12:32Z</time>
      </trkpt>
      <trkpt lat="44.42825" lon="1.32368">
        <ele>267</ele>
        <time>2019-04-14T11:12:33Z</time>
      </trkpt>
      <trkpt lat="44.42827" lon="1.32368">
        <ele>268</ele>
        <time>2019-04-14T11:12:34Z</time>
      </trkpt>
      <trkpt lat="44.42828" lon="1.32368">
        <ele>268</ele>
        <time>2019-04-14T11:12:35Z</time>
      </trkpt>
      <trkpt lat="44.4283" lon="1.32368">
        <ele>268</ele>
        <time>2019-04-14T11:12:36Z</time>
      </trkpt>
      <trkpt lat="44.42832" lon="1.32368">
        <ele>268</ele>
        <time>2019-04-14T11:12:37Z</time>
      </trkpt>
      <trkpt lat="44.42833" lon="1.32368">
        <ele>268</ele>
        <time>2019-04-14T11:12:38Z</time>
      </trkpt>
      <trkpt lat="44.42834" lon="1.32366">
        <ele>268</ele>
        <time>2019-04-14T11:12:39Z</time>
      </trkpt>
      <trkpt lat="44.42835" lon="1.32365">
        <ele>268</ele>
        <time>2019-04-14T11:12:40Z</time>
      </trkpt>
      <trkpt lat="44.42835" lon="1.32364">
        <ele>268</ele>
        <time>2019-04-14T11:12:41Z</time>
      </trkpt>
      <trkpt lat="44.42838" lon="1.32362">
        <ele>268</ele>
        <time>2019-04-14T11:12:42Z</time>
      </trkpt>
      <trkpt lat="44.42841" lon="1.32361">
        <ele>267</ele>
        <time>2019-04-14T11:12:43Z</time>
      </trkpt>
      <trkpt lat="44.42844" lon="1.3236">
        <ele>267</ele>
        <time>2019-04-14T11:12:44Z</time>
      </trkpt>
      <trkpt lat="44.42848" lon="1.32359">
        <ele>267</ele>
        <time>2019-04-14T11:12:45Z</time>
      </trkpt>
      <trkpt lat="44.42851" lon="1.32358">
        <ele>267</ele>
        <time>2019-04-14T11:12:46Z</time>
      </trkpt>
      <trkpt lat="44.42854" lon="1.32355">
        <ele>267</ele>
        <time>2019-04-14T11:12:47Z</time>
      </trkpt>
      <trkpt lat="44.42855" lon="1.32352">
        <ele>267</ele>
        <time>2019-04-14T11:12:48Z</time>
      </trkpt>
      <trkpt lat="44.42859" lon="1.32351">
        <ele>266</ele>
        <time>2019-04-14T11:12:49Z</time>
      </trkpt>
      <trkpt lat="44.42863" lon="1.32348">
        <ele>266</ele>
        <time>2019-04-14T11:12:50Z</time>
      </trkpt>
      <trkpt lat="44.42867" lon="1.32344">
        <ele>265</ele>
        <time>2019-04-14T11:12:51Z</time>
      </trkpt>
      <trkpt lat="44.42872" lon="1.32341">
        <ele>265</ele>
        <time>2019-04-14T11:12:52Z</time>
      </trkpt>
      <trkpt lat="44.42876" lon="1.32339">
        <ele>264</ele>
        <time>2019-04-14T11:12:53Z</time>
      </trkpt>
      <trkpt lat="44.42881" lon="1.32338">
        <ele>264</ele>
        <time>2019-04-14T11:12:54Z</time>
      </trkpt>
      <trkpt lat="44.42884" lon="1.32339">
        <ele>264</ele>
        <time>2019-04-14T11:12:55Z</time>
      </trkpt>
      <trkpt lat="44.42886" lon="1.3234">
        <ele>264</ele>
        <time>2019-04-14T11:12:56Z</time>
      </trkpt>
      <trkpt lat="44.42887" lon="1.32341">
        <ele>265</ele>
        <time>2019-04-14T11:12:57Z</time>
      </trkpt>
      <trkpt lat="44.42888" lon="1.32341">
        <ele>265</ele>
        <time>2019-04-14T11:12:58Z</time>
      </trkpt>
      <trkpt lat="44.4289" lon="1.32342">
        <ele>265</ele>
        <time>2019-04-14T11:12:59Z</time>
      </trkpt>
      <trkpt lat="44.42891" lon="1.32343">
        <ele>266</ele>
        <time>2019-04-14T11:13:00Z</time>
      </trkpt>
      <trkpt lat="44.42892" lon="1.32342">
        <ele>266</ele>
        <time>2019-04-14T11:13:01Z</time>
      </trkpt>
      <trkpt lat="44.42893" lon="1.32342">
        <ele>266</ele>
        <time>2019-04-14T11:13:02Z</time>
      </trkpt>
      <trkpt lat="44.42895" lon="1.32343">
        <ele>266</ele>
        <time>2019-04-14T11:13:03Z</time>
      </trkpt>
      <trkpt lat="44.42897" lon="1.32344">
        <ele>267</ele>
        <time>2019-04-14T11:13:04Z</time>
      </trkpt>
      <trkpt lat="44.42898" lon="1.32345">
        <ele>267</ele>
        <time>2019-04-14T11:13:05Z</time>
      </trkpt>
      <trkpt lat="44.42899" lon="1.32346">
        <ele>267</ele>
        <time>2019-04-14T11:13:06Z</time>
      </trkpt>
      <trkpt lat="44.429" lon="1.32346">
        <ele>268</ele>
        <time>2019-04-14T11:13:07Z</time>
      </trkpt>
      <trkpt lat="44.42901" lon="1.32347">
        <ele>268</ele>
        <time>2019-04-14T11:13:08Z</time>
      </trkpt>
      <trkpt lat="44.42902" lon="1.32348">
        <ele>268</ele>
        <time>2019-04-14T11:13:09Z</time>
      </trkpt>
      <trkpt lat="44.42903" lon="1.32348">
        <ele>268</ele>
        <time>2019-04-14T11:13:10Z</time>
      </trkpt>
      <trkpt lat="44.42905" lon="1.32348">
        <ele>268</ele>
        <time>2019-04-14T11:13:11Z</time>
      </trkpt>
      <trkpt lat="44.42906" lon="1.32349">
        <ele>268</ele>
        <time>2019-04-14T11:13:12Z</time>
      </trkpt>
      <trkpt lat="44.42908" lon="1.32349">
        <ele>268</ele>
        <time>2019-04-14T11:13:13Z</time>
      </trkpt>
      <trkpt lat="44.4291" lon="1.3235">
        <ele>268</ele>
        <time>2019-04-14T11:13:14Z</time>
      </trkpt>
      <trkpt lat="44.42911" lon="1.32351">
        <ele>268</ele>
        <time>2019-04-14T11:13:15Z</time>
      </trkpt>
      <trkpt lat="44.42911" lon="1.32351">
        <ele>268</ele>
        <time>2019-04-14T11:13:16Z</time>
      </trkpt>
      <trkpt lat="44.42912" lon="1.32351">
        <ele>268</ele>
        <time>2019-04-14T11:13:17Z</time>
      </trkpt>
      <trkpt lat="44.42912" lon="1.32352">
        <ele>268</ele>
        <time>2019-04-14T11:13:18Z</time>
      </trkpt>
      <trkpt lat="44.42913" lon="1.32352">
        <ele>268</ele>
        <time>2019-04-14T11:13:19Z</time>
      </trkpt>
      <trkpt lat="44.42913" lon="1.32352">
        <ele>267</ele>
        <time>2019-04-14T11:13:20Z</time>
      </trkpt>
      <trkpt lat="44.42913" lon="1.32352">
        <ele>268</ele>
        <time>2019-04-14T11:13:21Z</time>
      </trkpt>
      <trkpt lat="44.42943" lon="1.32359">
        <ele>264</ele>
        <time>2019-04-14T11:14:38Z</time>
      </trkpt>
      <trkpt lat="44.42945" lon="1.32361">
        <ele>264</ele>
        <time>2019-04-14T11:14:39Z</time>
      </trkpt>
      <trkpt lat="44.42947" lon="1.32364">
        <ele>264</ele>
        <time>2019-04-14T11:14:40Z</time>
      </trkpt>
      <trkpt lat="44.42948" lon="1.32367">
        <ele>264</ele>
        <time>2019-04-14T11:14:41Z</time>
      </trkpt>
      <trkpt lat="44.4295" lon="1.32369">
        <ele>264</ele>
        <time>2019-04-14T11:14:42Z</time>
      </trkpt>
      <trkpt lat="44.42952" lon="1.32371">
        <ele>264</ele>
        <time>2019-04-14T11:14:43Z</time>
      </trkpt>
      <trkpt lat="44.42954" lon="1.32372">
        <ele>264</ele>
        <time>2019-04-14T11:14:44Z</time>
      </trkpt>
      <trkpt lat="44.42955" lon="1.32374">
        <ele>263</ele>
        <time>2019-04-14T11:14:45Z</time>
      </trkpt>
      <trkpt lat="44.42957" lon="1.32376">
        <ele>263</ele>
        <time>2019-04-14T11:14:46Z</time>
      </trkpt>
      <trkpt lat="44.42957" lon="1.32377">
        <ele>263</ele>
        <time>2019-04-14T11:14:47Z</time>
      </trkpt>
      <trkpt lat="44.42957" lon="1.32378">
        <ele>263</ele>
        <time>2019-04-14T11:14:48Z</time>
      </trkpt>
      <trkpt lat="44.42958" lon="1.32379">
        <ele>263</ele>
        <time>2019-04-14T11:14:49Z</time>
      </trkpt>
      <trkpt lat="44.4296" lon="1.32381">
        <ele>263</ele>
        <time>2019-04-14T11:14:50Z</time>
      </trkpt>
      <trkpt lat="44.4296" lon="1.32382">
        <ele>263</ele>
        <time>2019-04-14T11:14:51Z</time>
      </trkpt>
      <trkpt lat="44.4296" lon="1.32383">
        <ele>263</ele>
        <time>2019-04-14T11:14:52Z</time>
      </trkpt>
      <trkpt lat="44.4296" lon="1.32384">
        <ele>263</ele>
        <time>2019-04-14T11:14:53Z</time>
      </trkpt>
      <trkpt lat="44.4296" lon="1.32385">
        <ele>263</ele>
        <time>2019-04-14T11:14:54Z</time>
      </trkpt>
      <trkpt lat="44.42961" lon="1.32386">
        <ele>263</ele>
        <time>2019-04-14T11:14:55Z</time>
      </trkpt>
      <trkpt lat="44.4296" lon="1.32386">
        <ele>264</ele>
        <time>2019-04-14T11:14:56Z</time>
      </trkpt>
      <trkpt lat="44.4296" lon="1.32387">
        <ele>264</ele>
        <time>2019-04-14T11:14:57Z</time>
      </trkpt>
      <trkpt lat="44.42959" lon="1.32388">
        <ele>264</ele>
        <time>2019-04-14T11:14:58Z</time>
      </trkpt>
      <trkpt lat="44.42959" lon="1.3239">
        <ele>264</ele>
        <time>2019-04-14T11:14:59Z</time>
      </trkpt>
      <trkpt lat="44.4296" lon="1.32391">
        <ele>264</ele>
        <time>2019-04-14T11:15:00Z</time>
      </trkpt>
      <trkpt lat="44.4296" lon="1.32392">
        <ele>264</ele>
        <time>2019-04-14T11:15:01Z</time>
      </trkpt>
      <trkpt lat="44.4296" lon="1.32394">
        <ele>264</ele>
        <time>2019-04-14T11:15:02Z</time>
      </trkpt>
      <trkpt lat="44.4296" lon="1.32396">
        <ele>264</ele>
        <time>2019-04-14T11:15:03Z</time>
      </trkpt>
      <trkpt lat="44.4296" lon="1.32398">
        <ele>264</ele>
        <time>2019-04-14T11:15:04Z</time>
      </trkpt>
      <trkpt lat="44.4296" lon="1.324">
        <ele>264</ele>
        <time>2019-04-14T11:15:05Z</time>
      </trkpt>
      <trkpt lat="44.42961" lon="1.32402">
        <ele>264</ele>
        <time>2019-04-14T11:15:06Z</time>
      </trkpt>
      <trkpt lat="44.42963" lon="1.32406">
        <ele>264</ele>
        <time>2019-04-14T11:15:07Z</time>
      </trkpt>
      <trkpt lat="44.42964" lon="1.32409">
        <ele>264</ele>
        <time>2019-04-14T11:15:08Z</time>
      </trkpt>
      <trkpt lat="44.42965" lon="1.32412">
        <ele>264</ele>
        <time>2019-04-14T11:15:09Z</time>
      </trkpt>
      <trkpt lat="44.42966" lon="1.32415">
        <ele>264</ele>
        <time>2019-04-14T11:15:10Z</time>
      </trkpt>
      <trkpt lat="44.42967" lon="1.32418">
        <ele>264</ele>
        <time>2019-04-14T11:15:11Z</time>
      </trkpt>
      <trkpt lat="44.42967" lon="1.32421">
        <ele>265</ele>
        <time>2019-04-14T11:15:12Z</time>
      </trkpt>
      <trkpt lat="44.42967" lon="1.32424">
        <ele>265</ele>
        <time>2019-04-14T11:15:13Z</time>
      </trkpt>
      <trkpt lat="44.42968" lon="1.32427">
        <ele>265</ele>
        <time>2019-04-14T11:15:14Z</time>
      </trkpt>
      <trkpt lat="44.42969" lon="1.3243">
        <ele>265</ele>
        <time>2019-04-14T11:15:15Z</time>
      </trkpt>
      <trkpt lat="44.4297" lon="1.32433">
        <ele>265</ele>
        <time>2019-04-14T11:15:16Z</time>
      </trkpt>
      <trkpt lat="44.4297" lon="1.32436">
        <ele>265</ele>
        <time>2019-04-14T11:15:17Z</time>
      </trkpt>
      <trkpt lat="44.42971" lon="1.32439">
        <ele>265</ele>
        <time>2019-04-14T11:15:18Z</time>
      </trkpt>
      <trkpt lat="44.42971" lon="1.32442">
        <ele>265</ele>
        <time>2019-04-14T11:15:19Z</time>
      </trkpt>
      <trkpt lat="44.42971" lon="1.32445">
        <ele>265</ele>
        <time>2019-04-14T11:15:20Z</time>
      </trkpt>
      <trkpt lat="44.42971" lon="1.32448">
        <ele>265</ele>
        <time>2019-04-14T11:15:21Z</time>
      </trkpt>
      <trkpt lat="44.4297" lon="1.3245">
        <ele>265</ele>
        <time>2019-04-14T11:15:22Z</time>
      </trkpt>
      <trkpt lat="44.42971" lon="1.32453">
        <ele>265</ele>
        <time>2019-04-14T11:15:23Z</time>
      </trkpt>
      <trkpt lat="44.42972" lon="1.32456">
        <ele>265</ele>
        <time>2019-04-14T11:15:24Z</time>
      </trkpt>
      <trkpt lat="44.42973" lon="1.32459">
        <ele>265</ele>
        <time>2019-04-14T11:15:25Z</time>
      </trkpt>
      <trkpt lat="44.42973" lon="1.32463">
        <ele>265</ele>
        <time>2019-04-14T11:15:26Z</time>
      </trkpt>
      <trkpt lat="44.42973" lon="1.32465">
        <ele>265</ele>
        <time>2019-04-14T11:15:27Z</time>
      </trkpt>
      <trkpt lat="44.42972" lon="1.32468">
        <ele>266</ele>
        <time>2019-04-14T11:15:28Z</time>
      </trkpt>
      <trkpt lat="44.42971" lon="1.3247">
        <ele>266</ele>
        <time>2019-04-14T11:15:29Z</time>
      </trkpt>
      <trkpt lat="44.42971" lon="1.32472">
        <ele>266</ele>
        <time>2019-04-14T11:15:30Z</time>
      </trkpt>
      <trkpt lat="44.4297" lon="1.32473">
        <ele>267</ele>
        <time>2019-04-14T11:15:31Z</time>
      </trkpt>
      <trkpt lat="44.4297" lon="1.32475">
        <ele>267</ele>
        <time>2019-04-14T11:15:32Z</time>
      </trkpt>
      <trkpt lat="44.4297" lon="1.32477">
        <ele>267</ele>
        <time>2019-04-14T11:15:33Z</time>
      </trkpt>
      <trkpt lat="44.42969" lon="1.32478">
        <ele>267</ele>
        <time>2019-04-14T11:15:34Z</time>
      </trkpt>
      <trkpt lat="44.42968" lon="1.3248">
        <ele>268</ele>
        <time>2019-04-14T11:15:35Z</time>
      </trkpt>
      <trkpt lat="44.42968" lon="1.32482">
        <ele>268</ele>
        <time>2019-04-14T11:15:36Z</time>
      </trkpt>
      <trkpt lat="44.42968" lon="1.32483">
        <ele>268</ele>
        <time>2019-04-14T11:15:37Z</time>
      </trkpt>
      <trkpt lat="44.42967" lon="1.32485">
        <ele>268</ele>
        <time>2019-04-14T11:15:38Z</time>
      </trkpt>
      <trkpt lat="44.42967" lon="1.32486">
        <ele>268</ele>
        <time>2019-04-14T11:15:39Z</time>
      </trkpt>
      <trkpt lat="44.42967" lon="1.32488">
        <ele>268</ele>
        <time>2019-04-14T11:15:40Z</time>
      </trkpt>
      <trkpt lat="44.42966" lon="1.32489">
        <ele>269</ele>
        <time>2019-04-14T11:15:41Z</time>
      </trkpt>
      <trkpt lat="44.42966" lon="1.32491">
        <ele>269</ele>
        <time>2019-04-14T11:15:42Z</time>
      </trkpt>
      <trkpt lat="44.42966" lon="1.32493">
        <ele>269</ele>
        <time>2019-04-14T11:15:43Z</time>
      </trkpt>
      <trkpt lat="44.42966" lon="1.32495">
        <ele>269</ele>
        <time>2019-04-14T11:15:44Z</time>
      </trkpt>
      <trkpt lat="44.42967" lon="1.32497">
        <ele>269</ele>
        <time>2019-04-14T11:15:45Z</time>
      </trkpt>
      <trkpt lat="44.42966" lon="1.32499">
        <ele>269</ele>
        <time>2019-04-14T11:15:46Z</time>
      </trkpt>
      <trkpt lat="44.42967" lon="1.32501">
        <ele>269</ele>
        <time>2019-04-14T11:15:47Z</time>
      </trkpt>
      <trkpt lat="44.42967" lon="1.32503">
        <ele>269</ele>
        <time>2019-04-14T11:15:48Z</time>
      </trkpt>
      <trkpt lat="44.42967" lon="1.32505">
        <ele>269</ele>
        <time>2019-04-14T11:15:49Z</time>
      </trkpt>
      <trkpt lat="44.42967" lon="1.32507">
        <ele>269</ele>
        <time>2019-04-14T11:15:50Z</time>
      </trkpt>
      <trkpt lat="44.42966" lon="1.32509">
        <ele>270</ele>
        <time>2019-04-14T11:15:51Z</time>
      </trkpt>
      <trkpt lat="44.42966" lon="1.32511">
        <ele>270</ele>
        <time>2019-04-14T11:15:52Z</time>
      </trkpt>
      <trkpt lat="44.42966" lon="1.32512">
        <ele>270</ele>
        <time>2019-04-14T11:15:53Z</time>
      </trkpt>
      <trkpt lat="44.42965" lon="1.32514">
        <ele>270</ele>
        <time>2019-04-14T11:15:54Z</time>
      </trkpt>
      <trkpt lat="44.42966" lon="1.32516">
        <ele>270</ele>
        <time>2019-04-14T11:15:55Z</time>
      </trkpt>
      <trkpt lat="44.42966" lon="1.32518">
        <ele>270</ele>
        <time>2019-04-14T11:15:56Z</time>
      </trkpt>
      <trkpt lat="44.42967" lon="1.3252">
        <ele>270</ele>
        <time>2019-04-14T11:15:57Z</time>
      </trkpt>
      <trkpt lat="44.42968" lon="1.32522">
        <ele>270</ele>
        <time>2019-04-14T11:15:58Z</time>
      </trkpt>
      <trkpt lat="44.4297" lon="1.32524">
        <ele>270</ele>
        <time>2019-04-14T11:15:59Z</time>
      </trkpt>
      <trkpt lat="44.42972" lon="1.32527">
        <ele>270</ele>
        <time>2019-04-14T11:16:00Z</time>
      </trkpt>
      <trkpt lat="44.42974" lon="1.32529">
        <ele>269</ele>
        <time>2019-04-14T11:16:01Z</time>
      </trkpt>
      <trkpt lat="44.42977" lon="1.32531">
        <ele>269</ele>
        <time>2019-04-14T11:16:02Z</time>
      </trkpt>
      <trkpt lat="44.4298" lon="1.32534">
        <ele>269</ele>
        <time>2019-04-14T11:16:03Z</time>
      </trkpt>
      <trkpt lat="44.42983" lon="1.32536">
        <ele>268</ele>
        <time>2019-04-14T11:16:04Z</time>
      </trkpt>
      <trkpt lat="44.42985" lon="1.32537">
        <ele>268</ele>
        <time>2019-04-14T11:16:05Z</time>
      </trkpt>
      <trkpt lat="44.42989" lon="1.32539">
        <ele>267</ele>
        <time>2019-04-14T11:16:06Z</time>
      </trkpt>
      <trkpt lat="44.42992" lon="1.32539">
        <ele>267</ele>
        <time>2019-04-14T11:16:07Z</time>
      </trkpt>
      <trkpt lat="44.42996" lon="1.3254">
        <ele>266</ele>
        <time>2019-04-14T11:16:08Z</time>
      </trkpt>
      <trkpt lat="44.42999" lon="1.32539">
        <ele>265</ele>
        <time>2019-04-14T11:16:09Z</time>
      </trkpt>
      <trkpt lat="44.43004" lon="1.32539">
        <ele>265</ele>
        <time>2019-04-14T11:16:10Z</time>
      </trkpt>
      <trkpt lat="44.43008" lon="1.32538">
        <ele>265</ele>
        <time>2019-04-14T11:16:11Z</time>
      </trkpt>
      <trkpt lat="44.43012" lon="1.32538">
        <ele>264</ele>
        <time>2019-04-14T11:16:12Z</time>
      </trkpt>
      <trkpt lat="44.43016" lon="1.32538">
        <ele>264</ele>
        <time>2019-04-14T11:16:13Z</time>
      </trkpt>
      <trkpt lat="44.43021" lon="1.32537">
        <ele>263</ele>
        <time>2019-04-14T11:16:14Z</time>
      </trkpt>
      <trkpt lat="44.43025" lon="1.32537">
        <ele>263</ele>
        <time>2019-04-14T11:16:15Z</time>
      </trkpt>
      <trkpt lat="44.4303" lon="1.32537">
        <ele>263</ele>
        <time>2019-04-14T11:16:16Z</time>
      </trkpt>
      <trkpt lat="44.43034" lon="1.32536">
        <ele>263</ele>
        <time>2019-04-14T11:16:17Z</time>
      </trkpt>
      <trkpt lat="44.43037" lon="1.32535">
        <ele>262</ele>
        <time>2019-04-14T11:16:18Z</time>
      </trkpt>
      <trkpt lat="44.4304" lon="1.32533">
        <ele>262</ele>
        <time>2019-04-14T11:16:19Z</time>
      </trkpt>
      <trkpt lat="44.43043" lon="1.32531">
        <ele>261</ele>
        <time>2019-04-14T11:16:20Z</time>
      </trkpt>
      <trkpt lat="44.43045" lon="1.32528">
        <ele>261</ele>
        <time>2019-04-14T11:16:21Z</time>
      </trkpt>
      <trkpt lat="44.43048" lon="1.32526">
        <ele>260</ele>
        <time>2019-04-14T11:16:22Z</time>
      </trkpt>
      <trkpt lat="44.4305" lon="1.32523">
        <ele>260</ele>
        <time>2019-04-14T11:16:23Z</time>
      </trkpt>
      <trkpt lat="44.43052" lon="1.3252">
        <ele>259</ele>
        <time>2019-04-14T11:16:24Z</time>
      </trkpt>
      <trkpt lat="44.43055" lon="1.32518">
        <ele>259</ele>
        <time>2019-04-14T11:16:25Z</time>
      </trkpt>
      <trkpt lat="44.43057" lon="1.32516">
        <ele>258</ele>
        <time>2019-04-14T11:16:26Z</time>
      </trkpt>
      <trkpt lat="44.43059" lon="1.32515">
        <ele>258</ele>
        <time>2019-04-14T11:16:27Z</time>
      </trkpt>
      <trkpt lat="44.43062" lon="1.32514">
        <ele>259</ele>
        <time>2019-04-14T11:16:28Z</time>
      </trkpt>
      <trkpt lat="44.43063" lon="1.32513">
        <ele>259</ele>
        <time>2019-04-14T11:16:29Z</time>
      </trkpt>
      <trkpt lat="44.43065" lon="1.32513">
        <ele>258</ele>
        <time>2019-04-14T11:16:30Z</time>
      </trkpt>
      <trkpt lat="44.43067" lon="1.32514">
        <ele>258</ele>
        <time>2019-04-14T11:16:31Z</time>
      </trkpt>
      <trkpt lat="44.4307" lon="1.32516">
        <ele>258</ele>
        <time>2019-04-14T11:16:32Z</time>
      </trkpt>
      <trkpt lat="44.43071" lon="1.32518">
        <ele>258</ele>
        <time>2019-04-14T11:16:33Z</time>
      </trkpt>
      <trkpt lat="44.43073" lon="1.3252">
        <ele>258</ele>
        <time>2019-04-14T11:16:34Z</time>
      </trkpt>
      <trkpt lat="44.43074" lon="1.32523">
        <ele>258</ele>
        <time>2019-04-14T11:16:35Z</time>
      </trkpt>
      <trkpt lat="44.43075" lon="1.32526">
        <ele>259</ele>
        <time>2019-04-14T11:16:36Z</time>
      </trkpt>
      <trkpt lat="44.43075" lon="1.32529">
        <ele>259</ele>
        <time>2019-04-14T11:16:37Z</time>
      </trkpt>
      <trkpt lat="44.43075" lon="1.32532">
        <ele>259</ele>
        <time>2019-04-14T11:16:38Z</time>
      </trkpt>
      <trkpt lat="44.43076" lon="1.32535">
        <ele>259</ele>
        <time>2019-04-14T11:16:39Z</time>
      </trkpt>
      <trkpt lat="44.43077" lon="1.32538">
        <ele>259</ele>
        <time>2019-04-14T11:16:40Z</time>
      </trkpt>
      <trkpt lat="44.43078" lon="1.32541">
        <ele>259</ele>
        <time>2019-04-14T11:16:41Z</time>
      </trkpt>
      <trkpt lat="44.43078" lon="1.32544">
        <ele>260</ele>
        <time>2019-04-14T11:16:42Z</time>
      </trkpt>
      <trkpt lat="44.43078" lon="1.32546">
        <ele>260</ele>
        <time>2019-04-14T11:16:43Z</time>
      </trkpt>
      <trkpt lat="44.43078" lon="1.32549">
        <ele>260</ele>
        <time>2019-04-14T11:16:44Z</time>
      </trkpt>
      <trkpt lat="44.43078" lon="1.32552">
        <ele>260</ele>
        <time>2019-04-14T11:16:45Z</time>
      </trkpt>
      <trkpt lat="44.43078" lon="1.32555">
        <ele>260</ele>
        <time>2019-04-14T11:16:46Z</time>
      </trkpt>
      <trkpt lat="44.43079" lon="1.32558">
        <ele>261</ele>
        <time>2019-04-14T11:16:47Z</time>
      </trkpt>
      <trkpt lat="44.43078" lon="1.32561">
        <ele>261</ele>
        <time>2019-04-14T11:16:48Z</time>
      </trkpt>
      <trkpt lat="44.43078" lon="1.32564">
        <ele>261</ele>
        <time>2019-04-14T11:16:49Z</time>
      </trkpt>
      <trkpt lat="44.43078" lon="1.32567">
        <ele>261</ele>
        <time>2019-04-14T11:16:50Z</time>
      </trkpt>
      <trkpt lat="44.43078" lon="1.3257">
        <ele>261</ele>
        <time>2019-04-14T11:16:51Z</time>
      </trkpt>
      <trkpt lat="44.43078" lon="1.32573">
        <ele>262</ele>
        <time>2019-04-14T11:16:52Z</time>
      </trkpt>
      <trkpt lat="44.43078" lon="1.32575">
        <ele>262</ele>
        <time>2019-04-14T11:16:53Z</time>
      </trkpt>
      <trkpt lat="44.43078" lon="1.32578">
        <ele>262</ele>
        <time>2019-04-14T11:16:54Z</time>
      </trkpt>
      <trkpt lat="44.43077" lon="1.3258">
        <ele>262</ele>
        <time>2019-04-14T11:16:55Z</time>
      </trkpt>
      <trkpt lat="44.43077" lon="1.32583">
        <ele>262</ele>
        <time>2019-04-14T11:16:56Z</time>
      </trkpt>
      <trkpt lat="44.43078" lon="1.32585">
        <ele>262</ele>
        <time>2019-04-14T11:16:57Z</time>
      </trkpt>
      <trkpt lat="44.43079" lon="1.32588">
        <ele>262</ele>
        <time>2019-04-14T11:16:58Z</time>
      </trkpt>
      <trkpt lat="44.4308" lon="1.32591">
        <ele>262</ele>
        <time>2019-04-14T11:16:59Z</time>
      </trkpt>
      <trkpt lat="44.43081" lon="1.32595">
        <ele>262</ele>
        <time>2019-04-14T11:17:00Z</time>
      </trkpt>
      <trkpt lat="44.43082" lon="1.32598">
        <ele>262</ele>
        <time>2019-04-14T11:17:01Z</time>
      </trkpt>
      <trkpt lat="44.43082" lon="1.32601">
        <ele>262</ele>
        <time>2019-04-14T11:17:02Z</time>
      </trkpt>
      <trkpt lat="44.43083" lon="1.32605">
        <ele>262</ele>
        <time>2019-04-14T11:17:03Z</time>
      </trkpt>
      <trkpt lat="44.43084" lon="1.32608">
        <ele>262</ele>
        <time>2019-04-14T11:17:04Z</time>
      </trkpt>
      <trkpt lat="44.43084" lon="1.32612">
        <ele>262</ele>
        <time>2019-04-14T11:17:05Z</time>
      </trkpt>
      <trkpt lat="44.43083" lon="1.32615">
        <ele>262</ele>
        <time>2019-04-14T11:17:06Z</time>
      </trkpt>
      <trkpt lat="44.43084" lon="1.32619">
        <ele>262</ele>
        <time>2019-04-14T11:17:07Z</time>
      </trkpt>
      <trkpt lat="44.43085" lon="1.32622">
        <ele>262</ele>
        <time>2019-04-14T11:17:08Z</time>
      </trkpt>
      <trkpt lat="44.43086" lon="1.32625">
        <ele>262</ele>
        <time>2019-04-14T11:17:09Z</time>
      </trkpt>
      <trkpt lat="44.43087" lon="1.32628">
        <ele>262</ele>
        <time>2019-04-14T11:17:10Z</time>
      </trkpt>
      <trkpt lat="44.43088" lon="1.32632">
        <ele>262</ele>
        <time>2019-04-14T11:17:11Z</time>
      </trkpt>
      <trkpt lat="44.43089" lon="1.32635">
        <ele>262</ele>
        <time>2019-04-14T11:17:12Z</time>
      </trkpt>
      <trkpt lat="44.43089" lon="1.32639">
        <ele>262</ele>
        <time>2019-04-14T11:17:13Z</time>
      </trkpt>
      <trkpt lat="44.43089" lon="1.32642">
        <ele>262</ele>
        <time>2019-04-14T11:17:14Z</time>
      </trkpt>
      <trkpt lat="44.43088" lon="1.32645">
        <ele>262</ele>
        <time>2019-04-14T11:17:15Z</time>
      </trkpt>
      <trkpt lat="44.43089" lon="1.32648">
        <ele>262</ele>
        <time>2019-04-14T11:17:16Z</time>
      </trkpt>
      <trkpt lat="44.43091" lon="1.3265">
        <ele>262</ele>
        <time>2019-04-14T11:17:17Z</time>
      </trkpt>
      <trkpt lat="44.43094" lon="1.32652">
        <ele>262</ele>
        <time>2019-04-14T11:17:18Z</time>
      </trkpt>
      <trkpt lat="44.43097" lon="1.32654">
        <ele>261</ele>
        <time>2019-04-14T11:17:19Z</time>
      </trkpt>
      <trkpt lat="44.43099" lon="1.32658">
        <ele>261</ele>
        <time>2019-04-14T11:17:20Z</time>
      </trkpt>
      <trkpt lat="44.43102" lon="1.32662">
        <ele>260</ele>
        <time>2019-04-14T11:17:21Z</time>
      </trkpt>
      <trkpt lat="44.43104" lon="1.32667">
        <ele>260</ele>
        <time>2019-04-14T11:17:22Z</time>
      </trkpt>
      <trkpt lat="44.43107" lon="1.32672">
        <ele>259</ele>
        <time>2019-04-14T11:17:23Z</time>
      </trkpt>
      <trkpt lat="44.4311" lon="1.32676">
        <ele>259</ele>
        <time>2019-04-14T11:17:24Z</time>
      </trkpt>
      <trkpt lat="44.43113" lon="1.32679">
        <ele>257</ele>
        <time>2019-04-14T11:17:25Z</time>
      </trkpt>
      <trkpt lat="44.43117" lon="1.32683">
        <ele>257</ele>
        <time>2019-04-14T11:17:26Z</time>
      </trkpt>
      <trkpt lat="44.43122" lon="1.32685">
        <ele>256</ele>
        <time>2019-04-14T11:17:27Z</time>
      </trkpt>
      <trkpt lat="44.43127" lon="1.32687">
        <ele>255</ele>
        <time>2019-04-14T11:17:28Z</time>
      </trkpt>
      <trkpt lat="44.43133" lon="1.32688">
        <ele>255</ele>
        <time>2019-04-14T11:17:29Z</time>
      </trkpt>
      <trkpt lat="44.43138" lon="1.3269">
        <ele>255</ele>
        <time>2019-04-14T11:17:30Z</time>
      </trkpt>
      <trkpt lat="44.43142" lon="1.3269">
        <ele>255</ele>
        <time>2019-04-14T11:17:31Z</time>
      </trkpt>
      <trkpt lat="44.43145" lon="1.32691">
        <ele>255</ele>
        <time>2019-04-14T11:17:32Z</time>
      </trkpt>
      <trkpt lat="44.43148" lon="1.32692">
        <ele>256</ele>
        <time>2019-04-14T11:17:33Z</time>
      </trkpt>
      <trkpt lat="44.43151" lon="1.32693">
        <ele>256</ele>
        <time>2019-04-14T11:17:34Z</time>
      </trkpt>
      <trkpt lat="44.43153" lon="1.32694">
        <ele>257</ele>
        <time>2019-04-14T11:17:35Z</time>
      </trkpt>
      <trkpt lat="44.43155" lon="1.32694">
        <ele>257</ele>
        <time>2019-04-14T11:17:36Z</time>
      </trkpt>
      <trkpt lat="44.43157" lon="1.32694">
        <ele>258</ele>
        <time>2019-04-14T11:17:37Z</time>
      </trkpt>
      <trkpt lat="44.43159" lon="1.32693">
        <ele>258</ele>
        <time>2019-04-14T11:17:38Z</time>
      </trkpt>
      <trkpt lat="44.43161" lon="1.32693">
        <ele>259</ele>
        <time>2019-04-14T11:17:39Z</time>
      </trkpt>
      <trkpt lat="44.43163" lon="1.32692">
        <ele>259</ele>
        <time>2019-04-14T11:17:40Z</time>
      </trkpt>
      <trkpt lat="44.43165" lon="1.32691">
        <ele>259</ele>
        <time>2019-04-14T11:17:41Z</time>
      </trkpt>
      <trkpt lat="44.43166" lon="1.32689">
        <ele>259</ele>
        <time>2019-04-14T11:17:42Z</time>
      </trkpt>
      <trkpt lat="44.43167" lon="1.32687">
        <ele>259</ele>
        <time>2019-04-14T11:17:43Z</time>
      </trkpt>
      <trkpt lat="44.43168" lon="1.32684">
        <ele>259</ele>
        <time>2019-04-14T11:17:44Z</time>
      </trkpt>
      <trkpt lat="44.43169" lon="1.32682">
        <ele>259</ele>
        <time>2019-04-14T11:17:45Z</time>
      </trkpt>
      <trkpt lat="44.4317" lon="1.32679">
        <ele>259</ele>
        <time>2019-04-14T11:17:46Z</time>
      </trkpt>
      <trkpt lat="44.43172" lon="1.32677">
        <ele>259</ele>
        <time>2019-04-14T11:17:47Z</time>
      </trkpt>
      <trkpt lat="44.43173" lon="1.32675">
        <ele>259</ele>
        <time>2019-04-14T11:17:48Z</time>
      </trkpt>
      <trkpt lat="44.43175" lon="1.32672">
        <ele>260</ele>
        <time>2019-04-14T11:17:49Z</time>
      </trkpt>
      <trkpt lat="44.43176" lon="1.32669">
        <ele>259</ele>
        <time>2019-04-14T11:17:50Z</time>
      </trkpt>
      <trkpt lat="44.43177" lon="1.32666">
        <ele>259</ele>
        <time>2019-04-14T11:17:51Z</time>
      </trkpt>
      <trkpt lat="44.43179" lon="1.32663">
        <ele>259</ele>
        <time>2019-04-14T11:17:52Z</time>
      </trkpt>
      <trkpt lat="44.4318" lon="1.3266">
        <ele>259</ele>
        <time>2019-04-14T11:17:53Z</time>
      </trkpt>
      <trkpt lat="44.43182" lon="1.32657">
        <ele>259</ele>
        <time>2019-04-14T11:17:54Z</time>
      </trkpt>
      <trkpt lat="44.43184" lon="1.32656">
        <ele>259</ele>
        <time>2019-04-14T11:17:55Z</time>
      </trkpt>
      <trkpt lat="44.43186" lon="1.32654">
        <ele>259</ele>
        <time>2019-04-14T11:17:56Z</time>
      </trkpt>
      <trkpt lat="44.43188" lon="1.32651">
        <ele>259</ele>
        <time>2019-04-14T11:17:57Z</time>
      </trkpt>
      <trkpt lat="44.43189" lon="1.32648">
        <ele>258</ele>
        <time>2019-04-14T11:17:58Z</time>
      </trkpt>
      <trkpt lat="44.43191" lon="1.32643">
        <ele>258</ele>
        <time>2019-04-14T11:17:59Z</time>
      </trkpt>
      <trkpt lat="44.43194" lon="1.3264">
        <ele>258</ele>
        <time>2019-04-14T11:18:00Z</time>
      </trkpt>
      <trkpt lat="44.43196" lon="1.32637">
        <ele>258</ele>
        <time>2019-04-14T11:18:01Z</time>
      </trkpt>
      <trkpt lat="44.43198" lon="1.32634">
        <ele>258</ele>
        <time>2019-04-14T11:18:02Z</time>
      </trkpt>
      <trkpt lat="44.432" lon="1.32632">
        <ele>258</ele>
        <time>2019-04-14T11:18:03Z</time>
      </trkpt>
      <trkpt lat="44.43202" lon="1.32629">
        <ele>258</ele>
        <time>2019-04-14T11:18:04Z</time>
      </trkpt>
      <trkpt lat="44.43205" lon="1.32627">
        <ele>258</ele>
        <time>2019-04-14T11:18:05Z</time>
      </trkpt>
      <trkpt lat="44.43208" lon="1.32627">
        <ele>258</ele>
        <time>2019-04-14T11:18:06Z</time>
      </trkpt>
      <trkpt lat="44.4321" lon="1.32628">
        <ele>258</ele>
        <time>2019-04-14T11:18:07Z</time>
      </trkpt>
      <trkpt lat="44.43211" lon="1.3263">
        <ele>259</ele>
        <time>2019-04-14T11:18:08Z</time>
      </trkpt>
      <trkpt lat="44.43212" lon="1.32632">
        <ele>259</ele>
        <time>2019-04-14T11:18:09Z</time>
      </trkpt>
      <trkpt lat="44.43212" lon="1.32635">
        <ele>259</ele>
        <time>2019-04-14T11:18:10Z</time>
      </trkpt>
      <trkpt lat="44.43213" lon="1.32637">
        <ele>259</ele>
        <time>2019-04-14T11:18:11Z</time>
      </trkpt>
      <trkpt lat="44.43213" lon="1.3264">
        <ele>260</ele>
        <time>2019-04-14T11:18:12Z</time>
      </trkpt>
      <trkpt lat="44.43213" lon="1.32642">
        <ele>260</ele>
        <time>2019-04-14T11:18:13Z</time>
      </trkpt>
      <trkpt lat="44.43213" lon="1.32645">
        <ele>260</ele>
        <time>2019-04-14T11:18:14Z</time>
      </trkpt>
      <trkpt lat="44.43213" lon="1.32648">
        <ele>260</ele>
        <time>2019-04-14T11:18:15Z</time>
      </trkpt>
      <trkpt lat="44.43213" lon="1.3265">
        <ele>260</ele>
        <time>2019-04-14T11:18:16Z</time>
      </trkpt>
      <trkpt lat="44.43213" lon="1.32653">
        <ele>260</ele>
        <time>2019-04-14T11:18:17Z</time>
      </trkpt>
      <trkpt lat="44.43213" lon="1.32656">
        <ele>261</ele>
        <time>2019-04-14T11:18:18Z</time>
      </trkpt>
      <trkpt lat="44.43213" lon="1.3266">
        <ele>261</ele>
        <time>2019-04-14T11:18:19Z</time>
      </trkpt>
      <trkpt lat="44.43212" lon="1.32662">
        <ele>261</ele>
        <time>2019-04-14T11:18:20Z</time>
      </trkpt>
      <trkpt lat="44.43212" lon="1.32665">
        <ele>261</ele>
        <time>2019-04-14T11:18:21Z</time>
      </trkpt>
      <trkpt lat="44.43212" lon="1.32668">
        <ele>261</ele>
        <time>2019-04-14T11:18:22Z</time>
      </trkpt>
      <trkpt lat="44.43212" lon="1.32671">
        <ele>261</ele>
        <time>2019-04-14T11:18:23Z</time>
      </trkpt>
      <trkpt lat="44.43212" lon="1.32675">
        <ele>261</ele>
        <time>2019-04-14T11:18:24Z</time>
      </trkpt>
      <trkpt lat="44.43212" lon="1.32679">
        <ele>261</ele>
        <time>2019-04-14T11:18:25Z</time>
      </trkpt>
      <trkpt lat="44.43212" lon="1.32683">
        <ele>261</ele>
        <time>2019-04-14T11:18:26Z</time>
      </trkpt>
      <trkpt lat="44.43212" lon="1.32686">
        <ele>261</ele>
        <time>2019-04-14T11:18:27Z</time>
      </trkpt>
      <trkpt lat="44.43213" lon="1.3269">
        <ele>261</ele>
        <time>2019-04-14T11:18:28Z</time>
      </trkpt>
      <trkpt lat="44.43215" lon="1.32693">
        <ele>261</ele>
        <time>2019-04-14T11:18:29Z</time>
      </trkpt>
      <trkpt lat="44.43218" lon="1.32695">
        <ele>261</ele>
        <time>2019-04-14T11:18:30Z</time>
      </trkpt>
      <trkpt lat="44.4322" lon="1.32699">
        <ele>261</ele>
        <time>2019-04-14T11:18:31Z</time>
      </trkpt>
      <trkpt lat="44.43223" lon="1.32702">
        <ele>261</ele>
        <time>2019-04-14T11:18:32Z</time>
      </trkpt>
      <trkpt lat="44.43227" lon="1.32706">
        <ele>260</ele>
        <time>2019-04-14T11:18:33Z</time>
      </trkpt>
      <trkpt lat="44.43229" lon="1.32709">
        <ele>260</ele>
        <time>2019-04-14T11:18:34Z</time>
      </trkpt>
      <trkpt lat="44.43233" lon="1.32712">
        <ele>259</ele>
        <time>2019-04-14T11:18:35Z</time>
      </trkpt>
      <trkpt lat="44.43237" lon="1.32715">
        <ele>259</ele>
        <time>2019-04-14T11:18:36Z</time>
      </trkpt>
      <trkpt lat="44.4324" lon="1.32714">
        <ele>259</ele>
        <time>2019-04-14T11:18:37Z</time>
      </trkpt>
      <trkpt lat="44.43244" lon="1.32715">
        <ele>258</ele>
        <time>2019-04-14T11:18:38Z</time>
      </trkpt>
      <trkpt lat="44.43249" lon="1.32715">
        <ele>258</ele>
        <time>2019-04-14T11:18:39Z</time>
      </trkpt>
      <trkpt lat="44.43253" lon="1.32716">
        <ele>258</ele>
        <time>2019-04-14T11:18:40Z</time>
      </trkpt>
      <trkpt lat="44.43258" lon="1.32715">
        <ele>257</ele>
        <time>2019-04-14T11:18:41Z</time>
      </trkpt>
      <trkpt lat="44.43263" lon="1.32714">
        <ele>256</ele>
        <time>2019-04-14T11:18:42Z</time>
      </trkpt>
      <trkpt lat="44.43269" lon="1.32714">
        <ele>256</ele>
        <time>2019-04-14T11:18:43Z</time>
      </trkpt>
      <trkpt lat="44.43273" lon="1.32716">
        <ele>255</ele>
        <time>2019-04-14T11:18:44Z</time>
      </trkpt>
      <trkpt lat="44.43276" lon="1.32719">
        <ele>255</ele>
        <time>2019-04-14T11:18:45Z</time>
      </trkpt>
      <trkpt lat="44.43279" lon="1.32721">
        <ele>255</ele>
        <time>2019-04-14T11:18:46Z</time>
      </trkpt>
      <trkpt lat="44.43282" lon="1.32724">
        <ele>255</ele>
        <time>2019-04-14T11:18:47Z</time>
      </trkpt>
      <trkpt lat="44.43283" lon="1.32726">
        <ele>255</ele>
        <time>2019-04-14T11:18:48Z</time>
      </trkpt>
      <trkpt lat="44.43284" lon="1.32728">
        <ele>255</ele>
        <time>2019-04-14T11:18:49Z</time>
      </trkpt>
      <trkpt lat="44.43283" lon="1.3273">
        <ele>255</ele>
        <time>2019-04-14T11:18:50Z</time>
      </trkpt>
      <trkpt lat="44.43283" lon="1.3273">
        <ele>255</ele>
        <time>2019-04-14T11:18:51Z</time>
      </trkpt>
      <trkpt lat="44.43282" lon="1.3273">
        <ele>255</ele>
        <time>2019-04-14T11:18:52Z</time>
      </trkpt>
      <trkpt lat="44.43282" lon="1.32728">
        <ele>255</ele>
        <time>2019-04-14T11:18:53Z</time>
      </trkpt>
      <trkpt lat="44.43282" lon="1.32727">
        <ele>255</ele>
        <time>2019-04-14T11:18:54Z</time>
      </trkpt>
      <trkpt lat="44.43282" lon="1.32726">
        <ele>255</ele>
        <time>2019-04-14T11:18:55Z</time>
      </trkpt>
      <trkpt lat="44.43282" lon="1.32724">
        <ele>254</ele>
        <time>2019-04-14T11:18:56Z</time>
      </trkpt>
      <trkpt lat="44.43282" lon="1.32723">
        <ele>254</ele>
        <time>2019-04-14T11:18:57Z</time>
      </trkpt>
      <trkpt lat="44.43282" lon="1.32723">
        <ele>254</ele>
        <time>2019-04-14T11:18:58Z</time>
      </trkpt>
      <trkpt lat="44.43282" lon="1.32723">
        <ele>254</ele>
        <time>2019-04-14T11:18:59Z</time>
      </trkpt>
      <trkpt lat="44.43282" lon="1.32723">
        <ele>254</ele>
        <time>2019-04-14T11:19:00Z</time>
      </trkpt>
      <trkpt lat="44.43282" lon="1.32723">
        <ele>254</ele>
        <time>2019-04-14T11:19:01Z</time>
      </trkpt>
      <trkpt lat="44.43282" lon="1.32723">
        <ele>254</ele>
        <time>2019-04-14T11:19:02Z</time>
      </trkpt>
      <trkpt lat="44.43282" lon="1.32723">
        <ele>254</ele>
        <time>2019-04-14T11:19:03Z</time>
      </trkpt>
      <trkpt lat="44.43282" lon="1.32723">
        <ele>254</ele>
        <time>2019-04-14T11:19:04Z</time>
      </trkpt>
      <trkpt lat="44.43282" lon="1.32723">
        <ele>254</ele>
        <time>2019-04-14T11:19:05Z</time>
      </trkpt>
      <trkpt lat="44.43314" lon="1.3271">
        <ele>252</ele>
        <time>2019-04-14T11:19:25Z</time>
      </trkpt>
      <trkpt lat="44.43318" lon="1.32707">
        <ele>252</ele>
        <time>2019-04-14T11:19:26Z</time>
      </trkpt>
      <trkpt lat="44.43322" lon="1.32704">
        <ele>253</ele>
        <time>2019-04-14T11:19:27Z</time>
      </trkpt>
      <trkpt lat="44.43326" lon="1.32702">
        <ele>253</ele>
        <time>2019-04-14T11:19:28Z</time>
      </trkpt>
      <trkpt lat="44.43329" lon="1.327">
        <ele>253</ele>
        <time>2019-04-14T11:19:29Z</time>
      </trkpt>
      <trkpt lat="44.43332" lon="1.32699">
        <ele>254</ele>
        <time>2019-04-14T11:19:30Z</time>
      </trkpt>
      <trkpt lat="44.43335" lon="1.32697">
        <ele>254</ele>
        <time>2019-04-14T11:19:31Z</time>
      </trkpt>
      <trkpt lat="44.43338" lon="1.32696">
        <ele>254</ele>
        <time>2019-04-14T11:19:32Z</time>
      </trkpt>
      <trkpt lat="44.4334" lon="1.32695">
        <ele>254</ele>
        <time>2019-04-14T11:19:33Z</time>
      </trkpt>
      <trkpt lat="44.43343" lon="1.32693">
        <ele>254</ele>
        <time>2019-04-14T11:19:34Z</time>
      </trkpt>
      <trkpt lat="44.43345" lon="1.32692">
        <ele>254</ele>
        <time>2019-04-14T11:19:35Z</time>
      </trkpt>
      <trkpt lat="44.43346" lon="1.32691">
        <ele>255</ele>
        <time>2019-04-14T11:19:36Z</time>
      </trkpt>
      <trkpt lat="44.43347" lon="1.3269">
        <ele>255</ele>
        <time>2019-04-14T11:19:37Z</time>
      </trkpt>
      <trkpt lat="44.43349" lon="1.32688">
        <ele>255</ele>
        <time>2019-04-14T11:19:38Z</time>
      </trkpt>
      <trkpt lat="44.43351" lon="1.32687">
        <ele>255</ele>
        <time>2019-04-14T11:19:39Z</time>
      </trkpt>
      <trkpt lat="44.43353" lon="1.32686">
        <ele>255</ele>
        <time>2019-04-14T11:19:40Z</time>
      </trkpt>
      <trkpt lat="44.43355" lon="1.32685">
        <ele>255</ele>
        <time>2019-04-14T11:19:41Z</time>
      </trkpt>
      <trkpt lat="44.43356" lon="1.32683">
        <ele>256</ele>
        <time>2019-04-14T11:19:42Z</time>
      </trkpt>
      <trkpt lat="44.43358" lon="1.32682">
        <ele>256</ele>
        <time>2019-04-14T11:19:43Z</time>
      </trkpt>
      <trkpt lat="44.4336" lon="1.3268">
        <ele>256</ele>
        <time>2019-04-14T11:19:44Z</time>
      </trkpt>
      <trkpt lat="44.43361" lon="1.32679">
        <ele>256</ele>
        <time>2019-04-14T11:19:45Z</time>
      </trkpt>
      <trkpt lat="44.43363" lon="1.32678">
        <ele>256</ele>
        <time>2019-04-14T11:19:46Z</time>
      </trkpt>
      <trkpt lat="44.43365" lon="1.32677">
        <ele>256</ele>
        <time>2019-04-14T11:19:47Z</time>
      </trkpt>
      <trkpt lat="44.43367" lon="1.32676">
        <ele>257</ele>
        <time>2019-04-14T11:19:48Z</time>
      </trkpt>
      <trkpt lat="44.43369" lon="1.32674">
        <ele>257</ele>
        <time>2019-04-14T11:19:49Z</time>
      </trkpt>
      <trkpt lat="44.4337" lon="1.32673">
        <ele>257</ele>
        <time>2019-04-14T11:19:50Z</time>
      </trkpt>
      <trkpt lat="44.43371" lon="1.32671">
        <ele>257</ele>
        <time>2019-04-14T11:19:51Z</time>
      </trkpt>
      <trkpt lat="44.43372" lon="1.32669">
        <ele>257</ele>
        <time>2019-04-14T11:19:52Z</time>
      </trkpt>
      <trkpt lat="44.43374" lon="1.32669">
        <ele>257</ele>
        <time>2019-04-14T11:19:53Z</time>
      </trkpt>
      <trkpt lat="44.43375" lon="1.32669">
        <ele>257</ele>
        <time>2019-04-14T11:19:54Z</time>
      </trkpt>
      <trkpt lat="44.43377" lon="1.32668">
        <ele>257</ele>
        <time>2019-04-14T11:19:55Z</time>
      </trkpt>
      <trkpt lat="44.43379" lon="1.32668">
        <ele>257</ele>
        <time>2019-04-14T11:19:56Z</time>
      </trkpt>
      <trkpt lat="44.4338" lon="1.32667">
        <ele>257</ele>
        <time>2019-04-14T11:19:57Z</time>
      </trkpt>
      <trkpt lat="44.43382" lon="1.32666">
        <ele>258</ele>
        <time>2019-04-14T11:19:58Z</time>
      </trkpt>
      <trkpt lat="44.43383" lon="1.32665">
        <ele>258</ele>
        <time>2019-04-14T11:19:59Z</time>
      </trkpt>
      <trkpt lat="44.43385" lon="1.32664">
        <ele>258</ele>
        <time>2019-04-14T11:20:00Z</time>
      </trkpt>
      <trkpt lat="44.43387" lon="1.32663">
        <ele>258</ele>
        <time>2019-04-14T11:20:01Z</time>
      </trkpt>
      <trkpt lat="44.43388" lon="1.32662">
        <ele>258</ele>
        <time>2019-04-14T11:20:02Z</time>
      </trkpt>
      <trkpt lat="44.4339" lon="1.32661">
        <ele>258</ele>
        <time>2019-04-14T11:20:03Z</time>
      </trkpt>
      <trkpt lat="44.43392" lon="1.3266">
        <ele>258</ele>
        <time>2019-04-14T11:20:04Z</time>
      </trkpt>
      <trkpt lat="44.43393" lon="1.32659">
        <ele>258</ele>
        <time>2019-04-14T11:20:05Z</time>
      </trkpt>
      <trkpt lat="44.43395" lon="1.32659">
        <ele>259</ele>
        <time>2019-04-14T11:20:06Z</time>
      </trkpt>
      <trkpt lat="44.43396" lon="1.32659">
        <ele>259</ele>
        <time>2019-04-14T11:20:07Z</time>
      </trkpt>
      <trkpt lat="44.43398" lon="1.32658">
        <ele>259</ele>
        <time>2019-04-14T11:20:08Z</time>
      </trkpt>
      <trkpt lat="44.43399" lon="1.32658">
        <ele>259</ele>
        <time>2019-04-14T11:20:09Z</time>
      </trkpt>
      <trkpt lat="44.43401" lon="1.32658">
        <ele>259</ele>
        <time>2019-04-14T11:20:10Z</time>
      </trkpt>
      <trkpt lat="44.43403" lon="1.32658">
        <ele>259</ele>
        <time>2019-04-14T11:20:11Z</time>
      </trkpt>
      <trkpt lat="44.43404" lon="1.32657">
        <ele>260</ele>
        <time>2019-04-14T11:20:12Z</time>
      </trkpt>
      <trkpt lat="44.43407" lon="1.32657">
        <ele>260</ele>
        <time>2019-04-14T11:20:13Z</time>
      </trkpt>
      <trkpt lat="44.43409" lon="1.32657">
        <ele>260</ele>
        <time>2019-04-14T11:20:14Z</time>
      </trkpt>
      <trkpt lat="44.4341" lon="1.32657">
        <ele>260</ele>
        <time>2019-04-14T11:20:15Z</time>
      </trkpt>
      <trkpt lat="44.43412" lon="1.32657">
        <ele>260</ele>
        <time>2019-04-14T11:20:16Z</time>
      </trkpt>
      <trkpt lat="44.43414" lon="1.32656">
        <ele>260</ele>
        <time>2019-04-14T11:20:17Z</time>
      </trkpt>
      <trkpt lat="44.43415" lon="1.32656">
        <ele>261</ele>
        <time>2019-04-14T11:20:18Z</time>
      </trkpt>
      <trkpt lat="44.43417" lon="1.32655">
        <ele>261</ele>
        <time>2019-04-14T11:20:19Z</time>
      </trkpt>
      <trkpt lat="44.43418" lon="1.32655">
        <ele>261</ele>
        <time>2019-04-14T11:20:20Z</time>
      </trkpt>
      <trkpt lat="44.43419" lon="1.32654">
        <ele>261</ele>
        <time>2019-04-14T11:20:21Z</time>
      </trkpt>
      <trkpt lat="44.43421" lon="1.32653">
        <ele>261</ele>
        <time>2019-04-14T11:20:22Z</time>
      </trkpt>
      <trkpt lat="44.43422" lon="1.32652">
        <ele>261</ele>
        <time>2019-04-14T11:20:23Z</time>
      </trkpt>
      <trkpt lat="44.43424" lon="1.32652">
        <ele>261</ele>
        <time>2019-04-14T11:20:24Z</time>
      </trkpt>
      <trkpt lat="44.43426" lon="1.32652">
        <ele>262</ele>
        <time>2019-04-14T11:20:25Z</time>
      </trkpt>
      <trkpt lat="44.43427" lon="1.32651">
        <ele>262</ele>
        <time>2019-04-14T11:20:26Z</time>
      </trkpt>
      <trkpt lat="44.43429" lon="1.3265">
        <ele>262</ele>
        <time>2019-04-14T11:20:27Z</time>
      </trkpt>
      <trkpt lat="44.4343" lon="1.32649">
        <ele>262</ele>
        <time>2019-04-14T11:20:28Z</time>
      </trkpt>
      <trkpt lat="44.43431" lon="1.32648">
        <ele>262</ele>
        <time>2019-04-14T11:20:29Z</time>
      </trkpt>
      <trkpt lat="44.43433" lon="1.32647">
        <ele>262</ele>
        <time>2019-04-14T11:20:30Z</time>
      </trkpt>
      <trkpt lat="44.43434" lon="1.32646">
        <ele>262</ele>
        <time>2019-04-14T11:20:31Z</time>
      </trkpt>
      <trkpt lat="44.43436" lon="1.32646">
        <ele>263</ele>
        <time>2019-04-14T11:20:32Z</time>
      </trkpt>
      <trkpt lat="44.43438" lon="1.32646">
        <ele>263</ele>
        <time>2019-04-14T11:20:33Z</time>
      </trkpt>
      <trkpt lat="44.43439" lon="1.32645">
        <ele>263</ele>
        <time>2019-04-14T11:20:34Z</time>
      </trkpt>
      <trkpt lat="44.4344" lon="1.32645">
        <ele>263</ele>
        <time>2019-04-14T11:20:35Z</time>
      </trkpt>
      <trkpt lat="44.43441" lon="1.32645">
        <ele>263</ele>
        <time>2019-04-14T11:20:36Z</time>
      </trkpt>
      <trkpt lat="44.43443" lon="1.32644">
        <ele>263</ele>
        <time>2019-04-14T11:20:37Z</time>
      </trkpt>
      <trkpt lat="44.43444" lon="1.32643">
        <ele>264</ele>
        <time>2019-04-14T11:20:38Z</time>
      </trkpt>
      <trkpt lat="44.43446" lon="1.32642">
        <ele>264</ele>
        <time>2019-04-14T11:20:39Z</time>
      </trkpt>
      <trkpt lat="44.43447" lon="1.32642">
        <ele>264</ele>
        <time>2019-04-14T11:20:40Z</time>
      </trkpt>
      <trkpt lat="44.43448" lon="1.32641">
        <ele>264</ele>
        <time>2019-04-14T11:20:41Z</time>
      </trkpt>
      <trkpt lat="44.43449" lon="1.3264">
        <ele>264</ele>
        <time>2019-04-14T11:20:42Z</time>
      </trkpt>
      <trkpt lat="44.4345" lon="1.32638">
        <ele>264</ele>
        <time>2019-04-14T11:20:43Z</time>
      </trkpt>
      <trkpt lat="44.43451" lon="1.32637">
        <ele>264</ele>
        <time>2019-04-14T11:20:44Z</time>
      </trkpt>
      <trkpt lat="44.43452" lon="1.32636">
        <ele>264</ele>
        <time>2019-04-14T11:20:45Z</time>
      </trkpt>
      <trkpt lat="44.43453" lon="1.32634">
        <ele>264</ele>
        <time>2019-04-14T11:20:46Z</time>
      </trkpt>
      <trkpt lat="44.43454" lon="1.32632">
        <ele>265</ele>
        <time>2019-04-14T11:20:47Z</time>
      </trkpt>
      <trkpt lat="44.43456" lon="1.32631">
        <ele>265</ele>
        <time>2019-04-14T11:20:48Z</time>
      </trkpt>
      <trkpt lat="44.43456" lon="1.32629">
        <ele>265</ele>
        <time>2019-04-14T11:20:49Z</time>
      </trkpt>
      <trkpt lat="44.43457" lon="1.32628">
        <ele>265</ele>
        <time>2019-04-14T11:20:50Z</time>
      </trkpt>
      <trkpt lat="44.43458" lon="1.32626">
        <ele>265</ele>
        <time>2019-04-14T11:20:51Z</time>
      </trkpt>
      <trkpt lat="44.4346" lon="1.32625">
        <ele>265</ele>
        <time>2019-04-14T11:20:52Z</time>
      </trkpt>
      <trkpt lat="44.43461" lon="1.32624">
        <ele>266</ele>
        <time>2019-04-14T11:20:53Z</time>
      </trkpt>
      <trkpt lat="44.43462" lon="1.32623">
        <ele>266</ele>
        <time>2019-04-14T11:20:54Z</time>
      </trkpt>
      <trkpt lat="44.43464" lon="1.32621">
        <ele>266</ele>
        <time>2019-04-14T11:20:55Z</time>
      </trkpt>
      <trkpt lat="44.43465" lon="1.32618">
        <ele>266</ele>
        <time>2019-04-14T11:20:56Z</time>
      </trkpt>
      <trkpt lat="44.43466" lon="1.32617">
        <ele>266</ele>
        <time>2019-04-14T11:20:57Z</time>
      </trkpt>
      <trkpt lat="44.43467" lon="1.32616">
        <ele>267</ele>
        <time>2019-04-14T11:20:58Z</time>
      </trkpt>
      <trkpt lat="44.43468" lon="1.32614">
        <ele>267</ele>
        <time>2019-04-14T11:20:59Z</time>
      </trkpt>
      <trkpt lat="44.43469" lon="1.32613">
        <ele>267</ele>
        <time>2019-04-14T11:21:00Z</time>
      </trkpt>
      <trkpt lat="44.43469" lon="1.32612">
        <ele>267</ele>
        <time>2019-04-14T11:21:01Z</time>
      </trkpt>
      <trkpt lat="44.4347" lon="1.32612">
        <ele>267</ele>
        <time>2019-04-14T11:21:02Z</time>
      </trkpt>
      <trkpt lat="44.4347" lon="1.32611">
        <ele>267</ele>
        <time>2019-04-14T11:21:03Z</time>
      </trkpt>
      <trkpt lat="44.4347" lon="1.32611">
        <ele>267</ele>
        <time>2019-04-14T11:21:04Z</time>
      </trkpt>
      <trkpt lat="44.4347" lon="1.32611">
        <ele>267</ele>
        <time>2019-04-14T11:21:05Z</time>
      </trkpt>
      <trkpt lat="44.4347" lon="1.32611">
        <ele>267</ele>
        <time>2019-04-14T11:21:06Z</time>
      </trkpt>
      <trkpt lat="44.4347" lon="1.32611">
        <ele>267</ele>
        <time>2019-04-14T11:21:07Z</time>
      </trkpt>
      <trkpt lat="44.4347" lon="1.3261">
        <ele>267</ele>
        <time>2019-04-14T11:21:08Z</time>
      </trkpt>
      <trkpt lat="44.43486" lon="1.32586">
        <ele>270</ele>
        <time>2019-04-14T11:21:24Z</time>
      </trkpt>
      <trkpt lat="44.43487" lon="1.32584">
        <ele>271</ele>
        <time>2019-04-14T11:21:25Z</time>
      </trkpt>
      <trkpt lat="44.43488" lon="1.32583">
        <ele>271</ele>
        <time>2019-04-14T11:21:26Z</time>
      </trkpt>
      <trkpt lat="44.43489" lon="1.32581">
        <ele>271</ele>
        <time>2019-04-14T11:21:27Z</time>
      </trkpt>
      <trkpt lat="44.4349" lon="1.32578">
        <ele>271</ele>
        <time>2019-04-14T11:21:28Z</time>
      </trkpt>
      <trkpt lat="44.43491" lon="1.32575">
        <ele>271</ele>
        <time>2019-04-14T11:21:29Z</time>
      </trkpt>
      <trkpt lat="44.43491" lon="1.32572">
        <ele>271</ele>
        <time>2019-04-14T11:21:30Z</time>
      </trkpt>
      <trkpt lat="44.43492" lon="1.32569">
        <ele>272</ele>
        <time>2019-04-14T11:21:31Z</time>
      </trkpt>
      <trkpt lat="44.43494" lon="1.32567">
        <ele>272</ele>
        <time>2019-04-14T11:21:32Z</time>
      </trkpt>
      <trkpt lat="44.43494" lon="1.32563">
        <ele>272</ele>
        <time>2019-04-14T11:21:33Z</time>
      </trkpt>
      <trkpt lat="44.43496" lon="1.32562">
        <ele>272</ele>
        <time>2019-04-14T11:21:34Z</time>
      </trkpt>
      <trkpt lat="44.43497" lon="1.32559">
        <ele>272</ele>
        <time>2019-04-14T11:21:35Z</time>
      </trkpt>
      <trkpt lat="44.43497" lon="1.32556">
        <ele>273</ele>
        <time>2019-04-14T11:21:36Z</time>
      </trkpt>
      <trkpt lat="44.43498" lon="1.32553">
        <ele>273</ele>
        <time>2019-04-14T11:21:37Z</time>
      </trkpt>
      <trkpt lat="44.43499" lon="1.3255">
        <ele>273</ele>
        <time>2019-04-14T11:21:38Z</time>
      </trkpt>
      <trkpt lat="44.435" lon="1.32547">
        <ele>273</ele>
        <time>2019-04-14T11:21:39Z</time>
      </trkpt>
      <trkpt lat="44.43501" lon="1.32544">
        <ele>273</ele>
        <time>2019-04-14T11:21:40Z</time>
      </trkpt>
      <trkpt lat="44.43502" lon="1.32541">
        <ele>273</ele>
        <time>2019-04-14T11:21:41Z</time>
      </trkpt>
      <trkpt lat="44.43502" lon="1.32538">
        <ele>273</ele>
        <time>2019-04-14T11:21:42Z</time>
      </trkpt>
      <trkpt lat="44.43503" lon="1.32535">
        <ele>273</ele>
        <time>2019-04-14T11:21:43Z</time>
      </trkpt>
      <trkpt lat="44.43503" lon="1.32532">
        <ele>273</ele>
        <time>2019-04-14T11:21:44Z</time>
      </trkpt>
      <trkpt lat="44.43503" lon="1.32529">
        <ele>273</ele>
        <time>2019-04-14T11:21:45Z</time>
      </trkpt>
      <trkpt lat="44.43504" lon="1.32525">
        <ele>274</ele>
        <time>2019-04-14T11:21:46Z</time>
      </trkpt>
      <trkpt lat="44.43504" lon="1.32522">
        <ele>274</ele>
        <time>2019-04-14T11:21:47Z</time>
      </trkpt>
      <trkpt lat="44.43504" lon="1.32519">
        <ele>274</ele>
        <time>2019-04-14T11:21:48Z</time>
      </trkpt>
      <trkpt lat="44.43505" lon="1.32516">
        <ele>274</ele>
        <time>2019-04-14T11:21:49Z</time>
      </trkpt>
      <trkpt lat="44.43505" lon="1.32513">
        <ele>274</ele>
        <time>2019-04-14T11:21:50Z</time>
      </trkpt>
      <trkpt lat="44.43505" lon="1.3251">
        <ele>274</ele>
        <time>2019-04-14T11:21:51Z</time>
      </trkpt>
      <trkpt lat="44.43506" lon="1.32506">
        <ele>274</ele>
        <time>2019-04-14T11:21:52Z</time>
      </trkpt>
      <trkpt lat="44.43506" lon="1.32502">
        <ele>274</ele>
        <time>2019-04-14T11:21:53Z</time>
      </trkpt>
      <trkpt lat="44.43507" lon="1.32498">
        <ele>274</ele>
        <time>2019-04-14T11:21:54Z</time>
      </trkpt>
      <trkpt lat="44.43507" lon="1.32495">
        <ele>274</ele>
        <time>2019-04-14T11:21:55Z</time>
      </trkpt>
      <trkpt lat="44.43508" lon="1.32492">
        <ele>274</ele>
        <time>2019-04-14T11:21:56Z</time>
      </trkpt>
      <trkpt lat="44.43509" lon="1.32489">
        <ele>275</ele>
        <time>2019-04-14T11:21:57Z</time>
      </trkpt>
      <trkpt lat="44.4351" lon="1.32487">
        <ele>275</ele>
        <time>2019-04-14T11:21:58Z</time>
      </trkpt>
      <trkpt lat="44.43512" lon="1.32484">
        <ele>275</ele>
        <time>2019-04-14T11:21:59Z</time>
      </trkpt>
      <trkpt lat="44.43513" lon="1.32481">
        <ele>275</ele>
        <time>2019-04-14T11:22:00Z</time>
      </trkpt>
      <trkpt lat="44.43515" lon="1.32478">
        <ele>275</ele>
        <time>2019-04-14T11:22:01Z</time>
      </trkpt>
      <trkpt lat="44.43516" lon="1.32474">
        <ele>275</ele>
        <time>2019-04-14T11:22:02Z</time>
      </trkpt>
      <trkpt lat="44.43517" lon="1.32471">
        <ele>275</ele>
        <time>2019-04-14T11:22:03Z</time>
      </trkpt>
      <trkpt lat="44.43519" lon="1.32468">
        <ele>275</ele>
        <time>2019-04-14T11:22:04Z</time>
      </trkpt>
      <trkpt lat="44.4352" lon="1.32465">
        <ele>275</ele>
        <time>2019-04-14T11:22:05Z</time>
      </trkpt>
      <trkpt lat="44.4352" lon="1.32461">
        <ele>275</ele>
        <time>2019-04-14T11:22:06Z</time>
      </trkpt>
      <trkpt lat="44.43521" lon="1.32458">
        <ele>275</ele>
        <time>2019-04-14T11:22:07Z</time>
      </trkpt>
      <trkpt lat="44.43523" lon="1.32455">
        <ele>275</ele>
        <time>2019-04-14T11:22:08Z</time>
      </trkpt>
      <trkpt lat="44.43525" lon="1.32453">
        <ele>275</ele>
        <time>2019-04-14T11:22:09Z</time>
      </trkpt>
      <trkpt lat="44.43528" lon="1.32452">
        <ele>275</ele>
        <time>2019-04-14T11:22:10Z</time>
      </trkpt>
      <trkpt lat="44.4353" lon="1.32451">
        <ele>275</ele>
        <time>2019-04-14T11:22:11Z</time>
      </trkpt>
      <trkpt lat="44.43533" lon="1.32451">
        <ele>275</ele>
        <time>2019-04-14T11:22:12Z</time>
      </trkpt>
      <trkpt lat="44.43535" lon="1.3245">
        <ele>275</ele>
        <time>2019-04-14T11:22:13Z</time>
      </trkpt>
      <trkpt lat="44.43537" lon="1.32449">
        <ele>275</ele>
        <time>2019-04-14T11:22:14Z</time>
      </trkpt>
      <trkpt lat="44.43539" lon="1.32448">
        <ele>275</ele>
        <time>2019-04-14T11:22:15Z</time>
      </trkpt>
      <trkpt lat="44.43541" lon="1.32446">
        <ele>275</ele>
        <time>2019-04-14T11:22:16Z</time>
      </trkpt>
      <trkpt lat="44.43544" lon="1.32445">
        <ele>275</ele>
        <time>2019-04-14T11:22:17Z</time>
      </trkpt>
      <trkpt lat="44.43546" lon="1.32444">
        <ele>275</ele>
        <time>2019-04-14T11:22:18Z</time>
      </trkpt>
      <trkpt lat="44.43548" lon="1.32443">
        <ele>275</ele>
        <time>2019-04-14T11:22:19Z</time>
      </trkpt>
      <trkpt lat="44.4355" lon="1.32441">
        <ele>275</ele>
        <time>2019-04-14T11:22:20Z</time>
      </trkpt>
      <trkpt lat="44.43552" lon="1.3244">
        <ele>275</ele>
        <time>2019-04-14T11:22:21Z</time>
      </trkpt>
      <trkpt lat="44.43555" lon="1.32441">
        <ele>275</ele>
        <time>2019-04-14T11:22:22Z</time>
      </trkpt>
      <trkpt lat="44.43558" lon="1.32442">
        <ele>275</ele>
        <time>2019-04-14T11:22:23Z</time>
      </trkpt>
      <trkpt lat="44.43561" lon="1.32444">
        <ele>275</ele>
        <time>2019-04-14T11:22:24Z</time>
      </trkpt>
      <trkpt lat="44.43563" lon="1.32447">
        <ele>275</ele>
        <time>2019-04-14T11:22:25Z</time>
      </trkpt>
      <trkpt lat="44.43563" lon="1.32451">
        <ele>275</ele>
        <time>2019-04-14T11:22:26Z</time>
      </trkpt>
      <trkpt lat="44.43563" lon="1.32454">
        <ele>275</ele>
        <time>2019-04-14T11:22:27Z</time>
      </trkpt>
      <trkpt lat="44.43563" lon="1.32458">
        <ele>275</ele>
        <time>2019-04-14T11:22:28Z</time>
      </trkpt>
      <trkpt lat="44.43563" lon="1.32462">
        <ele>275</ele>
        <time>2019-04-14T11:22:29Z</time>
      </trkpt>
      <trkpt lat="44.43562" lon="1.32466">
        <ele>275</ele>
        <time>2019-04-14T11:22:30Z</time>
      </trkpt>
      <trkpt lat="44.43561" lon="1.3247">
        <ele>275</ele>
        <time>2019-04-14T11:22:31Z</time>
      </trkpt>
      <trkpt lat="44.4356" lon="1.32473">
        <ele>275</ele>
        <time>2019-04-14T11:22:32Z</time>
      </trkpt>
      <trkpt lat="44.43559" lon="1.32476">
        <ele>275</ele>
        <time>2019-04-14T11:22:33Z</time>
      </trkpt>
      <trkpt lat="44.43558" lon="1.3248">
        <ele>275</ele>
        <time>2019-04-14T11:22:34Z</time>
      </trkpt>
      <trkpt lat="44.43556" lon="1.32484">
        <ele>275</ele>
        <time>2019-04-14T11:22:35Z</time>
      </trkpt>
      <trkpt lat="44.43555" lon="1.32488">
        <ele>275</ele>
        <time>2019-04-14T11:22:36Z</time>
      </trkpt>
      <trkpt lat="44.43554" lon="1.32492">
        <ele>275</ele>
        <time>2019-04-14T11:22:37Z</time>
      </trkpt>
      <trkpt lat="44.43553" lon="1.32496">
        <ele>275</ele>
        <time>2019-04-14T11:22:38Z</time>
      </trkpt>
      <trkpt lat="44.43552" lon="1.32501">
        <ele>276</ele>
        <time>2019-04-14T11:22:39Z</time>
      </trkpt>
      <trkpt lat="44.43552" lon="1.32506">
        <ele>276</ele>
        <time>2019-04-14T11:22:40Z</time>
      </trkpt>
      <trkpt lat="44.43552" lon="1.32511">
        <ele>276</ele>
        <time>2019-04-14T11:22:41Z</time>
      </trkpt>
      <trkpt lat="44.43552" lon="1.32516">
        <ele>276</ele>
        <time>2019-04-14T11:22:42Z</time>
      </trkpt>
      <trkpt lat="44.43554" lon="1.3252">
        <ele>276</ele>
        <time>2019-04-14T11:22:43Z</time>
      </trkpt>
      <trkpt lat="44.43556" lon="1.32525">
        <ele>276</ele>
        <time>2019-04-14T11:22:44Z</time>
      </trkpt>
      <trkpt lat="44.43558" lon="1.32529">
        <ele>276</ele>
        <time>2019-04-14T11:22:45Z</time>
      </trkpt>
      <trkpt lat="44.4356" lon="1.32534">
        <ele>276</ele>
        <time>2019-04-14T11:22:46Z</time>
      </trkpt>
      <trkpt lat="44.43562" lon="1.32538">
        <ele>276</ele>
        <time>2019-04-14T11:22:47Z</time>
      </trkpt>
      <trkpt lat="44.43564" lon="1.32542">
        <ele>276</ele>
        <time>2019-04-14T11:22:48Z</time>
      </trkpt>
      <trkpt lat="44.43567" lon="1.32547">
        <ele>276</ele>
        <time>2019-04-14T11:22:49Z</time>
      </trkpt>
      <trkpt lat="44.43568" lon="1.32551">
        <ele>276</ele>
        <time>2019-04-14T11:22:50Z</time>
      </trkpt>
      <trkpt lat="44.43571" lon="1.32556">
        <ele>276</ele>
        <time>2019-04-14T11:22:51Z</time>
      </trkpt>
      <trkpt lat="44.43573" lon="1.3256">
        <ele>276</ele>
        <time>2019-04-14T11:22:52Z</time>
      </trkpt>
      <trkpt lat="44.43574" lon="1.32565">
        <ele>276</ele>
        <time>2019-04-14T11:22:53Z</time>
      </trkpt>
      <trkpt lat="44.43576" lon="1.3257">
        <ele>276</ele>
        <time>2019-04-14T11:22:54Z</time>
      </trkpt>
      <trkpt lat="44.43578" lon="1.32575">
        <ele>276</ele>
        <time>2019-04-14T11:22:55Z</time>
      </trkpt>
      <trkpt lat="44.43579" lon="1.3258">
        <ele>276</ele>
        <time>2019-04-14T11:22:56Z</time>
      </trkpt>
      <trkpt lat="44.43581" lon="1.32585">
        <ele>277</ele>
        <time>2019-04-14T11:22:57Z</time>
      </trkpt>
      <trkpt lat="44.43582" lon="1.3259">
        <ele>277</ele>
        <time>2019-04-14T11:22:58Z</time>
      </trkpt>
      <trkpt lat="44.43583" lon="1.32596">
        <ele>276</ele>
        <time>2019-04-14T11:22:59Z</time>
      </trkpt>
      <trkpt lat="44.43584" lon="1.32601">
        <ele>277</ele>
        <time>2019-04-14T11:23:00Z</time>
      </trkpt>
      <trkpt lat="44.43585" lon="1.32606">
        <ele>276</ele>
        <time>2019-04-14T11:23:01Z</time>
      </trkpt>
      <trkpt lat="44.43586" lon="1.32612">
        <ele>277</ele>
        <time>2019-04-14T11:23:02Z</time>
      </trkpt>
      <trkpt lat="44.43587" lon="1.32617">
        <ele>276</ele>
        <time>2019-04-14T11:23:03Z</time>
      </trkpt>
      <trkpt lat="44.43587" lon="1.32623">
        <ele>276</ele>
        <time>2019-04-14T11:23:04Z</time>
      </trkpt>
      <trkpt lat="44.43588" lon="1.32628">
        <ele>276</ele>
        <time>2019-04-14T11:23:05Z</time>
      </trkpt>
      <trkpt lat="44.43589" lon="1.32634">
        <ele>276</ele>
        <time>2019-04-14T11:23:06Z</time>
      </trkpt>
      <trkpt lat="44.4359" lon="1.32639">
        <ele>276</ele>
        <time>2019-04-14T11:23:07Z</time>
      </trkpt>
      <trkpt lat="44.43591" lon="1.32645">
        <ele>277</ele>
        <time>2019-04-14T11:23:08Z</time>
      </trkpt>
      <trkpt lat="44.43592" lon="1.3265">
        <ele>276</ele>
        <time>2019-04-14T11:23:09Z</time>
      </trkpt>
      <trkpt lat="44.43593" lon="1.32656">
        <ele>276</ele>
        <time>2019-04-14T11:23:10Z</time>
      </trkpt>
      <trkpt lat="44.43594" lon="1.32662">
        <ele>276</ele>
        <time>2019-04-14T11:23:11Z</time>
      </trkpt>
      <trkpt lat="44.43595" lon="1.32668">
        <ele>277</ele>
        <time>2019-04-14T11:23:12Z</time>
      </trkpt>
      <trkpt lat="44.43597" lon="1.32672">
        <ele>277</ele>
        <time>2019-04-14T11:23:13Z</time>
      </trkpt>
      <trkpt lat="44.43599" lon="1.32677">
        <ele>277</ele>
        <time>2019-04-14T11:23:14Z</time>
      </trkpt>
      <trkpt lat="44.43602" lon="1.3268">
        <ele>277</ele>
        <time>2019-04-14T11:23:15Z</time>
      </trkpt>
      <trkpt lat="44.43606" lon="1.32681">
        <ele>276</ele>
        <time>2019-04-14T11:23:16Z</time>
      </trkpt>
      <trkpt lat="44.43609" lon="1.32682">
        <ele>276</ele>
        <time>2019-04-14T11:23:17Z</time>
      </trkpt>
      <trkpt lat="44.43613" lon="1.32682">
        <ele>276</ele>
        <time>2019-04-14T11:23:18Z</time>
      </trkpt>
      <trkpt lat="44.43616" lon="1.32682">
        <ele>276</ele>
        <time>2019-04-14T11:23:19Z</time>
      </trkpt>
      <trkpt lat="44.4362" lon="1.32682">
        <ele>276</ele>
        <time>2019-04-14T11:23:20Z</time>
      </trkpt>
      <trkpt lat="44.43624" lon="1.32682">
        <ele>276</ele>
        <time>2019-04-14T11:23:21Z</time>
      </trkpt>
      <trkpt lat="44.43628" lon="1.32682">
        <ele>276</ele>
        <time>2019-04-14T11:23:22Z</time>
      </trkpt>
      <trkpt lat="44.43632" lon="1.32682">
        <ele>276</ele>
        <time>2019-04-14T11:23:23Z</time>
      </trkpt>
      <trkpt lat="44.43636" lon="1.32682">
        <ele>275</ele>
        <time>2019-04-14T11:23:24Z</time>
      </trkpt>
      <trkpt lat="44.43641" lon="1.32682">
        <ele>275</ele>
        <time>2019-04-14T11:23:25Z</time>
      </trkpt>
      <trkpt lat="44.43645" lon="1.32683">
        <ele>275</ele>
        <time>2019-04-14T11:23:26Z</time>
      </trkpt>
      <trkpt lat="44.4365" lon="1.32683">
        <ele>275</ele>
        <time>2019-04-14T11:23:27Z</time>
      </trkpt>
      <trkpt lat="44.43654" lon="1.32684">
        <ele>275</ele>
        <time>2019-04-14T11:23:28Z</time>
      </trkpt>
      <trkpt lat="44.43659" lon="1.32685">
        <ele>275</ele>
        <time>2019-04-14T11:23:29Z</time>
      </trkpt>
      <trkpt lat="44.43664" lon="1.32686">
        <ele>275</ele>
        <time>2019-04-14T11:23:30Z</time>
      </trkpt>
      <trkpt lat="44.43669" lon="1.32688">
        <ele>275</ele>
        <time>2019-04-14T11:23:31Z</time>
      </trkpt>
      <trkpt lat="44.43674" lon="1.32689">
        <ele>274</ele>
        <time>2019-04-14T11:23:32Z</time>
      </trkpt>
      <trkpt lat="44.43679" lon="1.32691">
        <ele>274</ele>
        <time>2019-04-14T11:23:33Z</time>
      </trkpt>
      <trkpt lat="44.43683" lon="1.32693">
        <ele>274</ele>
        <time>2019-04-14T11:23:34Z</time>
      </trkpt>
      <trkpt lat="44.43689" lon="1.32695">
        <ele>274</ele>
        <time>2019-04-14T11:23:35Z</time>
      </trkpt>
      <trkpt lat="44.43694" lon="1.32697">
        <ele>274</ele>
        <time>2019-04-14T11:23:36Z</time>
      </trkpt>
      <trkpt lat="44.43699" lon="1.32699">
        <ele>274</ele>
        <time>2019-04-14T11:23:37Z</time>
      </trkpt>
      <trkpt lat="44.43704" lon="1.32701">
        <ele>274</ele>
        <time>2019-04-14T11:23:38Z</time>
      </trkpt>
      <trkpt lat="44.43708" lon="1.32703">
        <ele>274</ele>
        <time>2019-04-14T11:23:39Z</time>
      </trkpt>
      <trkpt lat="44.43712" lon="1.32706">
        <ele>273</ele>
        <time>2019-04-14T11:23:40Z</time>
      </trkpt>
      <trkpt lat="44.43717" lon="1.32709">
        <ele>273</ele>
        <time>2019-04-14T11:23:41Z</time>
      </trkpt>
      <trkpt lat="44.43722" lon="1.32712">
        <ele>273</ele>
        <time>2019-04-14T11:23:42Z</time>
      </trkpt>
      <trkpt lat="44.43728" lon="1.32714">
        <ele>273</ele>
        <time>2019-04-14T11:23:43Z</time>
      </trkpt>
      <trkpt lat="44.43733" lon="1.32717">
        <ele>273</ele>
        <time>2019-04-14T11:23:44Z</time>
      </trkpt>
      <trkpt lat="44.43738" lon="1.3272">
        <ele>273</ele>
        <time>2019-04-14T11:23:45Z</time>
      </trkpt>
      <trkpt lat="44.43743" lon="1.32722">
        <ele>272</ele>
        <time>2019-04-14T11:23:46Z</time>
      </trkpt>
      <trkpt lat="44.43749" lon="1.32725">
        <ele>272</ele>
        <time>2019-04-14T11:23:47Z</time>
      </trkpt>
      <trkpt lat="44.43755" lon="1.32727">
        <ele>272</ele>
        <time>2019-04-14T11:23:48Z</time>
      </trkpt>
      <trkpt lat="44.4376" lon="1.3273">
        <ele>272</ele>
        <time>2019-04-14T11:23:49Z</time>
      </trkpt>
      <trkpt lat="44.43766" lon="1.32733">
        <ele>272</ele>
        <time>2019-04-14T11:23:50Z</time>
      </trkpt>
      <trkpt lat="44.43771" lon="1.32736">
        <ele>272</ele>
        <time>2019-04-14T11:23:51Z</time>
      </trkpt>
      <trkpt lat="44.43776" lon="1.32738">
        <ele>272</ele>
        <time>2019-04-14T11:23:52Z</time>
      </trkpt>
      <trkpt lat="44.43781" lon="1.3274">
        <ele>272</ele>
        <time>2019-04-14T11:23:53Z</time>
      </trkpt>
      <trkpt lat="44.43785" lon="1.32742">
        <ele>271</ele>
        <time>2019-04-14T11:23:54Z</time>
      </trkpt>
      <trkpt lat="44.4379" lon="1.32744">
        <ele>271</ele>
        <time>2019-04-14T11:23:55Z</time>
      </trkpt>
      <trkpt lat="44.43795" lon="1.32746">
        <ele>271</ele>
        <time>2019-04-14T11:23:56Z</time>
      </trkpt>
      <trkpt lat="44.43798" lon="1.3275">
        <ele>271</ele>
        <time>2019-04-14T11:23:57Z</time>
      </trkpt>
      <trkpt lat="44.43801" lon="1.32754">
        <ele>271</ele>
        <time>2019-04-14T11:23:58Z</time>
      </trkpt>
      <trkpt lat="44.43804" lon="1.32759">
        <ele>271</ele>
        <time>2019-04-14T11:23:59Z</time>
      </trkpt>
      <trkpt lat="44.43808" lon="1.32763">
        <ele>271</ele>
        <time>2019-04-14T11:24:00Z</time>
      </trkpt>
      <trkpt lat="44.43812" lon="1.32767">
        <ele>271</ele>
        <time>2019-04-14T11:24:01Z</time>
      </trkpt>
      <trkpt lat="44.43816" lon="1.3277">
        <ele>271</ele>
        <time>2019-04-14T11:24:02Z</time>
      </trkpt>
      <trkpt lat="44.43821" lon="1.32773">
        <ele>271</ele>
        <time>2019-04-14T11:24:03Z</time>
      </trkpt>
      <trkpt lat="44.43825" lon="1.32776">
        <ele>271</ele>
        <time>2019-04-14T11:24:04Z</time>
      </trkpt>
      <trkpt lat="44.43829" lon="1.32778">
        <ele>271</ele>
        <time>2019-04-14T11:24:05Z</time>
      </trkpt>
      <trkpt lat="44.43833" lon="1.32781">
        <ele>270</ele>
        <time>2019-04-14T11:24:06Z</time>
      </trkpt>
      <trkpt lat="44.43837" lon="1.32784">
        <ele>270</ele>
        <time>2019-04-14T11:24:07Z</time>
      </trkpt>
      <trkpt lat="44.43841" lon="1.32786">
        <ele>270</ele>
        <time>2019-04-14T11:24:08Z</time>
      </trkpt>
      <trkpt lat="44.43844" lon="1.32788">
        <ele>270</ele>
        <time>2019-04-14T11:24:09Z</time>
      </trkpt>
      <trkpt lat="44.43847" lon="1.32791">
        <ele>270</ele>
        <time>2019-04-14T11:24:10Z</time>
      </trkpt>
      <trkpt lat="44.4385" lon="1.32793">
        <ele>270</ele>
        <time>2019-04-14T11:24:11Z</time>
      </trkpt>
      <trkpt lat="44.43853" lon="1.32795">
        <ele>270</ele>
        <time>2019-04-14T11:24:12Z</time>
      </trkpt>
      <trkpt lat="44.43857" lon="1.32797">
        <ele>270</ele>
        <time>2019-04-14T11:24:13Z</time>
      </trkpt>
      <trkpt lat="44.43861" lon="1.32799">
        <ele>270</ele>
        <time>2019-04-14T11:24:14Z</time>
      </trkpt>
      <trkpt lat="44.43865" lon="1.32802">
        <ele>270</ele>
        <time>2019-04-14T11:24:15Z</time>
      </trkpt>
      <trkpt lat="44.43869" lon="1.32804">
        <ele>270</ele>
        <time>2019-04-14T11:24:16Z</time>
      </trkpt>
      <trkpt lat="44.43872" lon="1.32806">
        <ele>270</ele>
        <time>2019-04-14T11:24:17Z</time>
      </trkpt>
      <trkpt lat="44.43876" lon="1.32808">
        <ele>270</ele>
        <time>2019-04-14T11:24:18Z</time>
      </trkpt>
      <trkpt lat="44.43881" lon="1.32809">
        <ele>270</ele>
        <time>2019-04-14T11:24:19Z</time>
      </trkpt>
      <trkpt lat="44.43885" lon="1.3281">
        <ele>270</ele>
        <time>2019-04-14T11:24:20Z</time>
      </trkpt>
      <trkpt lat="44.4389" lon="1.32811">
        <ele>270</ele>
        <time>2019-04-14T11:24:21Z</time>
      </trkpt>
      <trkpt lat="44.43895" lon="1.32812">
        <ele>270</ele>
        <time>2019-04-14T11:24:22Z</time>
      </trkpt>
      <trkpt lat="44.43899" lon="1.32813">
        <ele>270</ele>
        <time>2019-04-14T11:24:23Z</time>
      </trkpt>
      <trkpt lat="44.43902" lon="1.32814">
        <ele>270</ele>
        <time>2019-04-14T11:24:24Z</time>
      </trkpt>
      <trkpt lat="44.43906" lon="1.32815">
        <ele>270</ele>
        <time>2019-04-14T11:24:25Z</time>
      </trkpt>
      <trkpt lat="44.43911" lon="1.32815">
        <ele>270</ele>
        <time>2019-04-14T11:24:26Z</time>
      </trkpt>
      <trkpt lat="44.43915" lon="1.32816">
        <ele>271</ele>
        <time>2019-04-14T11:24:27Z</time>
      </trkpt>
      <trkpt lat="44.43919" lon="1.32817">
        <ele>271</ele>
        <time>2019-04-14T11:24:28Z</time>
      </trkpt>
      <trkpt lat="44.43922" lon="1.32817">
        <ele>271</ele>
        <time>2019-04-14T11:24:29Z</time>
      </trkpt>
      <trkpt lat="44.43926" lon="1.32817">
        <ele>271</ele>
        <time>2019-04-14T11:24:30Z</time>
      </trkpt>
      <trkpt lat="44.4393" lon="1.32817">
        <ele>271</ele>
        <time>2019-04-14T11:24:31Z</time>
      </trkpt>
      <trkpt lat="44.43933" lon="1.32817">
        <ele>271</ele>
        <time>2019-04-14T11:24:32Z</time>
      </trkpt>
      <trkpt lat="44.43937" lon="1.32817">
        <ele>271</ele>
        <time>2019-04-14T11:24:33Z</time>
      </trkpt>
      <trkpt lat="44.43941" lon="1.32817">
        <ele>271</ele>
        <time>2019-04-14T11:24:34Z</time>
      </trkpt>
      <trkpt lat="44.43944" lon="1.32817">
        <ele>271</ele>
        <time>2019-04-14T11:24:35Z</time>
      </trkpt>
      <trkpt lat="44.43949" lon="1.32816">
        <ele>270</ele>
        <time>2019-04-14T11:24:36Z</time>
      </trkpt>
      <trkpt lat="44.43952" lon="1.32816">
        <ele>270</ele>
        <time>2019-04-14T11:24:37Z</time>
      </trkpt>
      <trkpt lat="44.43957" lon="1.32816">
        <ele>270</ele>
        <time>2019-04-14T11:24:38Z</time>
      </trkpt>
      <trkpt lat="44.43961" lon="1.32815">
        <ele>270</ele>
        <time>2019-04-14T11:24:39Z</time>
      </trkpt>
      <trkpt lat="44.43966" lon="1.32815">
        <ele>270</ele>
        <time>2019-04-14T11:24:40Z</time>
      </trkpt>
      <trkpt lat="44.4397" lon="1.32814">
        <ele>270</ele>
        <time>2019-04-14T11:24:41Z</time>
      </trkpt>
      <trkpt lat="44.43975" lon="1.32813">
        <ele>269</ele>
        <time>2019-04-14T11:24:42Z</time>
      </trkpt>
      <trkpt lat="44.4398" lon="1.32811">
        <ele>269</ele>
        <time>2019-04-14T11:24:43Z</time>
      </trkpt>
      <trkpt lat="44.43985" lon="1.32811">
        <ele>269</ele>
        <time>2019-04-14T11:24:44Z</time>
      </trkpt>
      <trkpt lat="44.4399" lon="1.32809">
        <ele>269</ele>
        <time>2019-04-14T11:24:45Z</time>
      </trkpt>
      <trkpt lat="44.43996" lon="1.32808">
        <ele>268</ele>
        <time>2019-04-14T11:24:46Z</time>
      </trkpt>
      <trkpt lat="44.44003" lon="1.32807">
        <ele>268</ele>
        <time>2019-04-14T11:24:47Z</time>
      </trkpt>
      <trkpt lat="44.4401" lon="1.32807">
        <ele>267</ele>
        <time>2019-04-14T11:24:48Z</time>
      </trkpt>
      <trkpt lat="44.44017" lon="1.32807">
        <ele>266</ele>
        <time>2019-04-14T11:24:49Z</time>
      </trkpt>
      <trkpt lat="44.44024" lon="1.32808">
        <ele>265</ele>
        <time>2019-04-14T11:24:50Z</time>
      </trkpt>
      <trkpt lat="44.44032" lon="1.3281">
        <ele>264</ele>
        <time>2019-04-14T11:24:51Z</time>
      </trkpt>
      <trkpt lat="44.44041" lon="1.32813">
        <ele>263</ele>
        <time>2019-04-14T11:24:52Z</time>
      </trkpt>
      <trkpt lat="44.44049" lon="1.32816">
        <ele>261</ele>
        <time>2019-04-14T11:24:53Z</time>
      </trkpt>
      <trkpt lat="44.44057" lon="1.32819">
        <ele>260</ele>
        <time>2019-04-14T11:24:54Z</time>
      </trkpt>
      <trkpt lat="44.44066" lon="1.32823">
        <ele>259</ele>
        <time>2019-04-14T11:24:55Z</time>
      </trkpt>
      <trkpt lat="44.44075" lon="1.32826">
        <ele>257</ele>
        <time>2019-04-14T11:24:56Z</time>
      </trkpt>
      <trkpt lat="44.44084" lon="1.32829">
        <ele>256</ele>
        <time>2019-04-14T11:24:57Z</time>
      </trkpt>
      <trkpt lat="44.44092" lon="1.32833">
        <ele>255</ele>
        <time>2019-04-14T11:24:58Z</time>
      </trkpt>
      <trkpt lat="44.441" lon="1.32836">
        <ele>254</ele>
        <time>2019-04-14T11:24:59Z</time>
      </trkpt>
      <trkpt lat="44.44107" lon="1.32838">
        <ele>253</ele>
        <time>2019-04-14T11:25:00Z</time>
      </trkpt>
      <trkpt lat="44.44115" lon="1.32839">
        <ele>253</ele>
        <time>2019-04-14T11:25:01Z</time>
      </trkpt>
      <trkpt lat="44.44124" lon="1.32839">
        <ele>251</ele>
        <time>2019-04-14T11:25:02Z</time>
      </trkpt>
      <trkpt lat="44.44133" lon="1.32838">
        <ele>251</ele>
        <time>2019-04-14T11:25:03Z</time>
      </trkpt>
      <trkpt lat="44.44141" lon="1.32837">
        <ele>250</ele>
        <time>2019-04-14T11:25:04Z</time>
      </trkpt>
      <trkpt lat="44.4415" lon="1.32838">
        <ele>250</ele>
        <time>2019-04-14T11:25:05Z</time>
      </trkpt>
      <trkpt lat="44.44158" lon="1.3284">
        <ele>249</ele>
        <time>2019-04-14T11:25:06Z</time>
      </trkpt>
      <trkpt lat="44.44166" lon="1.32843">
        <ele>249</ele>
        <time>2019-04-14T11:25:07Z</time>
      </trkpt>
      <trkpt lat="44.44173" lon="1.32846">
        <ele>249</ele>
        <time>2019-04-14T11:25:08Z</time>
      </trkpt>
      <trkpt lat="44.4418" lon="1.3285">
        <ele>249</ele>
        <time>2019-04-14T11:25:09Z</time>
      </trkpt>
      <trkpt lat="44.44186" lon="1.32854">
        <ele>249</ele>
        <time>2019-04-14T11:25:10Z</time>
      </trkpt>
      <trkpt lat="44.44191" lon="1.32858">
        <ele>249</ele>
        <time>2019-04-14T11:25:11Z</time>
      </trkpt>
      <trkpt lat="44.44197" lon="1.32861">
        <ele>249</ele>
        <time>2019-04-14T11:25:12Z</time>
      </trkpt>
      <trkpt lat="44.44202" lon="1.32863">
        <ele>249</ele>
        <time>2019-04-14T11:25:13Z</time>
      </trkpt>
      <trkpt lat="44.44207" lon="1.32865">
        <ele>249</ele>
        <time>2019-04-14T11:25:14Z</time>
      </trkpt>
      <trkpt lat="44.44211" lon="1.32866">
        <ele>249</ele>
        <time>2019-04-14T11:25:15Z</time>
      </trkpt>
      <trkpt lat="44.44215" lon="1.32867">
        <ele>249</ele>
        <time>2019-04-14T11:25:16Z</time>
      </trkpt>
      <trkpt lat="44.44219" lon="1.32868">
        <ele>249</ele>
        <time>2019-04-14T11:25:17Z</time>
      </trkpt>
      <trkpt lat="44.44223" lon="1.32868">
        <ele>249</ele>
        <time>2019-04-14T11:25:18Z</time>
      </trkpt>
      <trkpt lat="44.44227" lon="1.32868">
        <ele>249</ele>
        <time>2019-04-14T11:25:19Z</time>
      </trkpt>
      <trkpt lat="44.44231" lon="1.32868">
        <ele>250</ele>
        <time>2019-04-14T11:25:20Z</time>
      </trkpt>
      <trkpt lat="44.44235" lon="1.32868">
        <ele>250</ele>
        <time>2019-04-14T11:25:21Z</time>
      </trkpt>
      <trkpt lat="44.44239" lon="1.32868">
        <ele>250</ele>
        <time>2019-04-14T11:25:22Z</time>
      </trkpt>
      <trkpt lat="44.44243" lon="1.32869">
        <ele>250</ele>
        <time>2019-04-14T11:25:23Z</time>
      </trkpt>
      <trkpt lat="44.44247" lon="1.32869">
        <ele>250</ele>
        <time>2019-04-14T11:25:24Z</time>
      </trkpt>
      <trkpt lat="44.4425" lon="1.3287">
        <ele>250</ele>
        <time>2019-04-14T11:25:25Z</time>
      </trkpt>
      <trkpt lat="44.44253" lon="1.3287">
        <ele>250</ele>
        <time>2019-04-14T11:25:26Z</time>
      </trkpt>
      <trkpt lat="44.44257" lon="1.32871">
        <ele>251</ele>
        <time>2019-04-14T11:25:27Z</time>
      </trkpt>
      <trkpt lat="44.4426" lon="1.32872">
        <ele>251</ele>
        <time>2019-04-14T11:25:28Z</time>
      </trkpt>
      <trkpt lat="44.44263" lon="1.32873">
        <ele>251</ele>
        <time>2019-04-14T11:25:29Z</time>
      </trkpt>
      <trkpt lat="44.44266" lon="1.32874">
        <ele>252</ele>
        <time>2019-04-14T11:25:30Z</time>
      </trkpt>
      <trkpt lat="44.44269" lon="1.32875">
        <ele>252</ele>
        <time>2019-04-14T11:25:31Z</time>
      </trkpt>
      <trkpt lat="44.44271" lon="1.32876">
        <ele>252</ele>
        <time>2019-04-14T11:25:32Z</time>
      </trkpt>
      <trkpt lat="44.44274" lon="1.32877">
        <ele>252</ele>
        <time>2019-04-14T11:25:33Z</time>
      </trkpt>
      <trkpt lat="44.44277" lon="1.32879">
        <ele>253</ele>
        <time>2019-04-14T11:25:34Z</time>
      </trkpt>
      <trkpt lat="44.44279" lon="1.3288">
        <ele>253</ele>
        <time>2019-04-14T11:25:35Z</time>
      </trkpt>
      <trkpt lat="44.44282" lon="1.32881">
        <ele>253</ele>
        <time>2019-04-14T11:25:36Z</time>
      </trkpt>
      <trkpt lat="44.44285" lon="1.32883">
        <ele>253</ele>
        <time>2019-04-14T11:25:37Z</time>
      </trkpt>
      <trkpt lat="44.44289" lon="1.32885">
        <ele>254</ele>
        <time>2019-04-14T11:25:38Z</time>
      </trkpt>
      <trkpt lat="44.44292" lon="1.32887">
        <ele>254</ele>
        <time>2019-04-14T11:25:39Z</time>
      </trkpt>
      <trkpt lat="44.44294" lon="1.32889">
        <ele>254</ele>
        <time>2019-04-14T11:25:40Z</time>
      </trkpt>
      <trkpt lat="44.44297" lon="1.3289">
        <ele>255</ele>
        <time>2019-04-14T11:25:41Z</time>
      </trkpt>
      <trkpt lat="44.44299" lon="1.32891">
        <ele>255</ele>
        <time>2019-04-14T11:25:42Z</time>
      </trkpt>
      <trkpt lat="44.443" lon="1.32891">
        <ele>255</ele>
        <time>2019-04-14T11:25:43Z</time>
      </trkpt>
      <trkpt lat="44.44303" lon="1.32892">
        <ele>256</ele>
        <time>2019-04-14T11:25:44Z</time>
      </trkpt>
      <trkpt lat="44.44306" lon="1.32893">
        <ele>256</ele>
        <time>2019-04-14T11:25:45Z</time>
      </trkpt>
      <trkpt lat="44.4431" lon="1.32896">
        <ele>256</ele>
        <time>2019-04-14T11:25:46Z</time>
      </trkpt>
      <trkpt lat="44.44313" lon="1.32898">
        <ele>256</ele>
        <time>2019-04-14T11:25:47Z</time>
      </trkpt>
      <trkpt lat="44.44316" lon="1.329">
        <ele>257</ele>
        <time>2019-04-14T11:25:48Z</time>
      </trkpt>
      <trkpt lat="44.44319" lon="1.32902">
        <ele>257</ele>
        <time>2019-04-14T11:25:49Z</time>
      </trkpt>
      <trkpt lat="44.44323" lon="1.32905">
        <ele>257</ele>
        <time>2019-04-14T11:25:50Z</time>
      </trkpt>
      <trkpt lat="44.44326" lon="1.32907">
        <ele>257</ele>
        <time>2019-04-14T11:25:51Z</time>
      </trkpt>
      <trkpt lat="44.44329" lon="1.32909">
        <ele>257</ele>
        <time>2019-04-14T11:25:52Z</time>
      </trkpt>
      <trkpt lat="44.44331" lon="1.32912">
        <ele>258</ele>
        <time>2019-04-14T11:25:53Z</time>
      </trkpt>
      <trkpt lat="44.44334" lon="1.32913">
        <ele>258</ele>
        <time>2019-04-14T11:25:54Z</time>
      </trkpt>
      <trkpt lat="44.44337" lon="1.32915">
        <ele>258</ele>
        <time>2019-04-14T11:25:55Z</time>
      </trkpt>
      <trkpt lat="44.44339" lon="1.32917">
        <ele>258</ele>
        <time>2019-04-14T11:25:56Z</time>
      </trkpt>
      <trkpt lat="44.44341" lon="1.32918">
        <ele>259</ele>
        <time>2019-04-14T11:25:57Z</time>
      </trkpt>
      <trkpt lat="44.44343" lon="1.32918">
        <ele>259</ele>
        <time>2019-04-14T11:25:58Z</time>
      </trkpt>
      <trkpt lat="44.44346" lon="1.3292">
        <ele>259</ele>
        <time>2019-04-14T11:25:59Z</time>
      </trkpt>
      <trkpt lat="44.44348" lon="1.32921">
        <ele>259</ele>
        <time>2019-04-14T11:26:00Z</time>
      </trkpt>
      <trkpt lat="44.44351" lon="1.32923">
        <ele>259</ele>
        <time>2019-04-14T11:26:01Z</time>
      </trkpt>
      <trkpt lat="44.44354" lon="1.32926">
        <ele>259</ele>
        <time>2019-04-14T11:26:02Z</time>
      </trkpt>
      <trkpt lat="44.44358" lon="1.32929">
        <ele>259</ele>
        <time>2019-04-14T11:26:03Z</time>
      </trkpt>
      <trkpt lat="44.44361" lon="1.32933">
        <ele>259</ele>
        <time>2019-04-14T11:26:04Z</time>
      </trkpt>
      <trkpt lat="44.44363" lon="1.32937">
        <ele>259</ele>
        <time>2019-04-14T11:26:05Z</time>
      </trkpt>
      <trkpt lat="44.44366" lon="1.32941">
        <ele>259</ele>
        <time>2019-04-14T11:26:06Z</time>
      </trkpt>
      <trkpt lat="44.44369" lon="1.32946">
        <ele>259</ele>
        <time>2019-04-14T11:26:07Z</time>
      </trkpt>
      <trkpt lat="44.44372" lon="1.32952">
        <ele>258</ele>
        <time>2019-04-14T11:26:08Z</time>
      </trkpt>
      <trkpt lat="44.44376" lon="1.32958">
        <ele>258</ele>
        <time>2019-04-14T11:26:09Z</time>
      </trkpt>
      <trkpt lat="44.4438" lon="1.32964">
        <ele>258</ele>
        <time>2019-04-14T11:26:10Z</time>
      </trkpt>
      <trkpt lat="44.44384" lon="1.32971">
        <ele>257</ele>
        <time>2019-04-14T11:26:11Z</time>
      </trkpt>
      <trkpt lat="44.44388" lon="1.32977">
        <ele>257</ele>
        <time>2019-04-14T11:26:12Z</time>
      </trkpt>
      <trkpt lat="44.44391" lon="1.32984">
        <ele>257</ele>
        <time>2019-04-14T11:26:13Z</time>
      </trkpt>
      <trkpt lat="44.44394" lon="1.32991">
        <ele>256</ele>
        <time>2019-04-14T11:26:14Z</time>
      </trkpt>
      <trkpt lat="44.44397" lon="1.32998">
        <ele>256</ele>
        <time>2019-04-14T11:26:15Z</time>
      </trkpt>
      <trkpt lat="44.44401" lon="1.33003">
        <ele>256</ele>
        <time>2019-04-14T11:26:16Z</time>
      </trkpt>
      <trkpt lat="44.44406" lon="1.33007">
        <ele>255</ele>
        <time>2019-04-14T11:26:17Z</time>
      </trkpt>
      <trkpt lat="44.44411" lon="1.33009">
        <ele>255</ele>
        <time>2019-04-14T11:26:18Z</time>
      </trkpt>
      <trkpt lat="44.44416" lon="1.3301">
        <ele>255</ele>
        <time>2019-04-14T11:26:19Z</time>
      </trkpt>
      <trkpt lat="44.44421" lon="1.33009">
        <ele>255</ele>
        <time>2019-04-14T11:26:20Z</time>
      </trkpt>
      <trkpt lat="44.44426" lon="1.33008">
        <ele>255</ele>
        <time>2019-04-14T11:26:21Z</time>
      </trkpt>
      <trkpt lat="44.4443" lon="1.33007">
        <ele>255</ele>
        <time>2019-04-14T11:26:22Z</time>
      </trkpt>
      <trkpt lat="44.44434" lon="1.33005">
        <ele>255</ele>
        <time>2019-04-14T11:26:23Z</time>
      </trkpt>
      <trkpt lat="44.44437" lon="1.33003">
        <ele>255</ele>
        <time>2019-04-14T11:26:24Z</time>
      </trkpt>
      <trkpt lat="44.44441" lon="1.33003">
        <ele>255</ele>
        <time>2019-04-14T11:26:25Z</time>
      </trkpt>
      <trkpt lat="44.44445" lon="1.33005">
        <ele>255</ele>
        <time>2019-04-14T11:26:26Z</time>
      </trkpt>
      <trkpt lat="44.44449" lon="1.33008">
        <ele>255</ele>
        <time>2019-04-14T11:26:27Z</time>
      </trkpt>
      <trkpt lat="44.44453" lon="1.33011">
        <ele>255</ele>
        <time>2019-04-14T11:26:28Z</time>
      </trkpt>
      <trkpt lat="44.44458" lon="1.33014">
        <ele>255</ele>
        <time>2019-04-14T11:26:29Z</time>
      </trkpt>
      <trkpt lat="44.44461" lon="1.33019">
        <ele>255</ele>
        <time>2019-04-14T11:26:30Z</time>
      </trkpt>
      <trkpt lat="44.44464" lon="1.33025">
        <ele>254</ele>
        <time>2019-04-14T11:26:31Z</time>
      </trkpt>
      <trkpt lat="44.44465" lon="1.33031">
        <ele>254</ele>
        <time>2019-04-14T11:26:32Z</time>
      </trkpt>
      <trkpt lat="44.44466" lon="1.33037">
        <ele>254</ele>
        <time>2019-04-14T11:26:33Z</time>
      </trkpt>
      <trkpt lat="44.44468" lon="1.33043">
        <ele>254</ele>
        <time>2019-04-14T11:26:34Z</time>
      </trkpt>
      <trkpt lat="44.44469" lon="1.3305">
        <ele>254</ele>
        <time>2019-04-14T11:26:35Z</time>
      </trkpt>
      <trkpt lat="44.44471" lon="1.33057">
        <ele>254</ele>
        <time>2019-04-14T11:26:36Z</time>
      </trkpt>
      <trkpt lat="44.44473" lon="1.33064">
        <ele>254</ele>
        <time>2019-04-14T11:26:37Z</time>
      </trkpt>
      <trkpt lat="44.44474" lon="1.33072">
        <ele>254</ele>
        <time>2019-04-14T11:26:38Z</time>
      </trkpt>
      <trkpt lat="44.44476" lon="1.33079">
        <ele>254</ele>
        <time>2019-04-14T11:26:39Z</time>
      </trkpt>
      <trkpt lat="44.44477" lon="1.33087">
        <ele>254</ele>
        <time>2019-04-14T11:26:40Z</time>
      </trkpt>
      <trkpt lat="44.44479" lon="1.33094">
        <ele>254</ele>
        <time>2019-04-14T11:26:41Z</time>
      </trkpt>
      <trkpt lat="44.44481" lon="1.33102">
        <ele>254</ele>
        <time>2019-04-14T11:26:42Z</time>
      </trkpt>
      <trkpt lat="44.44483" lon="1.3311">
        <ele>254</ele>
        <time>2019-04-14T11:26:43Z</time>
      </trkpt>
      <trkpt lat="44.44484" lon="1.33118">
        <ele>254</ele>
        <time>2019-04-14T11:26:44Z</time>
      </trkpt>
      <trkpt lat="44.44486" lon="1.33125">
        <ele>254</ele>
        <time>2019-04-14T11:26:45Z</time>
      </trkpt>
      <trkpt lat="44.44487" lon="1.33133">
        <ele>253</ele>
        <time>2019-04-14T11:26:46Z</time>
      </trkpt>
      <trkpt lat="44.4449" lon="1.3314">
        <ele>253</ele>
        <time>2019-04-14T11:26:47Z</time>
      </trkpt>
      <trkpt lat="44.44492" lon="1.33148">
        <ele>254</ele>
        <time>2019-04-14T11:26:48Z</time>
      </trkpt>
      <trkpt lat="44.44496" lon="1.33154">
        <ele>254</ele>
        <time>2019-04-14T11:26:49Z</time>
      </trkpt>
      <trkpt lat="44.445" lon="1.33159">
        <ele>254</ele>
        <time>2019-04-14T11:26:50Z</time>
      </trkpt>
      <trkpt lat="44.44504" lon="1.33165">
        <ele>253</ele>
        <time>2019-04-14T11:26:51Z</time>
      </trkpt>
      <trkpt lat="44.44508" lon="1.3317">
        <ele>253</ele>
        <time>2019-04-14T11:26:52Z</time>
      </trkpt>
      <trkpt lat="44.44512" lon="1.33175">
        <ele>253</ele>
        <time>2019-04-14T11:26:53Z</time>
      </trkpt>
      <trkpt lat="44.44516" lon="1.33181">
        <ele>253</ele>
        <time>2019-04-14T11:26:54Z</time>
      </trkpt>
      <trkpt lat="44.44519" lon="1.33186">
        <ele>253</ele>
        <time>2019-04-14T11:26:55Z</time>
      </trkpt>
      <trkpt lat="44.44523" lon="1.33192">
        <ele>253</ele>
        <time>2019-04-14T11:26:56Z</time>
      </trkpt>
      <trkpt lat="44.44527" lon="1.33198">
        <ele>254</ele>
        <time>2019-04-14T11:26:57Z</time>
      </trkpt>
      <trkpt lat="44.44531" lon="1.33204">
        <ele>254</ele>
        <time>2019-04-14T11:26:58Z</time>
      </trkpt>
      <trkpt lat="44.44535" lon="1.33208">
        <ele>254</ele>
        <time>2019-04-14T11:26:59Z</time>
      </trkpt>
      <trkpt lat="44.44539" lon="1.33213">
        <ele>254</ele>
        <time>2019-04-14T11:27:00Z</time>
      </trkpt>
      <trkpt lat="44.44543" lon="1.33218">
        <ele>254</ele>
        <time>2019-04-14T11:27:01Z</time>
      </trkpt>
      <trkpt lat="44.44545" lon="1.33222">
        <ele>254</ele>
        <time>2019-04-14T11:27:02Z</time>
      </trkpt>
      <trkpt lat="44.44549" lon="1.33226">
        <ele>254</ele>
        <time>2019-04-14T11:27:03Z</time>
      </trkpt>
      <trkpt lat="44.44553" lon="1.33231">
        <ele>254</ele>
        <time>2019-04-14T11:27:04Z</time>
      </trkpt>
      <trkpt lat="44.44557" lon="1.33237">
        <ele>254</ele>
        <time>2019-04-14T11:27:05Z</time>
      </trkpt>
      <trkpt lat="44.4456" lon="1.33242">
        <ele>254</ele>
        <time>2019-04-14T11:27:06Z</time>
      </trkpt>
      <trkpt lat="44.44563" lon="1.33248">
        <ele>254</ele>
        <time>2019-04-14T11:27:07Z</time>
      </trkpt>
      <trkpt lat="44.44566" lon="1.33255">
        <ele>254</ele>
        <time>2019-04-14T11:27:08Z</time>
      </trkpt>
      <trkpt lat="44.44568" lon="1.33261">
        <ele>254</ele>
        <time>2019-04-14T11:27:09Z</time>
      </trkpt>
      <trkpt lat="44.44571" lon="1.33268">
        <ele>254</ele>
        <time>2019-04-14T11:27:10Z</time>
      </trkpt>
      <trkpt lat="44.44573" lon="1.33274">
        <ele>255</ele>
        <time>2019-04-14T11:27:11Z</time>
      </trkpt>
      <trkpt lat="44.44576" lon="1.3328">
        <ele>255</ele>
        <time>2019-04-14T11:27:12Z</time>
      </trkpt>
      <trkpt lat="44.44578" lon="1.33287">
        <ele>255</ele>
        <time>2019-04-14T11:27:13Z</time>
      </trkpt>
      <trkpt lat="44.44579" lon="1.33293">
        <ele>255</ele>
        <time>2019-04-14T11:27:14Z</time>
      </trkpt>
      <trkpt lat="44.44581" lon="1.33299">
        <ele>255</ele>
        <time>2019-04-14T11:27:15Z</time>
      </trkpt>
      <trkpt lat="44.44582" lon="1.33305">
        <ele>256</ele>
        <time>2019-04-14T11:27:16Z</time>
      </trkpt>
      <trkpt lat="44.44583" lon="1.3331">
        <ele>256</ele>
        <time>2019-04-14T11:27:17Z</time>
      </trkpt>
      <trkpt lat="44.44584" lon="1.33316">
        <ele>256</ele>
        <time>2019-04-14T11:27:18Z</time>
      </trkpt>
      <trkpt lat="44.44583" lon="1.33321">
        <ele>256</ele>
        <time>2019-04-14T11:27:19Z</time>
      </trkpt>
      <trkpt lat="44.44582" lon="1.33327">
        <ele>257</ele>
        <time>2019-04-14T11:27:20Z</time>
      </trkpt>
      <trkpt lat="44.44582" lon="1.33332">
        <ele>257</ele>
        <time>2019-04-14T11:27:21Z</time>
      </trkpt>
      <trkpt lat="44.44582" lon="1.33338">
        <ele>257</ele>
        <time>2019-04-14T11:27:22Z</time>
      </trkpt>
      <trkpt lat="44.44581" lon="1.33343">
        <ele>257</ele>
        <time>2019-04-14T11:27:23Z</time>
      </trkpt>
      <trkpt lat="44.4458" lon="1.33349">
        <ele>258</ele>
        <time>2019-04-14T11:27:24Z</time>
      </trkpt>
      <trkpt lat="44.4458" lon="1.33356">
        <ele>258</ele>
        <time>2019-04-14T11:27:25Z</time>
      </trkpt>
      <trkpt lat="44.4458" lon="1.33362">
        <ele>258</ele>
        <time>2019-04-14T11:27:26Z</time>
      </trkpt>
      <trkpt lat="44.44579" lon="1.33368">
        <ele>258</ele>
        <time>2019-04-14T11:27:27Z</time>
      </trkpt>
      <trkpt lat="44.44578" lon="1.33374">
        <ele>258</ele>
        <time>2019-04-14T11:27:28Z</time>
      </trkpt>
      <trkpt lat="44.44578" lon="1.33381">
        <ele>258</ele>
        <time>2019-04-14T11:27:29Z</time>
      </trkpt>
      <trkpt lat="44.44577" lon="1.33387">
        <ele>258</ele>
        <time>2019-04-14T11:27:30Z</time>
      </trkpt>
      <trkpt lat="44.44577" lon="1.33393">
        <ele>259</ele>
        <time>2019-04-14T11:27:31Z</time>
      </trkpt>
      <trkpt lat="44.44576" lon="1.33399">
        <ele>259</ele>
        <time>2019-04-14T11:27:32Z</time>
      </trkpt>
      <trkpt lat="44.44576" lon="1.33405">
        <ele>259</ele>
        <time>2019-04-14T11:27:33Z</time>
      </trkpt>
      <trkpt lat="44.44576" lon="1.33411">
        <ele>259</ele>
        <time>2019-04-14T11:27:34Z</time>
      </trkpt>
      <trkpt lat="44.44576" lon="1.33417">
        <ele>259</ele>
        <time>2019-04-14T11:27:35Z</time>
      </trkpt>
      <trkpt lat="44.44576" lon="1.33422">
        <ele>259</ele>
        <time>2019-04-14T11:27:36Z</time>
      </trkpt>
      <trkpt lat="44.44577" lon="1.33428">
        <ele>259</ele>
        <time>2019-04-14T11:27:37Z</time>
      </trkpt>
      <trkpt lat="44.44577" lon="1.33433">
        <ele>259</ele>
        <time>2019-04-14T11:27:38Z</time>
      </trkpt>
      <trkpt lat="44.44577" lon="1.33438">
        <ele>259</ele>
        <time>2019-04-14T11:27:39Z</time>
      </trkpt>
      <trkpt lat="44.44578" lon="1.33444">
        <ele>259</ele>
        <time>2019-04-14T11:27:40Z</time>
      </trkpt>
      <trkpt lat="44.44578" lon="1.33449">
        <ele>259</ele>
        <time>2019-04-14T11:27:41Z</time>
      </trkpt>
      <trkpt lat="44.44579" lon="1.33454">
        <ele>259</ele>
        <time>2019-04-14T11:27:42Z</time>
      </trkpt>
      <trkpt lat="44.4458" lon="1.33459">
        <ele>259</ele>
        <time>2019-04-14T11:27:43Z</time>
      </trkpt>
      <trkpt lat="44.4458" lon="1.33464">
        <ele>259</ele>
        <time>2019-04-14T11:27:44Z</time>
      </trkpt>
      <trkpt lat="44.44581" lon="1.33468">
        <ele>259</ele>
        <time>2019-04-14T11:27:45Z</time>
      </trkpt>
      <trkpt lat="44.44581" lon="1.33473">
        <ele>259</ele>
        <time>2019-04-14T11:27:46Z</time>
      </trkpt>
      <trkpt lat="44.44581" lon="1.33476">
        <ele>258</ele>
        <time>2019-04-14T11:27:47Z</time>
      </trkpt>
      <trkpt lat="44.44579" lon="1.33479">
        <ele>258</ele>
        <time>2019-04-14T11:27:48Z</time>
      </trkpt>
      <trkpt lat="44.44576" lon="1.33479">
        <ele>258</ele>
        <time>2019-04-14T11:27:49Z</time>
      </trkpt>
      <trkpt lat="44.44572" lon="1.33479">
        <ele>258</ele>
        <time>2019-04-14T11:27:50Z</time>
      </trkpt>
      <trkpt lat="44.44569" lon="1.33477">
        <ele>258</ele>
        <time>2019-04-14T11:27:51Z</time>
      </trkpt>
      <trkpt lat="44.44565" lon="1.33477">
        <ele>257</ele>
        <time>2019-04-14T11:27:52Z</time>
      </trkpt>
      <trkpt lat="44.4456" lon="1.33476">
        <ele>257</ele>
        <time>2019-04-14T11:27:53Z</time>
      </trkpt>
      <trkpt lat="44.44555" lon="1.33476">
        <ele>257</ele>
        <time>2019-04-14T11:27:54Z</time>
      </trkpt>
      <trkpt lat="44.4455" lon="1.33476">
        <ele>256</ele>
        <time>2019-04-14T11:27:55Z</time>
      </trkpt>
      <trkpt lat="44.44545" lon="1.33475">
        <ele>256</ele>
        <time>2019-04-14T11:27:56Z</time>
      </trkpt>
      <trkpt lat="44.4454" lon="1.33475">
        <ele>256</ele>
        <time>2019-04-14T11:27:57Z</time>
      </trkpt>
      <trkpt lat="44.44534" lon="1.33474">
        <ele>256</ele>
        <time>2019-04-14T11:27:58Z</time>
      </trkpt>
      <trkpt lat="44.44528" lon="1.33473">
        <ele>255</ele>
        <time>2019-04-14T11:27:59Z</time>
      </trkpt>
      <trkpt lat="44.44522" lon="1.33472">
        <ele>255</ele>
        <time>2019-04-14T11:28:00Z</time>
      </trkpt>
      <trkpt lat="44.44517" lon="1.33472">
        <ele>254</ele>
        <time>2019-04-14T11:28:01Z</time>
      </trkpt>
      <trkpt lat="44.44512" lon="1.33473">
        <ele>254</ele>
        <time>2019-04-14T11:28:02Z</time>
      </trkpt>
      <trkpt lat="44.44508" lon="1.33471">
        <ele>254</ele>
        <time>2019-04-14T11:28:03Z</time>
      </trkpt>
      <trkpt lat="44.44504" lon="1.33469">
        <ele>254</ele>
        <time>2019-04-14T11:28:04Z</time>
      </trkpt>
      <trkpt lat="44.44499" lon="1.33468">
        <ele>253</ele>
        <time>2019-04-14T11:28:05Z</time>
      </trkpt>
      <trkpt lat="44.44494" lon="1.33469">
        <ele>253</ele>
        <time>2019-04-14T11:28:06Z</time>
      </trkpt>
      <trkpt lat="44.4449" lon="1.33472">
        <ele>253</ele>
        <time>2019-04-14T11:28:07Z</time>
      </trkpt>
      <trkpt lat="44.44485" lon="1.33477">
        <ele>252</ele>
        <time>2019-04-14T11:28:08Z</time>
      </trkpt>
      <trkpt lat="44.4448" lon="1.33482">
        <ele>252</ele>
        <time>2019-04-14T11:28:09Z</time>
      </trkpt>
      <trkpt lat="44.44476" lon="1.33488">
        <ele>251</ele>
        <time>2019-04-14T11:28:10Z</time>
      </trkpt>
      <trkpt lat="44.44471" lon="1.33494">
        <ele>251</ele>
        <time>2019-04-14T11:28:11Z</time>
      </trkpt>
      <trkpt lat="44.44467" lon="1.33501">
        <ele>250</ele>
        <time>2019-04-14T11:28:12Z</time>
      </trkpt>
      <trkpt lat="44.44464" lon="1.3351">
        <ele>250</ele>
        <time>2019-04-14T11:28:13Z</time>
      </trkpt>
      <trkpt lat="44.44462" lon="1.33519">
        <ele>249</ele>
        <time>2019-04-14T11:28:14Z</time>
      </trkpt>
      <trkpt lat="44.44458" lon="1.33526">
        <ele>249</ele>
        <time>2019-04-14T11:28:15Z</time>
      </trkpt>
      <trkpt lat="44.44455" lon="1.33531">
        <ele>249</ele>
        <time>2019-04-14T11:28:16Z</time>
      </trkpt>
      <trkpt lat="44.4445" lon="1.33531">
        <ele>248</ele>
        <time>2019-04-14T11:28:17Z</time>
      </trkpt>
      <trkpt lat="44.44445" lon="1.3353">
        <ele>248</ele>
        <time>2019-04-14T11:28:18Z</time>
      </trkpt>
      <trkpt lat="44.44439" lon="1.33527">
        <ele>247</ele>
        <time>2019-04-14T11:28:19Z</time>
      </trkpt>
      <trkpt lat="44.44434" lon="1.33524">
        <ele>247</ele>
        <time>2019-04-14T11:28:20Z</time>
      </trkpt>
      <trkpt lat="44.44428" lon="1.33521">
        <ele>246</ele>
        <time>2019-04-14T11:28:21Z</time>
      </trkpt>
      <trkpt lat="44.44421" lon="1.33518">
        <ele>245</ele>
        <time>2019-04-14T11:28:22Z</time>
      </trkpt>
      <trkpt lat="44.44414" lon="1.33515">
        <ele>244</ele>
        <time>2019-04-14T11:28:23Z</time>
      </trkpt>
      <trkpt lat="44.44407" lon="1.33515">
        <ele>243</ele>
        <time>2019-04-14T11:28:24Z</time>
      </trkpt>
      <trkpt lat="44.444" lon="1.33517">
        <ele>242</ele>
        <time>2019-04-14T11:28:25Z</time>
      </trkpt>
      <trkpt lat="44.44394" lon="1.33519">
        <ele>241</ele>
        <time>2019-04-14T11:28:26Z</time>
      </trkpt>
      <trkpt lat="44.44388" lon="1.3352">
        <ele>240</ele>
        <time>2019-04-14T11:28:27Z</time>
      </trkpt>
      <trkpt lat="44.44384" lon="1.33522">
        <ele>238</ele>
        <time>2019-04-14T11:28:28Z</time>
      </trkpt>
      <trkpt lat="44.44381" lon="1.33523">
        <ele>238</ele>
        <time>2019-04-14T11:28:29Z</time>
      </trkpt>
      <trkpt lat="44.44381" lon="1.33526">
        <ele>238</ele>
        <time>2019-04-14T11:28:30Z</time>
      </trkpt>
      <trkpt lat="44.44379" lon="1.33528">
        <ele>237</ele>
        <time>2019-04-14T11:28:31Z</time>
      </trkpt>
      <trkpt lat="44.44377" lon="1.33532">
        <ele>237</ele>
        <time>2019-04-14T11:28:32Z</time>
      </trkpt>
      <trkpt lat="44.44376" lon="1.33537">
        <ele>237</ele>
        <time>2019-04-14T11:28:33Z</time>
      </trkpt>
      <trkpt lat="44.44375" lon="1.33542">
        <ele>237</ele>
        <time>2019-04-14T11:28:34Z</time>
      </trkpt>
      <trkpt lat="44.44375" lon="1.33548">
        <ele>237</ele>
        <time>2019-04-14T11:28:35Z</time>
      </trkpt>
      <trkpt lat="44.44374" lon="1.33554">
        <ele>237</ele>
        <time>2019-04-14T11:28:36Z</time>
      </trkpt>
      <trkpt lat="44.44373" lon="1.3356">
        <ele>237</ele>
        <time>2019-04-14T11:28:37Z</time>
      </trkpt>
      <trkpt lat="44.44372" lon="1.33567">
        <ele>236</ele>
        <time>2019-04-14T11:28:38Z</time>
      </trkpt>
      <trkpt lat="44.44371" lon="1.33574">
        <ele>236</ele>
        <time>2019-04-14T11:28:39Z</time>
      </trkpt>
      <trkpt lat="44.44371" lon="1.33582">
        <ele>236</ele>
        <time>2019-04-14T11:28:40Z</time>
      </trkpt>
      <trkpt lat="44.4437" lon="1.33588">
        <ele>236</ele>
        <time>2019-04-14T11:28:41Z</time>
      </trkpt>
      <trkpt lat="44.44369" lon="1.33596">
        <ele>236</ele>
        <time>2019-04-14T11:28:42Z</time>
      </trkpt>
      <trkpt lat="44.44368" lon="1.33603">
        <ele>236</ele>
        <time>2019-04-14T11:28:43Z</time>
      </trkpt>
      <trkpt lat="44.44368" lon="1.33611">
        <ele>236</ele>
        <time>2019-04-14T11:28:44Z</time>
      </trkpt>
      <trkpt lat="44.44367" lon="1.33618">
        <ele>236</ele>
        <time>2019-04-14T11:28:45Z</time>
      </trkpt>
      <trkpt lat="44.44366" lon="1.33626">
        <ele>236</ele>
        <time>2019-04-14T11:28:46Z</time>
      </trkpt>
      <trkpt lat="44.44365" lon="1.33634">
        <ele>235</ele>
        <time>2019-04-14T11:28:47Z</time>
      </trkpt>
      <trkpt lat="44.44364" lon="1.33642">
        <ele>235</ele>
        <time>2019-04-14T11:28:48Z</time>
      </trkpt>
      <trkpt lat="44.44363" lon="1.33651">
        <ele>235</ele>
        <time>2019-04-14T11:28:49Z</time>
      </trkpt>
      <trkpt lat="44.44362" lon="1.33659">
        <ele>235</ele>
        <time>2019-04-14T11:28:50Z</time>
      </trkpt>
      <trkpt lat="44.44361" lon="1.33668">
        <ele>235</ele>
        <time>2019-04-14T11:28:51Z</time>
      </trkpt>
      <trkpt lat="44.44359" lon="1.33674">
        <ele>234</ele>
        <time>2019-04-14T11:28:52Z</time>
      </trkpt>
      <trkpt lat="44.44358" lon="1.33681">
        <ele>234</ele>
        <time>2019-04-14T11:28:53Z</time>
      </trkpt>
      <trkpt lat="44.44358" lon="1.33689">
        <ele>234</ele>
        <time>2019-04-14T11:28:54Z</time>
      </trkpt>
      <trkpt lat="44.44357" lon="1.33696">
        <ele>233</ele>
        <time>2019-04-14T11:28:55Z</time>
      </trkpt>
      <trkpt lat="44.44357" lon="1.33704">
        <ele>233</ele>
        <time>2019-04-14T11:28:56Z</time>
      </trkpt>
      <trkpt lat="44.44357" lon="1.33712">
        <ele>233</ele>
        <time>2019-04-14T11:28:57Z</time>
      </trkpt>
      <trkpt lat="44.44358" lon="1.3372">
        <ele>232</ele>
        <time>2019-04-14T11:28:58Z</time>
      </trkpt>
      <trkpt lat="44.44359" lon="1.33727">
        <ele>232</ele>
        <time>2019-04-14T11:28:59Z</time>
      </trkpt>
      <trkpt lat="44.44359" lon="1.33735">
        <ele>232</ele>
        <time>2019-04-14T11:29:00Z</time>
      </trkpt>
      <trkpt lat="44.44359" lon="1.33744">
        <ele>231</ele>
        <time>2019-04-14T11:29:01Z</time>
      </trkpt>
      <trkpt lat="44.4436" lon="1.33753">
        <ele>231</ele>
        <time>2019-04-14T11:29:02Z</time>
      </trkpt>
      <trkpt lat="44.44362" lon="1.33762">
        <ele>230</ele>
        <time>2019-04-14T11:29:03Z</time>
      </trkpt>
      <trkpt lat="44.44364" lon="1.33771">
        <ele>229</ele>
        <time>2019-04-14T11:29:04Z</time>
      </trkpt>
      <trkpt lat="44.44366" lon="1.33779">
        <ele>228</ele>
        <time>2019-04-14T11:29:05Z</time>
      </trkpt>
      <trkpt lat="44.44368" lon="1.33787">
        <ele>227</ele>
        <time>2019-04-14T11:29:06Z</time>
      </trkpt>
      <trkpt lat="44.4437" lon="1.33794">
        <ele>226</ele>
        <time>2019-04-14T11:29:07Z</time>
      </trkpt>
      <trkpt lat="44.44373" lon="1.33801">
        <ele>225</ele>
        <time>2019-04-14T11:29:08Z</time>
      </trkpt>
      <trkpt lat="44.44377" lon="1.33808">
        <ele>225</ele>
        <time>2019-04-14T11:29:09Z</time>
      </trkpt>
      <trkpt lat="44.44378" lon="1.33812">
        <ele>224</ele>
        <time>2019-04-14T11:29:10Z</time>
      </trkpt>
      <trkpt lat="44.44377" lon="1.33817">
        <ele>223</ele>
        <time>2019-04-14T11:29:11Z</time>
      </trkpt>
      <trkpt lat="44.44378" lon="1.33824">
        <ele>222</ele>
        <time>2019-04-14T11:29:12Z</time>
      </trkpt>
      <trkpt lat="44.4438" lon="1.33829">
        <ele>222</ele>
        <time>2019-04-14T11:29:13Z</time>
      </trkpt>
      <trkpt lat="44.44382" lon="1.33834">
        <ele>222</ele>
        <time>2019-04-14T11:29:14Z</time>
      </trkpt>
      <trkpt lat="44.44385" lon="1.33838">
        <ele>222</ele>
        <time>2019-04-14T11:29:15Z</time>
      </trkpt>
      <trkpt lat="44.44385" lon="1.33842">
        <ele>222</ele>
        <time>2019-04-14T11:29:16Z</time>
      </trkpt>
      <trkpt lat="44.44385" lon="1.33846">
        <ele>221</ele>
        <time>2019-04-14T11:29:17Z</time>
      </trkpt>
      <trkpt lat="44.44387" lon="1.33852">
        <ele>221</ele>
        <time>2019-04-14T11:29:18Z</time>
      </trkpt>
      <trkpt lat="44.44389" lon="1.33856">
        <ele>220</ele>
        <time>2019-04-14T11:29:19Z</time>
      </trkpt>
      <trkpt lat="44.44391" lon="1.33861">
        <ele>220</ele>
        <time>2019-04-14T11:29:20Z</time>
      </trkpt>
      <trkpt lat="44.44393" lon="1.33866">
        <ele>220</ele>
        <time>2019-04-14T11:29:21Z</time>
      </trkpt>
      <trkpt lat="44.44394" lon="1.33872">
        <ele>219</ele>
        <time>2019-04-14T11:29:22Z</time>
      </trkpt>
      <trkpt lat="44.44394" lon="1.3388">
        <ele>219</ele>
        <time>2019-04-14T11:29:23Z</time>
      </trkpt>
      <trkpt lat="44.44394" lon="1.33887">
        <ele>218</ele>
        <time>2019-04-14T11:29:24Z</time>
      </trkpt>
      <trkpt lat="44.44395" lon="1.33893">
        <ele>218</ele>
        <time>2019-04-14T11:29:25Z</time>
      </trkpt>
      <trkpt lat="44.44397" lon="1.33899">
        <ele>217</ele>
        <time>2019-04-14T11:29:26Z</time>
      </trkpt>
      <trkpt lat="44.44399" lon="1.33903">
        <ele>217</ele>
        <time>2019-04-14T11:29:27Z</time>
      </trkpt>
      <trkpt lat="44.44401" lon="1.33908">
        <ele>217</ele>
        <time>2019-04-14T11:29:28Z</time>
      </trkpt>
      <trkpt lat="44.44401" lon="1.33913">
        <ele>217</ele>
        <time>2019-04-14T11:29:29Z</time>
      </trkpt>
      <trkpt lat="44.44401" lon="1.33919">
        <ele>217</ele>
        <time>2019-04-14T11:29:30Z</time>
      </trkpt>
      <trkpt lat="44.44403" lon="1.33924">
        <ele>217</ele>
        <time>2019-04-14T11:29:31Z</time>
      </trkpt>
      <trkpt lat="44.44405" lon="1.33928">
        <ele>217</ele>
        <time>2019-04-14T11:29:32Z</time>
      </trkpt>
      <trkpt lat="44.44406" lon="1.33931">
        <ele>217</ele>
        <time>2019-04-14T11:29:33Z</time>
      </trkpt>
      <trkpt lat="44.44406" lon="1.33934">
        <ele>217</ele>
        <time>2019-04-14T11:29:34Z</time>
      </trkpt>
      <trkpt lat="44.44407" lon="1.33937">
        <ele>217</ele>
        <time>2019-04-14T11:29:35Z</time>
      </trkpt>
      <trkpt lat="44.44407" lon="1.33941">
        <ele>217</ele>
        <time>2019-04-14T11:29:36Z</time>
      </trkpt>
      <trkpt lat="44.44409" lon="1.33945">
        <ele>217</ele>
        <time>2019-04-14T11:29:37Z</time>
      </trkpt>
      <trkpt lat="44.44412" lon="1.33949">
        <ele>217</ele>
        <time>2019-04-14T11:29:38Z</time>
      </trkpt>
      <trkpt lat="44.44414" lon="1.33953">
        <ele>217</ele>
        <time>2019-04-14T11:29:39Z</time>
      </trkpt>
      <trkpt lat="44.44415" lon="1.33958">
        <ele>217</ele>
        <time>2019-04-14T11:29:40Z</time>
      </trkpt>
      <trkpt lat="44.44416" lon="1.33963">
        <ele>217</ele>
        <time>2019-04-14T11:29:41Z</time>
      </trkpt>
      <trkpt lat="44.44418" lon="1.33969">
        <ele>217</ele>
        <time>2019-04-14T11:29:42Z</time>
      </trkpt>
      <trkpt lat="44.44419" lon="1.33974">
        <ele>216</ele>
        <time>2019-04-14T11:29:43Z</time>
      </trkpt>
      <trkpt lat="44.44421" lon="1.33981">
        <ele>216</ele>
        <time>2019-04-14T11:29:44Z</time>
      </trkpt>
      <trkpt lat="44.44422" lon="1.33986">
        <ele>216</ele>
        <time>2019-04-14T11:29:45Z</time>
      </trkpt>
      <trkpt lat="44.44425" lon="1.33991">
        <ele>216</ele>
        <time>2019-04-14T11:29:46Z</time>
      </trkpt>
      <trkpt lat="44.44429" lon="1.33992">
        <ele>216</ele>
        <time>2019-04-14T11:29:47Z</time>
      </trkpt>
      <trkpt lat="44.44431" lon="1.33992">
        <ele>216</ele>
        <time>2019-04-14T11:29:48Z</time>
      </trkpt>
      <trkpt lat="44.44433" lon="1.33992">
        <ele>217</ele>
        <time>2019-04-14T11:29:49Z</time>
      </trkpt>
      <trkpt lat="44.44436" lon="1.33991">
        <ele>217</ele>
        <time>2019-04-14T11:29:50Z</time>
      </trkpt>
      <trkpt lat="44.44438" lon="1.3399">
        <ele>217</ele>
        <time>2019-04-14T11:29:51Z</time>
      </trkpt>
      <trkpt lat="44.44441" lon="1.33989">
        <ele>218</ele>
        <time>2019-04-14T11:29:52Z</time>
      </trkpt>
      <trkpt lat="44.44444" lon="1.33987">
        <ele>218</ele>
        <time>2019-04-14T11:29:53Z</time>
      </trkpt>
      <trkpt lat="44.44447" lon="1.33985">
        <ele>218</ele>
        <time>2019-04-14T11:29:54Z</time>
      </trkpt>
      <trkpt lat="44.44449" lon="1.33983">
        <ele>218</ele>
        <time>2019-04-14T11:29:55Z</time>
      </trkpt>
      <trkpt lat="44.44451" lon="1.33981">
        <ele>218</ele>
        <time>2019-04-14T11:29:56Z</time>
      </trkpt>
      <trkpt lat="44.44453" lon="1.33979">
        <ele>219</ele>
        <time>2019-04-14T11:29:57Z</time>
      </trkpt>
      <trkpt lat="44.44455" lon="1.33978">
        <ele>219</ele>
        <time>2019-04-14T11:29:58Z</time>
      </trkpt>
      <trkpt lat="44.44458" lon="1.33976">
        <ele>219</ele>
        <time>2019-04-14T11:29:59Z</time>
      </trkpt>
      <trkpt lat="44.4446" lon="1.33975">
        <ele>218</ele>
        <time>2019-04-14T11:30:00Z</time>
      </trkpt>
      <trkpt lat="44.44463" lon="1.33975">
        <ele>218</ele>
        <time>2019-04-14T11:30:01Z</time>
      </trkpt>
      <trkpt lat="44.44466" lon="1.33974">
        <ele>218</ele>
        <time>2019-04-14T11:30:02Z</time>
      </trkpt>
      <trkpt lat="44.44469" lon="1.33973">
        <ele>218</ele>
        <time>2019-04-14T11:30:03Z</time>
      </trkpt>
      <trkpt lat="44.44473" lon="1.3397">
        <ele>217</ele>
        <time>2019-04-14T11:30:04Z</time>
      </trkpt>
      <trkpt lat="44.44476" lon="1.33966">
        <ele>217</ele>
        <time>2019-04-14T11:30:05Z</time>
      </trkpt>
      <trkpt lat="44.44479" lon="1.33962">
        <ele>217</ele>
        <time>2019-04-14T11:30:06Z</time>
      </trkpt>
      <trkpt lat="44.44481" lon="1.33956">
        <ele>217</ele>
        <time>2019-04-14T11:30:07Z</time>
      </trkpt>
      <trkpt lat="44.44483" lon="1.33951">
        <ele>217</ele>
        <time>2019-04-14T11:30:08Z</time>
      </trkpt>
      <trkpt lat="44.44483" lon="1.33945">
        <ele>217</ele>
        <time>2019-04-14T11:30:09Z</time>
      </trkpt>
      <trkpt lat="44.44484" lon="1.33939">
        <ele>217</ele>
        <time>2019-04-14T11:30:10Z</time>
      </trkpt>
      <trkpt lat="44.44485" lon="1.33934">
        <ele>217</ele>
        <time>2019-04-14T11:30:11Z</time>
      </trkpt>
      <trkpt lat="44.44486" lon="1.33929">
        <ele>217</ele>
        <time>2019-04-14T11:30:12Z</time>
      </trkpt>
      <trkpt lat="44.44487" lon="1.33924">
        <ele>217</ele>
        <time>2019-04-14T11:30:13Z</time>
      </trkpt>
      <trkpt lat="44.44489" lon="1.33919">
        <ele>217</ele>
        <time>2019-04-14T11:30:14Z</time>
      </trkpt>
      <trkpt lat="44.4449" lon="1.33913">
        <ele>217</ele>
        <time>2019-04-14T11:30:15Z</time>
      </trkpt>
      <trkpt lat="44.44491" lon="1.33907">
        <ele>216</ele>
        <time>2019-04-14T11:30:16Z</time>
      </trkpt>
      <trkpt lat="44.44492" lon="1.33901">
        <ele>217</ele>
        <time>2019-04-14T11:30:17Z</time>
      </trkpt>
      <trkpt lat="44.44492" lon="1.33896">
        <ele>216</ele>
        <time>2019-04-14T11:30:18Z</time>
      </trkpt>
      <trkpt lat="44.44491" lon="1.33891">
        <ele>217</ele>
        <time>2019-04-14T11:30:19Z</time>
      </trkpt>
      <trkpt lat="44.44491" lon="1.33886">
        <ele>217</ele>
        <time>2019-04-14T11:30:20Z</time>
      </trkpt>
      <trkpt lat="44.4449" lon="1.33882">
        <ele>217</ele>
        <time>2019-04-14T11:30:21Z</time>
      </trkpt>
      <trkpt lat="44.4449" lon="1.33878">
        <ele>217</ele>
        <time>2019-04-14T11:30:22Z</time>
      </trkpt>
      <trkpt lat="44.4449" lon="1.33875">
        <ele>218</ele>
        <time>2019-04-14T11:30:23Z</time>
      </trkpt>
      <trkpt lat="44.4449" lon="1.33871">
        <ele>218</ele>
        <time>2019-04-14T11:30:24Z</time>
      </trkpt>
      <trkpt lat="44.4449" lon="1.33867">
        <ele>218</ele>
        <time>2019-04-14T11:30:25Z</time>
      </trkpt>
      <trkpt lat="44.44489" lon="1.33863">
        <ele>218</ele>
        <time>2019-04-14T11:30:26Z</time>
      </trkpt>
      <trkpt lat="44.44489" lon="1.3386">
        <ele>219</ele>
        <time>2019-04-14T11:30:27Z</time>
      </trkpt>
      <trkpt lat="44.44488" lon="1.33857">
        <ele>219</ele>
        <time>2019-04-14T11:30:28Z</time>
      </trkpt>
      <trkpt lat="44.44488" lon="1.33855">
        <ele>219</ele>
        <time>2019-04-14T11:30:29Z</time>
      </trkpt>
      <trkpt lat="44.44488" lon="1.33852">
        <ele>219</ele>
        <time>2019-04-14T11:30:30Z</time>
      </trkpt>
      <trkpt lat="44.44489" lon="1.3385">
        <ele>219</ele>
        <time>2019-04-14T11:30:31Z</time>
      </trkpt>
      <trkpt lat="44.44491" lon="1.33848">
        <ele>219</ele>
        <time>2019-04-14T11:30:32Z</time>
      </trkpt>
      <trkpt lat="44.44492" lon="1.33846">
        <ele>218</ele>
        <time>2019-04-14T11:30:33Z</time>
      </trkpt>
      <trkpt lat="44.44493" lon="1.33844">
        <ele>218</ele>
        <time>2019-04-14T11:30:34Z</time>
      </trkpt>
      <trkpt lat="44.44494" lon="1.33841">
        <ele>218</ele>
        <time>2019-04-14T11:30:35Z</time>
      </trkpt>
      <trkpt lat="44.44495" lon="1.33839">
        <ele>218</ele>
        <time>2019-04-14T11:30:36Z</time>
      </trkpt>
      <trkpt lat="44.44497" lon="1.33838">
        <ele>218</ele>
        <time>2019-04-14T11:30:37Z</time>
      </trkpt>
      <trkpt lat="44.445" lon="1.33837">
        <ele>217</ele>
        <time>2019-04-14T11:30:38Z</time>
      </trkpt>
      <trkpt lat="44.44503" lon="1.33836">
        <ele>217</ele>
        <time>2019-04-14T11:30:39Z</time>
      </trkpt>
      <trkpt lat="44.44508" lon="1.33835">
        <ele>217</ele>
        <time>2019-04-14T11:30:40Z</time>
      </trkpt>
      <trkpt lat="44.44513" lon="1.33833">
        <ele>216</ele>
        <time>2019-04-14T11:30:41Z</time>
      </trkpt>
      <trkpt lat="44.44519" lon="1.3383">
        <ele>216</ele>
        <time>2019-04-14T11:30:42Z</time>
      </trkpt>
      <trkpt lat="44.44524" lon="1.33828">
        <ele>215</ele>
        <time>2019-04-14T11:30:43Z</time>
      </trkpt>
      <trkpt lat="44.44529" lon="1.33828">
        <ele>215</ele>
        <time>2019-04-14T11:30:44Z</time>
      </trkpt>
      <trkpt lat="44.44534" lon="1.3383">
        <ele>215</ele>
        <time>2019-04-14T11:30:45Z</time>
      </trkpt>
      <trkpt lat="44.44538" lon="1.33833">
        <ele>215</ele>
        <time>2019-04-14T11:30:46Z</time>
      </trkpt>
      <trkpt lat="44.44541" lon="1.33838">
        <ele>215</ele>
        <time>2019-04-14T11:30:47Z</time>
      </trkpt>
      <trkpt lat="44.44543" lon="1.3384">
        <ele>215</ele>
        <time>2019-04-14T11:30:48Z</time>
      </trkpt>
      <trkpt lat="44.44545" lon="1.33841">
        <ele>216</ele>
        <time>2019-04-14T11:30:49Z</time>
      </trkpt>
      <trkpt lat="44.44546" lon="1.3384">
        <ele>216</ele>
        <time>2019-04-14T11:30:50Z</time>
      </trkpt>
      <trkpt lat="44.44546" lon="1.3384">
        <ele>216</ele>
        <time>2019-04-14T11:30:51Z</time>
      </trkpt>
      <trkpt lat="44.44546" lon="1.3384">
        <ele>217</ele>
        <time>2019-04-14T11:30:52Z</time>
      </trkpt>
      <trkpt lat="44.44547" lon="1.33839">
        <ele>217</ele>
        <time>2019-04-14T11:30:53Z</time>
      </trkpt>
      <trkpt lat="44.44547" lon="1.33838">
        <ele>217</ele>
        <time>2019-04-14T11:30:54Z</time>
      </trkpt>
      <trkpt lat="44.44547" lon="1.33836">
        <ele>217</ele>
        <time>2019-04-14T11:30:55Z</time>
      </trkpt>
      <trkpt lat="44.44547" lon="1.33835">
        <ele>217</ele>
        <time>2019-04-14T11:30:56Z</time>
      </trkpt>
      <trkpt lat="44.44547" lon="1.33834">
        <ele>217</ele>
        <time>2019-04-14T11:30:57Z</time>
      </trkpt>
      <trkpt lat="44.44547" lon="1.33833">
        <ele>218</ele>
        <time>2019-04-14T11:30:58Z</time>
      </trkpt>
      <trkpt lat="44.44548" lon="1.33832">
        <ele>218</ele>
        <time>2019-04-14T11:30:59Z</time>
      </trkpt>
      <trkpt lat="44.44548" lon="1.33831">
        <ele>218</ele>
        <time>2019-04-14T11:31:00Z</time>
      </trkpt>
      <trkpt lat="44.44548" lon="1.33831">
        <ele>218</ele>
        <time>2019-04-14T11:31:01Z</time>
      </trkpt>
      <trkpt lat="44.44548" lon="1.33831">
        <ele>218</ele>
        <time>2019-04-14T11:31:02Z</time>
      </trkpt>
      <trkpt lat="44.44548" lon="1.33831">
        <ele>218</ele>
        <time>2019-04-14T11:31:03Z</time>
      </trkpt>
      <trkpt lat="44.44548" lon="1.3383">
        <ele>218</ele>
        <time>2019-04-14T11:31:04Z</time>
      </trkpt>
      <trkpt lat="44.44548" lon="1.33831">
        <ele>220</ele>
        <time>2019-04-14T11:31:05Z</time>
      </trkpt>
      <trkpt lat="44.44555" lon="1.33818">
        <ele>221</ele>
        <time>2019-04-14T11:31:15Z</time>
      </trkpt>
      <trkpt lat="44.44555" lon="1.33817">
        <ele>221</ele>
        <time>2019-04-14T11:31:16Z</time>
      </trkpt>
      <trkpt lat="44.44555" lon="1.33817">
        <ele>221</ele>
        <time>2019-04-14T11:31:17Z</time>
      </trkpt>
      <trkpt lat="44.44555" lon="1.33817">
        <ele>221</ele>
        <time>2019-04-14T11:31:18Z</time>
      </trkpt>
      <trkpt lat="44.44556" lon="1.33816">
        <ele>221</ele>
        <time>2019-04-14T11:31:19Z</time>
      </trkpt>
      <trkpt lat="44.44556" lon="1.33816">
        <ele>221</ele>
        <time>2019-04-14T11:31:20Z</time>
      </trkpt>
      <trkpt lat="44.44557" lon="1.33816">
        <ele>222</ele>
        <time>2019-04-14T11:31:21Z</time>
      </trkpt>
      <trkpt lat="44.44558" lon="1.33816">
        <ele>222</ele>
        <time>2019-04-14T11:31:22Z</time>
      </trkpt>
      <trkpt lat="44.44559" lon="1.33816">
        <ele>222</ele>
        <time>2019-04-14T11:31:23Z</time>
      </trkpt>
      <trkpt lat="44.44569" lon="1.33812">
        <ele>225</ele>
        <time>2019-04-14T11:31:36Z</time>
      </trkpt>
      <trkpt lat="44.4457" lon="1.33811">
        <ele>225</ele>
        <time>2019-04-14T11:31:37Z</time>
      </trkpt>
      <trkpt lat="44.44571" lon="1.33811">
        <ele>226</ele>
        <time>2019-04-14T11:31:38Z</time>
      </trkpt>
      <trkpt lat="44.44572" lon="1.3381">
        <ele>226</ele>
        <time>2019-04-14T11:31:39Z</time>
      </trkpt>
      <trkpt lat="44.44573" lon="1.3381">
        <ele>226</ele>
        <time>2019-04-14T11:31:40Z</time>
      </trkpt>
      <trkpt lat="44.44573" lon="1.33809">
        <ele>226</ele>
        <time>2019-04-14T11:31:41Z</time>
      </trkpt>
      <trkpt lat="44.44574" lon="1.33809">
        <ele>227</ele>
        <time>2019-04-14T11:31:42Z</time>
      </trkpt>
      <trkpt lat="44.44575" lon="1.33809">
        <ele>227</ele>
        <time>2019-04-14T11:31:43Z</time>
      </trkpt>
      <trkpt lat="44.44576" lon="1.33808">
        <ele>227</ele>
        <time>2019-04-14T11:31:44Z</time>
      </trkpt>
      <trkpt lat="44.44577" lon="1.33808">
        <ele>227</ele>
        <time>2019-04-14T11:31:45Z</time>
      </trkpt>
      <trkpt lat="44.44577" lon="1.33808">
        <ele>227</ele>
        <time>2019-04-14T11:31:46Z</time>
      </trkpt>
      <trkpt lat="44.44578" lon="1.33808">
        <ele>228</ele>
        <time>2019-04-14T11:31:47Z</time>
      </trkpt>
      <trkpt lat="44.44579" lon="1.33808">
        <ele>228</ele>
        <time>2019-04-14T11:31:48Z</time>
      </trkpt>
      <trkpt lat="44.44579" lon="1.33808">
        <ele>228</ele>
        <time>2019-04-14T11:31:49Z</time>
      </trkpt>
      <trkpt lat="44.4458" lon="1.33808">
        <ele>228</ele>
        <time>2019-04-14T11:31:50Z</time>
      </trkpt>
      <trkpt lat="44.44581" lon="1.33808">
        <ele>228</ele>
        <time>2019-04-14T11:31:51Z</time>
      </trkpt>
      <trkpt lat="44.44581" lon="1.33808">
        <ele>228</ele>
        <time>2019-04-14T11:31:52Z</time>
      </trkpt>
      <trkpt lat="44.44582" lon="1.33808">
        <ele>228</ele>
        <time>2019-04-14T11:31:53Z</time>
      </trkpt>
      <trkpt lat="44.44582" lon="1.33808">
        <ele>228</ele>
        <time>2019-04-14T11:31:54Z</time>
      </trkpt>
      <trkpt lat="44.44582" lon="1.33808">
        <ele>228</ele>
        <time>2019-04-14T11:31:55Z</time>
      </trkpt>
      <trkpt lat="44.44582" lon="1.33808">
        <ele>228</ele>
        <time>2019-04-14T11:31:56Z</time>
      </trkpt>
      <trkpt lat="44.44582" lon="1.33808">
        <ele>228</ele>
        <time>2019-04-14T11:31:57Z</time>
      </trkpt>
      <trkpt lat="44.44582" lon="1.33807">
        <ele>228</ele>
        <time>2019-04-14T11:31:58Z</time>
      </trkpt>
      <trkpt lat="44.44582" lon="1.33807">
        <ele>228</ele>
        <time>2019-04-14T11:31:59Z</time>
      </trkpt>
      <trkpt lat="44.44594" lon="1.33803">
        <ele>230</ele>
        <time>2019-04-14T11:32:36Z</time>
      </trkpt>
      <trkpt lat="44.44595" lon="1.33802">
        <ele>230</ele>
        <time>2019-04-14T11:32:37Z</time>
      </trkpt>
      <trkpt lat="44.44597" lon="1.33802">
        <ele>231</ele>
        <time>2019-04-14T11:32:38Z</time>
      </trkpt>
      <trkpt lat="44.44598" lon="1.33802">
        <ele>231</ele>
        <time>2019-04-14T11:32:39Z</time>
      </trkpt>
      <trkpt lat="44.44599" lon="1.33802">
        <ele>231</ele>
        <time>2019-04-14T11:32:40Z</time>
      </trkpt>
      <trkpt lat="44.44601" lon="1.33802">
        <ele>231</ele>
        <time>2019-04-14T11:32:41Z</time>
      </trkpt>
      <trkpt lat="44.44602" lon="1.33803">
        <ele>232</ele>
        <time>2019-04-14T11:32:42Z</time>
      </trkpt>
      <trkpt lat="44.44603" lon="1.33803">
        <ele>232</ele>
        <time>2019-04-14T11:32:43Z</time>
      </trkpt>
      <trkpt lat="44.44604" lon="1.33804">
        <ele>232</ele>
        <time>2019-04-14T11:32:44Z</time>
      </trkpt>
      <trkpt lat="44.44605" lon="1.33806">
        <ele>232</ele>
        <time>2019-04-14T11:32:45Z</time>
      </trkpt>
      <trkpt lat="44.44604" lon="1.33808">
        <ele>232</ele>
        <time>2019-04-14T11:32:46Z</time>
      </trkpt>
      <trkpt lat="44.44603" lon="1.3381">
        <ele>232</ele>
        <time>2019-04-14T11:32:47Z</time>
      </trkpt>
      <trkpt lat="44.44603" lon="1.33814">
        <ele>231</ele>
        <time>2019-04-14T11:32:48Z</time>
      </trkpt>
      <trkpt lat="44.44602" lon="1.33819">
        <ele>231</ele>
        <time>2019-04-14T11:32:49Z</time>
      </trkpt>
      <trkpt lat="44.44602" lon="1.33824">
        <ele>231</ele>
        <time>2019-04-14T11:32:50Z</time>
      </trkpt>
      <trkpt lat="44.44602" lon="1.33829">
        <ele>230</ele>
        <time>2019-04-14T11:32:51Z</time>
      </trkpt>
      <trkpt lat="44.44603" lon="1.33835">
        <ele>230</ele>
        <time>2019-04-14T11:32:52Z</time>
      </trkpt>
      <trkpt lat="44.44604" lon="1.3384">
        <ele>230</ele>
        <time>2019-04-14T11:32:53Z</time>
      </trkpt>
      <trkpt lat="44.44607" lon="1.33845">
        <ele>230</ele>
        <time>2019-04-14T11:32:54Z</time>
      </trkpt>
      <trkpt lat="44.4461" lon="1.33849">
        <ele>230</ele>
        <time>2019-04-14T11:32:55Z</time>
      </trkpt>
      <trkpt lat="44.44612" lon="1.33853">
        <ele>230</ele>
        <time>2019-04-14T11:32:56Z</time>
      </trkpt>
      <trkpt lat="44.44614" lon="1.33857">
        <ele>230</ele>
        <time>2019-04-14T11:32:57Z</time>
      </trkpt>
      <trkpt lat="44.44616" lon="1.33861">
        <ele>229</ele>
        <time>2019-04-14T11:32:58Z</time>
      </trkpt>
      <trkpt lat="44.44617" lon="1.33867">
        <ele>229</ele>
        <time>2019-04-14T11:32:59Z</time>
      </trkpt>
      <trkpt lat="44.44618" lon="1.33873">
        <ele>229</ele>
        <time>2019-04-14T11:33:00Z</time>
      </trkpt>
      <trkpt lat="44.44619" lon="1.33881">
        <ele>228</ele>
        <time>2019-04-14T11:33:01Z</time>
      </trkpt>
      <trkpt lat="44.44622" lon="1.33887">
        <ele>228</ele>
        <time>2019-04-14T11:33:02Z</time>
      </trkpt>
      <trkpt lat="44.44624" lon="1.33893">
        <ele>227</ele>
        <time>2019-04-14T11:33:03Z</time>
      </trkpt>
      <trkpt lat="44.44626" lon="1.33901">
        <ele>226</ele>
        <time>2019-04-14T11:33:04Z</time>
      </trkpt>
      <trkpt lat="44.44626" lon="1.3391">
        <ele>225</ele>
        <time>2019-04-14T11:33:05Z</time>
      </trkpt>
      <trkpt lat="44.44626" lon="1.33919">
        <ele>224</ele>
        <time>2019-04-14T11:33:06Z</time>
      </trkpt>
      <trkpt lat="44.44627" lon="1.33926">
        <ele>224</ele>
        <time>2019-04-14T11:33:07Z</time>
      </trkpt>
      <trkpt lat="44.44629" lon="1.33932">
        <ele>224</ele>
        <time>2019-04-14T11:33:08Z</time>
      </trkpt>
      <trkpt lat="44.44631" lon="1.33936">
        <ele>224</ele>
        <time>2019-04-14T11:33:09Z</time>
      </trkpt>
      <trkpt lat="44.44633" lon="1.3394">
        <ele>224</ele>
        <time>2019-04-14T11:33:10Z</time>
      </trkpt>
      <trkpt lat="44.44634" lon="1.33944">
        <ele>224</ele>
        <time>2019-04-14T11:33:11Z</time>
      </trkpt>
      <trkpt lat="44.44635" lon="1.33947">
        <ele>224</ele>
        <time>2019-04-14T11:33:12Z</time>
      </trkpt>
      <trkpt lat="44.44636" lon="1.3395">
        <ele>224</ele>
        <time>2019-04-14T11:33:13Z</time>
      </trkpt>
      <trkpt lat="44.44637" lon="1.33954">
        <ele>224</ele>
        <time>2019-04-14T11:33:14Z</time>
      </trkpt>
      <trkpt lat="44.44638" lon="1.33957">
        <ele>224</ele>
        <time>2019-04-14T11:33:15Z</time>
      </trkpt>
      <trkpt lat="44.4464" lon="1.33961">
        <ele>224</ele>
        <time>2019-04-14T11:33:16Z</time>
      </trkpt>
      <trkpt lat="44.4464" lon="1.33965">
        <ele>224</ele>
        <time>2019-04-14T11:33:17Z</time>
      </trkpt>
      <trkpt lat="44.4464" lon="1.3397">
        <ele>223</ele>
        <time>2019-04-14T11:33:18Z</time>
      </trkpt>
      <trkpt lat="44.44641" lon="1.33975">
        <ele>223</ele>
        <time>2019-04-14T11:33:19Z</time>
      </trkpt>
      <trkpt lat="44.44641" lon="1.3398">
        <ele>223</ele>
        <time>2019-04-14T11:33:20Z</time>
      </trkpt>
      <trkpt lat="44.44642" lon="1.33986">
        <ele>223</ele>
        <time>2019-04-14T11:33:21Z</time>
      </trkpt>
      <trkpt lat="44.44641" lon="1.33993">
        <ele>222</ele>
        <time>2019-04-14T11:33:22Z</time>
      </trkpt>
      <trkpt lat="44.44641" lon="1.33999">
        <ele>222</ele>
        <time>2019-04-14T11:33:23Z</time>
      </trkpt>
      <trkpt lat="44.44641" lon="1.34004">
        <ele>222</ele>
        <time>2019-04-14T11:33:24Z</time>
      </trkpt>
      <trkpt lat="44.44642" lon="1.34008">
        <ele>222</ele>
        <time>2019-04-14T11:33:25Z</time>
      </trkpt>
      <trkpt lat="44.44644" lon="1.3401">
        <ele>222</ele>
        <time>2019-04-14T11:33:26Z</time>
      </trkpt>
      <trkpt lat="44.44646" lon="1.34012">
        <ele>222</ele>
        <time>2019-04-14T11:33:27Z</time>
      </trkpt>
      <trkpt lat="44.44647" lon="1.34013">
        <ele>222</ele>
        <time>2019-04-14T11:33:28Z</time>
      </trkpt>
      <trkpt lat="44.44648" lon="1.34015">
        <ele>222</ele>
        <time>2019-04-14T11:33:29Z</time>
      </trkpt>
      <trkpt lat="44.4465" lon="1.34017">
        <ele>222</ele>
        <time>2019-04-14T11:33:30Z</time>
      </trkpt>
      <trkpt lat="44.44651" lon="1.34018">
        <ele>222</ele>
        <time>2019-04-14T11:33:31Z</time>
      </trkpt>
      <trkpt lat="44.44652" lon="1.3402">
        <ele>222</ele>
        <time>2019-04-14T11:33:32Z</time>
      </trkpt>
      <trkpt lat="44.44653" lon="1.34021">
        <ele>222</ele>
        <time>2019-04-14T11:33:33Z</time>
      </trkpt>
      <trkpt lat="44.44654" lon="1.34022">
        <ele>222</ele>
        <time>2019-04-14T11:33:34Z</time>
      </trkpt>
      <trkpt lat="44.44654" lon="1.34024">
        <ele>222</ele>
        <time>2019-04-14T11:33:35Z</time>
      </trkpt>
      <trkpt lat="44.44655" lon="1.34025">
        <ele>222</ele>
        <time>2019-04-14T11:33:36Z</time>
      </trkpt>
      <trkpt lat="44.44655" lon="1.34026">
        <ele>222</ele>
        <time>2019-04-14T11:33:37Z</time>
      </trkpt>
      <trkpt lat="44.44655" lon="1.34027">
        <ele>222</ele>
        <time>2019-04-14T11:33:38Z</time>
      </trkpt>
      <trkpt lat="44.44655" lon="1.34028">
        <ele>222</ele>
        <time>2019-04-14T11:33:39Z</time>
      </trkpt>
      <trkpt lat="44.44655" lon="1.3403">
        <ele>222</ele>
        <time>2019-04-14T11:33:40Z</time>
      </trkpt>
      <trkpt lat="44.44654" lon="1.34033">
        <ele>222</ele>
        <time>2019-04-14T11:33:41Z</time>
      </trkpt>
      <trkpt lat="44.44653" lon="1.34037">
        <ele>221</ele>
        <time>2019-04-14T11:33:42Z</time>
      </trkpt>
      <trkpt lat="44.44653" lon="1.34042">
        <ele>221</ele>
        <time>2019-04-14T11:33:43Z</time>
      </trkpt>
      <trkpt lat="44.44652" lon="1.34047">
        <ele>221</ele>
        <time>2019-04-14T11:33:44Z</time>
      </trkpt>
      <trkpt lat="44.44652" lon="1.34053">
        <ele>220</ele>
        <time>2019-04-14T11:33:45Z</time>
      </trkpt>
      <trkpt lat="44.44652" lon="1.3406">
        <ele>220</ele>
        <time>2019-04-14T11:33:46Z</time>
      </trkpt>
      <trkpt lat="44.44653" lon="1.34067">
        <ele>220</ele>
        <time>2019-04-14T11:33:47Z</time>
      </trkpt>
      <trkpt lat="44.44654" lon="1.34074">
        <ele>220</ele>
        <time>2019-04-14T11:33:48Z</time>
      </trkpt>
      <trkpt lat="44.44655" lon="1.34081">
        <ele>219</ele>
        <time>2019-04-14T11:33:49Z</time>
      </trkpt>
      <trkpt lat="44.44655" lon="1.34089">
        <ele>219</ele>
        <time>2019-04-14T11:33:50Z</time>
      </trkpt>
      <trkpt lat="44.44656" lon="1.34096">
        <ele>219</ele>
        <time>2019-04-14T11:33:51Z</time>
      </trkpt>
      <trkpt lat="44.44657" lon="1.34103">
        <ele>218</ele>
        <time>2019-04-14T11:33:52Z</time>
      </trkpt>
      <trkpt lat="44.44658" lon="1.34111">
        <ele>218</ele>
        <time>2019-04-14T11:33:53Z</time>
      </trkpt>
      <trkpt lat="44.44659" lon="1.34117">
        <ele>217</ele>
        <time>2019-04-14T11:33:54Z</time>
      </trkpt>
      <trkpt lat="44.44659" lon="1.34125">
        <ele>217</ele>
        <time>2019-04-14T11:33:55Z</time>
      </trkpt>
      <trkpt lat="44.44659" lon="1.34132">
        <ele>217</ele>
        <time>2019-04-14T11:33:56Z</time>
      </trkpt>
      <trkpt lat="44.4466" lon="1.3414">
        <ele>216</ele>
        <time>2019-04-14T11:33:57Z</time>
      </trkpt>
      <trkpt lat="44.44661" lon="1.34148">
        <ele>216</ele>
        <time>2019-04-14T11:33:58Z</time>
      </trkpt>
      <trkpt lat="44.44661" lon="1.34156">
        <ele>215</ele>
        <time>2019-04-14T11:33:59Z</time>
      </trkpt>
      <trkpt lat="44.44661" lon="1.34164">
        <ele>215</ele>
        <time>2019-04-14T11:34:00Z</time>
      </trkpt>
      <trkpt lat="44.44662" lon="1.34174">
        <ele>214</ele>
        <time>2019-04-14T11:34:01Z</time>
      </trkpt>
      <trkpt lat="44.44663" lon="1.34183">
        <ele>214</ele>
        <time>2019-04-14T11:34:02Z</time>
      </trkpt>
      <trkpt lat="44.44663" lon="1.3419">
        <ele>213</ele>
        <time>2019-04-14T11:34:03Z</time>
      </trkpt>
      <trkpt lat="44.44664" lon="1.34194">
        <ele>213</ele>
        <time>2019-04-14T11:34:04Z</time>
      </trkpt>
      <trkpt lat="44.44664" lon="1.34198">
        <ele>213</ele>
        <time>2019-04-14T11:34:05Z</time>
      </trkpt>
      <trkpt lat="44.44665" lon="1.34204">
        <ele>212</ele>
        <time>2019-04-14T11:34:06Z</time>
      </trkpt>
      <trkpt lat="44.44664" lon="1.34209">
        <ele>212</ele>
        <time>2019-04-14T11:34:07Z</time>
      </trkpt>
      <trkpt lat="44.44665" lon="1.34215">
        <ele>212</ele>
        <time>2019-04-14T11:34:08Z</time>
      </trkpt>
      <trkpt lat="44.44667" lon="1.34222">
        <ele>212</ele>
        <time>2019-04-14T11:34:09Z</time>
      </trkpt>
      <trkpt lat="44.44669" lon="1.34228">
        <ele>212</ele>
        <time>2019-04-14T11:34:10Z</time>
      </trkpt>
      <trkpt lat="44.4467" lon="1.34234">
        <ele>212</ele>
        <time>2019-04-14T11:34:11Z</time>
      </trkpt>
      <trkpt lat="44.44672" lon="1.3424">
        <ele>211</ele>
        <time>2019-04-14T11:34:12Z</time>
      </trkpt>
      <trkpt lat="44.44674" lon="1.34246">
        <ele>211</ele>
        <time>2019-04-14T11:34:13Z</time>
      </trkpt>
      <trkpt lat="44.44674" lon="1.34252">
        <ele>211</ele>
        <time>2019-04-14T11:34:14Z</time>
      </trkpt>
      <trkpt lat="44.44673" lon="1.34258">
        <ele>210</ele>
        <time>2019-04-14T11:34:15Z</time>
      </trkpt>
      <trkpt lat="44.44671" lon="1.34264">
        <ele>210</ele>
        <time>2019-04-14T11:34:16Z</time>
      </trkpt>
      <trkpt lat="44.44671" lon="1.34269">
        <ele>209</ele>
        <time>2019-04-14T11:34:17Z</time>
      </trkpt>
      <trkpt lat="44.44673" lon="1.34273">
        <ele>209</ele>
        <time>2019-04-14T11:34:18Z</time>
      </trkpt>
      <trkpt lat="44.44675" lon="1.34277">
        <ele>209</ele>
        <time>2019-04-14T11:34:19Z</time>
      </trkpt>
      <trkpt lat="44.44676" lon="1.34282">
        <ele>209</ele>
        <time>2019-04-14T11:34:20Z</time>
      </trkpt>
      <trkpt lat="44.44677" lon="1.34287">
        <ele>209</ele>
        <time>2019-04-14T11:34:21Z</time>
      </trkpt>
      <trkpt lat="44.44678" lon="1.34293">
        <ele>208</ele>
        <time>2019-04-14T11:34:22Z</time>
      </trkpt>
      <trkpt lat="44.4468" lon="1.34299">
        <ele>208</ele>
        <time>2019-04-14T11:34:23Z</time>
      </trkpt>
      <trkpt lat="44.4468" lon="1.34306">
        <ele>208</ele>
        <time>2019-04-14T11:34:24Z</time>
      </trkpt>
      <trkpt lat="44.44681" lon="1.34314">
        <ele>207</ele>
        <time>2019-04-14T11:34:25Z</time>
      </trkpt>
      <trkpt lat="44.44682" lon="1.34321">
        <ele>207</ele>
        <time>2019-04-14T11:34:26Z</time>
      </trkpt>
      <trkpt lat="44.44683" lon="1.34328">
        <ele>207</ele>
        <time>2019-04-14T11:34:27Z</time>
      </trkpt>
      <trkpt lat="44.44685" lon="1.34334">
        <ele>206</ele>
        <time>2019-04-14T11:34:28Z</time>
      </trkpt>
      <trkpt lat="44.44688" lon="1.34339">
        <ele>206</ele>
        <time>2019-04-14T11:34:29Z</time>
      </trkpt>
      <trkpt lat="44.44692" lon="1.34345">
        <ele>206</ele>
        <time>2019-04-14T11:34:30Z</time>
      </trkpt>
      <trkpt lat="44.44696" lon="1.3435">
        <ele>205</ele>
        <time>2019-04-14T11:34:31Z</time>
      </trkpt>
      <trkpt lat="44.447" lon="1.34356">
        <ele>205</ele>
        <time>2019-04-14T11:34:32Z</time>
      </trkpt>
      <trkpt lat="44.44704" lon="1.34363">
        <ele>204</ele>
        <time>2019-04-14T11:34:33Z</time>
      </trkpt>
      <trkpt lat="44.44708" lon="1.3437">
        <ele>203</ele>
        <time>2019-04-14T11:34:34Z</time>
      </trkpt>
      <trkpt lat="44.44711" lon="1.34376">
        <ele>202</ele>
        <time>2019-04-14T11:34:35Z</time>
      </trkpt>
      <trkpt lat="44.44714" lon="1.34381">
        <ele>201</ele>
        <time>2019-04-14T11:34:36Z</time>
      </trkpt>
      <trkpt lat="44.44716" lon="1.34385">
        <ele>201</ele>
        <time>2019-04-14T11:34:37Z</time>
      </trkpt>
      <trkpt lat="44.44717" lon="1.34389">
        <ele>200</ele>
        <time>2019-04-14T11:34:38Z</time>
      </trkpt>
      <trkpt lat="44.44719" lon="1.34394">
        <ele>199</ele>
        <time>2019-04-14T11:34:39Z</time>
      </trkpt>
      <trkpt lat="44.44721" lon="1.34399">
        <ele>199</ele>
        <time>2019-04-14T11:34:40Z</time>
      </trkpt>
      <trkpt lat="44.44724" lon="1.34405">
        <ele>198</ele>
        <time>2019-04-14T11:34:41Z</time>
      </trkpt>
      <trkpt lat="44.44724" lon="1.34411">
        <ele>198</ele>
        <time>2019-04-14T11:34:42Z</time>
      </trkpt>
      <trkpt lat="44.44723" lon="1.34417">
        <ele>198</ele>
        <time>2019-04-14T11:34:43Z</time>
      </trkpt>
      <trkpt lat="44.44722" lon="1.34422">
        <ele>197</ele>
        <time>2019-04-14T11:34:44Z</time>
      </trkpt>
      <trkpt lat="44.44721" lon="1.34427">
        <ele>198</ele>
        <time>2019-04-14T11:34:45Z</time>
      </trkpt>
      <trkpt lat="44.44721" lon="1.34431">
        <ele>198</ele>
        <time>2019-04-14T11:34:46Z</time>
      </trkpt>
      <trkpt lat="44.4472" lon="1.34434">
        <ele>198</ele>
        <time>2019-04-14T11:34:47Z</time>
      </trkpt>
      <trkpt lat="44.44719" lon="1.34437">
        <ele>198</ele>
        <time>2019-04-14T11:34:48Z</time>
      </trkpt>
      <trkpt lat="44.44718" lon="1.34439">
        <ele>198</ele>
        <time>2019-04-14T11:34:49Z</time>
      </trkpt>
      <trkpt lat="44.44717" lon="1.34441">
        <ele>197</ele>
        <time>2019-04-14T11:34:50Z</time>
      </trkpt>
      <trkpt lat="44.44716" lon="1.34444">
        <ele>197</ele>
        <time>2019-04-14T11:34:51Z</time>
      </trkpt>
      <trkpt lat="44.44716" lon="1.34446">
        <ele>197</ele>
        <time>2019-04-14T11:34:52Z</time>
      </trkpt>
      <trkpt lat="44.44715" lon="1.34449">
        <ele>197</ele>
        <time>2019-04-14T11:34:53Z</time>
      </trkpt>
      <trkpt lat="44.44716" lon="1.34451">
        <ele>197</ele>
        <time>2019-04-14T11:34:54Z</time>
      </trkpt>
      <trkpt lat="44.44716" lon="1.34453">
        <ele>197</ele>
        <time>2019-04-14T11:34:55Z</time>
      </trkpt>
      <trkpt lat="44.44715" lon="1.34456">
        <ele>197</ele>
        <time>2019-04-14T11:34:56Z</time>
      </trkpt>
      <trkpt lat="44.44714" lon="1.3446">
        <ele>197</ele>
        <time>2019-04-14T11:34:57Z</time>
      </trkpt>
      <trkpt lat="44.44713" lon="1.34464">
        <ele>197</ele>
        <time>2019-04-14T11:34:58Z</time>
      </trkpt>
      <trkpt lat="44.44711" lon="1.34469">
        <ele>196</ele>
        <time>2019-04-14T11:34:59Z</time>
      </trkpt>
      <trkpt lat="44.4471" lon="1.34472">
        <ele>196</ele>
        <time>2019-04-14T11:35:00Z</time>
      </trkpt>
      <trkpt lat="44.44708" lon="1.34475">
        <ele>195</ele>
        <time>2019-04-14T11:35:01Z</time>
      </trkpt>
      <trkpt lat="44.44707" lon="1.34479">
        <ele>195</ele>
        <time>2019-04-14T11:35:02Z</time>
      </trkpt>
      <trkpt lat="44.44706" lon="1.34484">
        <ele>195</ele>
        <time>2019-04-14T11:35:03Z</time>
      </trkpt>
      <trkpt lat="44.44705" lon="1.34489">
        <ele>195</ele>
        <time>2019-04-14T11:35:04Z</time>
      </trkpt>
      <trkpt lat="44.44703" lon="1.34494">
        <ele>194</ele>
        <time>2019-04-14T11:35:05Z</time>
      </trkpt>
      <trkpt lat="44.44703" lon="1.34498">
        <ele>194</ele>
        <time>2019-04-14T11:35:06Z</time>
      </trkpt>
      <trkpt lat="44.44702" lon="1.34501">
        <ele>193</ele>
        <time>2019-04-14T11:35:07Z</time>
      </trkpt>
      <trkpt lat="44.44701" lon="1.34504">
        <ele>193</ele>
        <time>2019-04-14T11:35:08Z</time>
      </trkpt>
      <trkpt lat="44.447" lon="1.34508">
        <ele>193</ele>
        <time>2019-04-14T11:35:09Z</time>
      </trkpt>
      <trkpt lat="44.44699" lon="1.34512">
        <ele>192</ele>
        <time>2019-04-14T11:35:10Z</time>
      </trkpt>
      <trkpt lat="44.44697" lon="1.34515">
        <ele>192</ele>
        <time>2019-04-14T11:35:11Z</time>
      </trkpt>
      <trkpt lat="44.44697" lon="1.34519">
        <ele>192</ele>
        <time>2019-04-14T11:35:12Z</time>
      </trkpt>
      <trkpt lat="44.44697" lon="1.34522">
        <ele>192</ele>
        <time>2019-04-14T11:35:13Z</time>
      </trkpt>
      <trkpt lat="44.44697" lon="1.34526">
        <ele>192</ele>
        <time>2019-04-14T11:35:14Z</time>
      </trkpt>
      <trkpt lat="44.44697" lon="1.3453">
        <ele>192</ele>
        <time>2019-04-14T11:35:15Z</time>
      </trkpt>
      <trkpt lat="44.44696" lon="1.34535">
        <ele>193</ele>
        <time>2019-04-14T11:35:16Z</time>
      </trkpt>
      <trkpt lat="44.44697" lon="1.3454">
        <ele>193</ele>
        <time>2019-04-14T11:35:17Z</time>
      </trkpt>
      <trkpt lat="44.44697" lon="1.34544">
        <ele>193</ele>
        <time>2019-04-14T11:35:18Z</time>
      </trkpt>
      <trkpt lat="44.44695" lon="1.34546">
        <ele>193</ele>
        <time>2019-04-14T11:35:19Z</time>
      </trkpt>
      <trkpt lat="44.44694" lon="1.34549">
        <ele>193</ele>
        <time>2019-04-14T11:35:20Z</time>
      </trkpt>
      <trkpt lat="44.44694" lon="1.34553">
        <ele>193</ele>
        <time>2019-04-14T11:35:21Z</time>
      </trkpt>
      <trkpt lat="44.44694" lon="1.34557">
        <ele>193</ele>
        <time>2019-04-14T11:35:22Z</time>
      </trkpt>
      <trkpt lat="44.44695" lon="1.34561">
        <ele>193</ele>
        <time>2019-04-14T11:35:23Z</time>
      </trkpt>
      <trkpt lat="44.44695" lon="1.34566">
        <ele>192</ele>
        <time>2019-04-14T11:35:24Z</time>
      </trkpt>
      <trkpt lat="44.44695" lon="1.34571">
        <ele>192</ele>
        <time>2019-04-14T11:35:25Z</time>
      </trkpt>
      <trkpt lat="44.44694" lon="1.34576">
        <ele>192</ele>
        <time>2019-04-14T11:35:26Z</time>
      </trkpt>
      <trkpt lat="44.44694" lon="1.34581">
        <ele>191</ele>
        <time>2019-04-14T11:35:27Z</time>
      </trkpt>
      <trkpt lat="44.44695" lon="1.34586">
        <ele>191</ele>
        <time>2019-04-14T11:35:28Z</time>
      </trkpt>
      <trkpt lat="44.44694" lon="1.34592">
        <ele>191</ele>
        <time>2019-04-14T11:35:29Z</time>
      </trkpt>
      <trkpt lat="44.44694" lon="1.34597">
        <ele>190</ele>
        <time>2019-04-14T11:35:30Z</time>
      </trkpt>
      <trkpt lat="44.44694" lon="1.34603">
        <ele>190</ele>
        <time>2019-04-14T11:35:31Z</time>
      </trkpt>
      <trkpt lat="44.44694" lon="1.34609">
        <ele>189</ele>
        <time>2019-04-14T11:35:32Z</time>
      </trkpt>
      <trkpt lat="44.44695" lon="1.34614">
        <ele>189</ele>
        <time>2019-04-14T11:35:33Z</time>
      </trkpt>
      <trkpt lat="44.44695" lon="1.3462">
        <ele>188</ele>
        <time>2019-04-14T11:35:34Z</time>
      </trkpt>
      <trkpt lat="44.44695" lon="1.34626">
        <ele>188</ele>
        <time>2019-04-14T11:35:35Z</time>
      </trkpt>
      <trkpt lat="44.44696" lon="1.3463">
        <ele>188</ele>
        <time>2019-04-14T11:35:36Z</time>
      </trkpt>
      <trkpt lat="44.44696" lon="1.34634">
        <ele>188</ele>
        <time>2019-04-14T11:35:37Z</time>
      </trkpt>
      <trkpt lat="44.44697" lon="1.34637">
        <ele>188</ele>
        <time>2019-04-14T11:35:38Z</time>
      </trkpt>
      <trkpt lat="44.44697" lon="1.3464">
        <ele>189</ele>
        <time>2019-04-14T11:35:39Z</time>
      </trkpt>
      <trkpt lat="44.44699" lon="1.34644">
        <ele>189</ele>
        <time>2019-04-14T11:35:40Z</time>
      </trkpt>
      <trkpt lat="44.447" lon="1.34647">
        <ele>190</ele>
        <time>2019-04-14T11:35:41Z</time>
      </trkpt>
      <trkpt lat="44.44702" lon="1.3465">
        <ele>190</ele>
        <time>2019-04-14T11:35:42Z</time>
      </trkpt>
      <trkpt lat="44.44702" lon="1.34653">
        <ele>190</ele>
        <time>2019-04-14T11:35:43Z</time>
      </trkpt>
      <trkpt lat="44.44703" lon="1.34656">
        <ele>190</ele>
        <time>2019-04-14T11:35:44Z</time>
      </trkpt>
      <trkpt lat="44.44702" lon="1.34659">
        <ele>190</ele>
        <time>2019-04-14T11:35:45Z</time>
      </trkpt>
      <trkpt lat="44.44702" lon="1.34663">
        <ele>190</ele>
        <time>2019-04-14T11:35:46Z</time>
      </trkpt>
      <trkpt lat="44.44702" lon="1.34668">
        <ele>190</ele>
        <time>2019-04-14T11:35:47Z</time>
      </trkpt>
      <trkpt lat="44.44702" lon="1.34673">
        <ele>190</ele>
        <time>2019-04-14T11:35:48Z</time>
      </trkpt>
      <trkpt lat="44.44702" lon="1.34678">
        <ele>190</ele>
        <time>2019-04-14T11:35:49Z</time>
      </trkpt>
      <trkpt lat="44.44703" lon="1.34682">
        <ele>190</ele>
        <time>2019-04-14T11:35:50Z</time>
      </trkpt>
      <trkpt lat="44.44704" lon="1.34685">
        <ele>190</ele>
        <time>2019-04-14T11:35:51Z</time>
      </trkpt>
      <trkpt lat="44.44706" lon="1.34688">
        <ele>191</ele>
        <time>2019-04-14T11:35:52Z</time>
      </trkpt>
      <trkpt lat="44.44707" lon="1.34691">
        <ele>191</ele>
        <time>2019-04-14T11:35:53Z</time>
      </trkpt>
      <trkpt lat="44.44708" lon="1.34695">
        <ele>192</ele>
        <time>2019-04-14T11:35:54Z</time>
      </trkpt>
      <trkpt lat="44.44709" lon="1.34698">
        <ele>192</ele>
        <time>2019-04-14T11:35:55Z</time>
      </trkpt>
      <trkpt lat="44.44709" lon="1.34702">
        <ele>192</ele>
        <time>2019-04-14T11:35:56Z</time>
      </trkpt>
      <trkpt lat="44.44709" lon="1.34706">
        <ele>192</ele>
        <time>2019-04-14T11:35:57Z</time>
      </trkpt>
      <trkpt lat="44.44709" lon="1.3471">
        <ele>192</ele>
        <time>2019-04-14T11:35:58Z</time>
      </trkpt>
      <trkpt lat="44.4471" lon="1.34713">
        <ele>192</ele>
        <time>2019-04-14T11:35:59Z</time>
      </trkpt>
      <trkpt lat="44.4471" lon="1.34717">
        <ele>192</ele>
        <time>2019-04-14T11:36:00Z</time>
      </trkpt>
      <trkpt lat="44.44711" lon="1.34721">
        <ele>192</ele>
        <time>2019-04-14T11:36:01Z</time>
      </trkpt>
      <trkpt lat="44.44711" lon="1.34724">
        <ele>192</ele>
        <time>2019-04-14T11:36:02Z</time>
      </trkpt>
      <trkpt lat="44.44711" lon="1.34727">
        <ele>192</ele>
        <time>2019-04-14T11:36:03Z</time>
      </trkpt>
      <trkpt lat="44.44711" lon="1.34728">
        <ele>192</ele>
        <time>2019-04-14T11:36:04Z</time>
      </trkpt>
      <trkpt lat="44.44711" lon="1.34729">
        <ele>192</ele>
        <time>2019-04-14T11:36:05Z</time>
      </trkpt>
      <trkpt lat="44.44712" lon="1.34731">
        <ele>192</ele>
        <time>2019-04-14T11:36:06Z</time>
      </trkpt>
      <trkpt lat="44.44712" lon="1.34733">
        <ele>192</ele>
        <time>2019-04-14T11:36:07Z</time>
      </trkpt>
      <trkpt lat="44.44712" lon="1.34736">
        <ele>192</ele>
        <time>2019-04-14T11:36:08Z</time>
      </trkpt>
      <trkpt lat="44.44713" lon="1.34738">
        <ele>192</ele>
        <time>2019-04-14T11:36:09Z</time>
      </trkpt>
      <trkpt lat="44.44713" lon="1.34741">
        <ele>192</ele>
        <time>2019-04-14T11:36:10Z</time>
      </trkpt>
      <trkpt lat="44.44713" lon="1.34744">
        <ele>192</ele>
        <time>2019-04-14T11:36:11Z</time>
      </trkpt>
      <trkpt lat="44.44713" lon="1.34747">
        <ele>192</ele>
        <time>2019-04-14T11:36:12Z</time>
      </trkpt>
      <trkpt lat="44.44713" lon="1.34751">
        <ele>192</ele>
        <time>2019-04-14T11:36:13Z</time>
      </trkpt>
      <trkpt lat="44.44712" lon="1.34756">
        <ele>191</ele>
        <time>2019-04-14T11:36:14Z</time>
      </trkpt>
      <trkpt lat="44.44712" lon="1.34759">
        <ele>191</ele>
        <time>2019-04-14T11:36:15Z</time>
      </trkpt>
      <trkpt lat="44.44712" lon="1.34762">
        <ele>191</ele>
        <time>2019-04-14T11:36:16Z</time>
      </trkpt>
      <trkpt lat="44.44712" lon="1.34765">
        <ele>191</ele>
        <time>2019-04-14T11:36:17Z</time>
      </trkpt>
      <trkpt lat="44.44712" lon="1.34769">
        <ele>191</ele>
        <time>2019-04-14T11:36:18Z</time>
      </trkpt>
      <trkpt lat="44.44713" lon="1.34774">
        <ele>191</ele>
        <time>2019-04-14T11:36:19Z</time>
      </trkpt>
      <trkpt lat="44.44713" lon="1.34777">
        <ele>190</ele>
        <time>2019-04-14T11:36:20Z</time>
      </trkpt>
      <trkpt lat="44.44713" lon="1.34779">
        <ele>190</ele>
        <time>2019-04-14T11:36:21Z</time>
      </trkpt>
      <trkpt lat="44.44712" lon="1.34782">
        <ele>190</ele>
        <time>2019-04-14T11:36:22Z</time>
      </trkpt>
      <trkpt lat="44.44711" lon="1.34785">
        <ele>189</ele>
        <time>2019-04-14T11:36:23Z</time>
      </trkpt>
      <trkpt lat="44.4471" lon="1.34788">
        <ele>189</ele>
        <time>2019-04-14T11:36:24Z</time>
      </trkpt>
      <trkpt lat="44.44708" lon="1.34792">
        <ele>188</ele>
        <time>2019-04-14T11:36:25Z</time>
      </trkpt>
      <trkpt lat="44.44708" lon="1.34796">
        <ele>188</ele>
        <time>2019-04-14T11:36:26Z</time>
      </trkpt>
      <trkpt lat="44.44708" lon="1.34799">
        <ele>188</ele>
        <time>2019-04-14T11:36:27Z</time>
      </trkpt>
      <trkpt lat="44.44708" lon="1.34802">
        <ele>188</ele>
        <time>2019-04-14T11:36:28Z</time>
      </trkpt>
      <trkpt lat="44.44708" lon="1.34804">
        <ele>187</ele>
        <time>2019-04-14T11:36:29Z</time>
      </trkpt>
      <trkpt lat="44.44708" lon="1.34806">
        <ele>187</ele>
        <time>2019-04-14T11:36:30Z</time>
      </trkpt>
      <trkpt lat="44.44708" lon="1.34808">
        <ele>187</ele>
        <time>2019-04-14T11:36:31Z</time>
      </trkpt>
      <trkpt lat="44.44708" lon="1.34811">
        <ele>187</ele>
        <time>2019-04-14T11:36:32Z</time>
      </trkpt>
      <trkpt lat="44.44708" lon="1.34814">
        <ele>187</ele>
        <time>2019-04-14T11:36:33Z</time>
      </trkpt>
      <trkpt lat="44.4471" lon="1.34817">
        <ele>187</ele>
        <time>2019-04-14T11:36:34Z</time>
      </trkpt>
      <trkpt lat="44.44711" lon="1.34821">
        <ele>187</ele>
        <time>2019-04-14T11:36:35Z</time>
      </trkpt>
      <trkpt lat="44.44711" lon="1.34825">
        <ele>187</ele>
        <time>2019-04-14T11:36:36Z</time>
      </trkpt>
      <trkpt lat="44.4471" lon="1.34829">
        <ele>187</ele>
        <time>2019-04-14T11:36:37Z</time>
      </trkpt>
      <trkpt lat="44.44711" lon="1.34834">
        <ele>186</ele>
        <time>2019-04-14T11:36:38Z</time>
      </trkpt>
      <trkpt lat="44.44712" lon="1.3484">
        <ele>186</ele>
        <time>2019-04-14T11:36:39Z</time>
      </trkpt>
      <trkpt lat="44.44713" lon="1.34844">
        <ele>186</ele>
        <time>2019-04-14T11:36:40Z</time>
      </trkpt>
      <trkpt lat="44.44714" lon="1.34847">
        <ele>186</ele>
        <time>2019-04-14T11:36:41Z</time>
      </trkpt>
      <trkpt lat="44.44714" lon="1.34851">
        <ele>186</ele>
        <time>2019-04-14T11:36:42Z</time>
      </trkpt>
      <trkpt lat="44.44715" lon="1.34854">
        <ele>186</ele>
        <time>2019-04-14T11:36:43Z</time>
      </trkpt>
      <trkpt lat="44.44716" lon="1.34856">
        <ele>186</ele>
        <time>2019-04-14T11:36:44Z</time>
      </trkpt>
      <trkpt lat="44.44718" lon="1.34857">
        <ele>186</ele>
        <time>2019-04-14T11:36:45Z</time>
      </trkpt>
      <trkpt lat="44.4472" lon="1.34857">
        <ele>186</ele>
        <time>2019-04-14T11:36:46Z</time>
      </trkpt>
      <trkpt lat="44.44722" lon="1.34859">
        <ele>187</ele>
        <time>2019-04-14T11:36:47Z</time>
      </trkpt>
      <trkpt lat="44.44723" lon="1.34861">
        <ele>187</ele>
        <time>2019-04-14T11:36:48Z</time>
      </trkpt>
      <trkpt lat="44.44724" lon="1.34863">
        <ele>186</ele>
        <time>2019-04-14T11:36:49Z</time>
      </trkpt>
      <trkpt lat="44.44727" lon="1.34865">
        <ele>187</ele>
        <time>2019-04-14T11:36:50Z</time>
      </trkpt>
      <trkpt lat="44.44729" lon="1.34866">
        <ele>187</ele>
        <time>2019-04-14T11:36:51Z</time>
      </trkpt>
      <trkpt lat="44.44731" lon="1.34867">
        <ele>186</ele>
        <time>2019-04-14T11:36:52Z</time>
      </trkpt>
      <trkpt lat="44.44735" lon="1.34868">
        <ele>186</ele>
        <time>2019-04-14T11:36:53Z</time>
      </trkpt>
      <trkpt lat="44.44738" lon="1.34869">
        <ele>185</ele>
        <time>2019-04-14T11:36:54Z</time>
      </trkpt>
      <trkpt lat="44.44743" lon="1.3487">
        <ele>184</ele>
        <time>2019-04-14T11:36:55Z</time>
      </trkpt>
      <trkpt lat="44.44748" lon="1.3487">
        <ele>184</ele>
        <time>2019-04-14T11:36:56Z</time>
      </trkpt>
      <trkpt lat="44.44752" lon="1.34871">
        <ele>183</ele>
        <time>2019-04-14T11:36:57Z</time>
      </trkpt>
      <trkpt lat="44.44755" lon="1.34871">
        <ele>182</ele>
        <time>2019-04-14T11:36:58Z</time>
      </trkpt>
      <trkpt lat="44.44758" lon="1.34872">
        <ele>181</ele>
        <time>2019-04-14T11:36:59Z</time>
      </trkpt>
      <trkpt lat="44.44761" lon="1.34871">
        <ele>180</ele>
        <time>2019-04-14T11:37:00Z</time>
      </trkpt>
      <trkpt lat="44.44766" lon="1.3487">
        <ele>179</ele>
        <time>2019-04-14T11:37:01Z</time>
      </trkpt>
      <trkpt lat="44.4477" lon="1.34869">
        <ele>178</ele>
        <time>2019-04-14T11:37:02Z</time>
      </trkpt>
      <trkpt lat="44.44775" lon="1.34869">
        <ele>178</ele>
        <time>2019-04-14T11:37:03Z</time>
      </trkpt>
      <trkpt lat="44.44779" lon="1.34869">
        <ele>177</ele>
        <time>2019-04-14T11:37:04Z</time>
      </trkpt>
      <trkpt lat="44.44782" lon="1.34868">
        <ele>176</ele>
        <time>2019-04-14T11:37:05Z</time>
      </trkpt>
      <trkpt lat="44.44785" lon="1.34868">
        <ele>175</ele>
        <time>2019-04-14T11:37:06Z</time>
      </trkpt>
      <trkpt lat="44.44788" lon="1.34871">
        <ele>174</ele>
        <time>2019-04-14T11:37:07Z</time>
      </trkpt>
      <trkpt lat="44.44793" lon="1.34874">
        <ele>173</ele>
        <time>2019-04-14T11:37:08Z</time>
      </trkpt>
      <trkpt lat="44.44796" lon="1.34878">
        <ele>173</ele>
        <time>2019-04-14T11:37:09Z</time>
      </trkpt>
      <trkpt lat="44.44799" lon="1.34881">
        <ele>173</ele>
        <time>2019-04-14T11:37:10Z</time>
      </trkpt>
      <trkpt lat="44.44801" lon="1.34884">
        <ele>173</ele>
        <time>2019-04-14T11:37:11Z</time>
      </trkpt>
      <trkpt lat="44.44803" lon="1.34885">
        <ele>173</ele>
        <time>2019-04-14T11:37:12Z</time>
      </trkpt>
      <trkpt lat="44.44804" lon="1.34886">
        <ele>173</ele>
        <time>2019-04-14T11:37:13Z</time>
      </trkpt>
      <trkpt lat="44.44807" lon="1.34889">
        <ele>173</ele>
        <time>2019-04-14T11:37:14Z</time>
      </trkpt>
      <trkpt lat="44.44809" lon="1.3489">
        <ele>174</ele>
        <time>2019-04-14T11:37:15Z</time>
      </trkpt>
      <trkpt lat="44.4481" lon="1.34891">
        <ele>175</ele>
        <time>2019-04-14T11:37:16Z</time>
      </trkpt>
      <trkpt lat="44.44812" lon="1.34893">
        <ele>175</ele>
        <time>2019-04-14T11:37:17Z</time>
      </trkpt>
      <trkpt lat="44.44813" lon="1.34894">
        <ele>175</ele>
        <time>2019-04-14T11:37:18Z</time>
      </trkpt>
      <trkpt lat="44.44814" lon="1.34896">
        <ele>175</ele>
        <time>2019-04-14T11:37:19Z</time>
      </trkpt>
      <trkpt lat="44.44814" lon="1.34897">
        <ele>175</ele>
        <time>2019-04-14T11:37:20Z</time>
      </trkpt>
      <trkpt lat="44.44816" lon="1.34899">
        <ele>175</ele>
        <time>2019-04-14T11:37:21Z</time>
      </trkpt>
      <trkpt lat="44.44817" lon="1.34901">
        <ele>175</ele>
        <time>2019-04-14T11:37:22Z</time>
      </trkpt>
      <trkpt lat="44.44819" lon="1.34903">
        <ele>175</ele>
        <time>2019-04-14T11:37:23Z</time>
      </trkpt>
      <trkpt lat="44.4482" lon="1.34904">
        <ele>175</ele>
        <time>2019-04-14T11:37:24Z</time>
      </trkpt>
      <trkpt lat="44.4482" lon="1.34905">
        <ele>176</ele>
        <time>2019-04-14T11:37:25Z</time>
      </trkpt>
      <trkpt lat="44.44821" lon="1.34906">
        <ele>176</ele>
        <time>2019-04-14T11:37:26Z</time>
      </trkpt>
      <trkpt lat="44.44822" lon="1.34907">
        <ele>176</ele>
        <time>2019-04-14T11:37:27Z</time>
      </trkpt>
      <trkpt lat="44.44824" lon="1.34907">
        <ele>176</ele>
        <time>2019-04-14T11:37:28Z</time>
      </trkpt>
      <trkpt lat="44.44825" lon="1.34908">
        <ele>176</ele>
        <time>2019-04-14T11:37:29Z</time>
      </trkpt>
      <trkpt lat="44.44827" lon="1.34909">
        <ele>177</ele>
        <time>2019-04-14T11:37:30Z</time>
      </trkpt>
      <trkpt lat="44.44828" lon="1.3491">
        <ele>177</ele>
        <time>2019-04-14T11:37:31Z</time>
      </trkpt>
      <trkpt lat="44.4483" lon="1.34912">
        <ele>178</ele>
        <time>2019-04-14T11:37:32Z</time>
      </trkpt>
      <trkpt lat="44.44831" lon="1.34913">
        <ele>178</ele>
        <time>2019-04-14T11:37:33Z</time>
      </trkpt>
      <trkpt lat="44.44832" lon="1.34913">
        <ele>178</ele>
        <time>2019-04-14T11:37:34Z</time>
      </trkpt>
      <trkpt lat="44.44833" lon="1.34915">
        <ele>178</ele>
        <time>2019-04-14T11:37:35Z</time>
      </trkpt>
      <trkpt lat="44.44834" lon="1.34916">
        <ele>178</ele>
        <time>2019-04-14T11:37:36Z</time>
      </trkpt>
      <trkpt lat="44.44836" lon="1.34918">
        <ele>178</ele>
        <time>2019-04-14T11:37:37Z</time>
      </trkpt>
      <trkpt lat="44.44837" lon="1.3492">
        <ele>178</ele>
        <time>2019-04-14T11:37:38Z</time>
      </trkpt>
      <trkpt lat="44.44838" lon="1.34921">
        <ele>178</ele>
        <time>2019-04-14T11:37:39Z</time>
      </trkpt>
      <trkpt lat="44.4484" lon="1.34922">
        <ele>178</ele>
        <time>2019-04-14T11:37:40Z</time>
      </trkpt>
      <trkpt lat="44.44841" lon="1.34923">
        <ele>179</ele>
        <time>2019-04-14T11:37:41Z</time>
      </trkpt>
      <trkpt lat="44.44842" lon="1.34924">
        <ele>179</ele>
        <time>2019-04-14T11:37:42Z</time>
      </trkpt>
      <trkpt lat="44.44842" lon="1.34924">
        <ele>179</ele>
        <time>2019-04-14T11:37:43Z</time>
      </trkpt>
      <trkpt lat="44.44843" lon="1.34926">
        <ele>178</ele>
        <time>2019-04-14T11:37:44Z</time>
      </trkpt>
      <trkpt lat="44.44844" lon="1.34928">
        <ele>178</ele>
        <time>2019-04-14T11:37:45Z</time>
      </trkpt>
      <trkpt lat="44.44846" lon="1.3493">
        <ele>178</ele>
        <time>2019-04-14T11:37:46Z</time>
      </trkpt>
      <trkpt lat="44.44848" lon="1.34931">
        <ele>179</ele>
        <time>2019-04-14T11:37:47Z</time>
      </trkpt>
      <trkpt lat="44.4485" lon="1.34932">
        <ele>179</ele>
        <time>2019-04-14T11:37:48Z</time>
      </trkpt>
      <trkpt lat="44.44852" lon="1.34934">
        <ele>179</ele>
        <time>2019-04-14T11:37:49Z</time>
      </trkpt>
      <trkpt lat="44.44854" lon="1.34935">
        <ele>180</ele>
        <time>2019-04-14T11:37:50Z</time>
      </trkpt>
      <trkpt lat="44.44856" lon="1.34936">
        <ele>180</ele>
        <time>2019-04-14T11:37:51Z</time>
      </trkpt>
      <trkpt lat="44.44856" lon="1.34937">
        <ele>180</ele>
        <time>2019-04-14T11:37:52Z</time>
      </trkpt>
      <trkpt lat="44.44857" lon="1.34938">
        <ele>180</ele>
        <time>2019-04-14T11:37:53Z</time>
      </trkpt>
      <trkpt lat="44.44858" lon="1.3494">
        <ele>181</ele>
        <time>2019-04-14T11:37:54Z</time>
      </trkpt>
      <trkpt lat="44.4486" lon="1.34941">
        <ele>181</ele>
        <time>2019-04-14T11:37:55Z</time>
      </trkpt>
      <trkpt lat="44.44862" lon="1.34943">
        <ele>181</ele>
        <time>2019-04-14T11:37:56Z</time>
      </trkpt>
      <trkpt lat="44.44864" lon="1.34944">
        <ele>181</ele>
        <time>2019-04-14T11:37:57Z</time>
      </trkpt>
      <trkpt lat="44.44866" lon="1.34946">
        <ele>181</ele>
        <time>2019-04-14T11:37:58Z</time>
      </trkpt>
      <trkpt lat="44.44868" lon="1.34948">
        <ele>182</ele>
        <time>2019-04-14T11:37:59Z</time>
      </trkpt>
      <trkpt lat="44.4487" lon="1.34949">
        <ele>182</ele>
        <time>2019-04-14T11:38:00Z</time>
      </trkpt>
      <trkpt lat="44.44872" lon="1.34951">
        <ele>182</ele>
        <time>2019-04-14T11:38:01Z</time>
      </trkpt>
      <trkpt lat="44.44874" lon="1.34952">
        <ele>182</ele>
        <time>2019-04-14T11:38:02Z</time>
      </trkpt>
      <trkpt lat="44.44876" lon="1.34953">
        <ele>182</ele>
        <time>2019-04-14T11:38:03Z</time>
      </trkpt>
      <trkpt lat="44.44877" lon="1.34955">
        <ele>183</ele>
        <time>2019-04-14T11:38:04Z</time>
      </trkpt>
      <trkpt lat="44.44878" lon="1.34956">
        <ele>182</ele>
        <time>2019-04-14T11:38:05Z</time>
      </trkpt>
      <trkpt lat="44.4488" lon="1.34958">
        <ele>182</ele>
        <time>2019-04-14T11:38:06Z</time>
      </trkpt>
      <trkpt lat="44.44882" lon="1.34961">
        <ele>182</ele>
        <time>2019-04-14T11:38:07Z</time>
      </trkpt>
      <trkpt lat="44.44884" lon="1.34963">
        <ele>182</ele>
        <time>2019-04-14T11:38:08Z</time>
      </trkpt>
      <trkpt lat="44.44886" lon="1.34967">
        <ele>182</ele>
        <time>2019-04-14T11:38:09Z</time>
      </trkpt>
      <trkpt lat="44.44889" lon="1.34969">
        <ele>182</ele>
        <time>2019-04-14T11:38:10Z</time>
      </trkpt>
      <trkpt lat="44.44892" lon="1.34971">
        <ele>182</ele>
        <time>2019-04-14T11:38:11Z</time>
      </trkpt>
      <trkpt lat="44.44894" lon="1.34972">
        <ele>182</ele>
        <time>2019-04-14T11:38:12Z</time>
      </trkpt>
      <trkpt lat="44.44897" lon="1.34972">
        <ele>182</ele>
        <time>2019-04-14T11:38:13Z</time>
      </trkpt>
      <trkpt lat="44.44899" lon="1.34973">
        <ele>182</ele>
        <time>2019-04-14T11:38:14Z</time>
      </trkpt>
      <trkpt lat="44.44902" lon="1.34973">
        <ele>183</ele>
        <time>2019-04-14T11:38:15Z</time>
      </trkpt>
      <trkpt lat="44.44903" lon="1.34974">
        <ele>183</ele>
        <time>2019-04-14T11:38:16Z</time>
      </trkpt>
      <trkpt lat="44.44906" lon="1.34974">
        <ele>183</ele>
        <time>2019-04-14T11:38:17Z</time>
      </trkpt>
      <trkpt lat="44.44908" lon="1.34974">
        <ele>183</ele>
        <time>2019-04-14T11:38:18Z</time>
      </trkpt>
      <trkpt lat="44.44911" lon="1.34975">
        <ele>183</ele>
        <time>2019-04-14T11:38:19Z</time>
      </trkpt>
      <trkpt lat="44.44912" lon="1.34976">
        <ele>183</ele>
        <time>2019-04-14T11:38:20Z</time>
      </trkpt>
      <trkpt lat="44.44914" lon="1.34977">
        <ele>183</ele>
        <time>2019-04-14T11:38:21Z</time>
      </trkpt>
      <trkpt lat="44.44917" lon="1.34976">
        <ele>183</ele>
        <time>2019-04-14T11:38:22Z</time>
      </trkpt>
      <trkpt lat="44.44919" lon="1.34976">
        <ele>183</ele>
        <time>2019-04-14T11:38:23Z</time>
      </trkpt>
      <trkpt lat="44.44922" lon="1.34975">
        <ele>183</ele>
        <time>2019-04-14T11:38:24Z</time>
      </trkpt>
      <trkpt lat="44.44924" lon="1.34973">
        <ele>184</ele>
        <time>2019-04-14T11:38:25Z</time>
      </trkpt>
      <trkpt lat="44.44927" lon="1.34971">
        <ele>184</ele>
        <time>2019-04-14T11:38:26Z</time>
      </trkpt>
      <trkpt lat="44.44929" lon="1.3497">
        <ele>184</ele>
        <time>2019-04-14T11:38:27Z</time>
      </trkpt>
      <trkpt lat="44.44931" lon="1.3497">
        <ele>184</ele>
        <time>2019-04-14T11:38:28Z</time>
      </trkpt>
      <trkpt lat="44.44934" lon="1.34971">
        <ele>184</ele>
        <time>2019-04-14T11:38:29Z</time>
      </trkpt>
      <trkpt lat="44.44936" lon="1.34972">
        <ele>183</ele>
        <time>2019-04-14T11:38:30Z</time>
      </trkpt>
      <trkpt lat="44.44939" lon="1.34971">
        <ele>184</ele>
        <time>2019-04-14T11:38:31Z</time>
      </trkpt>
      <trkpt lat="44.44942" lon="1.34969">
        <ele>184</ele>
        <time>2019-04-14T11:38:32Z</time>
      </trkpt>
      <trkpt lat="44.44944" lon="1.34968">
        <ele>184</ele>
        <time>2019-04-14T11:38:33Z</time>
      </trkpt>
      <trkpt lat="44.44947" lon="1.34966">
        <ele>184</ele>
        <time>2019-04-14T11:38:34Z</time>
      </trkpt>
      <trkpt lat="44.44949" lon="1.34964">
        <ele>184</ele>
        <time>2019-04-14T11:38:35Z</time>
      </trkpt>
      <trkpt lat="44.44952" lon="1.34963">
        <ele>184</ele>
        <time>2019-04-14T11:38:36Z</time>
      </trkpt>
      <trkpt lat="44.44955" lon="1.34963">
        <ele>184</ele>
        <time>2019-04-14T11:38:37Z</time>
      </trkpt>
      <trkpt lat="44.44958" lon="1.34964">
        <ele>183</ele>
        <time>2019-04-14T11:38:38Z</time>
      </trkpt>
      <trkpt lat="44.44962" lon="1.34963">
        <ele>183</ele>
        <time>2019-04-14T11:38:39Z</time>
      </trkpt>
      <trkpt lat="44.44964" lon="1.34961">
        <ele>183</ele>
        <time>2019-04-14T11:38:40Z</time>
      </trkpt>
      <trkpt lat="44.44966" lon="1.34961">
        <ele>183</ele>
        <time>2019-04-14T11:38:41Z</time>
      </trkpt>
      <trkpt lat="44.44968" lon="1.34964">
        <ele>182</ele>
        <time>2019-04-14T11:38:42Z</time>
      </trkpt>
      <trkpt lat="44.4497" lon="1.34966">
        <ele>182</ele>
        <time>2019-04-14T11:38:43Z</time>
      </trkpt>
      <trkpt lat="44.44972" lon="1.34968">
        <ele>181</ele>
        <time>2019-04-14T11:38:44Z</time>
      </trkpt>
      <trkpt lat="44.44974" lon="1.34968">
        <ele>181</ele>
        <time>2019-04-14T11:38:45Z</time>
      </trkpt>
      <trkpt lat="44.44976" lon="1.34967">
        <ele>181</ele>
        <time>2019-04-14T11:38:46Z</time>
      </trkpt>
      <trkpt lat="44.44978" lon="1.34965">
        <ele>181</ele>
        <time>2019-04-14T11:38:47Z</time>
      </trkpt>
      <trkpt lat="44.4498" lon="1.34963">
        <ele>181</ele>
        <time>2019-04-14T11:38:48Z</time>
      </trkpt>
      <trkpt lat="44.44984" lon="1.34962">
        <ele>181</ele>
        <time>2019-04-14T11:38:49Z</time>
      </trkpt>
      <trkpt lat="44.44986" lon="1.34963">
        <ele>180</ele>
        <time>2019-04-14T11:38:50Z</time>
      </trkpt>
      <trkpt lat="44.44989" lon="1.34964">
        <ele>180</ele>
        <time>2019-04-14T11:38:51Z</time>
      </trkpt>
      <trkpt lat="44.44991" lon="1.34964">
        <ele>180</ele>
        <time>2019-04-14T11:38:52Z</time>
      </trkpt>
      <trkpt lat="44.44994" lon="1.34962">
        <ele>180</ele>
        <time>2019-04-14T11:38:53Z</time>
      </trkpt>
      <trkpt lat="44.44997" lon="1.3496">
        <ele>180</ele>
        <time>2019-04-14T11:38:54Z</time>
      </trkpt>
      <trkpt lat="44.44999" lon="1.34957">
        <ele>180</ele>
        <time>2019-04-14T11:38:55Z</time>
      </trkpt>
      <trkpt lat="44.45002" lon="1.34955">
        <ele>179</ele>
        <time>2019-04-14T11:38:56Z</time>
      </trkpt>
      <trkpt lat="44.45004" lon="1.34952">
        <ele>179</ele>
        <time>2019-04-14T11:38:57Z</time>
      </trkpt>
      <trkpt lat="44.45006" lon="1.34949">
        <ele>180</ele>
        <time>2019-04-14T11:38:58Z</time>
      </trkpt>
      <trkpt lat="44.45007" lon="1.34946">
        <ele>180</ele>
        <time>2019-04-14T11:38:59Z</time>
      </trkpt>
      <trkpt lat="44.45009" lon="1.34943">
        <ele>180</ele>
        <time>2019-04-14T11:39:00Z</time>
      </trkpt>
      <trkpt lat="44.4501" lon="1.34941">
        <ele>180</ele>
        <time>2019-04-14T11:39:01Z</time>
      </trkpt>
      <trkpt lat="44.45012" lon="1.34939">
        <ele>180</ele>
        <time>2019-04-14T11:39:02Z</time>
      </trkpt>
      <trkpt lat="44.45013" lon="1.34936">
        <ele>180</ele>
        <time>2019-04-14T11:39:03Z</time>
      </trkpt>
      <trkpt lat="44.45013" lon="1.34934">
        <ele>180</ele>
        <time>2019-04-14T11:39:04Z</time>
      </trkpt>
      <trkpt lat="44.45012" lon="1.34931">
        <ele>180</ele>
        <time>2019-04-14T11:39:05Z</time>
      </trkpt>
      <trkpt lat="44.45012" lon="1.34929">
        <ele>180</ele>
        <time>2019-04-14T11:39:06Z</time>
      </trkpt>
      <trkpt lat="44.45011" lon="1.34927">
        <ele>181</ele>
        <time>2019-04-14T11:39:07Z</time>
      </trkpt>
      <trkpt lat="44.45011" lon="1.34925">
        <ele>181</ele>
        <time>2019-04-14T11:39:08Z</time>
      </trkpt>
      <trkpt lat="44.45011" lon="1.34923">
        <ele>181</ele>
        <time>2019-04-14T11:39:09Z</time>
      </trkpt>
      <trkpt lat="44.45011" lon="1.34921">
        <ele>181</ele>
        <time>2019-04-14T11:39:10Z</time>
      </trkpt>
      <trkpt lat="44.4501" lon="1.34919">
        <ele>182</ele>
        <time>2019-04-14T11:39:11Z</time>
      </trkpt>
      <trkpt lat="44.4501" lon="1.34917">
        <ele>182</ele>
        <time>2019-04-14T11:39:12Z</time>
      </trkpt>
      <trkpt lat="44.4501" lon="1.34915">
        <ele>182</ele>
        <time>2019-04-14T11:39:13Z</time>
      </trkpt>
      <trkpt lat="44.4501" lon="1.34913">
        <ele>182</ele>
        <time>2019-04-14T11:39:14Z</time>
      </trkpt>
      <trkpt lat="44.45009" lon="1.34911">
        <ele>183</ele>
        <time>2019-04-14T11:39:15Z</time>
      </trkpt>
      <trkpt lat="44.45009" lon="1.3491">
        <ele>183</ele>
        <time>2019-04-14T11:39:16Z</time>
      </trkpt>
      <trkpt lat="44.45009" lon="1.34908">
        <ele>183</ele>
        <time>2019-04-14T11:39:17Z</time>
      </trkpt>
      <trkpt lat="44.45008" lon="1.34906">
        <ele>184</ele>
        <time>2019-04-14T11:39:18Z</time>
      </trkpt>
      <trkpt lat="44.45008" lon="1.34904">
        <ele>184</ele>
        <time>2019-04-14T11:39:19Z</time>
      </trkpt>
      <trkpt lat="44.45007" lon="1.34902">
        <ele>184</ele>
        <time>2019-04-14T11:39:20Z</time>
      </trkpt>
      <trkpt lat="44.45007" lon="1.349">
        <ele>184</ele>
        <time>2019-04-14T11:39:21Z</time>
      </trkpt>
      <trkpt lat="44.45007" lon="1.34898">
        <ele>185</ele>
        <time>2019-04-14T11:39:22Z</time>
      </trkpt>
      <trkpt lat="44.45007" lon="1.34896">
        <ele>185</ele>
        <time>2019-04-14T11:39:23Z</time>
      </trkpt>
      <trkpt lat="44.45006" lon="1.34895">
        <ele>185</ele>
        <time>2019-04-14T11:39:24Z</time>
      </trkpt>
      <trkpt lat="44.45006" lon="1.34893">
        <ele>185</ele>
        <time>2019-04-14T11:39:25Z</time>
      </trkpt>
      <trkpt lat="44.45006" lon="1.34891">
        <ele>185</ele>
        <time>2019-04-14T11:39:26Z</time>
      </trkpt>
      <trkpt lat="44.45006" lon="1.34889">
        <ele>186</ele>
        <time>2019-04-14T11:39:27Z</time>
      </trkpt>
      <trkpt lat="44.45005" lon="1.34887">
        <ele>186</ele>
        <time>2019-04-14T11:39:28Z</time>
      </trkpt>
      <trkpt lat="44.45005" lon="1.34885">
        <ele>186</ele>
        <time>2019-04-14T11:39:29Z</time>
      </trkpt>
      <trkpt lat="44.45005" lon="1.34884">
        <ele>186</ele>
        <time>2019-04-14T11:39:30Z</time>
      </trkpt>
      <trkpt lat="44.45005" lon="1.34882">
        <ele>186</ele>
        <time>2019-04-14T11:39:31Z</time>
      </trkpt>
      <trkpt lat="44.45005" lon="1.3488">
        <ele>187</ele>
        <time>2019-04-14T11:39:32Z</time>
      </trkpt>
      <trkpt lat="44.45004" lon="1.34878">
        <ele>187</ele>
        <time>2019-04-14T11:39:33Z</time>
      </trkpt>
      <trkpt lat="44.45004" lon="1.34876">
        <ele>187</ele>
        <time>2019-04-14T11:39:34Z</time>
      </trkpt>
      <trkpt lat="44.45004" lon="1.34874">
        <ele>187</ele>
        <time>2019-04-14T11:39:35Z</time>
      </trkpt>
      <trkpt lat="44.45003" lon="1.34873">
        <ele>187</ele>
        <time>2019-04-14T11:39:36Z</time>
      </trkpt>
      <trkpt lat="44.45003" lon="1.34871">
        <ele>188</ele>
        <time>2019-04-14T11:39:37Z</time>
      </trkpt>
      <trkpt lat="44.45003" lon="1.34869">
        <ele>188</ele>
        <time>2019-04-14T11:39:38Z</time>
      </trkpt>
      <trkpt lat="44.45002" lon="1.34868">
        <ele>188</ele>
        <time>2019-04-14T11:39:39Z</time>
      </trkpt>
      <trkpt lat="44.45002" lon="1.34866">
        <ele>188</ele>
        <time>2019-04-14T11:39:40Z</time>
      </trkpt>
      <trkpt lat="44.45002" lon="1.34865">
        <ele>188</ele>
        <time>2019-04-14T11:39:41Z</time>
      </trkpt>
      <trkpt lat="44.45002" lon="1.34863">
        <ele>188</ele>
        <time>2019-04-14T11:39:42Z</time>
      </trkpt>
      <trkpt lat="44.45001" lon="1.34862">
        <ele>189</ele>
        <time>2019-04-14T11:39:43Z</time>
      </trkpt>
      <trkpt lat="44.45002" lon="1.3486">
        <ele>189</ele>
        <time>2019-04-14T11:39:44Z</time>
      </trkpt>
      <trkpt lat="44.45002" lon="1.34859">
        <ele>189</ele>
        <time>2019-04-14T11:39:45Z</time>
      </trkpt>
      <trkpt lat="44.45002" lon="1.34857">
        <ele>189</ele>
        <time>2019-04-14T11:39:46Z</time>
      </trkpt>
      <trkpt lat="44.45003" lon="1.34856">
        <ele>189</ele>
        <time>2019-04-14T11:39:47Z</time>
      </trkpt>
      <trkpt lat="44.45004" lon="1.34855">
        <ele>189</ele>
        <time>2019-04-14T11:39:48Z</time>
      </trkpt>
      <trkpt lat="44.45004" lon="1.34855">
        <ele>189</ele>
        <time>2019-04-14T11:39:49Z</time>
      </trkpt>
      <trkpt lat="44.45004" lon="1.34855">
        <ele>189</ele>
        <time>2019-04-14T11:39:50Z</time>
      </trkpt>
      <trkpt lat="44.45004" lon="1.34855">
        <ele>189</ele>
        <time>2019-04-14T11:39:51Z</time>
      </trkpt>
      <trkpt lat="44.45004" lon="1.34854">
        <ele>189</ele>
        <time>2019-04-14T11:39:52Z</time>
      </trkpt>
      <trkpt lat="44.45004" lon="1.34855">
        <ele>189</ele>
        <time>2019-04-14T11:39:53Z</time>
      </trkpt>
      <trkpt lat="44.45004" lon="1.34855">
        <ele>189</ele>
        <time>2019-04-14T11:39:54Z</time>
      </trkpt>
      <trkpt lat="44.45004" lon="1.34855">
        <ele>189</ele>
        <time>2019-04-14T11:39:55Z</time>
      </trkpt>
      <trkpt lat="44.45004" lon="1.34855">
        <ele>189</ele>
        <time>2019-04-14T11:39:56Z</time>
      </trkpt>
      <trkpt lat="44.45045" lon="1.3487">
        <ele>182</ele>
        <time>2019-04-14T11:42:54Z</time>
      </trkpt>
      <trkpt lat="44.45052" lon="1.34873">
        <ele>182</ele>
        <time>2019-04-14T11:42:55Z</time>
      </trkpt>
      <trkpt lat="44.45057" lon="1.34877">
        <ele>181</ele>
        <time>2019-04-14T11:42:56Z</time>
      </trkpt>
      <trkpt lat="44.45063" lon="1.34881">
        <ele>181</ele>
        <time>2019-04-14T11:42:57Z</time>
      </trkpt>
      <trkpt lat="44.45069" lon="1.34885">
        <ele>181</ele>
        <time>2019-04-14T11:42:58Z</time>
      </trkpt>
      <trkpt lat="44.45075" lon="1.3489">
        <ele>180</ele>
        <time>2019-04-14T11:42:59Z</time>
      </trkpt>
      <trkpt lat="44.45082" lon="1.34895">
        <ele>180</ele>
        <time>2019-04-14T11:43:00Z</time>
      </trkpt>
      <trkpt lat="44.45088" lon="1.349">
        <ele>179</ele>
        <time>2019-04-14T11:43:01Z</time>
      </trkpt>
      <trkpt lat="44.45094" lon="1.34906">
        <ele>179</ele>
        <time>2019-04-14T11:43:02Z</time>
      </trkpt>
      <trkpt lat="44.451" lon="1.34911">
        <ele>179</ele>
        <time>2019-04-14T11:43:03Z</time>
      </trkpt>
      <trkpt lat="44.45105" lon="1.34916">
        <ele>179</ele>
        <time>2019-04-14T11:43:04Z</time>
      </trkpt>
      <trkpt lat="44.45111" lon="1.34922">
        <ele>179</ele>
        <time>2019-04-14T11:43:05Z</time>
      </trkpt>
      <trkpt lat="44.45117" lon="1.34927">
        <ele>178</ele>
        <time>2019-04-14T11:43:06Z</time>
      </trkpt>
      <trkpt lat="44.45123" lon="1.34932">
        <ele>178</ele>
        <time>2019-04-14T11:43:07Z</time>
      </trkpt>
      <trkpt lat="44.45128" lon="1.34937">
        <ele>178</ele>
        <time>2019-04-14T11:43:08Z</time>
      </trkpt>
      <trkpt lat="44.45133" lon="1.34943">
        <ele>178</ele>
        <time>2019-04-14T11:43:09Z</time>
      </trkpt>
      <trkpt lat="44.45138" lon="1.34947">
        <ele>178</ele>
        <time>2019-04-14T11:43:10Z</time>
      </trkpt>
      <trkpt lat="44.45143" lon="1.34952">
        <ele>177</ele>
        <time>2019-04-14T11:43:11Z</time>
      </trkpt>
      <trkpt lat="44.45147" lon="1.34956">
        <ele>177</ele>
        <time>2019-04-14T11:43:12Z</time>
      </trkpt>
      <trkpt lat="44.45151" lon="1.34959">
        <ele>177</ele>
        <time>2019-04-14T11:43:13Z</time>
      </trkpt>
      <trkpt lat="44.45155" lon="1.34962">
        <ele>177</ele>
        <time>2019-04-14T11:43:14Z</time>
      </trkpt>
      <trkpt lat="44.45159" lon="1.34966">
        <ele>177</ele>
        <time>2019-04-14T11:43:15Z</time>
      </trkpt>
      <trkpt lat="44.45162" lon="1.34969">
        <ele>177</ele>
        <time>2019-04-14T11:43:16Z</time>
      </trkpt>
      <trkpt lat="44.45166" lon="1.34973">
        <ele>178</ele>
        <time>2019-04-14T11:43:17Z</time>
      </trkpt>
      <trkpt lat="44.4517" lon="1.34977">
        <ele>178</ele>
        <time>2019-04-14T11:43:18Z</time>
      </trkpt>
      <trkpt lat="44.45174" lon="1.34981">
        <ele>178</ele>
        <time>2019-04-14T11:43:19Z</time>
      </trkpt>
      <trkpt lat="44.45177" lon="1.34985">
        <ele>178</ele>
        <time>2019-04-14T11:43:20Z</time>
      </trkpt>
      <trkpt lat="44.4518" lon="1.3499">
        <ele>178</ele>
        <time>2019-04-14T11:43:21Z</time>
      </trkpt>
      <trkpt lat="44.45183" lon="1.34995">
        <ele>177</ele>
        <time>2019-04-14T11:43:22Z</time>
      </trkpt>
      <trkpt lat="44.45186" lon="1.35001">
        <ele>177</ele>
        <time>2019-04-14T11:43:23Z</time>
      </trkpt>
      <trkpt lat="44.4519" lon="1.35007">
        <ele>177</ele>
        <time>2019-04-14T11:43:24Z</time>
      </trkpt>
      <trkpt lat="44.45193" lon="1.35012">
        <ele>177</ele>
        <time>2019-04-14T11:43:25Z</time>
      </trkpt>
      <trkpt lat="44.45197" lon="1.35017">
        <ele>176</ele>
        <time>2019-04-14T11:43:26Z</time>
      </trkpt>
      <trkpt lat="44.452" lon="1.35022">
        <ele>176</ele>
        <time>2019-04-14T11:43:27Z</time>
      </trkpt>
      <trkpt lat="44.45204" lon="1.35025">
        <ele>176</ele>
        <time>2019-04-14T11:43:28Z</time>
      </trkpt>
      <trkpt lat="44.45207" lon="1.35027">
        <ele>176</ele>
        <time>2019-04-14T11:43:29Z</time>
      </trkpt>
      <trkpt lat="44.4521" lon="1.35029">
        <ele>176</ele>
        <time>2019-04-14T11:43:30Z</time>
      </trkpt>
      <trkpt lat="44.45212" lon="1.3503">
        <ele>176</ele>
        <time>2019-04-14T11:43:31Z</time>
      </trkpt>
      <trkpt lat="44.45214" lon="1.35032">
        <ele>175</ele>
        <time>2019-04-14T11:43:32Z</time>
      </trkpt>
      <trkpt lat="44.45216" lon="1.35035">
        <ele>175</ele>
        <time>2019-04-14T11:43:33Z</time>
      </trkpt>
      <trkpt lat="44.45216" lon="1.35037">
        <ele>175</ele>
        <time>2019-04-14T11:43:34Z</time>
      </trkpt>
      <trkpt lat="44.45217" lon="1.3504">
        <ele>174</ele>
        <time>2019-04-14T11:43:35Z</time>
      </trkpt>
      <trkpt lat="44.45217" lon="1.35044">
        <ele>173</ele>
        <time>2019-04-14T11:43:36Z</time>
      </trkpt>
      <trkpt lat="44.45217" lon="1.35046">
        <ele>173</ele>
        <time>2019-04-14T11:43:37Z</time>
      </trkpt>
      <trkpt lat="44.45216" lon="1.35048">
        <ele>173</ele>
        <time>2019-04-14T11:43:38Z</time>
      </trkpt>
      <trkpt lat="44.45216" lon="1.35049">
        <ele>172</ele>
        <time>2019-04-14T11:43:39Z</time>
      </trkpt>
      <trkpt lat="44.45216" lon="1.35052">
        <ele>172</ele>
        <time>2019-04-14T11:43:40Z</time>
      </trkpt>
      <trkpt lat="44.45217" lon="1.35054">
        <ele>171</ele>
        <time>2019-04-14T11:43:41Z</time>
      </trkpt>
      <trkpt lat="44.45218" lon="1.35058">
        <ele>170</ele>
        <time>2019-04-14T11:43:42Z</time>
      </trkpt>
      <trkpt lat="44.4522" lon="1.3506">
        <ele>170</ele>
        <time>2019-04-14T11:43:43Z</time>
      </trkpt>
      <trkpt lat="44.45222" lon="1.35067">
        <ele>170</ele>
        <time>2019-04-14T11:43:44Z</time>
      </trkpt>
      <trkpt lat="44.45224" lon="1.35072">
        <ele>168</ele>
        <time>2019-04-14T11:43:46Z</time>
      </trkpt>
      <trkpt lat="44.45225" lon="1.35076">
        <ele>167</ele>
        <time>2019-04-14T11:43:47Z</time>
      </trkpt>
      <trkpt lat="44.45225" lon="1.35081">
        <ele>166</ele>
        <time>2019-04-14T11:43:48Z</time>
      </trkpt>
      <trkpt lat="44.45226" lon="1.35086">
        <ele>165</ele>
        <time>2019-04-14T11:43:49Z</time>
      </trkpt>
      <trkpt lat="44.45226" lon="1.35092">
        <ele>164</ele>
        <time>2019-04-14T11:43:50Z</time>
      </trkpt>
      <trkpt lat="44.45226" lon="1.35098">
        <ele>163</ele>
        <time>2019-04-14T11:43:51Z</time>
      </trkpt>
      <trkpt lat="44.45225" lon="1.35104">
        <ele>162</ele>
        <time>2019-04-14T11:43:52Z</time>
      </trkpt>
      <trkpt lat="44.45225" lon="1.35111">
        <ele>161</ele>
        <time>2019-04-14T11:43:53Z</time>
      </trkpt>
      <trkpt lat="44.45225" lon="1.35117">
        <ele>160</ele>
        <time>2019-04-14T11:43:54Z</time>
      </trkpt>
      <trkpt lat="44.45224" lon="1.35122">
        <ele>159</ele>
        <time>2019-04-14T11:43:55Z</time>
      </trkpt>
      <trkpt lat="44.45223" lon="1.35127">
        <ele>158</ele>
        <time>2019-04-14T11:43:56Z</time>
      </trkpt>
      <trkpt lat="44.45222" lon="1.35132">
        <ele>157</ele>
        <time>2019-04-14T11:43:57Z</time>
      </trkpt>
      <trkpt lat="44.45223" lon="1.35139">
        <ele>156</ele>
        <time>2019-04-14T11:43:58Z</time>
      </trkpt>
      <trkpt lat="44.45224" lon="1.35146">
        <ele>155</ele>
        <time>2019-04-14T11:43:59Z</time>
      </trkpt>
      <trkpt lat="44.45225" lon="1.35152">
        <ele>154</ele>
        <time>2019-04-14T11:44:00Z</time>
      </trkpt>
      <trkpt lat="44.45225" lon="1.35157">
        <ele>153</ele>
        <time>2019-04-14T11:44:01Z</time>
      </trkpt>
      <trkpt lat="44.45225" lon="1.35162">
        <ele>153</ele>
        <time>2019-04-14T11:44:02Z</time>
      </trkpt>
      <trkpt lat="44.45226" lon="1.35167">
        <ele>151</ele>
        <time>2019-04-14T11:44:03Z</time>
      </trkpt>
      <trkpt lat="44.45228" lon="1.35172">
        <ele>151</ele>
        <time>2019-04-14T11:44:04Z</time>
      </trkpt>
      <trkpt lat="44.45227" lon="1.35177">
        <ele>150</ele>
        <time>2019-04-14T11:44:05Z</time>
      </trkpt>
      <trkpt lat="44.45226" lon="1.35182">
        <ele>149</ele>
        <time>2019-04-14T11:44:06Z</time>
      </trkpt>
      <trkpt lat="44.45224" lon="1.35187">
        <ele>148</ele>
        <time>2019-04-14T11:44:07Z</time>
      </trkpt>
      <trkpt lat="44.45223" lon="1.3519">
        <ele>148</ele>
        <time>2019-04-14T11:44:08Z</time>
      </trkpt>
      <trkpt lat="44.45223" lon="1.35193">
        <ele>147</ele>
        <time>2019-04-14T11:44:09Z</time>
      </trkpt>
      <trkpt lat="44.45224" lon="1.35197">
        <ele>147</ele>
        <time>2019-04-14T11:44:10Z</time>
      </trkpt>
      <trkpt lat="44.45226" lon="1.35201">
        <ele>146</ele>
        <time>2019-04-14T11:44:11Z</time>
      </trkpt>
      <trkpt lat="44.45228" lon="1.35206">
        <ele>145</ele>
        <time>2019-04-14T11:44:12Z</time>
      </trkpt>
      <trkpt lat="44.4523" lon="1.3521">
        <ele>145</ele>
        <time>2019-04-14T11:44:13Z</time>
      </trkpt>
      <trkpt lat="44.45231" lon="1.35214">
        <ele>144</ele>
        <time>2019-04-14T11:44:14Z</time>
      </trkpt>
      <trkpt lat="44.45232" lon="1.35217">
        <ele>144</ele>
        <time>2019-04-14T11:44:15Z</time>
      </trkpt>
      <trkpt lat="44.45233" lon="1.35221">
        <ele>143</ele>
        <time>2019-04-14T11:44:16Z</time>
      </trkpt>
      <trkpt lat="44.45235" lon="1.35226">
        <ele>142</ele>
        <time>2019-04-14T11:44:17Z</time>
      </trkpt>
      <trkpt lat="44.45237" lon="1.3523">
        <ele>142</ele>
        <time>2019-04-14T11:44:18Z</time>
      </trkpt>
      <trkpt lat="44.45239" lon="1.35235">
        <ele>141</ele>
        <time>2019-04-14T11:44:19Z</time>
      </trkpt>
      <trkpt lat="44.45241" lon="1.35238">
        <ele>141</ele>
        <time>2019-04-14T11:44:20Z</time>
      </trkpt>
      <trkpt lat="44.45242" lon="1.35242">
        <ele>140</ele>
        <time>2019-04-14T11:44:21Z</time>
      </trkpt>
      <trkpt lat="44.45244" lon="1.35246">
        <ele>139</ele>
        <time>2019-04-14T11:44:22Z</time>
      </trkpt>
      <trkpt lat="44.45245" lon="1.3525">
        <ele>139</ele>
        <time>2019-04-14T11:44:23Z</time>
      </trkpt>
      <trkpt lat="44.45246" lon="1.35255">
        <ele>138</ele>
        <time>2019-04-14T11:44:24Z</time>
      </trkpt>
      <trkpt lat="44.45247" lon="1.35259">
        <ele>137</ele>
        <time>2019-04-14T11:44:25Z</time>
      </trkpt>
      <trkpt lat="44.45247" lon="1.35263">
        <ele>136</ele>
        <time>2019-04-14T11:44:26Z</time>
      </trkpt>
      <trkpt lat="44.45249" lon="1.35267">
        <ele>135</ele>
        <time>2019-04-14T11:44:27Z</time>
      </trkpt>
      <trkpt lat="44.45252" lon="1.35271">
        <ele>134</ele>
        <time>2019-04-14T11:44:28Z</time>
      </trkpt>
      <trkpt lat="44.45255" lon="1.35276">
        <ele>132</ele>
        <time>2019-04-14T11:44:29Z</time>
      </trkpt>
      <trkpt lat="44.45257" lon="1.3528">
        <ele>131</ele>
        <time>2019-04-14T11:44:30Z</time>
      </trkpt>
      <trkpt lat="44.45261" lon="1.35283">
        <ele>130</ele>
        <time>2019-04-14T11:44:31Z</time>
      </trkpt>
      <trkpt lat="44.45264" lon="1.35286">
        <ele>129</ele>
        <time>2019-04-14T11:44:32Z</time>
      </trkpt>
      <trkpt lat="44.4527" lon="1.35287">
        <ele>128</ele>
        <time>2019-04-14T11:44:33Z</time>
      </trkpt>
      <trkpt lat="44.45276" lon="1.35288">
        <ele>127</ele>
        <time>2019-04-14T11:44:34Z</time>
      </trkpt>
      <trkpt lat="44.45279" lon="1.35288">
        <ele>126</ele>
        <time>2019-04-14T11:44:35Z</time>
      </trkpt>
      <trkpt lat="44.45285" lon="1.35286">
        <ele>126</ele>
        <time>2019-04-14T11:44:37Z</time>
      </trkpt>
      <trkpt lat="44.4529" lon="1.35286">
        <ele>124</ele>
        <time>2019-04-14T11:44:38Z</time>
      </trkpt>
      <trkpt lat="44.45295" lon="1.35288">
        <ele>123</ele>
        <time>2019-04-14T11:44:39Z</time>
      </trkpt>
      <trkpt lat="44.45298" lon="1.35292">
        <ele>122</ele>
        <time>2019-04-14T11:44:40Z</time>
      </trkpt>
      <trkpt lat="44.453" lon="1.35298">
        <ele>121</ele>
        <time>2019-04-14T11:44:41Z</time>
      </trkpt>
      <trkpt lat="44.45302" lon="1.35303">
        <ele>121</ele>
        <time>2019-04-14T11:44:42Z</time>
      </trkpt>
      <trkpt lat="44.45302" lon="1.35308">
        <ele>120</ele>
        <time>2019-04-14T11:44:43Z</time>
      </trkpt>
      <trkpt lat="44.45302" lon="1.35314">
        <ele>120</ele>
        <time>2019-04-14T11:44:44Z</time>
      </trkpt>
      <trkpt lat="44.45302" lon="1.35321">
        <ele>119</ele>
        <time>2019-04-14T11:44:45Z</time>
      </trkpt>
      <trkpt lat="44.45303" lon="1.35327">
        <ele>118</ele>
        <time>2019-04-14T11:44:46Z</time>
      </trkpt>
      <trkpt lat="44.45304" lon="1.35333">
        <ele>117</ele>
        <time>2019-04-14T11:44:47Z</time>
      </trkpt>
      <trkpt lat="44.45306" lon="1.35338">
        <ele>115</ele>
        <time>2019-04-14T11:44:48Z</time>
      </trkpt>
      <trkpt lat="44.45308" lon="1.35343">
        <ele>114</ele>
        <time>2019-04-14T11:44:49Z</time>
      </trkpt>
      <trkpt lat="44.4531" lon="1.35347">
        <ele>113</ele>
        <time>2019-04-14T11:44:50Z</time>
      </trkpt>
      <trkpt lat="44.45312" lon="1.35351">
        <ele>112</ele>
        <time>2019-04-14T11:44:51Z</time>
      </trkpt>
      <trkpt lat="44.45313" lon="1.35354">
        <ele>111</ele>
        <time>2019-04-14T11:44:52Z</time>
      </trkpt>
      <trkpt lat="44.45314" lon="1.35356">
        <ele>110</ele>
        <time>2019-04-14T11:44:53Z</time>
      </trkpt>
      <trkpt lat="44.45316" lon="1.35359">
        <ele>108</ele>
        <time>2019-04-14T11:44:54Z</time>
      </trkpt>
      <trkpt lat="44.45317" lon="1.35361">
        <ele>107</ele>
        <time>2019-04-14T11:44:55Z</time>
      </trkpt>
      <trkpt lat="44.45319" lon="1.35364">
        <ele>106</ele>
        <time>2019-04-14T11:44:56Z</time>
      </trkpt>
      <trkpt lat="44.45319" lon="1.35367">
        <ele>105</ele>
        <time>2019-04-14T11:44:57Z</time>
      </trkpt>
      <trkpt lat="44.45318" lon="1.35371">
        <ele>104</ele>
        <time>2019-04-14T11:44:58Z</time>
      </trkpt>
      <trkpt lat="44.45318" lon="1.35373">
        <ele>103</ele>
        <time>2019-04-14T11:44:59Z</time>
      </trkpt>
      <trkpt lat="44.45319" lon="1.35376">
        <ele>102</ele>
        <time>2019-04-14T11:45:00Z</time>
      </trkpt>
      <trkpt lat="44.4532" lon="1.35378">
        <ele>101</ele>
        <time>2019-04-14T11:45:01Z</time>
      </trkpt>
      <trkpt lat="44.45323" lon="1.3538">
        <ele>99</ele>
        <time>2019-04-14T11:45:02Z</time>
      </trkpt>
      <trkpt lat="44.45325" lon="1.35383">
        <ele>98</ele>
        <time>2019-04-14T11:45:03Z</time>
      </trkpt>
      <trkpt lat="44.45328" lon="1.35385">
        <ele>97</ele>
        <time>2019-04-14T11:45:04Z</time>
      </trkpt>
      <trkpt lat="44.4533" lon="1.35388">
        <ele>96</ele>
        <time>2019-04-14T11:45:05Z</time>
      </trkpt>
      <trkpt lat="44.45334" lon="1.3539">
        <ele>95</ele>
        <time>2019-04-14T11:45:07Z</time>
      </trkpt>
      <trkpt lat="44.45336" lon="1.35391">
        <ele>94</ele>
        <time>2019-04-14T11:45:08Z</time>
      </trkpt>
      <trkpt lat="44.45337" lon="1.35393">
        <ele>93</ele>
        <time>2019-04-14T11:45:09Z</time>
      </trkpt>
      <trkpt lat="44.45336" lon="1.35395">
        <ele>93</ele>
        <time>2019-04-14T11:45:10Z</time>
      </trkpt>
      <trkpt lat="44.45336" lon="1.35396">
        <ele>93</ele>
        <time>2019-04-14T11:45:11Z</time>
      </trkpt>
      <trkpt lat="44.45335" lon="1.35397">
        <ele>93</ele>
        <time>2019-04-14T11:45:12Z</time>
      </trkpt>
      <trkpt lat="44.45335" lon="1.35398">
        <ele>93</ele>
        <time>2019-04-14T11:45:13Z</time>
      </trkpt>
      <trkpt lat="44.45334" lon="1.35398">
        <ele>93</ele>
        <time>2019-04-14T11:45:14Z</time>
      </trkpt>
      <trkpt lat="44.45334" lon="1.35398">
        <ele>93</ele>
        <time>2019-04-14T11:45:15Z</time>
      </trkpt>
      <trkpt lat="44.45334" lon="1.35398">
        <ele>93</ele>
        <time>2019-04-14T11:45:16Z</time>
      </trkpt>
      <trkpt lat="44.45335" lon="1.35398">
        <ele>93</ele>
        <time>2019-04-14T11:45:17Z</time>
      </trkpt>
      <trkpt lat="44.45335" lon="1.35398">
        <ele>93</ele>
        <time>2019-04-14T11:45:18Z</time>
      </trkpt>
      <trkpt lat="44.45335" lon="1.35398">
        <ele>93</ele>
        <time>2019-04-14T11:45:19Z</time>
      </trkpt>
      <trkpt lat="44.45335" lon="1.35398">
        <ele>93</ele>
        <time>2019-04-14T11:45:20Z</time>
      </trkpt>
      <trkpt lat="44.45335" lon="1.35399">
        <ele>93</ele>
        <time>2019-04-14T11:45:21Z</time>
      </trkpt>
      <trkpt lat="44.45322" lon="1.35411">
        <ele>94</ele>
        <time>2019-04-14T11:46:11Z</time>
      </trkpt>
      <trkpt lat="44.4532" lon="1.35413">
        <ele>94</ele>
        <time>2019-04-14T11:46:12Z</time>
      </trkpt>
      <trkpt lat="44.45318" lon="1.35414">
        <ele>94</ele>
        <time>2019-04-14T11:46:13Z</time>
      </trkpt>
      <trkpt lat="44.45315" lon="1.35415">
        <ele>94</ele>
        <time>2019-04-14T11:46:14Z</time>
      </trkpt>
      <trkpt lat="44.45313" lon="1.35416">
        <ele>95</ele>
        <time>2019-04-14T11:46:15Z</time>
      </trkpt>
      <trkpt lat="44.45307" lon="1.35419">
        <ele>95</ele>
        <time>2019-04-14T11:46:16Z</time>
      </trkpt>
      <trkpt lat="44.45302" lon="1.35424">
        <ele>95</ele>
        <time>2019-04-14T11:46:19Z</time>
      </trkpt>
      <trkpt lat="44.45299" lon="1.35426">
        <ele>95</ele>
        <time>2019-04-14T11:46:20Z</time>
      </trkpt>
      <trkpt lat="44.45296" lon="1.35427">
        <ele>94</ele>
        <time>2019-04-14T11:46:21Z</time>
      </trkpt>
      <trkpt lat="44.45294" lon="1.35429">
        <ele>94</ele>
        <time>2019-04-14T11:46:22Z</time>
      </trkpt>
      <trkpt lat="44.45292" lon="1.35431">
        <ele>94</ele>
        <time>2019-04-14T11:46:23Z</time>
      </trkpt>
      <trkpt lat="44.45288" lon="1.35432">
        <ele>94</ele>
        <time>2019-04-14T11:46:24Z</time>
      </trkpt>
      <trkpt lat="44.45285" lon="1.35433">
        <ele>94</ele>
        <time>2019-04-14T11:46:25Z</time>
      </trkpt>
      <trkpt lat="44.45282" lon="1.35435">
        <ele>94</ele>
        <time>2019-04-14T11:46:26Z</time>
      </trkpt>
      <trkpt lat="44.45278" lon="1.35437">
        <ele>94</ele>
        <time>2019-04-14T11:46:27Z</time>
      </trkpt>
      <trkpt lat="44.45274" lon="1.35438">
        <ele>94</ele>
        <time>2019-04-14T11:46:28Z</time>
      </trkpt>
      <trkpt lat="44.4527" lon="1.35441">
        <ele>94</ele>
        <time>2019-04-14T11:46:29Z</time>
      </trkpt>
      <trkpt lat="44.45268" lon="1.35444">
        <ele>94</ele>
        <time>2019-04-14T11:46:30Z</time>
      </trkpt>
      <trkpt lat="44.45265" lon="1.35446">
        <ele>94</ele>
        <time>2019-04-14T11:46:31Z</time>
      </trkpt>
      <trkpt lat="44.45262" lon="1.3545">
        <ele>93</ele>
        <time>2019-04-14T11:46:32Z</time>
      </trkpt>
      <trkpt lat="44.45259" lon="1.35453">
        <ele>93</ele>
        <time>2019-04-14T11:46:33Z</time>
      </trkpt>
      <trkpt lat="44.45257" lon="1.35456">
        <ele>94</ele>
        <time>2019-04-14T11:46:34Z</time>
      </trkpt>
      <trkpt lat="44.45255" lon="1.35459">
        <ele>94</ele>
        <time>2019-04-14T11:46:35Z</time>
      </trkpt>
      <trkpt lat="44.45253" lon="1.35462">
        <ele>94</ele>
        <time>2019-04-14T11:46:36Z</time>
      </trkpt>
      <trkpt lat="44.45251" lon="1.35465">
        <ele>94</ele>
        <time>2019-04-14T11:46:37Z</time>
      </trkpt>
      <trkpt lat="44.45249" lon="1.35468">
        <ele>94</ele>
        <time>2019-04-14T11:46:38Z</time>
      </trkpt>
      <trkpt lat="44.45245" lon="1.35472">
        <ele>94</ele>
        <time>2019-04-14T11:46:39Z</time>
      </trkpt>
      <trkpt lat="44.45243" lon="1.35472">
        <ele>94</ele>
        <time>2019-04-14T11:46:41Z</time>
      </trkpt>
      <trkpt lat="44.45241" lon="1.35472">
        <ele>94</ele>
        <time>2019-04-14T11:46:42Z</time>
      </trkpt>
      <trkpt lat="44.45239" lon="1.35471">
        <ele>94</ele>
        <time>2019-04-14T11:46:43Z</time>
      </trkpt>
      <trkpt lat="44.45238" lon="1.35471">
        <ele>95</ele>
        <time>2019-04-14T11:46:44Z</time>
      </trkpt>
      <trkpt lat="44.45236" lon="1.3547">
        <ele>94</ele>
        <time>2019-04-14T11:46:45Z</time>
      </trkpt>
      <trkpt lat="44.45236" lon="1.35469">
        <ele>94</ele>
        <time>2019-04-14T11:46:46Z</time>
      </trkpt>
      <trkpt lat="44.45235" lon="1.3547">
        <ele>94</ele>
        <time>2019-04-14T11:46:47Z</time>
      </trkpt>
      <trkpt lat="44.45235" lon="1.3547">
        <ele>94</ele>
        <time>2019-04-14T11:46:48Z</time>
      </trkpt>
      <trkpt lat="44.45235" lon="1.3547">
        <ele>94</ele>
        <time>2019-04-14T11:46:49Z</time>
      </trkpt>
      <trkpt lat="44.45235" lon="1.3547">
        <ele>94</ele>
        <time>2019-04-14T11:46:50Z</time>
      </trkpt>
      <trkpt lat="44.45235" lon="1.3547">
        <ele>94</ele>
        <time>2019-04-14T11:46:51Z</time>
      </trkpt>
      <trkpt lat="44.45234" lon="1.3547">
        <ele>94</ele>
        <time>2019-04-14T11:46:52Z</time>
      </trkpt>
      <trkpt lat="44.45232" lon="1.3547">
        <ele>94</ele>
        <time>2019-04-14T11:46:53Z</time>
      </trkpt>
      <trkpt lat="44.45249" lon="1.35494">
        <ele>95</ele>
        <time>2019-04-14T11:54:27Z</time>
      </trkpt>
      <trkpt lat="44.45251" lon="1.35496">
        <ele>95</ele>
        <time>2019-04-14T11:54:28Z</time>
      </trkpt>
      <trkpt lat="44.45253" lon="1.35497">
        <ele>95</ele>
        <time>2019-04-14T11:54:29Z</time>
      </trkpt>
      <trkpt lat="44.45255" lon="1.35499">
        <ele>95</ele>
        <time>2019-04-14T11:54:30Z</time>
      </trkpt>
      <trkpt lat="44.45257" lon="1.35502">
        <ele>95</ele>
        <time>2019-04-14T11:54:31Z</time>
      </trkpt>
      <trkpt lat="44.45259" lon="1.35504">
        <ele>95</ele>
        <time>2019-04-14T11:54:32Z</time>
      </trkpt>
      <trkpt lat="44.45261" lon="1.35507">
        <ele>95</ele>
        <time>2019-04-14T11:54:33Z</time>
      </trkpt>
      <trkpt lat="44.45263" lon="1.35509">
        <ele>95</ele>
        <time>2019-04-14T11:54:34Z</time>
      </trkpt>
      <trkpt lat="44.45265" lon="1.35512">
        <ele>95</ele>
        <time>2019-04-14T11:54:35Z</time>
      </trkpt>
      <trkpt lat="44.45268" lon="1.35515">
        <ele>95</ele>
        <time>2019-04-14T11:54:36Z</time>
      </trkpt>
      <trkpt lat="44.4527" lon="1.35518">
        <ele>95</ele>
        <time>2019-04-14T11:54:37Z</time>
      </trkpt>
      <trkpt lat="44.45273" lon="1.35521">
        <ele>95</ele>
        <time>2019-04-14T11:54:38Z</time>
      </trkpt>
      <trkpt lat="44.45275" lon="1.35525">
        <ele>95</ele>
        <time>2019-04-14T11:54:39Z</time>
      </trkpt>
      <trkpt lat="44.45278" lon="1.35528">
        <ele>95</ele>
        <time>2019-04-14T11:54:40Z</time>
      </trkpt>
      <trkpt lat="44.45281" lon="1.35531">
        <ele>95</ele>
        <time>2019-04-14T11:54:41Z</time>
      </trkpt>
      <trkpt lat="44.45283" lon="1.35534">
        <ele>95</ele>
        <time>2019-04-14T11:54:42Z</time>
      </trkpt>
      <trkpt lat="44.45285" lon="1.35537">
        <ele>95</ele>
        <time>2019-04-14T11:54:43Z</time>
      </trkpt>
      <trkpt lat="44.45288" lon="1.3554">
        <ele>95</ele>
        <time>2019-04-14T11:54:44Z</time>
      </trkpt>
      <trkpt lat="44.4529" lon="1.35543">
        <ele>95</ele>
        <time>2019-04-14T11:54:45Z</time>
      </trkpt>
      <trkpt lat="44.45293" lon="1.35547">
        <ele>95</ele>
        <time>2019-04-14T11:54:46Z</time>
      </trkpt>
      <trkpt lat="44.45296" lon="1.3555">
        <ele>95</ele>
        <time>2019-04-14T11:54:47Z</time>
      </trkpt>
      <trkpt lat="44.45298" lon="1.35553">
        <ele>95</ele>
        <time>2019-04-14T11:54:48Z</time>
      </trkpt>
      <trkpt lat="44.45301" lon="1.35556">
        <ele>94</ele>
        <time>2019-04-14T11:54:49Z</time>
      </trkpt>
      <trkpt lat="44.45304" lon="1.3556">
        <ele>95</ele>
        <time>2019-04-14T11:54:50Z</time>
      </trkpt>
      <trkpt lat="44.45308" lon="1.35563">
        <ele>95</ele>
        <time>2019-04-14T11:54:51Z</time>
      </trkpt>
      <trkpt lat="44.45311" lon="1.35566">
        <ele>94</ele>
        <time>2019-04-14T11:54:52Z</time>
      </trkpt>
      <trkpt lat="44.45313" lon="1.3557">
        <ele>94</ele>
        <time>2019-04-14T11:54:53Z</time>
      </trkpt>
      <trkpt lat="44.45315" lon="1.35574">
        <ele>95</ele>
        <time>2019-04-14T11:54:54Z</time>
      </trkpt>
      <trkpt lat="44.45316" lon="1.35578">
        <ele>94</ele>
        <time>2019-04-14T11:54:55Z</time>
      </trkpt>
      <trkpt lat="44.45316" lon="1.35583">
        <ele>95</ele>
        <time>2019-04-14T11:54:56Z</time>
      </trkpt>
      <trkpt lat="44.45314" lon="1.35587">
        <ele>95</ele>
        <time>2019-04-14T11:54:57Z</time>
      </trkpt>
      <trkpt lat="44.45312" lon="1.3559">
        <ele>95</ele>
        <time>2019-04-14T11:54:58Z</time>
      </trkpt>
      <trkpt lat="44.45309" lon="1.35593">
        <ele>95</ele>
        <time>2019-04-14T11:54:59Z</time>
      </trkpt>
      <trkpt lat="44.45307" lon="1.35596">
        <ele>95</ele>
        <time>2019-04-14T11:55:00Z</time>
      </trkpt>
      <trkpt lat="44.45305" lon="1.35599">
        <ele>95</ele>
        <time>2019-04-14T11:55:01Z</time>
      </trkpt>
      <trkpt lat="44.45303" lon="1.35603">
        <ele>96</ele>
        <time>2019-04-14T11:55:02Z</time>
      </trkpt>
      <trkpt lat="44.45301" lon="1.35606">
        <ele>96</ele>
        <time>2019-04-14T11:55:03Z</time>
      </trkpt>
      <trkpt lat="44.45298" lon="1.35609">
        <ele>96</ele>
        <time>2019-04-14T11:55:04Z</time>
      </trkpt>
      <trkpt lat="44.45296" lon="1.35613">
        <ele>96</ele>
        <time>2019-04-14T11:55:05Z</time>
      </trkpt>
      <trkpt lat="44.45294" lon="1.35616">
        <ele>96</ele>
        <time>2019-04-14T11:55:06Z</time>
      </trkpt>
      <trkpt lat="44.45292" lon="1.35619">
        <ele>97</ele>
        <time>2019-04-14T11:55:07Z</time>
      </trkpt>
      <trkpt lat="44.4529" lon="1.35623">
        <ele>97</ele>
        <time>2019-04-14T11:55:08Z</time>
      </trkpt>
      <trkpt lat="44.45288" lon="1.35626">
        <ele>97</ele>
        <time>2019-04-14T11:55:09Z</time>
      </trkpt>
      <trkpt lat="44.45285" lon="1.3563">
        <ele>97</ele>
        <time>2019-04-14T11:55:10Z</time>
      </trkpt>
      <trkpt lat="44.45283" lon="1.35633">
        <ele>97</ele>
        <time>2019-04-14T11:55:11Z</time>
      </trkpt>
      <trkpt lat="44.45281" lon="1.35636">
        <ele>98</ele>
        <time>2019-04-14T11:55:12Z</time>
      </trkpt>
      <trkpt lat="44.45279" lon="1.3564">
        <ele>98</ele>
        <time>2019-04-14T11:55:13Z</time>
      </trkpt>
      <trkpt lat="44.45277" lon="1.35643">
        <ele>98</ele>
        <time>2019-04-14T11:55:14Z</time>
      </trkpt>
      <trkpt lat="44.45275" lon="1.35646">
        <ele>98</ele>
        <time>2019-04-14T11:55:15Z</time>
      </trkpt>
      <trkpt lat="44.45273" lon="1.35649">
        <ele>99</ele>
        <time>2019-04-14T11:55:16Z</time>
      </trkpt>
      <trkpt lat="44.45271" lon="1.35653">
        <ele>99</ele>
        <time>2019-04-14T11:55:17Z</time>
      </trkpt>
      <trkpt lat="44.45269" lon="1.35656">
        <ele>99</ele>
        <time>2019-04-14T11:55:18Z</time>
      </trkpt>
      <trkpt lat="44.45266" lon="1.35658">
        <ele>99</ele>
        <time>2019-04-14T11:55:19Z</time>
      </trkpt>
      <trkpt lat="44.45264" lon="1.35661">
        <ele>99</ele>
        <time>2019-04-14T11:55:20Z</time>
      </trkpt>
      <trkpt lat="44.45262" lon="1.35664">
        <ele>99</ele>
        <time>2019-04-14T11:55:21Z</time>
      </trkpt>
      <trkpt lat="44.4526" lon="1.35667">
        <ele>100</ele>
        <time>2019-04-14T11:55:22Z</time>
      </trkpt>
      <trkpt lat="44.45258" lon="1.35669">
        <ele>100</ele>
        <time>2019-04-14T11:55:23Z</time>
      </trkpt>
      <trkpt lat="44.45255" lon="1.35671">
        <ele>100</ele>
        <time>2019-04-14T11:55:24Z</time>
      </trkpt>
      <trkpt lat="44.45253" lon="1.35673">
        <ele>100</ele>
        <time>2019-04-14T11:55:25Z</time>
      </trkpt>
      <trkpt lat="44.45251" lon="1.35676">
        <ele>100</ele>
        <time>2019-04-14T11:55:26Z</time>
      </trkpt>
      <trkpt lat="44.45249" lon="1.35679">
        <ele>100</ele>
        <time>2019-04-14T11:55:27Z</time>
      </trkpt>
      <trkpt lat="44.45246" lon="1.35682">
        <ele>100</ele>
        <time>2019-04-14T11:55:28Z</time>
      </trkpt>
      <trkpt lat="44.45244" lon="1.35685">
        <ele>100</ele>
        <time>2019-04-14T11:55:29Z</time>
      </trkpt>
      <trkpt lat="44.45242" lon="1.35688">
        <ele>100</ele>
        <time>2019-04-14T11:55:30Z</time>
      </trkpt>
      <trkpt lat="44.45239" lon="1.35691">
        <ele>100</ele>
        <time>2019-04-14T11:55:31Z</time>
      </trkpt>
      <trkpt lat="44.45236" lon="1.35694">
        <ele>101</ele>
        <time>2019-04-14T11:55:32Z</time>
      </trkpt>
      <trkpt lat="44.45233" lon="1.35697">
        <ele>101</ele>
        <time>2019-04-14T11:55:33Z</time>
      </trkpt>
      <trkpt lat="44.4523" lon="1.357">
        <ele>101</ele>
        <time>2019-04-14T11:55:34Z</time>
      </trkpt>
      <trkpt lat="44.45227" lon="1.35703">
        <ele>101</ele>
        <time>2019-04-14T11:55:35Z</time>
      </trkpt>
      <trkpt lat="44.45224" lon="1.35706">
        <ele>101</ele>
        <time>2019-04-14T11:55:36Z</time>
      </trkpt>
      <trkpt lat="44.4522" lon="1.35709">
        <ele>101</ele>
        <time>2019-04-14T11:55:37Z</time>
      </trkpt>
      <trkpt lat="44.45217" lon="1.35711">
        <ele>101</ele>
        <time>2019-04-14T11:55:38Z</time>
      </trkpt>
      <trkpt lat="44.45214" lon="1.35714">
        <ele>101</ele>
        <time>2019-04-14T11:55:39Z</time>
      </trkpt>
      <trkpt lat="44.4521" lon="1.35717">
        <ele>101</ele>
        <time>2019-04-14T11:55:40Z</time>
      </trkpt>
      <trkpt lat="44.45206" lon="1.35719">
        <ele>101</ele>
        <time>2019-04-14T11:55:41Z</time>
      </trkpt>
      <trkpt lat="44.45203" lon="1.35722">
        <ele>101</ele>
        <time>2019-04-14T11:55:42Z</time>
      </trkpt>
      <trkpt lat="44.45199" lon="1.35725">
        <ele>101</ele>
        <time>2019-04-14T11:55:43Z</time>
      </trkpt>
      <trkpt lat="44.45196" lon="1.35728">
        <ele>101</ele>
        <time>2019-04-14T11:55:44Z</time>
      </trkpt>
      <trkpt lat="44.45193" lon="1.35731">
        <ele>101</ele>
        <time>2019-04-14T11:55:45Z</time>
      </trkpt>
      <trkpt lat="44.4519" lon="1.35734">
        <ele>101</ele>
        <time>2019-04-14T11:55:46Z</time>
      </trkpt>
      <trkpt lat="44.45186" lon="1.35738">
        <ele>102</ele>
        <time>2019-04-14T11:55:47Z</time>
      </trkpt>
      <trkpt lat="44.45183" lon="1.35741">
        <ele>102</ele>
        <time>2019-04-14T11:55:48Z</time>
      </trkpt>
      <trkpt lat="44.4518" lon="1.35744">
        <ele>102</ele>
        <time>2019-04-14T11:55:49Z</time>
      </trkpt>
      <trkpt lat="44.45177" lon="1.35747">
        <ele>102</ele>
        <time>2019-04-14T11:55:50Z</time>
      </trkpt>
      <trkpt lat="44.45173" lon="1.3575">
        <ele>102</ele>
        <time>2019-04-14T11:55:51Z</time>
      </trkpt>
      <trkpt lat="44.4517" lon="1.35754">
        <ele>102</ele>
        <time>2019-04-14T11:55:52Z</time>
      </trkpt>
      <trkpt lat="44.45167" lon="1.35758">
        <ele>102</ele>
        <time>2019-04-14T11:55:53Z</time>
      </trkpt>
      <trkpt lat="44.45165" lon="1.35761">
        <ele>102</ele>
        <time>2019-04-14T11:55:54Z</time>
      </trkpt>
      <trkpt lat="44.45162" lon="1.35765">
        <ele>102</ele>
        <time>2019-04-14T11:55:55Z</time>
      </trkpt>
      <trkpt lat="44.45159" lon="1.35769">
        <ele>102</ele>
        <time>2019-04-14T11:55:56Z</time>
      </trkpt>
      <trkpt lat="44.45157" lon="1.35773">
        <ele>102</ele>
        <time>2019-04-14T11:55:57Z</time>
      </trkpt>
      <trkpt lat="44.45154" lon="1.35777">
        <ele>102</ele>
        <time>2019-04-14T11:55:58Z</time>
      </trkpt>
      <trkpt lat="44.45152" lon="1.35782">
        <ele>102</ele>
        <time>2019-04-14T11:55:59Z</time>
      </trkpt>
      <trkpt lat="44.45151" lon="1.35786">
        <ele>102</ele>
        <time>2019-04-14T11:56:00Z</time>
      </trkpt>
      <trkpt lat="44.45149" lon="1.35791">
        <ele>102</ele>
        <time>2019-04-14T11:56:01Z</time>
      </trkpt>
      <trkpt lat="44.45148" lon="1.35796">
        <ele>102</ele>
        <time>2019-04-14T11:56:02Z</time>
      </trkpt>
      <trkpt lat="44.45147" lon="1.35801">
        <ele>102</ele>
        <time>2019-04-14T11:56:03Z</time>
      </trkpt>
      <trkpt lat="44.45146" lon="1.35807">
        <ele>102</ele>
        <time>2019-04-14T11:56:04Z</time>
      </trkpt>
      <trkpt lat="44.45145" lon="1.35812">
        <ele>102</ele>
        <time>2019-04-14T11:56:05Z</time>
      </trkpt>
      <trkpt lat="44.45145" lon="1.35817">
        <ele>102</ele>
        <time>2019-04-14T11:56:06Z</time>
      </trkpt>
      <trkpt lat="44.45144" lon="1.35822">
        <ele>102</ele>
        <time>2019-04-14T11:56:07Z</time>
      </trkpt>
      <trkpt lat="44.45144" lon="1.35827">
        <ele>102</ele>
        <time>2019-04-14T11:56:08Z</time>
      </trkpt>
      <trkpt lat="44.45144" lon="1.35832">
        <ele>102</ele>
        <time>2019-04-14T11:56:09Z</time>
      </trkpt>
      <trkpt lat="44.45144" lon="1.35837">
        <ele>102</ele>
        <time>2019-04-14T11:56:10Z</time>
      </trkpt>
      <trkpt lat="44.45144" lon="1.35842">
        <ele>102</ele>
        <time>2019-04-14T11:56:11Z</time>
      </trkpt>
      <trkpt lat="44.45144" lon="1.35847">
        <ele>102</ele>
        <time>2019-04-14T11:56:12Z</time>
      </trkpt>
      <trkpt lat="44.45144" lon="1.35852">
        <ele>102</ele>
        <time>2019-04-14T11:56:13Z</time>
      </trkpt>
      <trkpt lat="44.45144" lon="1.35858">
        <ele>102</ele>
        <time>2019-04-14T11:56:14Z</time>
      </trkpt>
      <trkpt lat="44.45143" lon="1.35863">
        <ele>102</ele>
        <time>2019-04-14T11:56:15Z</time>
      </trkpt>
      <trkpt lat="44.45143" lon="1.35868">
        <ele>102</ele>
        <time>2019-04-14T11:56:16Z</time>
      </trkpt>
      <trkpt lat="44.45142" lon="1.35873">
        <ele>102</ele>
        <time>2019-04-14T11:56:17Z</time>
      </trkpt>
      <trkpt lat="44.4514" lon="1.35878">
        <ele>102</ele>
        <time>2019-04-14T11:56:18Z</time>
      </trkpt>
      <trkpt lat="44.45138" lon="1.35884">
        <ele>101</ele>
        <time>2019-04-14T11:56:19Z</time>
      </trkpt>
      <trkpt lat="44.45136" lon="1.35888">
        <ele>101</ele>
        <time>2019-04-14T11:56:20Z</time>
      </trkpt>
      <trkpt lat="44.45133" lon="1.35892">
        <ele>101</ele>
        <time>2019-04-14T11:56:21Z</time>
      </trkpt>
      <trkpt lat="44.45129" lon="1.35895">
        <ele>102</ele>
        <time>2019-04-14T11:56:22Z</time>
      </trkpt>
      <trkpt lat="44.45125" lon="1.35898">
        <ele>102</ele>
        <time>2019-04-14T11:56:23Z</time>
      </trkpt>
      <trkpt lat="44.45122" lon="1.359">
        <ele>101</ele>
        <time>2019-04-14T11:56:24Z</time>
      </trkpt>
      <trkpt lat="44.45118" lon="1.35902">
        <ele>102</ele>
        <time>2019-04-14T11:56:25Z</time>
      </trkpt>
      <trkpt lat="44.45114" lon="1.35904">
        <ele>101</ele>
        <time>2019-04-14T11:56:26Z</time>
      </trkpt>
      <trkpt lat="44.45109" lon="1.35905">
        <ele>102</ele>
        <time>2019-04-14T11:56:27Z</time>
      </trkpt>
      <trkpt lat="44.45106" lon="1.35907">
        <ele>101</ele>
        <time>2019-04-14T11:56:28Z</time>
      </trkpt>
      <trkpt lat="44.45102" lon="1.35908">
        <ele>101</ele>
        <time>2019-04-14T11:56:29Z</time>
      </trkpt>
      <trkpt lat="44.45098" lon="1.35909">
        <ele>101</ele>
        <time>2019-04-14T11:56:30Z</time>
      </trkpt>
      <trkpt lat="44.45094" lon="1.3591">
        <ele>101</ele>
        <time>2019-04-14T11:56:31Z</time>
      </trkpt>
      <trkpt lat="44.45091" lon="1.35912">
        <ele>102</ele>
        <time>2019-04-14T11:56:32Z</time>
      </trkpt>
      <trkpt lat="44.45087" lon="1.35913">
        <ele>102</ele>
        <time>2019-04-14T11:56:33Z</time>
      </trkpt>
      <trkpt lat="44.45083" lon="1.35915">
        <ele>102</ele>
        <time>2019-04-14T11:56:34Z</time>
      </trkpt>
      <trkpt lat="44.4508" lon="1.35916">
        <ele>102</ele>
        <time>2019-04-14T11:56:35Z</time>
      </trkpt>
      <trkpt lat="44.45076" lon="1.35917">
        <ele>102</ele>
        <time>2019-04-14T11:56:36Z</time>
      </trkpt>
      <trkpt lat="44.45073" lon="1.35919">
        <ele>102</ele>
        <time>2019-04-14T11:56:37Z</time>
      </trkpt>
      <trkpt lat="44.4507" lon="1.3592">
        <ele>102</ele>
        <time>2019-04-14T11:56:38Z</time>
      </trkpt>
      <trkpt lat="44.45066" lon="1.35922">
        <ele>102</ele>
        <time>2019-04-14T11:56:39Z</time>
      </trkpt>
      <trkpt lat="44.45063" lon="1.35924">
        <ele>102</ele>
        <time>2019-04-14T11:56:40Z</time>
      </trkpt>
      <trkpt lat="44.4506" lon="1.35926">
        <ele>102</ele>
        <time>2019-04-14T11:56:41Z</time>
      </trkpt>
      <trkpt lat="44.45057" lon="1.35928">
        <ele>102</ele>
        <time>2019-04-14T11:56:42Z</time>
      </trkpt>
      <trkpt lat="44.45054" lon="1.35929">
        <ele>103</ele>
        <time>2019-04-14T11:56:43Z</time>
      </trkpt>
      <trkpt lat="44.45051" lon="1.35931">
        <ele>103</ele>
        <time>2019-04-14T11:56:44Z</time>
      </trkpt>
      <trkpt lat="44.45048" lon="1.35934">
        <ele>103</ele>
        <time>2019-04-14T11:56:45Z</time>
      </trkpt>
      <trkpt lat="44.45045" lon="1.35936">
        <ele>103</ele>
        <time>2019-04-14T11:56:46Z</time>
      </trkpt>
      <trkpt lat="44.45043" lon="1.35938">
        <ele>103</ele>
        <time>2019-04-14T11:56:47Z</time>
      </trkpt>
      <trkpt lat="44.4504" lon="1.3594">
        <ele>103</ele>
        <time>2019-04-14T11:56:48Z</time>
      </trkpt>
      <trkpt lat="44.45038" lon="1.35942">
        <ele>103</ele>
        <time>2019-04-14T11:56:49Z</time>
      </trkpt>
      <trkpt lat="44.45035" lon="1.35944">
        <ele>103</ele>
        <time>2019-04-14T11:56:50Z</time>
      </trkpt>
      <trkpt lat="44.45032" lon="1.35946">
        <ele>103</ele>
        <time>2019-04-14T11:56:51Z</time>
      </trkpt>
      <trkpt lat="44.4503" lon="1.35948">
        <ele>103</ele>
        <time>2019-04-14T11:56:52Z</time>
      </trkpt>
      <trkpt lat="44.45027" lon="1.35951">
        <ele>103</ele>
        <time>2019-04-14T11:56:53Z</time>
      </trkpt>
      <trkpt lat="44.45024" lon="1.35953">
        <ele>103</ele>
        <time>2019-04-14T11:56:54Z</time>
      </trkpt>
      <trkpt lat="44.45022" lon="1.35955">
        <ele>104</ele>
        <time>2019-04-14T11:56:55Z</time>
      </trkpt>
      <trkpt lat="44.4502" lon="1.35957">
        <ele>104</ele>
        <time>2019-04-14T11:56:56Z</time>
      </trkpt>
      <trkpt lat="44.45017" lon="1.35959">
        <ele>104</ele>
        <time>2019-04-14T11:56:57Z</time>
      </trkpt>
      <trkpt lat="44.45014" lon="1.3596">
        <ele>104</ele>
        <time>2019-04-14T11:56:58Z</time>
      </trkpt>
      <trkpt lat="44.45012" lon="1.35962">
        <ele>104</ele>
        <time>2019-04-14T11:56:59Z</time>
      </trkpt>
      <trkpt lat="44.45009" lon="1.35964">
        <ele>104</ele>
        <time>2019-04-14T11:57:00Z</time>
      </trkpt>
      <trkpt lat="44.45006" lon="1.35966">
        <ele>104</ele>
        <time>2019-04-14T11:57:01Z</time>
      </trkpt>
      <trkpt lat="44.45003" lon="1.35968">
        <ele>104</ele>
        <time>2019-04-14T11:57:02Z</time>
      </trkpt>
      <trkpt lat="44.45001" lon="1.3597">
        <ele>104</ele>
        <time>2019-04-14T11:57:03Z</time>
      </trkpt>
      <trkpt lat="44.44999" lon="1.35972">
        <ele>104</ele>
        <time>2019-04-14T11:57:04Z</time>
      </trkpt>
      <trkpt lat="44.44996" lon="1.35973">
        <ele>104</ele>
        <time>2019-04-14T11:57:05Z</time>
      </trkpt>
      <trkpt lat="44.44993" lon="1.35975">
        <ele>105</ele>
        <time>2019-04-14T11:57:06Z</time>
      </trkpt>
      <trkpt lat="44.4499" lon="1.35976">
        <ele>105</ele>
        <time>2019-04-14T11:57:07Z</time>
      </trkpt>
      <trkpt lat="44.44988" lon="1.35977">
        <ele>105</ele>
        <time>2019-04-14T11:57:08Z</time>
      </trkpt>
      <trkpt lat="44.44985" lon="1.35978">
        <ele>105</ele>
        <time>2019-04-14T11:57:09Z</time>
      </trkpt>
      <trkpt lat="44.44982" lon="1.3598">
        <ele>105</ele>
        <time>2019-04-14T11:57:10Z</time>
      </trkpt>
      <trkpt lat="44.44979" lon="1.35981">
        <ele>105</ele>
        <time>2019-04-14T11:57:11Z</time>
      </trkpt>
      <trkpt lat="44.44977" lon="1.35982">
        <ele>105</ele>
        <time>2019-04-14T11:57:12Z</time>
      </trkpt>
      <trkpt lat="44.44974" lon="1.35983">
        <ele>105</ele>
        <time>2019-04-14T11:57:13Z</time>
      </trkpt>
      <trkpt lat="44.44971" lon="1.35985">
        <ele>105</ele>
        <time>2019-04-14T11:57:14Z</time>
      </trkpt>
      <trkpt lat="44.44968" lon="1.35987">
        <ele>105</ele>
        <time>2019-04-14T11:57:15Z</time>
      </trkpt>
      <trkpt lat="44.44966" lon="1.35989">
        <ele>105</ele>
        <time>2019-04-14T11:57:16Z</time>
      </trkpt>
      <trkpt lat="44.44963" lon="1.3599">
        <ele>105</ele>
        <time>2019-04-14T11:57:17Z</time>
      </trkpt>
      <trkpt lat="44.4496" lon="1.35992">
        <ele>106</ele>
        <time>2019-04-14T11:57:18Z</time>
      </trkpt>
      <trkpt lat="44.44957" lon="1.35994">
        <ele>106</ele>
        <time>2019-04-14T11:57:19Z</time>
      </trkpt>
      <trkpt lat="44.44954" lon="1.35995">
        <ele>106</ele>
        <time>2019-04-14T11:57:20Z</time>
      </trkpt>
      <trkpt lat="44.44952" lon="1.35997">
        <ele>106</ele>
        <time>2019-04-14T11:57:21Z</time>
      </trkpt>
      <trkpt lat="44.44949" lon="1.35999">
        <ele>106</ele>
        <time>2019-04-14T11:57:22Z</time>
      </trkpt>
      <trkpt lat="44.44946" lon="1.36001">
        <ele>106</ele>
        <time>2019-04-14T11:57:23Z</time>
      </trkpt>
      <trkpt lat="44.44943" lon="1.36004">
        <ele>106</ele>
        <time>2019-04-14T11:57:24Z</time>
      </trkpt>
      <trkpt lat="44.44939" lon="1.36006">
        <ele>106</ele>
        <time>2019-04-14T11:57:25Z</time>
      </trkpt>
      <trkpt lat="44.44937" lon="1.36008">
        <ele>106</ele>
        <time>2019-04-14T11:57:26Z</time>
      </trkpt>
      <trkpt lat="44.44934" lon="1.3601">
        <ele>106</ele>
        <time>2019-04-14T11:57:27Z</time>
      </trkpt>
      <trkpt lat="44.44931" lon="1.36012">
        <ele>106</ele>
        <time>2019-04-14T11:57:28Z</time>
      </trkpt>
      <trkpt lat="44.44928" lon="1.36014">
        <ele>106</ele>
        <time>2019-04-14T11:57:29Z</time>
      </trkpt>
      <trkpt lat="44.44925" lon="1.36016">
        <ele>107</ele>
        <time>2019-04-14T11:57:30Z</time>
      </trkpt>
      <trkpt lat="44.44922" lon="1.36018">
        <ele>107</ele>
        <time>2019-04-14T11:57:31Z</time>
      </trkpt>
      <trkpt lat="44.44919" lon="1.3602">
        <ele>107</ele>
        <time>2019-04-14T11:57:32Z</time>
      </trkpt>
      <trkpt lat="44.44916" lon="1.36021">
        <ele>107</ele>
        <time>2019-04-14T11:57:33Z</time>
      </trkpt>
      <trkpt lat="44.44913" lon="1.36024">
        <ele>107</ele>
        <time>2019-04-14T11:57:34Z</time>
      </trkpt>
      <trkpt lat="44.4491" lon="1.36026">
        <ele>107</ele>
        <time>2019-04-14T11:57:35Z</time>
      </trkpt>
      <trkpt lat="44.44908" lon="1.36028">
        <ele>107</ele>
        <time>2019-04-14T11:57:36Z</time>
      </trkpt>
      <trkpt lat="44.44905" lon="1.36029">
        <ele>107</ele>
        <time>2019-04-14T11:57:37Z</time>
      </trkpt>
      <trkpt lat="44.44902" lon="1.3603">
        <ele>107</ele>
        <time>2019-04-14T11:57:38Z</time>
      </trkpt>
      <trkpt lat="44.44899" lon="1.36032">
        <ele>107</ele>
        <time>2019-04-14T11:57:39Z</time>
      </trkpt>
      <trkpt lat="44.44896" lon="1.36034">
        <ele>107</ele>
        <time>2019-04-14T11:57:40Z</time>
      </trkpt>
      <trkpt lat="44.44893" lon="1.36035">
        <ele>107</ele>
        <time>2019-04-14T11:57:41Z</time>
      </trkpt>
      <trkpt lat="44.4489" lon="1.36037">
        <ele>107</ele>
        <time>2019-04-14T11:57:42Z</time>
      </trkpt>
      <trkpt lat="44.44887" lon="1.36039">
        <ele>107</ele>
        <time>2019-04-14T11:57:43Z</time>
      </trkpt>
      <trkpt lat="44.44884" lon="1.36041">
        <ele>107</ele>
        <time>2019-04-14T11:57:44Z</time>
      </trkpt>
      <trkpt lat="44.44881" lon="1.36043">
        <ele>107</ele>
        <time>2019-04-14T11:57:45Z</time>
      </trkpt>
      <trkpt lat="44.44878" lon="1.36045">
        <ele>107</ele>
        <time>2019-04-14T11:57:46Z</time>
      </trkpt>
      <trkpt lat="44.44875" lon="1.36047">
        <ele>108</ele>
        <time>2019-04-14T11:57:47Z</time>
      </trkpt>
      <trkpt lat="44.44872" lon="1.36049">
        <ele>108</ele>
        <time>2019-04-14T11:57:48Z</time>
      </trkpt>
      <trkpt lat="44.44869" lon="1.3605">
        <ele>108</ele>
        <time>2019-04-14T11:57:49Z</time>
      </trkpt>
      <trkpt lat="44.44866" lon="1.36052">
        <ele>108</ele>
        <time>2019-04-14T11:57:50Z</time>
      </trkpt>
      <trkpt lat="44.44863" lon="1.36053">
        <ele>108</ele>
        <time>2019-04-14T11:57:51Z</time>
      </trkpt>
      <trkpt lat="44.4486" lon="1.36055">
        <ele>108</ele>
        <time>2019-04-14T11:57:52Z</time>
      </trkpt>
      <trkpt lat="44.44857" lon="1.36056">
        <ele>108</ele>
        <time>2019-04-14T11:57:53Z</time>
      </trkpt>
      <trkpt lat="44.44854" lon="1.36058">
        <ele>108</ele>
        <time>2019-04-14T11:57:54Z</time>
      </trkpt>
      <trkpt lat="44.4485" lon="1.3606">
        <ele>108</ele>
        <time>2019-04-14T11:57:55Z</time>
      </trkpt>
      <trkpt lat="44.44847" lon="1.36061">
        <ele>108</ele>
        <time>2019-04-14T11:57:56Z</time>
      </trkpt>
      <trkpt lat="44.44844" lon="1.36063">
        <ele>108</ele>
        <time>2019-04-14T11:57:57Z</time>
      </trkpt>
      <trkpt lat="44.44841" lon="1.36065">
        <ele>108</ele>
        <time>2019-04-14T11:57:58Z</time>
      </trkpt>
      <trkpt lat="44.44837" lon="1.36067">
        <ele>108</ele>
        <time>2019-04-14T11:57:59Z</time>
      </trkpt>
      <trkpt lat="44.44834" lon="1.36068">
        <ele>108</ele>
        <time>2019-04-14T11:58:00Z</time>
      </trkpt>
      <trkpt lat="44.4483" lon="1.3607">
        <ele>108</ele>
        <time>2019-04-14T11:58:01Z</time>
      </trkpt>
      <trkpt lat="44.44827" lon="1.36071">
        <ele>108</ele>
        <time>2019-04-14T11:58:02Z</time>
      </trkpt>
      <trkpt lat="44.44824" lon="1.36072">
        <ele>108</ele>
        <time>2019-04-14T11:58:03Z</time>
      </trkpt>
      <trkpt lat="44.44821" lon="1.36074">
        <ele>108</ele>
        <time>2019-04-14T11:58:04Z</time>
      </trkpt>
      <trkpt lat="44.44818" lon="1.36075">
        <ele>108</ele>
        <time>2019-04-14T11:58:05Z</time>
      </trkpt>
      <trkpt lat="44.44815" lon="1.36077">
        <ele>108</ele>
        <time>2019-04-14T11:58:06Z</time>
      </trkpt>
      <trkpt lat="44.44812" lon="1.36079">
        <ele>108</ele>
        <time>2019-04-14T11:58:07Z</time>
      </trkpt>
      <trkpt lat="44.44809" lon="1.36081">
        <ele>108</ele>
        <time>2019-04-14T11:58:08Z</time>
      </trkpt>
      <trkpt lat="44.44805" lon="1.36082">
        <ele>108</ele>
        <time>2019-04-14T11:58:09Z</time>
      </trkpt>
      <trkpt lat="44.44801" lon="1.36084">
        <ele>108</ele>
        <time>2019-04-14T11:58:10Z</time>
      </trkpt>
      <trkpt lat="44.44798" lon="1.36087">
        <ele>109</ele>
        <time>2019-04-14T11:58:11Z</time>
      </trkpt>
      <trkpt lat="44.44795" lon="1.36088">
        <ele>109</ele>
        <time>2019-04-14T11:58:12Z</time>
      </trkpt>
      <trkpt lat="44.44792" lon="1.36089">
        <ele>109</ele>
        <time>2019-04-14T11:58:13Z</time>
      </trkpt>
      <trkpt lat="44.44789" lon="1.3609">
        <ele>109</ele>
        <time>2019-04-14T11:58:14Z</time>
      </trkpt>
      <trkpt lat="44.44786" lon="1.36091">
        <ele>109</ele>
        <time>2019-04-14T11:58:15Z</time>
      </trkpt>
      <trkpt lat="44.44783" lon="1.36092">
        <ele>109</ele>
        <time>2019-04-14T11:58:16Z</time>
      </trkpt>
      <trkpt lat="44.4478" lon="1.36093">
        <ele>109</ele>
        <time>2019-04-14T11:58:17Z</time>
      </trkpt>
      <trkpt lat="44.44776" lon="1.36095">
        <ele>109</ele>
        <time>2019-04-14T11:58:18Z</time>
      </trkpt>
      <trkpt lat="44.44773" lon="1.36096">
        <ele>109</ele>
        <time>2019-04-14T11:58:19Z</time>
      </trkpt>
      <trkpt lat="44.4477" lon="1.36097">
        <ele>109</ele>
        <time>2019-04-14T11:58:20Z</time>
      </trkpt>
      <trkpt lat="44.44766" lon="1.36099">
        <ele>109</ele>
        <time>2019-04-14T11:58:21Z</time>
      </trkpt>
      <trkpt lat="44.44762" lon="1.361">
        <ele>109</ele>
        <time>2019-04-14T11:58:22Z</time>
      </trkpt>
      <trkpt lat="44.44759" lon="1.36102">
        <ele>109</ele>
        <time>2019-04-14T11:58:23Z</time>
      </trkpt>
      <trkpt lat="44.44756" lon="1.36103">
        <ele>109</ele>
        <time>2019-04-14T11:58:24Z</time>
      </trkpt>
      <trkpt lat="44.44752" lon="1.36104">
        <ele>109</ele>
        <time>2019-04-14T11:58:25Z</time>
      </trkpt>
      <trkpt lat="44.44749" lon="1.36105">
        <ele>109</ele>
        <time>2019-04-14T11:58:26Z</time>
      </trkpt>
      <trkpt lat="44.44746" lon="1.36107">
        <ele>109</ele>
        <time>2019-04-14T11:58:27Z</time>
      </trkpt>
      <trkpt lat="44.44743" lon="1.36108">
        <ele>109</ele>
        <time>2019-04-14T11:58:28Z</time>
      </trkpt>
      <trkpt lat="44.44739" lon="1.3611">
        <ele>109</ele>
        <time>2019-04-14T11:58:29Z</time>
      </trkpt>
      <trkpt lat="44.44736" lon="1.36111">
        <ele>109</ele>
        <time>2019-04-14T11:58:30Z</time>
      </trkpt>
      <trkpt lat="44.44733" lon="1.36112">
        <ele>110</ele>
        <time>2019-04-14T11:58:31Z</time>
      </trkpt>
      <trkpt lat="44.4473" lon="1.36114">
        <ele>110</ele>
        <time>2019-04-14T11:58:32Z</time>
      </trkpt>
      <trkpt lat="44.44726" lon="1.36116">
        <ele>110</ele>
        <time>2019-04-14T11:58:33Z</time>
      </trkpt>
      <trkpt lat="44.44723" lon="1.36118">
        <ele>110</ele>
        <time>2019-04-14T11:58:34Z</time>
      </trkpt>
      <trkpt lat="44.4472" lon="1.36119">
        <ele>110</ele>
        <time>2019-04-14T11:58:35Z</time>
      </trkpt>
      <trkpt lat="44.44717" lon="1.36121">
        <ele>110</ele>
        <time>2019-04-14T11:58:36Z</time>
      </trkpt>
      <trkpt lat="44.44714" lon="1.36122">
        <ele>110</ele>
        <time>2019-04-14T11:58:37Z</time>
      </trkpt>
      <trkpt lat="44.44712" lon="1.36123">
        <ele>110</ele>
        <time>2019-04-14T11:58:38Z</time>
      </trkpt>
      <trkpt lat="44.44709" lon="1.36124">
        <ele>110</ele>
        <time>2019-04-14T11:58:39Z</time>
      </trkpt>
      <trkpt lat="44.44706" lon="1.36124">
        <ele>110</ele>
        <time>2019-04-14T11:58:40Z</time>
      </trkpt>
      <trkpt lat="44.44703" lon="1.36123">
        <ele>110</ele>
        <time>2019-04-14T11:58:41Z</time>
      </trkpt>
      <trkpt lat="44.44699" lon="1.36122">
        <ele>110</ele>
        <time>2019-04-14T11:58:42Z</time>
      </trkpt>
      <trkpt lat="44.44695" lon="1.3612">
        <ele>110</ele>
        <time>2019-04-14T11:58:43Z</time>
      </trkpt>
      <trkpt lat="44.44692" lon="1.36119">
        <ele>110</ele>
        <time>2019-04-14T11:58:44Z</time>
      </trkpt>
      <trkpt lat="44.44689" lon="1.36117">
        <ele>111</ele>
        <time>2019-04-14T11:58:45Z</time>
      </trkpt>
      <trkpt lat="44.44685" lon="1.36115">
        <ele>111</ele>
        <time>2019-04-14T11:58:46Z</time>
      </trkpt>
      <trkpt lat="44.44682" lon="1.36114">
        <ele>110</ele>
        <time>2019-04-14T11:58:47Z</time>
      </trkpt>
      <trkpt lat="44.44679" lon="1.36113">
        <ele>111</ele>
        <time>2019-04-14T11:58:48Z</time>
      </trkpt>
      <trkpt lat="44.44676" lon="1.36112">
        <ele>111</ele>
        <time>2019-04-14T11:58:49Z</time>
      </trkpt>
      <trkpt lat="44.44673" lon="1.36111">
        <ele>111</ele>
        <time>2019-04-14T11:58:50Z</time>
      </trkpt>
      <trkpt lat="44.44669" lon="1.36109">
        <ele>111</ele>
        <time>2019-04-14T11:58:51Z</time>
      </trkpt>
      <trkpt lat="44.44666" lon="1.36108">
        <ele>111</ele>
        <time>2019-04-14T11:58:52Z</time>
      </trkpt>
      <trkpt lat="44.44663" lon="1.36107">
        <ele>111</ele>
        <time>2019-04-14T11:58:53Z</time>
      </trkpt>
      <trkpt lat="44.44659" lon="1.36106">
        <ele>111</ele>
        <time>2019-04-14T11:58:54Z</time>
      </trkpt>
      <trkpt lat="44.44656" lon="1.36105">
        <ele>111</ele>
        <time>2019-04-14T11:58:55Z</time>
      </trkpt>
      <trkpt lat="44.44653" lon="1.36104">
        <ele>111</ele>
        <time>2019-04-14T11:58:56Z</time>
      </trkpt>
      <trkpt lat="44.44649" lon="1.36102">
        <ele>111</ele>
        <time>2019-04-14T11:58:57Z</time>
      </trkpt>
      <trkpt lat="44.44646" lon="1.36101">
        <ele>111</ele>
        <time>2019-04-14T11:58:58Z</time>
      </trkpt>
      <trkpt lat="44.44643" lon="1.361">
        <ele>111</ele>
        <time>2019-04-14T11:58:59Z</time>
      </trkpt>
      <trkpt lat="44.44639" lon="1.36099">
        <ele>112</ele>
        <time>2019-04-14T11:59:00Z</time>
      </trkpt>
      <trkpt lat="44.44636" lon="1.36098">
        <ele>112</ele>
        <time>2019-04-14T11:59:01Z</time>
      </trkpt>
      <trkpt lat="44.44633" lon="1.36096">
        <ele>112</ele>
        <time>2019-04-14T11:59:02Z</time>
      </trkpt>
      <trkpt lat="44.44629" lon="1.36096">
        <ele>112</ele>
        <time>2019-04-14T11:59:03Z</time>
      </trkpt>
      <trkpt lat="44.44625" lon="1.36095">
        <ele>112</ele>
        <time>2019-04-14T11:59:04Z</time>
      </trkpt>
      <trkpt lat="44.44621" lon="1.36093">
        <ele>112</ele>
        <time>2019-04-14T11:59:05Z</time>
      </trkpt>
      <trkpt lat="44.44618" lon="1.36092">
        <ele>112</ele>
        <time>2019-04-14T11:59:06Z</time>
      </trkpt>
      <trkpt lat="44.44614" lon="1.36091">
        <ele>112</ele>
        <time>2019-04-14T11:59:07Z</time>
      </trkpt>
      <trkpt lat="44.4461" lon="1.36089">
        <ele>112</ele>
        <time>2019-04-14T11:59:08Z</time>
      </trkpt>
      <trkpt lat="44.44607" lon="1.36088">
        <ele>112</ele>
        <time>2019-04-14T11:59:09Z</time>
      </trkpt>
      <trkpt lat="44.44603" lon="1.36086">
        <ele>112</ele>
        <time>2019-04-14T11:59:10Z</time>
      </trkpt>
      <trkpt lat="44.446" lon="1.36084">
        <ele>112</ele>
        <time>2019-04-14T11:59:11Z</time>
      </trkpt>
      <trkpt lat="44.44597" lon="1.36083">
        <ele>112</ele>
        <time>2019-04-14T11:59:12Z</time>
      </trkpt>
      <trkpt lat="44.44594" lon="1.36081">
        <ele>112</ele>
        <time>2019-04-14T11:59:13Z</time>
      </trkpt>
      <trkpt lat="44.4459" lon="1.36078">
        <ele>112</ele>
        <time>2019-04-14T11:59:14Z</time>
      </trkpt>
      <trkpt lat="44.44587" lon="1.36076">
        <ele>112</ele>
        <time>2019-04-14T11:59:15Z</time>
      </trkpt>
      <trkpt lat="44.44583" lon="1.36074">
        <ele>112</ele>
        <time>2019-04-14T11:59:16Z</time>
      </trkpt>
      <trkpt lat="44.4458" lon="1.36072">
        <ele>112</ele>
        <time>2019-04-14T11:59:17Z</time>
      </trkpt>
      <trkpt lat="44.44576" lon="1.3607">
        <ele>112</ele>
        <time>2019-04-14T11:59:18Z</time>
      </trkpt>
      <trkpt lat="44.44573" lon="1.36067">
        <ele>112</ele>
        <time>2019-04-14T11:59:19Z</time>
      </trkpt>
      <trkpt lat="44.4457" lon="1.36065">
        <ele>112</ele>
        <time>2019-04-14T11:59:20Z</time>
      </trkpt>
      <trkpt lat="44.44567" lon="1.36062">
        <ele>112</ele>
        <time>2019-04-14T11:59:21Z</time>
      </trkpt>
      <trkpt lat="44.44563" lon="1.3606">
        <ele>112</ele>
        <time>2019-04-14T11:59:22Z</time>
      </trkpt>
      <trkpt lat="44.44559" lon="1.36057">
        <ele>112</ele>
        <time>2019-04-14T11:59:23Z</time>
      </trkpt>
      <trkpt lat="44.44556" lon="1.36054">
        <ele>112</ele>
        <time>2019-04-14T11:59:24Z</time>
      </trkpt>
      <trkpt lat="44.44553" lon="1.36052">
        <ele>112</ele>
        <time>2019-04-14T11:59:25Z</time>
      </trkpt>
      <trkpt lat="44.44549" lon="1.3605">
        <ele>112</ele>
        <time>2019-04-14T11:59:26Z</time>
      </trkpt>
      <trkpt lat="44.44545" lon="1.36047">
        <ele>113</ele>
        <time>2019-04-14T11:59:27Z</time>
      </trkpt>
      <trkpt lat="44.44542" lon="1.36045">
        <ele>113</ele>
        <time>2019-04-14T11:59:28Z</time>
      </trkpt>
      <trkpt lat="44.44538" lon="1.36042">
        <ele>113</ele>
        <time>2019-04-14T11:59:29Z</time>
      </trkpt>
      <trkpt lat="44.44534" lon="1.3604">
        <ele>113</ele>
        <time>2019-04-14T11:59:30Z</time>
      </trkpt>
      <trkpt lat="44.4453" lon="1.36038">
        <ele>113</ele>
        <time>2019-04-14T11:59:31Z</time>
      </trkpt>
      <trkpt lat="44.44527" lon="1.36037">
        <ele>113</ele>
        <time>2019-04-14T11:59:32Z</time>
      </trkpt>
      <trkpt lat="44.44523" lon="1.36036">
        <ele>113</ele>
        <time>2019-04-14T11:59:33Z</time>
      </trkpt>
      <trkpt lat="44.4452" lon="1.36035">
        <ele>113</ele>
        <time>2019-04-14T11:59:34Z</time>
      </trkpt>
      <trkpt lat="44.44517" lon="1.36035">
        <ele>113</ele>
        <time>2019-04-14T11:59:35Z</time>
      </trkpt>
      <trkpt lat="44.44513" lon="1.36034">
        <ele>113</ele>
        <time>2019-04-14T11:59:36Z</time>
      </trkpt>
      <trkpt lat="44.4451" lon="1.36033">
        <ele>113</ele>
        <time>2019-04-14T11:59:37Z</time>
      </trkpt>
      <trkpt lat="44.44507" lon="1.36032">
        <ele>113</ele>
        <time>2019-04-14T11:59:38Z</time>
      </trkpt>
      <trkpt lat="44.44503" lon="1.36031">
        <ele>113</ele>
        <time>2019-04-14T11:59:39Z</time>
      </trkpt>
      <trkpt lat="44.445" lon="1.3603">
        <ele>113</ele>
        <time>2019-04-14T11:59:40Z</time>
      </trkpt>
      <trkpt lat="44.44496" lon="1.36029">
        <ele>114</ele>
        <time>2019-04-14T11:59:41Z</time>
      </trkpt>
      <trkpt lat="44.44492" lon="1.36029">
        <ele>114</ele>
        <time>2019-04-14T11:59:42Z</time>
      </trkpt>
      <trkpt lat="44.44489" lon="1.36028">
        <ele>114</ele>
        <time>2019-04-14T11:59:43Z</time>
      </trkpt>
      <trkpt lat="44.44485" lon="1.36028">
        <ele>114</ele>
        <time>2019-04-14T11:59:44Z</time>
      </trkpt>
      <trkpt lat="44.44481" lon="1.36027">
        <ele>114</ele>
        <time>2019-04-14T11:59:45Z</time>
      </trkpt>
      <trkpt lat="44.44477" lon="1.36027">
        <ele>114</ele>
        <time>2019-04-14T11:59:46Z</time>
      </trkpt>
      <trkpt lat="44.44473" lon="1.36027">
        <ele>114</ele>
        <time>2019-04-14T11:59:47Z</time>
      </trkpt>
      <trkpt lat="44.4447" lon="1.36027">
        <ele>114</ele>
        <time>2019-04-14T11:59:48Z</time>
      </trkpt>
      <trkpt lat="44.44466" lon="1.36027">
        <ele>115</ele>
        <time>2019-04-14T11:59:49Z</time>
      </trkpt>
      <trkpt lat="44.44462" lon="1.36026">
        <ele>115</ele>
        <time>2019-04-14T11:59:50Z</time>
      </trkpt>
      <trkpt lat="44.44459" lon="1.36026">
        <ele>115</ele>
        <time>2019-04-14T11:59:51Z</time>
      </trkpt>
      <trkpt lat="44.44455" lon="1.36026">
        <ele>115</ele>
        <time>2019-04-14T11:59:52Z</time>
      </trkpt>
      <trkpt lat="44.44451" lon="1.36026">
        <ele>115</ele>
        <time>2019-04-14T11:59:53Z</time>
      </trkpt>
      <trkpt lat="44.44448" lon="1.36026">
        <ele>115</ele>
        <time>2019-04-14T11:59:54Z</time>
      </trkpt>
      <trkpt lat="44.44444" lon="1.36026">
        <ele>115</ele>
        <time>2019-04-14T11:59:55Z</time>
      </trkpt>
      <trkpt lat="44.4444" lon="1.36027">
        <ele>115</ele>
        <time>2019-04-14T11:59:56Z</time>
      </trkpt>
      <trkpt lat="44.44436" lon="1.36027">
        <ele>115</ele>
        <time>2019-04-14T11:59:57Z</time>
      </trkpt>
      <trkpt lat="44.44432" lon="1.36027">
        <ele>116</ele>
        <time>2019-04-14T11:59:58Z</time>
      </trkpt>
      <trkpt lat="44.44429" lon="1.36027">
        <ele>116</ele>
        <time>2019-04-14T11:59:59Z</time>
      </trkpt>
      <trkpt lat="44.44425" lon="1.36027">
        <ele>116</ele>
        <time>2019-04-14T12:00:00Z</time>
      </trkpt>
      <trkpt lat="44.44421" lon="1.36028">
        <ele>116</ele>
        <time>2019-04-14T12:00:01Z</time>
      </trkpt>
      <trkpt lat="44.44418" lon="1.36028">
        <ele>116</ele>
        <time>2019-04-14T12:00:02Z</time>
      </trkpt>
      <trkpt lat="44.44414" lon="1.36028">
        <ele>116</ele>
        <time>2019-04-14T12:00:03Z</time>
      </trkpt>
      <trkpt lat="44.4441" lon="1.36028">
        <ele>116</ele>
        <time>2019-04-14T12:00:04Z</time>
      </trkpt>
      <trkpt lat="44.44407" lon="1.36027">
        <ele>116</ele>
        <time>2019-04-14T12:00:05Z</time>
      </trkpt>
      <trkpt lat="44.44403" lon="1.36027">
        <ele>116</ele>
        <time>2019-04-14T12:00:06Z</time>
      </trkpt>
      <trkpt lat="44.44399" lon="1.36027">
        <ele>116</ele>
        <time>2019-04-14T12:00:07Z</time>
      </trkpt>
      <trkpt lat="44.44395" lon="1.36027">
        <ele>116</ele>
        <time>2019-04-14T12:00:08Z</time>
      </trkpt>
      <trkpt lat="44.44392" lon="1.36028">
        <ele>117</ele>
        <time>2019-04-14T12:00:09Z</time>
      </trkpt>
      <trkpt lat="44.44388" lon="1.36028">
        <ele>117</ele>
        <time>2019-04-14T12:00:10Z</time>
      </trkpt>
      <trkpt lat="44.44384" lon="1.36028">
        <ele>117</ele>
        <time>2019-04-14T12:00:11Z</time>
      </trkpt>
      <trkpt lat="44.4438" lon="1.36028">
        <ele>117</ele>
        <time>2019-04-14T12:00:12Z</time>
      </trkpt>
      <trkpt lat="44.44377" lon="1.36028">
        <ele>117</ele>
        <time>2019-04-14T12:00:13Z</time>
      </trkpt>
      <trkpt lat="44.44374" lon="1.36028">
        <ele>117</ele>
        <time>2019-04-14T12:00:14Z</time>
      </trkpt>
      <trkpt lat="44.4437" lon="1.36027">
        <ele>117</ele>
        <time>2019-04-14T12:00:15Z</time>
      </trkpt>
      <trkpt lat="44.44367" lon="1.36027">
        <ele>117</ele>
        <time>2019-04-14T12:00:16Z</time>
      </trkpt>
      <trkpt lat="44.44364" lon="1.36027">
        <ele>117</ele>
        <time>2019-04-14T12:00:17Z</time>
      </trkpt>
      <trkpt lat="44.44359" lon="1.36028">
        <ele>117</ele>
        <time>2019-04-14T12:00:18Z</time>
      </trkpt>
      <trkpt lat="44.44356" lon="1.36028">
        <ele>117</ele>
        <time>2019-04-14T12:00:19Z</time>
      </trkpt>
      <trkpt lat="44.44352" lon="1.36028">
        <ele>117</ele>
        <time>2019-04-14T12:00:20Z</time>
      </trkpt>
      <trkpt lat="44.44349" lon="1.36029">
        <ele>117</ele>
        <time>2019-04-14T12:00:21Z</time>
      </trkpt>
      <trkpt lat="44.44345" lon="1.3603">
        <ele>117</ele>
        <time>2019-04-14T12:00:22Z</time>
      </trkpt>
      <trkpt lat="44.44341" lon="1.36031">
        <ele>118</ele>
        <time>2019-04-14T12:00:23Z</time>
      </trkpt>
      <trkpt lat="44.44338" lon="1.36032">
        <ele>118</ele>
        <time>2019-04-14T12:00:24Z</time>
      </trkpt>
      <trkpt lat="44.44335" lon="1.36033">
        <ele>118</ele>
        <time>2019-04-14T12:00:25Z</time>
      </trkpt>
      <trkpt lat="44.44331" lon="1.36034">
        <ele>118</ele>
        <time>2019-04-14T12:00:26Z</time>
      </trkpt>
      <trkpt lat="44.44328" lon="1.36035">
        <ele>118</ele>
        <time>2019-04-14T12:00:27Z</time>
      </trkpt>
      <trkpt lat="44.44325" lon="1.36037">
        <ele>118</ele>
        <time>2019-04-14T12:00:28Z</time>
      </trkpt>
      <trkpt lat="44.44321" lon="1.36039">
        <ele>118</ele>
        <time>2019-04-14T12:00:29Z</time>
      </trkpt>
      <trkpt lat="44.44317" lon="1.3604">
        <ele>118</ele>
        <time>2019-04-14T12:00:30Z</time>
      </trkpt>
      <trkpt lat="44.44313" lon="1.36042">
        <ele>118</ele>
        <time>2019-04-14T12:00:31Z</time>
      </trkpt>
      <trkpt lat="44.4431" lon="1.36044">
        <ele>118</ele>
        <time>2019-04-14T12:00:32Z</time>
      </trkpt>
      <trkpt lat="44.44307" lon="1.36046">
        <ele>119</ele>
        <time>2019-04-14T12:00:33Z</time>
      </trkpt>
      <trkpt lat="44.44304" lon="1.36048">
        <ele>119</ele>
        <time>2019-04-14T12:00:34Z</time>
      </trkpt>
      <trkpt lat="44.443" lon="1.3605">
        <ele>119</ele>
        <time>2019-04-14T12:00:35Z</time>
      </trkpt>
      <trkpt lat="44.44297" lon="1.36052">
        <ele>119</ele>
        <time>2019-04-14T12:00:36Z</time>
      </trkpt>
      <trkpt lat="44.44294" lon="1.36054">
        <ele>119</ele>
        <time>2019-04-14T12:00:37Z</time>
      </trkpt>
      <trkpt lat="44.44291" lon="1.36056">
        <ele>119</ele>
        <time>2019-04-14T12:00:38Z</time>
      </trkpt>
      <trkpt lat="44.44288" lon="1.36058">
        <ele>119</ele>
        <time>2019-04-14T12:00:39Z</time>
      </trkpt>
      <trkpt lat="44.44285" lon="1.3606">
        <ele>119</ele>
        <time>2019-04-14T12:00:40Z</time>
      </trkpt>
      <trkpt lat="44.44282" lon="1.36062">
        <ele>119</ele>
        <time>2019-04-14T12:00:41Z</time>
      </trkpt>
      <trkpt lat="44.44279" lon="1.36064">
        <ele>119</ele>
        <time>2019-04-14T12:00:42Z</time>
      </trkpt>
      <trkpt lat="44.44276" lon="1.36067">
        <ele>119</ele>
        <time>2019-04-14T12:00:43Z</time>
      </trkpt>
      <trkpt lat="44.44273" lon="1.36068">
        <ele>120</ele>
        <time>2019-04-14T12:00:44Z</time>
      </trkpt>
      <trkpt lat="44.4427" lon="1.3607">
        <ele>120</ele>
        <time>2019-04-14T12:00:45Z</time>
      </trkpt>
      <trkpt lat="44.44266" lon="1.36071">
        <ele>120</ele>
        <time>2019-04-14T12:00:46Z</time>
      </trkpt>
      <trkpt lat="44.44263" lon="1.36073">
        <ele>120</ele>
        <time>2019-04-14T12:00:47Z</time>
      </trkpt>
      <trkpt lat="44.4426" lon="1.36076">
        <ele>120</ele>
        <time>2019-04-14T12:00:48Z</time>
      </trkpt>
      <trkpt lat="44.44257" lon="1.36078">
        <ele>120</ele>
        <time>2019-04-14T12:00:49Z</time>
      </trkpt>
      <trkpt lat="44.44254" lon="1.3608">
        <ele>120</ele>
        <time>2019-04-14T12:00:50Z</time>
      </trkpt>
      <trkpt lat="44.44251" lon="1.36082">
        <ele>120</ele>
        <time>2019-04-14T12:00:51Z</time>
      </trkpt>
      <trkpt lat="44.44248" lon="1.36084">
        <ele>120</ele>
        <time>2019-04-14T12:00:52Z</time>
      </trkpt>
      <trkpt lat="44.44244" lon="1.36086">
        <ele>120</ele>
        <time>2019-04-14T12:00:53Z</time>
      </trkpt>
      <trkpt lat="44.44241" lon="1.36088">
        <ele>121</ele>
        <time>2019-04-14T12:00:54Z</time>
      </trkpt>
      <trkpt lat="44.44238" lon="1.3609">
        <ele>121</ele>
        <time>2019-04-14T12:00:55Z</time>
      </trkpt>
      <trkpt lat="44.44235" lon="1.36093">
        <ele>121</ele>
        <time>2019-04-14T12:00:56Z</time>
      </trkpt>
      <trkpt lat="44.44232" lon="1.36095">
        <ele>121</ele>
        <time>2019-04-14T12:00:57Z</time>
      </trkpt>
      <trkpt lat="44.44229" lon="1.36097">
        <ele>121</ele>
        <time>2019-04-14T12:00:58Z</time>
      </trkpt>
      <trkpt lat="44.44226" lon="1.36099">
        <ele>121</ele>
        <time>2019-04-14T12:00:59Z</time>
      </trkpt>
      <trkpt lat="44.44223" lon="1.36102">
        <ele>121</ele>
        <time>2019-04-14T12:01:00Z</time>
      </trkpt>
      <trkpt lat="44.4422" lon="1.36104">
        <ele>121</ele>
        <time>2019-04-14T12:01:01Z</time>
      </trkpt>
      <trkpt lat="44.44217" lon="1.36105">
        <ele>121</ele>
        <time>2019-04-14T12:01:02Z</time>
      </trkpt>
      <trkpt lat="44.44214" lon="1.36107">
        <ele>121</ele>
        <time>2019-04-14T12:01:03Z</time>
      </trkpt>
      <trkpt lat="44.44211" lon="1.36109">
        <ele>121</ele>
        <time>2019-04-14T12:01:04Z</time>
      </trkpt>
      <trkpt lat="44.44207" lon="1.36111">
        <ele>121</ele>
        <time>2019-04-14T12:01:05Z</time>
      </trkpt>
      <trkpt lat="44.44204" lon="1.36113">
        <ele>121</ele>
        <time>2019-04-14T12:01:06Z</time>
      </trkpt>
      <trkpt lat="44.44201" lon="1.36115">
        <ele>121</ele>
        <time>2019-04-14T12:01:07Z</time>
      </trkpt>
      <trkpt lat="44.44198" lon="1.36118">
        <ele>121</ele>
        <time>2019-04-14T12:01:08Z</time>
      </trkpt>
      <trkpt lat="44.44196" lon="1.3612">
        <ele>121</ele>
        <time>2019-04-14T12:01:09Z</time>
      </trkpt>
      <trkpt lat="44.44193" lon="1.36123">
        <ele>121</ele>
        <time>2019-04-14T12:01:10Z</time>
      </trkpt>
      <trkpt lat="44.44189" lon="1.36126">
        <ele>121</ele>
        <time>2019-04-14T12:01:11Z</time>
      </trkpt>
      <trkpt lat="44.44186" lon="1.36129">
        <ele>121</ele>
        <time>2019-04-14T12:01:12Z</time>
      </trkpt>
      <trkpt lat="44.44183" lon="1.36131">
        <ele>121</ele>
        <time>2019-04-14T12:01:13Z</time>
      </trkpt>
      <trkpt lat="44.4418" lon="1.36133">
        <ele>121</ele>
        <time>2019-04-14T12:01:14Z</time>
      </trkpt>
      <trkpt lat="44.44176" lon="1.36135">
        <ele>121</ele>
        <time>2019-04-14T12:01:15Z</time>
      </trkpt>
      <trkpt lat="44.44173" lon="1.36137">
        <ele>121</ele>
        <time>2019-04-14T12:01:16Z</time>
      </trkpt>
      <trkpt lat="44.4417" lon="1.36138">
        <ele>121</ele>
        <time>2019-04-14T12:01:17Z</time>
      </trkpt>
      <trkpt lat="44.44166" lon="1.3614">
        <ele>121</ele>
        <time>2019-04-14T12:01:18Z</time>
      </trkpt>
      <trkpt lat="44.44162" lon="1.36142">
        <ele>122</ele>
        <time>2019-04-14T12:01:19Z</time>
      </trkpt>
      <trkpt lat="44.44158" lon="1.36145">
        <ele>122</ele>
        <time>2019-04-14T12:01:20Z</time>
      </trkpt>
      <trkpt lat="44.44155" lon="1.36147">
        <ele>122</ele>
        <time>2019-04-14T12:01:21Z</time>
      </trkpt>
      <trkpt lat="44.44152" lon="1.36149">
        <ele>122</ele>
        <time>2019-04-14T12:01:22Z</time>
      </trkpt>
      <trkpt lat="44.44148" lon="1.36151">
        <ele>122</ele>
        <time>2019-04-14T12:01:23Z</time>
      </trkpt>
      <trkpt lat="44.44145" lon="1.36153">
        <ele>122</ele>
        <time>2019-04-14T12:01:24Z</time>
      </trkpt>
      <trkpt lat="44.44142" lon="1.36156">
        <ele>122</ele>
        <time>2019-04-14T12:01:25Z</time>
      </trkpt>
      <trkpt lat="44.44139" lon="1.36159">
        <ele>122</ele>
        <time>2019-04-14T12:01:26Z</time>
      </trkpt>
      <trkpt lat="44.44135" lon="1.36161">
        <ele>122</ele>
        <time>2019-04-14T12:01:27Z</time>
      </trkpt>
      <trkpt lat="44.44132" lon="1.36164">
        <ele>122</ele>
        <time>2019-04-14T12:01:28Z</time>
      </trkpt>
      <trkpt lat="44.4413" lon="1.36167">
        <ele>122</ele>
        <time>2019-04-14T12:01:29Z</time>
      </trkpt>
      <trkpt lat="44.44127" lon="1.36169">
        <ele>123</ele>
        <time>2019-04-14T12:01:30Z</time>
      </trkpt>
      <trkpt lat="44.44124" lon="1.36172">
        <ele>123</ele>
        <time>2019-04-14T12:01:31Z</time>
      </trkpt>
      <trkpt lat="44.44121" lon="1.36174">
        <ele>123</ele>
        <time>2019-04-14T12:01:32Z</time>
      </trkpt>
      <trkpt lat="44.44118" lon="1.36175">
        <ele>123</ele>
        <time>2019-04-14T12:01:33Z</time>
      </trkpt>
      <trkpt lat="44.44116" lon="1.36174">
        <ele>123</ele>
        <time>2019-04-14T12:01:34Z</time>
      </trkpt>
      <trkpt lat="44.44114" lon="1.36172">
        <ele>123</ele>
        <time>2019-04-14T12:01:35Z</time>
      </trkpt>
      <trkpt lat="44.44113" lon="1.3617">
        <ele>123</ele>
        <time>2019-04-14T12:01:36Z</time>
      </trkpt>
      <trkpt lat="44.44113" lon="1.36167">
        <ele>123</ele>
        <time>2019-04-14T12:01:37Z</time>
      </trkpt>
      <trkpt lat="44.44115" lon="1.36163">
        <ele>122</ele>
        <time>2019-04-14T12:01:38Z</time>
      </trkpt>
      <trkpt lat="44.44115" lon="1.36158">
        <ele>122</ele>
        <time>2019-04-14T12:01:39Z</time>
      </trkpt>
      <trkpt lat="44.44117" lon="1.36153">
        <ele>122</ele>
        <time>2019-04-14T12:01:40Z</time>
      </trkpt>
      <trkpt lat="44.44119" lon="1.36147">
        <ele>122</ele>
        <time>2019-04-14T12:01:41Z</time>
      </trkpt>
      <trkpt lat="44.4412" lon="1.36142">
        <ele>121</ele>
        <time>2019-04-14T12:01:42Z</time>
      </trkpt>
      <trkpt lat="44.44121" lon="1.36136">
        <ele>121</ele>
        <time>2019-04-14T12:01:43Z</time>
      </trkpt>
      <trkpt lat="44.44122" lon="1.36131">
        <ele>121</ele>
        <time>2019-04-14T12:01:44Z</time>
      </trkpt>
      <trkpt lat="44.44123" lon="1.36126">
        <ele>121</ele>
        <time>2019-04-14T12:01:45Z</time>
      </trkpt>
      <trkpt lat="44.44125" lon="1.36121">
        <ele>121</ele>
        <time>2019-04-14T12:01:46Z</time>
      </trkpt>
      <trkpt lat="44.44125" lon="1.36116">
        <ele>121</ele>
        <time>2019-04-14T12:01:47Z</time>
      </trkpt>
      <trkpt lat="44.44126" lon="1.3611">
        <ele>121</ele>
        <time>2019-04-14T12:01:48Z</time>
      </trkpt>
      <trkpt lat="44.44128" lon="1.36104">
        <ele>121</ele>
        <time>2019-04-14T12:01:49Z</time>
      </trkpt>
      <trkpt lat="44.44129" lon="1.361">
        <ele>121</ele>
        <time>2019-04-14T12:01:50Z</time>
      </trkpt>
      <trkpt lat="44.44129" lon="1.36095">
        <ele>121</ele>
        <time>2019-04-14T12:01:51Z</time>
      </trkpt>
      <trkpt lat="44.44128" lon="1.3609">
        <ele>121</ele>
        <time>2019-04-14T12:01:52Z</time>
      </trkpt>
      <trkpt lat="44.44126" lon="1.36088">
        <ele>121</ele>
        <time>2019-04-14T12:01:53Z</time>
      </trkpt>
      <trkpt lat="44.44124" lon="1.36087">
        <ele>122</ele>
        <time>2019-04-14T12:01:54Z</time>
      </trkpt>
      <trkpt lat="44.44121" lon="1.36088">
        <ele>122</ele>
        <time>2019-04-14T12:01:55Z</time>
      </trkpt>
      <trkpt lat="44.44119" lon="1.36088">
        <ele>122</ele>
        <time>2019-04-14T12:01:56Z</time>
      </trkpt>
      <trkpt lat="44.44116" lon="1.36089">
        <ele>123</ele>
        <time>2019-04-14T12:01:57Z</time>
      </trkpt>
      <trkpt lat="44.44115" lon="1.3609">
        <ele>123</ele>
        <time>2019-04-14T12:01:58Z</time>
      </trkpt>
      <trkpt lat="44.44112" lon="1.36091">
        <ele>123</ele>
        <time>2019-04-14T12:01:59Z</time>
      </trkpt>
      <trkpt lat="44.4411" lon="1.36091">
        <ele>123</ele>
        <time>2019-04-14T12:02:00Z</time>
      </trkpt>
      <trkpt lat="44.44107" lon="1.36093">
        <ele>123</ele>
        <time>2019-04-14T12:02:01Z</time>
      </trkpt>
      <trkpt lat="44.44105" lon="1.36093">
        <ele>124</ele>
        <time>2019-04-14T12:02:02Z</time>
      </trkpt>
      <trkpt lat="44.44103" lon="1.36094">
        <ele>124</ele>
        <time>2019-04-14T12:02:03Z</time>
      </trkpt>
      <trkpt lat="44.44101" lon="1.36094">
        <ele>124</ele>
        <time>2019-04-14T12:02:04Z</time>
      </trkpt>
      <trkpt lat="44.44098" lon="1.36095">
        <ele>124</ele>
        <time>2019-04-14T12:02:05Z</time>
      </trkpt>
      <trkpt lat="44.44095" lon="1.36096">
        <ele>124</ele>
        <time>2019-04-14T12:02:06Z</time>
      </trkpt>
      <trkpt lat="44.44092" lon="1.36096">
        <ele>124</ele>
        <time>2019-04-14T12:02:07Z</time>
      </trkpt>
      <trkpt lat="44.44089" lon="1.36097">
        <ele>124</ele>
        <time>2019-04-14T12:02:08Z</time>
      </trkpt>
      <trkpt lat="44.44087" lon="1.36099">
        <ele>125</ele>
        <time>2019-04-14T12:02:09Z</time>
      </trkpt>
      <trkpt lat="44.44085" lon="1.361">
        <ele>125</ele>
        <time>2019-04-14T12:02:10Z</time>
      </trkpt>
      <trkpt lat="44.44083" lon="1.361">
        <ele>125</ele>
        <time>2019-04-14T12:02:11Z</time>
      </trkpt>
      <trkpt lat="44.4408" lon="1.36102">
        <ele>125</ele>
        <time>2019-04-14T12:02:12Z</time>
      </trkpt>
      <trkpt lat="44.44077" lon="1.36104">
        <ele>125</ele>
        <time>2019-04-14T12:02:13Z</time>
      </trkpt>
      <trkpt lat="44.44074" lon="1.36103">
        <ele>125</ele>
        <time>2019-04-14T12:02:14Z</time>
      </trkpt>
      <trkpt lat="44.44072" lon="1.36103">
        <ele>126</ele>
        <time>2019-04-14T12:02:15Z</time>
      </trkpt>
      <trkpt lat="44.4407" lon="1.36105">
        <ele>126</ele>
        <time>2019-04-14T12:02:16Z</time>
      </trkpt>
      <trkpt lat="44.44067" lon="1.36106">
        <ele>126</ele>
        <time>2019-04-14T12:02:17Z</time>
      </trkpt>
      <trkpt lat="44.44064" lon="1.36108">
        <ele>126</ele>
        <time>2019-04-14T12:02:18Z</time>
      </trkpt>
      <trkpt lat="44.44061" lon="1.36109">
        <ele>126</ele>
        <time>2019-04-14T12:02:19Z</time>
      </trkpt>
      <trkpt lat="44.44059" lon="1.3611">
        <ele>126</ele>
        <time>2019-04-14T12:02:20Z</time>
      </trkpt>
      <trkpt lat="44.44055" lon="1.36112">
        <ele>126</ele>
        <time>2019-04-14T12:02:21Z</time>
      </trkpt>
      <trkpt lat="44.44052" lon="1.36114">
        <ele>126</ele>
        <time>2019-04-14T12:02:22Z</time>
      </trkpt>
      <trkpt lat="44.44049" lon="1.36115">
        <ele>126</ele>
        <time>2019-04-14T12:02:23Z</time>
      </trkpt>
      <trkpt lat="44.44045" lon="1.36116">
        <ele>126</ele>
        <time>2019-04-14T12:02:24Z</time>
      </trkpt>
      <trkpt lat="44.44043" lon="1.36117">
        <ele>126</ele>
        <time>2019-04-14T12:02:25Z</time>
      </trkpt>
      <trkpt lat="44.44039" lon="1.36117">
        <ele>126</ele>
        <time>2019-04-14T12:02:26Z</time>
      </trkpt>
      <trkpt lat="44.44035" lon="1.36119">
        <ele>127</ele>
        <time>2019-04-14T12:02:27Z</time>
      </trkpt>
      <trkpt lat="44.44033" lon="1.36121">
        <ele>127</ele>
        <time>2019-04-14T12:02:28Z</time>
      </trkpt>
      <trkpt lat="44.4403" lon="1.36122">
        <ele>127</ele>
        <time>2019-04-14T12:02:29Z</time>
      </trkpt>
      <trkpt lat="44.44027" lon="1.36124">
        <ele>127</ele>
        <time>2019-04-14T12:02:30Z</time>
      </trkpt>
      <trkpt lat="44.44024" lon="1.36125">
        <ele>127</ele>
        <time>2019-04-14T12:02:31Z</time>
      </trkpt>
      <trkpt lat="44.44021" lon="1.36127">
        <ele>127</ele>
        <time>2019-04-14T12:02:32Z</time>
      </trkpt>
      <trkpt lat="44.44018" lon="1.36127">
        <ele>127</ele>
        <time>2019-04-14T12:02:33Z</time>
      </trkpt>
      <trkpt lat="44.44015" lon="1.36129">
        <ele>127</ele>
        <time>2019-04-14T12:02:34Z</time>
      </trkpt>
      <trkpt lat="44.44013" lon="1.36131">
        <ele>127</ele>
        <time>2019-04-14T12:02:35Z</time>
      </trkpt>
      <trkpt lat="44.4401" lon="1.36132">
        <ele>127</ele>
        <time>2019-04-14T12:02:36Z</time>
      </trkpt>
      <trkpt lat="44.44006" lon="1.36135">
        <ele>127</ele>
        <time>2019-04-14T12:02:37Z</time>
      </trkpt>
      <trkpt lat="44.44003" lon="1.36136">
        <ele>127</ele>
        <time>2019-04-14T12:02:38Z</time>
      </trkpt>
      <trkpt lat="44.44001" lon="1.36138">
        <ele>127</ele>
        <time>2019-04-14T12:02:39Z</time>
      </trkpt>
      <trkpt lat="44.43998" lon="1.3614">
        <ele>128</ele>
        <time>2019-04-14T12:02:40Z</time>
      </trkpt>
      <trkpt lat="44.43995" lon="1.36142">
        <ele>127</ele>
        <time>2019-04-14T12:02:41Z</time>
      </trkpt>
      <trkpt lat="44.43992" lon="1.36144">
        <ele>127</ele>
        <time>2019-04-14T12:02:42Z</time>
      </trkpt>
      <trkpt lat="44.43989" lon="1.36146">
        <ele>127</ele>
        <time>2019-04-14T12:02:43Z</time>
      </trkpt>
      <trkpt lat="44.43986" lon="1.36148">
        <ele>128</ele>
        <time>2019-04-14T12:02:44Z</time>
      </trkpt>
      <trkpt lat="44.43983" lon="1.3615">
        <ele>128</ele>
        <time>2019-04-14T12:02:45Z</time>
      </trkpt>
      <trkpt lat="44.4398" lon="1.36152">
        <ele>128</ele>
        <time>2019-04-14T12:02:46Z</time>
      </trkpt>
      <trkpt lat="44.43977" lon="1.36153">
        <ele>127</ele>
        <time>2019-04-14T12:02:47Z</time>
      </trkpt>
      <trkpt lat="44.43974" lon="1.36155">
        <ele>128</ele>
        <time>2019-04-14T12:02:48Z</time>
      </trkpt>
      <trkpt lat="44.43971" lon="1.36156">
        <ele>128</ele>
        <time>2019-04-14T12:02:49Z</time>
      </trkpt>
      <trkpt lat="44.43968" lon="1.36158">
        <ele>128</ele>
        <time>2019-04-14T12:02:50Z</time>
      </trkpt>
      <trkpt lat="44.43965" lon="1.3616">
        <ele>128</ele>
        <time>2019-04-14T12:02:51Z</time>
      </trkpt>
      <trkpt lat="44.43962" lon="1.36161">
        <ele>128</ele>
        <time>2019-04-14T12:02:52Z</time>
      </trkpt>
      <trkpt lat="44.43959" lon="1.36162">
        <ele>128</ele>
        <time>2019-04-14T12:02:53Z</time>
      </trkpt>
      <trkpt lat="44.43955" lon="1.36163">
        <ele>128</ele>
        <time>2019-04-14T12:02:54Z</time>
      </trkpt>
      <trkpt lat="44.43953" lon="1.36165">
        <ele>128</ele>
        <time>2019-04-14T12:02:55Z</time>
      </trkpt>
      <trkpt lat="44.43949" lon="1.36166">
        <ele>128</ele>
        <time>2019-04-14T12:02:56Z</time>
      </trkpt>
      <trkpt lat="44.43946" lon="1.36167">
        <ele>128</ele>
        <time>2019-04-14T12:02:57Z</time>
      </trkpt>
      <trkpt lat="44.43943" lon="1.36167">
        <ele>128</ele>
        <time>2019-04-14T12:02:58Z</time>
      </trkpt>
      <trkpt lat="44.43941" lon="1.36168">
        <ele>128</ele>
        <time>2019-04-14T12:02:59Z</time>
      </trkpt>
      <trkpt lat="44.43938" lon="1.36169">
        <ele>128</ele>
        <time>2019-04-14T12:03:00Z</time>
      </trkpt>
      <trkpt lat="44.43935" lon="1.36169">
        <ele>128</ele>
        <time>2019-04-14T12:03:01Z</time>
      </trkpt>
      <trkpt lat="44.43932" lon="1.36169">
        <ele>128</ele>
        <time>2019-04-14T12:03:02Z</time>
      </trkpt>
      <trkpt lat="44.4393" lon="1.36168">
        <ele>128</ele>
        <time>2019-04-14T12:03:03Z</time>
      </trkpt>
      <trkpt lat="44.43926" lon="1.36167">
        <ele>129</ele>
        <time>2019-04-14T12:03:04Z</time>
      </trkpt>
      <trkpt lat="44.43923" lon="1.36167">
        <ele>129</ele>
        <time>2019-04-14T12:03:05Z</time>
      </trkpt>
      <trkpt lat="44.43921" lon="1.36166">
        <ele>129</ele>
        <time>2019-04-14T12:03:06Z</time>
      </trkpt>
      <trkpt lat="44.43918" lon="1.36165">
        <ele>129</ele>
        <time>2019-04-14T12:03:07Z</time>
      </trkpt>
      <trkpt lat="44.43915" lon="1.36165">
        <ele>130</ele>
        <time>2019-04-14T12:03:08Z</time>
      </trkpt>
      <trkpt lat="44.43912" lon="1.36165">
        <ele>130</ele>
        <time>2019-04-14T12:03:09Z</time>
      </trkpt>
      <trkpt lat="44.4391" lon="1.36164">
        <ele>130</ele>
        <time>2019-04-14T12:03:10Z</time>
      </trkpt>
      <trkpt lat="44.43907" lon="1.36162">
        <ele>130</ele>
        <time>2019-04-14T12:03:11Z</time>
      </trkpt>
      <trkpt lat="44.43906" lon="1.3616">
        <ele>130</ele>
        <time>2019-04-14T12:03:12Z</time>
      </trkpt>
      <trkpt lat="44.43904" lon="1.36159">
        <ele>131</ele>
        <time>2019-04-14T12:03:13Z</time>
      </trkpt>
      <trkpt lat="44.43902" lon="1.36158">
        <ele>131</ele>
        <time>2019-04-14T12:03:14Z</time>
      </trkpt>
      <trkpt lat="44.43899" lon="1.36156">
        <ele>131</ele>
        <time>2019-04-14T12:03:15Z</time>
      </trkpt>
      <trkpt lat="44.43897" lon="1.36155">
        <ele>131</ele>
        <time>2019-04-14T12:03:16Z</time>
      </trkpt>
      <trkpt lat="44.43895" lon="1.36153">
        <ele>131</ele>
        <time>2019-04-14T12:03:17Z</time>
      </trkpt>
      <trkpt lat="44.43894" lon="1.36151">
        <ele>132</ele>
        <time>2019-04-14T12:03:18Z</time>
      </trkpt>
      <trkpt lat="44.43891" lon="1.36149">
        <ele>132</ele>
        <time>2019-04-14T12:03:19Z</time>
      </trkpt>
      <trkpt lat="44.43889" lon="1.36147">
        <ele>132</ele>
        <time>2019-04-14T12:03:20Z</time>
      </trkpt>
      <trkpt lat="44.43887" lon="1.36146">
        <ele>132</ele>
        <time>2019-04-14T12:03:21Z</time>
      </trkpt>
      <trkpt lat="44.43884" lon="1.36145">
        <ele>132</ele>
        <time>2019-04-14T12:03:22Z</time>
      </trkpt>
      <trkpt lat="44.43882" lon="1.36142">
        <ele>133</ele>
        <time>2019-04-14T12:03:23Z</time>
      </trkpt>
      <trkpt lat="44.43879" lon="1.36141">
        <ele>133</ele>
        <time>2019-04-14T12:03:24Z</time>
      </trkpt>
      <trkpt lat="44.43877" lon="1.36139">
        <ele>133</ele>
        <time>2019-04-14T12:03:25Z</time>
      </trkpt>
      <trkpt lat="44.43876" lon="1.36137">
        <ele>133</ele>
        <time>2019-04-14T12:03:26Z</time>
      </trkpt>
      <trkpt lat="44.43874" lon="1.36136">
        <ele>133</ele>
        <time>2019-04-14T12:03:27Z</time>
      </trkpt>
      <trkpt lat="44.43871" lon="1.36134">
        <ele>133</ele>
        <time>2019-04-14T12:03:28Z</time>
      </trkpt>
      <trkpt lat="44.43869" lon="1.36132">
        <ele>134</ele>
        <time>2019-04-14T12:03:29Z</time>
      </trkpt>
      <trkpt lat="44.43867" lon="1.3613">
        <ele>134</ele>
        <time>2019-04-14T12:03:30Z</time>
      </trkpt>
      <trkpt lat="44.43864" lon="1.36129">
        <ele>134</ele>
        <time>2019-04-14T12:03:31Z</time>
      </trkpt>
      <trkpt lat="44.43862" lon="1.36127">
        <ele>134</ele>
        <time>2019-04-14T12:03:32Z</time>
      </trkpt>
      <trkpt lat="44.4386" lon="1.36125">
        <ele>134</ele>
        <time>2019-04-14T12:03:33Z</time>
      </trkpt>
      <trkpt lat="44.43858" lon="1.36123">
        <ele>135</ele>
        <time>2019-04-14T12:03:34Z</time>
      </trkpt>
      <trkpt lat="44.43857" lon="1.36123">
        <ele>135</ele>
        <time>2019-04-14T12:03:35Z</time>
      </trkpt>
      <trkpt lat="44.43855" lon="1.36121">
        <ele>135</ele>
        <time>2019-04-14T12:03:36Z</time>
      </trkpt>
      <trkpt lat="44.43853" lon="1.3612">
        <ele>135</ele>
        <time>2019-04-14T12:03:37Z</time>
      </trkpt>
      <trkpt lat="44.43851" lon="1.36118">
        <ele>135</ele>
        <time>2019-04-14T12:03:38Z</time>
      </trkpt>
      <trkpt lat="44.43849" lon="1.36117">
        <ele>135</ele>
        <time>2019-04-14T12:03:39Z</time>
      </trkpt>
      <trkpt lat="44.43847" lon="1.36116">
        <ele>135</ele>
        <time>2019-04-14T12:03:40Z</time>
      </trkpt>
      <trkpt lat="44.43846" lon="1.36114">
        <ele>136</ele>
        <time>2019-04-14T12:03:41Z</time>
      </trkpt>
      <trkpt lat="44.43844" lon="1.36113">
        <ele>136</ele>
        <time>2019-04-14T12:03:42Z</time>
      </trkpt>
      <trkpt lat="44.43842" lon="1.36112">
        <ele>136</ele>
        <time>2019-04-14T12:03:43Z</time>
      </trkpt>
      <trkpt lat="44.43841" lon="1.36112">
        <ele>136</ele>
        <time>2019-04-14T12:03:44Z</time>
      </trkpt>
      <trkpt lat="44.43839" lon="1.36112">
        <ele>136</ele>
        <time>2019-04-14T12:03:45Z</time>
      </trkpt>
      <trkpt lat="44.43838" lon="1.36113">
        <ele>136</ele>
        <time>2019-04-14T12:03:46Z</time>
      </trkpt>
      <trkpt lat="44.43837" lon="1.36115">
        <ele>136</ele>
        <time>2019-04-14T12:03:47Z</time>
      </trkpt>
      <trkpt lat="44.43837" lon="1.36118">
        <ele>136</ele>
        <time>2019-04-14T12:03:48Z</time>
      </trkpt>
      <trkpt lat="44.4384" lon="1.36117">
        <ele>135</ele>
        <time>2019-04-14T12:03:49Z</time>
      </trkpt>
      <trkpt lat="44.43841" lon="1.36122">
        <ele>135</ele>
        <time>2019-04-14T12:03:50Z</time>
      </trkpt>
      <trkpt lat="44.43843" lon="1.36126">
        <ele>134</ele>
        <time>2019-04-14T12:03:51Z</time>
      </trkpt>
      <trkpt lat="44.43845" lon="1.36131">
        <ele>134</ele>
        <time>2019-04-14T12:03:52Z</time>
      </trkpt>
      <trkpt lat="44.43848" lon="1.36135">
        <ele>133</ele>
        <time>2019-04-14T12:03:53Z</time>
      </trkpt>
      <trkpt lat="44.43851" lon="1.36139">
        <ele>133</ele>
        <time>2019-04-14T12:03:54Z</time>
      </trkpt>
      <trkpt lat="44.43854" lon="1.36144">
        <ele>133</ele>
        <time>2019-04-14T12:03:55Z</time>
      </trkpt>
      <trkpt lat="44.43857" lon="1.36152">
        <ele>132</ele>
        <time>2019-04-14T12:03:56Z</time>
      </trkpt>
      <trkpt lat="44.4386" lon="1.36158">
        <ele>132</ele>
        <time>2019-04-14T12:03:57Z</time>
      </trkpt>
      <trkpt lat="44.43864" lon="1.36164">
        <ele>132</ele>
        <time>2019-04-14T12:03:58Z</time>
      </trkpt>
      <trkpt lat="44.43867" lon="1.3617">
        <ele>131</ele>
        <time>2019-04-14T12:03:59Z</time>
      </trkpt>
      <trkpt lat="44.43869" lon="1.36179">
        <ele>131</ele>
        <time>2019-04-14T12:04:00Z</time>
      </trkpt>
      <trkpt lat="44.43869" lon="1.36189">
        <ele>130</ele>
        <time>2019-04-14T12:04:01Z</time>
      </trkpt>
      <trkpt lat="44.43869" lon="1.36197">
        <ele>130</ele>
        <time>2019-04-14T12:04:02Z</time>
      </trkpt>
      <trkpt lat="44.43867" lon="1.36203">
        <ele>130</ele>
        <time>2019-04-14T12:04:03Z</time>
      </trkpt>
      <trkpt lat="44.43864" lon="1.36209">
        <ele>129</ele>
        <time>2019-04-14T12:04:04Z</time>
      </trkpt>
      <trkpt lat="44.43862" lon="1.36214">
        <ele>129</ele>
        <time>2019-04-14T12:04:05Z</time>
      </trkpt>
      <trkpt lat="44.43859" lon="1.36219">
        <ele>129</ele>
        <time>2019-04-14T12:04:06Z</time>
      </trkpt>
      <trkpt lat="44.43857" lon="1.36224">
        <ele>129</ele>
        <time>2019-04-14T12:04:07Z</time>
      </trkpt>
      <trkpt lat="44.43854" lon="1.36229">
        <ele>129</ele>
        <time>2019-04-14T12:04:08Z</time>
      </trkpt>
      <trkpt lat="44.43852" lon="1.36234">
        <ele>129</ele>
        <time>2019-04-14T12:04:09Z</time>
      </trkpt>
      <trkpt lat="44.43849" lon="1.3624">
        <ele>129</ele>
        <time>2019-04-14T12:04:10Z</time>
      </trkpt>
      <trkpt lat="44.43847" lon="1.36245">
        <ele>129</ele>
        <time>2019-04-14T12:04:11Z</time>
      </trkpt>
      <trkpt lat="44.43845" lon="1.36251">
        <ele>130</ele>
        <time>2019-04-14T12:04:12Z</time>
      </trkpt>
      <trkpt lat="44.43843" lon="1.36257">
        <ele>129</ele>
        <time>2019-04-14T12:04:13Z</time>
      </trkpt>
      <trkpt lat="44.43841" lon="1.36263">
        <ele>130</ele>
        <time>2019-04-14T12:04:14Z</time>
      </trkpt>
      <trkpt lat="44.43839" lon="1.36269">
        <ele>130</ele>
        <time>2019-04-14T12:04:15Z</time>
      </trkpt>
      <trkpt lat="44.43838" lon="1.36276">
        <ele>130</ele>
        <time>2019-04-14T12:04:16Z</time>
      </trkpt>
      <trkpt lat="44.43835" lon="1.36282">
        <ele>130</ele>
        <time>2019-04-14T12:04:17Z</time>
      </trkpt>
      <trkpt lat="44.43834" lon="1.3629">
        <ele>130</ele>
        <time>2019-04-14T12:04:18Z</time>
      </trkpt>
      <trkpt lat="44.43833" lon="1.36297">
        <ele>130</ele>
        <time>2019-04-14T12:04:19Z</time>
      </trkpt>
      <trkpt lat="44.43831" lon="1.36303">
        <ele>130</ele>
        <time>2019-04-14T12:04:20Z</time>
      </trkpt>
      <trkpt lat="44.43829" lon="1.3631">
        <ele>130</ele>
        <time>2019-04-14T12:04:21Z</time>
      </trkpt>
      <trkpt lat="44.43828" lon="1.36317">
        <ele>130</ele>
        <time>2019-04-14T12:04:22Z</time>
      </trkpt>
      <trkpt lat="44.43827" lon="1.36323">
        <ele>130</ele>
        <time>2019-04-14T12:04:23Z</time>
      </trkpt>
      <trkpt lat="44.43826" lon="1.3633">
        <ele>130</ele>
        <time>2019-04-14T12:04:24Z</time>
      </trkpt>
      <trkpt lat="44.43825" lon="1.36336">
        <ele>130</ele>
        <time>2019-04-14T12:04:25Z</time>
      </trkpt>
      <trkpt lat="44.43823" lon="1.36342">
        <ele>130</ele>
        <time>2019-04-14T12:04:26Z</time>
      </trkpt>
      <trkpt lat="44.43822" lon="1.36349">
        <ele>130</ele>
        <time>2019-04-14T12:04:27Z</time>
      </trkpt>
      <trkpt lat="44.43821" lon="1.36355">
        <ele>130</ele>
        <time>2019-04-14T12:04:28Z</time>
      </trkpt>
      <trkpt lat="44.4382" lon="1.36363">
        <ele>130</ele>
        <time>2019-04-14T12:04:29Z</time>
      </trkpt>
      <trkpt lat="44.4382" lon="1.36368">
        <ele>130</ele>
        <time>2019-04-14T12:04:30Z</time>
      </trkpt>
      <trkpt lat="44.43819" lon="1.36375">
        <ele>131</ele>
        <time>2019-04-14T12:04:31Z</time>
      </trkpt>
      <trkpt lat="44.43818" lon="1.3638">
        <ele>131</ele>
        <time>2019-04-14T12:04:32Z</time>
      </trkpt>
      <trkpt lat="44.43817" lon="1.36386">
        <ele>131</ele>
        <time>2019-04-14T12:04:33Z</time>
      </trkpt>
      <trkpt lat="44.43816" lon="1.36392">
        <ele>131</ele>
        <time>2019-04-14T12:04:34Z</time>
      </trkpt>
      <trkpt lat="44.43816" lon="1.36397">
        <ele>131</ele>
        <time>2019-04-14T12:04:35Z</time>
      </trkpt>
      <trkpt lat="44.43815" lon="1.36401">
        <ele>131</ele>
        <time>2019-04-14T12:04:36Z</time>
      </trkpt>
      <trkpt lat="44.43814" lon="1.36406">
        <ele>132</ele>
        <time>2019-04-14T12:04:37Z</time>
      </trkpt>
      <trkpt lat="44.43812" lon="1.36411">
        <ele>132</ele>
        <time>2019-04-14T12:04:38Z</time>
      </trkpt>
      <trkpt lat="44.43812" lon="1.36415">
        <ele>132</ele>
        <time>2019-04-14T12:04:39Z</time>
      </trkpt>
      <trkpt lat="44.43811" lon="1.3642">
        <ele>132</ele>
        <time>2019-04-14T12:04:40Z</time>
      </trkpt>
      <trkpt lat="44.4381" lon="1.36425">
        <ele>132</ele>
        <time>2019-04-14T12:04:41Z</time>
      </trkpt>
      <trkpt lat="44.43808" lon="1.36432">
        <ele>132</ele>
        <time>2019-04-14T12:04:42Z</time>
      </trkpt>
      <trkpt lat="44.43807" lon="1.36437">
        <ele>132</ele>
        <time>2019-04-14T12:04:43Z</time>
      </trkpt>
      <trkpt lat="44.43806" lon="1.36443">
        <ele>133</ele>
        <time>2019-04-14T12:04:44Z</time>
      </trkpt>
      <trkpt lat="44.43806" lon="1.36448">
        <ele>133</ele>
        <time>2019-04-14T12:04:45Z</time>
      </trkpt>
      <trkpt lat="44.43804" lon="1.36455">
        <ele>133</ele>
        <time>2019-04-14T12:04:46Z</time>
      </trkpt>
      <trkpt lat="44.43803" lon="1.36458">
        <ele>133</ele>
        <time>2019-04-14T12:04:47Z</time>
      </trkpt>
      <trkpt lat="44.43801" lon="1.36464">
        <ele>133</ele>
        <time>2019-04-14T12:04:48Z</time>
      </trkpt>
      <trkpt lat="44.438" lon="1.36471">
        <ele>133</ele>
        <time>2019-04-14T12:04:49Z</time>
      </trkpt>
      <trkpt lat="44.43799" lon="1.36477">
        <ele>133</ele>
        <time>2019-04-14T12:04:50Z</time>
      </trkpt>
      <trkpt lat="44.43799" lon="1.36482">
        <ele>133</ele>
        <time>2019-04-14T12:04:51Z</time>
      </trkpt>
      <trkpt lat="44.43798" lon="1.36486">
        <ele>133</ele>
        <time>2019-04-14T12:04:52Z</time>
      </trkpt>
      <trkpt lat="44.43797" lon="1.36491">
        <ele>133</ele>
        <time>2019-04-14T12:04:53Z</time>
      </trkpt>
      <trkpt lat="44.43795" lon="1.36495">
        <ele>133</ele>
        <time>2019-04-14T12:04:54Z</time>
      </trkpt>
      <trkpt lat="44.43792" lon="1.36498">
        <ele>133</ele>
        <time>2019-04-14T12:04:55Z</time>
      </trkpt>
      <trkpt lat="44.43789" lon="1.36502">
        <ele>133</ele>
        <time>2019-04-14T12:04:56Z</time>
      </trkpt>
      <trkpt lat="44.43787" lon="1.36507">
        <ele>133</ele>
        <time>2019-04-14T12:04:57Z</time>
      </trkpt>
      <trkpt lat="44.43783" lon="1.36511">
        <ele>134</ele>
        <time>2019-04-14T12:04:58Z</time>
      </trkpt>
      <trkpt lat="44.4378" lon="1.36516">
        <ele>134</ele>
        <time>2019-04-14T12:04:59Z</time>
      </trkpt>
      <trkpt lat="44.43775" lon="1.36521">
        <ele>134</ele>
        <time>2019-04-14T12:05:00Z</time>
      </trkpt>
      <trkpt lat="44.43772" lon="1.36526">
        <ele>134</ele>
        <time>2019-04-14T12:05:01Z</time>
      </trkpt>
      <trkpt lat="44.43769" lon="1.36529">
        <ele>134</ele>
        <time>2019-04-14T12:05:02Z</time>
      </trkpt>
      <trkpt lat="44.43766" lon="1.36532">
        <ele>135</ele>
        <time>2019-04-14T12:05:03Z</time>
      </trkpt>
      <trkpt lat="44.43764" lon="1.36533">
        <ele>135</ele>
        <time>2019-04-14T12:05:04Z</time>
      </trkpt>
      <trkpt lat="44.43762" lon="1.36535">
        <ele>135</ele>
        <time>2019-04-14T12:05:05Z</time>
      </trkpt>
      <trkpt lat="44.43758" lon="1.36536">
        <ele>135</ele>
        <time>2019-04-14T12:05:06Z</time>
      </trkpt>
      <trkpt lat="44.43755" lon="1.36536">
        <ele>135</ele>
        <time>2019-04-14T12:05:07Z</time>
      </trkpt>
      <trkpt lat="44.43752" lon="1.36535">
        <ele>135</ele>
        <time>2019-04-14T12:05:08Z</time>
      </trkpt>
      <trkpt lat="44.43749" lon="1.36534">
        <ele>135</ele>
        <time>2019-04-14T12:05:09Z</time>
      </trkpt>
      <trkpt lat="44.43747" lon="1.36534">
        <ele>136</ele>
        <time>2019-04-14T12:05:10Z</time>
      </trkpt>
      <trkpt lat="44.43744" lon="1.36533">
        <ele>136</ele>
        <time>2019-04-14T12:05:11Z</time>
      </trkpt>
      <trkpt lat="44.43742" lon="1.36532">
        <ele>136</ele>
        <time>2019-04-14T12:05:12Z</time>
      </trkpt>
      <trkpt lat="44.4374" lon="1.36531">
        <ele>136</ele>
        <time>2019-04-14T12:05:13Z</time>
      </trkpt>
      <trkpt lat="44.43739" lon="1.3653">
        <ele>137</ele>
        <time>2019-04-14T12:05:14Z</time>
      </trkpt>
      <trkpt lat="44.43737" lon="1.36529">
        <ele>137</ele>
        <time>2019-04-14T12:05:15Z</time>
      </trkpt>
      <trkpt lat="44.43735" lon="1.36528">
        <ele>137</ele>
        <time>2019-04-14T12:05:16Z</time>
      </trkpt>
      <trkpt lat="44.43733" lon="1.36527">
        <ele>137</ele>
        <time>2019-04-14T12:05:17Z</time>
      </trkpt>
      <trkpt lat="44.43731" lon="1.36527">
        <ele>138</ele>
        <time>2019-04-14T12:05:18Z</time>
      </trkpt>
      <trkpt lat="44.43729" lon="1.36526">
        <ele>138</ele>
        <time>2019-04-14T12:05:19Z</time>
      </trkpt>
      <trkpt lat="44.43727" lon="1.36526">
        <ele>138</ele>
        <time>2019-04-14T12:05:20Z</time>
      </trkpt>
      <trkpt lat="44.43725" lon="1.36525">
        <ele>138</ele>
        <time>2019-04-14T12:05:21Z</time>
      </trkpt>
      <trkpt lat="44.43724" lon="1.36524">
        <ele>138</ele>
        <time>2019-04-14T12:05:22Z</time>
      </trkpt>
      <trkpt lat="44.43722" lon="1.36522">
        <ele>139</ele>
        <time>2019-04-14T12:05:23Z</time>
      </trkpt>
      <trkpt lat="44.4372" lon="1.36521">
        <ele>139</ele>
        <time>2019-04-14T12:05:24Z</time>
      </trkpt>
      <trkpt lat="44.43719" lon="1.3652">
        <ele>139</ele>
        <time>2019-04-14T12:05:25Z</time>
      </trkpt>
      <trkpt lat="44.43717" lon="1.36519">
        <ele>139</ele>
        <time>2019-04-14T12:05:26Z</time>
      </trkpt>
      <trkpt lat="44.43715" lon="1.36518">
        <ele>140</ele>
        <time>2019-04-14T12:05:27Z</time>
      </trkpt>
      <trkpt lat="44.43713" lon="1.36516">
        <ele>140</ele>
        <time>2019-04-14T12:05:28Z</time>
      </trkpt>
      <trkpt lat="44.43711" lon="1.36515">
        <ele>140</ele>
        <time>2019-04-14T12:05:29Z</time>
      </trkpt>
      <trkpt lat="44.43709" lon="1.36513">
        <ele>140</ele>
        <time>2019-04-14T12:05:30Z</time>
      </trkpt>
      <trkpt lat="44.43707" lon="1.36512">
        <ele>140</ele>
        <time>2019-04-14T12:05:31Z</time>
      </trkpt>
      <trkpt lat="44.43705" lon="1.36512">
        <ele>140</ele>
        <time>2019-04-14T12:05:32Z</time>
      </trkpt>
      <trkpt lat="44.43703" lon="1.36511">
        <ele>141</ele>
        <time>2019-04-14T12:05:33Z</time>
      </trkpt>
      <trkpt lat="44.43702" lon="1.3651">
        <ele>141</ele>
        <time>2019-04-14T12:05:34Z</time>
      </trkpt>
      <trkpt lat="44.437" lon="1.3651">
        <ele>141</ele>
        <time>2019-04-14T12:05:35Z</time>
      </trkpt>
      <trkpt lat="44.43697" lon="1.3651">
        <ele>141</ele>
        <time>2019-04-14T12:05:36Z</time>
      </trkpt>
      <trkpt lat="44.43695" lon="1.36509">
        <ele>141</ele>
        <time>2019-04-14T12:05:37Z</time>
      </trkpt>
      <trkpt lat="44.43693" lon="1.3651">
        <ele>141</ele>
        <time>2019-04-14T12:05:38Z</time>
      </trkpt>
      <trkpt lat="44.43691" lon="1.3651">
        <ele>140</ele>
        <time>2019-04-14T12:05:39Z</time>
      </trkpt>
      <trkpt lat="44.43688" lon="1.36511">
        <ele>140</ele>
        <time>2019-04-14T12:05:40Z</time>
      </trkpt>
      <trkpt lat="44.43685" lon="1.36512">
        <ele>140</ele>
        <time>2019-04-14T12:05:41Z</time>
      </trkpt>
      <trkpt lat="44.43681" lon="1.36516">
        <ele>139</ele>
        <time>2019-04-14T12:05:42Z</time>
      </trkpt>
      <trkpt lat="44.43678" lon="1.36521">
        <ele>139</ele>
        <time>2019-04-14T12:05:43Z</time>
      </trkpt>
      <trkpt lat="44.43676" lon="1.36526">
        <ele>139</ele>
        <time>2019-04-14T12:05:44Z</time>
      </trkpt>
      <trkpt lat="44.43676" lon="1.36529">
        <ele>139</ele>
        <time>2019-04-14T12:05:45Z</time>
      </trkpt>
      <trkpt lat="44.43675" lon="1.36531">
        <ele>139</ele>
        <time>2019-04-14T12:05:46Z</time>
      </trkpt>
      <trkpt lat="44.43674" lon="1.36534">
        <ele>139</ele>
        <time>2019-04-14T12:05:47Z</time>
      </trkpt>
      <trkpt lat="44.43672" lon="1.36538">
        <ele>139</ele>
        <time>2019-04-14T12:05:48Z</time>
      </trkpt>
      <trkpt lat="44.43672" lon="1.36541">
        <ele>139</ele>
        <time>2019-04-14T12:05:49Z</time>
      </trkpt>
      <trkpt lat="44.43672" lon="1.36544">
        <ele>139</ele>
        <time>2019-04-14T12:05:50Z</time>
      </trkpt>
      <trkpt lat="44.43672" lon="1.36546">
        <ele>139</ele>
        <time>2019-04-14T12:05:51Z</time>
      </trkpt>
      <trkpt lat="44.43673" lon="1.36548">
        <ele>139</ele>
        <time>2019-04-14T12:05:52Z</time>
      </trkpt>
      <trkpt lat="44.43674" lon="1.3655">
        <ele>139</ele>
        <time>2019-04-14T12:05:53Z</time>
      </trkpt>
      <trkpt lat="44.43675" lon="1.36552">
        <ele>139</ele>
        <time>2019-04-14T12:05:54Z</time>
      </trkpt>
      <trkpt lat="44.43675" lon="1.36556">
        <ele>139</ele>
        <time>2019-04-14T12:05:55Z</time>
      </trkpt>
      <trkpt lat="44.43676" lon="1.36559">
        <ele>139</ele>
        <time>2019-04-14T12:05:56Z</time>
      </trkpt>
      <trkpt lat="44.43677" lon="1.36562">
        <ele>139</ele>
        <time>2019-04-14T12:05:57Z</time>
      </trkpt>
      <trkpt lat="44.43678" lon="1.36565">
        <ele>138</ele>
        <time>2019-04-14T12:05:58Z</time>
      </trkpt>
      <trkpt lat="44.43679" lon="1.36567">
        <ele>138</ele>
        <time>2019-04-14T12:05:59Z</time>
      </trkpt>
      <trkpt lat="44.4368" lon="1.3657">
        <ele>138</ele>
        <time>2019-04-14T12:06:00Z</time>
      </trkpt>
      <trkpt lat="44.4368" lon="1.36574">
        <ele>138</ele>
        <time>2019-04-14T12:06:01Z</time>
      </trkpt>
      <trkpt lat="44.4368" lon="1.36579">
        <ele>138</ele>
        <time>2019-04-14T12:06:02Z</time>
      </trkpt>
      <trkpt lat="44.4368" lon="1.36583">
        <ele>138</ele>
        <time>2019-04-14T12:06:03Z</time>
      </trkpt>
      <trkpt lat="44.4368" lon="1.36588">
        <ele>138</ele>
        <time>2019-04-14T12:06:04Z</time>
      </trkpt>
      <trkpt lat="44.43678" lon="1.36593">
        <ele>137</ele>
        <time>2019-04-14T12:06:05Z</time>
      </trkpt>
      <trkpt lat="44.43676" lon="1.36599">
        <ele>137</ele>
        <time>2019-04-14T12:06:06Z</time>
      </trkpt>
      <trkpt lat="44.43673" lon="1.36603">
        <ele>137</ele>
        <time>2019-04-14T12:06:07Z</time>
      </trkpt>
      <trkpt lat="44.43671" lon="1.36608">
        <ele>137</ele>
        <time>2019-04-14T12:06:08Z</time>
      </trkpt>
      <trkpt lat="44.43668" lon="1.36613">
        <ele>137</ele>
        <time>2019-04-14T12:06:09Z</time>
      </trkpt>
      <trkpt lat="44.43665" lon="1.36616">
        <ele>137</ele>
        <time>2019-04-14T12:06:10Z</time>
      </trkpt>
      <trkpt lat="44.43663" lon="1.3662">
        <ele>137</ele>
        <time>2019-04-14T12:06:11Z</time>
      </trkpt>
      <trkpt lat="44.43661" lon="1.36624">
        <ele>137</ele>
        <time>2019-04-14T12:06:12Z</time>
      </trkpt>
      <trkpt lat="44.43658" lon="1.36628">
        <ele>137</ele>
        <time>2019-04-14T12:06:13Z</time>
      </trkpt>
      <trkpt lat="44.43655" lon="1.36632">
        <ele>137</ele>
        <time>2019-04-14T12:06:14Z</time>
      </trkpt>
      <trkpt lat="44.43653" lon="1.36636">
        <ele>136</ele>
        <time>2019-04-14T12:06:15Z</time>
      </trkpt>
      <trkpt lat="44.43652" lon="1.36639">
        <ele>136</ele>
        <time>2019-04-14T12:06:16Z</time>
      </trkpt>
      <trkpt lat="44.4365" lon="1.36642">
        <ele>136</ele>
        <time>2019-04-14T12:06:17Z</time>
      </trkpt>
      <trkpt lat="44.43648" lon="1.36646">
        <ele>136</ele>
        <time>2019-04-14T12:06:18Z</time>
      </trkpt>
      <trkpt lat="44.43645" lon="1.3665">
        <ele>136</ele>
        <time>2019-04-14T12:06:19Z</time>
      </trkpt>
      <trkpt lat="44.43643" lon="1.36654">
        <ele>136</ele>
        <time>2019-04-14T12:06:20Z</time>
      </trkpt>
      <trkpt lat="44.43641" lon="1.36657">
        <ele>136</ele>
        <time>2019-04-14T12:06:21Z</time>
      </trkpt>
      <trkpt lat="44.43638" lon="1.36661">
        <ele>136</ele>
        <time>2019-04-14T12:06:22Z</time>
      </trkpt>
      <trkpt lat="44.43636" lon="1.36664">
        <ele>136</ele>
        <time>2019-04-14T12:06:23Z</time>
      </trkpt>
      <trkpt lat="44.43635" lon="1.36667">
        <ele>136</ele>
        <time>2019-04-14T12:06:24Z</time>
      </trkpt>
      <trkpt lat="44.43634" lon="1.3667">
        <ele>136</ele>
        <time>2019-04-14T12:06:25Z</time>
      </trkpt>
      <trkpt lat="44.43633" lon="1.36672">
        <ele>136</ele>
        <time>2019-04-14T12:06:26Z</time>
      </trkpt>
      <trkpt lat="44.43633" lon="1.36675">
        <ele>136</ele>
        <time>2019-04-14T12:06:27Z</time>
      </trkpt>
      <trkpt lat="44.43632" lon="1.36677">
        <ele>137</ele>
        <time>2019-04-14T12:06:28Z</time>
      </trkpt>
      <trkpt lat="44.43631" lon="1.36679">
        <ele>137</ele>
        <time>2019-04-14T12:06:29Z</time>
      </trkpt>
      <trkpt lat="44.4363" lon="1.36681">
        <ele>137</ele>
        <time>2019-04-14T12:06:30Z</time>
      </trkpt>
      <trkpt lat="44.43629" lon="1.36683">
        <ele>137</ele>
        <time>2019-04-14T12:06:31Z</time>
      </trkpt>
      <trkpt lat="44.43627" lon="1.36686">
        <ele>137</ele>
        <time>2019-04-14T12:06:32Z</time>
      </trkpt>
      <trkpt lat="44.43626" lon="1.36688">
        <ele>137</ele>
        <time>2019-04-14T12:06:33Z</time>
      </trkpt>
      <trkpt lat="44.43625" lon="1.3669">
        <ele>137</ele>
        <time>2019-04-14T12:06:34Z</time>
      </trkpt>
      <trkpt lat="44.43625" lon="1.36693">
        <ele>137</ele>
        <time>2019-04-14T12:06:35Z</time>
      </trkpt>
      <trkpt lat="44.43624" lon="1.36695">
        <ele>137</ele>
        <time>2019-04-14T12:06:36Z</time>
      </trkpt>
      <trkpt lat="44.43623" lon="1.36697">
        <ele>137</ele>
        <time>2019-04-14T12:06:37Z</time>
      </trkpt>
      <trkpt lat="44.43622" lon="1.367">
        <ele>137</ele>
        <time>2019-04-14T12:06:38Z</time>
      </trkpt>
      <trkpt lat="44.43622" lon="1.36703">
        <ele>137</ele>
        <time>2019-04-14T12:06:39Z</time>
      </trkpt>
      <trkpt lat="44.43621" lon="1.36705">
        <ele>137</ele>
        <time>2019-04-14T12:06:40Z</time>
      </trkpt>
      <trkpt lat="44.43621" lon="1.36708">
        <ele>137</ele>
        <time>2019-04-14T12:06:41Z</time>
      </trkpt>
      <trkpt lat="44.4362" lon="1.36711">
        <ele>137</ele>
        <time>2019-04-14T12:06:42Z</time>
      </trkpt>
      <trkpt lat="44.43622" lon="1.36713">
        <ele>137</ele>
        <time>2019-04-14T12:06:43Z</time>
      </trkpt>
      <trkpt lat="44.43622" lon="1.36716">
        <ele>138</ele>
        <time>2019-04-14T12:06:44Z</time>
      </trkpt>
      <trkpt lat="44.43621" lon="1.36718">
        <ele>138</ele>
        <time>2019-04-14T12:06:45Z</time>
      </trkpt>
      <trkpt lat="44.4362" lon="1.36721">
        <ele>138</ele>
        <time>2019-04-14T12:06:46Z</time>
      </trkpt>
      <trkpt lat="44.43619" lon="1.36724">
        <ele>138</ele>
        <time>2019-04-14T12:06:47Z</time>
      </trkpt>
      <trkpt lat="44.43618" lon="1.36727">
        <ele>138</ele>
        <time>2019-04-14T12:06:48Z</time>
      </trkpt>
      <trkpt lat="44.43617" lon="1.36729">
        <ele>138</ele>
        <time>2019-04-14T12:06:49Z</time>
      </trkpt>
      <trkpt lat="44.43616" lon="1.36732">
        <ele>138</ele>
        <time>2019-04-14T12:06:50Z</time>
      </trkpt>
      <trkpt lat="44.43615" lon="1.36734">
        <ele>138</ele>
        <time>2019-04-14T12:06:51Z</time>
      </trkpt>
      <trkpt lat="44.43615" lon="1.36736">
        <ele>138</ele>
        <time>2019-04-14T12:06:52Z</time>
      </trkpt>
      <trkpt lat="44.43614" lon="1.36739">
        <ele>138</ele>
        <time>2019-04-14T12:06:53Z</time>
      </trkpt>
      <trkpt lat="44.43614" lon="1.36741">
        <ele>138</ele>
        <time>2019-04-14T12:06:54Z</time>
      </trkpt>
      <trkpt lat="44.43613" lon="1.36743">
        <ele>138</ele>
        <time>2019-04-14T12:06:55Z</time>
      </trkpt>
      <trkpt lat="44.43613" lon="1.36745">
        <ele>138</ele>
        <time>2019-04-14T12:06:56Z</time>
      </trkpt>
      <trkpt lat="44.43612" lon="1.36747">
        <ele>139</ele>
        <time>2019-04-14T12:06:57Z</time>
      </trkpt>
      <trkpt lat="44.43611" lon="1.3675">
        <ele>139</ele>
        <time>2019-04-14T12:06:58Z</time>
      </trkpt>
      <trkpt lat="44.43611" lon="1.36752">
        <ele>139</ele>
        <time>2019-04-14T12:06:59Z</time>
      </trkpt>
      <trkpt lat="44.4361" lon="1.36755">
        <ele>139</ele>
        <time>2019-04-14T12:07:00Z</time>
      </trkpt>
      <trkpt lat="44.4361" lon="1.36758">
        <ele>139</ele>
        <time>2019-04-14T12:07:01Z</time>
      </trkpt>
      <trkpt lat="44.43609" lon="1.3676">
        <ele>139</ele>
        <time>2019-04-14T12:07:02Z</time>
      </trkpt>
      <trkpt lat="44.43609" lon="1.36763">
        <ele>139</ele>
        <time>2019-04-14T12:07:03Z</time>
      </trkpt>
      <trkpt lat="44.43609" lon="1.36765">
        <ele>139</ele>
        <time>2019-04-14T12:07:04Z</time>
      </trkpt>
      <trkpt lat="44.43608" lon="1.36768">
        <ele>139</ele>
        <time>2019-04-14T12:07:05Z</time>
      </trkpt>
      <trkpt lat="44.43608" lon="1.36769">
        <ele>139</ele>
        <time>2019-04-14T12:07:06Z</time>
      </trkpt>
      <trkpt lat="44.43608" lon="1.36771">
        <ele>139</ele>
        <time>2019-04-14T12:07:07Z</time>
      </trkpt>
      <trkpt lat="44.43608" lon="1.36773">
        <ele>139</ele>
        <time>2019-04-14T12:07:08Z</time>
      </trkpt>
      <trkpt lat="44.43608" lon="1.36776">
        <ele>139</ele>
        <time>2019-04-14T12:07:09Z</time>
      </trkpt>
      <trkpt lat="44.43608" lon="1.36778">
        <ele>139</ele>
        <time>2019-04-14T12:07:10Z</time>
      </trkpt>
      <trkpt lat="44.43608" lon="1.36781">
        <ele>139</ele>
        <time>2019-04-14T12:07:11Z</time>
      </trkpt>
      <trkpt lat="44.43607" lon="1.36783">
        <ele>139</ele>
        <time>2019-04-14T12:07:12Z</time>
      </trkpt>
      <trkpt lat="44.43607" lon="1.36785">
        <ele>139</ele>
        <time>2019-04-14T12:07:13Z</time>
      </trkpt>
      <trkpt lat="44.43607" lon="1.36788">
        <ele>139</ele>
        <time>2019-04-14T12:07:14Z</time>
      </trkpt>
      <trkpt lat="44.43607" lon="1.3679">
        <ele>139</ele>
        <time>2019-04-14T12:07:15Z</time>
      </trkpt>
      <trkpt lat="44.43607" lon="1.36793">
        <ele>139</ele>
        <time>2019-04-14T12:07:16Z</time>
      </trkpt>
      <trkpt lat="44.43608" lon="1.36796">
        <ele>139</ele>
        <time>2019-04-14T12:07:17Z</time>
      </trkpt>
      <trkpt lat="44.43608" lon="1.36799">
        <ele>139</ele>
        <time>2019-04-14T12:07:18Z</time>
      </trkpt>
      <trkpt lat="44.43608" lon="1.36803">
        <ele>139</ele>
        <time>2019-04-14T12:07:19Z</time>
      </trkpt>
      <trkpt lat="44.43608" lon="1.36805">
        <ele>138</ele>
        <time>2019-04-14T12:07:20Z</time>
      </trkpt>
      <trkpt lat="44.43607" lon="1.36808">
        <ele>138</ele>
        <time>2019-04-14T12:07:21Z</time>
      </trkpt>
      <trkpt lat="44.43607" lon="1.36812">
        <ele>138</ele>
        <time>2019-04-14T12:07:22Z</time>
      </trkpt>
      <trkpt lat="44.43607" lon="1.36814">
        <ele>138</ele>
        <time>2019-04-14T12:07:23Z</time>
      </trkpt>
      <trkpt lat="44.43608" lon="1.36816">
        <ele>138</ele>
        <time>2019-04-14T12:07:24Z</time>
      </trkpt>
      <trkpt lat="44.43608" lon="1.3682">
        <ele>138</ele>
        <time>2019-04-14T12:07:25Z</time>
      </trkpt>
      <trkpt lat="44.43608" lon="1.36823">
        <ele>138</ele>
        <time>2019-04-14T12:07:26Z</time>
      </trkpt>
      <trkpt lat="44.43608" lon="1.36826">
        <ele>138</ele>
        <time>2019-04-14T12:07:27Z</time>
      </trkpt>
      <trkpt lat="44.43608" lon="1.36829">
        <ele>138</ele>
        <time>2019-04-14T12:07:28Z</time>
      </trkpt>
      <trkpt lat="44.43608" lon="1.36833">
        <ele>138</ele>
        <time>2019-04-14T12:07:29Z</time>
      </trkpt>
      <trkpt lat="44.43609" lon="1.36836">
        <ele>138</ele>
        <time>2019-04-14T12:07:30Z</time>
      </trkpt>
      <trkpt lat="44.43609" lon="1.3684">
        <ele>138</ele>
        <time>2019-04-14T12:07:31Z</time>
      </trkpt>
      <trkpt lat="44.43609" lon="1.36843">
        <ele>138</ele>
        <time>2019-04-14T12:07:32Z</time>
      </trkpt>
      <trkpt lat="44.43609" lon="1.36846">
        <ele>138</ele>
        <time>2019-04-14T12:07:33Z</time>
      </trkpt>
      <trkpt lat="44.43609" lon="1.36849">
        <ele>138</ele>
        <time>2019-04-14T12:07:34Z</time>
      </trkpt>
      <trkpt lat="44.4361" lon="1.36852">
        <ele>138</ele>
        <time>2019-04-14T12:07:35Z</time>
      </trkpt>
      <trkpt lat="44.43611" lon="1.36854">
        <ele>138</ele>
        <time>2019-04-14T12:07:36Z</time>
      </trkpt>
      <trkpt lat="44.43612" lon="1.36857">
        <ele>138</ele>
        <time>2019-04-14T12:07:37Z</time>
      </trkpt>
      <trkpt lat="44.43612" lon="1.36859">
        <ele>138</ele>
        <time>2019-04-14T12:07:38Z</time>
      </trkpt>
      <trkpt lat="44.43613" lon="1.36862">
        <ele>138</ele>
        <time>2019-04-14T12:07:39Z</time>
      </trkpt>
      <trkpt lat="44.43614" lon="1.36864">
        <ele>138</ele>
        <time>2019-04-14T12:07:40Z</time>
      </trkpt>
      <trkpt lat="44.43614" lon="1.36867">
        <ele>138</ele>
        <time>2019-04-14T12:07:41Z</time>
      </trkpt>
      <trkpt lat="44.43615" lon="1.36869">
        <ele>138</ele>
        <time>2019-04-14T12:07:42Z</time>
      </trkpt>
      <trkpt lat="44.43616" lon="1.36872">
        <ele>138</ele>
        <time>2019-04-14T12:07:43Z</time>
      </trkpt>
      <trkpt lat="44.43616" lon="1.36874">
        <ele>138</ele>
        <time>2019-04-14T12:07:44Z</time>
      </trkpt>
      <trkpt lat="44.43616" lon="1.36877">
        <ele>138</ele>
        <time>2019-04-14T12:07:45Z</time>
      </trkpt>
      <trkpt lat="44.43617" lon="1.3688">
        <ele>138</ele>
        <time>2019-04-14T12:07:46Z</time>
      </trkpt>
      <trkpt lat="44.43617" lon="1.36882">
        <ele>138</ele>
        <time>2019-04-14T12:07:47Z</time>
      </trkpt>
      <trkpt lat="44.43618" lon="1.36884">
        <ele>138</ele>
        <time>2019-04-14T12:07:48Z</time>
      </trkpt>
      <trkpt lat="44.43618" lon="1.36887">
        <ele>138</ele>
        <time>2019-04-14T12:07:49Z</time>
      </trkpt>
      <trkpt lat="44.43619" lon="1.36889">
        <ele>138</ele>
        <time>2019-04-14T12:07:50Z</time>
      </trkpt>
      <trkpt lat="44.43621" lon="1.36892">
        <ele>138</ele>
        <time>2019-04-14T12:07:51Z</time>
      </trkpt>
      <trkpt lat="44.43621" lon="1.36894">
        <ele>138</ele>
        <time>2019-04-14T12:07:52Z</time>
      </trkpt>
      <trkpt lat="44.43622" lon="1.36896">
        <ele>138</ele>
        <time>2019-04-14T12:07:53Z</time>
      </trkpt>
      <trkpt lat="44.43623" lon="1.36899">
        <ele>138</ele>
        <time>2019-04-14T12:07:54Z</time>
      </trkpt>
      <trkpt lat="44.43623" lon="1.36901">
        <ele>138</ele>
        <time>2019-04-14T12:07:55Z</time>
      </trkpt>
      <trkpt lat="44.43624" lon="1.36904">
        <ele>138</ele>
        <time>2019-04-14T12:07:56Z</time>
      </trkpt>
      <trkpt lat="44.43625" lon="1.36906">
        <ele>138</ele>
        <time>2019-04-14T12:07:57Z</time>
      </trkpt>
      <trkpt lat="44.43625" lon="1.36909">
        <ele>138</ele>
        <time>2019-04-14T12:07:58Z</time>
      </trkpt>
      <trkpt lat="44.43626" lon="1.36911">
        <ele>138</ele>
        <time>2019-04-14T12:07:59Z</time>
      </trkpt>
      <trkpt lat="44.43627" lon="1.36913">
        <ele>138</ele>
        <time>2019-04-14T12:08:00Z</time>
      </trkpt>
      <trkpt lat="44.43628" lon="1.36915">
        <ele>138</ele>
        <time>2019-04-14T12:08:01Z</time>
      </trkpt>
      <trkpt lat="44.43629" lon="1.36918">
        <ele>138</ele>
        <time>2019-04-14T12:08:02Z</time>
      </trkpt>
      <trkpt lat="44.4363" lon="1.3692">
        <ele>138</ele>
        <time>2019-04-14T12:08:03Z</time>
      </trkpt>
      <trkpt lat="44.43631" lon="1.36922">
        <ele>138</ele>
        <time>2019-04-14T12:08:04Z</time>
      </trkpt>
      <trkpt lat="44.43631" lon="1.36924">
        <ele>138</ele>
        <time>2019-04-14T12:08:05Z</time>
      </trkpt>
      <trkpt lat="44.43632" lon="1.36926">
        <ele>138</ele>
        <time>2019-04-14T12:08:06Z</time>
      </trkpt>
      <trkpt lat="44.43632" lon="1.36928">
        <ele>138</ele>
        <time>2019-04-14T12:08:07Z</time>
      </trkpt>
      <trkpt lat="44.43633" lon="1.3693">
        <ele>138</ele>
        <time>2019-04-14T12:08:08Z</time>
      </trkpt>
      <trkpt lat="44.43633" lon="1.36931">
        <ele>138</ele>
        <time>2019-04-14T12:08:09Z</time>
      </trkpt>
      <trkpt lat="44.43634" lon="1.36932">
        <ele>138</ele>
        <time>2019-04-14T12:08:10Z</time>
      </trkpt>
      <trkpt lat="44.43634" lon="1.36933">
        <ele>138</ele>
        <time>2019-04-14T12:08:11Z</time>
      </trkpt>
      <trkpt lat="44.43635" lon="1.36934">
        <ele>138</ele>
        <time>2019-04-14T12:08:12Z</time>
      </trkpt>
      <trkpt lat="44.43635" lon="1.36935">
        <ele>138</ele>
        <time>2019-04-14T12:08:13Z</time>
      </trkpt>
      <trkpt lat="44.43636" lon="1.36937">
        <ele>138</ele>
        <time>2019-04-14T12:08:14Z</time>
      </trkpt>
      <trkpt lat="44.43636" lon="1.36938">
        <ele>139</ele>
        <time>2019-04-14T12:08:15Z</time>
      </trkpt>
      <trkpt lat="44.43638" lon="1.3694">
        <ele>139</ele>
        <time>2019-04-14T12:08:16Z</time>
      </trkpt>
      <trkpt lat="44.43639" lon="1.36941">
        <ele>139</ele>
        <time>2019-04-14T12:08:17Z</time>
      </trkpt>
      <trkpt lat="44.4364" lon="1.36943">
        <ele>139</ele>
        <time>2019-04-14T12:08:18Z</time>
      </trkpt>
      <trkpt lat="44.4364" lon="1.36945">
        <ele>139</ele>
        <time>2019-04-14T12:08:19Z</time>
      </trkpt>
      <trkpt lat="44.4364" lon="1.36947">
        <ele>139</ele>
        <time>2019-04-14T12:08:20Z</time>
      </trkpt>
      <trkpt lat="44.4364" lon="1.36949">
        <ele>139</ele>
        <time>2019-04-14T12:08:21Z</time>
      </trkpt>
      <trkpt lat="44.43641" lon="1.3695">
        <ele>139</ele>
        <time>2019-04-14T12:08:22Z</time>
      </trkpt>
      <trkpt lat="44.43642" lon="1.36951">
        <ele>139</ele>
        <time>2019-04-14T12:08:23Z</time>
      </trkpt>
      <trkpt lat="44.43643" lon="1.36953">
        <ele>139</ele>
        <time>2019-04-14T12:08:24Z</time>
      </trkpt>
      <trkpt lat="44.43643" lon="1.36955">
        <ele>139</ele>
        <time>2019-04-14T12:08:25Z</time>
      </trkpt>
      <trkpt lat="44.43643" lon="1.36957">
        <ele>139</ele>
        <time>2019-04-14T12:08:26Z</time>
      </trkpt>
      <trkpt lat="44.43644" lon="1.36959">
        <ele>139</ele>
        <time>2019-04-14T12:08:27Z</time>
      </trkpt>
      <trkpt lat="44.43645" lon="1.36961">
        <ele>139</ele>
        <time>2019-04-14T12:08:28Z</time>
      </trkpt>
      <trkpt lat="44.43646" lon="1.36963">
        <ele>139</ele>
        <time>2019-04-14T12:08:29Z</time>
      </trkpt>
      <trkpt lat="44.43646" lon="1.36965">
        <ele>139</ele>
        <time>2019-04-14T12:08:30Z</time>
      </trkpt>
      <trkpt lat="44.43647" lon="1.36967">
        <ele>139</ele>
        <time>2019-04-14T12:08:31Z</time>
      </trkpt>
      <trkpt lat="44.43647" lon="1.3697">
        <ele>139</ele>
        <time>2019-04-14T12:08:32Z</time>
      </trkpt>
      <trkpt lat="44.43648" lon="1.36972">
        <ele>139</ele>
        <time>2019-04-14T12:08:33Z</time>
      </trkpt>
      <trkpt lat="44.43648" lon="1.36974">
        <ele>139</ele>
        <time>2019-04-14T12:08:34Z</time>
      </trkpt>
      <trkpt lat="44.43648" lon="1.36977">
        <ele>140</ele>
        <time>2019-04-14T12:08:35Z</time>
      </trkpt>
      <trkpt lat="44.43648" lon="1.36979">
        <ele>140</ele>
        <time>2019-04-14T12:08:36Z</time>
      </trkpt>
      <trkpt lat="44.43648" lon="1.36981">
        <ele>140</ele>
        <time>2019-04-14T12:08:37Z</time>
      </trkpt>
      <trkpt lat="44.43648" lon="1.36983">
        <ele>140</ele>
        <time>2019-04-14T12:08:38Z</time>
      </trkpt>
      <trkpt lat="44.43648" lon="1.36986">
        <ele>140</ele>
        <time>2019-04-14T12:08:39Z</time>
      </trkpt>
      <trkpt lat="44.43649" lon="1.36988">
        <ele>140</ele>
        <time>2019-04-14T12:08:40Z</time>
      </trkpt>
      <trkpt lat="44.43649" lon="1.3699">
        <ele>140</ele>
        <time>2019-04-14T12:08:41Z</time>
      </trkpt>
      <trkpt lat="44.43649" lon="1.36992">
        <ele>140</ele>
        <time>2019-04-14T12:08:42Z</time>
      </trkpt>
      <trkpt lat="44.43648" lon="1.36994">
        <ele>140</ele>
        <time>2019-04-14T12:08:43Z</time>
      </trkpt>
      <trkpt lat="44.43648" lon="1.36996">
        <ele>140</ele>
        <time>2019-04-14T12:08:44Z</time>
      </trkpt>
      <trkpt lat="44.43649" lon="1.36997">
        <ele>140</ele>
        <time>2019-04-14T12:08:45Z</time>
      </trkpt>
      <trkpt lat="44.43649" lon="1.36999">
        <ele>140</ele>
        <time>2019-04-14T12:08:46Z</time>
      </trkpt>
      <trkpt lat="44.43648" lon="1.37001">
        <ele>140</ele>
        <time>2019-04-14T12:08:47Z</time>
      </trkpt>
      <trkpt lat="44.43648" lon="1.37003">
        <ele>140</ele>
        <time>2019-04-14T12:08:48Z</time>
      </trkpt>
      <trkpt lat="44.43647" lon="1.37006">
        <ele>140</ele>
        <time>2019-04-14T12:08:49Z</time>
      </trkpt>
      <trkpt lat="44.43647" lon="1.37008">
        <ele>140</ele>
        <time>2019-04-14T12:08:50Z</time>
      </trkpt>
      <trkpt lat="44.43647" lon="1.37011">
        <ele>140</ele>
        <time>2019-04-14T12:08:51Z</time>
      </trkpt>
      <trkpt lat="44.43646" lon="1.37013">
        <ele>140</ele>
        <time>2019-04-14T12:08:52Z</time>
      </trkpt>
      <trkpt lat="44.43646" lon="1.37015">
        <ele>140</ele>
        <time>2019-04-14T12:08:53Z</time>
      </trkpt>
      <trkpt lat="44.43645" lon="1.37018">
        <ele>140</ele>
        <time>2019-04-14T12:08:54Z</time>
      </trkpt>
      <trkpt lat="44.43645" lon="1.37021">
        <ele>140</ele>
        <time>2019-04-14T12:08:55Z</time>
      </trkpt>
      <trkpt lat="44.43644" lon="1.37023">
        <ele>140</ele>
        <time>2019-04-14T12:08:56Z</time>
      </trkpt>
      <trkpt lat="44.43644" lon="1.37026">
        <ele>141</ele>
        <time>2019-04-14T12:08:57Z</time>
      </trkpt>
      <trkpt lat="44.43643" lon="1.37028">
        <ele>141</ele>
        <time>2019-04-14T12:08:58Z</time>
      </trkpt>
      <trkpt lat="44.43642" lon="1.3703">
        <ele>141</ele>
        <time>2019-04-14T12:08:59Z</time>
      </trkpt>
      <trkpt lat="44.43642" lon="1.37031">
        <ele>141</ele>
        <time>2019-04-14T12:09:00Z</time>
      </trkpt>
      <trkpt lat="44.43642" lon="1.37033">
        <ele>141</ele>
        <time>2019-04-14T12:09:01Z</time>
      </trkpt>
      <trkpt lat="44.43642" lon="1.37035">
        <ele>141</ele>
        <time>2019-04-14T12:09:02Z</time>
      </trkpt>
      <trkpt lat="44.43642" lon="1.37038">
        <ele>141</ele>
        <time>2019-04-14T12:09:03Z</time>
      </trkpt>
      <trkpt lat="44.43641" lon="1.3704">
        <ele>141</ele>
        <time>2019-04-14T12:09:04Z</time>
      </trkpt>
      <trkpt lat="44.43641" lon="1.37042">
        <ele>141</ele>
        <time>2019-04-14T12:09:05Z</time>
      </trkpt>
      <trkpt lat="44.4364" lon="1.37045">
        <ele>141</ele>
        <time>2019-04-14T12:09:06Z</time>
      </trkpt>
      <trkpt lat="44.4364" lon="1.37047">
        <ele>141</ele>
        <time>2019-04-14T12:09:07Z</time>
      </trkpt>
      <trkpt lat="44.43639" lon="1.37049">
        <ele>141</ele>
        <time>2019-04-14T12:09:08Z</time>
      </trkpt>
      <trkpt lat="44.43639" lon="1.37052">
        <ele>141</ele>
        <time>2019-04-14T12:09:09Z</time>
      </trkpt>
      <trkpt lat="44.43638" lon="1.37054">
        <ele>141</ele>
        <time>2019-04-14T12:09:10Z</time>
      </trkpt>
      <trkpt lat="44.43637" lon="1.37056">
        <ele>141</ele>
        <time>2019-04-14T12:09:11Z</time>
      </trkpt>
      <trkpt lat="44.43636" lon="1.37058">
        <ele>142</ele>
        <time>2019-04-14T12:09:12Z</time>
      </trkpt>
      <trkpt lat="44.43636" lon="1.37061">
        <ele>142</ele>
        <time>2019-04-14T12:09:13Z</time>
      </trkpt>
      <trkpt lat="44.43636" lon="1.37064">
        <ele>142</ele>
        <time>2019-04-14T12:09:14Z</time>
      </trkpt>
      <trkpt lat="44.43635" lon="1.37066">
        <ele>142</ele>
        <time>2019-04-14T12:09:15Z</time>
      </trkpt>
      <trkpt lat="44.43635" lon="1.37069">
        <ele>142</ele>
        <time>2019-04-14T12:09:16Z</time>
      </trkpt>
      <trkpt lat="44.43634" lon="1.37071">
        <ele>142</ele>
        <time>2019-04-14T12:09:17Z</time>
      </trkpt>
      <trkpt lat="44.43634" lon="1.37073">
        <ele>142</ele>
        <time>2019-04-14T12:09:18Z</time>
      </trkpt>
      <trkpt lat="44.43633" lon="1.37075">
        <ele>142</ele>
        <time>2019-04-14T12:09:19Z</time>
      </trkpt>
      <trkpt lat="44.43633" lon="1.37077">
        <ele>142</ele>
        <time>2019-04-14T12:09:20Z</time>
      </trkpt>
      <trkpt lat="44.43632" lon="1.37079">
        <ele>142</ele>
        <time>2019-04-14T12:09:21Z</time>
      </trkpt>
      <trkpt lat="44.43631" lon="1.37082">
        <ele>142</ele>
        <time>2019-04-14T12:09:22Z</time>
      </trkpt>
      <trkpt lat="44.43631" lon="1.37084">
        <ele>142</ele>
        <time>2019-04-14T12:09:23Z</time>
      </trkpt>
      <trkpt lat="44.4363" lon="1.37086">
        <ele>142</ele>
        <time>2019-04-14T12:09:24Z</time>
      </trkpt>
      <trkpt lat="44.4363" lon="1.37088">
        <ele>142</ele>
        <time>2019-04-14T12:09:25Z</time>
      </trkpt>
      <trkpt lat="44.4363" lon="1.3709">
        <ele>142</ele>
        <time>2019-04-14T12:09:26Z</time>
      </trkpt>
      <trkpt lat="44.43629" lon="1.37091">
        <ele>142</ele>
        <time>2019-04-14T12:09:27Z</time>
      </trkpt>
      <trkpt lat="44.43629" lon="1.37093">
        <ele>142</ele>
        <time>2019-04-14T12:09:28Z</time>
      </trkpt>
      <trkpt lat="44.43628" lon="1.37095">
        <ele>142</ele>
        <time>2019-04-14T12:09:29Z</time>
      </trkpt>
      <trkpt lat="44.43627" lon="1.37097">
        <ele>142</ele>
        <time>2019-04-14T12:09:30Z</time>
      </trkpt>
      <trkpt lat="44.43626" lon="1.37099">
        <ele>142</ele>
        <time>2019-04-14T12:09:31Z</time>
      </trkpt>
      <trkpt lat="44.43625" lon="1.37101">
        <ele>142</ele>
        <time>2019-04-14T12:09:32Z</time>
      </trkpt>
      <trkpt lat="44.43624" lon="1.37103">
        <ele>142</ele>
        <time>2019-04-14T12:09:33Z</time>
      </trkpt>
      <trkpt lat="44.43624" lon="1.37105">
        <ele>142</ele>
        <time>2019-04-14T12:09:34Z</time>
      </trkpt>
      <trkpt lat="44.43624" lon="1.37107">
        <ele>142</ele>
        <time>2019-04-14T12:09:35Z</time>
      </trkpt>
      <trkpt lat="44.43623" lon="1.37108">
        <ele>143</ele>
        <time>2019-04-14T12:09:36Z</time>
      </trkpt>
      <trkpt lat="44.43622" lon="1.37109">
        <ele>143</ele>
        <time>2019-04-14T12:09:37Z</time>
      </trkpt>
      <trkpt lat="44.43621" lon="1.37111">
        <ele>143</ele>
        <time>2019-04-14T12:09:38Z</time>
      </trkpt>
      <trkpt lat="44.43621" lon="1.37113">
        <ele>143</ele>
        <time>2019-04-14T12:09:39Z</time>
      </trkpt>
      <trkpt lat="44.4362" lon="1.37115">
        <ele>143</ele>
        <time>2019-04-14T12:09:40Z</time>
      </trkpt>
      <trkpt lat="44.43619" lon="1.37116">
        <ele>143</ele>
        <time>2019-04-14T12:09:41Z</time>
      </trkpt>
      <trkpt lat="44.43618" lon="1.37118">
        <ele>143</ele>
        <time>2019-04-14T12:09:42Z</time>
      </trkpt>
      <trkpt lat="44.43618" lon="1.3712">
        <ele>143</ele>
        <time>2019-04-14T12:09:43Z</time>
      </trkpt>
      <trkpt lat="44.43617" lon="1.37121">
        <ele>143</ele>
        <time>2019-04-14T12:09:44Z</time>
      </trkpt>
      <trkpt lat="44.43617" lon="1.37123">
        <ele>143</ele>
        <time>2019-04-14T12:09:45Z</time>
      </trkpt>
      <trkpt lat="44.43617" lon="1.37125">
        <ele>143</ele>
        <time>2019-04-14T12:09:46Z</time>
      </trkpt>
      <trkpt lat="44.43616" lon="1.37127">
        <ele>143</ele>
        <time>2019-04-14T12:09:47Z</time>
      </trkpt>
      <trkpt lat="44.43615" lon="1.37129">
        <ele>143</ele>
        <time>2019-04-14T12:09:48Z</time>
      </trkpt>
      <trkpt lat="44.43615" lon="1.37131">
        <ele>143</ele>
        <time>2019-04-14T12:09:49Z</time>
      </trkpt>
      <trkpt lat="44.43614" lon="1.37133">
        <ele>143</ele>
        <time>2019-04-14T12:09:50Z</time>
      </trkpt>
      <trkpt lat="44.43613" lon="1.37135">
        <ele>143</ele>
        <time>2019-04-14T12:09:51Z</time>
      </trkpt>
      <trkpt lat="44.43613" lon="1.37137">
        <ele>143</ele>
        <time>2019-04-14T12:09:52Z</time>
      </trkpt>
      <trkpt lat="44.43613" lon="1.37139">
        <ele>143</ele>
        <time>2019-04-14T12:09:53Z</time>
      </trkpt>
      <trkpt lat="44.43612" lon="1.37141">
        <ele>143</ele>
        <time>2019-04-14T12:09:54Z</time>
      </trkpt>
      <trkpt lat="44.43613" lon="1.37143">
        <ele>143</ele>
        <time>2019-04-14T12:09:55Z</time>
      </trkpt>
      <trkpt lat="44.43612" lon="1.37145">
        <ele>143</ele>
        <time>2019-04-14T12:09:56Z</time>
      </trkpt>
      <trkpt lat="44.43612" lon="1.37147">
        <ele>144</ele>
        <time>2019-04-14T12:09:57Z</time>
      </trkpt>
      <trkpt lat="44.4361" lon="1.37149">
        <ele>144</ele>
        <time>2019-04-14T12:09:58Z</time>
      </trkpt>
      <trkpt lat="44.43609" lon="1.37152">
        <ele>144</ele>
        <time>2019-04-14T12:09:59Z</time>
      </trkpt>
      <trkpt lat="44.43608" lon="1.37153">
        <ele>144</ele>
        <time>2019-04-14T12:10:00Z</time>
      </trkpt>
      <trkpt lat="44.43607" lon="1.37155">
        <ele>144</ele>
        <time>2019-04-14T12:10:01Z</time>
      </trkpt>
      <trkpt lat="44.43607" lon="1.37156">
        <ele>144</ele>
        <time>2019-04-14T12:10:02Z</time>
      </trkpt>
      <trkpt lat="44.43607" lon="1.37158">
        <ele>144</ele>
        <time>2019-04-14T12:10:03Z</time>
      </trkpt>
      <trkpt lat="44.43606" lon="1.37159">
        <ele>144</ele>
        <time>2019-04-14T12:10:04Z</time>
      </trkpt>
      <trkpt lat="44.43606" lon="1.3716">
        <ele>144</ele>
        <time>2019-04-14T12:10:05Z</time>
      </trkpt>
      <trkpt lat="44.43605" lon="1.37163">
        <ele>144</ele>
        <time>2019-04-14T12:10:06Z</time>
      </trkpt>
      <trkpt lat="44.43604" lon="1.37165">
        <ele>144</ele>
        <time>2019-04-14T12:10:07Z</time>
      </trkpt>
      <trkpt lat="44.43604" lon="1.37167">
        <ele>144</ele>
        <time>2019-04-14T12:10:08Z</time>
      </trkpt>
      <trkpt lat="44.43603" lon="1.37169">
        <ele>144</ele>
        <time>2019-04-14T12:10:09Z</time>
      </trkpt>
      <trkpt lat="44.43603" lon="1.37172">
        <ele>144</ele>
        <time>2019-04-14T12:10:10Z</time>
      </trkpt>
      <trkpt lat="44.43602" lon="1.37175">
        <ele>144</ele>
        <time>2019-04-14T12:10:11Z</time>
      </trkpt>
      <trkpt lat="44.43601" lon="1.37177">
        <ele>144</ele>
        <time>2019-04-14T12:10:12Z</time>
      </trkpt>
      <trkpt lat="44.436" lon="1.37179">
        <ele>144</ele>
        <time>2019-04-14T12:10:13Z</time>
      </trkpt>
      <trkpt lat="44.43599" lon="1.37181">
        <ele>144</ele>
        <time>2019-04-14T12:10:14Z</time>
      </trkpt>
      <trkpt lat="44.43598" lon="1.37184">
        <ele>144</ele>
        <time>2019-04-14T12:10:15Z</time>
      </trkpt>
      <trkpt lat="44.43597" lon="1.37187">
        <ele>144</ele>
        <time>2019-04-14T12:10:16Z</time>
      </trkpt>
      <trkpt lat="44.43596" lon="1.37189">
        <ele>144</ele>
        <time>2019-04-14T12:10:17Z</time>
      </trkpt>
      <trkpt lat="44.43596" lon="1.37191">
        <ele>144</ele>
        <time>2019-04-14T12:10:18Z</time>
      </trkpt>
      <trkpt lat="44.43596" lon="1.37194">
        <ele>144</ele>
        <time>2019-04-14T12:10:19Z</time>
      </trkpt>
      <trkpt lat="44.43595" lon="1.37197">
        <ele>144</ele>
        <time>2019-04-14T12:10:20Z</time>
      </trkpt>
      <trkpt lat="44.43595" lon="1.37199">
        <ele>144</ele>
        <time>2019-04-14T12:10:21Z</time>
      </trkpt>
      <trkpt lat="44.43595" lon="1.37201">
        <ele>144</ele>
        <time>2019-04-14T12:10:22Z</time>
      </trkpt>
      <trkpt lat="44.43594" lon="1.37202">
        <ele>144</ele>
        <time>2019-04-14T12:10:23Z</time>
      </trkpt>
      <trkpt lat="44.43594" lon="1.37204">
        <ele>144</ele>
        <time>2019-04-14T12:10:24Z</time>
      </trkpt>
      <trkpt lat="44.43594" lon="1.37207">
        <ele>144</ele>
        <time>2019-04-14T12:10:25Z</time>
      </trkpt>
      <trkpt lat="44.43595" lon="1.3721">
        <ele>144</ele>
        <time>2019-04-14T12:10:26Z</time>
      </trkpt>
      <trkpt lat="44.43594" lon="1.37212">
        <ele>144</ele>
        <time>2019-04-14T12:10:27Z</time>
      </trkpt>
      <trkpt lat="44.43594" lon="1.37215">
        <ele>144</ele>
        <time>2019-04-14T12:10:28Z</time>
      </trkpt>
      <trkpt lat="44.43592" lon="1.37217">
        <ele>144</ele>
        <time>2019-04-14T12:10:29Z</time>
      </trkpt>
      <trkpt lat="44.43591" lon="1.37218">
        <ele>144</ele>
        <time>2019-04-14T12:10:30Z</time>
      </trkpt>
      <trkpt lat="44.43591" lon="1.3722">
        <ele>144</ele>
        <time>2019-04-14T12:10:31Z</time>
      </trkpt>
      <trkpt lat="44.4359" lon="1.37222">
        <ele>144</ele>
        <time>2019-04-14T12:10:32Z</time>
      </trkpt>
      <trkpt lat="44.43589" lon="1.37223">
        <ele>144</ele>
        <time>2019-04-14T12:10:33Z</time>
      </trkpt>
      <trkpt lat="44.43588" lon="1.37226">
        <ele>144</ele>
        <time>2019-04-14T12:10:34Z</time>
      </trkpt>
      <trkpt lat="44.43588" lon="1.37228">
        <ele>144</ele>
        <time>2019-04-14T12:10:35Z</time>
      </trkpt>
      <trkpt lat="44.43587" lon="1.3723">
        <ele>144</ele>
        <time>2019-04-14T12:10:36Z</time>
      </trkpt>
      <trkpt lat="44.43586" lon="1.37232">
        <ele>144</ele>
        <time>2019-04-14T12:10:37Z</time>
      </trkpt>
      <trkpt lat="44.43585" lon="1.37234">
        <ele>144</ele>
        <time>2019-04-14T12:10:38Z</time>
      </trkpt>
      <trkpt lat="44.43584" lon="1.37236">
        <ele>144</ele>
        <time>2019-04-14T12:10:39Z</time>
      </trkpt>
      <trkpt lat="44.43582" lon="1.37237">
        <ele>144</ele>
        <time>2019-04-14T12:10:40Z</time>
      </trkpt>
      <trkpt lat="44.43581" lon="1.37239">
        <ele>144</ele>
        <time>2019-04-14T12:10:41Z</time>
      </trkpt>
      <trkpt lat="44.43581" lon="1.3724">
        <ele>144</ele>
        <time>2019-04-14T12:10:42Z</time>
      </trkpt>
      <trkpt lat="44.4358" lon="1.37241">
        <ele>144</ele>
        <time>2019-04-14T12:10:43Z</time>
      </trkpt>
      <trkpt lat="44.4358" lon="1.37243">
        <ele>144</ele>
        <time>2019-04-14T12:10:44Z</time>
      </trkpt>
      <trkpt lat="44.4358" lon="1.37244">
        <ele>144</ele>
        <time>2019-04-14T12:10:45Z</time>
      </trkpt>
      <trkpt lat="44.43582" lon="1.37246">
        <ele>144</ele>
        <time>2019-04-14T12:10:46Z</time>
      </trkpt>
      <trkpt lat="44.43583" lon="1.37245">
        <ele>144</ele>
        <time>2019-04-14T12:10:47Z</time>
      </trkpt>
      <trkpt lat="44.43583" lon="1.37244">
        <ele>144</ele>
        <time>2019-04-14T12:10:48Z</time>
      </trkpt>
      <trkpt lat="44.43583" lon="1.37242">
        <ele>144</ele>
        <time>2019-04-14T12:10:49Z</time>
      </trkpt>
      <trkpt lat="44.43583" lon="1.37241">
        <ele>144</ele>
        <time>2019-04-14T12:10:50Z</time>
      </trkpt>
      <trkpt lat="44.43584" lon="1.37239">
        <ele>144</ele>
        <time>2019-04-14T12:10:51Z</time>
      </trkpt>
      <trkpt lat="44.43584" lon="1.37236">
        <ele>144</ele>
        <time>2019-04-14T12:10:52Z</time>
      </trkpt>
      <trkpt lat="44.43585" lon="1.37234">
        <ele>144</ele>
        <time>2019-04-14T12:10:53Z</time>
      </trkpt>
      <trkpt lat="44.43585" lon="1.37231">
        <ele>144</ele>
        <time>2019-04-14T12:10:54Z</time>
      </trkpt>
      <trkpt lat="44.43586" lon="1.37229">
        <ele>144</ele>
        <time>2019-04-14T12:10:55Z</time>
      </trkpt>
      <trkpt lat="44.43587" lon="1.37227">
        <ele>144</ele>
        <time>2019-04-14T12:10:56Z</time>
      </trkpt>
      <trkpt lat="44.43588" lon="1.37224">
        <ele>144</ele>
        <time>2019-04-14T12:10:57Z</time>
      </trkpt>
      <trkpt lat="44.43589" lon="1.37222">
        <ele>144</ele>
        <time>2019-04-14T12:10:58Z</time>
      </trkpt>
      <trkpt lat="44.4359" lon="1.37219">
        <ele>144</ele>
        <time>2019-04-14T12:10:59Z</time>
      </trkpt>
      <trkpt lat="44.4359" lon="1.37217">
        <ele>144</ele>
        <time>2019-04-14T12:11:00Z</time>
      </trkpt>
      <trkpt lat="44.43591" lon="1.37215">
        <ele>144</ele>
        <time>2019-04-14T12:11:01Z</time>
      </trkpt>
      <trkpt lat="44.43592" lon="1.37213">
        <ele>144</ele>
        <time>2019-04-14T12:11:02Z</time>
      </trkpt>
      <trkpt lat="44.43593" lon="1.37211">
        <ele>144</ele>
        <time>2019-04-14T12:11:03Z</time>
      </trkpt>
      <trkpt lat="44.43594" lon="1.3721">
        <ele>144</ele>
        <time>2019-04-14T12:11:04Z</time>
      </trkpt>
      <trkpt lat="44.43595" lon="1.37209">
        <ele>144</ele>
        <time>2019-04-14T12:11:05Z</time>
      </trkpt>
      <trkpt lat="44.43595" lon="1.37206">
        <ele>144</ele>
        <time>2019-04-14T12:11:06Z</time>
      </trkpt>
      <trkpt lat="44.43596" lon="1.37203">
        <ele>144</ele>
        <time>2019-04-14T12:11:07Z</time>
      </trkpt>
      <trkpt lat="44.43597" lon="1.372">
        <ele>144</ele>
        <time>2019-04-14T12:11:08Z</time>
      </trkpt>
      <trkpt lat="44.43598" lon="1.37197">
        <ele>144</ele>
        <time>2019-04-14T12:11:09Z</time>
      </trkpt>
      <trkpt lat="44.43598" lon="1.37195">
        <ele>144</ele>
        <time>2019-04-14T12:11:10Z</time>
      </trkpt>
      <trkpt lat="44.43599" lon="1.37193">
        <ele>144</ele>
        <time>2019-04-14T12:11:11Z</time>
      </trkpt>
      <trkpt lat="44.43599" lon="1.37191">
        <ele>144</ele>
        <time>2019-04-14T12:11:12Z</time>
      </trkpt>
      <trkpt lat="44.436" lon="1.3719">
        <ele>144</ele>
        <time>2019-04-14T12:11:13Z</time>
      </trkpt>
      <trkpt lat="44.43601" lon="1.37188">
        <ele>144</ele>
        <time>2019-04-14T12:11:14Z</time>
      </trkpt>
      <trkpt lat="44.43602" lon="1.37186">
        <ele>144</ele>
        <time>2019-04-14T12:11:15Z</time>
      </trkpt>
      <trkpt lat="44.43603" lon="1.37183">
        <ele>144</ele>
        <time>2019-04-14T12:11:16Z</time>
      </trkpt>
      <trkpt lat="44.43603" lon="1.3718">
        <ele>144</ele>
        <time>2019-04-14T12:11:17Z</time>
      </trkpt>
      <trkpt lat="44.43605" lon="1.37178">
        <ele>144</ele>
        <time>2019-04-14T12:11:18Z</time>
      </trkpt>
      <trkpt lat="44.43606" lon="1.37176">
        <ele>144</ele>
        <time>2019-04-14T12:11:19Z</time>
      </trkpt>
      <trkpt lat="44.43607" lon="1.37173">
        <ele>144</ele>
        <time>2019-04-14T12:11:20Z</time>
      </trkpt>
      <trkpt lat="44.43608" lon="1.37169">
        <ele>144</ele>
        <time>2019-04-14T12:11:21Z</time>
      </trkpt>
      <trkpt lat="44.43608" lon="1.37165">
        <ele>144</ele>
        <time>2019-04-14T12:11:22Z</time>
      </trkpt>
      <trkpt lat="44.4361" lon="1.37161">
        <ele>144</ele>
        <time>2019-04-14T12:11:23Z</time>
      </trkpt>
      <trkpt lat="44.43611" lon="1.37157">
        <ele>144</ele>
        <time>2019-04-14T12:11:24Z</time>
      </trkpt>
      <trkpt lat="44.43613" lon="1.37153">
        <ele>143</ele>
        <time>2019-04-14T12:11:25Z</time>
      </trkpt>
      <trkpt lat="44.43615" lon="1.37149">
        <ele>143</ele>
        <time>2019-04-14T12:11:26Z</time>
      </trkpt>
      <trkpt lat="44.43617" lon="1.37145">
        <ele>143</ele>
        <time>2019-04-14T12:11:27Z</time>
      </trkpt>
      <trkpt lat="44.43618" lon="1.37142">
        <ele>143</ele>
        <time>2019-04-14T12:11:28Z</time>
      </trkpt>
      <trkpt lat="44.4362" lon="1.37137">
        <ele>143</ele>
        <time>2019-04-14T12:11:29Z</time>
      </trkpt>
      <trkpt lat="44.43622" lon="1.37132">
        <ele>143</ele>
        <time>2019-04-14T12:11:30Z</time>
      </trkpt>
      <trkpt lat="44.43624" lon="1.37127">
        <ele>143</ele>
        <time>2019-04-14T12:11:31Z</time>
      </trkpt>
      <trkpt lat="44.43625" lon="1.37123">
        <ele>143</ele>
        <time>2019-04-14T12:11:32Z</time>
      </trkpt>
      <trkpt lat="44.43627" lon="1.37118">
        <ele>142</ele>
        <time>2019-04-14T12:11:33Z</time>
      </trkpt>
      <trkpt lat="44.43628" lon="1.37112">
        <ele>142</ele>
        <time>2019-04-14T12:11:34Z</time>
      </trkpt>
      <trkpt lat="44.43629" lon="1.37108">
        <ele>142</ele>
        <time>2019-04-14T12:11:35Z</time>
      </trkpt>
      <trkpt lat="44.4363" lon="1.37103">
        <ele>142</ele>
        <time>2019-04-14T12:11:36Z</time>
      </trkpt>
      <trkpt lat="44.43631" lon="1.37099">
        <ele>142</ele>
        <time>2019-04-14T12:11:37Z</time>
      </trkpt>
      <trkpt lat="44.43632" lon="1.37095">
        <ele>142</ele>
        <time>2019-04-14T12:11:38Z</time>
      </trkpt>
      <trkpt lat="44.43632" lon="1.3709">
        <ele>142</ele>
        <time>2019-04-14T12:11:39Z</time>
      </trkpt>
      <trkpt lat="44.43633" lon="1.37085">
        <ele>142</ele>
        <time>2019-04-14T12:11:40Z</time>
      </trkpt>
      <trkpt lat="44.43634" lon="1.37081">
        <ele>142</ele>
        <time>2019-04-14T12:11:41Z</time>
      </trkpt>
      <trkpt lat="44.43636" lon="1.37078">
        <ele>142</ele>
        <time>2019-04-14T12:11:42Z</time>
      </trkpt>
      <trkpt lat="44.43637" lon="1.37074">
        <ele>142</ele>
        <time>2019-04-14T12:11:43Z</time>
      </trkpt>
      <trkpt lat="44.43638" lon="1.37069">
        <ele>141</ele>
        <time>2019-04-14T12:11:44Z</time>
      </trkpt>
      <trkpt lat="44.43639" lon="1.37064">
        <ele>141</ele>
        <time>2019-04-14T12:11:45Z</time>
      </trkpt>
      <trkpt lat="44.4364" lon="1.37059">
        <ele>141</ele>
        <time>2019-04-14T12:11:46Z</time>
      </trkpt>
      <trkpt lat="44.43641" lon="1.37053">
        <ele>141</ele>
        <time>2019-04-14T12:11:47Z</time>
      </trkpt>
      <trkpt lat="44.43642" lon="1.37048">
        <ele>141</ele>
        <time>2019-04-14T12:11:48Z</time>
      </trkpt>
      <trkpt lat="44.43643" lon="1.37042">
        <ele>141</ele>
        <time>2019-04-14T12:11:49Z</time>
      </trkpt>
      <trkpt lat="44.43644" lon="1.37037">
        <ele>141</ele>
        <time>2019-04-14T12:11:50Z</time>
      </trkpt>
      <trkpt lat="44.43645" lon="1.37032">
        <ele>140</ele>
        <time>2019-04-14T12:11:51Z</time>
      </trkpt>
      <trkpt lat="44.43646" lon="1.37028">
        <ele>140</ele>
        <time>2019-04-14T12:11:52Z</time>
      </trkpt>
      <trkpt lat="44.43647" lon="1.37025">
        <ele>140</ele>
        <time>2019-04-14T12:11:53Z</time>
      </trkpt>
      <trkpt lat="44.43647" lon="1.37022">
        <ele>140</ele>
        <time>2019-04-14T12:11:54Z</time>
      </trkpt>
      <trkpt lat="44.43648" lon="1.37019">
        <ele>140</ele>
        <time>2019-04-14T12:11:55Z</time>
      </trkpt>
      <trkpt lat="44.43648" lon="1.37017">
        <ele>140</ele>
        <time>2019-04-14T12:11:56Z</time>
      </trkpt>
      <trkpt lat="44.43648" lon="1.37015">
        <ele>140</ele>
        <time>2019-04-14T12:11:57Z</time>
      </trkpt>
      <trkpt lat="44.43648" lon="1.37012">
        <ele>140</ele>
        <time>2019-04-14T12:11:58Z</time>
      </trkpt>
      <trkpt lat="44.43648" lon="1.37009">
        <ele>140</ele>
        <time>2019-04-14T12:11:59Z</time>
      </trkpt>
      <trkpt lat="44.43649" lon="1.37006">
        <ele>140</ele>
        <time>2019-04-14T12:12:00Z</time>
      </trkpt>
      <trkpt lat="44.43649" lon="1.37002">
        <ele>139</ele>
        <time>2019-04-14T12:12:01Z</time>
      </trkpt>
      <trkpt lat="44.4365" lon="1.36999">
        <ele>139</ele>
        <time>2019-04-14T12:12:02Z</time>
      </trkpt>
      <trkpt lat="44.4365" lon="1.36995">
        <ele>139</ele>
        <time>2019-04-14T12:12:03Z</time>
      </trkpt>
      <trkpt lat="44.4365" lon="1.36992">
        <ele>139</ele>
        <time>2019-04-14T12:12:04Z</time>
      </trkpt>
      <trkpt lat="44.4365" lon="1.36989">
        <ele>139</ele>
        <time>2019-04-14T12:12:05Z</time>
      </trkpt>
      <trkpt lat="44.4365" lon="1.36987">
        <ele>139</ele>
        <time>2019-04-14T12:12:06Z</time>
      </trkpt>
      <trkpt lat="44.43649" lon="1.36985">
        <ele>139</ele>
        <time>2019-04-14T12:12:07Z</time>
      </trkpt>
      <trkpt lat="44.43648" lon="1.36982">
        <ele>139</ele>
        <time>2019-04-14T12:12:08Z</time>
      </trkpt>
      <trkpt lat="44.43648" lon="1.36979">
        <ele>139</ele>
        <time>2019-04-14T12:12:09Z</time>
      </trkpt>
      <trkpt lat="44.43647" lon="1.36976">
        <ele>139</ele>
        <time>2019-04-14T12:12:10Z</time>
      </trkpt>
      <trkpt lat="44.43646" lon="1.36973">
        <ele>139</ele>
        <time>2019-04-14T12:12:11Z</time>
      </trkpt>
      <trkpt lat="44.43645" lon="1.3697">
        <ele>139</ele>
        <time>2019-04-14T12:12:12Z</time>
      </trkpt>
      <trkpt lat="44.43644" lon="1.36967">
        <ele>139</ele>
        <time>2019-04-14T12:12:13Z</time>
      </trkpt>
      <trkpt lat="44.43644" lon="1.36963">
        <ele>139</ele>
        <time>2019-04-14T12:12:14Z</time>
      </trkpt>
      <trkpt lat="44.43642" lon="1.36959">
        <ele>139</ele>
        <time>2019-04-14T12:12:15Z</time>
      </trkpt>
      <trkpt lat="44.43641" lon="1.36956">
        <ele>139</ele>
        <time>2019-04-14T12:12:16Z</time>
      </trkpt>
      <trkpt lat="44.4364" lon="1.36952">
        <ele>138</ele>
        <time>2019-04-14T12:12:17Z</time>
      </trkpt>
      <trkpt lat="44.43639" lon="1.36949">
        <ele>138</ele>
        <time>2019-04-14T12:12:18Z</time>
      </trkpt>
      <trkpt lat="44.43638" lon="1.36946">
        <ele>138</ele>
        <time>2019-04-14T12:12:19Z</time>
      </trkpt>
      <trkpt lat="44.43637" lon="1.36943">
        <ele>138</ele>
        <time>2019-04-14T12:12:20Z</time>
      </trkpt>
      <trkpt lat="44.43635" lon="1.3694">
        <ele>138</ele>
        <time>2019-04-14T12:12:21Z</time>
      </trkpt>
      <trkpt lat="44.43634" lon="1.36937">
        <ele>138</ele>
        <time>2019-04-14T12:12:22Z</time>
      </trkpt>
      <trkpt lat="44.43633" lon="1.36934">
        <ele>137</ele>
        <time>2019-04-14T12:12:23Z</time>
      </trkpt>
      <trkpt lat="44.43631" lon="1.36931">
        <ele>137</ele>
        <time>2019-04-14T12:12:24Z</time>
      </trkpt>
      <trkpt lat="44.4363" lon="1.36929">
        <ele>138</ele>
        <time>2019-04-14T12:12:25Z</time>
      </trkpt>
      <trkpt lat="44.4363" lon="1.36926">
        <ele>138</ele>
        <time>2019-04-14T12:12:26Z</time>
      </trkpt>
      <trkpt lat="44.43628" lon="1.36922">
        <ele>138</ele>
        <time>2019-04-14T12:12:27Z</time>
      </trkpt>
      <trkpt lat="44.43627" lon="1.3692">
        <ele>137</ele>
        <time>2019-04-14T12:12:28Z</time>
      </trkpt>
      <trkpt lat="44.43625" lon="1.36917">
        <ele>137</ele>
        <time>2019-04-14T12:12:29Z</time>
      </trkpt>
      <trkpt lat="44.43624" lon="1.36915">
        <ele>137</ele>
        <time>2019-04-14T12:12:30Z</time>
      </trkpt>
      <trkpt lat="44.43623" lon="1.36913">
        <ele>137</ele>
        <time>2019-04-14T12:12:31Z</time>
      </trkpt>
      <trkpt lat="44.43622" lon="1.3691">
        <ele>137</ele>
        <time>2019-04-14T12:12:32Z</time>
      </trkpt>
      <trkpt lat="44.43622" lon="1.36908">
        <ele>137</ele>
        <time>2019-04-14T12:12:33Z</time>
      </trkpt>
      <trkpt lat="44.43621" lon="1.36905">
        <ele>137</ele>
        <time>2019-04-14T12:12:34Z</time>
      </trkpt>
      <trkpt lat="44.4362" lon="1.36902">
        <ele>137</ele>
        <time>2019-04-14T12:12:35Z</time>
      </trkpt>
      <trkpt lat="44.43619" lon="1.36899">
        <ele>137</ele>
        <time>2019-04-14T12:12:36Z</time>
      </trkpt>
      <trkpt lat="44.43619" lon="1.36896">
        <ele>137</ele>
        <time>2019-04-14T12:12:37Z</time>
      </trkpt>
      <trkpt lat="44.43618" lon="1.36894">
        <ele>137</ele>
        <time>2019-04-14T12:12:38Z</time>
      </trkpt>
      <trkpt lat="44.43617" lon="1.36892">
        <ele>137</ele>
        <time>2019-04-14T12:12:39Z</time>
      </trkpt>
      <trkpt lat="44.43616" lon="1.36889">
        <ele>137</ele>
        <time>2019-04-14T12:12:40Z</time>
      </trkpt>
      <trkpt lat="44.43615" lon="1.36886">
        <ele>137</ele>
        <time>2019-04-14T12:12:41Z</time>
      </trkpt>
      <trkpt lat="44.43614" lon="1.36883">
        <ele>137</ele>
        <time>2019-04-14T12:12:42Z</time>
      </trkpt>
      <trkpt lat="44.43613" lon="1.3688">
        <ele>137</ele>
        <time>2019-04-14T12:12:43Z</time>
      </trkpt>
      <trkpt lat="44.43612" lon="1.36878">
        <ele>137</ele>
        <time>2019-04-14T12:12:44Z</time>
      </trkpt>
      <trkpt lat="44.43612" lon="1.36875">
        <ele>137</ele>
        <time>2019-04-14T12:12:45Z</time>
      </trkpt>
      <trkpt lat="44.43611" lon="1.36873">
        <ele>137</ele>
        <time>2019-04-14T12:12:46Z</time>
      </trkpt>
      <trkpt lat="44.43611" lon="1.36871">
        <ele>137</ele>
        <time>2019-04-14T12:12:47Z</time>
      </trkpt>
      <trkpt lat="44.43611" lon="1.36869">
        <ele>137</ele>
        <time>2019-04-14T12:12:48Z</time>
      </trkpt>
      <trkpt lat="44.4361" lon="1.36867">
        <ele>137</ele>
        <time>2019-04-14T12:12:49Z</time>
      </trkpt>
      <trkpt lat="44.4361" lon="1.36866">
        <ele>137</ele>
        <time>2019-04-14T12:12:50Z</time>
      </trkpt>
      <trkpt lat="44.4361" lon="1.36864">
        <ele>137</ele>
        <time>2019-04-14T12:12:51Z</time>
      </trkpt>
      <trkpt lat="44.4361" lon="1.36862">
        <ele>137</ele>
        <time>2019-04-14T12:12:52Z</time>
      </trkpt>
      <trkpt lat="44.4361" lon="1.36859">
        <ele>137</ele>
        <time>2019-04-14T12:12:53Z</time>
      </trkpt>
      <trkpt lat="44.43609" lon="1.36855">
        <ele>137</ele>
        <time>2019-04-14T12:12:54Z</time>
      </trkpt>
      <trkpt lat="44.43609" lon="1.36852">
        <ele>137</ele>
        <time>2019-04-14T12:12:55Z</time>
      </trkpt>
      <trkpt lat="44.43608" lon="1.36849">
        <ele>137</ele>
        <time>2019-04-14T12:12:56Z</time>
      </trkpt>
      <trkpt lat="44.43608" lon="1.36846">
        <ele>137</ele>
        <time>2019-04-14T12:12:57Z</time>
      </trkpt>
      <trkpt lat="44.43607" lon="1.36842">
        <ele>137</ele>
        <time>2019-04-14T12:12:58Z</time>
      </trkpt>
      <trkpt lat="44.43607" lon="1.36838">
        <ele>137</ele>
        <time>2019-04-14T12:12:59Z</time>
      </trkpt>
      <trkpt lat="44.43607" lon="1.36835">
        <ele>137</ele>
        <time>2019-04-14T12:13:00Z</time>
      </trkpt>
      <trkpt lat="44.43607" lon="1.36832">
        <ele>137</ele>
        <time>2019-04-14T12:13:01Z</time>
      </trkpt>
      <trkpt lat="44.43606" lon="1.36829">
        <ele>137</ele>
        <time>2019-04-14T12:13:02Z</time>
      </trkpt>
      <trkpt lat="44.43606" lon="1.36825">
        <ele>137</ele>
        <time>2019-04-14T12:13:03Z</time>
      </trkpt>
      <trkpt lat="44.43606" lon="1.36821">
        <ele>137</ele>
        <time>2019-04-14T12:13:04Z</time>
      </trkpt>
      <trkpt lat="44.43606" lon="1.36817">
        <ele>137</ele>
        <time>2019-04-14T12:13:05Z</time>
      </trkpt>
      <trkpt lat="44.43606" lon="1.36813">
        <ele>137</ele>
        <time>2019-04-14T12:13:06Z</time>
      </trkpt>
      <trkpt lat="44.43606" lon="1.36809">
        <ele>137</ele>
        <time>2019-04-14T12:13:07Z</time>
      </trkpt>
      <trkpt lat="44.43606" lon="1.36805">
        <ele>137</ele>
        <time>2019-04-14T12:13:08Z</time>
      </trkpt>
      <trkpt lat="44.43607" lon="1.36802">
        <ele>137</ele>
        <time>2019-04-14T12:13:09Z</time>
      </trkpt>
      <trkpt lat="44.43607" lon="1.368">
        <ele>137</ele>
        <time>2019-04-14T12:13:10Z</time>
      </trkpt>
      <trkpt lat="44.43608" lon="1.36797">
        <ele>137</ele>
        <time>2019-04-14T12:13:11Z</time>
      </trkpt>
      <trkpt lat="44.43608" lon="1.36794">
        <ele>137</ele>
        <time>2019-04-14T12:13:12Z</time>
      </trkpt>
      <trkpt lat="44.43608" lon="1.36791">
        <ele>137</ele>
        <time>2019-04-14T12:13:13Z</time>
      </trkpt>
      <trkpt lat="44.43608" lon="1.36788">
        <ele>137</ele>
        <time>2019-04-14T12:13:14Z</time>
      </trkpt>
      <trkpt lat="44.43609" lon="1.36785">
        <ele>137</ele>
        <time>2019-04-14T12:13:15Z</time>
      </trkpt>
      <trkpt lat="44.43609" lon="1.36782">
        <ele>137</ele>
        <time>2019-04-14T12:13:16Z</time>
      </trkpt>
      <trkpt lat="44.43609" lon="1.36778">
        <ele>137</ele>
        <time>2019-04-14T12:13:17Z</time>
      </trkpt>
      <trkpt lat="44.43609" lon="1.36774">
        <ele>137</ele>
        <time>2019-04-14T12:13:18Z</time>
      </trkpt>
      <trkpt lat="44.4361" lon="1.36771">
        <ele>137</ele>
        <time>2019-04-14T12:13:19Z</time>
      </trkpt>
      <trkpt lat="44.43611" lon="1.36767">
        <ele>137</ele>
        <time>2019-04-14T12:13:20Z</time>
      </trkpt>
      <trkpt lat="44.43613" lon="1.36764">
        <ele>137</ele>
        <time>2019-04-14T12:13:21Z</time>
      </trkpt>
      <trkpt lat="44.43614" lon="1.3676">
        <ele>137</ele>
        <time>2019-04-14T12:13:22Z</time>
      </trkpt>
      <trkpt lat="44.43615" lon="1.36756">
        <ele>137</ele>
        <time>2019-04-14T12:13:23Z</time>
      </trkpt>
      <trkpt lat="44.43616" lon="1.36751">
        <ele>137</ele>
        <time>2019-04-14T12:13:24Z</time>
      </trkpt>
      <trkpt lat="44.43617" lon="1.36747">
        <ele>137</ele>
        <time>2019-04-14T12:13:25Z</time>
      </trkpt>
      <trkpt lat="44.43618" lon="1.36742">
        <ele>137</ele>
        <time>2019-04-14T12:13:26Z</time>
      </trkpt>
      <trkpt lat="44.43619" lon="1.36737">
        <ele>136</ele>
        <time>2019-04-14T12:13:27Z</time>
      </trkpt>
      <trkpt lat="44.43621" lon="1.36732">
        <ele>136</ele>
        <time>2019-04-14T12:13:28Z</time>
      </trkpt>
      <trkpt lat="44.43622" lon="1.36728">
        <ele>136</ele>
        <time>2019-04-14T12:13:29Z</time>
      </trkpt>
      <trkpt lat="44.43624" lon="1.36723">
        <ele>136</ele>
        <time>2019-04-14T12:13:30Z</time>
      </trkpt>
      <trkpt lat="44.43626" lon="1.36718">
        <ele>136</ele>
        <time>2019-04-14T12:13:31Z</time>
      </trkpt>
      <trkpt lat="44.43626" lon="1.36715">
        <ele>136</ele>
        <time>2019-04-14T12:13:32Z</time>
      </trkpt>
      <trkpt lat="44.43628" lon="1.36711">
        <ele>135</ele>
        <time>2019-04-14T12:13:33Z</time>
      </trkpt>
      <trkpt lat="44.43629" lon="1.36707">
        <ele>135</ele>
        <time>2019-04-14T12:13:34Z</time>
      </trkpt>
      <trkpt lat="44.4363" lon="1.36701">
        <ele>135</ele>
        <time>2019-04-14T12:13:35Z</time>
      </trkpt>
      <trkpt lat="44.43632" lon="1.36696">
        <ele>135</ele>
        <time>2019-04-14T12:13:36Z</time>
      </trkpt>
      <trkpt lat="44.43634" lon="1.36691">
        <ele>135</ele>
        <time>2019-04-14T12:13:37Z</time>
      </trkpt>
      <trkpt lat="44.43636" lon="1.36688">
        <ele>134</ele>
        <time>2019-04-14T12:13:38Z</time>
      </trkpt>
      <trkpt lat="44.43638" lon="1.36684">
        <ele>134</ele>
        <time>2019-04-14T12:13:39Z</time>
      </trkpt>
      <trkpt lat="44.4364" lon="1.36679">
        <ele>134</ele>
        <time>2019-04-14T12:13:40Z</time>
      </trkpt>
      <trkpt lat="44.43642" lon="1.36675">
        <ele>134</ele>
        <time>2019-04-14T12:13:41Z</time>
      </trkpt>
      <trkpt lat="44.43644" lon="1.36671">
        <ele>134</ele>
        <time>2019-04-14T12:13:42Z</time>
      </trkpt>
      <trkpt lat="44.43646" lon="1.36667">
        <ele>134</ele>
        <time>2019-04-14T12:13:43Z</time>
      </trkpt>
      <trkpt lat="44.43648" lon="1.36665">
        <ele>134</ele>
        <time>2019-04-14T12:13:44Z</time>
      </trkpt>
      <trkpt lat="44.43649" lon="1.36662">
        <ele>135</ele>
        <time>2019-04-14T12:13:45Z</time>
      </trkpt>
      <trkpt lat="44.43651" lon="1.36658">
        <ele>135</ele>
        <time>2019-04-14T12:13:46Z</time>
      </trkpt>
      <trkpt lat="44.43652" lon="1.36654">
        <ele>135</ele>
        <time>2019-04-14T12:13:47Z</time>
      </trkpt>
      <trkpt lat="44.43654" lon="1.36651">
        <ele>135</ele>
        <time>2019-04-14T12:13:48Z</time>
      </trkpt>
      <trkpt lat="44.43656" lon="1.36648">
        <ele>135</ele>
        <time>2019-04-14T12:13:49Z</time>
      </trkpt>
      <trkpt lat="44.43658" lon="1.36644">
        <ele>135</ele>
        <time>2019-04-14T12:13:50Z</time>
      </trkpt>
      <trkpt lat="44.4366" lon="1.3664">
        <ele>135</ele>
        <time>2019-04-14T12:13:51Z</time>
      </trkpt>
      <trkpt lat="44.43661" lon="1.36637">
        <ele>135</ele>
        <time>2019-04-14T12:13:52Z</time>
      </trkpt>
      <trkpt lat="44.43663" lon="1.36634">
        <ele>135</ele>
        <time>2019-04-14T12:13:53Z</time>
      </trkpt>
      <trkpt lat="44.43665" lon="1.3663">
        <ele>135</ele>
        <time>2019-04-14T12:13:54Z</time>
      </trkpt>
      <trkpt lat="44.43667" lon="1.36627">
        <ele>135</ele>
        <time>2019-04-14T12:13:55Z</time>
      </trkpt>
      <trkpt lat="44.43669" lon="1.36623">
        <ele>135</ele>
        <time>2019-04-14T12:13:56Z</time>
      </trkpt>
      <trkpt lat="44.43671" lon="1.3662">
        <ele>135</ele>
        <time>2019-04-14T12:13:57Z</time>
      </trkpt>
      <trkpt lat="44.43672" lon="1.36616">
        <ele>135</ele>
        <time>2019-04-14T12:13:58Z</time>
      </trkpt>
      <trkpt lat="44.43674" lon="1.36612">
        <ele>135</ele>
        <time>2019-04-14T12:13:59Z</time>
      </trkpt>
      <trkpt lat="44.43676" lon="1.36609">
        <ele>135</ele>
        <time>2019-04-14T12:14:00Z</time>
      </trkpt>
      <trkpt lat="44.43677" lon="1.36605">
        <ele>135</ele>
        <time>2019-04-14T12:14:01Z</time>
      </trkpt>
      <trkpt lat="44.43678" lon="1.36602">
        <ele>135</ele>
        <time>2019-04-14T12:14:02Z</time>
      </trkpt>
      <trkpt lat="44.43678" lon="1.36599">
        <ele>135</ele>
        <time>2019-04-14T12:14:03Z</time>
      </trkpt>
      <trkpt lat="44.43678" lon="1.36596">
        <ele>135</ele>
        <time>2019-04-14T12:14:04Z</time>
      </trkpt>
      <trkpt lat="44.43678" lon="1.36593">
        <ele>135</ele>
        <time>2019-04-14T12:14:05Z</time>
      </trkpt>
      <trkpt lat="44.43677" lon="1.36591">
        <ele>135</ele>
        <time>2019-04-14T12:14:06Z</time>
      </trkpt>
      <trkpt lat="44.43677" lon="1.36589">
        <ele>135</ele>
        <time>2019-04-14T12:14:07Z</time>
      </trkpt>
      <trkpt lat="44.43676" lon="1.36586">
        <ele>135</ele>
        <time>2019-04-14T12:14:08Z</time>
      </trkpt>
      <trkpt lat="44.43675" lon="1.36583">
        <ele>135</ele>
        <time>2019-04-14T12:14:09Z</time>
      </trkpt>
      <trkpt lat="44.43674" lon="1.3658">
        <ele>135</ele>
        <time>2019-04-14T12:14:10Z</time>
      </trkpt>
      <trkpt lat="44.43673" lon="1.36577">
        <ele>136</ele>
        <time>2019-04-14T12:14:11Z</time>
      </trkpt>
      <trkpt lat="44.43672" lon="1.36575">
        <ele>136</ele>
        <time>2019-04-14T12:14:12Z</time>
      </trkpt>
      <trkpt lat="44.4367" lon="1.36572">
        <ele>136</ele>
        <time>2019-04-14T12:14:13Z</time>
      </trkpt>
      <trkpt lat="44.43669" lon="1.36569">
        <ele>136</ele>
        <time>2019-04-14T12:14:14Z</time>
      </trkpt>
      <trkpt lat="44.43667" lon="1.36566">
        <ele>136</ele>
        <time>2019-04-14T12:14:15Z</time>
      </trkpt>
      <trkpt lat="44.43666" lon="1.36564">
        <ele>136</ele>
        <time>2019-04-14T12:14:16Z</time>
      </trkpt>
      <trkpt lat="44.43665" lon="1.36562">
        <ele>136</ele>
        <time>2019-04-14T12:14:17Z</time>
      </trkpt>
      <trkpt lat="44.43664" lon="1.36559">
        <ele>136</ele>
        <time>2019-04-14T12:14:18Z</time>
      </trkpt>
      <trkpt lat="44.43663" lon="1.36557">
        <ele>136</ele>
        <time>2019-04-14T12:14:19Z</time>
      </trkpt>
      <trkpt lat="44.43662" lon="1.36556">
        <ele>136</ele>
        <time>2019-04-14T12:14:20Z</time>
      </trkpt>
      <trkpt lat="44.43661" lon="1.36555">
        <ele>137</ele>
        <time>2019-04-14T12:14:21Z</time>
      </trkpt>
      <trkpt lat="44.43661" lon="1.36555">
        <ele>137</ele>
        <time>2019-04-14T12:14:22Z</time>
      </trkpt>
      <trkpt lat="44.4366" lon="1.36555">
        <ele>137</ele>
        <time>2019-04-14T12:14:23Z</time>
      </trkpt>
      <trkpt lat="44.43661" lon="1.36555">
        <ele>136</ele>
        <time>2019-04-14T12:14:24Z</time>
      </trkpt>
      <trkpt lat="44.43661" lon="1.36555">
        <ele>136</ele>
        <time>2019-04-14T12:14:25Z</time>
      </trkpt>
      <trkpt lat="44.43661" lon="1.36555">
        <ele>137</ele>
        <time>2019-04-14T12:14:26Z</time>
      </trkpt>
      <trkpt lat="44.43661" lon="1.36555">
        <ele>137</ele>
        <time>2019-04-14T12:14:27Z</time>
      </trkpt>
      <trkpt lat="44.43661" lon="1.36555">
        <ele>137</ele>
        <time>2019-04-14T12:14:28Z</time>
      </trkpt>
      <trkpt lat="44.43676" lon="1.36581">
        <ele>135</ele>
        <time>2019-04-14T12:17:58Z</time>
      </trkpt>
      <trkpt lat="44.43676" lon="1.36586">
        <ele>135</ele>
        <time>2019-04-14T12:17:59Z</time>
      </trkpt>
      <trkpt lat="44.43674" lon="1.36592">
        <ele>135</ele>
        <time>2019-04-14T12:18:00Z</time>
      </trkpt>
      <trkpt lat="44.43671" lon="1.36597">
        <ele>135</ele>
        <time>2019-04-14T12:18:01Z</time>
      </trkpt>
      <trkpt lat="44.43669" lon="1.36601">
        <ele>134</ele>
        <time>2019-04-14T12:18:02Z</time>
      </trkpt>
      <trkpt lat="44.43667" lon="1.36606">
        <ele>134</ele>
        <time>2019-04-14T12:18:03Z</time>
      </trkpt>
      <trkpt lat="44.43665" lon="1.3661">
        <ele>134</ele>
        <time>2019-04-14T12:18:04Z</time>
      </trkpt>
      <trkpt lat="44.43662" lon="1.36613">
        <ele>134</ele>
        <time>2019-04-14T12:18:05Z</time>
      </trkpt>
      <trkpt lat="44.43659" lon="1.36616">
        <ele>134</ele>
        <time>2019-04-14T12:18:06Z</time>
      </trkpt>
      <trkpt lat="44.43656" lon="1.3662">
        <ele>134</ele>
        <time>2019-04-14T12:18:07Z</time>
      </trkpt>
      <trkpt lat="44.43654" lon="1.36625">
        <ele>134</ele>
        <time>2019-04-14T12:18:08Z</time>
      </trkpt>
      <trkpt lat="44.43652" lon="1.36629">
        <ele>134</ele>
        <time>2019-04-14T12:18:09Z</time>
      </trkpt>
      <trkpt lat="44.43649" lon="1.36634">
        <ele>134</ele>
        <time>2019-04-14T12:18:10Z</time>
      </trkpt>
      <trkpt lat="44.43647" lon="1.36639">
        <ele>134</ele>
        <time>2019-04-14T12:18:11Z</time>
      </trkpt>
      <trkpt lat="44.43644" lon="1.36644">
        <ele>134</ele>
        <time>2019-04-14T12:18:12Z</time>
      </trkpt>
      <trkpt lat="44.43642" lon="1.36649">
        <ele>134</ele>
        <time>2019-04-14T12:18:13Z</time>
      </trkpt>
      <trkpt lat="44.4364" lon="1.36654">
        <ele>134</ele>
        <time>2019-04-14T12:18:14Z</time>
      </trkpt>
      <trkpt lat="44.43636" lon="1.36659">
        <ele>134</ele>
        <time>2019-04-14T12:18:15Z</time>
      </trkpt>
      <trkpt lat="44.43634" lon="1.36662">
        <ele>134</ele>
        <time>2019-04-14T12:18:16Z</time>
      </trkpt>
      <trkpt lat="44.43632" lon="1.36665">
        <ele>134</ele>
        <time>2019-04-14T12:18:17Z</time>
      </trkpt>
      <trkpt lat="44.43631" lon="1.36669">
        <ele>134</ele>
        <time>2019-04-14T12:18:18Z</time>
      </trkpt>
      <trkpt lat="44.4363" lon="1.36672">
        <ele>135</ele>
        <time>2019-04-14T12:18:19Z</time>
      </trkpt>
      <trkpt lat="44.43629" lon="1.36677">
        <ele>135</ele>
        <time>2019-04-14T12:18:20Z</time>
      </trkpt>
      <trkpt lat="44.43628" lon="1.36681">
        <ele>135</ele>
        <time>2019-04-14T12:18:21Z</time>
      </trkpt>
      <trkpt lat="44.43626" lon="1.36685">
        <ele>135</ele>
        <time>2019-04-14T12:18:22Z</time>
      </trkpt>
      <trkpt lat="44.43625" lon="1.3669">
        <ele>135</ele>
        <time>2019-04-14T12:18:23Z</time>
      </trkpt>
      <trkpt lat="44.43624" lon="1.36695">
        <ele>135</ele>
        <time>2019-04-14T12:18:24Z</time>
      </trkpt>
      <trkpt lat="44.43623" lon="1.36699">
        <ele>135</ele>
        <time>2019-04-14T12:18:25Z</time>
      </trkpt>
      <trkpt lat="44.43622" lon="1.36705">
        <ele>135</ele>
        <time>2019-04-14T12:18:26Z</time>
      </trkpt>
      <trkpt lat="44.43621" lon="1.3671">
        <ele>136</ele>
        <time>2019-04-14T12:18:27Z</time>
      </trkpt>
      <trkpt lat="44.4362" lon="1.36715">
        <ele>136</ele>
        <time>2019-04-14T12:18:28Z</time>
      </trkpt>
      <trkpt lat="44.43618" lon="1.36721">
        <ele>136</ele>
        <time>2019-04-14T12:18:29Z</time>
      </trkpt>
      <trkpt lat="44.43617" lon="1.36727">
        <ele>136</ele>
        <time>2019-04-14T12:18:30Z</time>
      </trkpt>
      <trkpt lat="44.43616" lon="1.36733">
        <ele>136</ele>
        <time>2019-04-14T12:18:31Z</time>
      </trkpt>
      <trkpt lat="44.43614" lon="1.36738">
        <ele>136</ele>
        <time>2019-04-14T12:18:32Z</time>
      </trkpt>
      <trkpt lat="44.43613" lon="1.36744">
        <ele>137</ele>
        <time>2019-04-14T12:18:33Z</time>
      </trkpt>
      <trkpt lat="44.43612" lon="1.36748">
        <ele>137</ele>
        <time>2019-04-14T12:18:34Z</time>
      </trkpt>
      <trkpt lat="44.43612" lon="1.36751">
        <ele>137</ele>
        <time>2019-04-14T12:18:35Z</time>
      </trkpt>
      <trkpt lat="44.43612" lon="1.36756">
        <ele>137</ele>
        <time>2019-04-14T12:18:36Z</time>
      </trkpt>
      <trkpt lat="44.43612" lon="1.3676">
        <ele>137</ele>
        <time>2019-04-14T12:18:37Z</time>
      </trkpt>
      <trkpt lat="44.43611" lon="1.36763">
        <ele>137</ele>
        <time>2019-04-14T12:18:38Z</time>
      </trkpt>
      <trkpt lat="44.43611" lon="1.36768">
        <ele>137</ele>
        <time>2019-04-14T12:18:39Z</time>
      </trkpt>
      <trkpt lat="44.43611" lon="1.36772">
        <ele>137</ele>
        <time>2019-04-14T12:18:40Z</time>
      </trkpt>
      <trkpt lat="44.43611" lon="1.36778">
        <ele>137</ele>
        <time>2019-04-14T12:18:41Z</time>
      </trkpt>
      <trkpt lat="44.43611" lon="1.36785">
        <ele>137</ele>
        <time>2019-04-14T12:18:42Z</time>
      </trkpt>
      <trkpt lat="44.43611" lon="1.36791">
        <ele>137</ele>
        <time>2019-04-14T12:18:43Z</time>
      </trkpt>
      <trkpt lat="44.43611" lon="1.36796">
        <ele>137</ele>
        <time>2019-04-14T12:18:44Z</time>
      </trkpt>
      <trkpt lat="44.43611" lon="1.36803">
        <ele>137</ele>
        <time>2019-04-14T12:18:45Z</time>
      </trkpt>
      <trkpt lat="44.4361" lon="1.3681">
        <ele>137</ele>
        <time>2019-04-14T12:18:46Z</time>
      </trkpt>
      <trkpt lat="44.43611" lon="1.36815">
        <ele>136</ele>
        <time>2019-04-14T12:18:47Z</time>
      </trkpt>
      <trkpt lat="44.43611" lon="1.36822">
        <ele>136</ele>
        <time>2019-04-14T12:18:48Z</time>
      </trkpt>
      <trkpt lat="44.43611" lon="1.36829">
        <ele>137</ele>
        <time>2019-04-14T12:18:49Z</time>
      </trkpt>
      <trkpt lat="44.43609" lon="1.36836">
        <ele>136</ele>
        <time>2019-04-14T12:18:50Z</time>
      </trkpt>
      <trkpt lat="44.4361" lon="1.36843">
        <ele>137</ele>
        <time>2019-04-14T12:18:51Z</time>
      </trkpt>
      <trkpt lat="44.43611" lon="1.36848">
        <ele>137</ele>
        <time>2019-04-14T12:18:52Z</time>
      </trkpt>
      <trkpt lat="44.43612" lon="1.36854">
        <ele>137</ele>
        <time>2019-04-14T12:18:53Z</time>
      </trkpt>
      <trkpt lat="44.43614" lon="1.36859">
        <ele>137</ele>
        <time>2019-04-14T12:18:54Z</time>
      </trkpt>
      <trkpt lat="44.43615" lon="1.36865">
        <ele>137</ele>
        <time>2019-04-14T12:18:55Z</time>
      </trkpt>
      <trkpt lat="44.43616" lon="1.3687">
        <ele>137</ele>
        <time>2019-04-14T12:18:56Z</time>
      </trkpt>
      <trkpt lat="44.43617" lon="1.36875">
        <ele>137</ele>
        <time>2019-04-14T12:18:57Z</time>
      </trkpt>
      <trkpt lat="44.43617" lon="1.3688">
        <ele>137</ele>
        <time>2019-04-14T12:18:58Z</time>
      </trkpt>
      <trkpt lat="44.43619" lon="1.36885">
        <ele>137</ele>
        <time>2019-04-14T12:18:59Z</time>
      </trkpt>
      <trkpt lat="44.4362" lon="1.36891">
        <ele>137</ele>
        <time>2019-04-14T12:19:00Z</time>
      </trkpt>
      <trkpt lat="44.43622" lon="1.36896">
        <ele>137</ele>
        <time>2019-04-14T12:19:01Z</time>
      </trkpt>
      <trkpt lat="44.43622" lon="1.36901">
        <ele>137</ele>
        <time>2019-04-14T12:19:02Z</time>
      </trkpt>
      <trkpt lat="44.43624" lon="1.36907">
        <ele>137</ele>
        <time>2019-04-14T12:19:03Z</time>
      </trkpt>
      <trkpt lat="44.43625" lon="1.36912">
        <ele>137</ele>
        <time>2019-04-14T12:19:04Z</time>
      </trkpt>
      <trkpt lat="44.43628" lon="1.36918">
        <ele>137</ele>
        <time>2019-04-14T12:19:05Z</time>
      </trkpt>
      <trkpt lat="44.4363" lon="1.36923">
        <ele>137</ele>
        <time>2019-04-14T12:19:06Z</time>
      </trkpt>
      <trkpt lat="44.43632" lon="1.36928">
        <ele>137</ele>
        <time>2019-04-14T12:19:07Z</time>
      </trkpt>
      <trkpt lat="44.43634" lon="1.36934">
        <ele>137</ele>
        <time>2019-04-14T12:19:08Z</time>
      </trkpt>
      <trkpt lat="44.43636" lon="1.36938">
        <ele>138</ele>
        <time>2019-04-14T12:19:09Z</time>
      </trkpt>
      <trkpt lat="44.43638" lon="1.36943">
        <ele>138</ele>
        <time>2019-04-14T12:19:10Z</time>
      </trkpt>
      <trkpt lat="44.43639" lon="1.36947">
        <ele>138</ele>
        <time>2019-04-14T12:19:11Z</time>
      </trkpt>
      <trkpt lat="44.43641" lon="1.36952">
        <ele>138</ele>
        <time>2019-04-14T12:19:12Z</time>
      </trkpt>
      <trkpt lat="44.43642" lon="1.36957">
        <ele>138</ele>
        <time>2019-04-14T12:19:13Z</time>
      </trkpt>
      <trkpt lat="44.43644" lon="1.36962">
        <ele>138</ele>
        <time>2019-04-14T12:19:14Z</time>
      </trkpt>
      <trkpt lat="44.43645" lon="1.36968">
        <ele>138</ele>
        <time>2019-04-14T12:19:15Z</time>
      </trkpt>
      <trkpt lat="44.43646" lon="1.36973">
        <ele>138</ele>
        <time>2019-04-14T12:19:16Z</time>
      </trkpt>
      <trkpt lat="44.43647" lon="1.36978">
        <ele>138</ele>
        <time>2019-04-14T12:19:17Z</time>
      </trkpt>
      <trkpt lat="44.43647" lon="1.36983">
        <ele>139</ele>
        <time>2019-04-14T12:19:18Z</time>
      </trkpt>
      <trkpt lat="44.43647" lon="1.36988">
        <ele>139</ele>
        <time>2019-04-14T12:19:19Z</time>
      </trkpt>
      <trkpt lat="44.43647" lon="1.36993">
        <ele>139</ele>
        <time>2019-04-14T12:19:20Z</time>
      </trkpt>
      <trkpt lat="44.43646" lon="1.36997">
        <ele>139</ele>
        <time>2019-04-14T12:19:21Z</time>
      </trkpt>
      <trkpt lat="44.43646" lon="1.37001">
        <ele>139</ele>
        <time>2019-04-14T12:19:22Z</time>
      </trkpt>
      <trkpt lat="44.43646" lon="1.37006">
        <ele>139</ele>
        <time>2019-04-14T12:19:23Z</time>
      </trkpt>
      <trkpt lat="44.43645" lon="1.37011">
        <ele>139</ele>
        <time>2019-04-14T12:19:24Z</time>
      </trkpt>
      <trkpt lat="44.43644" lon="1.37015">
        <ele>140</ele>
        <time>2019-04-14T12:19:25Z</time>
      </trkpt>
      <trkpt lat="44.43643" lon="1.3702">
        <ele>140</ele>
        <time>2019-04-14T12:19:26Z</time>
      </trkpt>
      <trkpt lat="44.43642" lon="1.37024">
        <ele>140</ele>
        <time>2019-04-14T12:19:27Z</time>
      </trkpt>
      <trkpt lat="44.43641" lon="1.37029">
        <ele>140</ele>
        <time>2019-04-14T12:19:28Z</time>
      </trkpt>
      <trkpt lat="44.4364" lon="1.37034">
        <ele>140</ele>
        <time>2019-04-14T12:19:29Z</time>
      </trkpt>
      <trkpt lat="44.43638" lon="1.37038">
        <ele>140</ele>
        <time>2019-04-14T12:19:30Z</time>
      </trkpt>
      <trkpt lat="44.43637" lon="1.37043">
        <ele>140</ele>
        <time>2019-04-14T12:19:31Z</time>
      </trkpt>
      <trkpt lat="44.43637" lon="1.37048">
        <ele>141</ele>
        <time>2019-04-14T12:19:32Z</time>
      </trkpt>
      <trkpt lat="44.43636" lon="1.37053">
        <ele>141</ele>
        <time>2019-04-14T12:19:33Z</time>
      </trkpt>
      <trkpt lat="44.43635" lon="1.37057">
        <ele>141</ele>
        <time>2019-04-14T12:19:34Z</time>
      </trkpt>
      <trkpt lat="44.43634" lon="1.37062">
        <ele>141</ele>
        <time>2019-04-14T12:19:35Z</time>
      </trkpt>
      <trkpt lat="44.43633" lon="1.37066">
        <ele>141</ele>
        <time>2019-04-14T12:19:36Z</time>
      </trkpt>
      <trkpt lat="44.43632" lon="1.3707">
        <ele>141</ele>
        <time>2019-04-14T12:19:37Z</time>
      </trkpt>
      <trkpt lat="44.4363" lon="1.37075">
        <ele>141</ele>
        <time>2019-04-14T12:19:38Z</time>
      </trkpt>
      <trkpt lat="44.43629" lon="1.37081">
        <ele>141</ele>
        <time>2019-04-14T12:19:39Z</time>
      </trkpt>
      <trkpt lat="44.43628" lon="1.37085">
        <ele>141</ele>
        <time>2019-04-14T12:19:40Z</time>
      </trkpt>
      <trkpt lat="44.43627" lon="1.3709">
        <ele>141</ele>
        <time>2019-04-14T12:19:41Z</time>
      </trkpt>
      <trkpt lat="44.43626" lon="1.37094">
        <ele>141</ele>
        <time>2019-04-14T12:19:42Z</time>
      </trkpt>
      <trkpt lat="44.43625" lon="1.37098">
        <ele>142</ele>
        <time>2019-04-14T12:19:43Z</time>
      </trkpt>
      <trkpt lat="44.43623" lon="1.37101">
        <ele>142</ele>
        <time>2019-04-14T12:19:44Z</time>
      </trkpt>
      <trkpt lat="44.43622" lon="1.37106">
        <ele>142</ele>
        <time>2019-04-14T12:19:45Z</time>
      </trkpt>
      <trkpt lat="44.4362" lon="1.3711">
        <ele>142</ele>
        <time>2019-04-14T12:19:46Z</time>
      </trkpt>
      <trkpt lat="44.43619" lon="1.37113">
        <ele>142</ele>
        <time>2019-04-14T12:19:47Z</time>
      </trkpt>
      <trkpt lat="44.43618" lon="1.37116">
        <ele>142</ele>
        <time>2019-04-14T12:19:48Z</time>
      </trkpt>
      <trkpt lat="44.43617" lon="1.3712">
        <ele>142</ele>
        <time>2019-04-14T12:19:49Z</time>
      </trkpt>
      <trkpt lat="44.43615" lon="1.37124">
        <ele>142</ele>
        <time>2019-04-14T12:19:50Z</time>
      </trkpt>
      <trkpt lat="44.43615" lon="1.37126">
        <ele>142</ele>
        <time>2019-04-14T12:19:51Z</time>
      </trkpt>
      <trkpt lat="44.43614" lon="1.37129">
        <ele>143</ele>
        <time>2019-04-14T12:19:52Z</time>
      </trkpt>
      <trkpt lat="44.43613" lon="1.37133">
        <ele>143</ele>
        <time>2019-04-14T12:19:53Z</time>
      </trkpt>
      <trkpt lat="44.43612" lon="1.37136">
        <ele>143</ele>
        <time>2019-04-14T12:19:54Z</time>
      </trkpt>
      <trkpt lat="44.43612" lon="1.37138">
        <ele>143</ele>
        <time>2019-04-14T12:19:55Z</time>
      </trkpt>
      <trkpt lat="44.43611" lon="1.37142">
        <ele>143</ele>
        <time>2019-04-14T12:19:56Z</time>
      </trkpt>
      <trkpt lat="44.43611" lon="1.37145">
        <ele>143</ele>
        <time>2019-04-14T12:19:57Z</time>
      </trkpt>
      <trkpt lat="44.43611" lon="1.37149">
        <ele>143</ele>
        <time>2019-04-14T12:19:58Z</time>
      </trkpt>
      <trkpt lat="44.4361" lon="1.37151">
        <ele>143</ele>
        <time>2019-04-14T12:19:59Z</time>
      </trkpt>
      <trkpt lat="44.43609" lon="1.37154">
        <ele>143</ele>
        <time>2019-04-14T12:20:00Z</time>
      </trkpt>
      <trkpt lat="44.43608" lon="1.37157">
        <ele>144</ele>
        <time>2019-04-14T12:20:01Z</time>
      </trkpt>
      <trkpt lat="44.43607" lon="1.37161">
        <ele>144</ele>
        <time>2019-04-14T12:20:02Z</time>
      </trkpt>
      <trkpt lat="44.43606" lon="1.37164">
        <ele>144</ele>
        <time>2019-04-14T12:20:03Z</time>
      </trkpt>
      <trkpt lat="44.43606" lon="1.37167">
        <ele>144</ele>
        <time>2019-04-14T12:20:04Z</time>
      </trkpt>
      <trkpt lat="44.43607" lon="1.37169">
        <ele>144</ele>
        <time>2019-04-14T12:20:05Z</time>
      </trkpt>
      <trkpt lat="44.43606" lon="1.37174">
        <ele>144</ele>
        <time>2019-04-14T12:20:06Z</time>
      </trkpt>
      <trkpt lat="44.43605" lon="1.37178">
        <ele>144</ele>
        <time>2019-04-14T12:20:07Z</time>
      </trkpt>
      <trkpt lat="44.43603" lon="1.37182">
        <ele>144</ele>
        <time>2019-04-14T12:20:08Z</time>
      </trkpt>
      <trkpt lat="44.43602" lon="1.37185">
        <ele>144</ele>
        <time>2019-04-14T12:20:09Z</time>
      </trkpt>
      <trkpt lat="44.43602" lon="1.37189">
        <ele>144</ele>
        <time>2019-04-14T12:20:10Z</time>
      </trkpt>
      <trkpt lat="44.436" lon="1.37193">
        <ele>144</ele>
        <time>2019-04-14T12:20:11Z</time>
      </trkpt>
      <trkpt lat="44.43599" lon="1.37198">
        <ele>144</ele>
        <time>2019-04-14T12:20:12Z</time>
      </trkpt>
      <trkpt lat="44.43598" lon="1.37202">
        <ele>144</ele>
        <time>2019-04-14T12:20:13Z</time>
      </trkpt>
      <trkpt lat="44.43597" lon="1.37206">
        <ele>144</ele>
        <time>2019-04-14T12:20:14Z</time>
      </trkpt>
      <trkpt lat="44.43596" lon="1.3721">
        <ele>144</ele>
        <time>2019-04-14T12:20:15Z</time>
      </trkpt>
      <trkpt lat="44.43593" lon="1.37215">
        <ele>144</ele>
        <time>2019-04-14T12:20:16Z</time>
      </trkpt>
      <trkpt lat="44.43591" lon="1.3722">
        <ele>144</ele>
        <time>2019-04-14T12:20:17Z</time>
      </trkpt>
      <trkpt lat="44.4359" lon="1.37224">
        <ele>144</ele>
        <time>2019-04-14T12:20:18Z</time>
      </trkpt>
      <trkpt lat="44.43589" lon="1.37226">
        <ele>144</ele>
        <time>2019-04-14T12:20:19Z</time>
      </trkpt>
      <trkpt lat="44.43588" lon="1.37229">
        <ele>144</ele>
        <time>2019-04-14T12:20:20Z</time>
      </trkpt>
      <trkpt lat="44.43588" lon="1.37231">
        <ele>144</ele>
        <time>2019-04-14T12:20:21Z</time>
      </trkpt>
      <trkpt lat="44.43589" lon="1.37234">
        <ele>144</ele>
        <time>2019-04-14T12:20:22Z</time>
      </trkpt>
      <trkpt lat="44.4359" lon="1.37238">
        <ele>144</ele>
        <time>2019-04-14T12:20:23Z</time>
      </trkpt>
      <trkpt lat="44.43591" lon="1.3724">
        <ele>144</ele>
        <time>2019-04-14T12:20:24Z</time>
      </trkpt>
      <trkpt lat="44.43593" lon="1.37242">
        <ele>143</ele>
        <time>2019-04-14T12:20:25Z</time>
      </trkpt>
      <trkpt lat="44.43595" lon="1.37244">
        <ele>143</ele>
        <time>2019-04-14T12:20:26Z</time>
      </trkpt>
      <trkpt lat="44.43597" lon="1.37247">
        <ele>144</ele>
        <time>2019-04-14T12:20:27Z</time>
      </trkpt>
      <trkpt lat="44.436" lon="1.37248">
        <ele>144</ele>
        <time>2019-04-14T12:20:28Z</time>
      </trkpt>
      <trkpt lat="44.43601" lon="1.3725">
        <ele>144</ele>
        <time>2019-04-14T12:20:29Z</time>
      </trkpt>
      <trkpt lat="44.43603" lon="1.37252">
        <ele>144</ele>
        <time>2019-04-14T12:20:30Z</time>
      </trkpt>
      <trkpt lat="44.43606" lon="1.37253">
        <ele>144</ele>
        <time>2019-04-14T12:20:31Z</time>
      </trkpt>
      <trkpt lat="44.43607" lon="1.37255">
        <ele>144</ele>
        <time>2019-04-14T12:20:32Z</time>
      </trkpt>
      <trkpt lat="44.43609" lon="1.37257">
        <ele>144</ele>
        <time>2019-04-14T12:20:33Z</time>
      </trkpt>
      <trkpt lat="44.43611" lon="1.37258">
        <ele>144</ele>
        <time>2019-04-14T12:20:34Z</time>
      </trkpt>
      <trkpt lat="44.43613" lon="1.37259">
        <ele>144</ele>
        <time>2019-04-14T12:20:35Z</time>
      </trkpt>
      <trkpt lat="44.43614" lon="1.37259">
        <ele>145</ele>
        <time>2019-04-14T12:20:36Z</time>
      </trkpt>
      <trkpt lat="44.43615" lon="1.37261">
        <ele>145</ele>
        <time>2019-04-14T12:20:37Z</time>
      </trkpt>
      <trkpt lat="44.43616" lon="1.37264">
        <ele>145</ele>
        <time>2019-04-14T12:20:38Z</time>
      </trkpt>
      <trkpt lat="44.43616" lon="1.37266">
        <ele>145</ele>
        <time>2019-04-14T12:20:39Z</time>
      </trkpt>
      <trkpt lat="44.43616" lon="1.37268">
        <ele>145</ele>
        <time>2019-04-14T12:20:40Z</time>
      </trkpt>
      <trkpt lat="44.43615" lon="1.37271">
        <ele>145</ele>
        <time>2019-04-14T12:20:41Z</time>
      </trkpt>
      <trkpt lat="44.43614" lon="1.37274">
        <ele>145</ele>
        <time>2019-04-14T12:20:42Z</time>
      </trkpt>
      <trkpt lat="44.43613" lon="1.37277">
        <ele>145</ele>
        <time>2019-04-14T12:20:43Z</time>
      </trkpt>
      <trkpt lat="44.43612" lon="1.3728">
        <ele>145</ele>
        <time>2019-04-14T12:20:44Z</time>
      </trkpt>
      <trkpt lat="44.4361" lon="1.37283">
        <ele>145</ele>
        <time>2019-04-14T12:20:45Z</time>
      </trkpt>
      <trkpt lat="44.43609" lon="1.37287">
        <ele>145</ele>
        <time>2019-04-14T12:20:46Z</time>
      </trkpt>
      <trkpt lat="44.43607" lon="1.37291">
        <ele>145</ele>
        <time>2019-04-14T12:20:47Z</time>
      </trkpt>
      <trkpt lat="44.43606" lon="1.37295">
        <ele>145</ele>
        <time>2019-04-14T12:20:48Z</time>
      </trkpt>
      <trkpt lat="44.43604" lon="1.37299">
        <ele>145</ele>
        <time>2019-04-14T12:20:49Z</time>
      </trkpt>
      <trkpt lat="44.43602" lon="1.37303">
        <ele>145</ele>
        <time>2019-04-14T12:20:50Z</time>
      </trkpt>
      <trkpt lat="44.43601" lon="1.37307">
        <ele>145</ele>
        <time>2019-04-14T12:20:51Z</time>
      </trkpt>
      <trkpt lat="44.43599" lon="1.3731">
        <ele>145</ele>
        <time>2019-04-14T12:20:52Z</time>
      </trkpt>
      <trkpt lat="44.43597" lon="1.37314">
        <ele>145</ele>
        <time>2019-04-14T12:20:53Z</time>
      </trkpt>
      <trkpt lat="44.43596" lon="1.37319">
        <ele>145</ele>
        <time>2019-04-14T12:20:54Z</time>
      </trkpt>
      <trkpt lat="44.43594" lon="1.37321">
        <ele>145</ele>
        <time>2019-04-14T12:20:55Z</time>
      </trkpt>
      <trkpt lat="44.43591" lon="1.37323">
        <ele>145</ele>
        <time>2019-04-14T12:20:56Z</time>
      </trkpt>
      <trkpt lat="44.43588" lon="1.37326">
        <ele>145</ele>
        <time>2019-04-14T12:20:57Z</time>
      </trkpt>
      <trkpt lat="44.43586" lon="1.37328">
        <ele>145</ele>
        <time>2019-04-14T12:20:58Z</time>
      </trkpt>
      <trkpt lat="44.43583" lon="1.37331">
        <ele>145</ele>
        <time>2019-04-14T12:20:59Z</time>
      </trkpt>
      <trkpt lat="44.4358" lon="1.37335">
        <ele>145</ele>
        <time>2019-04-14T12:21:00Z</time>
      </trkpt>
      <trkpt lat="44.43577" lon="1.37339">
        <ele>145</ele>
        <time>2019-04-14T12:21:01Z</time>
      </trkpt>
      <trkpt lat="44.43574" lon="1.37342">
        <ele>145</ele>
        <time>2019-04-14T12:21:02Z</time>
      </trkpt>
      <trkpt lat="44.43571" lon="1.37346">
        <ele>145</ele>
        <time>2019-04-14T12:21:03Z</time>
      </trkpt>
      <trkpt lat="44.43568" lon="1.3735">
        <ele>145</ele>
        <time>2019-04-14T12:21:04Z</time>
      </trkpt>
      <trkpt lat="44.43567" lon="1.37355">
        <ele>145</ele>
        <time>2019-04-14T12:21:05Z</time>
      </trkpt>
      <trkpt lat="44.43565" lon="1.37359">
        <ele>145</ele>
        <time>2019-04-14T12:21:06Z</time>
      </trkpt>
      <trkpt lat="44.43562" lon="1.37363">
        <ele>145</ele>
        <time>2019-04-14T12:21:07Z</time>
      </trkpt>
      <trkpt lat="44.43561" lon="1.37367">
        <ele>145</ele>
        <time>2019-04-14T12:21:08Z</time>
      </trkpt>
      <trkpt lat="44.43559" lon="1.37372">
        <ele>145</ele>
        <time>2019-04-14T12:21:09Z</time>
      </trkpt>
      <trkpt lat="44.43555" lon="1.37374">
        <ele>145</ele>
        <time>2019-04-14T12:21:10Z</time>
      </trkpt>
      <trkpt lat="44.43552" lon="1.37376">
        <ele>145</ele>
        <time>2019-04-14T12:21:11Z</time>
      </trkpt>
      <trkpt lat="44.43548" lon="1.37378">
        <ele>145</ele>
        <time>2019-04-14T12:21:12Z</time>
      </trkpt>
      <trkpt lat="44.43543" lon="1.37378">
        <ele>145</ele>
        <time>2019-04-14T12:21:13Z</time>
      </trkpt>
      <trkpt lat="44.43538" lon="1.37378">
        <ele>145</ele>
        <time>2019-04-14T12:21:14Z</time>
      </trkpt>
      <trkpt lat="44.43534" lon="1.3738">
        <ele>145</ele>
        <time>2019-04-14T12:21:15Z</time>
      </trkpt>
      <trkpt lat="44.43529" lon="1.37384">
        <ele>145</ele>
        <time>2019-04-14T12:21:16Z</time>
      </trkpt>
      <trkpt lat="44.43525" lon="1.37387">
        <ele>145</ele>
        <time>2019-04-14T12:21:17Z</time>
      </trkpt>
      <trkpt lat="44.43522" lon="1.37389">
        <ele>145</ele>
        <time>2019-04-14T12:21:18Z</time>
      </trkpt>
      <trkpt lat="44.43518" lon="1.37391">
        <ele>145</ele>
        <time>2019-04-14T12:21:19Z</time>
      </trkpt>
      <trkpt lat="44.43514" lon="1.37392">
        <ele>146</ele>
        <time>2019-04-14T12:21:20Z</time>
      </trkpt>
      <trkpt lat="44.4351" lon="1.37393">
        <ele>145</ele>
        <time>2019-04-14T12:21:21Z</time>
      </trkpt>
      <trkpt lat="44.43507" lon="1.37395">
        <ele>145</ele>
        <time>2019-04-14T12:21:22Z</time>
      </trkpt>
      <trkpt lat="44.43503" lon="1.37396">
        <ele>146</ele>
        <time>2019-04-14T12:21:23Z</time>
      </trkpt>
      <trkpt lat="44.435" lon="1.37397">
        <ele>146</ele>
        <time>2019-04-14T12:21:24Z</time>
      </trkpt>
      <trkpt lat="44.43497" lon="1.37396">
        <ele>146</ele>
        <time>2019-04-14T12:21:25Z</time>
      </trkpt>
      <trkpt lat="44.43494" lon="1.37396">
        <ele>146</ele>
        <time>2019-04-14T12:21:26Z</time>
      </trkpt>
      <trkpt lat="44.43491" lon="1.37397">
        <ele>146</ele>
        <time>2019-04-14T12:21:27Z</time>
      </trkpt>
      <trkpt lat="44.43488" lon="1.374">
        <ele>146</ele>
        <time>2019-04-14T12:21:28Z</time>
      </trkpt>
      <trkpt lat="44.43486" lon="1.37402">
        <ele>146</ele>
        <time>2019-04-14T12:21:29Z</time>
      </trkpt>
      <trkpt lat="44.43483" lon="1.37403">
        <ele>147</ele>
        <time>2019-04-14T12:21:30Z</time>
      </trkpt>
      <trkpt lat="44.43481" lon="1.37403">
        <ele>147</ele>
        <time>2019-04-14T12:21:31Z</time>
      </trkpt>
      <trkpt lat="44.43478" lon="1.37403">
        <ele>147</ele>
        <time>2019-04-14T12:21:32Z</time>
      </trkpt>
      <trkpt lat="44.43474" lon="1.37405">
        <ele>147</ele>
        <time>2019-04-14T12:21:33Z</time>
      </trkpt>
      <trkpt lat="44.43471" lon="1.37407">
        <ele>147</ele>
        <time>2019-04-14T12:21:34Z</time>
      </trkpt>
      <trkpt lat="44.43467" lon="1.37408">
        <ele>147</ele>
        <time>2019-04-14T12:21:35Z</time>
      </trkpt>
      <trkpt lat="44.43463" lon="1.37412">
        <ele>147</ele>
        <time>2019-04-14T12:21:36Z</time>
      </trkpt>
      <trkpt lat="44.43461" lon="1.37415">
        <ele>148</ele>
        <time>2019-04-14T12:21:37Z</time>
      </trkpt>
      <trkpt lat="44.43458" lon="1.37417">
        <ele>148</ele>
        <time>2019-04-14T12:21:38Z</time>
      </trkpt>
      <trkpt lat="44.43454" lon="1.37417">
        <ele>149</ele>
        <time>2019-04-14T12:21:39Z</time>
      </trkpt>
      <trkpt lat="44.4345" lon="1.37416">
        <ele>148</ele>
        <time>2019-04-14T12:21:40Z</time>
      </trkpt>
      <trkpt lat="44.43446" lon="1.37416">
        <ele>148</ele>
        <time>2019-04-14T12:21:41Z</time>
      </trkpt>
      <trkpt lat="44.43443" lon="1.37418">
        <ele>148</ele>
        <time>2019-04-14T12:21:42Z</time>
      </trkpt>
      <trkpt lat="44.4344" lon="1.3742">
        <ele>148</ele>
        <time>2019-04-14T12:21:43Z</time>
      </trkpt>
      <trkpt lat="44.43437" lon="1.37421">
        <ele>148</ele>
        <time>2019-04-14T12:21:44Z</time>
      </trkpt>
      <trkpt lat="44.43433" lon="1.37422">
        <ele>148</ele>
        <time>2019-04-14T12:21:45Z</time>
      </trkpt>
      <trkpt lat="44.43429" lon="1.37423">
        <ele>148</ele>
        <time>2019-04-14T12:21:46Z</time>
      </trkpt>
      <trkpt lat="44.43426" lon="1.37424">
        <ele>148</ele>
        <time>2019-04-14T12:21:47Z</time>
      </trkpt>
      <trkpt lat="44.43422" lon="1.37426">
        <ele>148</ele>
        <time>2019-04-14T12:21:48Z</time>
      </trkpt>
      <trkpt lat="44.43419" lon="1.37428">
        <ele>148</ele>
        <time>2019-04-14T12:21:49Z</time>
      </trkpt>
      <trkpt lat="44.43416" lon="1.3743">
        <ele>148</ele>
        <time>2019-04-14T12:21:50Z</time>
      </trkpt>
      <trkpt lat="44.43412" lon="1.37429">
        <ele>148</ele>
        <time>2019-04-14T12:21:51Z</time>
      </trkpt>
      <trkpt lat="44.43408" lon="1.37428">
        <ele>148</ele>
        <time>2019-04-14T12:21:52Z</time>
      </trkpt>
      <trkpt lat="44.43404" lon="1.37429">
        <ele>148</ele>
        <time>2019-04-14T12:21:53Z</time>
      </trkpt>
      <trkpt lat="44.434" lon="1.3743">
        <ele>148</ele>
        <time>2019-04-14T12:21:54Z</time>
      </trkpt>
      <trkpt lat="44.43397" lon="1.37431">
        <ele>148</ele>
        <time>2019-04-14T12:21:55Z</time>
      </trkpt>
      <trkpt lat="44.43395" lon="1.37432">
        <ele>148</ele>
        <time>2019-04-14T12:21:56Z</time>
      </trkpt>
      <trkpt lat="44.43393" lon="1.37433">
        <ele>148</ele>
        <time>2019-04-14T12:21:57Z</time>
      </trkpt>
      <trkpt lat="44.43392" lon="1.37434">
        <ele>148</ele>
        <time>2019-04-14T12:21:58Z</time>
      </trkpt>
      <trkpt lat="44.43391" lon="1.37434">
        <ele>148</ele>
        <time>2019-04-14T12:21:59Z</time>
      </trkpt>
      <trkpt lat="44.4339" lon="1.37435">
        <ele>148</ele>
        <time>2019-04-14T12:22:00Z</time>
      </trkpt>
      <trkpt lat="44.43389" lon="1.37436">
        <ele>148</ele>
        <time>2019-04-14T12:22:01Z</time>
      </trkpt>
      <trkpt lat="44.43388" lon="1.37437">
        <ele>148</ele>
        <time>2019-04-14T12:22:02Z</time>
      </trkpt>
      <trkpt lat="44.43385" lon="1.37439">
        <ele>149</ele>
        <time>2019-04-14T12:22:03Z</time>
      </trkpt>
      <trkpt lat="44.43383" lon="1.37441">
        <ele>149</ele>
        <time>2019-04-14T12:22:04Z</time>
      </trkpt>
      <trkpt lat="44.43383" lon="1.37442">
        <ele>149</ele>
        <time>2019-04-14T12:22:05Z</time>
      </trkpt>
      <trkpt lat="44.43383" lon="1.37442">
        <ele>149</ele>
        <time>2019-04-14T12:22:06Z</time>
      </trkpt>
      <trkpt lat="44.43382" lon="1.37442">
        <ele>149</ele>
        <time>2019-04-14T12:22:07Z</time>
      </trkpt>
      <trkpt lat="44.43382" lon="1.37441">
        <ele>149</ele>
        <time>2019-04-14T12:22:08Z</time>
      </trkpt>
      <trkpt lat="44.43381" lon="1.37441">
        <ele>149</ele>
        <time>2019-04-14T12:22:09Z</time>
      </trkpt>
      <trkpt lat="44.43381" lon="1.37441">
        <ele>149</ele>
        <time>2019-04-14T12:22:10Z</time>
      </trkpt>
      <trkpt lat="44.43381" lon="1.3744">
        <ele>149</ele>
        <time>2019-04-14T12:22:11Z</time>
      </trkpt>
      <trkpt lat="44.43381" lon="1.3744">
        <ele>149</ele>
        <time>2019-04-14T12:22:12Z</time>
      </trkpt>
      <trkpt lat="44.43356" lon="1.37453">
        <ele>149</ele>
        <time>2019-04-14T12:24:24Z</time>
      </trkpt>
      <trkpt lat="44.43354" lon="1.37456">
        <ele>149</ele>
        <time>2019-04-14T12:24:25Z</time>
      </trkpt>
      <trkpt lat="44.43351" lon="1.37457">
        <ele>150</ele>
        <time>2019-04-14T12:24:26Z</time>
      </trkpt>
      <trkpt lat="44.43349" lon="1.37459">
        <ele>150</ele>
        <time>2019-04-14T12:24:27Z</time>
      </trkpt>
      <trkpt lat="44.43348" lon="1.37459">
        <ele>150</ele>
        <time>2019-04-14T12:24:28Z</time>
      </trkpt>
      <trkpt lat="44.43345" lon="1.3746">
        <ele>150</ele>
        <time>2019-04-14T12:24:29Z</time>
      </trkpt>
      <trkpt lat="44.43343" lon="1.37461">
        <ele>150</ele>
        <time>2019-04-14T12:24:30Z</time>
      </trkpt>
      <trkpt lat="44.43341" lon="1.37462">
        <ele>150</ele>
        <time>2019-04-14T12:24:31Z</time>
      </trkpt>
      <trkpt lat="44.43339" lon="1.37463">
        <ele>150</ele>
        <time>2019-04-14T12:24:32Z</time>
      </trkpt>
      <trkpt lat="44.43336" lon="1.37464">
        <ele>150</ele>
        <time>2019-04-14T12:24:33Z</time>
      </trkpt>
      <trkpt lat="44.43334" lon="1.37466">
        <ele>150</ele>
        <time>2019-04-14T12:24:34Z</time>
      </trkpt>
      <trkpt lat="44.43332" lon="1.37468">
        <ele>150</ele>
        <time>2019-04-14T12:24:35Z</time>
      </trkpt>
      <trkpt lat="44.4333" lon="1.37469">
        <ele>150</ele>
        <time>2019-04-14T12:24:36Z</time>
      </trkpt>
      <trkpt lat="44.43329" lon="1.37471">
        <ele>151</ele>
        <time>2019-04-14T12:24:37Z</time>
      </trkpt>
      <trkpt lat="44.43327" lon="1.37473">
        <ele>151</ele>
        <time>2019-04-14T12:24:38Z</time>
      </trkpt>
      <trkpt lat="44.43326" lon="1.37474">
        <ele>151</ele>
        <time>2019-04-14T12:24:39Z</time>
      </trkpt>
      <trkpt lat="44.43323" lon="1.37474">
        <ele>151</ele>
        <time>2019-04-14T12:24:40Z</time>
      </trkpt>
      <trkpt lat="44.43322" lon="1.37475">
        <ele>151</ele>
        <time>2019-04-14T12:24:41Z</time>
      </trkpt>
      <trkpt lat="44.43321" lon="1.37476">
        <ele>151</ele>
        <time>2019-04-14T12:24:42Z</time>
      </trkpt>
      <trkpt lat="44.43319" lon="1.37478">
        <ele>151</ele>
        <time>2019-04-14T12:24:43Z</time>
      </trkpt>
      <trkpt lat="44.43317" lon="1.3748">
        <ele>151</ele>
        <time>2019-04-14T12:24:44Z</time>
      </trkpt>
      <trkpt lat="44.43314" lon="1.37482">
        <ele>151</ele>
        <time>2019-04-14T12:24:45Z</time>
      </trkpt>
      <trkpt lat="44.43312" lon="1.37483">
        <ele>151</ele>
        <time>2019-04-14T12:24:46Z</time>
      </trkpt>
      <trkpt lat="44.4331" lon="1.37485">
        <ele>152</ele>
        <time>2019-04-14T12:24:47Z</time>
      </trkpt>
      <trkpt lat="44.43308" lon="1.37486">
        <ele>152</ele>
        <time>2019-04-14T12:24:48Z</time>
      </trkpt>
      <trkpt lat="44.43306" lon="1.37487">
        <ele>152</ele>
        <time>2019-04-14T12:24:49Z</time>
      </trkpt>
      <trkpt lat="44.43304" lon="1.37488">
        <ele>152</ele>
        <time>2019-04-14T12:24:50Z</time>
      </trkpt>
      <trkpt lat="44.43303" lon="1.37489">
        <ele>152</ele>
        <time>2019-04-14T12:24:51Z</time>
      </trkpt>
      <trkpt lat="44.433" lon="1.37491">
        <ele>152</ele>
        <time>2019-04-14T12:24:52Z</time>
      </trkpt>
      <trkpt lat="44.43298" lon="1.37492">
        <ele>153</ele>
        <time>2019-04-14T12:24:53Z</time>
      </trkpt>
      <trkpt lat="44.43297" lon="1.37493">
        <ele>153</ele>
        <time>2019-04-14T12:24:54Z</time>
      </trkpt>
      <trkpt lat="44.43296" lon="1.37493">
        <ele>153</ele>
        <time>2019-04-14T12:24:55Z</time>
      </trkpt>
      <trkpt lat="44.43296" lon="1.37493">
        <ele>153</ele>
        <time>2019-04-14T12:24:56Z</time>
      </trkpt>
      <trkpt lat="44.43294" lon="1.37493">
        <ele>153</ele>
        <time>2019-04-14T12:24:57Z</time>
      </trkpt>
      <trkpt lat="44.43291" lon="1.37493">
        <ele>152</ele>
        <time>2019-04-14T12:24:58Z</time>
      </trkpt>
      <trkpt lat="44.43287" lon="1.37494">
        <ele>152</ele>
        <time>2019-04-14T12:24:59Z</time>
      </trkpt>
      <trkpt lat="44.43284" lon="1.37495">
        <ele>152</ele>
        <time>2019-04-14T12:25:00Z</time>
      </trkpt>
      <trkpt lat="44.43281" lon="1.37497">
        <ele>152</ele>
        <time>2019-04-14T12:25:01Z</time>
      </trkpt>
      <trkpt lat="44.43279" lon="1.37499">
        <ele>152</ele>
        <time>2019-04-14T12:25:02Z</time>
      </trkpt>
      <trkpt lat="44.43277" lon="1.37501">
        <ele>152</ele>
        <time>2019-04-14T12:25:03Z</time>
      </trkpt>
      <trkpt lat="44.43274" lon="1.37503">
        <ele>152</ele>
        <time>2019-04-14T12:25:04Z</time>
      </trkpt>
      <trkpt lat="44.43271" lon="1.37503">
        <ele>152</ele>
        <time>2019-04-14T12:25:05Z</time>
      </trkpt>
      <trkpt lat="44.43268" lon="1.37503">
        <ele>152</ele>
        <time>2019-04-14T12:25:06Z</time>
      </trkpt>
      <trkpt lat="44.43265" lon="1.37506">
        <ele>152</ele>
        <time>2019-04-14T12:25:07Z</time>
      </trkpt>
      <trkpt lat="44.43263" lon="1.37508">
        <ele>152</ele>
        <time>2019-04-14T12:25:08Z</time>
      </trkpt>
      <trkpt lat="44.43261" lon="1.3751">
        <ele>152</ele>
        <time>2019-04-14T12:25:09Z</time>
      </trkpt>
      <trkpt lat="44.43259" lon="1.37511">
        <ele>152</ele>
        <time>2019-04-14T12:25:10Z</time>
      </trkpt>
      <trkpt lat="44.43257" lon="1.37513">
        <ele>152</ele>
        <time>2019-04-14T12:25:11Z</time>
      </trkpt>
      <trkpt lat="44.43255" lon="1.37514">
        <ele>153</ele>
        <time>2019-04-14T12:25:12Z</time>
      </trkpt>
      <trkpt lat="44.43252" lon="1.37515">
        <ele>152</ele>
        <time>2019-04-14T12:25:13Z</time>
      </trkpt>
      <trkpt lat="44.43248" lon="1.37516">
        <ele>152</ele>
        <time>2019-04-14T12:25:14Z</time>
      </trkpt>
      <trkpt lat="44.43246" lon="1.37519">
        <ele>152</ele>
        <time>2019-04-14T12:25:15Z</time>
      </trkpt>
      <trkpt lat="44.43244" lon="1.37521">
        <ele>152</ele>
        <time>2019-04-14T12:25:16Z</time>
      </trkpt>
      <trkpt lat="44.43242" lon="1.37523">
        <ele>152</ele>
        <time>2019-04-14T12:25:17Z</time>
      </trkpt>
      <trkpt lat="44.4324" lon="1.37524">
        <ele>152</ele>
        <time>2019-04-14T12:25:18Z</time>
      </trkpt>
      <trkpt lat="44.43237" lon="1.37525">
        <ele>152</ele>
        <time>2019-04-14T12:25:19Z</time>
      </trkpt>
      <trkpt lat="44.43234" lon="1.37527">
        <ele>153</ele>
        <time>2019-04-14T12:25:20Z</time>
      </trkpt>
      <trkpt lat="44.43231" lon="1.37528">
        <ele>152</ele>
        <time>2019-04-14T12:25:21Z</time>
      </trkpt>
      <trkpt lat="44.43228" lon="1.37529">
        <ele>153</ele>
        <time>2019-04-14T12:25:22Z</time>
      </trkpt>
      <trkpt lat="44.43226" lon="1.37531">
        <ele>153</ele>
        <time>2019-04-14T12:25:23Z</time>
      </trkpt>
      <trkpt lat="44.43223" lon="1.37533">
        <ele>153</ele>
        <time>2019-04-14T12:25:24Z</time>
      </trkpt>
      <trkpt lat="44.43221" lon="1.37536">
        <ele>153</ele>
        <time>2019-04-14T12:25:25Z</time>
      </trkpt>
      <trkpt lat="44.43219" lon="1.37537">
        <ele>153</ele>
        <time>2019-04-14T12:25:26Z</time>
      </trkpt>
      <trkpt lat="44.43217" lon="1.37538">
        <ele>153</ele>
        <time>2019-04-14T12:25:27Z</time>
      </trkpt>
      <trkpt lat="44.43215" lon="1.37539">
        <ele>153</ele>
        <time>2019-04-14T12:25:28Z</time>
      </trkpt>
      <trkpt lat="44.43214" lon="1.3754">
        <ele>153</ele>
        <time>2019-04-14T12:25:29Z</time>
      </trkpt>
      <trkpt lat="44.43212" lon="1.37542">
        <ele>153</ele>
        <time>2019-04-14T12:25:30Z</time>
      </trkpt>
      <trkpt lat="44.43209" lon="1.37544">
        <ele>153</ele>
        <time>2019-04-14T12:25:31Z</time>
      </trkpt>
      <trkpt lat="44.43207" lon="1.37547">
        <ele>153</ele>
        <time>2019-04-14T12:25:32Z</time>
      </trkpt>
      <trkpt lat="44.43204" lon="1.37549">
        <ele>153</ele>
        <time>2019-04-14T12:25:33Z</time>
      </trkpt>
      <trkpt lat="44.43202" lon="1.37553">
        <ele>153</ele>
        <time>2019-04-14T12:25:34Z</time>
      </trkpt>
      <trkpt lat="44.432" lon="1.37557">
        <ele>153</ele>
        <time>2019-04-14T12:25:35Z</time>
      </trkpt>
      <trkpt lat="44.43198" lon="1.37561">
        <ele>154</ele>
        <time>2019-04-14T12:25:36Z</time>
      </trkpt>
      <trkpt lat="44.43196" lon="1.37564">
        <ele>154</ele>
        <time>2019-04-14T12:25:37Z</time>
      </trkpt>
      <trkpt lat="44.43193" lon="1.37567">
        <ele>154</ele>
        <time>2019-04-14T12:25:38Z</time>
      </trkpt>
      <trkpt lat="44.43192" lon="1.37571">
        <ele>154</ele>
        <time>2019-04-14T12:25:39Z</time>
      </trkpt>
      <trkpt lat="44.4319" lon="1.37575">
        <ele>154</ele>
        <time>2019-04-14T12:25:40Z</time>
      </trkpt>
      <trkpt lat="44.43189" lon="1.37579">
        <ele>155</ele>
        <time>2019-04-14T12:25:41Z</time>
      </trkpt>
      <trkpt lat="44.43189" lon="1.37583">
        <ele>155</ele>
        <time>2019-04-14T12:25:42Z</time>
      </trkpt>
      <trkpt lat="44.43188" lon="1.37585">
        <ele>155</ele>
        <time>2019-04-14T12:25:43Z</time>
      </trkpt>
      <trkpt lat="44.43188" lon="1.37588">
        <ele>156</ele>
        <time>2019-04-14T12:25:44Z</time>
      </trkpt>
      <trkpt lat="44.43187" lon="1.3759">
        <ele>156</ele>
        <time>2019-04-14T12:25:45Z</time>
      </trkpt>
      <trkpt lat="44.43186" lon="1.37592">
        <ele>156</ele>
        <time>2019-04-14T12:25:46Z</time>
      </trkpt>
      <trkpt lat="44.43185" lon="1.37594">
        <ele>157</ele>
        <time>2019-04-14T12:25:47Z</time>
      </trkpt>
      <trkpt lat="44.43183" lon="1.37595">
        <ele>156</ele>
        <time>2019-04-14T12:25:48Z</time>
      </trkpt>
      <trkpt lat="44.43182" lon="1.37597">
        <ele>156</ele>
        <time>2019-04-14T12:25:49Z</time>
      </trkpt>
      <trkpt lat="44.43181" lon="1.376">
        <ele>157</ele>
        <time>2019-04-14T12:25:50Z</time>
      </trkpt>
      <trkpt lat="44.4318" lon="1.37603">
        <ele>157</ele>
        <time>2019-04-14T12:25:51Z</time>
      </trkpt>
      <trkpt lat="44.43178" lon="1.37604">
        <ele>157</ele>
        <time>2019-04-14T12:25:52Z</time>
      </trkpt>
      <trkpt lat="44.43174" lon="1.37608">
        <ele>157</ele>
        <time>2019-04-14T12:25:53Z</time>
      </trkpt>
      <trkpt lat="44.43171" lon="1.37612">
        <ele>156</ele>
        <time>2019-04-14T12:25:54Z</time>
      </trkpt>
      <trkpt lat="44.43169" lon="1.37616">
        <ele>156</ele>
        <time>2019-04-14T12:25:55Z</time>
      </trkpt>
      <trkpt lat="44.43168" lon="1.3762">
        <ele>157</ele>
        <time>2019-04-14T12:25:56Z</time>
      </trkpt>
      <trkpt lat="44.43168" lon="1.37623">
        <ele>157</ele>
        <time>2019-04-14T12:25:57Z</time>
      </trkpt>
      <trkpt lat="44.43168" lon="1.37627">
        <ele>157</ele>
        <time>2019-04-14T12:25:58Z</time>
      </trkpt>
      <trkpt lat="44.43167" lon="1.37631">
        <ele>157</ele>
        <time>2019-04-14T12:25:59Z</time>
      </trkpt>
      <trkpt lat="44.43167" lon="1.37634">
        <ele>158</ele>
        <time>2019-04-14T12:26:00Z</time>
      </trkpt>
      <trkpt lat="44.43166" lon="1.37638">
        <ele>158</ele>
        <time>2019-04-14T12:26:01Z</time>
      </trkpt>
      <trkpt lat="44.43164" lon="1.37641">
        <ele>158</ele>
        <time>2019-04-14T12:26:02Z</time>
      </trkpt>
      <trkpt lat="44.43163" lon="1.37644">
        <ele>158</ele>
        <time>2019-04-14T12:26:03Z</time>
      </trkpt>
      <trkpt lat="44.43161" lon="1.37646">
        <ele>158</ele>
        <time>2019-04-14T12:26:04Z</time>
      </trkpt>
      <trkpt lat="44.43161" lon="1.37649">
        <ele>158</ele>
        <time>2019-04-14T12:26:05Z</time>
      </trkpt>
      <trkpt lat="44.43161" lon="1.37653">
        <ele>158</ele>
        <time>2019-04-14T12:26:06Z</time>
      </trkpt>
      <trkpt lat="44.43162" lon="1.37657">
        <ele>158</ele>
        <time>2019-04-14T12:26:07Z</time>
      </trkpt>
      <trkpt lat="44.43163" lon="1.3766">
        <ele>159</ele>
        <time>2019-04-14T12:26:08Z</time>
      </trkpt>
      <trkpt lat="44.43163" lon="1.37662">
        <ele>159</ele>
        <time>2019-04-14T12:26:09Z</time>
      </trkpt>
      <trkpt lat="44.43163" lon="1.37665">
        <ele>160</ele>
        <time>2019-04-14T12:26:10Z</time>
      </trkpt>
      <trkpt lat="44.43163" lon="1.37667">
        <ele>160</ele>
        <time>2019-04-14T12:26:11Z</time>
      </trkpt>
      <trkpt lat="44.43162" lon="1.3767">
        <ele>160</ele>
        <time>2019-04-14T12:26:12Z</time>
      </trkpt>
      <trkpt lat="44.43161" lon="1.37672">
        <ele>160</ele>
        <time>2019-04-14T12:26:13Z</time>
      </trkpt>
      <trkpt lat="44.43158" lon="1.37674">
        <ele>160</ele>
        <time>2019-04-14T12:26:14Z</time>
      </trkpt>
      <trkpt lat="44.43156" lon="1.37678">
        <ele>159</ele>
        <time>2019-04-14T12:26:15Z</time>
      </trkpt>
      <trkpt lat="44.43154" lon="1.37681">
        <ele>159</ele>
        <time>2019-04-14T12:26:16Z</time>
      </trkpt>
      <trkpt lat="44.43152" lon="1.37684">
        <ele>159</ele>
        <time>2019-04-14T12:26:17Z</time>
      </trkpt>
      <trkpt lat="44.4315" lon="1.37687">
        <ele>159</ele>
        <time>2019-04-14T12:26:18Z</time>
      </trkpt>
      <trkpt lat="44.43147" lon="1.37689">
        <ele>159</ele>
        <time>2019-04-14T12:26:19Z</time>
      </trkpt>
      <trkpt lat="44.43143" lon="1.37688">
        <ele>159</ele>
        <time>2019-04-14T12:26:20Z</time>
      </trkpt>
      <trkpt lat="44.43141" lon="1.37686">
        <ele>159</ele>
        <time>2019-04-14T12:26:21Z</time>
      </trkpt>
      <trkpt lat="44.43138" lon="1.37683">
        <ele>159</ele>
        <time>2019-04-14T12:26:22Z</time>
      </trkpt>
      <trkpt lat="44.43136" lon="1.37681">
        <ele>158</ele>
        <time>2019-04-14T12:26:23Z</time>
      </trkpt>
      <trkpt lat="44.43136" lon="1.37678">
        <ele>158</ele>
        <time>2019-04-14T12:26:24Z</time>
      </trkpt>
      <trkpt lat="44.43136" lon="1.37674">
        <ele>158</ele>
        <time>2019-04-14T12:26:25Z</time>
      </trkpt>
      <trkpt lat="44.43136" lon="1.3767">
        <ele>158</ele>
        <time>2019-04-14T12:26:26Z</time>
      </trkpt>
      <trkpt lat="44.43136" lon="1.37665">
        <ele>158</ele>
        <time>2019-04-14T12:26:27Z</time>
      </trkpt>
      <trkpt lat="44.43137" lon="1.3766">
        <ele>157</ele>
        <time>2019-04-14T12:26:28Z</time>
      </trkpt>
      <trkpt lat="44.43136" lon="1.37655">
        <ele>157</ele>
        <time>2019-04-14T12:26:29Z</time>
      </trkpt>
      <trkpt lat="44.43136" lon="1.3765">
        <ele>157</ele>
        <time>2019-04-14T12:26:30Z</time>
      </trkpt>
      <trkpt lat="44.43136" lon="1.37645">
        <ele>157</ele>
        <time>2019-04-14T12:26:31Z</time>
      </trkpt>
      <trkpt lat="44.43136" lon="1.37639">
        <ele>156</ele>
        <time>2019-04-14T12:26:32Z</time>
      </trkpt>
      <trkpt lat="44.43136" lon="1.37634">
        <ele>156</ele>
        <time>2019-04-14T12:26:33Z</time>
      </trkpt>
      <trkpt lat="44.43137" lon="1.37629">
        <ele>156</ele>
        <time>2019-04-14T12:26:34Z</time>
      </trkpt>
      <trkpt lat="44.43138" lon="1.37622">
        <ele>156</ele>
        <time>2019-04-14T12:26:35Z</time>
      </trkpt>
      <trkpt lat="44.43139" lon="1.37617">
        <ele>155</ele>
        <time>2019-04-14T12:26:36Z</time>
      </trkpt>
      <trkpt lat="44.43142" lon="1.37612">
        <ele>155</ele>
        <time>2019-04-14T12:26:37Z</time>
      </trkpt>
      <trkpt lat="44.43145" lon="1.37607">
        <ele>155</ele>
        <time>2019-04-14T12:26:38Z</time>
      </trkpt>
      <trkpt lat="44.43146" lon="1.37602">
        <ele>154</ele>
        <time>2019-04-14T12:26:39Z</time>
      </trkpt>
      <trkpt lat="44.43148" lon="1.37598">
        <ele>154</ele>
        <time>2019-04-14T12:26:40Z</time>
      </trkpt>
      <trkpt lat="44.43149" lon="1.37595">
        <ele>154</ele>
        <time>2019-04-14T12:26:41Z</time>
      </trkpt>
      <trkpt lat="44.43149" lon="1.37593">
        <ele>154</ele>
        <time>2019-04-14T12:26:42Z</time>
      </trkpt>
      <trkpt lat="44.43149" lon="1.3759">
        <ele>154</ele>
        <time>2019-04-14T12:26:43Z</time>
      </trkpt>
      <trkpt lat="44.43148" lon="1.37587">
        <ele>154</ele>
        <time>2019-04-14T12:26:44Z</time>
      </trkpt>
      <trkpt lat="44.43147" lon="1.37585">
        <ele>154</ele>
        <time>2019-04-14T12:26:45Z</time>
      </trkpt>
      <trkpt lat="44.43146" lon="1.37583">
        <ele>154</ele>
        <time>2019-04-14T12:26:46Z</time>
      </trkpt>
      <trkpt lat="44.43144" lon="1.37581">
        <ele>155</ele>
        <time>2019-04-14T12:26:47Z</time>
      </trkpt>
      <trkpt lat="44.43142" lon="1.3758">
        <ele>155</ele>
        <time>2019-04-14T12:26:48Z</time>
      </trkpt>
      <trkpt lat="44.4314" lon="1.37579">
        <ele>155</ele>
        <time>2019-04-14T12:26:49Z</time>
      </trkpt>
      <trkpt lat="44.43137" lon="1.37578">
        <ele>155</ele>
        <time>2019-04-14T12:26:50Z</time>
      </trkpt>
      <trkpt lat="44.43135" lon="1.37577">
        <ele>156</ele>
        <time>2019-04-14T12:26:51Z</time>
      </trkpt>
      <trkpt lat="44.43133" lon="1.37575">
        <ele>156</ele>
        <time>2019-04-14T12:26:52Z</time>
      </trkpt>
      <trkpt lat="44.43131" lon="1.37574">
        <ele>156</ele>
        <time>2019-04-14T12:26:53Z</time>
      </trkpt>
      <trkpt lat="44.43129" lon="1.37574">
        <ele>156</ele>
        <time>2019-04-14T12:26:54Z</time>
      </trkpt>
      <trkpt lat="44.43126" lon="1.37573">
        <ele>157</ele>
        <time>2019-04-14T12:26:55Z</time>
      </trkpt>
      <trkpt lat="44.43124" lon="1.37574">
        <ele>157</ele>
        <time>2019-04-14T12:26:56Z</time>
      </trkpt>
      <trkpt lat="44.43121" lon="1.37574">
        <ele>157</ele>
        <time>2019-04-14T12:26:57Z</time>
      </trkpt>
      <trkpt lat="44.43118" lon="1.37574">
        <ele>157</ele>
        <time>2019-04-14T12:26:58Z</time>
      </trkpt>
      <trkpt lat="44.43115" lon="1.37575">
        <ele>157</ele>
        <time>2019-04-14T12:26:59Z</time>
      </trkpt>
      <trkpt lat="44.43112" lon="1.37576">
        <ele>157</ele>
        <time>2019-04-14T12:27:00Z</time>
      </trkpt>
      <trkpt lat="44.4311" lon="1.37577">
        <ele>157</ele>
        <time>2019-04-14T12:27:01Z</time>
      </trkpt>
      <trkpt lat="44.43107" lon="1.37578">
        <ele>157</ele>
        <time>2019-04-14T12:27:02Z</time>
      </trkpt>
      <trkpt lat="44.43104" lon="1.37578">
        <ele>157</ele>
        <time>2019-04-14T12:27:03Z</time>
      </trkpt>
      <trkpt lat="44.43101" lon="1.37578">
        <ele>157</ele>
        <time>2019-04-14T12:27:04Z</time>
      </trkpt>
      <trkpt lat="44.43098" lon="1.37578">
        <ele>157</ele>
        <time>2019-04-14T12:27:05Z</time>
      </trkpt>
      <trkpt lat="44.43095" lon="1.37579">
        <ele>157</ele>
        <time>2019-04-14T12:27:06Z</time>
      </trkpt>
      <trkpt lat="44.43092" lon="1.3758">
        <ele>157</ele>
        <time>2019-04-14T12:27:07Z</time>
      </trkpt>
      <trkpt lat="44.43089" lon="1.3758">
        <ele>157</ele>
        <time>2019-04-14T12:27:08Z</time>
      </trkpt>
      <trkpt lat="44.43086" lon="1.3758">
        <ele>158</ele>
        <time>2019-04-14T12:27:09Z</time>
      </trkpt>
      <trkpt lat="44.43083" lon="1.3758">
        <ele>158</ele>
        <time>2019-04-14T12:27:10Z</time>
      </trkpt>
      <trkpt lat="44.4308" lon="1.3758">
        <ele>158</ele>
        <time>2019-04-14T12:27:11Z</time>
      </trkpt>
      <trkpt lat="44.43076" lon="1.37581">
        <ele>158</ele>
        <time>2019-04-14T12:27:12Z</time>
      </trkpt>
      <trkpt lat="44.43073" lon="1.37582">
        <ele>158</ele>
        <time>2019-04-14T12:27:13Z</time>
      </trkpt>
      <trkpt lat="44.43071" lon="1.37584">
        <ele>158</ele>
        <time>2019-04-14T12:27:14Z</time>
      </trkpt>
      <trkpt lat="44.43068" lon="1.37585">
        <ele>158</ele>
        <time>2019-04-14T12:27:15Z</time>
      </trkpt>
      <trkpt lat="44.43065" lon="1.37585">
        <ele>158</ele>
        <time>2019-04-14T12:27:16Z</time>
      </trkpt>
      <trkpt lat="44.43062" lon="1.37586">
        <ele>158</ele>
        <time>2019-04-14T12:27:17Z</time>
      </trkpt>
      <trkpt lat="44.4306" lon="1.37585">
        <ele>158</ele>
        <time>2019-04-14T12:27:18Z</time>
      </trkpt>
      <trkpt lat="44.43057" lon="1.37586">
        <ele>158</ele>
        <time>2019-04-14T12:27:19Z</time>
      </trkpt>
      <trkpt lat="44.43054" lon="1.37587">
        <ele>158</ele>
        <time>2019-04-14T12:27:20Z</time>
      </trkpt>
      <trkpt lat="44.43052" lon="1.37588">
        <ele>158</ele>
        <time>2019-04-14T12:27:21Z</time>
      </trkpt>
      <trkpt lat="44.43048" lon="1.37593">
        <ele>158</ele>
        <time>2019-04-14T12:27:22Z</time>
      </trkpt>
      <trkpt lat="44.43044" lon="1.37595">
        <ele>158</ele>
        <time>2019-04-14T12:27:23Z</time>
      </trkpt>
      <trkpt lat="44.43041" lon="1.37594">
        <ele>158</ele>
        <time>2019-04-14T12:27:24Z</time>
      </trkpt>
      <trkpt lat="44.43038" lon="1.37593">
        <ele>158</ele>
        <time>2019-04-14T12:27:25Z</time>
      </trkpt>
      <trkpt lat="44.43035" lon="1.37594">
        <ele>159</ele>
        <time>2019-04-14T12:27:26Z</time>
      </trkpt>
      <trkpt lat="44.43032" lon="1.37596">
        <ele>159</ele>
        <time>2019-04-14T12:27:27Z</time>
      </trkpt>
      <trkpt lat="44.43027" lon="1.37598">
        <ele>159</ele>
        <time>2019-04-14T12:27:28Z</time>
      </trkpt>
      <trkpt lat="44.43024" lon="1.37601">
        <ele>159</ele>
        <time>2019-04-14T12:27:29Z</time>
      </trkpt>
      <trkpt lat="44.4302" lon="1.37604">
        <ele>158</ele>
        <time>2019-04-14T12:27:30Z</time>
      </trkpt>
      <trkpt lat="44.43016" lon="1.37607">
        <ele>158</ele>
        <time>2019-04-14T12:27:31Z</time>
      </trkpt>
      <trkpt lat="44.43013" lon="1.3761">
        <ele>158</ele>
        <time>2019-04-14T12:27:32Z</time>
      </trkpt>
      <trkpt lat="44.4301" lon="1.37614">
        <ele>158</ele>
        <time>2019-04-14T12:27:33Z</time>
      </trkpt>
      <trkpt lat="44.43007" lon="1.37618">
        <ele>158</ele>
        <time>2019-04-14T12:27:34Z</time>
      </trkpt>
      <trkpt lat="44.43003" lon="1.37619">
        <ele>158</ele>
        <time>2019-04-14T12:27:35Z</time>
      </trkpt>
      <trkpt lat="44.43" lon="1.3762">
        <ele>158</ele>
        <time>2019-04-14T12:27:36Z</time>
      </trkpt>
      <trkpt lat="44.42997" lon="1.37621">
        <ele>159</ele>
        <time>2019-04-14T12:27:37Z</time>
      </trkpt>
      <trkpt lat="44.42994" lon="1.37623">
        <ele>159</ele>
        <time>2019-04-14T12:27:38Z</time>
      </trkpt>
      <trkpt lat="44.42992" lon="1.37625">
        <ele>159</ele>
        <time>2019-04-14T12:27:39Z</time>
      </trkpt>
      <trkpt lat="44.42989" lon="1.37628">
        <ele>159</ele>
        <time>2019-04-14T12:27:40Z</time>
      </trkpt>
      <trkpt lat="44.42988" lon="1.37631">
        <ele>159</ele>
        <time>2019-04-14T12:27:41Z</time>
      </trkpt>
      <trkpt lat="44.42988" lon="1.37635">
        <ele>159</ele>
        <time>2019-04-14T12:27:42Z</time>
      </trkpt>
      <trkpt lat="44.42987" lon="1.37637">
        <ele>159</ele>
        <time>2019-04-14T12:27:43Z</time>
      </trkpt>
      <trkpt lat="44.42986" lon="1.37639">
        <ele>159</ele>
        <time>2019-04-14T12:27:44Z</time>
      </trkpt>
      <trkpt lat="44.42984" lon="1.3764">
        <ele>159</ele>
        <time>2019-04-14T12:27:45Z</time>
      </trkpt>
      <trkpt lat="44.42982" lon="1.37643">
        <ele>159</ele>
        <time>2019-04-14T12:27:46Z</time>
      </trkpt>
      <trkpt lat="44.4298" lon="1.37648">
        <ele>159</ele>
        <time>2019-04-14T12:27:47Z</time>
      </trkpt>
      <trkpt lat="44.42979" lon="1.37649">
        <ele>159</ele>
        <time>2019-04-14T12:27:48Z</time>
      </trkpt>
      <trkpt lat="44.42976" lon="1.37653">
        <ele>159</ele>
        <time>2019-04-14T12:27:49Z</time>
      </trkpt>
      <trkpt lat="44.42974" lon="1.37657">
        <ele>159</ele>
        <time>2019-04-14T12:27:50Z</time>
      </trkpt>
      <trkpt lat="44.42972" lon="1.37662">
        <ele>159</ele>
        <time>2019-04-14T12:27:51Z</time>
      </trkpt>
      <trkpt lat="44.4297" lon="1.37665">
        <ele>159</ele>
        <time>2019-04-14T12:27:52Z</time>
      </trkpt>
      <trkpt lat="44.42966" lon="1.37667">
        <ele>160</ele>
        <time>2019-04-14T12:27:53Z</time>
      </trkpt>
      <trkpt lat="44.42963" lon="1.3767">
        <ele>160</ele>
        <time>2019-04-14T12:27:54Z</time>
      </trkpt>
      <trkpt lat="44.4296" lon="1.37674">
        <ele>160</ele>
        <time>2019-04-14T12:27:55Z</time>
      </trkpt>
      <trkpt lat="44.42957" lon="1.37678">
        <ele>161</ele>
        <time>2019-04-14T12:27:56Z</time>
      </trkpt>
      <trkpt lat="44.42953" lon="1.37682">
        <ele>161</ele>
        <time>2019-04-14T12:27:57Z</time>
      </trkpt>
      <trkpt lat="44.4295" lon="1.37686">
        <ele>161</ele>
        <time>2019-04-14T12:27:58Z</time>
      </trkpt>
      <trkpt lat="44.42947" lon="1.37688">
        <ele>161</ele>
        <time>2019-04-14T12:27:59Z</time>
      </trkpt>
      <trkpt lat="44.42943" lon="1.3769">
        <ele>162</ele>
        <time>2019-04-14T12:28:00Z</time>
      </trkpt>
      <trkpt lat="44.4294" lon="1.37691">
        <ele>162</ele>
        <time>2019-04-14T12:28:01Z</time>
      </trkpt>
      <trkpt lat="44.42937" lon="1.37692">
        <ele>162</ele>
        <time>2019-04-14T12:28:02Z</time>
      </trkpt>
      <trkpt lat="44.42935" lon="1.37691">
        <ele>162</ele>
        <time>2019-04-14T12:28:03Z</time>
      </trkpt>
      <trkpt lat="44.42932" lon="1.37689">
        <ele>162</ele>
        <time>2019-04-14T12:28:04Z</time>
      </trkpt>
      <trkpt lat="44.42929" lon="1.37689">
        <ele>162</ele>
        <time>2019-04-14T12:28:05Z</time>
      </trkpt>
      <trkpt lat="44.42927" lon="1.37688">
        <ele>162</ele>
        <time>2019-04-14T12:28:06Z</time>
      </trkpt>
      <trkpt lat="44.42924" lon="1.37686">
        <ele>163</ele>
        <time>2019-04-14T12:28:07Z</time>
      </trkpt>
      <trkpt lat="44.42922" lon="1.37685">
        <ele>163</ele>
        <time>2019-04-14T12:28:08Z</time>
      </trkpt>
      <trkpt lat="44.42919" lon="1.37684">
        <ele>163</ele>
        <time>2019-04-14T12:28:09Z</time>
      </trkpt>
      <trkpt lat="44.42916" lon="1.37683">
        <ele>163</ele>
        <time>2019-04-14T12:28:10Z</time>
      </trkpt>
      <trkpt lat="44.42914" lon="1.37682">
        <ele>163</ele>
        <time>2019-04-14T12:28:11Z</time>
      </trkpt>
      <trkpt lat="44.42911" lon="1.37681">
        <ele>163</ele>
        <time>2019-04-14T12:28:12Z</time>
      </trkpt>
      <trkpt lat="44.42909" lon="1.37679">
        <ele>163</ele>
        <time>2019-04-14T12:28:13Z</time>
      </trkpt>
      <trkpt lat="44.42906" lon="1.37676">
        <ele>163</ele>
        <time>2019-04-14T12:28:14Z</time>
      </trkpt>
      <trkpt lat="44.42903" lon="1.37675">
        <ele>163</ele>
        <time>2019-04-14T12:28:15Z</time>
      </trkpt>
      <trkpt lat="44.42902" lon="1.37673">
        <ele>163</ele>
        <time>2019-04-14T12:28:16Z</time>
      </trkpt>
      <trkpt lat="44.429" lon="1.3767">
        <ele>163</ele>
        <time>2019-04-14T12:28:17Z</time>
      </trkpt>
      <trkpt lat="44.42899" lon="1.37667">
        <ele>163</ele>
        <time>2019-04-14T12:28:18Z</time>
      </trkpt>
      <trkpt lat="44.42897" lon="1.37665">
        <ele>164</ele>
        <time>2019-04-14T12:28:19Z</time>
      </trkpt>
      <trkpt lat="44.42895" lon="1.37664">
        <ele>164</ele>
        <time>2019-04-14T12:28:20Z</time>
      </trkpt>
      <trkpt lat="44.42893" lon="1.37663">
        <ele>164</ele>
        <time>2019-04-14T12:28:21Z</time>
      </trkpt>
      <trkpt lat="44.42891" lon="1.37661">
        <ele>164</ele>
        <time>2019-04-14T12:28:22Z</time>
      </trkpt>
      <trkpt lat="44.42889" lon="1.3766">
        <ele>164</ele>
        <time>2019-04-14T12:28:23Z</time>
      </trkpt>
      <trkpt lat="44.42886" lon="1.37658">
        <ele>164</ele>
        <time>2019-04-14T12:28:24Z</time>
      </trkpt>
      <trkpt lat="44.42885" lon="1.37655">
        <ele>164</ele>
        <time>2019-04-14T12:28:25Z</time>
      </trkpt>
      <trkpt lat="44.42882" lon="1.37653">
        <ele>164</ele>
        <time>2019-04-14T12:28:26Z</time>
      </trkpt>
      <trkpt lat="44.4288" lon="1.3765">
        <ele>164</ele>
        <time>2019-04-14T12:28:27Z</time>
      </trkpt>
      <trkpt lat="44.42878" lon="1.37648">
        <ele>164</ele>
        <time>2019-04-14T12:28:28Z</time>
      </trkpt>
      <trkpt lat="44.42877" lon="1.37647">
        <ele>164</ele>
        <time>2019-04-14T12:28:29Z</time>
      </trkpt>
      <trkpt lat="44.42874" lon="1.37646">
        <ele>164</ele>
        <time>2019-04-14T12:28:30Z</time>
      </trkpt>
      <trkpt lat="44.42873" lon="1.37644">
        <ele>164</ele>
        <time>2019-04-14T12:28:31Z</time>
      </trkpt>
      <trkpt lat="44.42872" lon="1.37639">
        <ele>164</ele>
        <time>2019-04-14T12:28:32Z</time>
      </trkpt>
      <trkpt lat="44.42869" lon="1.37636">
        <ele>165</ele>
        <time>2019-04-14T12:28:33Z</time>
      </trkpt>
      <trkpt lat="44.42868" lon="1.37633">
        <ele>165</ele>
        <time>2019-04-14T12:28:34Z</time>
      </trkpt>
      <trkpt lat="44.42866" lon="1.37629">
        <ele>165</ele>
        <time>2019-04-14T12:28:35Z</time>
      </trkpt>
      <trkpt lat="44.42865" lon="1.37624">
        <ele>165</ele>
        <time>2019-04-14T12:28:36Z</time>
      </trkpt>
      <trkpt lat="44.42863" lon="1.37622">
        <ele>165</ele>
        <time>2019-04-14T12:28:37Z</time>
      </trkpt>
      <trkpt lat="44.4286" lon="1.37619">
        <ele>165</ele>
        <time>2019-04-14T12:28:38Z</time>
      </trkpt>
      <trkpt lat="44.42858" lon="1.37617">
        <ele>165</ele>
        <time>2019-04-14T12:28:39Z</time>
      </trkpt>
      <trkpt lat="44.42856" lon="1.37614">
        <ele>165</ele>
        <time>2019-04-14T12:28:40Z</time>
      </trkpt>
      <trkpt lat="44.42853" lon="1.37613">
        <ele>165</ele>
        <time>2019-04-14T12:28:41Z</time>
      </trkpt>
      <trkpt lat="44.4285" lon="1.37614">
        <ele>165</ele>
        <time>2019-04-14T12:28:42Z</time>
      </trkpt>
      <trkpt lat="44.42847" lon="1.37615">
        <ele>165</ele>
        <time>2019-04-14T12:28:43Z</time>
      </trkpt>
      <trkpt lat="44.42844" lon="1.37616">
        <ele>165</ele>
        <time>2019-04-14T12:28:44Z</time>
      </trkpt>
      <trkpt lat="44.4284" lon="1.37616">
        <ele>165</ele>
        <time>2019-04-14T12:28:45Z</time>
      </trkpt>
      <trkpt lat="44.42837" lon="1.37615">
        <ele>166</ele>
        <time>2019-04-14T12:28:46Z</time>
      </trkpt>
      <trkpt lat="44.42834" lon="1.37613">
        <ele>166</ele>
        <time>2019-04-14T12:28:47Z</time>
      </trkpt>
      <trkpt lat="44.42832" lon="1.3761">
        <ele>166</ele>
        <time>2019-04-14T12:28:48Z</time>
      </trkpt>
      <trkpt lat="44.42831" lon="1.37606">
        <ele>166</ele>
        <time>2019-04-14T12:28:49Z</time>
      </trkpt>
      <trkpt lat="44.4283" lon="1.37604">
        <ele>166</ele>
        <time>2019-04-14T12:28:50Z</time>
      </trkpt>
      <trkpt lat="44.42829" lon="1.376">
        <ele>166</ele>
        <time>2019-04-14T12:28:51Z</time>
      </trkpt>
      <trkpt lat="44.42826" lon="1.37598">
        <ele>166</ele>
        <time>2019-04-14T12:28:52Z</time>
      </trkpt>
      <trkpt lat="44.42823" lon="1.37597">
        <ele>166</ele>
        <time>2019-04-14T12:28:53Z</time>
      </trkpt>
      <trkpt lat="44.42822" lon="1.37594">
        <ele>166</ele>
        <time>2019-04-14T12:28:54Z</time>
      </trkpt>
      <trkpt lat="44.4282" lon="1.37592">
        <ele>166</ele>
        <time>2019-04-14T12:28:55Z</time>
      </trkpt>
      <trkpt lat="44.42818" lon="1.3759">
        <ele>166</ele>
        <time>2019-04-14T12:28:56Z</time>
      </trkpt>
      <trkpt lat="44.42815" lon="1.37589">
        <ele>166</ele>
        <time>2019-04-14T12:28:57Z</time>
      </trkpt>
      <trkpt lat="44.42813" lon="1.37585">
        <ele>166</ele>
        <time>2019-04-14T12:28:58Z</time>
      </trkpt>
      <trkpt lat="44.42811" lon="1.37583">
        <ele>166</ele>
        <time>2019-04-14T12:28:59Z</time>
      </trkpt>
      <trkpt lat="44.42809" lon="1.3758">
        <ele>167</ele>
        <time>2019-04-14T12:29:00Z</time>
      </trkpt>
      <trkpt lat="44.42807" lon="1.37577">
        <ele>167</ele>
        <time>2019-04-14T12:29:01Z</time>
      </trkpt>
      <trkpt lat="44.42805" lon="1.37575">
        <ele>167</ele>
        <time>2019-04-14T12:29:02Z</time>
      </trkpt>
      <trkpt lat="44.42803" lon="1.37572">
        <ele>167</ele>
        <time>2019-04-14T12:29:03Z</time>
      </trkpt>
      <trkpt lat="44.42801" lon="1.37569">
        <ele>167</ele>
        <time>2019-04-14T12:29:04Z</time>
      </trkpt>
      <trkpt lat="44.428" lon="1.37567">
        <ele>167</ele>
        <time>2019-04-14T12:29:05Z</time>
      </trkpt>
      <trkpt lat="44.42798" lon="1.37565">
        <ele>167</ele>
        <time>2019-04-14T12:29:06Z</time>
      </trkpt>
      <trkpt lat="44.42796" lon="1.37564">
        <ele>168</ele>
        <time>2019-04-14T12:29:07Z</time>
      </trkpt>
      <trkpt lat="44.42794" lon="1.37562">
        <ele>168</ele>
        <time>2019-04-14T12:29:08Z</time>
      </trkpt>
      <trkpt lat="44.42793" lon="1.37559">
        <ele>168</ele>
        <time>2019-04-14T12:29:09Z</time>
      </trkpt>
      <trkpt lat="44.42791" lon="1.37556">
        <ele>168</ele>
        <time>2019-04-14T12:29:10Z</time>
      </trkpt>
      <trkpt lat="44.4279" lon="1.37554">
        <ele>168</ele>
        <time>2019-04-14T12:29:11Z</time>
      </trkpt>
      <trkpt lat="44.42787" lon="1.37553">
        <ele>168</ele>
        <time>2019-04-14T12:29:12Z</time>
      </trkpt>
      <trkpt lat="44.42785" lon="1.37552">
        <ele>169</ele>
        <time>2019-04-14T12:29:13Z</time>
      </trkpt>
      <trkpt lat="44.42783" lon="1.37551">
        <ele>169</ele>
        <time>2019-04-14T12:29:14Z</time>
      </trkpt>
      <trkpt lat="44.4278" lon="1.37551">
        <ele>169</ele>
        <time>2019-04-14T12:29:15Z</time>
      </trkpt>
      <trkpt lat="44.42777" lon="1.3755">
        <ele>169</ele>
        <time>2019-04-14T12:29:16Z</time>
      </trkpt>
      <trkpt lat="44.42774" lon="1.3755">
        <ele>169</ele>
        <time>2019-04-14T12:29:17Z</time>
      </trkpt>
      <trkpt lat="44.42771" lon="1.37549">
        <ele>169</ele>
        <time>2019-04-14T12:29:18Z</time>
      </trkpt>
      <trkpt lat="44.42768" lon="1.37549">
        <ele>169</ele>
        <time>2019-04-14T12:29:19Z</time>
      </trkpt>
      <trkpt lat="44.42765" lon="1.37549">
        <ele>170</ele>
        <time>2019-04-14T12:29:20Z</time>
      </trkpt>
      <trkpt lat="44.42763" lon="1.37548">
        <ele>170</ele>
        <time>2019-04-14T12:29:21Z</time>
      </trkpt>
      <trkpt lat="44.4276" lon="1.37548">
        <ele>170</ele>
        <time>2019-04-14T12:29:22Z</time>
      </trkpt>
      <trkpt lat="44.42758" lon="1.37546">
        <ele>170</ele>
        <time>2019-04-14T12:29:23Z</time>
      </trkpt>
      <trkpt lat="44.42756" lon="1.37546">
        <ele>170</ele>
        <time>2019-04-14T12:29:24Z</time>
      </trkpt>
      <trkpt lat="44.42753" lon="1.37546">
        <ele>170</ele>
        <time>2019-04-14T12:29:25Z</time>
      </trkpt>
      <trkpt lat="44.4275" lon="1.37546">
        <ele>170</ele>
        <time>2019-04-14T12:29:26Z</time>
      </trkpt>
      <trkpt lat="44.42748" lon="1.37545">
        <ele>170</ele>
        <time>2019-04-14T12:29:27Z</time>
      </trkpt>
      <trkpt lat="44.42745" lon="1.37546">
        <ele>171</ele>
        <time>2019-04-14T12:29:28Z</time>
      </trkpt>
      <trkpt lat="44.42743" lon="1.37546">
        <ele>171</ele>
        <time>2019-04-14T12:29:29Z</time>
      </trkpt>
      <trkpt lat="44.4274" lon="1.37546">
        <ele>171</ele>
        <time>2019-04-14T12:29:30Z</time>
      </trkpt>
      <trkpt lat="44.42737" lon="1.37546">
        <ele>171</ele>
        <time>2019-04-14T12:29:31Z</time>
      </trkpt>
      <trkpt lat="44.42734" lon="1.37545">
        <ele>171</ele>
        <time>2019-04-14T12:29:32Z</time>
      </trkpt>
      <trkpt lat="44.42732" lon="1.37545">
        <ele>171</ele>
        <time>2019-04-14T12:29:33Z</time>
      </trkpt>
      <trkpt lat="44.42729" lon="1.37545">
        <ele>171</ele>
        <time>2019-04-14T12:29:34Z</time>
      </trkpt>
      <trkpt lat="44.42726" lon="1.37545">
        <ele>171</ele>
        <time>2019-04-14T12:29:35Z</time>
      </trkpt>
      <trkpt lat="44.42723" lon="1.37545">
        <ele>172</ele>
        <time>2019-04-14T12:29:36Z</time>
      </trkpt>
      <trkpt lat="44.4272" lon="1.37545">
        <ele>172</ele>
        <time>2019-04-14T12:29:37Z</time>
      </trkpt>
      <trkpt lat="44.42718" lon="1.37546">
        <ele>172</ele>
        <time>2019-04-14T12:29:38Z</time>
      </trkpt>
      <trkpt lat="44.42715" lon="1.37546">
        <ele>172</ele>
        <time>2019-04-14T12:29:39Z</time>
      </trkpt>
      <trkpt lat="44.42712" lon="1.37546">
        <ele>172</ele>
        <time>2019-04-14T12:29:40Z</time>
      </trkpt>
      <trkpt lat="44.4271" lon="1.37545">
        <ele>172</ele>
        <time>2019-04-14T12:29:41Z</time>
      </trkpt>
      <trkpt lat="44.42707" lon="1.37545">
        <ele>172</ele>
        <time>2019-04-14T12:29:42Z</time>
      </trkpt>
      <trkpt lat="44.42704" lon="1.37545">
        <ele>172</ele>
        <time>2019-04-14T12:29:43Z</time>
      </trkpt>
      <trkpt lat="44.42701" lon="1.37544">
        <ele>172</ele>
        <time>2019-04-14T12:29:44Z</time>
      </trkpt>
      <trkpt lat="44.42698" lon="1.37543">
        <ele>172</ele>
        <time>2019-04-14T12:29:45Z</time>
      </trkpt>
      <trkpt lat="44.42695" lon="1.37543">
        <ele>172</ele>
        <time>2019-04-14T12:29:46Z</time>
      </trkpt>
      <trkpt lat="44.42693" lon="1.37543">
        <ele>172</ele>
        <time>2019-04-14T12:29:47Z</time>
      </trkpt>
      <trkpt lat="44.4269" lon="1.37542">
        <ele>172</ele>
        <time>2019-04-14T12:29:48Z</time>
      </trkpt>
      <trkpt lat="44.42687" lon="1.37542">
        <ele>172</ele>
        <time>2019-04-14T12:29:49Z</time>
      </trkpt>
      <trkpt lat="44.42685" lon="1.3754">
        <ele>172</ele>
        <time>2019-04-14T12:29:50Z</time>
      </trkpt>
      <trkpt lat="44.42683" lon="1.37538">
        <ele>172</ele>
        <time>2019-04-14T12:29:51Z</time>
      </trkpt>
      <trkpt lat="44.42681" lon="1.37538">
        <ele>172</ele>
        <time>2019-04-14T12:29:52Z</time>
      </trkpt>
      <trkpt lat="44.42678" lon="1.37537">
        <ele>172</ele>
        <time>2019-04-14T12:29:53Z</time>
      </trkpt>
      <trkpt lat="44.42675" lon="1.37536">
        <ele>172</ele>
        <time>2019-04-14T12:29:54Z</time>
      </trkpt>
      <trkpt lat="44.42672" lon="1.37536">
        <ele>172</ele>
        <time>2019-04-14T12:29:55Z</time>
      </trkpt>
      <trkpt lat="44.4267" lon="1.37534">
        <ele>172</ele>
        <time>2019-04-14T12:29:56Z</time>
      </trkpt>
      <trkpt lat="44.42668" lon="1.37534">
        <ele>173</ele>
        <time>2019-04-14T12:29:57Z</time>
      </trkpt>
      <trkpt lat="44.42665" lon="1.37533">
        <ele>173</ele>
        <time>2019-04-14T12:29:58Z</time>
      </trkpt>
      <trkpt lat="44.42662" lon="1.37534">
        <ele>173</ele>
        <time>2019-04-14T12:29:59Z</time>
      </trkpt>
      <trkpt lat="44.42659" lon="1.37535">
        <ele>173</ele>
        <time>2019-04-14T12:30:00Z</time>
      </trkpt>
      <trkpt lat="44.42657" lon="1.37534">
        <ele>173</ele>
        <time>2019-04-14T12:30:01Z</time>
      </trkpt>
      <trkpt lat="44.42654" lon="1.37535">
        <ele>173</ele>
        <time>2019-04-14T12:30:02Z</time>
      </trkpt>
      <trkpt lat="44.4265" lon="1.37536">
        <ele>173</ele>
        <time>2019-04-14T12:30:03Z</time>
      </trkpt>
      <trkpt lat="44.42648" lon="1.37536">
        <ele>174</ele>
        <time>2019-04-14T12:30:04Z</time>
      </trkpt>
      <trkpt lat="44.42645" lon="1.37536">
        <ele>174</ele>
        <time>2019-04-14T12:30:05Z</time>
      </trkpt>
      <trkpt lat="44.42642" lon="1.37537">
        <ele>174</ele>
        <time>2019-04-14T12:30:06Z</time>
      </trkpt>
      <trkpt lat="44.42639" lon="1.37537">
        <ele>174</ele>
        <time>2019-04-14T12:30:07Z</time>
      </trkpt>
      <trkpt lat="44.42636" lon="1.37536">
        <ele>174</ele>
        <time>2019-04-14T12:30:08Z</time>
      </trkpt>
      <trkpt lat="44.42633" lon="1.37537">
        <ele>174</ele>
        <time>2019-04-14T12:30:09Z</time>
      </trkpt>
      <trkpt lat="44.42631" lon="1.37538">
        <ele>174</ele>
        <time>2019-04-14T12:30:10Z</time>
      </trkpt>
      <trkpt lat="44.42628" lon="1.37537">
        <ele>174</ele>
        <time>2019-04-14T12:30:11Z</time>
      </trkpt>
      <trkpt lat="44.42626" lon="1.37537">
        <ele>174</ele>
        <time>2019-04-14T12:30:12Z</time>
      </trkpt>
      <trkpt lat="44.42624" lon="1.37537">
        <ele>174</ele>
        <time>2019-04-14T12:30:13Z</time>
      </trkpt>
      <trkpt lat="44.42622" lon="1.37538">
        <ele>174</ele>
        <time>2019-04-14T12:30:14Z</time>
      </trkpt>
      <trkpt lat="44.42621" lon="1.3754">
        <ele>174</ele>
        <time>2019-04-14T12:30:15Z</time>
      </trkpt>
      <trkpt lat="44.4262" lon="1.37541">
        <ele>174</ele>
        <time>2019-04-14T12:30:16Z</time>
      </trkpt>
      <trkpt lat="44.4262" lon="1.37543">
        <ele>175</ele>
        <time>2019-04-14T12:30:17Z</time>
      </trkpt>
      <trkpt lat="44.4262" lon="1.37543">
        <ele>175</ele>
        <time>2019-04-14T12:30:18Z</time>
      </trkpt>
      <trkpt lat="44.42619" lon="1.37544">
        <ele>175</ele>
        <time>2019-04-14T12:30:19Z</time>
      </trkpt>
      <trkpt lat="44.42619" lon="1.37546">
        <ele>175</ele>
        <time>2019-04-14T12:30:20Z</time>
      </trkpt>
      <trkpt lat="44.42616" lon="1.37551">
        <ele>174</ele>
        <time>2019-04-14T12:30:21Z</time>
      </trkpt>
      <trkpt lat="44.42617" lon="1.37554">
        <ele>174</ele>
        <time>2019-04-14T12:30:22Z</time>
      </trkpt>
      <trkpt lat="44.42618" lon="1.37558">
        <ele>174</ele>
        <time>2019-04-14T12:30:23Z</time>
      </trkpt>
      <trkpt lat="44.42618" lon="1.37561">
        <ele>174</ele>
        <time>2019-04-14T12:30:24Z</time>
      </trkpt>
      <trkpt lat="44.42617" lon="1.37564">
        <ele>174</ele>
        <time>2019-04-14T12:30:25Z</time>
      </trkpt>
      <trkpt lat="44.42616" lon="1.37566">
        <ele>175</ele>
        <time>2019-04-14T12:30:26Z</time>
      </trkpt>
      <trkpt lat="44.42616" lon="1.37569">
        <ele>175</ele>
        <time>2019-04-14T12:30:27Z</time>
      </trkpt>
      <trkpt lat="44.42615" lon="1.37572">
        <ele>175</ele>
        <time>2019-04-14T12:30:28Z</time>
      </trkpt>
      <trkpt lat="44.42614" lon="1.37574">
        <ele>175</ele>
        <time>2019-04-14T12:30:29Z</time>
      </trkpt>
      <trkpt lat="44.42613" lon="1.37575">
        <ele>175</ele>
        <time>2019-04-14T12:30:30Z</time>
      </trkpt>
      <trkpt lat="44.42611" lon="1.37578">
        <ele>175</ele>
        <time>2019-04-14T12:30:31Z</time>
      </trkpt>
      <trkpt lat="44.42609" lon="1.3758">
        <ele>175</ele>
        <time>2019-04-14T12:30:32Z</time>
      </trkpt>
      <trkpt lat="44.42607" lon="1.37583">
        <ele>175</ele>
        <time>2019-04-14T12:30:33Z</time>
      </trkpt>
      <trkpt lat="44.42605" lon="1.37586">
        <ele>176</ele>
        <time>2019-04-14T12:30:34Z</time>
      </trkpt>
      <trkpt lat="44.42603" lon="1.37589">
        <ele>176</ele>
        <time>2019-04-14T12:30:35Z</time>
      </trkpt>
      <trkpt lat="44.42602" lon="1.3759">
        <ele>176</ele>
        <time>2019-04-14T12:30:36Z</time>
      </trkpt>
      <trkpt lat="44.42601" lon="1.37591">
        <ele>176</ele>
        <time>2019-04-14T12:30:37Z</time>
      </trkpt>
      <trkpt lat="44.426" lon="1.37593">
        <ele>176</ele>
        <time>2019-04-14T12:30:38Z</time>
      </trkpt>
      <trkpt lat="44.42598" lon="1.37595">
        <ele>177</ele>
        <time>2019-04-14T12:30:39Z</time>
      </trkpt>
      <trkpt lat="44.42596" lon="1.37598">
        <ele>177</ele>
        <time>2019-04-14T12:30:40Z</time>
      </trkpt>
      <trkpt lat="44.42594" lon="1.37599">
        <ele>177</ele>
        <time>2019-04-14T12:30:41Z</time>
      </trkpt>
      <trkpt lat="44.42592" lon="1.376">
        <ele>177</ele>
        <time>2019-04-14T12:30:42Z</time>
      </trkpt>
      <trkpt lat="44.4259" lon="1.37602">
        <ele>178</ele>
        <time>2019-04-14T12:30:43Z</time>
      </trkpt>
      <trkpt lat="44.42589" lon="1.37604">
        <ele>178</ele>
        <time>2019-04-14T12:30:44Z</time>
      </trkpt>
      <trkpt lat="44.42588" lon="1.37606">
        <ele>178</ele>
        <time>2019-04-14T12:30:45Z</time>
      </trkpt>
      <trkpt lat="44.42586" lon="1.37608">
        <ele>178</ele>
        <time>2019-04-14T12:30:46Z</time>
      </trkpt>
      <trkpt lat="44.42584" lon="1.3761">
        <ele>178</ele>
        <time>2019-04-14T12:30:47Z</time>
      </trkpt>
      <trkpt lat="44.42583" lon="1.37612">
        <ele>178</ele>
        <time>2019-04-14T12:30:48Z</time>
      </trkpt>
      <trkpt lat="44.42581" lon="1.37614">
        <ele>178</ele>
        <time>2019-04-14T12:30:49Z</time>
      </trkpt>
      <trkpt lat="44.4258" lon="1.37616">
        <ele>178</ele>
        <time>2019-04-14T12:30:50Z</time>
      </trkpt>
      <trkpt lat="44.42578" lon="1.37618">
        <ele>179</ele>
        <time>2019-04-14T12:30:51Z</time>
      </trkpt>
      <trkpt lat="44.42577" lon="1.37619">
        <ele>179</ele>
        <time>2019-04-14T12:30:52Z</time>
      </trkpt>
      <trkpt lat="44.42575" lon="1.3762">
        <ele>179</ele>
        <time>2019-04-14T12:30:53Z</time>
      </trkpt>
      <trkpt lat="44.42574" lon="1.37621">
        <ele>179</ele>
        <time>2019-04-14T12:30:54Z</time>
      </trkpt>
      <trkpt lat="44.42572" lon="1.37622">
        <ele>180</ele>
        <time>2019-04-14T12:30:55Z</time>
      </trkpt>
      <trkpt lat="44.4257" lon="1.37624">
        <ele>180</ele>
        <time>2019-04-14T12:30:56Z</time>
      </trkpt>
      <trkpt lat="44.42568" lon="1.37626">
        <ele>180</ele>
        <time>2019-04-14T12:30:57Z</time>
      </trkpt>
      <trkpt lat="44.42566" lon="1.37629">
        <ele>180</ele>
        <time>2019-04-14T12:30:58Z</time>
      </trkpt>
      <trkpt lat="44.42565" lon="1.3763">
        <ele>180</ele>
        <time>2019-04-14T12:30:59Z</time>
      </trkpt>
      <trkpt lat="44.42563" lon="1.37633">
        <ele>180</ele>
        <time>2019-04-14T12:31:00Z</time>
      </trkpt>
      <trkpt lat="44.42562" lon="1.37635">
        <ele>180</ele>
        <time>2019-04-14T12:31:01Z</time>
      </trkpt>
      <trkpt lat="44.4256" lon="1.37637">
        <ele>180</ele>
        <time>2019-04-14T12:31:02Z</time>
      </trkpt>
      <trkpt lat="44.4256" lon="1.37641">
        <ele>180</ele>
        <time>2019-04-14T12:31:03Z</time>
      </trkpt>
      <trkpt lat="44.42559" lon="1.37644">
        <ele>180</ele>
        <time>2019-04-14T12:31:04Z</time>
      </trkpt>
      <trkpt lat="44.42558" lon="1.37645">
        <ele>180</ele>
        <time>2019-04-14T12:31:05Z</time>
      </trkpt>
      <trkpt lat="44.42556" lon="1.37647">
        <ele>180</ele>
        <time>2019-04-14T12:31:06Z</time>
      </trkpt>
      <trkpt lat="44.42554" lon="1.37649">
        <ele>180</ele>
        <time>2019-04-14T12:31:07Z</time>
      </trkpt>
      <trkpt lat="44.42552" lon="1.37651">
        <ele>180</ele>
        <time>2019-04-14T12:31:08Z</time>
      </trkpt>
      <trkpt lat="44.42551" lon="1.37653">
        <ele>180</ele>
        <time>2019-04-14T12:31:09Z</time>
      </trkpt>
      <trkpt lat="44.42549" lon="1.37654">
        <ele>181</ele>
        <time>2019-04-14T12:31:10Z</time>
      </trkpt>
      <trkpt lat="44.42547" lon="1.37655">
        <ele>181</ele>
        <time>2019-04-14T12:31:11Z</time>
      </trkpt>
      <trkpt lat="44.42546" lon="1.37657">
        <ele>181</ele>
        <time>2019-04-14T12:31:12Z</time>
      </trkpt>
      <trkpt lat="44.42545" lon="1.37659">
        <ele>181</ele>
        <time>2019-04-14T12:31:13Z</time>
      </trkpt>
      <trkpt lat="44.42544" lon="1.37661">
        <ele>181</ele>
        <time>2019-04-14T12:31:14Z</time>
      </trkpt>
      <trkpt lat="44.42544" lon="1.37664">
        <ele>181</ele>
        <time>2019-04-14T12:31:15Z</time>
      </trkpt>
      <trkpt lat="44.42545" lon="1.37667">
        <ele>181</ele>
        <time>2019-04-14T12:31:16Z</time>
      </trkpt>
      <trkpt lat="44.42545" lon="1.37671">
        <ele>181</ele>
        <time>2019-04-14T12:31:17Z</time>
      </trkpt>
      <trkpt lat="44.42546" lon="1.37674">
        <ele>181</ele>
        <time>2019-04-14T12:31:18Z</time>
      </trkpt>
      <trkpt lat="44.42546" lon="1.37676">
        <ele>181</ele>
        <time>2019-04-14T12:31:19Z</time>
      </trkpt>
      <trkpt lat="44.42545" lon="1.37678">
        <ele>181</ele>
        <time>2019-04-14T12:31:20Z</time>
      </trkpt>
      <trkpt lat="44.42544" lon="1.37681">
        <ele>181</ele>
        <time>2019-04-14T12:31:21Z</time>
      </trkpt>
      <trkpt lat="44.42544" lon="1.37683">
        <ele>182</ele>
        <time>2019-04-14T12:31:22Z</time>
      </trkpt>
      <trkpt lat="44.42543" lon="1.37685">
        <ele>182</ele>
        <time>2019-04-14T12:31:23Z</time>
      </trkpt>
      <trkpt lat="44.42542" lon="1.37687">
        <ele>182</ele>
        <time>2019-04-14T12:31:24Z</time>
      </trkpt>
      <trkpt lat="44.42541" lon="1.37688">
        <ele>182</ele>
        <time>2019-04-14T12:31:25Z</time>
      </trkpt>
      <trkpt lat="44.42539" lon="1.37688">
        <ele>182</ele>
        <time>2019-04-14T12:31:26Z</time>
      </trkpt>
      <trkpt lat="44.42536" lon="1.37688">
        <ele>182</ele>
        <time>2019-04-14T12:31:27Z</time>
      </trkpt>
      <trkpt lat="44.42534" lon="1.37689">
        <ele>182</ele>
        <time>2019-04-14T12:31:28Z</time>
      </trkpt>
      <trkpt lat="44.42532" lon="1.3769">
        <ele>182</ele>
        <time>2019-04-14T12:31:29Z</time>
      </trkpt>
      <trkpt lat="44.42531" lon="1.37691">
        <ele>182</ele>
        <time>2019-04-14T12:31:30Z</time>
      </trkpt>
      <trkpt lat="44.42529" lon="1.37692">
        <ele>182</ele>
        <time>2019-04-14T12:31:31Z</time>
      </trkpt>
      <trkpt lat="44.42528" lon="1.37694">
        <ele>182</ele>
        <time>2019-04-14T12:31:32Z</time>
      </trkpt>
      <trkpt lat="44.42527" lon="1.37694">
        <ele>182</ele>
        <time>2019-04-14T12:31:33Z</time>
      </trkpt>
      <trkpt lat="44.42527" lon="1.37695">
        <ele>182</ele>
        <time>2019-04-14T12:31:34Z</time>
      </trkpt>
      <trkpt lat="44.42525" lon="1.37696">
        <ele>182</ele>
        <time>2019-04-14T12:31:35Z</time>
      </trkpt>
      <trkpt lat="44.42524" lon="1.37697">
        <ele>182</ele>
        <time>2019-04-14T12:31:36Z</time>
      </trkpt>
      <trkpt lat="44.42522" lon="1.37698">
        <ele>182</ele>
        <time>2019-04-14T12:31:37Z</time>
      </trkpt>
      <trkpt lat="44.4252" lon="1.37698">
        <ele>182</ele>
        <time>2019-04-14T12:31:38Z</time>
      </trkpt>
      <trkpt lat="44.42518" lon="1.37698">
        <ele>182</ele>
        <time>2019-04-14T12:31:39Z</time>
      </trkpt>
      <trkpt lat="44.42516" lon="1.37698">
        <ele>182</ele>
        <time>2019-04-14T12:31:40Z</time>
      </trkpt>
      <trkpt lat="44.42514" lon="1.37698">
        <ele>182</ele>
        <time>2019-04-14T12:31:41Z</time>
      </trkpt>
      <trkpt lat="44.42512" lon="1.37698">
        <ele>183</ele>
        <time>2019-04-14T12:31:42Z</time>
      </trkpt>
      <trkpt lat="44.4251" lon="1.37698">
        <ele>183</ele>
        <time>2019-04-14T12:31:43Z</time>
      </trkpt>
      <trkpt lat="44.42507" lon="1.37699">
        <ele>183</ele>
        <time>2019-04-14T12:31:44Z</time>
      </trkpt>
      <trkpt lat="44.42505" lon="1.37701">
        <ele>183</ele>
        <time>2019-04-14T12:31:45Z</time>
      </trkpt>
      <trkpt lat="44.42503" lon="1.37702">
        <ele>183</ele>
        <time>2019-04-14T12:31:46Z</time>
      </trkpt>
      <trkpt lat="44.42501" lon="1.37703">
        <ele>183</ele>
        <time>2019-04-14T12:31:47Z</time>
      </trkpt>
      <trkpt lat="44.425" lon="1.37705">
        <ele>183</ele>
        <time>2019-04-14T12:31:48Z</time>
      </trkpt>
      <trkpt lat="44.425" lon="1.37707">
        <ele>183</ele>
        <time>2019-04-14T12:31:49Z</time>
      </trkpt>
      <trkpt lat="44.425" lon="1.37709">
        <ele>183</ele>
        <time>2019-04-14T12:31:50Z</time>
      </trkpt>
      <trkpt lat="44.42499" lon="1.37711">
        <ele>183</ele>
        <time>2019-04-14T12:31:51Z</time>
      </trkpt>
      <trkpt lat="44.42497" lon="1.37712">
        <ele>183</ele>
        <time>2019-04-14T12:31:52Z</time>
      </trkpt>
      <trkpt lat="44.42495" lon="1.37713">
        <ele>183</ele>
        <time>2019-04-14T12:31:53Z</time>
      </trkpt>
      <trkpt lat="44.42493" lon="1.37713">
        <ele>183</ele>
        <time>2019-04-14T12:31:54Z</time>
      </trkpt>
      <trkpt lat="44.42492" lon="1.37714">
        <ele>184</ele>
        <time>2019-04-14T12:31:55Z</time>
      </trkpt>
      <trkpt lat="44.42491" lon="1.37715">
        <ele>184</ele>
        <time>2019-04-14T12:31:56Z</time>
      </trkpt>
      <trkpt lat="44.42489" lon="1.37717">
        <ele>184</ele>
        <time>2019-04-14T12:31:57Z</time>
      </trkpt>
      <trkpt lat="44.42487" lon="1.37718">
        <ele>184</ele>
        <time>2019-04-14T12:31:58Z</time>
      </trkpt>
      <trkpt lat="44.42485" lon="1.37719">
        <ele>184</ele>
        <time>2019-04-14T12:31:59Z</time>
      </trkpt>
      <trkpt lat="44.42482" lon="1.3772">
        <ele>184</ele>
        <time>2019-04-14T12:32:00Z</time>
      </trkpt>
      <trkpt lat="44.4248" lon="1.37722">
        <ele>185</ele>
        <time>2019-04-14T12:32:01Z</time>
      </trkpt>
      <trkpt lat="44.42479" lon="1.37723">
        <ele>185</ele>
        <time>2019-04-14T12:32:02Z</time>
      </trkpt>
      <trkpt lat="44.42477" lon="1.37724">
        <ele>185</ele>
        <time>2019-04-14T12:32:03Z</time>
      </trkpt>
      <trkpt lat="44.42477" lon="1.37725">
        <ele>186</ele>
        <time>2019-04-14T12:32:04Z</time>
      </trkpt>
      <trkpt lat="44.42476" lon="1.37726">
        <ele>186</ele>
        <time>2019-04-14T12:32:05Z</time>
      </trkpt>
      <trkpt lat="44.42474" lon="1.37727">
        <ele>186</ele>
        <time>2019-04-14T12:32:06Z</time>
      </trkpt>
      <trkpt lat="44.42472" lon="1.37728">
        <ele>186</ele>
        <time>2019-04-14T12:32:07Z</time>
      </trkpt>
      <trkpt lat="44.4247" lon="1.37729">
        <ele>186</ele>
        <time>2019-04-14T12:32:08Z</time>
      </trkpt>
      <trkpt lat="44.42467" lon="1.37728">
        <ele>186</ele>
        <time>2019-04-14T12:32:09Z</time>
      </trkpt>
      <trkpt lat="44.42465" lon="1.37727">
        <ele>186</ele>
        <time>2019-04-14T12:32:10Z</time>
      </trkpt>
      <trkpt lat="44.42463" lon="1.37725">
        <ele>186</ele>
        <time>2019-04-14T12:32:11Z</time>
      </trkpt>
      <trkpt lat="44.4246" lon="1.37725">
        <ele>186</ele>
        <time>2019-04-14T12:32:12Z</time>
      </trkpt>
      <trkpt lat="44.42457" lon="1.37724">
        <ele>186</ele>
        <time>2019-04-14T12:32:13Z</time>
      </trkpt>
      <trkpt lat="44.42455" lon="1.37723">
        <ele>186</ele>
        <time>2019-04-14T12:32:14Z</time>
      </trkpt>
      <trkpt lat="44.42453" lon="1.37722">
        <ele>186</ele>
        <time>2019-04-14T12:32:15Z</time>
      </trkpt>
      <trkpt lat="44.42451" lon="1.37722">
        <ele>186</ele>
        <time>2019-04-14T12:32:16Z</time>
      </trkpt>
      <trkpt lat="44.4245" lon="1.37721">
        <ele>186</ele>
        <time>2019-04-14T12:32:17Z</time>
      </trkpt>
      <trkpt lat="44.42448" lon="1.37719">
        <ele>186</ele>
        <time>2019-04-14T12:32:18Z</time>
      </trkpt>
      <trkpt lat="44.42447" lon="1.37719">
        <ele>187</ele>
        <time>2019-04-14T12:32:19Z</time>
      </trkpt>
      <trkpt lat="44.42444" lon="1.3772">
        <ele>187</ele>
        <time>2019-04-14T12:32:20Z</time>
      </trkpt>
      <trkpt lat="44.42442" lon="1.37721">
        <ele>187</ele>
        <time>2019-04-14T12:32:21Z</time>
      </trkpt>
      <trkpt lat="44.42439" lon="1.37721">
        <ele>187</ele>
        <time>2019-04-14T12:32:22Z</time>
      </trkpt>
      <trkpt lat="44.42437" lon="1.37723">
        <ele>187</ele>
        <time>2019-04-14T12:32:23Z</time>
      </trkpt>
      <trkpt lat="44.42435" lon="1.37724">
        <ele>187</ele>
        <time>2019-04-14T12:32:24Z</time>
      </trkpt>
      <trkpt lat="44.42433" lon="1.37725">
        <ele>187</ele>
        <time>2019-04-14T12:32:25Z</time>
      </trkpt>
      <trkpt lat="44.42431" lon="1.37726">
        <ele>188</ele>
        <time>2019-04-14T12:32:26Z</time>
      </trkpt>
      <trkpt lat="44.42428" lon="1.37728">
        <ele>188</ele>
        <time>2019-04-14T12:32:27Z</time>
      </trkpt>
      <trkpt lat="44.42426" lon="1.37728">
        <ele>188</ele>
        <time>2019-04-14T12:32:28Z</time>
      </trkpt>
      <trkpt lat="44.42425" lon="1.37729">
        <ele>188</ele>
        <time>2019-04-14T12:32:29Z</time>
      </trkpt>
      <trkpt lat="44.42423" lon="1.3773">
        <ele>188</ele>
        <time>2019-04-14T12:32:30Z</time>
      </trkpt>
      <trkpt lat="44.42421" lon="1.37731">
        <ele>188</ele>
        <time>2019-04-14T12:32:31Z</time>
      </trkpt>
      <trkpt lat="44.4242" lon="1.37732">
        <ele>188</ele>
        <time>2019-04-14T12:32:32Z</time>
      </trkpt>
      <trkpt lat="44.42418" lon="1.37733">
        <ele>188</ele>
        <time>2019-04-14T12:32:33Z</time>
      </trkpt>
      <trkpt lat="44.42416" lon="1.37735">
        <ele>188</ele>
        <time>2019-04-14T12:32:34Z</time>
      </trkpt>
      <trkpt lat="44.42415" lon="1.37737">
        <ele>188</ele>
        <time>2019-04-14T12:32:35Z</time>
      </trkpt>
      <trkpt lat="44.42414" lon="1.3774">
        <ele>188</ele>
        <time>2019-04-14T12:32:36Z</time>
      </trkpt>
      <trkpt lat="44.42414" lon="1.37742">
        <ele>188</ele>
        <time>2019-04-14T12:32:37Z</time>
      </trkpt>
      <trkpt lat="44.42413" lon="1.37744">
        <ele>189</ele>
        <time>2019-04-14T12:32:38Z</time>
      </trkpt>
      <trkpt lat="44.42412" lon="1.37745">
        <ele>189</ele>
        <time>2019-04-14T12:32:39Z</time>
      </trkpt>
      <trkpt lat="44.4241" lon="1.37746">
        <ele>189</ele>
        <time>2019-04-14T12:32:40Z</time>
      </trkpt>
      <trkpt lat="44.42408" lon="1.37747">
        <ele>189</ele>
        <time>2019-04-14T12:32:41Z</time>
      </trkpt>
      <trkpt lat="44.42405" lon="1.37748">
        <ele>189</ele>
        <time>2019-04-14T12:32:42Z</time>
      </trkpt>
      <trkpt lat="44.42403" lon="1.37749">
        <ele>189</ele>
        <time>2019-04-14T12:32:43Z</time>
      </trkpt>
      <trkpt lat="44.42401" lon="1.37749">
        <ele>189</ele>
        <time>2019-04-14T12:32:44Z</time>
      </trkpt>
      <trkpt lat="44.42399" lon="1.3775">
        <ele>189</ele>
        <time>2019-04-14T12:32:45Z</time>
      </trkpt>
      <trkpt lat="44.42397" lon="1.3775">
        <ele>189</ele>
        <time>2019-04-14T12:32:46Z</time>
      </trkpt>
      <trkpt lat="44.42395" lon="1.37751">
        <ele>189</ele>
        <time>2019-04-14T12:32:47Z</time>
      </trkpt>
      <trkpt lat="44.42393" lon="1.37752">
        <ele>190</ele>
        <time>2019-04-14T12:32:48Z</time>
      </trkpt>
      <trkpt lat="44.42392" lon="1.37753">
        <ele>190</ele>
        <time>2019-04-14T12:32:49Z</time>
      </trkpt>
      <trkpt lat="44.4239" lon="1.37753">
        <ele>190</ele>
        <time>2019-04-14T12:32:50Z</time>
      </trkpt>
      <trkpt lat="44.42389" lon="1.37754">
        <ele>190</ele>
        <time>2019-04-14T12:32:51Z</time>
      </trkpt>
      <trkpt lat="44.42387" lon="1.37754">
        <ele>190</ele>
        <time>2019-04-14T12:32:52Z</time>
      </trkpt>
      <trkpt lat="44.42385" lon="1.37755">
        <ele>190</ele>
        <time>2019-04-14T12:32:53Z</time>
      </trkpt>
      <trkpt lat="44.42383" lon="1.37756">
        <ele>190</ele>
        <time>2019-04-14T12:32:54Z</time>
      </trkpt>
      <trkpt lat="44.42381" lon="1.37755">
        <ele>190</ele>
        <time>2019-04-14T12:32:55Z</time>
      </trkpt>
      <trkpt lat="44.42379" lon="1.37755">
        <ele>190</ele>
        <time>2019-04-14T12:32:56Z</time>
      </trkpt>
      <trkpt lat="44.42377" lon="1.37755">
        <ele>190</ele>
        <time>2019-04-14T12:32:57Z</time>
      </trkpt>
      <trkpt lat="44.42374" lon="1.37756">
        <ele>190</ele>
        <time>2019-04-14T12:32:58Z</time>
      </trkpt>
      <trkpt lat="44.42372" lon="1.37757">
        <ele>190</ele>
        <time>2019-04-14T12:32:59Z</time>
      </trkpt>
      <trkpt lat="44.42369" lon="1.37757">
        <ele>191</ele>
        <time>2019-04-14T12:33:00Z</time>
      </trkpt>
      <trkpt lat="44.42366" lon="1.37757">
        <ele>191</ele>
        <time>2019-04-14T12:33:01Z</time>
      </trkpt>
      <trkpt lat="44.42364" lon="1.37757">
        <ele>191</ele>
        <time>2019-04-14T12:33:02Z</time>
      </trkpt>
      <trkpt lat="44.42362" lon="1.37758">
        <ele>191</ele>
        <time>2019-04-14T12:33:03Z</time>
      </trkpt>
      <trkpt lat="44.4236" lon="1.37759">
        <ele>191</ele>
        <time>2019-04-14T12:33:04Z</time>
      </trkpt>
      <trkpt lat="44.42358" lon="1.3776">
        <ele>191</ele>
        <time>2019-04-14T12:33:05Z</time>
      </trkpt>
      <trkpt lat="44.42356" lon="1.3776">
        <ele>191</ele>
        <time>2019-04-14T12:33:06Z</time>
      </trkpt>
      <trkpt lat="44.42354" lon="1.37761">
        <ele>191</ele>
        <time>2019-04-14T12:33:07Z</time>
      </trkpt>
      <trkpt lat="44.42352" lon="1.37762">
        <ele>191</ele>
        <time>2019-04-14T12:33:08Z</time>
      </trkpt>
      <trkpt lat="44.42349" lon="1.37763">
        <ele>191</ele>
        <time>2019-04-14T12:33:09Z</time>
      </trkpt>
      <trkpt lat="44.42347" lon="1.37764">
        <ele>192</ele>
        <time>2019-04-14T12:33:10Z</time>
      </trkpt>
      <trkpt lat="44.42345" lon="1.37765">
        <ele>192</ele>
        <time>2019-04-14T12:33:11Z</time>
      </trkpt>
      <trkpt lat="44.42343" lon="1.37767">
        <ele>192</ele>
        <time>2019-04-14T12:33:12Z</time>
      </trkpt>
      <trkpt lat="44.4234" lon="1.37769">
        <ele>192</ele>
        <time>2019-04-14T12:33:13Z</time>
      </trkpt>
      <trkpt lat="44.42339" lon="1.3777">
        <ele>192</ele>
        <time>2019-04-14T12:33:14Z</time>
      </trkpt>
      <trkpt lat="44.42336" lon="1.37773">
        <ele>192</ele>
        <time>2019-04-14T12:33:15Z</time>
      </trkpt>
      <trkpt lat="44.42334" lon="1.37775">
        <ele>192</ele>
        <time>2019-04-14T12:33:16Z</time>
      </trkpt>
      <trkpt lat="44.42331" lon="1.37777">
        <ele>192</ele>
        <time>2019-04-14T12:33:17Z</time>
      </trkpt>
      <trkpt lat="44.42328" lon="1.37779">
        <ele>192</ele>
        <time>2019-04-14T12:33:18Z</time>
      </trkpt>
      <trkpt lat="44.42326" lon="1.37781">
        <ele>192</ele>
        <time>2019-04-14T12:33:19Z</time>
      </trkpt>
      <trkpt lat="44.42324" lon="1.37782">
        <ele>192</ele>
        <time>2019-04-14T12:33:20Z</time>
      </trkpt>
      <trkpt lat="44.42322" lon="1.37784">
        <ele>193</ele>
        <time>2019-04-14T12:33:21Z</time>
      </trkpt>
      <trkpt lat="44.42319" lon="1.37786">
        <ele>193</ele>
        <time>2019-04-14T12:33:22Z</time>
      </trkpt>
      <trkpt lat="44.42317" lon="1.37788">
        <ele>193</ele>
        <time>2019-04-14T12:33:23Z</time>
      </trkpt>
      <trkpt lat="44.42315" lon="1.37789">
        <ele>193</ele>
        <time>2019-04-14T12:33:24Z</time>
      </trkpt>
      <trkpt lat="44.42313" lon="1.3779">
        <ele>193</ele>
        <time>2019-04-14T12:33:25Z</time>
      </trkpt>
      <trkpt lat="44.42311" lon="1.37792">
        <ele>194</ele>
        <time>2019-04-14T12:33:26Z</time>
      </trkpt>
      <trkpt lat="44.42311" lon="1.37793">
        <ele>194</ele>
        <time>2019-04-14T12:33:27Z</time>
      </trkpt>
      <trkpt lat="44.4231" lon="1.37794">
        <ele>194</ele>
        <time>2019-04-14T12:33:28Z</time>
      </trkpt>
      <trkpt lat="44.42308" lon="1.37795">
        <ele>194</ele>
        <time>2019-04-14T12:33:29Z</time>
      </trkpt>
      <trkpt lat="44.42305" lon="1.37796">
        <ele>194</ele>
        <time>2019-04-14T12:33:30Z</time>
      </trkpt>
      <trkpt lat="44.42303" lon="1.37798">
        <ele>195</ele>
        <time>2019-04-14T12:33:31Z</time>
      </trkpt>
      <trkpt lat="44.42301" lon="1.378">
        <ele>195</ele>
        <time>2019-04-14T12:33:32Z</time>
      </trkpt>
      <trkpt lat="44.42298" lon="1.378">
        <ele>195</ele>
        <time>2019-04-14T12:33:33Z</time>
      </trkpt>
      <trkpt lat="44.42296" lon="1.37801">
        <ele>195</ele>
        <time>2019-04-14T12:33:34Z</time>
      </trkpt>
      <trkpt lat="44.42294" lon="1.37801">
        <ele>195</ele>
        <time>2019-04-14T12:33:35Z</time>
      </trkpt>
      <trkpt lat="44.42292" lon="1.37801">
        <ele>195</ele>
        <time>2019-04-14T12:33:36Z</time>
      </trkpt>
      <trkpt lat="44.42289" lon="1.37801">
        <ele>195</ele>
        <time>2019-04-14T12:33:37Z</time>
      </trkpt>
      <trkpt lat="44.42286" lon="1.37802">
        <ele>195</ele>
        <time>2019-04-14T12:33:38Z</time>
      </trkpt>
      <trkpt lat="44.42283" lon="1.37803">
        <ele>195</ele>
        <time>2019-04-14T12:33:39Z</time>
      </trkpt>
      <trkpt lat="44.42281" lon="1.37804">
        <ele>195</ele>
        <time>2019-04-14T12:33:40Z</time>
      </trkpt>
      <trkpt lat="44.42278" lon="1.37805">
        <ele>195</ele>
        <time>2019-04-14T12:33:41Z</time>
      </trkpt>
      <trkpt lat="44.42276" lon="1.37805">
        <ele>195</ele>
        <time>2019-04-14T12:33:42Z</time>
      </trkpt>
      <trkpt lat="44.42273" lon="1.37806">
        <ele>195</ele>
        <time>2019-04-14T12:33:43Z</time>
      </trkpt>
      <trkpt lat="44.42271" lon="1.37806">
        <ele>195</ele>
        <time>2019-04-14T12:33:44Z</time>
      </trkpt>
      <trkpt lat="44.42268" lon="1.37808">
        <ele>196</ele>
        <time>2019-04-14T12:33:45Z</time>
      </trkpt>
      <trkpt lat="44.42266" lon="1.37809">
        <ele>196</ele>
        <time>2019-04-14T12:33:46Z</time>
      </trkpt>
      <trkpt lat="44.42264" lon="1.3781">
        <ele>196</ele>
        <time>2019-04-14T12:33:47Z</time>
      </trkpt>
      <trkpt lat="44.42262" lon="1.3781">
        <ele>196</ele>
        <time>2019-04-14T12:33:48Z</time>
      </trkpt>
      <trkpt lat="44.4226" lon="1.37809">
        <ele>196</ele>
        <time>2019-04-14T12:33:49Z</time>
      </trkpt>
      <trkpt lat="44.42258" lon="1.3781">
        <ele>196</ele>
        <time>2019-04-14T12:33:50Z</time>
      </trkpt>
      <trkpt lat="44.42256" lon="1.37811">
        <ele>196</ele>
        <time>2019-04-14T12:33:51Z</time>
      </trkpt>
      <trkpt lat="44.42254" lon="1.37811">
        <ele>196</ele>
        <time>2019-04-14T12:33:52Z</time>
      </trkpt>
      <trkpt lat="44.42253" lon="1.37809">
        <ele>196</ele>
        <time>2019-04-14T12:33:53Z</time>
      </trkpt>
      <trkpt lat="44.42251" lon="1.37807">
        <ele>197</ele>
        <time>2019-04-14T12:33:54Z</time>
      </trkpt>
      <trkpt lat="44.42249" lon="1.37806">
        <ele>197</ele>
        <time>2019-04-14T12:33:55Z</time>
      </trkpt>
      <trkpt lat="44.42247" lon="1.37805">
        <ele>197</ele>
        <time>2019-04-14T12:33:56Z</time>
      </trkpt>
      <trkpt lat="44.42244" lon="1.37805">
        <ele>197</ele>
        <time>2019-04-14T12:33:57Z</time>
      </trkpt>
      <trkpt lat="44.42242" lon="1.37803">
        <ele>197</ele>
        <time>2019-04-14T12:33:58Z</time>
      </trkpt>
      <trkpt lat="44.4224" lon="1.37801">
        <ele>198</ele>
        <time>2019-04-14T12:33:59Z</time>
      </trkpt>
      <trkpt lat="44.42238" lon="1.378">
        <ele>198</ele>
        <time>2019-04-14T12:34:00Z</time>
      </trkpt>
      <trkpt lat="44.42236" lon="1.37799">
        <ele>198</ele>
        <time>2019-04-14T12:34:01Z</time>
      </trkpt>
      <trkpt lat="44.42233" lon="1.378">
        <ele>198</ele>
        <time>2019-04-14T12:34:02Z</time>
      </trkpt>
      <trkpt lat="44.42231" lon="1.37801">
        <ele>199</ele>
        <time>2019-04-14T12:34:03Z</time>
      </trkpt>
      <trkpt lat="44.42228" lon="1.37801">
        <ele>198</ele>
        <time>2019-04-14T12:34:04Z</time>
      </trkpt>
      <trkpt lat="44.42226" lon="1.37801">
        <ele>198</ele>
        <time>2019-04-14T12:34:05Z</time>
      </trkpt>
      <trkpt lat="44.42223" lon="1.37801">
        <ele>198</ele>
        <time>2019-04-14T12:34:06Z</time>
      </trkpt>
      <trkpt lat="44.4222" lon="1.37802">
        <ele>198</ele>
        <time>2019-04-14T12:34:07Z</time>
      </trkpt>
      <trkpt lat="44.42219" lon="1.37803">
        <ele>199</ele>
        <time>2019-04-14T12:34:08Z</time>
      </trkpt>
      <trkpt lat="44.42218" lon="1.37803">
        <ele>199</ele>
        <time>2019-04-14T12:34:09Z</time>
      </trkpt>
      <trkpt lat="44.42216" lon="1.37805">
        <ele>199</ele>
        <time>2019-04-14T12:34:10Z</time>
      </trkpt>
      <trkpt lat="44.42214" lon="1.37806">
        <ele>199</ele>
        <time>2019-04-14T12:34:11Z</time>
      </trkpt>
      <trkpt lat="44.42213" lon="1.37805">
        <ele>199</ele>
        <time>2019-04-14T12:34:12Z</time>
      </trkpt>
      <trkpt lat="44.42213" lon="1.37803">
        <ele>199</ele>
        <time>2019-04-14T12:34:13Z</time>
      </trkpt>
      <trkpt lat="44.42211" lon="1.37801">
        <ele>199</ele>
        <time>2019-04-14T12:34:14Z</time>
      </trkpt>
      <trkpt lat="44.42208" lon="1.37802">
        <ele>199</ele>
        <time>2019-04-14T12:34:15Z</time>
      </trkpt>
      <trkpt lat="44.42206" lon="1.37802">
        <ele>199</ele>
        <time>2019-04-14T12:34:16Z</time>
      </trkpt>
      <trkpt lat="44.42204" lon="1.37802">
        <ele>200</ele>
        <time>2019-04-14T12:34:17Z</time>
      </trkpt>
      <trkpt lat="44.42202" lon="1.37801">
        <ele>200</ele>
        <time>2019-04-14T12:34:18Z</time>
      </trkpt>
      <trkpt lat="44.422" lon="1.37799">
        <ele>200</ele>
        <time>2019-04-14T12:34:19Z</time>
      </trkpt>
      <trkpt lat="44.42198" lon="1.37799">
        <ele>200</ele>
        <time>2019-04-14T12:34:20Z</time>
      </trkpt>
      <trkpt lat="44.42196" lon="1.37798">
        <ele>200</ele>
        <time>2019-04-14T12:34:21Z</time>
      </trkpt>
      <trkpt lat="44.42194" lon="1.37797">
        <ele>200</ele>
        <time>2019-04-14T12:34:22Z</time>
      </trkpt>
      <trkpt lat="44.42193" lon="1.37796">
        <ele>200</ele>
        <time>2019-04-14T12:34:23Z</time>
      </trkpt>
      <trkpt lat="44.42192" lon="1.37795">
        <ele>200</ele>
        <time>2019-04-14T12:34:24Z</time>
      </trkpt>
      <trkpt lat="44.42191" lon="1.37793">
        <ele>201</ele>
        <time>2019-04-14T12:34:25Z</time>
      </trkpt>
      <trkpt lat="44.42188" lon="1.37792">
        <ele>201</ele>
        <time>2019-04-14T12:34:26Z</time>
      </trkpt>
      <trkpt lat="44.42185" lon="1.37792">
        <ele>201</ele>
        <time>2019-04-14T12:34:27Z</time>
      </trkpt>
      <trkpt lat="44.42182" lon="1.37792">
        <ele>201</ele>
        <time>2019-04-14T12:34:28Z</time>
      </trkpt>
      <trkpt lat="44.4218" lon="1.37792">
        <ele>201</ele>
        <time>2019-04-14T12:34:29Z</time>
      </trkpt>
      <trkpt lat="44.42178" lon="1.37792">
        <ele>201</ele>
        <time>2019-04-14T12:34:30Z</time>
      </trkpt>
      <trkpt lat="44.42175" lon="1.37796">
        <ele>201</ele>
        <time>2019-04-14T12:34:31Z</time>
      </trkpt>
      <trkpt lat="44.42173" lon="1.37797">
        <ele>201</ele>
        <time>2019-04-14T12:34:32Z</time>
      </trkpt>
      <trkpt lat="44.4217" lon="1.37796">
        <ele>201</ele>
        <time>2019-04-14T12:34:33Z</time>
      </trkpt>
      <trkpt lat="44.42168" lon="1.37796">
        <ele>201</ele>
        <time>2019-04-14T12:34:34Z</time>
      </trkpt>
      <trkpt lat="44.42167" lon="1.37796">
        <ele>201</ele>
        <time>2019-04-14T12:34:35Z</time>
      </trkpt>
      <trkpt lat="44.42164" lon="1.37796">
        <ele>202</ele>
        <time>2019-04-14T12:34:36Z</time>
      </trkpt>
      <trkpt lat="44.42162" lon="1.37796">
        <ele>202</ele>
        <time>2019-04-14T12:34:37Z</time>
      </trkpt>
      <trkpt lat="44.42159" lon="1.37795">
        <ele>202</ele>
        <time>2019-04-14T12:34:38Z</time>
      </trkpt>
      <trkpt lat="44.42157" lon="1.37794">
        <ele>202</ele>
        <time>2019-04-14T12:34:39Z</time>
      </trkpt>
      <trkpt lat="44.42156" lon="1.37793">
        <ele>202</ele>
        <time>2019-04-14T12:34:40Z</time>
      </trkpt>
      <trkpt lat="44.42155" lon="1.37791">
        <ele>202</ele>
        <time>2019-04-14T12:34:41Z</time>
      </trkpt>
      <trkpt lat="44.42155" lon="1.37788">
        <ele>202</ele>
        <time>2019-04-14T12:34:42Z</time>
      </trkpt>
      <trkpt lat="44.42154" lon="1.37786">
        <ele>202</ele>
        <time>2019-04-14T12:34:43Z</time>
      </trkpt>
      <trkpt lat="44.42153" lon="1.37784">
        <ele>202</ele>
        <time>2019-04-14T12:34:44Z</time>
      </trkpt>
      <trkpt lat="44.4215" lon="1.37783">
        <ele>202</ele>
        <time>2019-04-14T12:34:45Z</time>
      </trkpt>
      <trkpt lat="44.42149" lon="1.37782">
        <ele>203</ele>
        <time>2019-04-14T12:34:46Z</time>
      </trkpt>
      <trkpt lat="44.42147" lon="1.37781">
        <ele>203</ele>
        <time>2019-04-14T12:34:47Z</time>
      </trkpt>
      <trkpt lat="44.42147" lon="1.37778">
        <ele>203</ele>
        <time>2019-04-14T12:34:48Z</time>
      </trkpt>
      <trkpt lat="44.42144" lon="1.37778">
        <ele>203</ele>
        <time>2019-04-14T12:34:49Z</time>
      </trkpt>
      <trkpt lat="44.42142" lon="1.37778">
        <ele>203</ele>
        <time>2019-04-14T12:34:50Z</time>
      </trkpt>
      <trkpt lat="44.42141" lon="1.37778">
        <ele>203</ele>
        <time>2019-04-14T12:34:51Z</time>
      </trkpt>
      <trkpt lat="44.42138" lon="1.37777">
        <ele>203</ele>
        <time>2019-04-14T12:34:52Z</time>
      </trkpt>
      <trkpt lat="44.42136" lon="1.37776">
        <ele>203</ele>
        <time>2019-04-14T12:34:53Z</time>
      </trkpt>
      <trkpt lat="44.42135" lon="1.37775">
        <ele>204</ele>
        <time>2019-04-14T12:34:54Z</time>
      </trkpt>
      <trkpt lat="44.42134" lon="1.37774">
        <ele>204</ele>
        <time>2019-04-14T12:34:55Z</time>
      </trkpt>
      <trkpt lat="44.42132" lon="1.37772">
        <ele>204</ele>
        <time>2019-04-14T12:34:56Z</time>
      </trkpt>
      <trkpt lat="44.4213" lon="1.37771">
        <ele>204</ele>
        <time>2019-04-14T12:34:57Z</time>
      </trkpt>
      <trkpt lat="44.42128" lon="1.37769">
        <ele>204</ele>
        <time>2019-04-14T12:34:58Z</time>
      </trkpt>
      <trkpt lat="44.42127" lon="1.37768">
        <ele>204</ele>
        <time>2019-04-14T12:34:59Z</time>
      </trkpt>
      <trkpt lat="44.42126" lon="1.37766">
        <ele>204</ele>
        <time>2019-04-14T12:35:00Z</time>
      </trkpt>
      <trkpt lat="44.42123" lon="1.37765">
        <ele>204</ele>
        <time>2019-04-14T12:35:01Z</time>
      </trkpt>
      <trkpt lat="44.42121" lon="1.37764">
        <ele>204</ele>
        <time>2019-04-14T12:35:02Z</time>
      </trkpt>
      <trkpt lat="44.4212" lon="1.37763">
        <ele>205</ele>
        <time>2019-04-14T12:35:03Z</time>
      </trkpt>
      <trkpt lat="44.42119" lon="1.37761">
        <ele>205</ele>
        <time>2019-04-14T12:35:04Z</time>
      </trkpt>
      <trkpt lat="44.42117" lon="1.37759">
        <ele>205</ele>
        <time>2019-04-14T12:35:05Z</time>
      </trkpt>
      <trkpt lat="44.42115" lon="1.37757">
        <ele>205</ele>
        <time>2019-04-14T12:35:06Z</time>
      </trkpt>
      <trkpt lat="44.42113" lon="1.37756">
        <ele>205</ele>
        <time>2019-04-14T12:35:07Z</time>
      </trkpt>
      <trkpt lat="44.42111" lon="1.37755">
        <ele>205</ele>
        <time>2019-04-14T12:35:08Z</time>
      </trkpt>
      <trkpt lat="44.42109" lon="1.37753">
        <ele>205</ele>
        <time>2019-04-14T12:35:09Z</time>
      </trkpt>
      <trkpt lat="44.42106" lon="1.37753">
        <ele>205</ele>
        <time>2019-04-14T12:35:10Z</time>
      </trkpt>
      <trkpt lat="44.42104" lon="1.37753">
        <ele>206</ele>
        <time>2019-04-14T12:35:11Z</time>
      </trkpt>
      <trkpt lat="44.42103" lon="1.37751">
        <ele>206</ele>
        <time>2019-04-14T12:35:12Z</time>
      </trkpt>
      <trkpt lat="44.42101" lon="1.37751">
        <ele>206</ele>
        <time>2019-04-14T12:35:13Z</time>
      </trkpt>
      <trkpt lat="44.421" lon="1.3775">
        <ele>206</ele>
        <time>2019-04-14T12:35:14Z</time>
      </trkpt>
      <trkpt lat="44.42098" lon="1.37749">
        <ele>206</ele>
        <time>2019-04-14T12:35:15Z</time>
      </trkpt>
      <trkpt lat="44.42095" lon="1.3775">
        <ele>206</ele>
        <time>2019-04-14T12:35:16Z</time>
      </trkpt>
      <trkpt lat="44.42094" lon="1.3775">
        <ele>207</ele>
        <time>2019-04-14T12:35:17Z</time>
      </trkpt>
      <trkpt lat="44.42093" lon="1.37751">
        <ele>207</ele>
        <time>2019-04-14T12:35:18Z</time>
      </trkpt>
      <trkpt lat="44.4209" lon="1.37752">
        <ele>207</ele>
        <time>2019-04-14T12:35:19Z</time>
      </trkpt>
      <trkpt lat="44.42089" lon="1.37752">
        <ele>207</ele>
        <time>2019-04-14T12:35:20Z</time>
      </trkpt>
      <trkpt lat="44.42087" lon="1.37752">
        <ele>207</ele>
        <time>2019-04-14T12:35:21Z</time>
      </trkpt>
      <trkpt lat="44.42084" lon="1.37752">
        <ele>207</ele>
        <time>2019-04-14T12:35:22Z</time>
      </trkpt>
      <trkpt lat="44.42082" lon="1.37753">
        <ele>208</ele>
        <time>2019-04-14T12:35:23Z</time>
      </trkpt>
      <trkpt lat="44.4208" lon="1.37753">
        <ele>208</ele>
        <time>2019-04-14T12:35:24Z</time>
      </trkpt>
      <trkpt lat="44.42078" lon="1.37753">
        <ele>208</ele>
        <time>2019-04-14T12:35:25Z</time>
      </trkpt>
      <trkpt lat="44.42076" lon="1.37754">
        <ele>208</ele>
        <time>2019-04-14T12:35:26Z</time>
      </trkpt>
      <trkpt lat="44.42074" lon="1.37754">
        <ele>208</ele>
        <time>2019-04-14T12:35:27Z</time>
      </trkpt>
      <trkpt lat="44.42072" lon="1.37755">
        <ele>208</ele>
        <time>2019-04-14T12:35:28Z</time>
      </trkpt>
      <trkpt lat="44.4207" lon="1.37755">
        <ele>208</ele>
        <time>2019-04-14T12:35:29Z</time>
      </trkpt>
      <trkpt lat="44.42068" lon="1.37756">
        <ele>209</ele>
        <time>2019-04-14T12:35:30Z</time>
      </trkpt>
      <trkpt lat="44.42066" lon="1.37756">
        <ele>209</ele>
        <time>2019-04-14T12:35:31Z</time>
      </trkpt>
      <trkpt lat="44.42065" lon="1.37756">
        <ele>209</ele>
        <time>2019-04-14T12:35:32Z</time>
      </trkpt>
      <trkpt lat="44.42063" lon="1.37757">
        <ele>209</ele>
        <time>2019-04-14T12:35:33Z</time>
      </trkpt>
      <trkpt lat="44.42061" lon="1.37758">
        <ele>209</ele>
        <time>2019-04-14T12:35:34Z</time>
      </trkpt>
      <trkpt lat="44.42059" lon="1.37759">
        <ele>209</ele>
        <time>2019-04-14T12:35:35Z</time>
      </trkpt>
      <trkpt lat="44.42057" lon="1.3776">
        <ele>209</ele>
        <time>2019-04-14T12:35:36Z</time>
      </trkpt>
      <trkpt lat="44.42055" lon="1.3776">
        <ele>210</ele>
        <time>2019-04-14T12:35:37Z</time>
      </trkpt>
      <trkpt lat="44.42054" lon="1.3776">
        <ele>210</ele>
        <time>2019-04-14T12:35:38Z</time>
      </trkpt>
      <trkpt lat="44.42052" lon="1.37761">
        <ele>210</ele>
        <time>2019-04-14T12:35:39Z</time>
      </trkpt>
      <trkpt lat="44.42051" lon="1.37762">
        <ele>210</ele>
        <time>2019-04-14T12:35:40Z</time>
      </trkpt>
      <trkpt lat="44.42049" lon="1.37762">
        <ele>210</ele>
        <time>2019-04-14T12:35:41Z</time>
      </trkpt>
      <trkpt lat="44.42047" lon="1.37764">
        <ele>210</ele>
        <time>2019-04-14T12:35:42Z</time>
      </trkpt>
      <trkpt lat="44.42046" lon="1.37764">
        <ele>210</ele>
        <time>2019-04-14T12:35:43Z</time>
      </trkpt>
      <trkpt lat="44.42044" lon="1.37765">
        <ele>210</ele>
        <time>2019-04-14T12:35:44Z</time>
      </trkpt>
      <trkpt lat="44.42042" lon="1.37766">
        <ele>210</ele>
        <time>2019-04-14T12:35:45Z</time>
      </trkpt>
      <trkpt lat="44.4204" lon="1.37767">
        <ele>211</ele>
        <time>2019-04-14T12:35:46Z</time>
      </trkpt>
      <trkpt lat="44.42038" lon="1.37768">
        <ele>211</ele>
        <time>2019-04-14T12:35:47Z</time>
      </trkpt>
      <trkpt lat="44.42037" lon="1.37769">
        <ele>211</ele>
        <time>2019-04-14T12:35:48Z</time>
      </trkpt>
      <trkpt lat="44.42035" lon="1.37769">
        <ele>211</ele>
        <time>2019-04-14T12:35:49Z</time>
      </trkpt>
      <trkpt lat="44.42033" lon="1.3777">
        <ele>211</ele>
        <time>2019-04-14T12:35:50Z</time>
      </trkpt>
      <trkpt lat="44.42032" lon="1.37769">
        <ele>211</ele>
        <time>2019-04-14T12:35:51Z</time>
      </trkpt>
      <trkpt lat="44.4203" lon="1.37769">
        <ele>211</ele>
        <time>2019-04-14T12:35:52Z</time>
      </trkpt>
      <trkpt lat="44.42028" lon="1.3777">
        <ele>211</ele>
        <time>2019-04-14T12:35:53Z</time>
      </trkpt>
      <trkpt lat="44.42027" lon="1.37771">
        <ele>211</ele>
        <time>2019-04-14T12:35:54Z</time>
      </trkpt>
      <trkpt lat="44.42025" lon="1.37772">
        <ele>211</ele>
        <time>2019-04-14T12:35:55Z</time>
      </trkpt>
      <trkpt lat="44.42023" lon="1.37772">
        <ele>211</ele>
        <time>2019-04-14T12:35:56Z</time>
      </trkpt>
      <trkpt lat="44.42022" lon="1.37772">
        <ele>211</ele>
        <time>2019-04-14T12:35:57Z</time>
      </trkpt>
      <trkpt lat="44.4202" lon="1.37773">
        <ele>212</ele>
        <time>2019-04-14T12:35:58Z</time>
      </trkpt>
      <trkpt lat="44.42018" lon="1.37774">
        <ele>212</ele>
        <time>2019-04-14T12:35:59Z</time>
      </trkpt>
      <trkpt lat="44.42017" lon="1.37774">
        <ele>212</ele>
        <time>2019-04-14T12:36:00Z</time>
      </trkpt>
      <trkpt lat="44.42016" lon="1.37774">
        <ele>212</ele>
        <time>2019-04-14T12:36:01Z</time>
      </trkpt>
      <trkpt lat="44.42016" lon="1.37775">
        <ele>212</ele>
        <time>2019-04-14T12:36:02Z</time>
      </trkpt>
      <trkpt lat="44.42014" lon="1.37775">
        <ele>212</ele>
        <time>2019-04-14T12:36:03Z</time>
      </trkpt>
      <trkpt lat="44.42013" lon="1.37776">
        <ele>212</ele>
        <time>2019-04-14T12:36:04Z</time>
      </trkpt>
      <trkpt lat="44.4201" lon="1.37778">
        <ele>212</ele>
        <time>2019-04-14T12:36:05Z</time>
      </trkpt>
      <trkpt lat="44.42008" lon="1.37779">
        <ele>212</ele>
        <time>2019-04-14T12:36:06Z</time>
      </trkpt>
      <trkpt lat="44.42005" lon="1.3778">
        <ele>213</ele>
        <time>2019-04-14T12:36:07Z</time>
      </trkpt>
      <trkpt lat="44.42003" lon="1.37781">
        <ele>213</ele>
        <time>2019-04-14T12:36:08Z</time>
      </trkpt>
      <trkpt lat="44.42001" lon="1.37782">
        <ele>213</ele>
        <time>2019-04-14T12:36:09Z</time>
      </trkpt>
      <trkpt lat="44.41999" lon="1.37783">
        <ele>213</ele>
        <time>2019-04-14T12:36:10Z</time>
      </trkpt>
      <trkpt lat="44.41998" lon="1.37784">
        <ele>213</ele>
        <time>2019-04-14T12:36:11Z</time>
      </trkpt>
      <trkpt lat="44.41996" lon="1.37784">
        <ele>214</ele>
        <time>2019-04-14T12:36:12Z</time>
      </trkpt>
      <trkpt lat="44.41995" lon="1.37785">
        <ele>214</ele>
        <time>2019-04-14T12:36:13Z</time>
      </trkpt>
      <trkpt lat="44.41993" lon="1.37786">
        <ele>214</ele>
        <time>2019-04-14T12:36:14Z</time>
      </trkpt>
      <trkpt lat="44.41991" lon="1.37787">
        <ele>214</ele>
        <time>2019-04-14T12:36:15Z</time>
      </trkpt>
      <trkpt lat="44.41989" lon="1.37787">
        <ele>214</ele>
        <time>2019-04-14T12:36:16Z</time>
      </trkpt>
      <trkpt lat="44.41988" lon="1.37788">
        <ele>214</ele>
        <time>2019-04-14T12:36:17Z</time>
      </trkpt>
      <trkpt lat="44.41986" lon="1.37788">
        <ele>214</ele>
        <time>2019-04-14T12:36:18Z</time>
      </trkpt>
      <trkpt lat="44.41985" lon="1.37789">
        <ele>214</ele>
        <time>2019-04-14T12:36:19Z</time>
      </trkpt>
      <trkpt lat="44.41984" lon="1.3779">
        <ele>214</ele>
        <time>2019-04-14T12:36:20Z</time>
      </trkpt>
      <trkpt lat="44.41982" lon="1.37791">
        <ele>215</ele>
        <time>2019-04-14T12:36:21Z</time>
      </trkpt>
      <trkpt lat="44.41981" lon="1.37792">
        <ele>215</ele>
        <time>2019-04-14T12:36:22Z</time>
      </trkpt>
      <trkpt lat="44.41979" lon="1.37794">
        <ele>215</ele>
        <time>2019-04-14T12:36:23Z</time>
      </trkpt>
      <trkpt lat="44.41978" lon="1.37795">
        <ele>215</ele>
        <time>2019-04-14T12:36:24Z</time>
      </trkpt>
      <trkpt lat="44.41977" lon="1.37795">
        <ele>215</ele>
        <time>2019-04-14T12:36:25Z</time>
      </trkpt>
      <trkpt lat="44.41975" lon="1.37797">
        <ele>215</ele>
        <time>2019-04-14T12:36:26Z</time>
      </trkpt>
      <trkpt lat="44.41974" lon="1.37798">
        <ele>215</ele>
        <time>2019-04-14T12:36:27Z</time>
      </trkpt>
      <trkpt lat="44.41972" lon="1.378">
        <ele>215</ele>
        <time>2019-04-14T12:36:28Z</time>
      </trkpt>
      <trkpt lat="44.4197" lon="1.37801">
        <ele>215</ele>
        <time>2019-04-14T12:36:29Z</time>
      </trkpt>
      <trkpt lat="44.41969" lon="1.37802">
        <ele>216</ele>
        <time>2019-04-14T12:36:30Z</time>
      </trkpt>
      <trkpt lat="44.41968" lon="1.37803">
        <ele>216</ele>
        <time>2019-04-14T12:36:31Z</time>
      </trkpt>
      <trkpt lat="44.41966" lon="1.37804">
        <ele>216</ele>
        <time>2019-04-14T12:36:32Z</time>
      </trkpt>
      <trkpt lat="44.41965" lon="1.37806">
        <ele>216</ele>
        <time>2019-04-14T12:36:33Z</time>
      </trkpt>
      <trkpt lat="44.41963" lon="1.37808">
        <ele>216</ele>
        <time>2019-04-14T12:36:34Z</time>
      </trkpt>
      <trkpt lat="44.41962" lon="1.3781">
        <ele>216</ele>
        <time>2019-04-14T12:36:35Z</time>
      </trkpt>
      <trkpt lat="44.4196" lon="1.37811">
        <ele>216</ele>
        <time>2019-04-14T12:36:36Z</time>
      </trkpt>
      <trkpt lat="44.41959" lon="1.37812">
        <ele>217</ele>
        <time>2019-04-14T12:36:37Z</time>
      </trkpt>
      <trkpt lat="44.41958" lon="1.37814">
        <ele>217</ele>
        <time>2019-04-14T12:36:38Z</time>
      </trkpt>
      <trkpt lat="44.41957" lon="1.37815">
        <ele>217</ele>
        <time>2019-04-14T12:36:39Z</time>
      </trkpt>
      <trkpt lat="44.41955" lon="1.37817">
        <ele>217</ele>
        <time>2019-04-14T12:36:40Z</time>
      </trkpt>
      <trkpt lat="44.41954" lon="1.37817">
        <ele>217</ele>
        <time>2019-04-14T12:36:41Z</time>
      </trkpt>
      <trkpt lat="44.41953" lon="1.37819">
        <ele>218</ele>
        <time>2019-04-14T12:36:42Z</time>
      </trkpt>
      <trkpt lat="44.41952" lon="1.3782">
        <ele>218</ele>
        <time>2019-04-14T12:36:43Z</time>
      </trkpt>
      <trkpt lat="44.4195" lon="1.37822">
        <ele>218</ele>
        <time>2019-04-14T12:36:44Z</time>
      </trkpt>
      <trkpt lat="44.41949" lon="1.37823">
        <ele>218</ele>
        <time>2019-04-14T12:36:45Z</time>
      </trkpt>
      <trkpt lat="44.41948" lon="1.37824">
        <ele>218</ele>
        <time>2019-04-14T12:36:46Z</time>
      </trkpt>
      <trkpt lat="44.41946" lon="1.37825">
        <ele>218</ele>
        <time>2019-04-14T12:36:47Z</time>
      </trkpt>
      <trkpt lat="44.41945" lon="1.37827">
        <ele>218</ele>
        <time>2019-04-14T12:36:48Z</time>
      </trkpt>
      <trkpt lat="44.41944" lon="1.37828">
        <ele>218</ele>
        <time>2019-04-14T12:36:49Z</time>
      </trkpt>
      <trkpt lat="44.41943" lon="1.37829">
        <ele>218</ele>
        <time>2019-04-14T12:36:50Z</time>
      </trkpt>
      <trkpt lat="44.41943" lon="1.37831">
        <ele>218</ele>
        <time>2019-04-14T12:36:51Z</time>
      </trkpt>
      <trkpt lat="44.41941" lon="1.37832">
        <ele>219</ele>
        <time>2019-04-14T12:36:52Z</time>
      </trkpt>
      <trkpt lat="44.4194" lon="1.37833">
        <ele>219</ele>
        <time>2019-04-14T12:36:53Z</time>
      </trkpt>
      <trkpt lat="44.41939" lon="1.37835">
        <ele>219</ele>
        <time>2019-04-14T12:36:54Z</time>
      </trkpt>
      <trkpt lat="44.41939" lon="1.37837">
        <ele>219</ele>
        <time>2019-04-14T12:36:55Z</time>
      </trkpt>
      <trkpt lat="44.41938" lon="1.37838">
        <ele>219</ele>
        <time>2019-04-14T12:36:56Z</time>
      </trkpt>
      <trkpt lat="44.41937" lon="1.37838">
        <ele>219</ele>
        <time>2019-04-14T12:36:57Z</time>
      </trkpt>
      <trkpt lat="44.41937" lon="1.37839">
        <ele>219</ele>
        <time>2019-04-14T12:36:58Z</time>
      </trkpt>
      <trkpt lat="44.41936" lon="1.37839">
        <ele>220</ele>
        <time>2019-04-14T12:36:59Z</time>
      </trkpt>
      <trkpt lat="44.41935" lon="1.37839">
        <ele>220</ele>
        <time>2019-04-14T12:37:00Z</time>
      </trkpt>
      <trkpt lat="44.41935" lon="1.3784">
        <ele>220</ele>
        <time>2019-04-14T12:37:01Z</time>
      </trkpt>
      <trkpt lat="44.41934" lon="1.37842">
        <ele>220</ele>
        <time>2019-04-14T12:37:02Z</time>
      </trkpt>
      <trkpt lat="44.41933" lon="1.37844">
        <ele>220</ele>
        <time>2019-04-14T12:37:03Z</time>
      </trkpt>
      <trkpt lat="44.41932" lon="1.37846">
        <ele>220</ele>
        <time>2019-04-14T12:37:04Z</time>
      </trkpt>
      <trkpt lat="44.41932" lon="1.37848">
        <ele>221</ele>
        <time>2019-04-14T12:37:05Z</time>
      </trkpt>
      <trkpt lat="44.41932" lon="1.37851">
        <ele>221</ele>
        <time>2019-04-14T12:37:06Z</time>
      </trkpt>
      <trkpt lat="44.41931" lon="1.37853">
        <ele>221</ele>
        <time>2019-04-14T12:37:07Z</time>
      </trkpt>
      <trkpt lat="44.41931" lon="1.37855">
        <ele>221</ele>
        <time>2019-04-14T12:37:08Z</time>
      </trkpt>
      <trkpt lat="44.4193" lon="1.37856">
        <ele>221</ele>
        <time>2019-04-14T12:37:09Z</time>
      </trkpt>
      <trkpt lat="44.41929" lon="1.37858">
        <ele>221</ele>
        <time>2019-04-14T12:37:10Z</time>
      </trkpt>
      <trkpt lat="44.41931" lon="1.37859">
        <ele>221</ele>
        <time>2019-04-14T12:37:11Z</time>
      </trkpt>
      <trkpt lat="44.41931" lon="1.37861">
        <ele>222</ele>
        <time>2019-04-14T12:37:12Z</time>
      </trkpt>
      <trkpt lat="44.4193" lon="1.37863">
        <ele>222</ele>
        <time>2019-04-14T12:37:13Z</time>
      </trkpt>
      <trkpt lat="44.41929" lon="1.37865">
        <ele>222</ele>
        <time>2019-04-14T12:37:14Z</time>
      </trkpt>
      <trkpt lat="44.41928" lon="1.37866">
        <ele>222</ele>
        <time>2019-04-14T12:37:15Z</time>
      </trkpt>
      <trkpt lat="44.41927" lon="1.37867">
        <ele>222</ele>
        <time>2019-04-14T12:37:16Z</time>
      </trkpt>
      <trkpt lat="44.41926" lon="1.37869">
        <ele>222</ele>
        <time>2019-04-14T12:37:17Z</time>
      </trkpt>
      <trkpt lat="44.41925" lon="1.37871">
        <ele>222</ele>
        <time>2019-04-14T12:37:18Z</time>
      </trkpt>
      <trkpt lat="44.41924" lon="1.37872">
        <ele>223</ele>
        <time>2019-04-14T12:37:19Z</time>
      </trkpt>
      <trkpt lat="44.41923" lon="1.37873">
        <ele>223</ele>
        <time>2019-04-14T12:37:20Z</time>
      </trkpt>
      <trkpt lat="44.41922" lon="1.37874">
        <ele>223</ele>
        <time>2019-04-14T12:37:21Z</time>
      </trkpt>
      <trkpt lat="44.4192" lon="1.37875">
        <ele>223</ele>
        <time>2019-04-14T12:37:22Z</time>
      </trkpt>
      <trkpt lat="44.41919" lon="1.37876">
        <ele>223</ele>
        <time>2019-04-14T12:37:23Z</time>
      </trkpt>
      <trkpt lat="44.41918" lon="1.37878">
        <ele>223</ele>
        <time>2019-04-14T12:37:24Z</time>
      </trkpt>
      <trkpt lat="44.41916" lon="1.37879">
        <ele>223</ele>
        <time>2019-04-14T12:37:25Z</time>
      </trkpt>
      <trkpt lat="44.41915" lon="1.3788">
        <ele>224</ele>
        <time>2019-04-14T12:37:26Z</time>
      </trkpt>
      <trkpt lat="44.41914" lon="1.37882">
        <ele>224</ele>
        <time>2019-04-14T12:37:27Z</time>
      </trkpt>
      <trkpt lat="44.41913" lon="1.37883">
        <ele>224</ele>
        <time>2019-04-14T12:37:28Z</time>
      </trkpt>
      <trkpt lat="44.41911" lon="1.37884">
        <ele>224</ele>
        <time>2019-04-14T12:37:29Z</time>
      </trkpt>
      <trkpt lat="44.4191" lon="1.37885">
        <ele>224</ele>
        <time>2019-04-14T12:37:30Z</time>
      </trkpt>
      <trkpt lat="44.41909" lon="1.37886">
        <ele>224</ele>
        <time>2019-04-14T12:37:31Z</time>
      </trkpt>
      <trkpt lat="44.41909" lon="1.37887">
        <ele>224</ele>
        <time>2019-04-14T12:37:32Z</time>
      </trkpt>
      <trkpt lat="44.41908" lon="1.37889">
        <ele>224</ele>
        <time>2019-04-14T12:37:33Z</time>
      </trkpt>
      <trkpt lat="44.41907" lon="1.3789">
        <ele>225</ele>
        <time>2019-04-14T12:37:34Z</time>
      </trkpt>
      <trkpt lat="44.41907" lon="1.37891">
        <ele>225</ele>
        <time>2019-04-14T12:37:35Z</time>
      </trkpt>
      <trkpt lat="44.41906" lon="1.37893">
        <ele>225</ele>
        <time>2019-04-14T12:37:36Z</time>
      </trkpt>
      <trkpt lat="44.41905" lon="1.37894">
        <ele>225</ele>
        <time>2019-04-14T12:37:37Z</time>
      </trkpt>
      <trkpt lat="44.41904" lon="1.37895">
        <ele>225</ele>
        <time>2019-04-14T12:37:38Z</time>
      </trkpt>
      <trkpt lat="44.41903" lon="1.37896">
        <ele>225</ele>
        <time>2019-04-14T12:37:39Z</time>
      </trkpt>
      <trkpt lat="44.41902" lon="1.37897">
        <ele>225</ele>
        <time>2019-04-14T12:37:40Z</time>
      </trkpt>
      <trkpt lat="44.41901" lon="1.37898">
        <ele>226</ele>
        <time>2019-04-14T12:37:41Z</time>
      </trkpt>
      <trkpt lat="44.419" lon="1.37899">
        <ele>226</ele>
        <time>2019-04-14T12:37:42Z</time>
      </trkpt>
      <trkpt lat="44.41899" lon="1.37901">
        <ele>226</ele>
        <time>2019-04-14T12:37:43Z</time>
      </trkpt>
      <trkpt lat="44.41898" lon="1.37902">
        <ele>226</ele>
        <time>2019-04-14T12:37:44Z</time>
      </trkpt>
      <trkpt lat="44.41897" lon="1.37903">
        <ele>226</ele>
        <time>2019-04-14T12:37:45Z</time>
      </trkpt>
      <trkpt lat="44.41895" lon="1.37904">
        <ele>226</ele>
        <time>2019-04-14T12:37:46Z</time>
      </trkpt>
      <trkpt lat="44.41894" lon="1.37905">
        <ele>226</ele>
        <time>2019-04-14T12:37:47Z</time>
      </trkpt>
      <trkpt lat="44.41892" lon="1.37906">
        <ele>226</ele>
        <time>2019-04-14T12:37:48Z</time>
      </trkpt>
      <trkpt lat="44.4189" lon="1.37908">
        <ele>226</ele>
        <time>2019-04-14T12:37:49Z</time>
      </trkpt>
      <trkpt lat="44.41888" lon="1.37909">
        <ele>226</ele>
        <time>2019-04-14T12:37:50Z</time>
      </trkpt>
      <trkpt lat="44.41887" lon="1.37909">
        <ele>226</ele>
        <time>2019-04-14T12:37:51Z</time>
      </trkpt>
      <trkpt lat="44.41885" lon="1.3791">
        <ele>226</ele>
        <time>2019-04-14T12:37:52Z</time>
      </trkpt>
      <trkpt lat="44.41883" lon="1.37911">
        <ele>226</ele>
        <time>2019-04-14T12:37:53Z</time>
      </trkpt>
      <trkpt lat="44.41882" lon="1.37912">
        <ele>226</ele>
        <time>2019-04-14T12:37:54Z</time>
      </trkpt>
      <trkpt lat="44.4188" lon="1.37913">
        <ele>226</ele>
        <time>2019-04-14T12:37:55Z</time>
      </trkpt>
      <trkpt lat="44.41878" lon="1.37914">
        <ele>226</ele>
        <time>2019-04-14T12:37:56Z</time>
      </trkpt>
      <trkpt lat="44.41876" lon="1.37915">
        <ele>227</ele>
        <time>2019-04-14T12:37:57Z</time>
      </trkpt>
      <trkpt lat="44.41875" lon="1.37916">
        <ele>227</ele>
        <time>2019-04-14T12:37:58Z</time>
      </trkpt>
      <trkpt lat="44.41873" lon="1.37917">
        <ele>227</ele>
        <time>2019-04-14T12:37:59Z</time>
      </trkpt>
      <trkpt lat="44.41871" lon="1.37917">
        <ele>227</ele>
        <time>2019-04-14T12:38:00Z</time>
      </trkpt>
      <trkpt lat="44.4187" lon="1.37918">
        <ele>227</ele>
        <time>2019-04-14T12:38:01Z</time>
      </trkpt>
      <trkpt lat="44.41868" lon="1.37919">
        <ele>227</ele>
        <time>2019-04-14T12:38:02Z</time>
      </trkpt>
      <trkpt lat="44.41867" lon="1.3792">
        <ele>227</ele>
        <time>2019-04-14T12:38:03Z</time>
      </trkpt>
      <trkpt lat="44.41865" lon="1.37921">
        <ele>227</ele>
        <time>2019-04-14T12:38:04Z</time>
      </trkpt>
      <trkpt lat="44.41864" lon="1.37921">
        <ele>227</ele>
        <time>2019-04-14T12:38:05Z</time>
      </trkpt>
      <trkpt lat="44.41862" lon="1.37922">
        <ele>227</ele>
        <time>2019-04-14T12:38:06Z</time>
      </trkpt>
      <trkpt lat="44.41861" lon="1.37923">
        <ele>227</ele>
        <time>2019-04-14T12:38:07Z</time>
      </trkpt>
      <trkpt lat="44.41859" lon="1.37923">
        <ele>227</ele>
        <time>2019-04-14T12:38:08Z</time>
      </trkpt>
      <trkpt lat="44.41858" lon="1.37924">
        <ele>228</ele>
        <time>2019-04-14T12:38:09Z</time>
      </trkpt>
      <trkpt lat="44.41857" lon="1.37925">
        <ele>228</ele>
        <time>2019-04-14T12:38:10Z</time>
      </trkpt>
      <trkpt lat="44.41855" lon="1.37925">
        <ele>228</ele>
        <time>2019-04-14T12:38:11Z</time>
      </trkpt>
      <trkpt lat="44.41854" lon="1.37926">
        <ele>228</ele>
        <time>2019-04-14T12:38:12Z</time>
      </trkpt>
      <trkpt lat="44.41852" lon="1.37926">
        <ele>228</ele>
        <time>2019-04-14T12:38:13Z</time>
      </trkpt>
      <trkpt lat="44.4185" lon="1.37926">
        <ele>228</ele>
        <time>2019-04-14T12:38:14Z</time>
      </trkpt>
      <trkpt lat="44.41849" lon="1.37925">
        <ele>228</ele>
        <time>2019-04-14T12:38:15Z</time>
      </trkpt>
      <trkpt lat="44.41847" lon="1.37925">
        <ele>228</ele>
        <time>2019-04-14T12:38:16Z</time>
      </trkpt>
      <trkpt lat="44.41845" lon="1.37926">
        <ele>228</ele>
        <time>2019-04-14T12:38:17Z</time>
      </trkpt>
      <trkpt lat="44.41844" lon="1.37926">
        <ele>229</ele>
        <time>2019-04-14T12:38:18Z</time>
      </trkpt>
      <trkpt lat="44.41843" lon="1.37925">
        <ele>229</ele>
        <time>2019-04-14T12:38:19Z</time>
      </trkpt>
      <trkpt lat="44.41841" lon="1.37925">
        <ele>229</ele>
        <time>2019-04-14T12:38:20Z</time>
      </trkpt>
      <trkpt lat="44.4184" lon="1.37926">
        <ele>229</ele>
        <time>2019-04-14T12:38:21Z</time>
      </trkpt>
      <trkpt lat="44.41838" lon="1.37926">
        <ele>229</ele>
        <time>2019-04-14T12:38:22Z</time>
      </trkpt>
      <trkpt lat="44.41836" lon="1.37926">
        <ele>229</ele>
        <time>2019-04-14T12:38:23Z</time>
      </trkpt>
      <trkpt lat="44.41834" lon="1.37926">
        <ele>229</ele>
        <time>2019-04-14T12:38:24Z</time>
      </trkpt>
      <trkpt lat="44.41833" lon="1.37927">
        <ele>229</ele>
        <time>2019-04-14T12:38:25Z</time>
      </trkpt>
      <trkpt lat="44.41831" lon="1.37928">
        <ele>229</ele>
        <time>2019-04-14T12:38:26Z</time>
      </trkpt>
      <trkpt lat="44.41829" lon="1.37928">
        <ele>229</ele>
        <time>2019-04-14T12:38:27Z</time>
      </trkpt>
      <trkpt lat="44.41828" lon="1.37928">
        <ele>229</ele>
        <time>2019-04-14T12:38:28Z</time>
      </trkpt>
      <trkpt lat="44.41826" lon="1.37928">
        <ele>229</ele>
        <time>2019-04-14T12:38:29Z</time>
      </trkpt>
      <trkpt lat="44.41825" lon="1.37928">
        <ele>229</ele>
        <time>2019-04-14T12:38:30Z</time>
      </trkpt>
      <trkpt lat="44.41823" lon="1.37928">
        <ele>229</ele>
        <time>2019-04-14T12:38:31Z</time>
      </trkpt>
      <trkpt lat="44.41822" lon="1.37929">
        <ele>229</ele>
        <time>2019-04-14T12:38:32Z</time>
      </trkpt>
      <trkpt lat="44.4182" lon="1.37929">
        <ele>229</ele>
        <time>2019-04-14T12:38:33Z</time>
      </trkpt>
      <trkpt lat="44.41819" lon="1.3793">
        <ele>230</ele>
        <time>2019-04-14T12:38:34Z</time>
      </trkpt>
      <trkpt lat="44.41817" lon="1.3793">
        <ele>230</ele>
        <time>2019-04-14T12:38:35Z</time>
      </trkpt>
      <trkpt lat="44.41816" lon="1.37931">
        <ele>230</ele>
        <time>2019-04-14T12:38:36Z</time>
      </trkpt>
      <trkpt lat="44.41815" lon="1.37931">
        <ele>230</ele>
        <time>2019-04-14T12:38:37Z</time>
      </trkpt>
      <trkpt lat="44.41814" lon="1.37932">
        <ele>230</ele>
        <time>2019-04-14T12:38:38Z</time>
      </trkpt>
      <trkpt lat="44.41813" lon="1.37933">
        <ele>230</ele>
        <time>2019-04-14T12:38:39Z</time>
      </trkpt>
      <trkpt lat="44.41811" lon="1.37934">
        <ele>231</ele>
        <time>2019-04-14T12:38:40Z</time>
      </trkpt>
      <trkpt lat="44.4181" lon="1.37934">
        <ele>231</ele>
        <time>2019-04-14T12:38:41Z</time>
      </trkpt>
      <trkpt lat="44.41808" lon="1.37934">
        <ele>231</ele>
        <time>2019-04-14T12:38:42Z</time>
      </trkpt>
      <trkpt lat="44.41806" lon="1.37934">
        <ele>231</ele>
        <time>2019-04-14T12:38:43Z</time>
      </trkpt>
      <trkpt lat="44.41805" lon="1.37934">
        <ele>231</ele>
        <time>2019-04-14T12:38:44Z</time>
      </trkpt>
      <trkpt lat="44.41803" lon="1.37934">
        <ele>231</ele>
        <time>2019-04-14T12:38:45Z</time>
      </trkpt>
      <trkpt lat="44.41802" lon="1.37934">
        <ele>231</ele>
        <time>2019-04-14T12:38:46Z</time>
      </trkpt>
      <trkpt lat="44.418" lon="1.37935">
        <ele>232</ele>
        <time>2019-04-14T12:38:47Z</time>
      </trkpt>
      <trkpt lat="44.41799" lon="1.37935">
        <ele>232</ele>
        <time>2019-04-14T12:38:48Z</time>
      </trkpt>
      <trkpt lat="44.41797" lon="1.37935">
        <ele>232</ele>
        <time>2019-04-14T12:38:49Z</time>
      </trkpt>
      <trkpt lat="44.41796" lon="1.37936">
        <ele>232</ele>
        <time>2019-04-14T12:38:50Z</time>
      </trkpt>
      <trkpt lat="44.41794" lon="1.37936">
        <ele>232</ele>
        <time>2019-04-14T12:38:51Z</time>
      </trkpt>
      <trkpt lat="44.41793" lon="1.37936">
        <ele>233</ele>
        <time>2019-04-14T12:38:52Z</time>
      </trkpt>
      <trkpt lat="44.41792" lon="1.37937">
        <ele>233</ele>
        <time>2019-04-14T12:38:53Z</time>
      </trkpt>
      <trkpt lat="44.41791" lon="1.37937">
        <ele>233</ele>
        <time>2019-04-14T12:38:54Z</time>
      </trkpt>
      <trkpt lat="44.41789" lon="1.37937">
        <ele>233</ele>
        <time>2019-04-14T12:38:55Z</time>
      </trkpt>
      <trkpt lat="44.41788" lon="1.37938">
        <ele>233</ele>
        <time>2019-04-14T12:38:56Z</time>
      </trkpt>
      <trkpt lat="44.41786" lon="1.37939">
        <ele>233</ele>
        <time>2019-04-14T12:38:57Z</time>
      </trkpt>
      <trkpt lat="44.41785" lon="1.3794">
        <ele>234</ele>
        <time>2019-04-14T12:38:58Z</time>
      </trkpt>
      <trkpt lat="44.41783" lon="1.3794">
        <ele>234</ele>
        <time>2019-04-14T12:38:59Z</time>
      </trkpt>
      <trkpt lat="44.41781" lon="1.3794">
        <ele>234</ele>
        <time>2019-04-14T12:39:00Z</time>
      </trkpt>
      <trkpt lat="44.41779" lon="1.37941">
        <ele>234</ele>
        <time>2019-04-14T12:39:01Z</time>
      </trkpt>
      <trkpt lat="44.41777" lon="1.37941">
        <ele>234</ele>
        <time>2019-04-14T12:39:02Z</time>
      </trkpt>
      <trkpt lat="44.41775" lon="1.37941">
        <ele>235</ele>
        <time>2019-04-14T12:39:03Z</time>
      </trkpt>
      <trkpt lat="44.41773" lon="1.37941">
        <ele>235</ele>
        <time>2019-04-14T12:39:04Z</time>
      </trkpt>
      <trkpt lat="44.41771" lon="1.37941">
        <ele>235</ele>
        <time>2019-04-14T12:39:05Z</time>
      </trkpt>
      <trkpt lat="44.41769" lon="1.37941">
        <ele>235</ele>
        <time>2019-04-14T12:39:06Z</time>
      </trkpt>
      <trkpt lat="44.41767" lon="1.37942">
        <ele>236</ele>
        <time>2019-04-14T12:39:07Z</time>
      </trkpt>
      <trkpt lat="44.41765" lon="1.37943">
        <ele>236</ele>
        <time>2019-04-14T12:39:08Z</time>
      </trkpt>
      <trkpt lat="44.41763" lon="1.37944">
        <ele>236</ele>
        <time>2019-04-14T12:39:09Z</time>
      </trkpt>
      <trkpt lat="44.41761" lon="1.37945">
        <ele>236</ele>
        <time>2019-04-14T12:39:10Z</time>
      </trkpt>
      <trkpt lat="44.41759" lon="1.37945">
        <ele>237</ele>
        <time>2019-04-14T12:39:11Z</time>
      </trkpt>
      <trkpt lat="44.41757" lon="1.37946">
        <ele>237</ele>
        <time>2019-04-14T12:39:12Z</time>
      </trkpt>
      <trkpt lat="44.41755" lon="1.37947">
        <ele>237</ele>
        <time>2019-04-14T12:39:13Z</time>
      </trkpt>
      <trkpt lat="44.41753" lon="1.37948">
        <ele>237</ele>
        <time>2019-04-14T12:39:14Z</time>
      </trkpt>
      <trkpt lat="44.41751" lon="1.37948">
        <ele>237</ele>
        <time>2019-04-14T12:39:15Z</time>
      </trkpt>
      <trkpt lat="44.41749" lon="1.37948">
        <ele>238</ele>
        <time>2019-04-14T12:39:16Z</time>
      </trkpt>
      <trkpt lat="44.41747" lon="1.37948">
        <ele>238</ele>
        <time>2019-04-14T12:39:17Z</time>
      </trkpt>
      <trkpt lat="44.41745" lon="1.37948">
        <ele>238</ele>
        <time>2019-04-14T12:39:18Z</time>
      </trkpt>
      <trkpt lat="44.41743" lon="1.37947">
        <ele>238</ele>
        <time>2019-04-14T12:39:19Z</time>
      </trkpt>
      <trkpt lat="44.41742" lon="1.37946">
        <ele>238</ele>
        <time>2019-04-14T12:39:20Z</time>
      </trkpt>
      <trkpt lat="44.41742" lon="1.37944">
        <ele>238</ele>
        <time>2019-04-14T12:39:21Z</time>
      </trkpt>
      <trkpt lat="44.41741" lon="1.37942">
        <ele>239</ele>
        <time>2019-04-14T12:39:22Z</time>
      </trkpt>
      <trkpt lat="44.41741" lon="1.37941">
        <ele>239</ele>
        <time>2019-04-14T12:39:23Z</time>
      </trkpt>
      <trkpt lat="44.4174" lon="1.37939">
        <ele>239</ele>
        <time>2019-04-14T12:39:24Z</time>
      </trkpt>
      <trkpt lat="44.41738" lon="1.37937">
        <ele>239</ele>
        <time>2019-04-14T12:39:25Z</time>
      </trkpt>
      <trkpt lat="44.41736" lon="1.37937">
        <ele>239</ele>
        <time>2019-04-14T12:39:26Z</time>
      </trkpt>
      <trkpt lat="44.41734" lon="1.37936">
        <ele>239</ele>
        <time>2019-04-14T12:39:27Z</time>
      </trkpt>
      <trkpt lat="44.41732" lon="1.37936">
        <ele>239</ele>
        <time>2019-04-14T12:39:28Z</time>
      </trkpt>
      <trkpt lat="44.4173" lon="1.37937">
        <ele>240</ele>
        <time>2019-04-14T12:39:29Z</time>
      </trkpt>
      <trkpt lat="44.41728" lon="1.37938">
        <ele>240</ele>
        <time>2019-04-14T12:39:30Z</time>
      </trkpt>
      <trkpt lat="44.41726" lon="1.37939">
        <ele>240</ele>
        <time>2019-04-14T12:39:31Z</time>
      </trkpt>
      <trkpt lat="44.41724" lon="1.37939">
        <ele>240</ele>
        <time>2019-04-14T12:39:32Z</time>
      </trkpt>
      <trkpt lat="44.41722" lon="1.37939">
        <ele>240</ele>
        <time>2019-04-14T12:39:33Z</time>
      </trkpt>
      <trkpt lat="44.41721" lon="1.37938">
        <ele>240</ele>
        <time>2019-04-14T12:39:34Z</time>
      </trkpt>
      <trkpt lat="44.41719" lon="1.37936">
        <ele>241</ele>
        <time>2019-04-14T12:39:35Z</time>
      </trkpt>
      <trkpt lat="44.41719" lon="1.37935">
        <ele>241</ele>
        <time>2019-04-14T12:39:36Z</time>
      </trkpt>
      <trkpt lat="44.41718" lon="1.37933">
        <ele>241</ele>
        <time>2019-04-14T12:39:37Z</time>
      </trkpt>
      <trkpt lat="44.41717" lon="1.37932">
        <ele>241</ele>
        <time>2019-04-14T12:39:38Z</time>
      </trkpt>
      <trkpt lat="44.41715" lon="1.37931">
        <ele>241</ele>
        <time>2019-04-14T12:39:39Z</time>
      </trkpt>
      <trkpt lat="44.41713" lon="1.3793">
        <ele>241</ele>
        <time>2019-04-14T12:39:40Z</time>
      </trkpt>
      <trkpt lat="44.41711" lon="1.3793">
        <ele>242</ele>
        <time>2019-04-14T12:39:41Z</time>
      </trkpt>
      <trkpt lat="44.4171" lon="1.37929">
        <ele>242</ele>
        <time>2019-04-14T12:39:42Z</time>
      </trkpt>
      <trkpt lat="44.41709" lon="1.37928">
        <ele>242</ele>
        <time>2019-04-14T12:39:43Z</time>
      </trkpt>
      <trkpt lat="44.41707" lon="1.37927">
        <ele>243</ele>
        <time>2019-04-14T12:39:44Z</time>
      </trkpt>
      <trkpt lat="44.41705" lon="1.37926">
        <ele>243</ele>
        <time>2019-04-14T12:39:45Z</time>
      </trkpt>
      <trkpt lat="44.41703" lon="1.37926">
        <ele>243</ele>
        <time>2019-04-14T12:39:46Z</time>
      </trkpt>
      <trkpt lat="44.41701" lon="1.37925">
        <ele>243</ele>
        <time>2019-04-14T12:39:47Z</time>
      </trkpt>
      <trkpt lat="44.41699" lon="1.37925">
        <ele>243</ele>
        <time>2019-04-14T12:39:48Z</time>
      </trkpt>
      <trkpt lat="44.41697" lon="1.37925">
        <ele>243</ele>
        <time>2019-04-14T12:39:49Z</time>
      </trkpt>
      <trkpt lat="44.41695" lon="1.37925">
        <ele>243</ele>
        <time>2019-04-14T12:39:50Z</time>
      </trkpt>
      <trkpt lat="44.41693" lon="1.37925">
        <ele>243</ele>
        <time>2019-04-14T12:39:51Z</time>
      </trkpt>
      <trkpt lat="44.41691" lon="1.37924">
        <ele>243</ele>
        <time>2019-04-14T12:39:52Z</time>
      </trkpt>
      <trkpt lat="44.41689" lon="1.37924">
        <ele>244</ele>
        <time>2019-04-14T12:39:53Z</time>
      </trkpt>
      <trkpt lat="44.41687" lon="1.37924">
        <ele>244</ele>
        <time>2019-04-14T12:39:54Z</time>
      </trkpt>
      <trkpt lat="44.41685" lon="1.37923">
        <ele>244</ele>
        <time>2019-04-14T12:39:55Z</time>
      </trkpt>
      <trkpt lat="44.41683" lon="1.37923">
        <ele>244</ele>
        <time>2019-04-14T12:39:56Z</time>
      </trkpt>
      <trkpt lat="44.41681" lon="1.37922">
        <ele>244</ele>
        <time>2019-04-14T12:39:57Z</time>
      </trkpt>
      <trkpt lat="44.41679" lon="1.37922">
        <ele>244</ele>
        <time>2019-04-14T12:39:58Z</time>
      </trkpt>
      <trkpt lat="44.41678" lon="1.37922">
        <ele>244</ele>
        <time>2019-04-14T12:39:59Z</time>
      </trkpt>
      <trkpt lat="44.41676" lon="1.37923">
        <ele>245</ele>
        <time>2019-04-14T12:40:00Z</time>
      </trkpt>
      <trkpt lat="44.41674" lon="1.37923">
        <ele>245</ele>
        <time>2019-04-14T12:40:01Z</time>
      </trkpt>
      <trkpt lat="44.41672" lon="1.37923">
        <ele>245</ele>
        <time>2019-04-14T12:40:02Z</time>
      </trkpt>
      <trkpt lat="44.4167" lon="1.37922">
        <ele>245</ele>
        <time>2019-04-14T12:40:03Z</time>
      </trkpt>
      <trkpt lat="44.41669" lon="1.37922">
        <ele>245</ele>
        <time>2019-04-14T12:40:04Z</time>
      </trkpt>
      <trkpt lat="44.41667" lon="1.37922">
        <ele>245</ele>
        <time>2019-04-14T12:40:05Z</time>
      </trkpt>
      <trkpt lat="44.41666" lon="1.37921">
        <ele>246</ele>
        <time>2019-04-14T12:40:06Z</time>
      </trkpt>
      <trkpt lat="44.41664" lon="1.37921">
        <ele>246</ele>
        <time>2019-04-14T12:40:07Z</time>
      </trkpt>
      <trkpt lat="44.41662" lon="1.37921">
        <ele>246</ele>
        <time>2019-04-14T12:40:08Z</time>
      </trkpt>
      <trkpt lat="44.4166" lon="1.37921">
        <ele>246</ele>
        <time>2019-04-14T12:40:09Z</time>
      </trkpt>
      <trkpt lat="44.41659" lon="1.3792">
        <ele>247</ele>
        <time>2019-04-14T12:40:10Z</time>
      </trkpt>
      <trkpt lat="44.41658" lon="1.37919">
        <ele>247</ele>
        <time>2019-04-14T12:40:11Z</time>
      </trkpt>
      <trkpt lat="44.41656" lon="1.37918">
        <ele>247</ele>
        <time>2019-04-14T12:40:12Z</time>
      </trkpt>
      <trkpt lat="44.41654" lon="1.37917">
        <ele>247</ele>
        <time>2019-04-14T12:40:13Z</time>
      </trkpt>
      <trkpt lat="44.41652" lon="1.37916">
        <ele>247</ele>
        <time>2019-04-14T12:40:14Z</time>
      </trkpt>
      <trkpt lat="44.41651" lon="1.37915">
        <ele>247</ele>
        <time>2019-04-14T12:40:15Z</time>
      </trkpt>
      <trkpt lat="44.41649" lon="1.37915">
        <ele>247</ele>
        <time>2019-04-14T12:40:16Z</time>
      </trkpt>
      <trkpt lat="44.41648" lon="1.37914">
        <ele>247</ele>
        <time>2019-04-14T12:40:17Z</time>
      </trkpt>
      <trkpt lat="44.41646" lon="1.37913">
        <ele>248</ele>
        <time>2019-04-14T12:40:18Z</time>
      </trkpt>
      <trkpt lat="44.41645" lon="1.37912">
        <ele>248</ele>
        <time>2019-04-14T12:40:19Z</time>
      </trkpt>
      <trkpt lat="44.41643" lon="1.37911">
        <ele>248</ele>
        <time>2019-04-14T12:40:20Z</time>
      </trkpt>
      <trkpt lat="44.41641" lon="1.37911">
        <ele>248</ele>
        <time>2019-04-14T12:40:21Z</time>
      </trkpt>
      <trkpt lat="44.4164" lon="1.37911">
        <ele>248</ele>
        <time>2019-04-14T12:40:22Z</time>
      </trkpt>
      <trkpt lat="44.41638" lon="1.37911">
        <ele>248</ele>
        <time>2019-04-14T12:40:23Z</time>
      </trkpt>
      <trkpt lat="44.41636" lon="1.3791">
        <ele>249</ele>
        <time>2019-04-14T12:40:24Z</time>
      </trkpt>
      <trkpt lat="44.41635" lon="1.3791">
        <ele>249</ele>
        <time>2019-04-14T12:40:25Z</time>
      </trkpt>
      <trkpt lat="44.41634" lon="1.37909">
        <ele>249</ele>
        <time>2019-04-14T12:40:26Z</time>
      </trkpt>
      <trkpt lat="44.41632" lon="1.37908">
        <ele>249</ele>
        <time>2019-04-14T12:40:27Z</time>
      </trkpt>
      <trkpt lat="44.41631" lon="1.37907">
        <ele>249</ele>
        <time>2019-04-14T12:40:28Z</time>
      </trkpt>
      <trkpt lat="44.4163" lon="1.37906">
        <ele>249</ele>
        <time>2019-04-14T12:40:29Z</time>
      </trkpt>
      <trkpt lat="44.41629" lon="1.37906">
        <ele>250</ele>
        <time>2019-04-14T12:40:30Z</time>
      </trkpt>
      <trkpt lat="44.41628" lon="1.37905">
        <ele>250</ele>
        <time>2019-04-14T12:40:31Z</time>
      </trkpt>
      <trkpt lat="44.41626" lon="1.37904">
        <ele>250</ele>
        <time>2019-04-14T12:40:32Z</time>
      </trkpt>
      <trkpt lat="44.41625" lon="1.37903">
        <ele>250</ele>
        <time>2019-04-14T12:40:33Z</time>
      </trkpt>
      <trkpt lat="44.41624" lon="1.37903">
        <ele>250</ele>
        <time>2019-04-14T12:40:34Z</time>
      </trkpt>
      <trkpt lat="44.41623" lon="1.37902">
        <ele>250</ele>
        <time>2019-04-14T12:40:35Z</time>
      </trkpt>
      <trkpt lat="44.41621" lon="1.37902">
        <ele>250</ele>
        <time>2019-04-14T12:40:36Z</time>
      </trkpt>
      <trkpt lat="44.41621" lon="1.379">
        <ele>251</ele>
        <time>2019-04-14T12:40:37Z</time>
      </trkpt>
      <trkpt lat="44.4162" lon="1.37898">
        <ele>251</ele>
        <time>2019-04-14T12:40:38Z</time>
      </trkpt>
      <trkpt lat="44.41619" lon="1.37898">
        <ele>251</ele>
        <time>2019-04-14T12:40:39Z</time>
      </trkpt>
      <trkpt lat="44.41619" lon="1.37896">
        <ele>251</ele>
        <time>2019-04-14T12:40:40Z</time>
      </trkpt>
      <trkpt lat="44.41619" lon="1.37894">
        <ele>251</ele>
        <time>2019-04-14T12:40:41Z</time>
      </trkpt>
      <trkpt lat="44.41619" lon="1.37892">
        <ele>251</ele>
        <time>2019-04-14T12:40:42Z</time>
      </trkpt>
      <trkpt lat="44.41619" lon="1.3789">
        <ele>252</ele>
        <time>2019-04-14T12:40:43Z</time>
      </trkpt>
      <trkpt lat="44.41619" lon="1.37889">
        <ele>252</ele>
        <time>2019-04-14T12:40:44Z</time>
      </trkpt>
      <trkpt lat="44.41619" lon="1.37888">
        <ele>252</ele>
        <time>2019-04-14T12:40:45Z</time>
      </trkpt>
      <trkpt lat="44.41619" lon="1.37886">
        <ele>253</ele>
        <time>2019-04-14T12:40:46Z</time>
      </trkpt>
      <trkpt lat="44.41619" lon="1.37887">
        <ele>253</ele>
        <time>2019-04-14T12:40:47Z</time>
      </trkpt>
      <trkpt lat="44.41619" lon="1.37888">
        <ele>253</ele>
        <time>2019-04-14T12:40:48Z</time>
      </trkpt>
      <trkpt lat="44.41621" lon="1.37887">
        <ele>253</ele>
        <time>2019-04-14T12:40:49Z</time>
      </trkpt>
      <trkpt lat="44.41622" lon="1.37886">
        <ele>254</ele>
        <time>2019-04-14T12:40:50Z</time>
      </trkpt>
      <trkpt lat="44.41623" lon="1.37887">
        <ele>254</ele>
        <time>2019-04-14T12:40:51Z</time>
      </trkpt>
      <trkpt lat="44.41624" lon="1.37886">
        <ele>254</ele>
        <time>2019-04-14T12:40:52Z</time>
      </trkpt>
      <trkpt lat="44.41625" lon="1.37887">
        <ele>254</ele>
        <time>2019-04-14T12:40:53Z</time>
      </trkpt>
      <trkpt lat="44.41626" lon="1.37888">
        <ele>254</ele>
        <time>2019-04-14T12:40:54Z</time>
      </trkpt>
      <trkpt lat="44.41627" lon="1.37888">
        <ele>254</ele>
        <time>2019-04-14T12:40:55Z</time>
      </trkpt>
      <trkpt lat="44.41628" lon="1.37888">
        <ele>254</ele>
        <time>2019-04-14T12:40:56Z</time>
      </trkpt>
      <trkpt lat="44.41629" lon="1.37888">
        <ele>255</ele>
        <time>2019-04-14T12:40:57Z</time>
      </trkpt>
      <trkpt lat="44.41631" lon="1.37888">
        <ele>255</ele>
        <time>2019-04-14T12:40:58Z</time>
      </trkpt>
      <trkpt lat="44.41632" lon="1.37887">
        <ele>255</ele>
        <time>2019-04-14T12:40:59Z</time>
      </trkpt>
      <trkpt lat="44.41633" lon="1.37887">
        <ele>255</ele>
        <time>2019-04-14T12:41:00Z</time>
      </trkpt>
      <trkpt lat="44.41634" lon="1.37887">
        <ele>255</ele>
        <time>2019-04-14T12:41:01Z</time>
      </trkpt>
      <trkpt lat="44.41635" lon="1.37888">
        <ele>256</ele>
        <time>2019-04-14T12:41:02Z</time>
      </trkpt>
      <trkpt lat="44.41636" lon="1.37889">
        <ele>256</ele>
        <time>2019-04-14T12:41:03Z</time>
      </trkpt>
      <trkpt lat="44.41638" lon="1.37888">
        <ele>256</ele>
        <time>2019-04-14T12:41:04Z</time>
      </trkpt>
      <trkpt lat="44.4164" lon="1.37888">
        <ele>256</ele>
        <time>2019-04-14T12:41:05Z</time>
      </trkpt>
      <trkpt lat="44.41641" lon="1.37888">
        <ele>256</ele>
        <time>2019-04-14T12:41:06Z</time>
      </trkpt>
      <trkpt lat="44.41643" lon="1.37889">
        <ele>257</ele>
        <time>2019-04-14T12:41:07Z</time>
      </trkpt>
      <trkpt lat="44.41644" lon="1.37888">
        <ele>257</ele>
        <time>2019-04-14T12:41:08Z</time>
      </trkpt>
      <trkpt lat="44.41646" lon="1.37888">
        <ele>257</ele>
        <time>2019-04-14T12:41:09Z</time>
      </trkpt>
      <trkpt lat="44.41647" lon="1.37888">
        <ele>257</ele>
        <time>2019-04-14T12:41:10Z</time>
      </trkpt>
      <trkpt lat="44.41648" lon="1.37888">
        <ele>257</ele>
        <time>2019-04-14T12:41:11Z</time>
      </trkpt>
      <trkpt lat="44.41649" lon="1.37888">
        <ele>257</ele>
        <time>2019-04-14T12:41:12Z</time>
      </trkpt>
      <trkpt lat="44.41651" lon="1.37887">
        <ele>257</ele>
        <time>2019-04-14T12:41:13Z</time>
      </trkpt>
      <trkpt lat="44.41652" lon="1.37886">
        <ele>258</ele>
        <time>2019-04-14T12:41:14Z</time>
      </trkpt>
      <trkpt lat="44.41654" lon="1.37885">
        <ele>258</ele>
        <time>2019-04-14T12:41:15Z</time>
      </trkpt>
      <trkpt lat="44.41656" lon="1.37885">
        <ele>258</ele>
        <time>2019-04-14T12:41:16Z</time>
      </trkpt>
      <trkpt lat="44.41657" lon="1.37885">
        <ele>258</ele>
        <time>2019-04-14T12:41:17Z</time>
      </trkpt>
      <trkpt lat="44.4166" lon="1.37884">
        <ele>258</ele>
        <time>2019-04-14T12:41:18Z</time>
      </trkpt>
      <trkpt lat="44.41662" lon="1.37884">
        <ele>258</ele>
        <time>2019-04-14T12:41:19Z</time>
      </trkpt>
      <trkpt lat="44.41664" lon="1.37883">
        <ele>258</ele>
        <time>2019-04-14T12:41:20Z</time>
      </trkpt>
      <trkpt lat="44.41667" lon="1.37882">
        <ele>258</ele>
        <time>2019-04-14T12:41:21Z</time>
      </trkpt>
      <trkpt lat="44.41669" lon="1.37881">
        <ele>259</ele>
        <time>2019-04-14T12:41:22Z</time>
      </trkpt>
      <trkpt lat="44.41671" lon="1.37881">
        <ele>259</ele>
        <time>2019-04-14T12:41:23Z</time>
      </trkpt>
      <trkpt lat="44.41673" lon="1.3788">
        <ele>259</ele>
        <time>2019-04-14T12:41:24Z</time>
      </trkpt>
      <trkpt lat="44.41676" lon="1.3788">
        <ele>259</ele>
        <time>2019-04-14T12:41:25Z</time>
      </trkpt>
      <trkpt lat="44.41678" lon="1.37879">
        <ele>259</ele>
        <time>2019-04-14T12:41:26Z</time>
      </trkpt>
      <trkpt lat="44.4168" lon="1.37879">
        <ele>259</ele>
        <time>2019-04-14T12:41:27Z</time>
      </trkpt>
      <trkpt lat="44.41682" lon="1.37878">
        <ele>259</ele>
        <time>2019-04-14T12:41:28Z</time>
      </trkpt>
      <trkpt lat="44.41685" lon="1.37877">
        <ele>259</ele>
        <time>2019-04-14T12:41:29Z</time>
      </trkpt>
      <trkpt lat="44.41687" lon="1.37876">
        <ele>259</ele>
        <time>2019-04-14T12:41:30Z</time>
      </trkpt>
      <trkpt lat="44.41689" lon="1.37875">
        <ele>260</ele>
        <time>2019-04-14T12:41:31Z</time>
      </trkpt>
      <trkpt lat="44.41691" lon="1.37873">
        <ele>260</ele>
        <time>2019-04-14T12:41:32Z</time>
      </trkpt>
      <trkpt lat="44.41692" lon="1.37871">
        <ele>260</ele>
        <time>2019-04-14T12:41:33Z</time>
      </trkpt>
      <trkpt lat="44.41693" lon="1.37869">
        <ele>260</ele>
        <time>2019-04-14T12:41:34Z</time>
      </trkpt>
      <trkpt lat="44.41695" lon="1.37867">
        <ele>260</ele>
        <time>2019-04-14T12:41:35Z</time>
      </trkpt>
      <trkpt lat="44.41696" lon="1.37866">
        <ele>260</ele>
        <time>2019-04-14T12:41:36Z</time>
      </trkpt>
      <trkpt lat="44.41697" lon="1.37864">
        <ele>260</ele>
        <time>2019-04-14T12:41:37Z</time>
      </trkpt>
      <trkpt lat="44.41698" lon="1.37862">
        <ele>260</ele>
        <time>2019-04-14T12:41:38Z</time>
      </trkpt>
      <trkpt lat="44.41699" lon="1.3786">
        <ele>261</ele>
        <time>2019-04-14T12:41:39Z</time>
      </trkpt>
      <trkpt lat="44.417" lon="1.37858">
        <ele>261</ele>
        <time>2019-04-14T12:41:40Z</time>
      </trkpt>
      <trkpt lat="44.417" lon="1.37856">
        <ele>261</ele>
        <time>2019-04-14T12:41:41Z</time>
      </trkpt>
      <trkpt lat="44.41699" lon="1.37853">
        <ele>261</ele>
        <time>2019-04-14T12:41:42Z</time>
      </trkpt>
      <trkpt lat="44.41698" lon="1.37851">
        <ele>261</ele>
        <time>2019-04-14T12:41:43Z</time>
      </trkpt>
      <trkpt lat="44.41698" lon="1.37849">
        <ele>262</ele>
        <time>2019-04-14T12:41:44Z</time>
      </trkpt>
      <trkpt lat="44.41697" lon="1.37847">
        <ele>262</ele>
        <time>2019-04-14T12:41:45Z</time>
      </trkpt>
      <trkpt lat="44.41696" lon="1.37845">
        <ele>262</ele>
        <time>2019-04-14T12:41:46Z</time>
      </trkpt>
      <trkpt lat="44.41694" lon="1.37843">
        <ele>263</ele>
        <time>2019-04-14T12:41:47Z</time>
      </trkpt>
      <trkpt lat="44.41693" lon="1.37842">
        <ele>263</ele>
        <time>2019-04-14T12:41:48Z</time>
      </trkpt>
      <trkpt lat="44.41693" lon="1.3784">
        <ele>263</ele>
        <time>2019-04-14T12:41:49Z</time>
      </trkpt>
      <trkpt lat="44.41692" lon="1.37838">
        <ele>264</ele>
        <time>2019-04-14T12:41:50Z</time>
      </trkpt>
      <trkpt lat="44.41693" lon="1.37835">
        <ele>264</ele>
        <time>2019-04-14T12:41:51Z</time>
      </trkpt>
      <trkpt lat="44.41693" lon="1.37833">
        <ele>264</ele>
        <time>2019-04-14T12:41:52Z</time>
      </trkpt>
      <trkpt lat="44.41694" lon="1.37831">
        <ele>264</ele>
        <time>2019-04-14T12:41:53Z</time>
      </trkpt>
      <trkpt lat="44.41695" lon="1.37829">
        <ele>264</ele>
        <time>2019-04-14T12:41:54Z</time>
      </trkpt>
      <trkpt lat="44.41696" lon="1.37827">
        <ele>264</ele>
        <time>2019-04-14T12:41:55Z</time>
      </trkpt>
      <trkpt lat="44.41696" lon="1.37825">
        <ele>264</ele>
        <time>2019-04-14T12:41:56Z</time>
      </trkpt>
      <trkpt lat="44.41696" lon="1.37822">
        <ele>264</ele>
        <time>2019-04-14T12:41:57Z</time>
      </trkpt>
      <trkpt lat="44.41696" lon="1.37819">
        <ele>264</ele>
        <time>2019-04-14T12:41:58Z</time>
      </trkpt>
      <trkpt lat="44.41695" lon="1.37816">
        <ele>265</ele>
        <time>2019-04-14T12:41:59Z</time>
      </trkpt>
      <trkpt lat="44.41693" lon="1.37814">
        <ele>265</ele>
        <time>2019-04-14T12:42:00Z</time>
      </trkpt>
      <trkpt lat="44.41692" lon="1.37812">
        <ele>265</ele>
        <time>2019-04-14T12:42:01Z</time>
      </trkpt>
      <trkpt lat="44.41691" lon="1.3781">
        <ele>265</ele>
        <time>2019-04-14T12:42:02Z</time>
      </trkpt>
      <trkpt lat="44.4169" lon="1.37808">
        <ele>266</ele>
        <time>2019-04-14T12:42:03Z</time>
      </trkpt>
      <trkpt lat="44.41689" lon="1.37806">
        <ele>266</ele>
        <time>2019-04-14T12:42:04Z</time>
      </trkpt>
      <trkpt lat="44.41689" lon="1.37803">
        <ele>266</ele>
        <time>2019-04-14T12:42:05Z</time>
      </trkpt>
      <trkpt lat="44.41689" lon="1.378">
        <ele>266</ele>
        <time>2019-04-14T12:42:06Z</time>
      </trkpt>
      <trkpt lat="44.41689" lon="1.37797">
        <ele>266</ele>
        <time>2019-04-14T12:42:07Z</time>
      </trkpt>
      <trkpt lat="44.41688" lon="1.37794">
        <ele>266</ele>
        <time>2019-04-14T12:42:08Z</time>
      </trkpt>
      <trkpt lat="44.41688" lon="1.37791">
        <ele>266</ele>
        <time>2019-04-14T12:42:09Z</time>
      </trkpt>
      <trkpt lat="44.41688" lon="1.37788">
        <ele>266</ele>
        <time>2019-04-14T12:42:10Z</time>
      </trkpt>
      <trkpt lat="44.41688" lon="1.37785">
        <ele>266</ele>
        <time>2019-04-14T12:42:11Z</time>
      </trkpt>
      <trkpt lat="44.41687" lon="1.37782">
        <ele>266</ele>
        <time>2019-04-14T12:42:12Z</time>
      </trkpt>
      <trkpt lat="44.41686" lon="1.37779">
        <ele>266</ele>
        <time>2019-04-14T12:42:13Z</time>
      </trkpt>
      <trkpt lat="44.41685" lon="1.37776">
        <ele>266</ele>
        <time>2019-04-14T12:42:14Z</time>
      </trkpt>
      <trkpt lat="44.41683" lon="1.37773">
        <ele>266</ele>
        <time>2019-04-14T12:42:15Z</time>
      </trkpt>
      <trkpt lat="44.41682" lon="1.37771">
        <ele>266</ele>
        <time>2019-04-14T12:42:16Z</time>
      </trkpt>
      <trkpt lat="44.4168" lon="1.3777">
        <ele>266</ele>
        <time>2019-04-14T12:42:17Z</time>
      </trkpt>
      <trkpt lat="44.41677" lon="1.37769">
        <ele>267</ele>
        <time>2019-04-14T12:42:18Z</time>
      </trkpt>
      <trkpt lat="44.41675" lon="1.37769">
        <ele>267</ele>
        <time>2019-04-14T12:42:19Z</time>
      </trkpt>
      <trkpt lat="44.41674" lon="1.3777">
        <ele>267</ele>
        <time>2019-04-14T12:42:20Z</time>
      </trkpt>
      <trkpt lat="44.41672" lon="1.37771">
        <ele>268</ele>
        <time>2019-04-14T12:42:21Z</time>
      </trkpt>
      <trkpt lat="44.4167" lon="1.37771">
        <ele>268</ele>
        <time>2019-04-14T12:42:22Z</time>
      </trkpt>
      <trkpt lat="44.41669" lon="1.37772">
        <ele>268</ele>
        <time>2019-04-14T12:42:23Z</time>
      </trkpt>
      <trkpt lat="44.41667" lon="1.37773">
        <ele>269</ele>
        <time>2019-04-14T12:42:24Z</time>
      </trkpt>
      <trkpt lat="44.41665" lon="1.37773">
        <ele>269</ele>
        <time>2019-04-14T12:42:25Z</time>
      </trkpt>
      <trkpt lat="44.41663" lon="1.37774">
        <ele>269</ele>
        <time>2019-04-14T12:42:26Z</time>
      </trkpt>
      <trkpt lat="44.41662" lon="1.37774">
        <ele>269</ele>
        <time>2019-04-14T12:42:27Z</time>
      </trkpt>
      <trkpt lat="44.4166" lon="1.37774">
        <ele>270</ele>
        <time>2019-04-14T12:42:28Z</time>
      </trkpt>
      <trkpt lat="44.41658" lon="1.37774">
        <ele>270</ele>
        <time>2019-04-14T12:42:29Z</time>
      </trkpt>
      <trkpt lat="44.41657" lon="1.37774">
        <ele>270</ele>
        <time>2019-04-14T12:42:30Z</time>
      </trkpt>
      <trkpt lat="44.41656" lon="1.37773">
        <ele>270</ele>
        <time>2019-04-14T12:42:31Z</time>
      </trkpt>
      <trkpt lat="44.41655" lon="1.37772">
        <ele>270</ele>
        <time>2019-04-14T12:42:32Z</time>
      </trkpt>
      <trkpt lat="44.41654" lon="1.37771">
        <ele>271</ele>
        <time>2019-04-14T12:42:33Z</time>
      </trkpt>
      <trkpt lat="44.41652" lon="1.3777">
        <ele>271</ele>
        <time>2019-04-14T12:42:34Z</time>
      </trkpt>
      <trkpt lat="44.41651" lon="1.37769">
        <ele>271</ele>
        <time>2019-04-14T12:42:35Z</time>
      </trkpt>
      <trkpt lat="44.4165" lon="1.37768">
        <ele>271</ele>
        <time>2019-04-14T12:42:36Z</time>
      </trkpt>
      <trkpt lat="44.41649" lon="1.37767">
        <ele>271</ele>
        <time>2019-04-14T12:42:37Z</time>
      </trkpt>
      <trkpt lat="44.41648" lon="1.37766">
        <ele>272</ele>
        <time>2019-04-14T12:42:38Z</time>
      </trkpt>
      <trkpt lat="44.41647" lon="1.37766">
        <ele>272</ele>
        <time>2019-04-14T12:42:39Z</time>
      </trkpt>
      <trkpt lat="44.41645" lon="1.37765">
        <ele>272</ele>
        <time>2019-04-14T12:42:40Z</time>
      </trkpt>
      <trkpt lat="44.41644" lon="1.37764">
        <ele>272</ele>
        <time>2019-04-14T12:42:41Z</time>
      </trkpt>
      <trkpt lat="44.41642" lon="1.37764">
        <ele>272</ele>
        <time>2019-04-14T12:42:42Z</time>
      </trkpt>
      <trkpt lat="44.4164" lon="1.37764">
        <ele>272</ele>
        <time>2019-04-14T12:42:43Z</time>
      </trkpt>
      <trkpt lat="44.41638" lon="1.37763">
        <ele>272</ele>
        <time>2019-04-14T12:42:44Z</time>
      </trkpt>
      <trkpt lat="44.41637" lon="1.37763">
        <ele>273</ele>
        <time>2019-04-14T12:42:45Z</time>
      </trkpt>
      <trkpt lat="44.41635" lon="1.37762">
        <ele>273</ele>
        <time>2019-04-14T12:42:46Z</time>
      </trkpt>
      <trkpt lat="44.41634" lon="1.3776">
        <ele>273</ele>
        <time>2019-04-14T12:42:47Z</time>
      </trkpt>
      <trkpt lat="44.41633" lon="1.37758">
        <ele>273</ele>
        <time>2019-04-14T12:42:48Z</time>
      </trkpt>
      <trkpt lat="44.41632" lon="1.37756">
        <ele>273</ele>
        <time>2019-04-14T12:42:49Z</time>
      </trkpt>
      <trkpt lat="44.4163" lon="1.37755">
        <ele>273</ele>
        <time>2019-04-14T12:42:50Z</time>
      </trkpt>
      <trkpt lat="44.41628" lon="1.37754">
        <ele>273</ele>
        <time>2019-04-14T12:42:51Z</time>
      </trkpt>
      <trkpt lat="44.41626" lon="1.37753">
        <ele>274</ele>
        <time>2019-04-14T12:42:52Z</time>
      </trkpt>
      <trkpt lat="44.41625" lon="1.37752">
        <ele>274</ele>
        <time>2019-04-14T12:42:53Z</time>
      </trkpt>
      <trkpt lat="44.41624" lon="1.37751">
        <ele>274</ele>
        <time>2019-04-14T12:42:54Z</time>
      </trkpt>
      <trkpt lat="44.41622" lon="1.37749">
        <ele>274</ele>
        <time>2019-04-14T12:42:55Z</time>
      </trkpt>
      <trkpt lat="44.41621" lon="1.37747">
        <ele>274</ele>
        <time>2019-04-14T12:42:56Z</time>
      </trkpt>
      <trkpt lat="44.4162" lon="1.37745">
        <ele>275</ele>
        <time>2019-04-14T12:42:57Z</time>
      </trkpt>
      <trkpt lat="44.41619" lon="1.37744">
        <ele>275</ele>
        <time>2019-04-14T12:42:58Z</time>
      </trkpt>
      <trkpt lat="44.41618" lon="1.37742">
        <ele>275</ele>
        <time>2019-04-14T12:42:59Z</time>
      </trkpt>
      <trkpt lat="44.41617" lon="1.3774">
        <ele>275</ele>
        <time>2019-04-14T12:43:00Z</time>
      </trkpt>
      <trkpt lat="44.41616" lon="1.37738">
        <ele>275</ele>
        <time>2019-04-14T12:43:01Z</time>
      </trkpt>
      <trkpt lat="44.41616" lon="1.37736">
        <ele>275</ele>
        <time>2019-04-14T12:43:02Z</time>
      </trkpt>
      <trkpt lat="44.41615" lon="1.37734">
        <ele>275</ele>
        <time>2019-04-14T12:43:03Z</time>
      </trkpt>
      <trkpt lat="44.41615" lon="1.37731">
        <ele>275</ele>
        <time>2019-04-14T12:43:04Z</time>
      </trkpt>
      <trkpt lat="44.41615" lon="1.37729">
        <ele>275</ele>
        <time>2019-04-14T12:43:05Z</time>
      </trkpt>
      <trkpt lat="44.41614" lon="1.37726">
        <ele>275</ele>
        <time>2019-04-14T12:43:06Z</time>
      </trkpt>
      <trkpt lat="44.41613" lon="1.37724">
        <ele>275</ele>
        <time>2019-04-14T12:43:07Z</time>
      </trkpt>
      <trkpt lat="44.41613" lon="1.37721">
        <ele>275</ele>
        <time>2019-04-14T12:43:08Z</time>
      </trkpt>
      <trkpt lat="44.41612" lon="1.37719">
        <ele>275</ele>
        <time>2019-04-14T12:43:09Z</time>
      </trkpt>
      <trkpt lat="44.41611" lon="1.37716">
        <ele>275</ele>
        <time>2019-04-14T12:43:10Z</time>
      </trkpt>
      <trkpt lat="44.41611" lon="1.37714">
        <ele>276</ele>
        <time>2019-04-14T12:43:11Z</time>
      </trkpt>
      <trkpt lat="44.4161" lon="1.37712">
        <ele>276</ele>
        <time>2019-04-14T12:43:12Z</time>
      </trkpt>
      <trkpt lat="44.41609" lon="1.3771">
        <ele>276</ele>
        <time>2019-04-14T12:43:13Z</time>
      </trkpt>
      <trkpt lat="44.41608" lon="1.37707">
        <ele>276</ele>
        <time>2019-04-14T12:43:14Z</time>
      </trkpt>
      <trkpt lat="44.41608" lon="1.37705">
        <ele>276</ele>
        <time>2019-04-14T12:43:15Z</time>
      </trkpt>
      <trkpt lat="44.41608" lon="1.37702">
        <ele>276</ele>
        <time>2019-04-14T12:43:16Z</time>
      </trkpt>
      <trkpt lat="44.41608" lon="1.37698">
        <ele>276</ele>
        <time>2019-04-14T12:43:17Z</time>
      </trkpt>
      <trkpt lat="44.41608" lon="1.37695">
        <ele>276</ele>
        <time>2019-04-14T12:43:18Z</time>
      </trkpt>
      <trkpt lat="44.41608" lon="1.37691">
        <ele>276</ele>
        <time>2019-04-14T12:43:19Z</time>
      </trkpt>
      <trkpt lat="44.41608" lon="1.37688">
        <ele>276</ele>
        <time>2019-04-14T12:43:20Z</time>
      </trkpt>
      <trkpt lat="44.41608" lon="1.37684">
        <ele>276</ele>
        <time>2019-04-14T12:43:21Z</time>
      </trkpt>
      <trkpt lat="44.41608" lon="1.3768">
        <ele>276</ele>
        <time>2019-04-14T12:43:22Z</time>
      </trkpt>
      <trkpt lat="44.41608" lon="1.37677">
        <ele>276</ele>
        <time>2019-04-14T12:43:23Z</time>
      </trkpt>
      <trkpt lat="44.41608" lon="1.37674">
        <ele>276</ele>
        <time>2019-04-14T12:43:24Z</time>
      </trkpt>
      <trkpt lat="44.41608" lon="1.3767">
        <ele>276</ele>
        <time>2019-04-14T12:43:25Z</time>
      </trkpt>
      <trkpt lat="44.41608" lon="1.37667">
        <ele>276</ele>
        <time>2019-04-14T12:43:26Z</time>
      </trkpt>
      <trkpt lat="44.41608" lon="1.37663">
        <ele>276</ele>
        <time>2019-04-14T12:43:27Z</time>
      </trkpt>
      <trkpt lat="44.41608" lon="1.3766">
        <ele>276</ele>
        <time>2019-04-14T12:43:28Z</time>
      </trkpt>
      <trkpt lat="44.41608" lon="1.37656">
        <ele>276</ele>
        <time>2019-04-14T12:43:29Z</time>
      </trkpt>
      <trkpt lat="44.41608" lon="1.37653">
        <ele>276</ele>
        <time>2019-04-14T12:43:30Z</time>
      </trkpt>
      <trkpt lat="44.41608" lon="1.3765">
        <ele>276</ele>
        <time>2019-04-14T12:43:31Z</time>
      </trkpt>
      <trkpt lat="44.41609" lon="1.37646">
        <ele>276</ele>
        <time>2019-04-14T12:43:32Z</time>
      </trkpt>
      <trkpt lat="44.41608" lon="1.37643">
        <ele>276</ele>
        <time>2019-04-14T12:43:33Z</time>
      </trkpt>
      <trkpt lat="44.41608" lon="1.3764">
        <ele>276</ele>
        <time>2019-04-14T12:43:34Z</time>
      </trkpt>
      <trkpt lat="44.41607" lon="1.37637">
        <ele>276</ele>
        <time>2019-04-14T12:43:35Z</time>
      </trkpt>
      <trkpt lat="44.41606" lon="1.37633">
        <ele>276</ele>
        <time>2019-04-14T12:43:36Z</time>
      </trkpt>
      <trkpt lat="44.41605" lon="1.37631">
        <ele>276</ele>
        <time>2019-04-14T12:43:37Z</time>
      </trkpt>
      <trkpt lat="44.41604" lon="1.37628">
        <ele>276</ele>
        <time>2019-04-14T12:43:38Z</time>
      </trkpt>
      <trkpt lat="44.41602" lon="1.37626">
        <ele>277</ele>
        <time>2019-04-14T12:43:39Z</time>
      </trkpt>
      <trkpt lat="44.41601" lon="1.37624">
        <ele>277</ele>
        <time>2019-04-14T12:43:40Z</time>
      </trkpt>
      <trkpt lat="44.41599" lon="1.37622">
        <ele>277</ele>
        <time>2019-04-14T12:43:41Z</time>
      </trkpt>
      <trkpt lat="44.41598" lon="1.37621">
        <ele>277</ele>
        <time>2019-04-14T12:43:42Z</time>
      </trkpt>
      <trkpt lat="44.41596" lon="1.3762">
        <ele>278</ele>
        <time>2019-04-14T12:43:43Z</time>
      </trkpt>
      <trkpt lat="44.41595" lon="1.37619">
        <ele>278</ele>
        <time>2019-04-14T12:43:44Z</time>
      </trkpt>
      <trkpt lat="44.41593" lon="1.37618">
        <ele>278</ele>
        <time>2019-04-14T12:43:45Z</time>
      </trkpt>
      <trkpt lat="44.41592" lon="1.37617">
        <ele>278</ele>
        <time>2019-04-14T12:43:46Z</time>
      </trkpt>
      <trkpt lat="44.4159" lon="1.37616">
        <ele>279</ele>
        <time>2019-04-14T12:43:47Z</time>
      </trkpt>
      <trkpt lat="44.41589" lon="1.37615">
        <ele>279</ele>
        <time>2019-04-14T12:43:48Z</time>
      </trkpt>
      <trkpt lat="44.41588" lon="1.37614">
        <ele>279</ele>
        <time>2019-04-14T12:43:49Z</time>
      </trkpt>
      <trkpt lat="44.41586" lon="1.37613">
        <ele>279</ele>
        <time>2019-04-14T12:43:50Z</time>
      </trkpt>
      <trkpt lat="44.41585" lon="1.37612">
        <ele>280</ele>
        <time>2019-04-14T12:43:51Z</time>
      </trkpt>
      <trkpt lat="44.41584" lon="1.3761">
        <ele>280</ele>
        <time>2019-04-14T12:43:52Z</time>
      </trkpt>
      <trkpt lat="44.41582" lon="1.37609">
        <ele>280</ele>
        <time>2019-04-14T12:43:53Z</time>
      </trkpt>
      <trkpt lat="44.41581" lon="1.37608">
        <ele>280</ele>
        <time>2019-04-14T12:43:54Z</time>
      </trkpt>
      <trkpt lat="44.41579" lon="1.37607">
        <ele>280</ele>
        <time>2019-04-14T12:43:55Z</time>
      </trkpt>
      <trkpt lat="44.41578" lon="1.37605">
        <ele>281</ele>
        <time>2019-04-14T12:43:56Z</time>
      </trkpt>
      <trkpt lat="44.41577" lon="1.37604">
        <ele>281</ele>
        <time>2019-04-14T12:43:57Z</time>
      </trkpt>
      <trkpt lat="44.41575" lon="1.37603">
        <ele>281</ele>
        <time>2019-04-14T12:43:58Z</time>
      </trkpt>
      <trkpt lat="44.41573" lon="1.37602">
        <ele>281</ele>
        <time>2019-04-14T12:43:59Z</time>
      </trkpt>
      <trkpt lat="44.41572" lon="1.37601">
        <ele>282</ele>
        <time>2019-04-14T12:44:00Z</time>
      </trkpt>
      <trkpt lat="44.4157" lon="1.376">
        <ele>282</ele>
        <time>2019-04-14T12:44:01Z</time>
      </trkpt>
      <trkpt lat="44.41569" lon="1.37599">
        <ele>282</ele>
        <time>2019-04-14T12:44:02Z</time>
      </trkpt>
      <trkpt lat="44.41567" lon="1.37598">
        <ele>282</ele>
        <time>2019-04-14T12:44:03Z</time>
      </trkpt>
      <trkpt lat="44.41566" lon="1.37597">
        <ele>283</ele>
        <time>2019-04-14T12:44:04Z</time>
      </trkpt>
      <trkpt lat="44.41564" lon="1.37596">
        <ele>283</ele>
        <time>2019-04-14T12:44:05Z</time>
      </trkpt>
      <trkpt lat="44.41563" lon="1.37594">
        <ele>283</ele>
        <time>2019-04-14T12:44:06Z</time>
      </trkpt>
      <trkpt lat="44.41562" lon="1.37593">
        <ele>283</ele>
        <time>2019-04-14T12:44:07Z</time>
      </trkpt>
      <trkpt lat="44.41561" lon="1.37591">
        <ele>283</ele>
        <time>2019-04-14T12:44:08Z</time>
      </trkpt>
      <trkpt lat="44.4156" lon="1.3759">
        <ele>283</ele>
        <time>2019-04-14T12:44:09Z</time>
      </trkpt>
      <trkpt lat="44.41558" lon="1.37589">
        <ele>284</ele>
        <time>2019-04-14T12:44:10Z</time>
      </trkpt>
      <trkpt lat="44.41557" lon="1.37588">
        <ele>284</ele>
        <time>2019-04-14T12:44:11Z</time>
      </trkpt>
      <trkpt lat="44.41555" lon="1.37587">
        <ele>284</ele>
        <time>2019-04-14T12:44:12Z</time>
      </trkpt>
      <trkpt lat="44.41554" lon="1.37585">
        <ele>284</ele>
        <time>2019-04-14T12:44:13Z</time>
      </trkpt>
      <trkpt lat="44.41553" lon="1.37584">
        <ele>285</ele>
        <time>2019-04-14T12:44:14Z</time>
      </trkpt>
      <trkpt lat="44.41551" lon="1.37583">
        <ele>285</ele>
        <time>2019-04-14T12:44:15Z</time>
      </trkpt>
      <trkpt lat="44.4155" lon="1.37582">
        <ele>285</ele>
        <time>2019-04-14T12:44:16Z</time>
      </trkpt>
      <trkpt lat="44.41549" lon="1.3758">
        <ele>285</ele>
        <time>2019-04-14T12:44:17Z</time>
      </trkpt>
      <trkpt lat="44.41548" lon="1.37578">
        <ele>286</ele>
        <time>2019-04-14T12:44:18Z</time>
      </trkpt>
      <trkpt lat="44.41547" lon="1.37576">
        <ele>286</ele>
        <time>2019-04-14T12:44:19Z</time>
      </trkpt>
      <trkpt lat="44.41547" lon="1.37574">
        <ele>286</ele>
        <time>2019-04-14T12:44:20Z</time>
      </trkpt>
      <trkpt lat="44.41546" lon="1.37572">
        <ele>286</ele>
        <time>2019-04-14T12:44:21Z</time>
      </trkpt>
      <trkpt lat="44.41546" lon="1.3757">
        <ele>286</ele>
        <time>2019-04-14T12:44:22Z</time>
      </trkpt>
      <trkpt lat="44.41546" lon="1.37568">
        <ele>286</ele>
        <time>2019-04-14T12:44:23Z</time>
      </trkpt>
      <trkpt lat="44.41546" lon="1.37566">
        <ele>286</ele>
        <time>2019-04-14T12:44:24Z</time>
      </trkpt>
      <trkpt lat="44.41546" lon="1.37564">
        <ele>287</ele>
        <time>2019-04-14T12:44:25Z</time>
      </trkpt>
      <trkpt lat="44.41546" lon="1.37562">
        <ele>287</ele>
        <time>2019-04-14T12:44:26Z</time>
      </trkpt>
      <trkpt lat="44.41546" lon="1.37559">
        <ele>287</ele>
        <time>2019-04-14T12:44:27Z</time>
      </trkpt>
      <trkpt lat="44.41546" lon="1.37556">
        <ele>287</ele>
        <time>2019-04-14T12:44:28Z</time>
      </trkpt>
      <trkpt lat="44.41547" lon="1.37553">
        <ele>287</ele>
        <time>2019-04-14T12:44:29Z</time>
      </trkpt>
      <trkpt lat="44.41547" lon="1.37551">
        <ele>287</ele>
        <time>2019-04-14T12:44:30Z</time>
      </trkpt>
      <trkpt lat="44.41547" lon="1.37548">
        <ele>287</ele>
        <time>2019-04-14T12:44:31Z</time>
      </trkpt>
      <trkpt lat="44.41548" lon="1.37546">
        <ele>287</ele>
        <time>2019-04-14T12:44:32Z</time>
      </trkpt>
      <trkpt lat="44.41548" lon="1.37543">
        <ele>287</ele>
        <time>2019-04-14T12:44:33Z</time>
      </trkpt>
      <trkpt lat="44.41548" lon="1.3754">
        <ele>286</ele>
        <time>2019-04-14T12:44:34Z</time>
      </trkpt>
      <trkpt lat="44.41548" lon="1.37537">
        <ele>286</ele>
        <time>2019-04-14T12:44:35Z</time>
      </trkpt>
      <trkpt lat="44.41549" lon="1.37535">
        <ele>286</ele>
        <time>2019-04-14T12:44:36Z</time>
      </trkpt>
      <trkpt lat="44.41549" lon="1.37532">
        <ele>287</ele>
        <time>2019-04-14T12:44:37Z</time>
      </trkpt>
      <trkpt lat="44.4155" lon="1.37529">
        <ele>287</ele>
        <time>2019-04-14T12:44:38Z</time>
      </trkpt>
      <trkpt lat="44.4155" lon="1.37527">
        <ele>287</ele>
        <time>2019-04-14T12:44:39Z</time>
      </trkpt>
      <trkpt lat="44.41552" lon="1.37525">
        <ele>287</ele>
        <time>2019-04-14T12:44:40Z</time>
      </trkpt>
      <trkpt lat="44.41552" lon="1.37522">
        <ele>286</ele>
        <time>2019-04-14T12:44:41Z</time>
      </trkpt>
      <trkpt lat="44.41552" lon="1.37519">
        <ele>287</ele>
        <time>2019-04-14T12:44:42Z</time>
      </trkpt>
      <trkpt lat="44.41551" lon="1.37517">
        <ele>287</ele>
        <time>2019-04-14T12:44:43Z</time>
      </trkpt>
      <trkpt lat="44.41551" lon="1.37515">
        <ele>287</ele>
        <time>2019-04-14T12:44:44Z</time>
      </trkpt>
      <trkpt lat="44.41551" lon="1.37512">
        <ele>287</ele>
        <time>2019-04-14T12:44:45Z</time>
      </trkpt>
      <trkpt lat="44.41552" lon="1.3751">
        <ele>287</ele>
        <time>2019-04-14T12:44:46Z</time>
      </trkpt>
      <trkpt lat="44.41552" lon="1.37507">
        <ele>288</ele>
        <time>2019-04-14T12:44:47Z</time>
      </trkpt>
      <trkpt lat="44.41553" lon="1.37505">
        <ele>288</ele>
        <time>2019-04-14T12:44:48Z</time>
      </trkpt>
      <trkpt lat="44.41553" lon="1.37502">
        <ele>288</ele>
        <time>2019-04-14T12:44:49Z</time>
      </trkpt>
      <trkpt lat="44.41554" lon="1.375">
        <ele>288</ele>
        <time>2019-04-14T12:44:50Z</time>
      </trkpt>
      <trkpt lat="44.41554" lon="1.37498">
        <ele>288</ele>
        <time>2019-04-14T12:44:51Z</time>
      </trkpt>
      <trkpt lat="44.41555" lon="1.37495">
        <ele>289</ele>
        <time>2019-04-14T12:44:52Z</time>
      </trkpt>
      <trkpt lat="44.41555" lon="1.37493">
        <ele>289</ele>
        <time>2019-04-14T12:44:53Z</time>
      </trkpt>
      <trkpt lat="44.41555" lon="1.37491">
        <ele>289</ele>
        <time>2019-04-14T12:44:54Z</time>
      </trkpt>
      <trkpt lat="44.41555" lon="1.37489">
        <ele>290</ele>
        <time>2019-04-14T12:44:55Z</time>
      </trkpt>
      <trkpt lat="44.41556" lon="1.37487">
        <ele>290</ele>
        <time>2019-04-14T12:44:56Z</time>
      </trkpt>
      <trkpt lat="44.41556" lon="1.37485">
        <ele>290</ele>
        <time>2019-04-14T12:44:57Z</time>
      </trkpt>
      <trkpt lat="44.41556" lon="1.37482">
        <ele>290</ele>
        <time>2019-04-14T12:44:58Z</time>
      </trkpt>
      <trkpt lat="44.41557" lon="1.3748">
        <ele>291</ele>
        <time>2019-04-14T12:44:59Z</time>
      </trkpt>
      <trkpt lat="44.41557" lon="1.37478">
        <ele>291</ele>
        <time>2019-04-14T12:45:00Z</time>
      </trkpt>
      <trkpt lat="44.41556" lon="1.37477">
        <ele>291</ele>
        <time>2019-04-14T12:45:01Z</time>
      </trkpt>
      <trkpt lat="44.41555" lon="1.37475">
        <ele>291</ele>
        <time>2019-04-14T12:45:02Z</time>
      </trkpt>
      <trkpt lat="44.41553" lon="1.37474">
        <ele>291</ele>
        <time>2019-04-14T12:45:03Z</time>
      </trkpt>
      <trkpt lat="44.41552" lon="1.37473">
        <ele>291</ele>
        <time>2019-04-14T12:45:04Z</time>
      </trkpt>
      <trkpt lat="44.4155" lon="1.37471">
        <ele>291</ele>
        <time>2019-04-14T12:45:05Z</time>
      </trkpt>
      <trkpt lat="44.41549" lon="1.3747">
        <ele>292</ele>
        <time>2019-04-14T12:45:06Z</time>
      </trkpt>
      <trkpt lat="44.41547" lon="1.37469">
        <ele>292</ele>
        <time>2019-04-14T12:45:07Z</time>
      </trkpt>
      <trkpt lat="44.41546" lon="1.37467">
        <ele>292</ele>
        <time>2019-04-14T12:45:08Z</time>
      </trkpt>
      <trkpt lat="44.41544" lon="1.37466">
        <ele>292</ele>
        <time>2019-04-14T12:45:09Z</time>
      </trkpt>
      <trkpt lat="44.41543" lon="1.37465">
        <ele>292</ele>
        <time>2019-04-14T12:45:10Z</time>
      </trkpt>
      <trkpt lat="44.41541" lon="1.37463">
        <ele>292</ele>
        <time>2019-04-14T12:45:11Z</time>
      </trkpt>
      <trkpt lat="44.4154" lon="1.37463">
        <ele>292</ele>
        <time>2019-04-14T12:45:12Z</time>
      </trkpt>
      <trkpt lat="44.41538" lon="1.37461">
        <ele>292</ele>
        <time>2019-04-14T12:45:13Z</time>
      </trkpt>
      <trkpt lat="44.41537" lon="1.3746">
        <ele>293</ele>
        <time>2019-04-14T12:45:14Z</time>
      </trkpt>
      <trkpt lat="44.41535" lon="1.3746">
        <ele>293</ele>
        <time>2019-04-14T12:45:15Z</time>
      </trkpt>
      <trkpt lat="44.41533" lon="1.37459">
        <ele>293</ele>
        <time>2019-04-14T12:45:16Z</time>
      </trkpt>
      <trkpt lat="44.41532" lon="1.37458">
        <ele>293</ele>
        <time>2019-04-14T12:45:17Z</time>
      </trkpt>
      <trkpt lat="44.4153" lon="1.37457">
        <ele>293</ele>
        <time>2019-04-14T12:45:18Z</time>
      </trkpt>
      <trkpt lat="44.41529" lon="1.37456">
        <ele>293</ele>
        <time>2019-04-14T12:45:19Z</time>
      </trkpt>
      <trkpt lat="44.41527" lon="1.37455">
        <ele>293</ele>
        <time>2019-04-14T12:45:20Z</time>
      </trkpt>
      <trkpt lat="44.41526" lon="1.37454">
        <ele>293</ele>
        <time>2019-04-14T12:45:21Z</time>
      </trkpt>
      <trkpt lat="44.41524" lon="1.37454">
        <ele>293</ele>
        <time>2019-04-14T12:45:22Z</time>
      </trkpt>
      <trkpt lat="44.41523" lon="1.37453">
        <ele>294</ele>
        <time>2019-04-14T12:45:23Z</time>
      </trkpt>
      <trkpt lat="44.41522" lon="1.37452">
        <ele>294</ele>
        <time>2019-04-14T12:45:24Z</time>
      </trkpt>
      <trkpt lat="44.4152" lon="1.37451">
        <ele>294</ele>
        <time>2019-04-14T12:45:25Z</time>
      </trkpt>
      <trkpt lat="44.41519" lon="1.37451">
        <ele>294</ele>
        <time>2019-04-14T12:45:26Z</time>
      </trkpt>
      <trkpt lat="44.41517" lon="1.3745">
        <ele>294</ele>
        <time>2019-04-14T12:45:27Z</time>
      </trkpt>
      <trkpt lat="44.41516" lon="1.37449">
        <ele>294</ele>
        <time>2019-04-14T12:45:28Z</time>
      </trkpt>
      <trkpt lat="44.41514" lon="1.37449">
        <ele>294</ele>
        <time>2019-04-14T12:45:29Z</time>
      </trkpt>
      <trkpt lat="44.41513" lon="1.37448">
        <ele>294</ele>
        <time>2019-04-14T12:45:30Z</time>
      </trkpt>
      <trkpt lat="44.41511" lon="1.37448">
        <ele>295</ele>
        <time>2019-04-14T12:45:31Z</time>
      </trkpt>
      <trkpt lat="44.4151" lon="1.37448">
        <ele>295</ele>
        <time>2019-04-14T12:45:32Z</time>
      </trkpt>
      <trkpt lat="44.41508" lon="1.37447">
        <ele>295</ele>
        <time>2019-04-14T12:45:33Z</time>
      </trkpt>
      <trkpt lat="44.41507" lon="1.37446">
        <ele>295</ele>
        <time>2019-04-14T12:45:34Z</time>
      </trkpt>
      <trkpt lat="44.41506" lon="1.37445">
        <ele>296</ele>
        <time>2019-04-14T12:45:35Z</time>
      </trkpt>
      <trkpt lat="44.41504" lon="1.37444">
        <ele>295</ele>
        <time>2019-04-14T12:45:36Z</time>
      </trkpt>
      <trkpt lat="44.41503" lon="1.37444">
        <ele>296</ele>
        <time>2019-04-14T12:45:37Z</time>
      </trkpt>
      <trkpt lat="44.41501" lon="1.37443">
        <ele>296</ele>
        <time>2019-04-14T12:45:38Z</time>
      </trkpt>
      <trkpt lat="44.415" lon="1.37443">
        <ele>296</ele>
        <time>2019-04-14T12:45:39Z</time>
      </trkpt>
      <trkpt lat="44.41499" lon="1.37443">
        <ele>296</ele>
        <time>2019-04-14T12:45:40Z</time>
      </trkpt>
      <trkpt lat="44.41498" lon="1.37442">
        <ele>297</ele>
        <time>2019-04-14T12:45:41Z</time>
      </trkpt>
      <trkpt lat="44.41497" lon="1.37442">
        <ele>297</ele>
        <time>2019-04-14T12:45:42Z</time>
      </trkpt>
      <trkpt lat="44.41496" lon="1.3744">
        <ele>297</ele>
        <time>2019-04-14T12:45:43Z</time>
      </trkpt>
      <trkpt lat="44.41496" lon="1.37438">
        <ele>298</ele>
        <time>2019-04-14T12:45:44Z</time>
      </trkpt>
      <trkpt lat="44.41496" lon="1.37436">
        <ele>298</ele>
        <time>2019-04-14T12:45:45Z</time>
      </trkpt>
      <trkpt lat="44.41497" lon="1.37434">
        <ele>298</ele>
        <time>2019-04-14T12:45:46Z</time>
      </trkpt>
      <trkpt lat="44.41499" lon="1.3743">
        <ele>298</ele>
        <time>2019-04-14T12:45:47Z</time>
      </trkpt>
      <trkpt lat="44.41499" lon="1.37429">
        <ele>298</ele>
        <time>2019-04-14T12:45:49Z</time>
      </trkpt>
      <trkpt lat="44.41499" lon="1.37427">
        <ele>298</ele>
        <time>2019-04-14T12:45:50Z</time>
      </trkpt>
      <trkpt lat="44.415" lon="1.37425">
        <ele>298</ele>
        <time>2019-04-14T12:45:51Z</time>
      </trkpt>
      <trkpt lat="44.41502" lon="1.37423">
        <ele>298</ele>
        <time>2019-04-14T12:45:52Z</time>
      </trkpt>
      <trkpt lat="44.41503" lon="1.3742">
        <ele>298</ele>
        <time>2019-04-14T12:45:53Z</time>
      </trkpt>
      <trkpt lat="44.41505" lon="1.37417">
        <ele>297</ele>
        <time>2019-04-14T12:45:54Z</time>
      </trkpt>
      <trkpt lat="44.41506" lon="1.37415">
        <ele>297</ele>
        <time>2019-04-14T12:45:55Z</time>
      </trkpt>
      <trkpt lat="44.41508" lon="1.37412">
        <ele>297</ele>
        <time>2019-04-14T12:45:56Z</time>
      </trkpt>
      <trkpt lat="44.41509" lon="1.37408">
        <ele>297</ele>
        <time>2019-04-14T12:45:57Z</time>
      </trkpt>
      <trkpt lat="44.41511" lon="1.37405">
        <ele>297</ele>
        <time>2019-04-14T12:45:58Z</time>
      </trkpt>
      <trkpt lat="44.41512" lon="1.37401">
        <ele>297</ele>
        <time>2019-04-14T12:45:59Z</time>
      </trkpt>
      <trkpt lat="44.41514" lon="1.37397">
        <ele>297</ele>
        <time>2019-04-14T12:46:00Z</time>
      </trkpt>
      <trkpt lat="44.41516" lon="1.37393">
        <ele>297</ele>
        <time>2019-04-14T12:46:01Z</time>
      </trkpt>
      <trkpt lat="44.41518" lon="1.37389">
        <ele>297</ele>
        <time>2019-04-14T12:46:02Z</time>
      </trkpt>
      <trkpt lat="44.41521" lon="1.37386">
        <ele>297</ele>
        <time>2019-04-14T12:46:03Z</time>
      </trkpt>
      <trkpt lat="44.41523" lon="1.37381">
        <ele>296</ele>
        <time>2019-04-14T12:46:04Z</time>
      </trkpt>
      <trkpt lat="44.41526" lon="1.37376">
        <ele>296</ele>
        <time>2019-04-14T12:46:05Z</time>
      </trkpt>
      <trkpt lat="44.41529" lon="1.3737">
        <ele>296</ele>
        <time>2019-04-14T12:46:06Z</time>
      </trkpt>
      <trkpt lat="44.41532" lon="1.37364">
        <ele>295</ele>
        <time>2019-04-14T12:46:07Z</time>
      </trkpt>
      <trkpt lat="44.41535" lon="1.37358">
        <ele>295</ele>
        <time>2019-04-14T12:46:08Z</time>
      </trkpt>
      <trkpt lat="44.41538" lon="1.37351">
        <ele>295</ele>
        <time>2019-04-14T12:46:09Z</time>
      </trkpt>
      <trkpt lat="44.41541" lon="1.37344">
        <ele>294</ele>
        <time>2019-04-14T12:46:10Z</time>
      </trkpt>
      <trkpt lat="44.41545" lon="1.37337">
        <ele>294</ele>
        <time>2019-04-14T12:46:11Z</time>
      </trkpt>
      <trkpt lat="44.41552" lon="1.37322">
        <ele>294</ele>
        <time>2019-04-14T12:46:12Z</time>
      </trkpt>
      <trkpt lat="44.41556" lon="1.37314">
        <ele>293</ele>
        <time>2019-04-14T12:46:14Z</time>
      </trkpt>
      <trkpt lat="44.4156" lon="1.37306">
        <ele>292</ele>
        <time>2019-04-14T12:46:15Z</time>
      </trkpt>
      <trkpt lat="44.41564" lon="1.37297">
        <ele>292</ele>
        <time>2019-04-14T12:46:16Z</time>
      </trkpt>
      <trkpt lat="44.41569" lon="1.37288">
        <ele>291</ele>
        <time>2019-04-14T12:46:17Z</time>
      </trkpt>
      <trkpt lat="44.41573" lon="1.37278">
        <ele>291</ele>
        <time>2019-04-14T12:46:18Z</time>
      </trkpt>
      <trkpt lat="44.41578" lon="1.37269">
        <ele>291</ele>
        <time>2019-04-14T12:46:19Z</time>
      </trkpt>
      <trkpt lat="44.41583" lon="1.37259">
        <ele>290</ele>
        <time>2019-04-14T12:46:20Z</time>
      </trkpt>
      <trkpt lat="44.41587" lon="1.3725">
        <ele>290</ele>
        <time>2019-04-14T12:46:21Z</time>
      </trkpt>
      <trkpt lat="44.41592" lon="1.37241">
        <ele>290</ele>
        <time>2019-04-14T12:46:22Z</time>
      </trkpt>
      <trkpt lat="44.41596" lon="1.37231">
        <ele>290</ele>
        <time>2019-04-14T12:46:23Z</time>
      </trkpt>
      <trkpt lat="44.41601" lon="1.37223">
        <ele>290</ele>
        <time>2019-04-14T12:46:24Z</time>
      </trkpt>
      <trkpt lat="44.41606" lon="1.37214">
        <ele>289</ele>
        <time>2019-04-14T12:46:25Z</time>
      </trkpt>
      <trkpt lat="44.41611" lon="1.37208">
        <ele>289</ele>
        <time>2019-04-14T12:46:26Z</time>
      </trkpt>
      <trkpt lat="44.41615" lon="1.372">
        <ele>289</ele>
        <time>2019-04-14T12:46:27Z</time>
      </trkpt>
      <trkpt lat="44.4162" lon="1.37192">
        <ele>289</ele>
        <time>2019-04-14T12:46:28Z</time>
      </trkpt>
      <trkpt lat="44.41624" lon="1.37185">
        <ele>289</ele>
        <time>2019-04-14T12:46:29Z</time>
      </trkpt>
      <trkpt lat="44.41629" lon="1.37179">
        <ele>289</ele>
        <time>2019-04-14T12:46:30Z</time>
      </trkpt>
      <trkpt lat="44.41633" lon="1.37173">
        <ele>290</ele>
        <time>2019-04-14T12:46:31Z</time>
      </trkpt>
      <trkpt lat="44.41637" lon="1.37167">
        <ele>290</ele>
        <time>2019-04-14T12:46:32Z</time>
      </trkpt>
      <trkpt lat="44.41639" lon="1.37161">
        <ele>289</ele>
        <time>2019-04-14T12:46:33Z</time>
      </trkpt>
      <trkpt lat="44.4164" lon="1.37156">
        <ele>289</ele>
        <time>2019-04-14T12:46:34Z</time>
      </trkpt>
      <trkpt lat="44.41639" lon="1.37154">
        <ele>290</ele>
        <time>2019-04-14T12:46:35Z</time>
      </trkpt>
      <trkpt lat="44.41637" lon="1.37153">
        <ele>290</ele>
        <time>2019-04-14T12:46:36Z</time>
      </trkpt>
      <trkpt lat="44.41635" lon="1.37154">
        <ele>290</ele>
        <time>2019-04-14T12:46:37Z</time>
      </trkpt>
      <trkpt lat="44.41633" lon="1.37156">
        <ele>291</ele>
        <time>2019-04-14T12:46:38Z</time>
      </trkpt>
      <trkpt lat="44.41631" lon="1.37158">
        <ele>291</ele>
        <time>2019-04-14T12:46:39Z</time>
      </trkpt>
      <trkpt lat="44.4163" lon="1.37161">
        <ele>290</ele>
        <time>2019-04-14T12:46:40Z</time>
      </trkpt>
      <trkpt lat="44.41628" lon="1.37163">
        <ele>291</ele>
        <time>2019-04-14T12:46:41Z</time>
      </trkpt>
      <trkpt lat="44.41623" lon="1.37166">
        <ele>291</ele>
        <time>2019-04-14T12:46:42Z</time>
      </trkpt>
      <trkpt lat="44.41621" lon="1.37167">
        <ele>291</ele>
        <time>2019-04-14T12:46:43Z</time>
      </trkpt>
      <trkpt lat="44.41619" lon="1.37167">
        <ele>291</ele>
        <time>2019-04-14T12:46:45Z</time>
      </trkpt>
      <trkpt lat="44.41617" lon="1.37167">
        <ele>292</ele>
        <time>2019-04-14T12:46:46Z</time>
      </trkpt>
      <trkpt lat="44.41615" lon="1.37166">
        <ele>292</ele>
        <time>2019-04-14T12:46:47Z</time>
      </trkpt>
      <trkpt lat="44.41613" lon="1.37164">
        <ele>292</ele>
        <time>2019-04-14T12:46:48Z</time>
      </trkpt>
      <trkpt lat="44.41611" lon="1.37162">
        <ele>293</ele>
        <time>2019-04-14T12:46:49Z</time>
      </trkpt>
      <trkpt lat="44.41609" lon="1.3716">
        <ele>293</ele>
        <time>2019-04-14T12:46:50Z</time>
      </trkpt>
      <trkpt lat="44.41608" lon="1.37158">
        <ele>293</ele>
        <time>2019-04-14T12:46:51Z</time>
      </trkpt>
      <trkpt lat="44.41606" lon="1.37156">
        <ele>294</ele>
        <time>2019-04-14T12:46:52Z</time>
      </trkpt>
      <trkpt lat="44.41605" lon="1.37154">
        <ele>294</ele>
        <time>2019-04-14T12:46:53Z</time>
      </trkpt>
      <trkpt lat="44.41603" lon="1.37153">
        <ele>294</ele>
        <time>2019-04-14T12:46:54Z</time>
      </trkpt>
      <trkpt lat="44.41602" lon="1.37151">
        <ele>295</ele>
        <time>2019-04-14T12:46:55Z</time>
      </trkpt>
      <trkpt lat="44.416" lon="1.3715">
        <ele>295</ele>
        <time>2019-04-14T12:46:56Z</time>
      </trkpt>
      <trkpt lat="44.41598" lon="1.37148">
        <ele>295</ele>
        <time>2019-04-14T12:46:57Z</time>
      </trkpt>
      <trkpt lat="44.41597" lon="1.37147">
        <ele>296</ele>
        <time>2019-04-14T12:46:58Z</time>
      </trkpt>
      <trkpt lat="44.41595" lon="1.37145">
        <ele>296</ele>
        <time>2019-04-14T12:46:59Z</time>
      </trkpt>
      <trkpt lat="44.41593" lon="1.37143">
        <ele>297</ele>
        <time>2019-04-14T12:47:00Z</time>
      </trkpt>
      <trkpt lat="44.4159" lon="1.37139">
        <ele>297</ele>
        <time>2019-04-14T12:47:01Z</time>
      </trkpt>
      <trkpt lat="44.41588" lon="1.37137">
        <ele>298</ele>
        <time>2019-04-14T12:47:03Z</time>
      </trkpt>
      <trkpt lat="44.41586" lon="1.37135">
        <ele>298</ele>
        <time>2019-04-14T12:47:04Z</time>
      </trkpt>
      <trkpt lat="44.41584" lon="1.37133">
        <ele>298</ele>
        <time>2019-04-14T12:47:05Z</time>
      </trkpt>
      <trkpt lat="44.41581" lon="1.37129">
        <ele>299</ele>
        <time>2019-04-14T12:47:06Z</time>
      </trkpt>
      <trkpt lat="44.41579" lon="1.37127">
        <ele>299</ele>
        <time>2019-04-14T12:47:08Z</time>
      </trkpt>
      <trkpt lat="44.41577" lon="1.37125">
        <ele>299</ele>
        <time>2019-04-14T12:47:09Z</time>
      </trkpt>
      <trkpt lat="44.41575" lon="1.37122">
        <ele>300</ele>
        <time>2019-04-14T12:47:10Z</time>
      </trkpt>
      <trkpt lat="44.41574" lon="1.3712">
        <ele>300</ele>
        <time>2019-04-14T12:47:11Z</time>
      </trkpt>
      <trkpt lat="44.41572" lon="1.37119">
        <ele>300</ele>
        <time>2019-04-14T12:47:12Z</time>
      </trkpt>
      <trkpt lat="44.4157" lon="1.37117">
        <ele>301</ele>
        <time>2019-04-14T12:47:13Z</time>
      </trkpt>
      <trkpt lat="44.41569" lon="1.37115">
        <ele>301</ele>
        <time>2019-04-14T12:47:14Z</time>
      </trkpt>
      <trkpt lat="44.41567" lon="1.37113">
        <ele>301</ele>
        <time>2019-04-14T12:47:15Z</time>
      </trkpt>
      <trkpt lat="44.41565" lon="1.37111">
        <ele>301</ele>
        <time>2019-04-14T12:47:16Z</time>
      </trkpt>
      <trkpt lat="44.41564" lon="1.37109">
        <ele>301</ele>
        <time>2019-04-14T12:47:17Z</time>
      </trkpt>
      <trkpt lat="44.41562" lon="1.37107">
        <ele>302</ele>
        <time>2019-04-14T12:47:18Z</time>
      </trkpt>
      <trkpt lat="44.4156" lon="1.37105">
        <ele>302</ele>
        <time>2019-04-14T12:47:19Z</time>
      </trkpt>
      <trkpt lat="44.41559" lon="1.37102">
        <ele>302</ele>
        <time>2019-04-14T12:47:20Z</time>
      </trkpt>
      <trkpt lat="44.41558" lon="1.37101">
        <ele>302</ele>
        <time>2019-04-14T12:47:21Z</time>
      </trkpt>
      <trkpt lat="44.41557" lon="1.37098">
        <ele>302</ele>
        <time>2019-04-14T12:47:22Z</time>
      </trkpt>
      <trkpt lat="44.41556" lon="1.37096">
        <ele>303</ele>
        <time>2019-04-14T12:47:23Z</time>
      </trkpt>
      <trkpt lat="44.41554" lon="1.37094">
        <ele>303</ele>
        <time>2019-04-14T12:47:24Z</time>
      </trkpt>
      <trkpt lat="44.41553" lon="1.37092">
        <ele>303</ele>
        <time>2019-04-14T12:47:25Z</time>
      </trkpt>
      <trkpt lat="44.41551" lon="1.37089">
        <ele>303</ele>
        <time>2019-04-14T12:47:26Z</time>
      </trkpt>
      <trkpt lat="44.41548" lon="1.37085">
        <ele>303</ele>
        <time>2019-04-14T12:47:27Z</time>
      </trkpt>
      <trkpt lat="44.41546" lon="1.37083">
        <ele>303</ele>
        <time>2019-04-14T12:47:28Z</time>
      </trkpt>
      <trkpt lat="44.41545" lon="1.37081">
        <ele>304</ele>
        <time>2019-04-14T12:47:30Z</time>
      </trkpt>
      <trkpt lat="44.41541" lon="1.37077">
        <ele>304</ele>
        <time>2019-04-14T12:47:31Z</time>
      </trkpt>
      <trkpt lat="44.41539" lon="1.37074">
        <ele>304</ele>
        <time>2019-04-14T12:47:32Z</time>
      </trkpt>
      <trkpt lat="44.41537" lon="1.37072">
        <ele>304</ele>
        <time>2019-04-14T12:47:34Z</time>
      </trkpt>
      <trkpt lat="44.41533" lon="1.37067">
        <ele>304</ele>
        <time>2019-04-14T12:47:35Z</time>
      </trkpt>
      <trkpt lat="44.4153" lon="1.37065">
        <ele>304</ele>
        <time>2019-04-14T12:47:37Z</time>
      </trkpt>
      <trkpt lat="44.41529" lon="1.37064">
        <ele>304</ele>
        <time>2019-04-14T12:47:38Z</time>
      </trkpt>
      <trkpt lat="44.41527" lon="1.37061">
        <ele>304</ele>
        <time>2019-04-14T12:47:39Z</time>
      </trkpt>
      <trkpt lat="44.41525" lon="1.37058">
        <ele>304</ele>
        <time>2019-04-14T12:47:40Z</time>
      </trkpt>
      <trkpt lat="44.41522" lon="1.37056">
        <ele>304</ele>
        <time>2019-04-14T12:47:41Z</time>
      </trkpt>
      <trkpt lat="44.41519" lon="1.37053">
        <ele>304</ele>
        <time>2019-04-14T12:47:42Z</time>
      </trkpt>
      <trkpt lat="44.41517" lon="1.37049">
        <ele>304</ele>
        <time>2019-04-14T12:47:43Z</time>
      </trkpt>
      <trkpt lat="44.41516" lon="1.37045">
        <ele>304</ele>
        <time>2019-04-14T12:47:44Z</time>
      </trkpt>
      <trkpt lat="44.41513" lon="1.37041">
        <ele>303</ele>
        <time>2019-04-14T12:47:45Z</time>
      </trkpt>
      <trkpt lat="44.4151" lon="1.37037">
        <ele>303</ele>
        <time>2019-04-14T12:47:46Z</time>
      </trkpt>
      <trkpt lat="44.41506" lon="1.37033">
        <ele>303</ele>
        <time>2019-04-14T12:47:47Z</time>
      </trkpt>
      <trkpt lat="44.41502" lon="1.3703">
        <ele>303</ele>
        <time>2019-04-14T12:47:48Z</time>
      </trkpt>
      <trkpt lat="44.41497" lon="1.37029">
        <ele>302</ele>
        <time>2019-04-14T12:47:49Z</time>
      </trkpt>
      <trkpt lat="44.41488" lon="1.37034">
        <ele>302</ele>
        <time>2019-04-14T12:47:50Z</time>
      </trkpt>
      <trkpt lat="44.41486" lon="1.37039">
        <ele>302</ele>
        <time>2019-04-14T12:47:51Z</time>
      </trkpt>
      <trkpt lat="44.41485" lon="1.37042">
        <ele>303</ele>
        <time>2019-04-14T12:47:52Z</time>
      </trkpt>
      <trkpt lat="44.41483" lon="1.37045">
        <ele>303</ele>
        <time>2019-04-14T12:47:54Z</time>
      </trkpt>
      <trkpt lat="44.41481" lon="1.37048">
        <ele>303</ele>
        <time>2019-04-14T12:47:55Z</time>
      </trkpt>
      <trkpt lat="44.4148" lon="1.37051">
        <ele>304</ele>
        <time>2019-04-14T12:47:56Z</time>
      </trkpt>
      <trkpt lat="44.41478" lon="1.37053">
        <ele>304</ele>
        <time>2019-04-14T12:47:57Z</time>
      </trkpt>
      <trkpt lat="44.41477" lon="1.37056">
        <ele>304</ele>
        <time>2019-04-14T12:47:58Z</time>
      </trkpt>
      <trkpt lat="44.41476" lon="1.37058">
        <ele>304</ele>
        <time>2019-04-14T12:47:59Z</time>
      </trkpt>
      <trkpt lat="44.41475" lon="1.37061">
        <ele>304</ele>
        <time>2019-04-14T12:48:00Z</time>
      </trkpt>
      <trkpt lat="44.41473" lon="1.37063">
        <ele>304</ele>
        <time>2019-04-14T12:48:01Z</time>
      </trkpt>
      <trkpt lat="44.41472" lon="1.37065">
        <ele>305</ele>
        <time>2019-04-14T12:48:02Z</time>
      </trkpt>
      <trkpt lat="44.41471" lon="1.37068">
        <ele>305</ele>
        <time>2019-04-14T12:48:03Z</time>
      </trkpt>
      <trkpt lat="44.41469" lon="1.3707">
        <ele>305</ele>
        <time>2019-04-14T12:48:04Z</time>
      </trkpt>
      <trkpt lat="44.41468" lon="1.37072">
        <ele>305</ele>
        <time>2019-04-14T12:48:05Z</time>
      </trkpt>
      <trkpt lat="44.41467" lon="1.37074">
        <ele>305</ele>
        <time>2019-04-14T12:48:06Z</time>
      </trkpt>
      <trkpt lat="44.41466" lon="1.37076">
        <ele>305</ele>
        <time>2019-04-14T12:48:07Z</time>
      </trkpt>
      <trkpt lat="44.41466" lon="1.37078">
        <ele>306</ele>
        <time>2019-04-14T12:48:08Z</time>
      </trkpt>
      <trkpt lat="44.41465" lon="1.37083">
        <ele>306</ele>
        <time>2019-04-14T12:48:09Z</time>
      </trkpt>
      <trkpt lat="44.41464" lon="1.37089">
        <ele>306</ele>
        <time>2019-04-14T12:48:11Z</time>
      </trkpt>
      <trkpt lat="44.41465" lon="1.37092">
        <ele>306</ele>
        <time>2019-04-14T12:48:12Z</time>
      </trkpt>
      <trkpt lat="44.41466" lon="1.37097">
        <ele>306</ele>
        <time>2019-04-14T12:48:14Z</time>
      </trkpt>
      <trkpt lat="44.41468" lon="1.371">
        <ele>307</ele>
        <time>2019-04-14T12:48:15Z</time>
      </trkpt>
      <trkpt lat="44.41468" lon="1.37102">
        <ele>307</ele>
        <time>2019-04-14T12:48:17Z</time>
      </trkpt>
      <trkpt lat="44.41469" lon="1.37104">
        <ele>307</ele>
        <time>2019-04-14T12:48:18Z</time>
      </trkpt>
      <trkpt lat="44.41469" lon="1.37107">
        <ele>307</ele>
        <time>2019-04-14T12:48:19Z</time>
      </trkpt>
      <trkpt lat="44.41471" lon="1.37109">
        <ele>307</ele>
        <time>2019-04-14T12:48:20Z</time>
      </trkpt>
      <trkpt lat="44.41472" lon="1.37111">
        <ele>307</ele>
        <time>2019-04-14T12:48:21Z</time>
      </trkpt>
      <trkpt lat="44.41473" lon="1.37112">
        <ele>307</ele>
        <time>2019-04-14T12:48:22Z</time>
      </trkpt>
      <trkpt lat="44.41475" lon="1.37114">
        <ele>307</ele>
        <time>2019-04-14T12:48:23Z</time>
      </trkpt>
      <trkpt lat="44.41477" lon="1.37116">
        <ele>308</ele>
        <time>2019-04-14T12:48:24Z</time>
      </trkpt>
      <trkpt lat="44.41479" lon="1.37118">
        <ele>308</ele>
        <time>2019-04-14T12:48:25Z</time>
      </trkpt>
      <trkpt lat="44.4148" lon="1.3712">
        <ele>308</ele>
        <time>2019-04-14T12:48:26Z</time>
      </trkpt>
      <trkpt lat="44.41482" lon="1.37122">
        <ele>308</ele>
        <time>2019-04-14T12:48:27Z</time>
      </trkpt>
      <trkpt lat="44.41483" lon="1.37124">
        <ele>308</ele>
        <time>2019-04-14T12:48:28Z</time>
      </trkpt>
      <trkpt lat="44.41484" lon="1.37126">
        <ele>308</ele>
        <time>2019-04-14T12:48:29Z</time>
      </trkpt>
      <trkpt lat="44.41486" lon="1.37129">
        <ele>308</ele>
        <time>2019-04-14T12:48:30Z</time>
      </trkpt>
      <trkpt lat="44.41487" lon="1.37131">
        <ele>308</ele>
        <time>2019-04-14T12:48:31Z</time>
      </trkpt>
      <trkpt lat="44.41489" lon="1.37133">
        <ele>308</ele>
        <time>2019-04-14T12:48:32Z</time>
      </trkpt>
      <trkpt lat="44.4149" lon="1.37134">
        <ele>308</ele>
        <time>2019-04-14T12:48:33Z</time>
      </trkpt>
      <trkpt lat="44.41491" lon="1.37137">
        <ele>308</ele>
        <time>2019-04-14T12:48:34Z</time>
      </trkpt>
      <trkpt lat="44.41491" lon="1.3714">
        <ele>308</ele>
        <time>2019-04-14T12:48:35Z</time>
      </trkpt>
      <trkpt lat="44.41493" lon="1.37142">
        <ele>308</ele>
        <time>2019-04-14T12:48:36Z</time>
      </trkpt>
      <trkpt lat="44.41494" lon="1.37144">
        <ele>308</ele>
        <time>2019-04-14T12:48:37Z</time>
      </trkpt>
      <trkpt lat="44.41496" lon="1.37146">
        <ele>308</ele>
        <time>2019-04-14T12:48:38Z</time>
      </trkpt>
      <trkpt lat="44.41497" lon="1.37148">
        <ele>308</ele>
        <time>2019-04-14T12:48:39Z</time>
      </trkpt>
      <trkpt lat="44.41497" lon="1.37153">
        <ele>309</ele>
        <time>2019-04-14T12:48:40Z</time>
      </trkpt>
      <trkpt lat="44.41496" lon="1.37155">
        <ele>309</ele>
        <time>2019-04-14T12:48:41Z</time>
      </trkpt>
      <trkpt lat="44.41495" lon="1.37157">
        <ele>309</ele>
        <time>2019-04-14T12:48:42Z</time>
      </trkpt>
      <trkpt lat="44.41493" lon="1.37159">
        <ele>309</ele>
        <time>2019-04-14T12:48:43Z</time>
      </trkpt>
      <trkpt lat="44.41492" lon="1.3716">
        <ele>309</ele>
        <time>2019-04-14T12:48:45Z</time>
      </trkpt>
      <trkpt lat="44.4149" lon="1.37162">
        <ele>309</ele>
        <time>2019-04-14T12:48:46Z</time>
      </trkpt>
      <trkpt lat="44.41488" lon="1.37163">
        <ele>309</ele>
        <time>2019-04-14T12:48:47Z</time>
      </trkpt>
      <trkpt lat="44.41487" lon="1.37165">
        <ele>309</ele>
        <time>2019-04-14T12:48:48Z</time>
      </trkpt>
      <trkpt lat="44.41485" lon="1.37167">
        <ele>310</ele>
        <time>2019-04-14T12:48:49Z</time>
      </trkpt>
      <trkpt lat="44.41483" lon="1.37169">
        <ele>310</ele>
        <time>2019-04-14T12:48:50Z</time>
      </trkpt>
      <trkpt lat="44.41481" lon="1.3717">
        <ele>310</ele>
        <time>2019-04-14T12:48:51Z</time>
      </trkpt>
      <trkpt lat="44.41479" lon="1.37172">
        <ele>310</ele>
        <time>2019-04-14T12:48:52Z</time>
      </trkpt>
      <trkpt lat="44.41477" lon="1.37173">
        <ele>310</ele>
        <time>2019-04-14T12:48:53Z</time>
      </trkpt>
      <trkpt lat="44.41475" lon="1.37174">
        <ele>310</ele>
        <time>2019-04-14T12:48:54Z</time>
      </trkpt>
      <trkpt lat="44.41474" lon="1.37175">
        <ele>310</ele>
        <time>2019-04-14T12:48:55Z</time>
      </trkpt>
      <trkpt lat="44.41471" lon="1.37177">
        <ele>310</ele>
        <time>2019-04-14T12:48:56Z</time>
      </trkpt>
      <trkpt lat="44.41469" lon="1.37178">
        <ele>310</ele>
        <time>2019-04-14T12:48:57Z</time>
      </trkpt>
      <trkpt lat="44.41467" lon="1.37179">
        <ele>310</ele>
        <time>2019-04-14T12:48:58Z</time>
      </trkpt>
      <trkpt lat="44.41465" lon="1.37181">
        <ele>310</ele>
        <time>2019-04-14T12:48:59Z</time>
      </trkpt>
      <trkpt lat="44.41462" lon="1.37182">
        <ele>310</ele>
        <time>2019-04-14T12:49:00Z</time>
      </trkpt>
      <trkpt lat="44.4146" lon="1.37183">
        <ele>310</ele>
        <time>2019-04-14T12:49:01Z</time>
      </trkpt>
      <trkpt lat="44.41458" lon="1.37184">
        <ele>310</ele>
        <time>2019-04-14T12:49:02Z</time>
      </trkpt>
      <trkpt lat="44.41456" lon="1.37185">
        <ele>310</ele>
        <time>2019-04-14T12:49:03Z</time>
      </trkpt>
      <trkpt lat="44.41454" lon="1.37186">
        <ele>310</ele>
        <time>2019-04-14T12:49:04Z</time>
      </trkpt>
      <trkpt lat="44.41451" lon="1.37187">
        <ele>310</ele>
        <time>2019-04-14T12:49:05Z</time>
      </trkpt>
      <trkpt lat="44.41449" lon="1.37188">
        <ele>310</ele>
        <time>2019-04-14T12:49:06Z</time>
      </trkpt>
      <trkpt lat="44.41445" lon="1.37189">
        <ele>310</ele>
        <time>2019-04-14T12:49:07Z</time>
      </trkpt>
      <trkpt lat="44.41443" lon="1.37189">
        <ele>310</ele>
        <time>2019-04-14T12:49:09Z</time>
      </trkpt>
      <trkpt lat="44.41439" lon="1.37187">
        <ele>310</ele>
        <time>2019-04-14T12:49:10Z</time>
      </trkpt>
      <trkpt lat="44.41438" lon="1.37185">
        <ele>310</ele>
        <time>2019-04-14T12:49:11Z</time>
      </trkpt>
      <trkpt lat="44.41436" lon="1.37183">
        <ele>309</ele>
        <time>2019-04-14T12:49:12Z</time>
      </trkpt>
      <trkpt lat="44.41435" lon="1.37181">
        <ele>309</ele>
        <time>2019-04-14T12:49:13Z</time>
      </trkpt>
      <trkpt lat="44.41435" lon="1.37179">
        <ele>309</ele>
        <time>2019-04-14T12:49:15Z</time>
      </trkpt>
      <trkpt lat="44.41434" lon="1.37177">
        <ele>309</ele>
        <time>2019-04-14T12:49:16Z</time>
      </trkpt>
      <trkpt lat="44.41434" lon="1.37175">
        <ele>309</ele>
        <time>2019-04-14T12:49:17Z</time>
      </trkpt>
      <trkpt lat="44.41433" lon="1.37174">
        <ele>309</ele>
        <time>2019-04-14T12:49:18Z</time>
      </trkpt>
      <trkpt lat="44.41433" lon="1.37172">
        <ele>309</ele>
        <time>2019-04-14T12:49:19Z</time>
      </trkpt>
      <trkpt lat="44.41432" lon="1.37171">
        <ele>309</ele>
        <time>2019-04-14T12:49:20Z</time>
      </trkpt>
      <trkpt lat="44.41431" lon="1.37169">
        <ele>309</ele>
        <time>2019-04-14T12:49:21Z</time>
      </trkpt>
      <trkpt lat="44.41431" lon="1.37168">
        <ele>309</ele>
        <time>2019-04-14T12:49:22Z</time>
      </trkpt>
      <trkpt lat="44.4143" lon="1.37167">
        <ele>309</ele>
        <time>2019-04-14T12:49:23Z</time>
      </trkpt>
      <trkpt lat="44.41429" lon="1.37165">
        <ele>309</ele>
        <time>2019-04-14T12:49:24Z</time>
      </trkpt>
      <trkpt lat="44.41429" lon="1.37164">
        <ele>309</ele>
        <time>2019-04-14T12:49:25Z</time>
      </trkpt>
      <trkpt lat="44.41429" lon="1.37162">
        <ele>309</ele>
        <time>2019-04-14T12:49:26Z</time>
      </trkpt>
      <trkpt lat="44.4143" lon="1.37161">
        <ele>309</ele>
        <time>2019-04-14T12:49:27Z</time>
      </trkpt>
      <trkpt lat="44.4143" lon="1.3716">
        <ele>309</ele>
        <time>2019-04-14T12:49:28Z</time>
      </trkpt>
      <trkpt lat="44.4143" lon="1.37158">
        <ele>309</ele>
        <time>2019-04-14T12:49:29Z</time>
      </trkpt>
      <trkpt lat="44.41428" lon="1.37157">
        <ele>309</ele>
        <time>2019-04-14T12:49:30Z</time>
      </trkpt>
      <trkpt lat="44.41427" lon="1.37158">
        <ele>309</ele>
        <time>2019-04-14T12:49:31Z</time>
      </trkpt>
      <trkpt lat="44.41426" lon="1.37159">
        <ele>309</ele>
        <time>2019-04-14T12:49:32Z</time>
      </trkpt>
      <trkpt lat="44.41426" lon="1.37161">
        <ele>309</ele>
        <time>2019-04-14T12:49:33Z</time>
      </trkpt>
      <trkpt lat="44.41427" lon="1.37162">
        <ele>309</ele>
        <time>2019-04-14T12:49:34Z</time>
      </trkpt>
      <trkpt lat="44.41429" lon="1.37165">
        <ele>309</ele>
        <time>2019-04-14T12:49:35Z</time>
      </trkpt>
      <trkpt lat="44.41431" lon="1.37167">
        <ele>309</ele>
        <time>2019-04-14T12:49:37Z</time>
      </trkpt>
      <trkpt lat="44.41432" lon="1.37169">
        <ele>309</ele>
        <time>2019-04-14T12:49:38Z</time>
      </trkpt>
      <trkpt lat="44.41433" lon="1.37172">
        <ele>309</ele>
        <time>2019-04-14T12:49:39Z</time>
      </trkpt>
      <trkpt lat="44.41434" lon="1.37175">
        <ele>309</ele>
        <time>2019-04-14T12:49:40Z</time>
      </trkpt>
      <trkpt lat="44.41435" lon="1.37178">
        <ele>309</ele>
        <time>2019-04-14T12:49:41Z</time>
      </trkpt>
      <trkpt lat="44.41436" lon="1.37181">
        <ele>309</ele>
        <time>2019-04-14T12:49:42Z</time>
      </trkpt>
      <trkpt lat="44.41438" lon="1.37184">
        <ele>309</ele>
        <time>2019-04-14T12:49:43Z</time>
      </trkpt>
      <trkpt lat="44.41438" lon="1.37188">
        <ele>309</ele>
        <time>2019-04-14T12:49:44Z</time>
      </trkpt>
      <trkpt lat="44.41438" lon="1.37189">
        <ele>309</ele>
        <time>2019-04-14T12:49:45Z</time>
      </trkpt>
      <trkpt lat="44.41439" lon="1.3719">
        <ele>309</ele>
        <time>2019-04-14T12:49:46Z</time>
      </trkpt>
      <trkpt lat="44.41438" lon="1.37193">
        <ele>309</ele>
        <time>2019-04-14T12:49:48Z</time>
      </trkpt>
      <trkpt lat="44.41436" lon="1.37194">
        <ele>309</ele>
        <time>2019-04-14T12:49:49Z</time>
      </trkpt>
      <trkpt lat="44.41434" lon="1.37196">
        <ele>309</ele>
        <time>2019-04-14T12:49:51Z</time>
      </trkpt>
      <trkpt lat="44.41433" lon="1.37196">
        <ele>309</ele>
        <time>2019-04-14T12:49:52Z</time>
      </trkpt>
      <trkpt lat="44.41431" lon="1.37197">
        <ele>309</ele>
        <time>2019-04-14T12:49:53Z</time>
      </trkpt>
      <trkpt lat="44.41429" lon="1.37199">
        <ele>309</ele>
        <time>2019-04-14T12:49:54Z</time>
      </trkpt>
      <trkpt lat="44.41427" lon="1.372">
        <ele>309</ele>
        <time>2019-04-14T12:49:55Z</time>
      </trkpt>
      <trkpt lat="44.41426" lon="1.37201">
        <ele>309</ele>
        <time>2019-04-14T12:49:56Z</time>
      </trkpt>
      <trkpt lat="44.41425" lon="1.37202">
        <ele>309</ele>
        <time>2019-04-14T12:49:57Z</time>
      </trkpt>
      <trkpt lat="44.41423" lon="1.37202">
        <ele>309</ele>
        <time>2019-04-14T12:49:58Z</time>
      </trkpt>
      <trkpt lat="44.41421" lon="1.37203">
        <ele>309</ele>
        <time>2019-04-14T12:49:59Z</time>
      </trkpt>
      <trkpt lat="44.41418" lon="1.37204">
        <ele>309</ele>
        <time>2019-04-14T12:50:00Z</time>
      </trkpt>
      <trkpt lat="44.41415" lon="1.37205">
        <ele>309</ele>
        <time>2019-04-14T12:50:01Z</time>
      </trkpt>
      <trkpt lat="44.41412" lon="1.37207">
        <ele>308</ele>
        <time>2019-04-14T12:50:02Z</time>
      </trkpt>
      <trkpt lat="44.4141" lon="1.37208">
        <ele>308</ele>
        <time>2019-04-14T12:50:03Z</time>
      </trkpt>
      <trkpt lat="44.41407" lon="1.37209">
        <ele>308</ele>
        <time>2019-04-14T12:50:04Z</time>
      </trkpt>
      <trkpt lat="44.41405" lon="1.37211">
        <ele>308</ele>
        <time>2019-04-14T12:50:05Z</time>
      </trkpt>
      <trkpt lat="44.41405" lon="1.37214">
        <ele>308</ele>
        <time>2019-04-14T12:50:06Z</time>
      </trkpt>
      <trkpt lat="44.41404" lon="1.37223">
        <ele>308</ele>
        <time>2019-04-14T12:50:07Z</time>
      </trkpt>
      <trkpt lat="44.41404" lon="1.37228">
        <ele>308</ele>
        <time>2019-04-14T12:50:09Z</time>
      </trkpt>
      <trkpt lat="44.41405" lon="1.37239">
        <ele>308</ele>
        <time>2019-04-14T12:50:10Z</time>
      </trkpt>
      <trkpt lat="44.41405" lon="1.37244">
        <ele>308</ele>
        <time>2019-04-14T12:50:11Z</time>
      </trkpt>
      <trkpt lat="44.41405" lon="1.3725">
        <ele>307</ele>
        <time>2019-04-14T12:50:12Z</time>
      </trkpt>
      <trkpt lat="44.41406" lon="1.37255">
        <ele>307</ele>
        <time>2019-04-14T12:50:13Z</time>
      </trkpt>
      <trkpt lat="44.41406" lon="1.37261">
        <ele>307</ele>
        <time>2019-04-14T12:50:14Z</time>
      </trkpt>
      <trkpt lat="44.41406" lon="1.37267">
        <ele>307</ele>
        <time>2019-04-14T12:50:15Z</time>
      </trkpt>
      <trkpt lat="44.41407" lon="1.37273">
        <ele>307</ele>
        <time>2019-04-14T12:50:16Z</time>
      </trkpt>
      <trkpt lat="44.41408" lon="1.3728">
        <ele>307</ele>
        <time>2019-04-14T12:50:17Z</time>
      </trkpt>
      <trkpt lat="44.41409" lon="1.37286">
        <ele>307</ele>
        <time>2019-04-14T12:50:19Z</time>
      </trkpt>
      <trkpt lat="44.41409" lon="1.37293">
        <ele>307</ele>
        <time>2019-04-14T12:50:20Z</time>
      </trkpt>
      <trkpt lat="44.4141" lon="1.373">
        <ele>307</ele>
        <time>2019-04-14T12:50:21Z</time>
      </trkpt>
      <trkpt lat="44.41412" lon="1.37308">
        <ele>306</ele>
        <time>2019-04-14T12:50:22Z</time>
      </trkpt>
      <trkpt lat="44.41413" lon="1.37315">
        <ele>306</ele>
        <time>2019-04-14T12:50:23Z</time>
      </trkpt>
      <trkpt lat="44.41414" lon="1.37323">
        <ele>306</ele>
        <time>2019-04-14T12:50:24Z</time>
      </trkpt>
      <trkpt lat="44.41415" lon="1.37331">
        <ele>306</ele>
        <time>2019-04-14T12:50:25Z</time>
      </trkpt>
      <trkpt lat="44.41417" lon="1.37339">
        <ele>306</ele>
        <time>2019-04-14T12:50:26Z</time>
      </trkpt>
      <trkpt lat="44.41418" lon="1.37348">
        <ele>305</ele>
        <time>2019-04-14T12:50:27Z</time>
      </trkpt>
      <trkpt lat="44.41419" lon="1.37356">
        <ele>305</ele>
        <time>2019-04-14T12:50:28Z</time>
      </trkpt>
      <trkpt lat="44.41421" lon="1.37365">
        <ele>305</ele>
        <time>2019-04-14T12:50:29Z</time>
      </trkpt>
      <trkpt lat="44.41422" lon="1.37374">
        <ele>304</ele>
        <time>2019-04-14T12:50:30Z</time>
      </trkpt>
      <trkpt lat="44.41424" lon="1.37383">
        <ele>304</ele>
        <time>2019-04-14T12:50:31Z</time>
      </trkpt>
      <trkpt lat="44.41425" lon="1.37393">
        <ele>304</ele>
        <time>2019-04-14T12:50:32Z</time>
      </trkpt>
      <trkpt lat="44.41427" lon="1.37403">
        <ele>303</ele>
        <time>2019-04-14T12:50:33Z</time>
      </trkpt>
      <trkpt lat="44.41428" lon="1.37412">
        <ele>303</ele>
        <time>2019-04-14T12:50:34Z</time>
      </trkpt>
      <trkpt lat="44.4143" lon="1.37422">
        <ele>302</ele>
        <time>2019-04-14T12:50:35Z</time>
      </trkpt>
      <trkpt lat="44.41432" lon="1.37433">
        <ele>302</ele>
        <time>2019-04-14T12:50:36Z</time>
      </trkpt>
      <trkpt lat="44.41434" lon="1.37443">
        <ele>301</ele>
        <time>2019-04-14T12:50:37Z</time>
      </trkpt>
      <trkpt lat="44.41435" lon="1.37453">
        <ele>301</ele>
        <time>2019-04-14T12:50:38Z</time>
      </trkpt>
      <trkpt lat="44.41438" lon="1.37464">
        <ele>300</ele>
        <time>2019-04-14T12:50:39Z</time>
      </trkpt>
      <trkpt lat="44.4144" lon="1.37474">
        <ele>300</ele>
        <time>2019-04-14T12:50:40Z</time>
      </trkpt>
      <trkpt lat="44.41443" lon="1.37484">
        <ele>300</ele>
        <time>2019-04-14T12:50:41Z</time>
      </trkpt>
      <trkpt lat="44.41446" lon="1.37503">
        <ele>299</ele>
        <time>2019-04-14T12:50:42Z</time>
      </trkpt>
      <trkpt lat="44.41447" lon="1.37513">
        <ele>299</ele>
        <time>2019-04-14T12:50:43Z</time>
      </trkpt>
      <trkpt lat="44.41449" lon="1.37522">
        <ele>299</ele>
        <time>2019-04-14T12:50:44Z</time>
      </trkpt>
      <trkpt lat="44.41451" lon="1.3753">
        <ele>299</ele>
        <time>2019-04-14T12:50:46Z</time>
      </trkpt>
      <trkpt lat="44.41455" lon="1.37548">
        <ele>298</ele>
        <time>2019-04-14T12:50:47Z</time>
      </trkpt>
      <trkpt lat="44.41457" lon="1.37556">
        <ele>297</ele>
        <time>2019-04-14T12:50:48Z</time>
      </trkpt>
      <trkpt lat="44.4146" lon="1.37565">
        <ele>297</ele>
        <time>2019-04-14T12:50:49Z</time>
      </trkpt>
      <trkpt lat="44.41462" lon="1.37574">
        <ele>297</ele>
        <time>2019-04-14T12:50:51Z</time>
      </trkpt>
      <trkpt lat="44.41463" lon="1.37584">
        <ele>296</ele>
        <time>2019-04-14T12:50:52Z</time>
      </trkpt>
      <trkpt lat="44.41465" lon="1.37593">
        <ele>296</ele>
        <time>2019-04-14T12:50:53Z</time>
      </trkpt>
      <trkpt lat="44.41466" lon="1.37603">
        <ele>295</ele>
        <time>2019-04-14T12:50:54Z</time>
      </trkpt>
      <trkpt lat="44.41467" lon="1.37613">
        <ele>295</ele>
        <time>2019-04-14T12:50:55Z</time>
      </trkpt>
      <trkpt lat="44.41468" lon="1.37623">
        <ele>294</ele>
        <time>2019-04-14T12:50:56Z</time>
      </trkpt>
      <trkpt lat="44.41469" lon="1.37635">
        <ele>293</ele>
        <time>2019-04-14T12:50:57Z</time>
      </trkpt>
      <trkpt lat="44.4147" lon="1.37646">
        <ele>292</ele>
        <time>2019-04-14T12:50:58Z</time>
      </trkpt>
      <trkpt lat="44.41471" lon="1.37659">
        <ele>291</ele>
        <time>2019-04-14T12:50:59Z</time>
      </trkpt>
      <trkpt lat="44.41472" lon="1.37671">
        <ele>291</ele>
        <time>2019-04-14T12:51:00Z</time>
      </trkpt>
      <trkpt lat="44.41473" lon="1.37684">
        <ele>290</ele>
        <time>2019-04-14T12:51:01Z</time>
      </trkpt>
      <trkpt lat="44.41473" lon="1.37696">
        <ele>289</ele>
        <time>2019-04-14T12:51:02Z</time>
      </trkpt>
      <trkpt lat="44.41473" lon="1.37718">
        <ele>289</ele>
        <time>2019-04-14T12:51:03Z</time>
      </trkpt>
      <trkpt lat="44.41472" lon="1.37726">
        <ele>288</ele>
        <time>2019-04-14T12:51:04Z</time>
      </trkpt>
      <trkpt lat="44.41469" lon="1.37731">
        <ele>287</ele>
        <time>2019-04-14T12:51:05Z</time>
      </trkpt>
      <trkpt lat="44.41467" lon="1.37735">
        <ele>287</ele>
        <time>2019-04-14T12:51:06Z</time>
      </trkpt>
      <trkpt lat="44.41466" lon="1.3774">
        <ele>287</ele>
        <time>2019-04-14T12:51:07Z</time>
      </trkpt>
      <trkpt lat="44.41466" lon="1.37746">
        <ele>287</ele>
        <time>2019-04-14T12:51:09Z</time>
      </trkpt>
      <trkpt lat="44.41466" lon="1.37751">
        <ele>287</ele>
        <time>2019-04-14T12:51:10Z</time>
      </trkpt>
      <trkpt lat="44.41465" lon="1.37756">
        <ele>286</ele>
        <time>2019-04-14T12:51:11Z</time>
      </trkpt>
      <trkpt lat="44.41465" lon="1.3776">
        <ele>286</ele>
        <time>2019-04-14T12:51:12Z</time>
      </trkpt>
      <trkpt lat="44.41465" lon="1.37764">
        <ele>286</ele>
        <time>2019-04-14T12:51:13Z</time>
      </trkpt>
      <trkpt lat="44.41464" lon="1.37768">
        <ele>286</ele>
        <time>2019-04-14T12:51:14Z</time>
      </trkpt>
      <trkpt lat="44.41463" lon="1.37773">
        <ele>285</ele>
        <time>2019-04-14T12:51:15Z</time>
      </trkpt>
      <trkpt lat="44.41461" lon="1.37778">
        <ele>285</ele>
        <time>2019-04-14T12:51:16Z</time>
      </trkpt>
      <trkpt lat="44.41458" lon="1.37781">
        <ele>285</ele>
        <time>2019-04-14T12:51:17Z</time>
      </trkpt>
      <trkpt lat="44.41455" lon="1.37783">
        <ele>285</ele>
        <time>2019-04-14T12:51:18Z</time>
      </trkpt>
      <trkpt lat="44.41452" lon="1.37785">
        <ele>285</ele>
        <time>2019-04-14T12:51:19Z</time>
      </trkpt>
      <trkpt lat="44.41449" lon="1.37786">
        <ele>285</ele>
        <time>2019-04-14T12:51:20Z</time>
      </trkpt>
      <trkpt lat="44.41443" lon="1.37788">
        <ele>285</ele>
        <time>2019-04-14T12:51:21Z</time>
      </trkpt>
      <trkpt lat="44.41441" lon="1.37789">
        <ele>285</ele>
        <time>2019-04-14T12:51:22Z</time>
      </trkpt>
      <trkpt lat="44.41438" lon="1.37791">
        <ele>285</ele>
        <time>2019-04-14T12:51:23Z</time>
      </trkpt>
      <trkpt lat="44.41436" lon="1.37792">
        <ele>285</ele>
        <time>2019-04-14T12:51:24Z</time>
      </trkpt>
      <trkpt lat="44.41434" lon="1.37794">
        <ele>285</ele>
        <time>2019-04-14T12:51:25Z</time>
      </trkpt>
      <trkpt lat="44.41432" lon="1.37795">
        <ele>285</ele>
        <time>2019-04-14T12:51:26Z</time>
      </trkpt>
      <trkpt lat="44.4143" lon="1.37795">
        <ele>286</ele>
        <time>2019-04-14T12:51:27Z</time>
      </trkpt>
      <trkpt lat="44.41428" lon="1.37796">
        <ele>286</ele>
        <time>2019-04-14T12:51:29Z</time>
      </trkpt>
      <trkpt lat="44.41426" lon="1.37797">
        <ele>286</ele>
        <time>2019-04-14T12:51:30Z</time>
      </trkpt>
      <trkpt lat="44.41425" lon="1.37798">
        <ele>286</ele>
        <time>2019-04-14T12:51:31Z</time>
      </trkpt>
      <trkpt lat="44.41423" lon="1.37799">
        <ele>286</ele>
        <time>2019-04-14T12:51:32Z</time>
      </trkpt>
      <trkpt lat="44.41421" lon="1.378">
        <ele>286</ele>
        <time>2019-04-14T12:51:33Z</time>
      </trkpt>
      <trkpt lat="44.41419" lon="1.378">
        <ele>286</ele>
        <time>2019-04-14T12:51:34Z</time>
      </trkpt>
      <trkpt lat="44.41417" lon="1.37801">
        <ele>286</ele>
        <time>2019-04-14T12:51:35Z</time>
      </trkpt>
      <trkpt lat="44.41416" lon="1.37802">
        <ele>286</ele>
        <time>2019-04-14T12:51:36Z</time>
      </trkpt>
      <trkpt lat="44.41414" lon="1.37803">
        <ele>286</ele>
        <time>2019-04-14T12:51:37Z</time>
      </trkpt>
      <trkpt lat="44.41412" lon="1.37803">
        <ele>287</ele>
        <time>2019-04-14T12:51:38Z</time>
      </trkpt>
      <trkpt lat="44.41411" lon="1.37803">
        <ele>287</ele>
        <time>2019-04-14T12:51:39Z</time>
      </trkpt>
      <trkpt lat="44.4141" lon="1.37804">
        <ele>287</ele>
        <time>2019-04-14T12:51:40Z</time>
      </trkpt>
      <trkpt lat="44.41409" lon="1.37805">
        <ele>287</ele>
        <time>2019-04-14T12:51:41Z</time>
      </trkpt>
      <trkpt lat="44.41408" lon="1.37806">
        <ele>287</ele>
        <time>2019-04-14T12:51:42Z</time>
      </trkpt>
      <trkpt lat="44.41408" lon="1.37807">
        <ele>287</ele>
        <time>2019-04-14T12:51:43Z</time>
      </trkpt>
      <trkpt lat="44.41408" lon="1.37807">
        <ele>287</ele>
        <time>2019-04-14T12:51:44Z</time>
      </trkpt>
      <trkpt lat="44.41408" lon="1.37807">
        <ele>286</ele>
        <time>2019-04-14T12:51:45Z</time>
      </trkpt>
      <trkpt lat="44.41408" lon="1.37807">
        <ele>286</ele>
        <time>2019-04-14T12:51:46Z</time>
      </trkpt>
      <trkpt lat="44.41408" lon="1.37807">
        <ele>286</ele>
        <time>2019-04-14T12:51:47Z</time>
      </trkpt>
      <trkpt lat="44.41408" lon="1.37807">
        <ele>286</ele>
        <time>2019-04-14T12:51:49Z</time>
      </trkpt>
      <trkpt lat="44.41408" lon="1.37807">
        <ele>286</ele>
        <time>2019-04-14T12:51:50Z</time>
      </trkpt>
    </trkseg>
  </trk>
  <trk>
    <name><![CDATA[2019-05-18-pontychaveeybrail on GPSies.com]]></name>
    <trkseg>
      <trkpt lat="45.54429" lon="2.30032">
        <ele>671</ele>
        <time>2019-05-18T14:13:29Z</time>
      </trkpt>
      <trkpt lat="45.5443" lon="2.30032">
        <ele>668</ele>
        <time>2019-05-18T14:13:30Z</time>
      </trkpt>
      <trkpt lat="45.54431" lon="2.30032">
        <ele>668</ele>
        <time>2019-05-18T14:13:31Z</time>
      </trkpt>
      <trkpt lat="45.54432" lon="2.30031">
        <ele>667</ele>
        <time>2019-05-18T14:13:32Z</time>
      </trkpt>
      <trkpt lat="45.54433" lon="2.30031">
        <ele>667</ele>
        <time>2019-05-18T14:13:33Z</time>
      </trkpt>
      <trkpt lat="45.54435" lon="2.3003">
        <ele>666</ele>
        <time>2019-05-18T14:13:34Z</time>
      </trkpt>
      <trkpt lat="45.54439" lon="2.30028">
        <ele>665</ele>
        <time>2019-05-18T14:13:35Z</time>
      </trkpt>
      <trkpt lat="45.54452" lon="2.3002">
        <ele>664</ele>
        <time>2019-05-18T14:13:40Z</time>
      </trkpt>
      <trkpt lat="45.54451" lon="2.30019">
        <ele>664</ele>
        <time>2019-05-18T14:13:41Z</time>
      </trkpt>
      <trkpt lat="45.54449" lon="2.30018">
        <ele>663</ele>
        <time>2019-05-18T14:13:42Z</time>
      </trkpt>
      <trkpt lat="45.54448" lon="2.30018">
        <ele>663</ele>
        <time>2019-05-18T14:13:43Z</time>
      </trkpt>
      <trkpt lat="45.54445" lon="2.30019">
        <ele>663</ele>
        <time>2019-05-18T14:13:44Z</time>
      </trkpt>
      <trkpt lat="45.54441" lon="2.30018">
        <ele>663</ele>
        <time>2019-05-18T14:13:45Z</time>
      </trkpt>
      <trkpt lat="45.54439" lon="2.30018">
        <ele>662</ele>
        <time>2019-05-18T14:13:46Z</time>
      </trkpt>
      <trkpt lat="45.54437" lon="2.30016">
        <ele>662</ele>
        <time>2019-05-18T14:13:47Z</time>
      </trkpt>
      <trkpt lat="45.54437" lon="2.30014">
        <ele>661</ele>
        <time>2019-05-18T14:13:48Z</time>
      </trkpt>
      <trkpt lat="45.54439" lon="2.30014">
        <ele>661</ele>
        <time>2019-05-18T14:13:49Z</time>
      </trkpt>
      <trkpt lat="45.5444" lon="2.30013">
        <ele>660</ele>
        <time>2019-05-18T14:13:50Z</time>
      </trkpt>
      <trkpt lat="45.54443" lon="2.30014">
        <ele>660</ele>
        <time>2019-05-18T14:13:51Z</time>
      </trkpt>
      <trkpt lat="45.54446" lon="2.30014">
        <ele>660</ele>
        <time>2019-05-18T14:13:52Z</time>
      </trkpt>
      <trkpt lat="45.54448" lon="2.30013">
        <ele>659</ele>
        <time>2019-05-18T14:13:53Z</time>
      </trkpt>
      <trkpt lat="45.54449" lon="2.30014">
        <ele>659</ele>
        <time>2019-05-18T14:13:54Z</time>
      </trkpt>
      <trkpt lat="45.5445" lon="2.30013">
        <ele>659</ele>
        <time>2019-05-18T14:13:55Z</time>
      </trkpt>
      <trkpt lat="45.5445" lon="2.30013">
        <ele>659</ele>
        <time>2019-05-18T14:13:56Z</time>
      </trkpt>
      <trkpt lat="45.54449" lon="2.30012">
        <ele>658</ele>
        <time>2019-05-18T14:13:57Z</time>
      </trkpt>
      <trkpt lat="45.54448" lon="2.30011">
        <ele>658</ele>
        <time>2019-05-18T14:13:58Z</time>
      </trkpt>
      <trkpt lat="45.54446" lon="2.30013">
        <ele>657</ele>
        <time>2019-05-18T14:13:59Z</time>
      </trkpt>
      <trkpt lat="45.54444" lon="2.30013">
        <ele>657</ele>
        <time>2019-05-18T14:14:00Z</time>
      </trkpt>
      <trkpt lat="45.54443" lon="2.30011">
        <ele>657</ele>
        <time>2019-05-18T14:14:01Z</time>
      </trkpt>
      <trkpt lat="45.54444" lon="2.30009">
        <ele>656</ele>
        <time>2019-05-18T14:14:02Z</time>
      </trkpt>
      <trkpt lat="45.54446" lon="2.30007">
        <ele>655</ele>
        <time>2019-05-18T14:14:03Z</time>
      </trkpt>
      <trkpt lat="45.54447" lon="2.30006">
        <ele>655</ele>
        <time>2019-05-18T14:14:04Z</time>
      </trkpt>
      <trkpt lat="45.54451" lon="2.30005">
        <ele>654</ele>
        <time>2019-05-18T14:14:05Z</time>
      </trkpt>
      <trkpt lat="45.54454" lon="2.30006">
        <ele>654</ele>
        <time>2019-05-18T14:14:06Z</time>
      </trkpt>
      <trkpt lat="45.5446" lon="2.30007">
        <ele>653</ele>
        <time>2019-05-18T14:14:07Z</time>
      </trkpt>
      <trkpt lat="45.54465" lon="2.30008">
        <ele>653</ele>
        <time>2019-05-18T14:14:08Z</time>
      </trkpt>
      <trkpt lat="45.5447" lon="2.30007">
        <ele>653</ele>
        <time>2019-05-18T14:14:09Z</time>
      </trkpt>
      <trkpt lat="45.54475" lon="2.30003">
        <ele>653</ele>
        <time>2019-05-18T14:14:10Z</time>
      </trkpt>
      <trkpt lat="45.54479" lon="2.3">
        <ele>653</ele>
        <time>2019-05-18T14:14:11Z</time>
      </trkpt>
      <trkpt lat="45.54483" lon="2.29996">
        <ele>653</ele>
        <time>2019-05-18T14:14:12Z</time>
      </trkpt>
      <trkpt lat="45.54485" lon="2.29992">
        <ele>653</ele>
        <time>2019-05-18T14:14:13Z</time>
      </trkpt>
      <trkpt lat="45.54487" lon="2.29988">
        <ele>653</ele>
        <time>2019-05-18T14:14:14Z</time>
      </trkpt>
      <trkpt lat="45.54489" lon="2.29986">
        <ele>653</ele>
        <time>2019-05-18T14:14:15Z</time>
      </trkpt>
      <trkpt lat="45.54489" lon="2.29984">
        <ele>653</ele>
        <time>2019-05-18T14:14:16Z</time>
      </trkpt>
      <trkpt lat="45.5449" lon="2.29983">
        <ele>653</ele>
        <time>2019-05-18T14:14:17Z</time>
      </trkpt>
      <trkpt lat="45.54489" lon="2.29981">
        <ele>653</ele>
        <time>2019-05-18T14:14:18Z</time>
      </trkpt>
      <trkpt lat="45.54487" lon="2.29979">
        <ele>653</ele>
        <time>2019-05-18T14:14:19Z</time>
      </trkpt>
      <trkpt lat="45.54485" lon="2.29975">
        <ele>653</ele>
        <time>2019-05-18T14:14:20Z</time>
      </trkpt>
      <trkpt lat="45.54483" lon="2.29972">
        <ele>652</ele>
        <time>2019-05-18T14:14:21Z</time>
      </trkpt>
      <trkpt lat="45.5448" lon="2.29967">
        <ele>652</ele>
        <time>2019-05-18T14:14:22Z</time>
      </trkpt>
      <trkpt lat="45.54477" lon="2.29963">
        <ele>652</ele>
        <time>2019-05-18T14:14:23Z</time>
      </trkpt>
      <trkpt lat="45.54474" lon="2.29958">
        <ele>652</ele>
        <time>2019-05-18T14:14:24Z</time>
      </trkpt>
      <trkpt lat="45.54471" lon="2.29954">
        <ele>652</ele>
        <time>2019-05-18T14:14:25Z</time>
      </trkpt>
      <trkpt lat="45.54469" lon="2.2995">
        <ele>652</ele>
        <time>2019-05-18T14:14:26Z</time>
      </trkpt>
      <trkpt lat="45.54466" lon="2.29945">
        <ele>651</ele>
        <time>2019-05-18T14:14:27Z</time>
      </trkpt>
      <trkpt lat="45.54463" lon="2.29941">
        <ele>651</ele>
        <time>2019-05-18T14:14:28Z</time>
      </trkpt>
      <trkpt lat="45.5446" lon="2.29938">
        <ele>651</ele>
        <time>2019-05-18T14:14:29Z</time>
      </trkpt>
      <trkpt lat="45.54458" lon="2.29935">
        <ele>651</ele>
        <time>2019-05-18T14:14:30Z</time>
      </trkpt>
      <trkpt lat="45.54455" lon="2.29933">
        <ele>651</ele>
        <time>2019-05-18T14:14:31Z</time>
      </trkpt>
      <trkpt lat="45.5445" lon="2.29932">
        <ele>651</ele>
        <time>2019-05-18T14:14:32Z</time>
      </trkpt>
      <trkpt lat="45.54446" lon="2.29929">
        <ele>651</ele>
        <time>2019-05-18T14:14:33Z</time>
      </trkpt>
      <trkpt lat="45.54445" lon="2.29924">
        <ele>651</ele>
        <time>2019-05-18T14:14:34Z</time>
      </trkpt>
      <trkpt lat="45.54445" lon="2.29919">
        <ele>652</ele>
        <time>2019-05-18T14:14:35Z</time>
      </trkpt>
      <trkpt lat="45.54445" lon="2.29913">
        <ele>652</ele>
        <time>2019-05-18T14:14:36Z</time>
      </trkpt>
      <trkpt lat="45.54445" lon="2.29907">
        <ele>652</ele>
        <time>2019-05-18T14:14:37Z</time>
      </trkpt>
      <trkpt lat="45.54444" lon="2.29902">
        <ele>652</ele>
        <time>2019-05-18T14:14:38Z</time>
      </trkpt>
      <trkpt lat="45.54444" lon="2.29898">
        <ele>652</ele>
        <time>2019-05-18T14:14:39Z</time>
      </trkpt>
      <trkpt lat="45.54442" lon="2.29892">
        <ele>652</ele>
        <time>2019-05-18T14:14:40Z</time>
      </trkpt>
      <trkpt lat="45.54439" lon="2.29889">
        <ele>652</ele>
        <time>2019-05-18T14:14:41Z</time>
      </trkpt>
      <trkpt lat="45.54435" lon="2.29888">
        <ele>652</ele>
        <time>2019-05-18T14:14:42Z</time>
      </trkpt>
      <trkpt lat="45.54432" lon="2.29887">
        <ele>652</ele>
        <time>2019-05-18T14:14:43Z</time>
      </trkpt>
      <trkpt lat="45.54428" lon="2.29887">
        <ele>652</ele>
        <time>2019-05-18T14:14:44Z</time>
      </trkpt>
      <trkpt lat="45.54426" lon="2.29886">
        <ele>652</ele>
        <time>2019-05-18T14:14:45Z</time>
      </trkpt>
      <trkpt lat="45.54421" lon="2.29886">
        <ele>652</ele>
        <time>2019-05-18T14:14:46Z</time>
      </trkpt>
      <trkpt lat="45.54417" lon="2.29886">
        <ele>652</ele>
        <time>2019-05-18T14:14:47Z</time>
      </trkpt>
      <trkpt lat="45.54412" lon="2.29885">
        <ele>652</ele>
        <time>2019-05-18T14:14:48Z</time>
      </trkpt>
      <trkpt lat="45.54408" lon="2.29884">
        <ele>652</ele>
        <time>2019-05-18T14:14:49Z</time>
      </trkpt>
      <trkpt lat="45.54403" lon="2.29882">
        <ele>652</ele>
        <time>2019-05-18T14:14:50Z</time>
      </trkpt>
      <trkpt lat="45.54399" lon="2.29881">
        <ele>652</ele>
        <time>2019-05-18T14:14:51Z</time>
      </trkpt>
      <trkpt lat="45.54394" lon="2.2988">
        <ele>652</ele>
        <time>2019-05-18T14:14:52Z</time>
      </trkpt>
      <trkpt lat="45.54389" lon="2.29879">
        <ele>652</ele>
        <time>2019-05-18T14:14:53Z</time>
      </trkpt>
      <trkpt lat="45.54385" lon="2.29879">
        <ele>652</ele>
        <time>2019-05-18T14:14:54Z</time>
      </trkpt>
      <trkpt lat="45.5438" lon="2.2988">
        <ele>652</ele>
        <time>2019-05-18T14:14:55Z</time>
      </trkpt>
      <trkpt lat="45.54375" lon="2.2988">
        <ele>652</ele>
        <time>2019-05-18T14:14:56Z</time>
      </trkpt>
      <trkpt lat="45.54369" lon="2.29881">
        <ele>652</ele>
        <time>2019-05-18T14:14:57Z</time>
      </trkpt>
      <trkpt lat="45.54365" lon="2.29881">
        <ele>652</ele>
        <time>2019-05-18T14:14:58Z</time>
      </trkpt>
      <trkpt lat="45.5436" lon="2.29882">
        <ele>652</ele>
        <time>2019-05-18T14:14:59Z</time>
      </trkpt>
      <trkpt lat="45.54355" lon="2.29883">
        <ele>652</ele>
        <time>2019-05-18T14:15:00Z</time>
      </trkpt>
      <trkpt lat="45.5435" lon="2.29883">
        <ele>652</ele>
        <time>2019-05-18T14:15:01Z</time>
      </trkpt>
      <trkpt lat="45.54345" lon="2.29884">
        <ele>652</ele>
        <time>2019-05-18T14:15:02Z</time>
      </trkpt>
      <trkpt lat="45.5434" lon="2.29884">
        <ele>652</ele>
        <time>2019-05-18T14:15:03Z</time>
      </trkpt>
      <trkpt lat="45.54336" lon="2.29883">
        <ele>652</ele>
        <time>2019-05-18T14:15:04Z</time>
      </trkpt>
      <trkpt lat="45.54331" lon="2.29882">
        <ele>652</ele>
        <time>2019-05-18T14:15:05Z</time>
      </trkpt>
      <trkpt lat="45.54327" lon="2.29881">
        <ele>652</ele>
        <time>2019-05-18T14:15:06Z</time>
      </trkpt>
      <trkpt lat="45.54322" lon="2.29881">
        <ele>652</ele>
        <time>2019-05-18T14:15:07Z</time>
      </trkpt>
      <trkpt lat="45.54318" lon="2.2988">
        <ele>652</ele>
        <time>2019-05-18T14:15:08Z</time>
      </trkpt>
      <trkpt lat="45.54314" lon="2.2988">
        <ele>652</ele>
        <time>2019-05-18T14:15:09Z</time>
      </trkpt>
      <trkpt lat="45.54309" lon="2.29879">
        <ele>652</ele>
        <time>2019-05-18T14:15:10Z</time>
      </trkpt>
      <trkpt lat="45.54305" lon="2.29879">
        <ele>652</ele>
        <time>2019-05-18T14:15:11Z</time>
      </trkpt>
      <trkpt lat="45.543" lon="2.29879">
        <ele>652</ele>
        <time>2019-05-18T14:15:12Z</time>
      </trkpt>
      <trkpt lat="45.54297" lon="2.29879">
        <ele>652</ele>
        <time>2019-05-18T14:15:13Z</time>
      </trkpt>
      <trkpt lat="45.54292" lon="2.29879">
        <ele>652</ele>
        <time>2019-05-18T14:15:14Z</time>
      </trkpt>
      <trkpt lat="45.54288" lon="2.29878">
        <ele>652</ele>
        <time>2019-05-18T14:15:15Z</time>
      </trkpt>
      <trkpt lat="45.54283" lon="2.29878">
        <ele>652</ele>
        <time>2019-05-18T14:15:16Z</time>
      </trkpt>
      <trkpt lat="45.54278" lon="2.29878">
        <ele>652</ele>
        <time>2019-05-18T14:15:17Z</time>
      </trkpt>
      <trkpt lat="45.54273" lon="2.29878">
        <ele>652</ele>
        <time>2019-05-18T14:15:18Z</time>
      </trkpt>
      <trkpt lat="45.54268" lon="2.29879">
        <ele>652</ele>
        <time>2019-05-18T14:15:19Z</time>
      </trkpt>
      <trkpt lat="45.54264" lon="2.29879">
        <ele>652</ele>
        <time>2019-05-18T14:15:20Z</time>
      </trkpt>
      <trkpt lat="45.54259" lon="2.29878">
        <ele>651</ele>
        <time>2019-05-18T14:15:21Z</time>
      </trkpt>
      <trkpt lat="45.54254" lon="2.29878">
        <ele>651</ele>
        <time>2019-05-18T14:15:22Z</time>
      </trkpt>
      <trkpt lat="45.54249" lon="2.29877">
        <ele>651</ele>
        <time>2019-05-18T14:15:23Z</time>
      </trkpt>
      <trkpt lat="45.54244" lon="2.29876">
        <ele>651</ele>
        <time>2019-05-18T14:15:24Z</time>
      </trkpt>
      <trkpt lat="45.5424" lon="2.29875">
        <ele>651</ele>
        <time>2019-05-18T14:15:25Z</time>
      </trkpt>
      <trkpt lat="45.54235" lon="2.29873">
        <ele>651</ele>
        <time>2019-05-18T14:15:26Z</time>
      </trkpt>
      <trkpt lat="45.54231" lon="2.29871">
        <ele>652</ele>
        <time>2019-05-18T14:15:27Z</time>
      </trkpt>
      <trkpt lat="45.54226" lon="2.2987">
        <ele>652</ele>
        <time>2019-05-18T14:15:28Z</time>
      </trkpt>
      <trkpt lat="45.54222" lon="2.29868">
        <ele>652</ele>
        <time>2019-05-18T14:15:29Z</time>
      </trkpt>
      <trkpt lat="45.54218" lon="2.29865">
        <ele>652</ele>
        <time>2019-05-18T14:15:30Z</time>
      </trkpt>
      <trkpt lat="45.54216" lon="2.29861">
        <ele>652</ele>
        <time>2019-05-18T14:15:31Z</time>
      </trkpt>
      <trkpt lat="45.54215" lon="2.29857">
        <ele>652</ele>
        <time>2019-05-18T14:15:32Z</time>
      </trkpt>
      <trkpt lat="45.54216" lon="2.29853">
        <ele>653</ele>
        <time>2019-05-18T14:15:33Z</time>
      </trkpt>
      <trkpt lat="45.54216" lon="2.2985">
        <ele>653</ele>
        <time>2019-05-18T14:15:34Z</time>
      </trkpt>
      <trkpt lat="45.54217" lon="2.29847">
        <ele>653</ele>
        <time>2019-05-18T14:15:35Z</time>
      </trkpt>
      <trkpt lat="45.54218" lon="2.29844">
        <ele>654</ele>
        <time>2019-05-18T14:15:36Z</time>
      </trkpt>
      <trkpt lat="45.54219" lon="2.29842">
        <ele>654</ele>
        <time>2019-05-18T14:15:37Z</time>
      </trkpt>
      <trkpt lat="45.5422" lon="2.29839">
        <ele>655</ele>
        <time>2019-05-18T14:15:38Z</time>
      </trkpt>
      <trkpt lat="45.54221" lon="2.29837">
        <ele>655</ele>
        <time>2019-05-18T14:15:39Z</time>
      </trkpt>
      <trkpt lat="45.54222" lon="2.29834">
        <ele>656</ele>
        <time>2019-05-18T14:15:40Z</time>
      </trkpt>
      <trkpt lat="45.54223" lon="2.29832">
        <ele>656</ele>
        <time>2019-05-18T14:15:41Z</time>
      </trkpt>
      <trkpt lat="45.54224" lon="2.2983">
        <ele>657</ele>
        <time>2019-05-18T14:15:42Z</time>
      </trkpt>
      <trkpt lat="45.54226" lon="2.29828">
        <ele>657</ele>
        <time>2019-05-18T14:15:43Z</time>
      </trkpt>
      <trkpt lat="45.54226" lon="2.29826">
        <ele>657</ele>
        <time>2019-05-18T14:15:44Z</time>
      </trkpt>
      <trkpt lat="45.54228" lon="2.29825">
        <ele>658</ele>
        <time>2019-05-18T14:15:45Z</time>
      </trkpt>
      <trkpt lat="45.54229" lon="2.29825">
        <ele>658</ele>
        <time>2019-05-18T14:15:46Z</time>
      </trkpt>
      <trkpt lat="45.54231" lon="2.29825">
        <ele>658</ele>
        <time>2019-05-18T14:15:47Z</time>
      </trkpt>
      <trkpt lat="45.54233" lon="2.29826">
        <ele>658</ele>
        <time>2019-05-18T14:15:48Z</time>
      </trkpt>
      <trkpt lat="45.54235" lon="2.29826">
        <ele>658</ele>
        <time>2019-05-18T14:15:49Z</time>
      </trkpt>
      <trkpt lat="45.54237" lon="2.29826">
        <ele>658</ele>
        <time>2019-05-18T14:15:50Z</time>
      </trkpt>
      <trkpt lat="45.5424" lon="2.29827">
        <ele>658</ele>
        <time>2019-05-18T14:15:51Z</time>
      </trkpt>
      <trkpt lat="45.54242" lon="2.29827">
        <ele>658</ele>
        <time>2019-05-18T14:15:52Z</time>
      </trkpt>
      <trkpt lat="45.54245" lon="2.29828">
        <ele>658</ele>
        <time>2019-05-18T14:15:53Z</time>
      </trkpt>
      <trkpt lat="45.54246" lon="2.29828">
        <ele>659</ele>
        <time>2019-05-18T14:15:54Z</time>
      </trkpt>
      <trkpt lat="45.54248" lon="2.29828">
        <ele>659</ele>
        <time>2019-05-18T14:15:55Z</time>
      </trkpt>
      <trkpt lat="45.54251" lon="2.29828">
        <ele>659</ele>
        <time>2019-05-18T14:15:56Z</time>
      </trkpt>
      <trkpt lat="45.54254" lon="2.29827">
        <ele>659</ele>
        <time>2019-05-18T14:15:57Z</time>
      </trkpt>
      <trkpt lat="45.54257" lon="2.29826">
        <ele>659</ele>
        <time>2019-05-18T14:15:58Z</time>
      </trkpt>
      <trkpt lat="45.5426" lon="2.29826">
        <ele>659</ele>
        <time>2019-05-18T14:15:59Z</time>
      </trkpt>
      <trkpt lat="45.54263" lon="2.29825">
        <ele>659</ele>
        <time>2019-05-18T14:16:00Z</time>
      </trkpt>
      <trkpt lat="45.54265" lon="2.29825">
        <ele>659</ele>
        <time>2019-05-18T14:16:01Z</time>
      </trkpt>
      <trkpt lat="45.54268" lon="2.29824">
        <ele>659</ele>
        <time>2019-05-18T14:16:02Z</time>
      </trkpt>
      <trkpt lat="45.54271" lon="2.29824">
        <ele>659</ele>
        <time>2019-05-18T14:16:03Z</time>
      </trkpt>
      <trkpt lat="45.54274" lon="2.29825">
        <ele>659</ele>
        <time>2019-05-18T14:16:04Z</time>
      </trkpt>
      <trkpt lat="45.54277" lon="2.29825">
        <ele>659</ele>
        <time>2019-05-18T14:16:05Z</time>
      </trkpt>
      <trkpt lat="45.5428" lon="2.29825">
        <ele>659</ele>
        <time>2019-05-18T14:16:06Z</time>
      </trkpt>
      <trkpt lat="45.54283" lon="2.29826">
        <ele>659</ele>
        <time>2019-05-18T14:16:07Z</time>
      </trkpt>
      <trkpt lat="45.54286" lon="2.29828">
        <ele>659</ele>
        <time>2019-05-18T14:16:08Z</time>
      </trkpt>
      <trkpt lat="45.54289" lon="2.2983">
        <ele>659</ele>
        <time>2019-05-18T14:16:09Z</time>
      </trkpt>
      <trkpt lat="45.54293" lon="2.29832">
        <ele>659</ele>
        <time>2019-05-18T14:16:10Z</time>
      </trkpt>
      <trkpt lat="45.54296" lon="2.29833">
        <ele>660</ele>
        <time>2019-05-18T14:16:11Z</time>
      </trkpt>
      <trkpt lat="45.54298" lon="2.29833">
        <ele>660</ele>
        <time>2019-05-18T14:16:12Z</time>
      </trkpt>
      <trkpt lat="45.54301" lon="2.29832">
        <ele>660</ele>
        <time>2019-05-18T14:16:13Z</time>
      </trkpt>
      <trkpt lat="45.54304" lon="2.29831">
        <ele>660</ele>
        <time>2019-05-18T14:16:14Z</time>
      </trkpt>
      <trkpt lat="45.54307" lon="2.29829">
        <ele>660</ele>
        <time>2019-05-18T14:16:15Z</time>
      </trkpt>
      <trkpt lat="45.54309" lon="2.29826">
        <ele>660</ele>
        <time>2019-05-18T14:16:16Z</time>
      </trkpt>
      <trkpt lat="45.54312" lon="2.29823">
        <ele>660</ele>
        <time>2019-05-18T14:16:17Z</time>
      </trkpt>
      <trkpt lat="45.54314" lon="2.2982">
        <ele>660</ele>
        <time>2019-05-18T14:16:18Z</time>
      </trkpt>
      <trkpt lat="45.54315" lon="2.29816">
        <ele>660</ele>
        <time>2019-05-18T14:16:19Z</time>
      </trkpt>
      <trkpt lat="45.54317" lon="2.29812">
        <ele>660</ele>
        <time>2019-05-18T14:16:20Z</time>
      </trkpt>
      <trkpt lat="45.54318" lon="2.29809">
        <ele>661</ele>
        <time>2019-05-18T14:16:21Z</time>
      </trkpt>
      <trkpt lat="45.5432" lon="2.29805">
        <ele>661</ele>
        <time>2019-05-18T14:16:22Z</time>
      </trkpt>
      <trkpt lat="45.54322" lon="2.29801">
        <ele>661</ele>
        <time>2019-05-18T14:16:23Z</time>
      </trkpt>
      <trkpt lat="45.54324" lon="2.29798">
        <ele>661</ele>
        <time>2019-05-18T14:16:24Z</time>
      </trkpt>
      <trkpt lat="45.54326" lon="2.29794">
        <ele>661</ele>
        <time>2019-05-18T14:16:25Z</time>
      </trkpt>
      <trkpt lat="45.54328" lon="2.29791">
        <ele>661</ele>
        <time>2019-05-18T14:16:26Z</time>
      </trkpt>
      <trkpt lat="45.54329" lon="2.29787">
        <ele>661</ele>
        <time>2019-05-18T14:16:27Z</time>
      </trkpt>
      <trkpt lat="45.54331" lon="2.29783">
        <ele>661</ele>
        <time>2019-05-18T14:16:28Z</time>
      </trkpt>
      <trkpt lat="45.54333" lon="2.29779">
        <ele>661</ele>
        <time>2019-05-18T14:16:29Z</time>
      </trkpt>
      <trkpt lat="45.54334" lon="2.29776">
        <ele>661</ele>
        <time>2019-05-18T14:16:30Z</time>
      </trkpt>
      <trkpt lat="45.54336" lon="2.29773">
        <ele>661</ele>
        <time>2019-05-18T14:16:31Z</time>
      </trkpt>
      <trkpt lat="45.54337" lon="2.29769">
        <ele>661</ele>
        <time>2019-05-18T14:16:32Z</time>
      </trkpt>
      <trkpt lat="45.54339" lon="2.29766">
        <ele>661</ele>
        <time>2019-05-18T14:16:33Z</time>
      </trkpt>
      <trkpt lat="45.54339" lon="2.29762">
        <ele>661</ele>
        <time>2019-05-18T14:16:34Z</time>
      </trkpt>
      <trkpt lat="45.54339" lon="2.29758">
        <ele>661</ele>
        <time>2019-05-18T14:16:35Z</time>
      </trkpt>
      <trkpt lat="45.54337" lon="2.29755">
        <ele>661</ele>
        <time>2019-05-18T14:16:36Z</time>
      </trkpt>
      <trkpt lat="45.54335" lon="2.29753">
        <ele>661</ele>
        <time>2019-05-18T14:16:37Z</time>
      </trkpt>
      <trkpt lat="45.54332" lon="2.29752">
        <ele>661</ele>
        <time>2019-05-18T14:16:38Z</time>
      </trkpt>
      <trkpt lat="45.54329" lon="2.29751">
        <ele>661</ele>
        <time>2019-05-18T14:16:39Z</time>
      </trkpt>
      <trkpt lat="45.54326" lon="2.2975">
        <ele>661</ele>
        <time>2019-05-18T14:16:40Z</time>
      </trkpt>
      <trkpt lat="45.54323" lon="2.29749">
        <ele>661</ele>
        <time>2019-05-18T14:16:41Z</time>
      </trkpt>
      <trkpt lat="45.54321" lon="2.29748">
        <ele>662</ele>
        <time>2019-05-18T14:16:42Z</time>
      </trkpt>
      <trkpt lat="45.54318" lon="2.29747">
        <ele>662</ele>
        <time>2019-05-18T14:16:43Z</time>
      </trkpt>
      <trkpt lat="45.54316" lon="2.29747">
        <ele>662</ele>
        <time>2019-05-18T14:16:44Z</time>
      </trkpt>
      <trkpt lat="45.54313" lon="2.29747">
        <ele>662</ele>
        <time>2019-05-18T14:16:45Z</time>
      </trkpt>
      <trkpt lat="45.5431" lon="2.29748">
        <ele>662</ele>
        <time>2019-05-18T14:16:46Z</time>
      </trkpt>
      <trkpt lat="45.54307" lon="2.29748">
        <ele>662</ele>
        <time>2019-05-18T14:16:47Z</time>
      </trkpt>
      <trkpt lat="45.54304" lon="2.2975">
        <ele>662</ele>
        <time>2019-05-18T14:16:48Z</time>
      </trkpt>
      <trkpt lat="45.54301" lon="2.29751">
        <ele>663</ele>
        <time>2019-05-18T14:16:49Z</time>
      </trkpt>
      <trkpt lat="45.54299" lon="2.29754">
        <ele>663</ele>
        <time>2019-05-18T14:16:50Z</time>
      </trkpt>
      <trkpt lat="45.54296" lon="2.29756">
        <ele>663</ele>
        <time>2019-05-18T14:16:51Z</time>
      </trkpt>
      <trkpt lat="45.54294" lon="2.29758">
        <ele>663</ele>
        <time>2019-05-18T14:16:52Z</time>
      </trkpt>
      <trkpt lat="45.54292" lon="2.2976">
        <ele>663</ele>
        <time>2019-05-18T14:16:53Z</time>
      </trkpt>
      <trkpt lat="45.54289" lon="2.29762">
        <ele>664</ele>
        <time>2019-05-18T14:16:54Z</time>
      </trkpt>
      <trkpt lat="45.54287" lon="2.29765">
        <ele>664</ele>
        <time>2019-05-18T14:16:55Z</time>
      </trkpt>
      <trkpt lat="45.54285" lon="2.29767">
        <ele>664</ele>
        <time>2019-05-18T14:16:56Z</time>
      </trkpt>
      <trkpt lat="45.54283" lon="2.29769">
        <ele>664</ele>
        <time>2019-05-18T14:16:57Z</time>
      </trkpt>
      <trkpt lat="45.5428" lon="2.29771">
        <ele>664</ele>
        <time>2019-05-18T14:16:58Z</time>
      </trkpt>
      <trkpt lat="45.54279" lon="2.29773">
        <ele>665</ele>
        <time>2019-05-18T14:16:59Z</time>
      </trkpt>
      <trkpt lat="45.54277" lon="2.29775">
        <ele>665</ele>
        <time>2019-05-18T14:17:00Z</time>
      </trkpt>
      <trkpt lat="45.54275" lon="2.29777">
        <ele>665</ele>
        <time>2019-05-18T14:17:01Z</time>
      </trkpt>
      <trkpt lat="45.54273" lon="2.29779">
        <ele>665</ele>
        <time>2019-05-18T14:17:02Z</time>
      </trkpt>
      <trkpt lat="45.54271" lon="2.29781">
        <ele>665</ele>
        <time>2019-05-18T14:17:03Z</time>
      </trkpt>
      <trkpt lat="45.54269" lon="2.29783">
        <ele>665</ele>
        <time>2019-05-18T14:17:04Z</time>
      </trkpt>
      <trkpt lat="45.54267" lon="2.29785">
        <ele>666</ele>
        <time>2019-05-18T14:17:05Z</time>
      </trkpt>
      <trkpt lat="45.54264" lon="2.29786">
        <ele>666</ele>
        <time>2019-05-18T14:17:06Z</time>
      </trkpt>
      <trkpt lat="45.54262" lon="2.29787">
        <ele>666</ele>
        <time>2019-05-18T14:17:07Z</time>
      </trkpt>
      <trkpt lat="45.54259" lon="2.29787">
        <ele>666</ele>
        <time>2019-05-18T14:17:08Z</time>
      </trkpt>
      <trkpt lat="45.54257" lon="2.29786">
        <ele>666</ele>
        <time>2019-05-18T14:17:09Z</time>
      </trkpt>
      <trkpt lat="45.54254" lon="2.29785">
        <ele>667</ele>
        <time>2019-05-18T14:17:10Z</time>
      </trkpt>
      <trkpt lat="45.54253" lon="2.29783">
        <ele>667</ele>
        <time>2019-05-18T14:17:11Z</time>
      </trkpt>
      <trkpt lat="45.54253" lon="2.29781">
        <ele>667</ele>
        <time>2019-05-18T14:17:12Z</time>
      </trkpt>
      <trkpt lat="45.54254" lon="2.2978">
        <ele>667</ele>
        <time>2019-05-18T14:17:13Z</time>
      </trkpt>
      <trkpt lat="45.54256" lon="2.29779">
        <ele>667</ele>
        <time>2019-05-18T14:17:14Z</time>
      </trkpt>
      <trkpt lat="45.54258" lon="2.29777">
        <ele>667</ele>
        <time>2019-05-18T14:17:15Z</time>
      </trkpt>
      <trkpt lat="45.5426" lon="2.29775">
        <ele>667</ele>
        <time>2019-05-18T14:17:16Z</time>
      </trkpt>
      <trkpt lat="45.54262" lon="2.29773">
        <ele>667</ele>
        <time>2019-05-18T14:17:17Z</time>
      </trkpt>
      <trkpt lat="45.54265" lon="2.29771">
        <ele>668</ele>
        <time>2019-05-18T14:17:18Z</time>
      </trkpt>
      <trkpt lat="45.54267" lon="2.29768">
        <ele>668</ele>
        <time>2019-05-18T14:17:19Z</time>
      </trkpt>
      <trkpt lat="45.54269" lon="2.29766">
        <ele>668</ele>
        <time>2019-05-18T14:17:20Z</time>
      </trkpt>
      <trkpt lat="45.54271" lon="2.29763">
        <ele>668</ele>
        <time>2019-05-18T14:17:21Z</time>
      </trkpt>
      <trkpt lat="45.54273" lon="2.29761">
        <ele>668</ele>
        <time>2019-05-18T14:17:22Z</time>
      </trkpt>
      <trkpt lat="45.54275" lon="2.29758">
        <ele>668</ele>
        <time>2019-05-18T14:17:23Z</time>
      </trkpt>
      <trkpt lat="45.54277" lon="2.29755">
        <ele>668</ele>
        <time>2019-05-18T14:17:24Z</time>
      </trkpt>
      <trkpt lat="45.54279" lon="2.29751">
        <ele>668</ele>
        <time>2019-05-18T14:17:25Z</time>
      </trkpt>
      <trkpt lat="45.54281" lon="2.29748">
        <ele>668</ele>
        <time>2019-05-18T14:17:26Z</time>
      </trkpt>
      <trkpt lat="45.54282" lon="2.29744">
        <ele>668</ele>
        <time>2019-05-18T14:17:27Z</time>
      </trkpt>
      <trkpt lat="45.54284" lon="2.2974">
        <ele>669</ele>
        <time>2019-05-18T14:17:28Z</time>
      </trkpt>
      <trkpt lat="45.54286" lon="2.29737">
        <ele>669</ele>
        <time>2019-05-18T14:17:29Z</time>
      </trkpt>
      <trkpt lat="45.54287" lon="2.29734">
        <ele>669</ele>
        <time>2019-05-18T14:17:30Z</time>
      </trkpt>
      <trkpt lat="45.54289" lon="2.2973">
        <ele>669</ele>
        <time>2019-05-18T14:17:31Z</time>
      </trkpt>
      <trkpt lat="45.5429" lon="2.29727">
        <ele>669</ele>
        <time>2019-05-18T14:17:32Z</time>
      </trkpt>
      <trkpt lat="45.54292" lon="2.29723">
        <ele>669</ele>
        <time>2019-05-18T14:17:33Z</time>
      </trkpt>
      <trkpt lat="45.54294" lon="2.2972">
        <ele>669</ele>
        <time>2019-05-18T14:17:34Z</time>
      </trkpt>
      <trkpt lat="45.54296" lon="2.29716">
        <ele>669</ele>
        <time>2019-05-18T14:17:35Z</time>
      </trkpt>
      <trkpt lat="45.54297" lon="2.29713">
        <ele>669</ele>
        <time>2019-05-18T14:17:36Z</time>
      </trkpt>
      <trkpt lat="45.543" lon="2.2971">
        <ele>669</ele>
        <time>2019-05-18T14:17:37Z</time>
      </trkpt>
      <trkpt lat="45.54302" lon="2.29707">
        <ele>669</ele>
        <time>2019-05-18T14:17:38Z</time>
      </trkpt>
      <trkpt lat="45.54303" lon="2.29704">
        <ele>669</ele>
        <time>2019-05-18T14:17:39Z</time>
      </trkpt>
      <trkpt lat="45.54305" lon="2.29701">
        <ele>670</ele>
        <time>2019-05-18T14:17:40Z</time>
      </trkpt>
      <trkpt lat="45.54307" lon="2.29697">
        <ele>670</ele>
        <time>2019-05-18T14:17:41Z</time>
      </trkpt>
      <trkpt lat="45.54309" lon="2.29694">
        <ele>670</ele>
        <time>2019-05-18T14:17:42Z</time>
      </trkpt>
      <trkpt lat="45.54313" lon="2.29691">
        <ele>670</ele>
        <time>2019-05-18T14:17:43Z</time>
      </trkpt>
      <trkpt lat="45.54315" lon="2.29689">
        <ele>670</ele>
        <time>2019-05-18T14:17:44Z</time>
      </trkpt>
      <trkpt lat="45.54318" lon="2.29688">
        <ele>670</ele>
        <time>2019-05-18T14:17:45Z</time>
      </trkpt>
      <trkpt lat="45.54321" lon="2.29685">
        <ele>670</ele>
        <time>2019-05-18T14:17:46Z</time>
      </trkpt>
      <trkpt lat="45.54323" lon="2.29682">
        <ele>670</ele>
        <time>2019-05-18T14:17:47Z</time>
      </trkpt>
      <trkpt lat="45.54326" lon="2.2968">
        <ele>670</ele>
        <time>2019-05-18T14:17:48Z</time>
      </trkpt>
      <trkpt lat="45.54329" lon="2.29678">
        <ele>670</ele>
        <time>2019-05-18T14:17:49Z</time>
      </trkpt>
      <trkpt lat="45.54332" lon="2.29676">
        <ele>671</ele>
        <time>2019-05-18T14:17:50Z</time>
      </trkpt>
      <trkpt lat="45.54335" lon="2.29674">
        <ele>671</ele>
        <time>2019-05-18T14:17:51Z</time>
      </trkpt>
      <trkpt lat="45.54338" lon="2.29671">
        <ele>671</ele>
        <time>2019-05-18T14:17:52Z</time>
      </trkpt>
      <trkpt lat="45.54341" lon="2.29669">
        <ele>671</ele>
        <time>2019-05-18T14:17:53Z</time>
      </trkpt>
      <trkpt lat="45.54344" lon="2.29667">
        <ele>671</ele>
        <time>2019-05-18T14:17:54Z</time>
      </trkpt>
      <trkpt lat="45.54348" lon="2.29666">
        <ele>671</ele>
        <time>2019-05-18T14:17:55Z</time>
      </trkpt>
      <trkpt lat="45.54351" lon="2.29664">
        <ele>671</ele>
        <time>2019-05-18T14:17:56Z</time>
      </trkpt>
      <trkpt lat="45.54354" lon="2.29663">
        <ele>671</ele>
        <time>2019-05-18T14:17:57Z</time>
      </trkpt>
      <trkpt lat="45.54358" lon="2.29662">
        <ele>671</ele>
        <time>2019-05-18T14:17:58Z</time>
      </trkpt>
      <trkpt lat="45.5436" lon="2.29661">
        <ele>671</ele>
        <time>2019-05-18T14:17:59Z</time>
      </trkpt>
      <trkpt lat="45.54363" lon="2.2966">
        <ele>671</ele>
        <time>2019-05-18T14:18:00Z</time>
      </trkpt>
      <trkpt lat="45.54366" lon="2.29659">
        <ele>672</ele>
        <time>2019-05-18T14:18:01Z</time>
      </trkpt>
      <trkpt lat="45.54369" lon="2.29659">
        <ele>672</ele>
        <time>2019-05-18T14:18:02Z</time>
      </trkpt>
      <trkpt lat="45.54373" lon="2.29659">
        <ele>672</ele>
        <time>2019-05-18T14:18:03Z</time>
      </trkpt>
      <trkpt lat="45.54376" lon="2.29658">
        <ele>672</ele>
        <time>2019-05-18T14:18:04Z</time>
      </trkpt>
      <trkpt lat="45.54379" lon="2.29658">
        <ele>672</ele>
        <time>2019-05-18T14:18:05Z</time>
      </trkpt>
      <trkpt lat="45.54382" lon="2.29658">
        <ele>672</ele>
        <time>2019-05-18T14:18:06Z</time>
      </trkpt>
      <trkpt lat="45.54386" lon="2.29657">
        <ele>672</ele>
        <time>2019-05-18T14:18:07Z</time>
      </trkpt>
      <trkpt lat="45.54389" lon="2.29657">
        <ele>672</ele>
        <time>2019-05-18T14:18:08Z</time>
      </trkpt>
      <trkpt lat="45.54393" lon="2.29656">
        <ele>672</ele>
        <time>2019-05-18T14:18:09Z</time>
      </trkpt>
      <trkpt lat="45.54396" lon="2.29656">
        <ele>673</ele>
        <time>2019-05-18T14:18:10Z</time>
      </trkpt>
      <trkpt lat="45.544" lon="2.29657">
        <ele>673</ele>
        <time>2019-05-18T14:18:11Z</time>
      </trkpt>
      <trkpt lat="45.54403" lon="2.29656">
        <ele>673</ele>
        <time>2019-05-18T14:18:12Z</time>
      </trkpt>
      <trkpt lat="45.54406" lon="2.29656">
        <ele>673</ele>
        <time>2019-05-18T14:18:13Z</time>
      </trkpt>
      <trkpt lat="45.5441" lon="2.29656">
        <ele>673</ele>
        <time>2019-05-18T14:18:14Z</time>
      </trkpt>
      <trkpt lat="45.54413" lon="2.29656">
        <ele>673</ele>
        <time>2019-05-18T14:18:15Z</time>
      </trkpt>
      <trkpt lat="45.54417" lon="2.29656">
        <ele>673</ele>
        <time>2019-05-18T14:18:16Z</time>
      </trkpt>
      <trkpt lat="45.5442" lon="2.29655">
        <ele>673</ele>
        <time>2019-05-18T14:18:17Z</time>
      </trkpt>
      <trkpt lat="45.54424" lon="2.29655">
        <ele>673</ele>
        <time>2019-05-18T14:18:18Z</time>
      </trkpt>
      <trkpt lat="45.54427" lon="2.29655">
        <ele>673</ele>
        <time>2019-05-18T14:18:19Z</time>
      </trkpt>
      <trkpt lat="45.5443" lon="2.29655">
        <ele>673</ele>
        <time>2019-05-18T14:18:20Z</time>
      </trkpt>
      <trkpt lat="45.54434" lon="2.29655">
        <ele>673</ele>
        <time>2019-05-18T14:18:21Z</time>
      </trkpt>
      <trkpt lat="45.54436" lon="2.29655">
        <ele>674</ele>
        <time>2019-05-18T14:18:22Z</time>
      </trkpt>
      <trkpt lat="45.5444" lon="2.29656">
        <ele>674</ele>
        <time>2019-05-18T14:18:23Z</time>
      </trkpt>
      <trkpt lat="45.54443" lon="2.29657">
        <ele>674</ele>
        <time>2019-05-18T14:18:24Z</time>
      </trkpt>
      <trkpt lat="45.54446" lon="2.29657">
        <ele>674</ele>
        <time>2019-05-18T14:18:25Z</time>
      </trkpt>
      <trkpt lat="45.5445" lon="2.29659">
        <ele>674</ele>
        <time>2019-05-18T14:18:26Z</time>
      </trkpt>
      <trkpt lat="45.54453" lon="2.2966">
        <ele>674</ele>
        <time>2019-05-18T14:18:27Z</time>
      </trkpt>
      <trkpt lat="45.54457" lon="2.29661">
        <ele>674</ele>
        <time>2019-05-18T14:18:28Z</time>
      </trkpt>
      <trkpt lat="45.5446" lon="2.29662">
        <ele>674</ele>
        <time>2019-05-18T14:18:29Z</time>
      </trkpt>
      <trkpt lat="45.54463" lon="2.29663">
        <ele>674</ele>
        <time>2019-05-18T14:18:30Z</time>
      </trkpt>
      <trkpt lat="45.54467" lon="2.29664">
        <ele>674</ele>
        <time>2019-05-18T14:18:31Z</time>
      </trkpt>
      <trkpt lat="45.5447" lon="2.29666">
        <ele>674</ele>
        <time>2019-05-18T14:18:32Z</time>
      </trkpt>
      <trkpt lat="45.54474" lon="2.29667">
        <ele>674</ele>
        <time>2019-05-18T14:18:33Z</time>
      </trkpt>
      <trkpt lat="45.54477" lon="2.29668">
        <ele>675</ele>
        <time>2019-05-18T14:18:34Z</time>
      </trkpt>
      <trkpt lat="45.5448" lon="2.2967">
        <ele>675</ele>
        <time>2019-05-18T14:18:35Z</time>
      </trkpt>
      <trkpt lat="45.54484" lon="2.29671">
        <ele>675</ele>
        <time>2019-05-18T14:18:36Z</time>
      </trkpt>
      <trkpt lat="45.54487" lon="2.29672">
        <ele>675</ele>
        <time>2019-05-18T14:18:37Z</time>
      </trkpt>
      <trkpt lat="45.5449" lon="2.29673">
        <ele>675</ele>
        <time>2019-05-18T14:18:38Z</time>
      </trkpt>
      <trkpt lat="45.54493" lon="2.29674">
        <ele>675</ele>
        <time>2019-05-18T14:18:39Z</time>
      </trkpt>
      <trkpt lat="45.54496" lon="2.29675">
        <ele>675</ele>
        <time>2019-05-18T14:18:40Z</time>
      </trkpt>
      <trkpt lat="45.54499" lon="2.29676">
        <ele>675</ele>
        <time>2019-05-18T14:18:41Z</time>
      </trkpt>
      <trkpt lat="45.54502" lon="2.29677">
        <ele>676</ele>
        <time>2019-05-18T14:18:42Z</time>
      </trkpt>
      <trkpt lat="45.54506" lon="2.29678">
        <ele>676</ele>
        <time>2019-05-18T14:18:43Z</time>
      </trkpt>
      <trkpt lat="45.54509" lon="2.29678">
        <ele>676</ele>
        <time>2019-05-18T14:18:44Z</time>
      </trkpt>
      <trkpt lat="45.54512" lon="2.29679">
        <ele>676</ele>
        <time>2019-05-18T14:18:45Z</time>
      </trkpt>
      <trkpt lat="45.54516" lon="2.2968">
        <ele>676</ele>
        <time>2019-05-18T14:18:46Z</time>
      </trkpt>
      <trkpt lat="45.54519" lon="2.29681">
        <ele>676</ele>
        <time>2019-05-18T14:18:47Z</time>
      </trkpt>
      <trkpt lat="45.54523" lon="2.29681">
        <ele>676</ele>
        <time>2019-05-18T14:18:48Z</time>
      </trkpt>
      <trkpt lat="45.54526" lon="2.29682">
        <ele>676</ele>
        <time>2019-05-18T14:18:49Z</time>
      </trkpt>
      <trkpt lat="45.5453" lon="2.29682">
        <ele>676</ele>
        <time>2019-05-18T14:18:50Z</time>
      </trkpt>
      <trkpt lat="45.54533" lon="2.29683">
        <ele>676</ele>
        <time>2019-05-18T14:18:51Z</time>
      </trkpt>
      <trkpt lat="45.54537" lon="2.29683">
        <ele>676</ele>
        <time>2019-05-18T14:18:52Z</time>
      </trkpt>
      <trkpt lat="45.5454" lon="2.29683">
        <ele>677</ele>
        <time>2019-05-18T14:18:53Z</time>
      </trkpt>
      <trkpt lat="45.54543" lon="2.29684">
        <ele>677</ele>
        <time>2019-05-18T14:18:54Z</time>
      </trkpt>
      <trkpt lat="45.54547" lon="2.29684">
        <ele>677</ele>
        <time>2019-05-18T14:18:55Z</time>
      </trkpt>
      <trkpt lat="45.5455" lon="2.29684">
        <ele>677</ele>
        <time>2019-05-18T14:18:56Z</time>
      </trkpt>
      <trkpt lat="45.54553" lon="2.29685">
        <ele>677</ele>
        <time>2019-05-18T14:18:57Z</time>
      </trkpt>
      <trkpt lat="45.54557" lon="2.29685">
        <ele>677</ele>
        <time>2019-05-18T14:18:58Z</time>
      </trkpt>
      <trkpt lat="45.5456" lon="2.29686">
        <ele>677</ele>
        <time>2019-05-18T14:18:59Z</time>
      </trkpt>
      <trkpt lat="45.54564" lon="2.29687">
        <ele>677</ele>
        <time>2019-05-18T14:19:00Z</time>
      </trkpt>
      <trkpt lat="45.54567" lon="2.29687">
        <ele>677</ele>
        <time>2019-05-18T14:19:01Z</time>
      </trkpt>
      <trkpt lat="45.5457" lon="2.29689">
        <ele>677</ele>
        <time>2019-05-18T14:19:02Z</time>
      </trkpt>
      <trkpt lat="45.54573" lon="2.2969">
        <ele>678</ele>
        <time>2019-05-18T14:19:03Z</time>
      </trkpt>
      <trkpt lat="45.54576" lon="2.29691">
        <ele>678</ele>
        <time>2019-05-18T14:19:04Z</time>
      </trkpt>
      <trkpt lat="45.54579" lon="2.29693">
        <ele>678</ele>
        <time>2019-05-18T14:19:05Z</time>
      </trkpt>
      <trkpt lat="45.54582" lon="2.29695">
        <ele>678</ele>
        <time>2019-05-18T14:19:06Z</time>
      </trkpt>
      <trkpt lat="45.54583" lon="2.29698">
        <ele>678</ele>
        <time>2019-05-18T14:19:07Z</time>
      </trkpt>
      <trkpt lat="45.54585" lon="2.297">
        <ele>678</ele>
        <time>2019-05-18T14:19:08Z</time>
      </trkpt>
      <trkpt lat="45.54586" lon="2.29702">
        <ele>678</ele>
        <time>2019-05-18T14:19:09Z</time>
      </trkpt>
      <trkpt lat="45.54588" lon="2.29705">
        <ele>679</ele>
        <time>2019-05-18T14:19:10Z</time>
      </trkpt>
      <trkpt lat="45.5459" lon="2.29707">
        <ele>679</ele>
        <time>2019-05-18T14:19:11Z</time>
      </trkpt>
      <trkpt lat="45.54593" lon="2.29708">
        <ele>679</ele>
        <time>2019-05-18T14:19:12Z</time>
      </trkpt>
      <trkpt lat="45.54595" lon="2.2971">
        <ele>679</ele>
        <time>2019-05-18T14:19:13Z</time>
      </trkpt>
      <trkpt lat="45.54597" lon="2.29711">
        <ele>679</ele>
        <time>2019-05-18T14:19:14Z</time>
      </trkpt>
      <trkpt lat="45.54601" lon="2.29711">
        <ele>679</ele>
        <time>2019-05-18T14:19:15Z</time>
      </trkpt>
      <trkpt lat="45.54604" lon="2.29712">
        <ele>679</ele>
        <time>2019-05-18T14:19:16Z</time>
      </trkpt>
      <trkpt lat="45.54607" lon="2.29712">
        <ele>679</ele>
        <time>2019-05-18T14:19:17Z</time>
      </trkpt>
      <trkpt lat="45.54611" lon="2.29712">
        <ele>679</ele>
        <time>2019-05-18T14:19:18Z</time>
      </trkpt>
      <trkpt lat="45.54614" lon="2.29713">
        <ele>680</ele>
        <time>2019-05-18T14:19:19Z</time>
      </trkpt>
      <trkpt lat="45.54617" lon="2.29713">
        <ele>680</ele>
        <time>2019-05-18T14:19:20Z</time>
      </trkpt>
      <trkpt lat="45.54621" lon="2.29713">
        <ele>680</ele>
        <time>2019-05-18T14:19:21Z</time>
      </trkpt>
      <trkpt lat="45.54625" lon="2.29713">
        <ele>680</ele>
        <time>2019-05-18T14:19:22Z</time>
      </trkpt>
      <trkpt lat="45.54629" lon="2.29712">
        <ele>680</ele>
        <time>2019-05-18T14:19:23Z</time>
      </trkpt>
      <trkpt lat="45.54633" lon="2.29712">
        <ele>680</ele>
        <time>2019-05-18T14:19:24Z</time>
      </trkpt>
      <trkpt lat="45.54638" lon="2.2971">
        <ele>680</ele>
        <time>2019-05-18T14:19:25Z</time>
      </trkpt>
      <trkpt lat="45.54641" lon="2.29709">
        <ele>680</ele>
        <time>2019-05-18T14:19:26Z</time>
      </trkpt>
      <trkpt lat="45.54645" lon="2.29707">
        <ele>680</ele>
        <time>2019-05-18T14:19:27Z</time>
      </trkpt>
      <trkpt lat="45.54649" lon="2.29706">
        <ele>680</ele>
        <time>2019-05-18T14:19:28Z</time>
      </trkpt>
      <trkpt lat="45.54653" lon="2.29704">
        <ele>681</ele>
        <time>2019-05-18T14:19:29Z</time>
      </trkpt>
      <trkpt lat="45.54657" lon="2.29703">
        <ele>681</ele>
        <time>2019-05-18T14:19:30Z</time>
      </trkpt>
      <trkpt lat="45.5466" lon="2.29702">
        <ele>681</ele>
        <time>2019-05-18T14:19:31Z</time>
      </trkpt>
      <trkpt lat="45.54663" lon="2.297">
        <ele>681</ele>
        <time>2019-05-18T14:19:32Z</time>
      </trkpt>
      <trkpt lat="45.54667" lon="2.29698">
        <ele>681</ele>
        <time>2019-05-18T14:19:33Z</time>
      </trkpt>
      <trkpt lat="45.5467" lon="2.29696">
        <ele>681</ele>
        <time>2019-05-18T14:19:34Z</time>
      </trkpt>
      <trkpt lat="45.54673" lon="2.29694">
        <ele>681</ele>
        <time>2019-05-18T14:19:35Z</time>
      </trkpt>
      <trkpt lat="45.54675" lon="2.29692">
        <ele>681</ele>
        <time>2019-05-18T14:19:36Z</time>
      </trkpt>
      <trkpt lat="45.54677" lon="2.2969">
        <ele>681</ele>
        <time>2019-05-18T14:19:37Z</time>
      </trkpt>
      <trkpt lat="45.5468" lon="2.29688">
        <ele>681</ele>
        <time>2019-05-18T14:19:38Z</time>
      </trkpt>
      <trkpt lat="45.54681" lon="2.29686">
        <ele>681</ele>
        <time>2019-05-18T14:19:39Z</time>
      </trkpt>
      <trkpt lat="45.54683" lon="2.29684">
        <ele>682</ele>
        <time>2019-05-18T14:19:40Z</time>
      </trkpt>
      <trkpt lat="45.54684" lon="2.29681">
        <ele>682</ele>
        <time>2019-05-18T14:19:41Z</time>
      </trkpt>
      <trkpt lat="45.54687" lon="2.29678">
        <ele>682</ele>
        <time>2019-05-18T14:19:42Z</time>
      </trkpt>
      <trkpt lat="45.54689" lon="2.29676">
        <ele>682</ele>
        <time>2019-05-18T14:19:43Z</time>
      </trkpt>
      <trkpt lat="45.54691" lon="2.29673">
        <ele>682</ele>
        <time>2019-05-18T14:19:44Z</time>
      </trkpt>
      <trkpt lat="45.54694" lon="2.29671">
        <ele>682</ele>
        <time>2019-05-18T14:19:45Z</time>
      </trkpt>
      <trkpt lat="45.54696" lon="2.29668">
        <ele>682</ele>
        <time>2019-05-18T14:19:46Z</time>
      </trkpt>
      <trkpt lat="45.54698" lon="2.29665">
        <ele>682</ele>
        <time>2019-05-18T14:19:47Z</time>
      </trkpt>
      <trkpt lat="45.547" lon="2.29662">
        <ele>682</ele>
        <time>2019-05-18T14:19:48Z</time>
      </trkpt>
      <trkpt lat="45.54702" lon="2.29659">
        <ele>682</ele>
        <time>2019-05-18T14:19:49Z</time>
      </trkpt>
      <trkpt lat="45.54703" lon="2.29656">
        <ele>683</ele>
        <time>2019-05-18T14:19:50Z</time>
      </trkpt>
      <trkpt lat="45.54705" lon="2.29652">
        <ele>683</ele>
        <time>2019-05-18T14:19:51Z</time>
      </trkpt>
      <trkpt lat="45.54708" lon="2.29649">
        <ele>683</ele>
        <time>2019-05-18T14:19:52Z</time>
      </trkpt>
      <trkpt lat="45.5471" lon="2.29644">
        <ele>683</ele>
        <time>2019-05-18T14:19:53Z</time>
      </trkpt>
      <trkpt lat="45.54711" lon="2.2964">
        <ele>683</ele>
        <time>2019-05-18T14:19:54Z</time>
      </trkpt>
      <trkpt lat="45.54713" lon="2.29635">
        <ele>683</ele>
        <time>2019-05-18T14:19:55Z</time>
      </trkpt>
      <trkpt lat="45.54715" lon="2.29631">
        <ele>683</ele>
        <time>2019-05-18T14:19:56Z</time>
      </trkpt>
      <trkpt lat="45.54715" lon="2.29625">
        <ele>683</ele>
        <time>2019-05-18T14:19:57Z</time>
      </trkpt>
      <trkpt lat="45.54716" lon="2.2962">
        <ele>683</ele>
        <time>2019-05-18T14:19:58Z</time>
      </trkpt>
      <trkpt lat="45.54717" lon="2.29615">
        <ele>683</ele>
        <time>2019-05-18T14:19:59Z</time>
      </trkpt>
      <trkpt lat="45.54718" lon="2.29611">
        <ele>683</ele>
        <time>2019-05-18T14:20:00Z</time>
      </trkpt>
      <trkpt lat="45.54718" lon="2.29606">
        <ele>683</ele>
        <time>2019-05-18T14:20:01Z</time>
      </trkpt>
      <trkpt lat="45.54719" lon="2.296">
        <ele>684</ele>
        <time>2019-05-18T14:20:02Z</time>
      </trkpt>
      <trkpt lat="45.54719" lon="2.29595">
        <ele>684</ele>
        <time>2019-05-18T14:20:03Z</time>
      </trkpt>
      <trkpt lat="45.5472" lon="2.2959">
        <ele>684</ele>
        <time>2019-05-18T14:20:04Z</time>
      </trkpt>
      <trkpt lat="45.5472" lon="2.29585">
        <ele>684</ele>
        <time>2019-05-18T14:20:05Z</time>
      </trkpt>
      <trkpt lat="45.5472" lon="2.2958">
        <ele>684</ele>
        <time>2019-05-18T14:20:06Z</time>
      </trkpt>
      <trkpt lat="45.5472" lon="2.29575">
        <ele>684</ele>
        <time>2019-05-18T14:20:07Z</time>
      </trkpt>
      <trkpt lat="45.54721" lon="2.2957">
        <ele>684</ele>
        <time>2019-05-18T14:20:08Z</time>
      </trkpt>
      <trkpt lat="45.54721" lon="2.29566">
        <ele>684</ele>
        <time>2019-05-18T14:20:09Z</time>
      </trkpt>
      <trkpt lat="45.5472" lon="2.2956">
        <ele>684</ele>
        <time>2019-05-18T14:20:10Z</time>
      </trkpt>
      <trkpt lat="45.5472" lon="2.29555">
        <ele>684</ele>
        <time>2019-05-18T14:20:11Z</time>
      </trkpt>
      <trkpt lat="45.5472" lon="2.29552">
        <ele>684</ele>
        <time>2019-05-18T14:20:12Z</time>
      </trkpt>
      <trkpt lat="45.5472" lon="2.29547">
        <ele>684</ele>
        <time>2019-05-18T14:20:13Z</time>
      </trkpt>
      <trkpt lat="45.54721" lon="2.29541">
        <ele>685</ele>
        <time>2019-05-18T14:20:14Z</time>
      </trkpt>
      <trkpt lat="45.54721" lon="2.29536">
        <ele>685</ele>
        <time>2019-05-18T14:20:15Z</time>
      </trkpt>
      <trkpt lat="45.54722" lon="2.29531">
        <ele>685</ele>
        <time>2019-05-18T14:20:16Z</time>
      </trkpt>
      <trkpt lat="45.54721" lon="2.29526">
        <ele>685</ele>
        <time>2019-05-18T14:20:17Z</time>
      </trkpt>
      <trkpt lat="45.54722" lon="2.29521">
        <ele>685</ele>
        <time>2019-05-18T14:20:18Z</time>
      </trkpt>
      <trkpt lat="45.54723" lon="2.29516">
        <ele>685</ele>
        <time>2019-05-18T14:20:19Z</time>
      </trkpt>
      <trkpt lat="45.54724" lon="2.29511">
        <ele>685</ele>
        <time>2019-05-18T14:20:20Z</time>
      </trkpt>
      <trkpt lat="45.54725" lon="2.29506">
        <ele>685</ele>
        <time>2019-05-18T14:20:21Z</time>
      </trkpt>
      <trkpt lat="45.54726" lon="2.29501">
        <ele>685</ele>
        <time>2019-05-18T14:20:22Z</time>
      </trkpt>
      <trkpt lat="45.54727" lon="2.29496">
        <ele>686</ele>
        <time>2019-05-18T14:20:23Z</time>
      </trkpt>
      <trkpt lat="45.54728" lon="2.2949">
        <ele>686</ele>
        <time>2019-05-18T14:20:24Z</time>
      </trkpt>
      <trkpt lat="45.5473" lon="2.29486">
        <ele>686</ele>
        <time>2019-05-18T14:20:25Z</time>
      </trkpt>
      <trkpt lat="45.54731" lon="2.29481">
        <ele>686</ele>
        <time>2019-05-18T14:20:26Z</time>
      </trkpt>
      <trkpt lat="45.54732" lon="2.29476">
        <ele>686</ele>
        <time>2019-05-18T14:20:27Z</time>
      </trkpt>
      <trkpt lat="45.54733" lon="2.2947">
        <ele>686</ele>
        <time>2019-05-18T14:20:28Z</time>
      </trkpt>
      <trkpt lat="45.54734" lon="2.29465">
        <ele>686</ele>
        <time>2019-05-18T14:20:29Z</time>
      </trkpt>
      <trkpt lat="45.54735" lon="2.29462">
        <ele>686</ele>
        <time>2019-05-18T14:20:30Z</time>
      </trkpt>
      <trkpt lat="45.54736" lon="2.29458">
        <ele>686</ele>
        <time>2019-05-18T14:20:31Z</time>
      </trkpt>
      <trkpt lat="45.54737" lon="2.29453">
        <ele>686</ele>
        <time>2019-05-18T14:20:32Z</time>
      </trkpt>
      <trkpt lat="45.54738" lon="2.29448">
        <ele>687</ele>
        <time>2019-05-18T14:20:33Z</time>
      </trkpt>
      <trkpt lat="45.54739" lon="2.29444">
        <ele>687</ele>
        <time>2019-05-18T14:20:34Z</time>
      </trkpt>
      <trkpt lat="45.5474" lon="2.2944">
        <ele>687</ele>
        <time>2019-05-18T14:20:35Z</time>
      </trkpt>
      <trkpt lat="45.5474" lon="2.29436">
        <ele>687</ele>
        <time>2019-05-18T14:20:36Z</time>
      </trkpt>
      <trkpt lat="45.54742" lon="2.29431">
        <ele>687</ele>
        <time>2019-05-18T14:20:37Z</time>
      </trkpt>
      <trkpt lat="45.54743" lon="2.29427">
        <ele>687</ele>
        <time>2019-05-18T14:20:38Z</time>
      </trkpt>
      <trkpt lat="45.54744" lon="2.29423">
        <ele>687</ele>
        <time>2019-05-18T14:20:39Z</time>
      </trkpt>
      <trkpt lat="45.54744" lon="2.29418">
        <ele>687</ele>
        <time>2019-05-18T14:20:40Z</time>
      </trkpt>
      <trkpt lat="45.54745" lon="2.29414">
        <ele>687</ele>
        <time>2019-05-18T14:20:41Z</time>
      </trkpt>
      <trkpt lat="45.54745" lon="2.29409">
        <ele>687</ele>
        <time>2019-05-18T14:20:42Z</time>
      </trkpt>
      <trkpt lat="45.54745" lon="2.29405">
        <ele>688</ele>
        <time>2019-05-18T14:20:43Z</time>
      </trkpt>
      <trkpt lat="45.54745" lon="2.29401">
        <ele>688</ele>
        <time>2019-05-18T14:20:44Z</time>
      </trkpt>
      <trkpt lat="45.54745" lon="2.29396">
        <ele>688</ele>
        <time>2019-05-18T14:20:45Z</time>
      </trkpt>
      <trkpt lat="45.54745" lon="2.29391">
        <ele>688</ele>
        <time>2019-05-18T14:20:46Z</time>
      </trkpt>
      <trkpt lat="45.54745" lon="2.29386">
        <ele>688</ele>
        <time>2019-05-18T14:20:47Z</time>
      </trkpt>
      <trkpt lat="45.54744" lon="2.29381">
        <ele>688</ele>
        <time>2019-05-18T14:20:48Z</time>
      </trkpt>
      <trkpt lat="45.54744" lon="2.29376">
        <ele>688</ele>
        <time>2019-05-18T14:20:49Z</time>
      </trkpt>
      <trkpt lat="45.54743" lon="2.2937">
        <ele>688</ele>
        <time>2019-05-18T14:20:50Z</time>
      </trkpt>
      <trkpt lat="45.54742" lon="2.29365">
        <ele>688</ele>
        <time>2019-05-18T14:20:51Z</time>
      </trkpt>
      <trkpt lat="45.5474" lon="2.29361">
        <ele>688</ele>
        <time>2019-05-18T14:20:52Z</time>
      </trkpt>
      <trkpt lat="45.54739" lon="2.29356">
        <ele>688</ele>
        <time>2019-05-18T14:20:53Z</time>
      </trkpt>
      <trkpt lat="45.54738" lon="2.29352">
        <ele>688</ele>
        <time>2019-05-18T14:20:54Z</time>
      </trkpt>
      <trkpt lat="45.54738" lon="2.29347">
        <ele>688</ele>
        <time>2019-05-18T14:20:55Z</time>
      </trkpt>
      <trkpt lat="45.54737" lon="2.29342">
        <ele>688</ele>
        <time>2019-05-18T14:20:56Z</time>
      </trkpt>
      <trkpt lat="45.54736" lon="2.29337">
        <ele>688</ele>
        <time>2019-05-18T14:20:57Z</time>
      </trkpt>
      <trkpt lat="45.54735" lon="2.29332">
        <ele>688</ele>
        <time>2019-05-18T14:20:58Z</time>
      </trkpt>
      <trkpt lat="45.54734" lon="2.29327">
        <ele>688</ele>
        <time>2019-05-18T14:20:59Z</time>
      </trkpt>
      <trkpt lat="45.54733" lon="2.29323">
        <ele>688</ele>
        <time>2019-05-18T14:21:00Z</time>
      </trkpt>
      <trkpt lat="45.54732" lon="2.29318">
        <ele>688</ele>
        <time>2019-05-18T14:21:01Z</time>
      </trkpt>
      <trkpt lat="45.54731" lon="2.29313">
        <ele>688</ele>
        <time>2019-05-18T14:21:02Z</time>
      </trkpt>
      <trkpt lat="45.5473" lon="2.29308">
        <ele>688</ele>
        <time>2019-05-18T14:21:03Z</time>
      </trkpt>
      <trkpt lat="45.54729" lon="2.29303">
        <ele>688</ele>
        <time>2019-05-18T14:21:04Z</time>
      </trkpt>
      <trkpt lat="45.54728" lon="2.29299">
        <ele>688</ele>
        <time>2019-05-18T14:21:05Z</time>
      </trkpt>
      <trkpt lat="45.54727" lon="2.29294">
        <ele>689</ele>
        <time>2019-05-18T14:21:06Z</time>
      </trkpt>
      <trkpt lat="45.54726" lon="2.29289">
        <ele>689</ele>
        <time>2019-05-18T14:21:07Z</time>
      </trkpt>
      <trkpt lat="45.54725" lon="2.29284">
        <ele>689</ele>
        <time>2019-05-18T14:21:08Z</time>
      </trkpt>
      <trkpt lat="45.54724" lon="2.2928">
        <ele>689</ele>
        <time>2019-05-18T14:21:09Z</time>
      </trkpt>
      <trkpt lat="45.54724" lon="2.29274">
        <ele>689</ele>
        <time>2019-05-18T14:21:10Z</time>
      </trkpt>
      <trkpt lat="45.54722" lon="2.29264">
        <ele>689</ele>
        <time>2019-05-18T14:21:11Z</time>
      </trkpt>
      <trkpt lat="45.54722" lon="2.29259">
        <ele>689</ele>
        <time>2019-05-18T14:21:13Z</time>
      </trkpt>
      <trkpt lat="45.5472" lon="2.29254">
        <ele>689</ele>
        <time>2019-05-18T14:21:14Z</time>
      </trkpt>
      <trkpt lat="45.54719" lon="2.29249">
        <ele>689</ele>
        <time>2019-05-18T14:21:15Z</time>
      </trkpt>
      <trkpt lat="45.54719" lon="2.29245">
        <ele>689</ele>
        <time>2019-05-18T14:21:16Z</time>
      </trkpt>
      <trkpt lat="45.54718" lon="2.2924">
        <ele>689</ele>
        <time>2019-05-18T14:21:17Z</time>
      </trkpt>
      <trkpt lat="45.54717" lon="2.29235">
        <ele>689</ele>
        <time>2019-05-18T14:21:18Z</time>
      </trkpt>
      <trkpt lat="45.54716" lon="2.29231">
        <ele>689</ele>
        <time>2019-05-18T14:21:19Z</time>
      </trkpt>
      <trkpt lat="45.54714" lon="2.29227">
        <ele>689</ele>
        <time>2019-05-18T14:21:20Z</time>
      </trkpt>
      <trkpt lat="45.54714" lon="2.29222">
        <ele>689</ele>
        <time>2019-05-18T14:21:21Z</time>
      </trkpt>
      <trkpt lat="45.54713" lon="2.29217">
        <ele>689</ele>
        <time>2019-05-18T14:21:22Z</time>
      </trkpt>
      <trkpt lat="45.54713" lon="2.29212">
        <ele>689</ele>
        <time>2019-05-18T14:21:23Z</time>
      </trkpt>
      <trkpt lat="45.54712" lon="2.29209">
        <ele>690</ele>
        <time>2019-05-18T14:21:24Z</time>
      </trkpt>
      <trkpt lat="45.5471" lon="2.29206">
        <ele>690</ele>
        <time>2019-05-18T14:21:25Z</time>
      </trkpt>
      <trkpt lat="45.54709" lon="2.29203">
        <ele>690</ele>
        <time>2019-05-18T14:21:26Z</time>
      </trkpt>
      <trkpt lat="45.54707" lon="2.29201">
        <ele>690</ele>
        <time>2019-05-18T14:21:27Z</time>
      </trkpt>
      <trkpt lat="45.54706" lon="2.292">
        <ele>690</ele>
        <time>2019-05-18T14:21:28Z</time>
      </trkpt>
      <trkpt lat="45.54704" lon="2.29199">
        <ele>691</ele>
        <time>2019-05-18T14:21:29Z</time>
      </trkpt>
      <trkpt lat="45.54703" lon="2.29199">
        <ele>691</ele>
        <time>2019-05-18T14:21:30Z</time>
      </trkpt>
      <trkpt lat="45.54701" lon="2.29199">
        <ele>691</ele>
        <time>2019-05-18T14:21:31Z</time>
      </trkpt>
      <trkpt lat="45.54699" lon="2.29198">
        <ele>692</ele>
        <time>2019-05-18T14:21:32Z</time>
      </trkpt>
      <trkpt lat="45.54698" lon="2.29198">
        <ele>692</ele>
        <time>2019-05-18T14:21:33Z</time>
      </trkpt>
      <trkpt lat="45.54697" lon="2.29197">
        <ele>692</ele>
        <time>2019-05-18T14:21:34Z</time>
      </trkpt>
      <trkpt lat="45.54695" lon="2.29197">
        <ele>693</ele>
        <time>2019-05-18T14:21:35Z</time>
      </trkpt>
      <trkpt lat="45.54694" lon="2.29197">
        <ele>693</ele>
        <time>2019-05-18T14:21:36Z</time>
      </trkpt>
      <trkpt lat="45.54692" lon="2.29198">
        <ele>693</ele>
        <time>2019-05-18T14:21:37Z</time>
      </trkpt>
      <trkpt lat="45.5469" lon="2.29198">
        <ele>694</ele>
        <time>2019-05-18T14:21:38Z</time>
      </trkpt>
      <trkpt lat="45.54688" lon="2.29198">
        <ele>694</ele>
        <time>2019-05-18T14:21:39Z</time>
      </trkpt>
      <trkpt lat="45.54687" lon="2.29199">
        <ele>694</ele>
        <time>2019-05-18T14:21:40Z</time>
      </trkpt>
      <trkpt lat="45.54686" lon="2.29198">
        <ele>695</ele>
        <time>2019-05-18T14:21:41Z</time>
      </trkpt>
      <trkpt lat="45.54684" lon="2.29198">
        <ele>695</ele>
        <time>2019-05-18T14:21:42Z</time>
      </trkpt>
      <trkpt lat="45.54683" lon="2.29198">
        <ele>695</ele>
        <time>2019-05-18T14:21:43Z</time>
      </trkpt>
      <trkpt lat="45.54681" lon="2.29198">
        <ele>696</ele>
        <time>2019-05-18T14:21:44Z</time>
      </trkpt>
      <trkpt lat="45.54679" lon="2.29198">
        <ele>696</ele>
        <time>2019-05-18T14:21:45Z</time>
      </trkpt>
      <trkpt lat="45.54678" lon="2.29198">
        <ele>697</ele>
        <time>2019-05-18T14:21:46Z</time>
      </trkpt>
      <trkpt lat="45.54677" lon="2.29198">
        <ele>697</ele>
        <time>2019-05-18T14:21:47Z</time>
      </trkpt>
      <trkpt lat="45.54675" lon="2.29199">
        <ele>697</ele>
        <time>2019-05-18T14:21:48Z</time>
      </trkpt>
      <trkpt lat="45.54674" lon="2.29199">
        <ele>697</ele>
        <time>2019-05-18T14:21:49Z</time>
      </trkpt>
      <trkpt lat="45.54672" lon="2.29199">
        <ele>698</ele>
        <time>2019-05-18T14:21:50Z</time>
      </trkpt>
      <trkpt lat="45.54671" lon="2.292">
        <ele>698</ele>
        <time>2019-05-18T14:21:51Z</time>
      </trkpt>
      <trkpt lat="45.5467" lon="2.292">
        <ele>698</ele>
        <time>2019-05-18T14:21:52Z</time>
      </trkpt>
      <trkpt lat="45.5467" lon="2.29199">
        <ele>699</ele>
        <time>2019-05-18T14:21:53Z</time>
      </trkpt>
      <trkpt lat="45.54668" lon="2.29198">
        <ele>699</ele>
        <time>2019-05-18T14:21:54Z</time>
      </trkpt>
      <trkpt lat="45.54667" lon="2.29198">
        <ele>699</ele>
        <time>2019-05-18T14:21:55Z</time>
      </trkpt>
      <trkpt lat="45.54666" lon="2.29197">
        <ele>699</ele>
        <time>2019-05-18T14:21:56Z</time>
      </trkpt>
      <trkpt lat="45.54664" lon="2.29196">
        <ele>700</ele>
        <time>2019-05-18T14:21:57Z</time>
      </trkpt>
      <trkpt lat="45.54663" lon="2.29194">
        <ele>700</ele>
        <time>2019-05-18T14:21:58Z</time>
      </trkpt>
      <trkpt lat="45.54662" lon="2.29193">
        <ele>700</ele>
        <time>2019-05-18T14:21:59Z</time>
      </trkpt>
      <trkpt lat="45.54661" lon="2.29191">
        <ele>700</ele>
        <time>2019-05-18T14:22:00Z</time>
      </trkpt>
      <trkpt lat="45.54661" lon="2.29189">
        <ele>700</ele>
        <time>2019-05-18T14:22:01Z</time>
      </trkpt>
      <trkpt lat="45.5466" lon="2.29184">
        <ele>700</ele>
        <time>2019-05-18T14:22:02Z</time>
      </trkpt>
      <trkpt lat="45.54659" lon="2.29181">
        <ele>700</ele>
        <time>2019-05-18T14:22:04Z</time>
      </trkpt>
      <trkpt lat="45.54659" lon="2.29179">
        <ele>700</ele>
        <time>2019-05-18T14:22:05Z</time>
      </trkpt>
      <trkpt lat="45.54659" lon="2.29177">
        <ele>700</ele>
        <time>2019-05-18T14:22:06Z</time>
      </trkpt>
      <trkpt lat="45.5466" lon="2.29175">
        <ele>701</ele>
        <time>2019-05-18T14:22:07Z</time>
      </trkpt>
      <trkpt lat="45.5466" lon="2.29173">
        <ele>701</ele>
        <time>2019-05-18T14:22:08Z</time>
      </trkpt>
      <trkpt lat="45.5466" lon="2.29171">
        <ele>701</ele>
        <time>2019-05-18T14:22:09Z</time>
      </trkpt>
      <trkpt lat="45.5466" lon="2.2917">
        <ele>701</ele>
        <time>2019-05-18T14:22:10Z</time>
      </trkpt>
      <trkpt lat="45.54661" lon="2.29169">
        <ele>702</ele>
        <time>2019-05-18T14:22:11Z</time>
      </trkpt>
      <trkpt lat="45.54662" lon="2.29168">
        <ele>702</ele>
        <time>2019-05-18T14:22:12Z</time>
      </trkpt>
      <trkpt lat="45.54663" lon="2.29167">
        <ele>702</ele>
        <time>2019-05-18T14:22:13Z</time>
      </trkpt>
      <trkpt lat="45.54664" lon="2.29166">
        <ele>702</ele>
        <time>2019-05-18T14:22:14Z</time>
      </trkpt>
      <trkpt lat="45.54665" lon="2.29165">
        <ele>702</ele>
        <time>2019-05-18T14:22:15Z</time>
      </trkpt>
      <trkpt lat="45.54665" lon="2.29164">
        <ele>702</ele>
        <time>2019-05-18T14:22:16Z</time>
      </trkpt>
      <trkpt lat="45.54666" lon="2.29163">
        <ele>702</ele>
        <time>2019-05-18T14:22:17Z</time>
      </trkpt>
      <trkpt lat="45.54667" lon="2.29162">
        <ele>702</ele>
        <time>2019-05-18T14:22:18Z</time>
      </trkpt>
      <trkpt lat="45.54668" lon="2.2916">
        <ele>702</ele>
        <time>2019-05-18T14:22:19Z</time>
      </trkpt>
      <trkpt lat="45.54669" lon="2.2916">
        <ele>702</ele>
        <time>2019-05-18T14:22:20Z</time>
      </trkpt>
      <trkpt lat="45.5467" lon="2.29159">
        <ele>702</ele>
        <time>2019-05-18T14:22:21Z</time>
      </trkpt>
      <trkpt lat="45.54671" lon="2.29157">
        <ele>702</ele>
        <time>2019-05-18T14:22:22Z</time>
      </trkpt>
      <trkpt lat="45.54671" lon="2.29155">
        <ele>702</ele>
        <time>2019-05-18T14:22:23Z</time>
      </trkpt>
      <trkpt lat="45.54672" lon="2.29153">
        <ele>702</ele>
        <time>2019-05-18T14:22:24Z</time>
      </trkpt>
      <trkpt lat="45.54674" lon="2.29151">
        <ele>702</ele>
        <time>2019-05-18T14:22:25Z</time>
      </trkpt>
      <trkpt lat="45.54675" lon="2.29149">
        <ele>702</ele>
        <time>2019-05-18T14:22:26Z</time>
      </trkpt>
      <trkpt lat="45.54677" lon="2.29149">
        <ele>702</ele>
        <time>2019-05-18T14:22:27Z</time>
      </trkpt>
      <trkpt lat="45.54678" lon="2.29147">
        <ele>702</ele>
        <time>2019-05-18T14:22:28Z</time>
      </trkpt>
      <trkpt lat="45.54679" lon="2.29145">
        <ele>702</ele>
        <time>2019-05-18T14:22:29Z</time>
      </trkpt>
      <trkpt lat="45.5468" lon="2.29143">
        <ele>702</ele>
        <time>2019-05-18T14:22:30Z</time>
      </trkpt>
      <trkpt lat="45.54683" lon="2.29141">
        <ele>702</ele>
        <time>2019-05-18T14:22:31Z</time>
      </trkpt>
      <trkpt lat="45.54685" lon="2.29139">
        <ele>702</ele>
        <time>2019-05-18T14:22:32Z</time>
      </trkpt>
      <trkpt lat="45.54689" lon="2.29135">
        <ele>702</ele>
        <time>2019-05-18T14:22:33Z</time>
      </trkpt>
      <trkpt lat="45.54691" lon="2.29133">
        <ele>701</ele>
        <time>2019-05-18T14:22:34Z</time>
      </trkpt>
      <trkpt lat="45.54693" lon="2.29131">
        <ele>701</ele>
        <time>2019-05-18T14:22:36Z</time>
      </trkpt>
      <trkpt lat="45.54694" lon="2.2913">
        <ele>701</ele>
        <time>2019-05-18T14:22:37Z</time>
      </trkpt>
      <trkpt lat="45.54696" lon="2.29129">
        <ele>701</ele>
        <time>2019-05-18T14:22:38Z</time>
      </trkpt>
      <trkpt lat="45.54698" lon="2.29127">
        <ele>701</ele>
        <time>2019-05-18T14:22:39Z</time>
      </trkpt>
      <trkpt lat="45.547" lon="2.29126">
        <ele>701</ele>
        <time>2019-05-18T14:22:40Z</time>
      </trkpt>
      <trkpt lat="45.54702" lon="2.29125">
        <ele>701</ele>
        <time>2019-05-18T14:22:41Z</time>
      </trkpt>
      <trkpt lat="45.54704" lon="2.29124">
        <ele>701</ele>
        <time>2019-05-18T14:22:42Z</time>
      </trkpt>
      <trkpt lat="45.54706" lon="2.29123">
        <ele>702</ele>
        <time>2019-05-18T14:22:43Z</time>
      </trkpt>
      <trkpt lat="45.54709" lon="2.29122">
        <ele>702</ele>
        <time>2019-05-18T14:22:44Z</time>
      </trkpt>
      <trkpt lat="45.5471" lon="2.29121">
        <ele>702</ele>
        <time>2019-05-18T14:22:45Z</time>
      </trkpt>
      <trkpt lat="45.54713" lon="2.2912">
        <ele>702</ele>
        <time>2019-05-18T14:22:46Z</time>
      </trkpt>
      <trkpt lat="45.54715" lon="2.29119">
        <ele>703</ele>
        <time>2019-05-18T14:22:47Z</time>
      </trkpt>
      <trkpt lat="45.54717" lon="2.29118">
        <ele>703</ele>
        <time>2019-05-18T14:22:48Z</time>
      </trkpt>
      <trkpt lat="45.54718" lon="2.29117">
        <ele>703</ele>
        <time>2019-05-18T14:22:49Z</time>
      </trkpt>
      <trkpt lat="45.5472" lon="2.29116">
        <ele>703</ele>
        <time>2019-05-18T14:22:50Z</time>
      </trkpt>
      <trkpt lat="45.54722" lon="2.29115">
        <ele>703</ele>
        <time>2019-05-18T14:22:51Z</time>
      </trkpt>
      <trkpt lat="45.54722" lon="2.29115">
        <ele>703</ele>
        <time>2019-05-18T14:22:52Z</time>
      </trkpt>
      <trkpt lat="45.54724" lon="2.29114">
        <ele>703</ele>
        <time>2019-05-18T14:22:53Z</time>
      </trkpt>
      <trkpt lat="45.54728" lon="2.2911">
        <ele>703</ele>
        <time>2019-05-18T14:22:54Z</time>
      </trkpt>
      <trkpt lat="45.54729" lon="2.29107">
        <ele>702</ele>
        <time>2019-05-18T14:22:55Z</time>
      </trkpt>
      <trkpt lat="45.54731" lon="2.29104">
        <ele>702</ele>
        <time>2019-05-18T14:22:56Z</time>
      </trkpt>
      <trkpt lat="45.54733" lon="2.291">
        <ele>702</ele>
        <time>2019-05-18T14:22:57Z</time>
      </trkpt>
      <trkpt lat="45.54734" lon="2.29095">
        <ele>701</ele>
        <time>2019-05-18T14:22:59Z</time>
      </trkpt>
      <trkpt lat="45.54735" lon="2.29089">
        <ele>701</ele>
        <time>2019-05-18T14:23:00Z</time>
      </trkpt>
      <trkpt lat="45.54735" lon="2.29081">
        <ele>701</ele>
        <time>2019-05-18T14:23:01Z</time>
      </trkpt>
      <trkpt lat="45.54736" lon="2.29074">
        <ele>701</ele>
        <time>2019-05-18T14:23:02Z</time>
      </trkpt>
      <trkpt lat="45.54737" lon="2.29069">
        <ele>701</ele>
        <time>2019-05-18T14:23:03Z</time>
      </trkpt>
      <trkpt lat="45.54737" lon="2.29065">
        <ele>702</ele>
        <time>2019-05-18T14:23:04Z</time>
      </trkpt>
      <trkpt lat="45.54736" lon="2.29061">
        <ele>702</ele>
        <time>2019-05-18T14:23:05Z</time>
      </trkpt>
      <trkpt lat="45.54736" lon="2.29059">
        <ele>702</ele>
        <time>2019-05-18T14:23:06Z</time>
      </trkpt>
      <trkpt lat="45.54737" lon="2.29055">
        <ele>702</ele>
        <time>2019-05-18T14:23:07Z</time>
      </trkpt>
      <trkpt lat="45.54738" lon="2.2905">
        <ele>703</ele>
        <time>2019-05-18T14:23:08Z</time>
      </trkpt>
      <trkpt lat="45.54738" lon="2.29043">
        <ele>703</ele>
        <time>2019-05-18T14:23:10Z</time>
      </trkpt>
      <trkpt lat="45.54739" lon="2.29036">
        <ele>703</ele>
        <time>2019-05-18T14:23:12Z</time>
      </trkpt>
      <trkpt lat="45.54738" lon="2.29032">
        <ele>703</ele>
        <time>2019-05-18T14:23:14Z</time>
      </trkpt>
      <trkpt lat="45.54739" lon="2.29028">
        <ele>703</ele>
        <time>2019-05-18T14:23:15Z</time>
      </trkpt>
      <trkpt lat="45.54739" lon="2.29024">
        <ele>702</ele>
        <time>2019-05-18T14:23:16Z</time>
      </trkpt>
      <trkpt lat="45.54739" lon="2.29019">
        <ele>702</ele>
        <time>2019-05-18T14:23:17Z</time>
      </trkpt>
      <trkpt lat="45.54738" lon="2.29013">
        <ele>702</ele>
        <time>2019-05-18T14:23:18Z</time>
      </trkpt>
      <trkpt lat="45.54739" lon="2.29009">
        <ele>701</ele>
        <time>2019-05-18T14:23:19Z</time>
      </trkpt>
      <trkpt lat="45.54737" lon="2.29005">
        <ele>701</ele>
        <time>2019-05-18T14:23:20Z</time>
      </trkpt>
      <trkpt lat="45.54735" lon="2.29001">
        <ele>701</ele>
        <time>2019-05-18T14:23:21Z</time>
      </trkpt>
      <trkpt lat="45.54732" lon="2.28996">
        <ele>701</ele>
        <time>2019-05-18T14:23:22Z</time>
      </trkpt>
      <trkpt lat="45.54729" lon="2.28992">
        <ele>701</ele>
        <time>2019-05-18T14:23:23Z</time>
      </trkpt>
      <trkpt lat="45.54726" lon="2.28989">
        <ele>702</ele>
        <time>2019-05-18T14:23:24Z</time>
      </trkpt>
      <trkpt lat="45.54724" lon="2.28986">
        <ele>702</ele>
        <time>2019-05-18T14:23:25Z</time>
      </trkpt>
      <trkpt lat="45.5472" lon="2.28981">
        <ele>702</ele>
        <time>2019-05-18T14:23:26Z</time>
      </trkpt>
      <trkpt lat="45.54715" lon="2.28977">
        <ele>702</ele>
        <time>2019-05-18T14:23:28Z</time>
      </trkpt>
      <trkpt lat="45.54713" lon="2.28975">
        <ele>702</ele>
        <time>2019-05-18T14:23:29Z</time>
      </trkpt>
      <trkpt lat="45.54711" lon="2.28973">
        <ele>702</ele>
        <time>2019-05-18T14:23:30Z</time>
      </trkpt>
      <trkpt lat="45.54708" lon="2.28972">
        <ele>703</ele>
        <time>2019-05-18T14:23:31Z</time>
      </trkpt>
      <trkpt lat="45.54706" lon="2.2897">
        <ele>703</ele>
        <time>2019-05-18T14:23:33Z</time>
      </trkpt>
      <trkpt lat="45.54704" lon="2.28968">
        <ele>703</ele>
        <time>2019-05-18T14:23:34Z</time>
      </trkpt>
      <trkpt lat="45.54702" lon="2.28967">
        <ele>704</ele>
        <time>2019-05-18T14:23:35Z</time>
      </trkpt>
      <trkpt lat="45.547" lon="2.28965">
        <ele>704</ele>
        <time>2019-05-18T14:23:36Z</time>
      </trkpt>
      <trkpt lat="45.54698" lon="2.28964">
        <ele>704</ele>
        <time>2019-05-18T14:23:37Z</time>
      </trkpt>
      <trkpt lat="45.54696" lon="2.28962">
        <ele>704</ele>
        <time>2019-05-18T14:23:38Z</time>
      </trkpt>
      <trkpt lat="45.54693" lon="2.2896">
        <ele>704</ele>
        <time>2019-05-18T14:23:39Z</time>
      </trkpt>
      <trkpt lat="45.54691" lon="2.28958">
        <ele>704</ele>
        <time>2019-05-18T14:23:40Z</time>
      </trkpt>
      <trkpt lat="45.54689" lon="2.28956">
        <ele>704</ele>
        <time>2019-05-18T14:23:41Z</time>
      </trkpt>
      <trkpt lat="45.54688" lon="2.28954">
        <ele>705</ele>
        <time>2019-05-18T14:23:42Z</time>
      </trkpt>
      <trkpt lat="45.54686" lon="2.28952">
        <ele>705</ele>
        <time>2019-05-18T14:23:43Z</time>
      </trkpt>
      <trkpt lat="45.54685" lon="2.2895">
        <ele>705</ele>
        <time>2019-05-18T14:23:44Z</time>
      </trkpt>
      <trkpt lat="45.54683" lon="2.28947">
        <ele>705</ele>
        <time>2019-05-18T14:23:45Z</time>
      </trkpt>
      <trkpt lat="45.54682" lon="2.28944">
        <ele>704</ele>
        <time>2019-05-18T14:23:46Z</time>
      </trkpt>
      <trkpt lat="45.5468" lon="2.28941">
        <ele>704</ele>
        <time>2019-05-18T14:23:47Z</time>
      </trkpt>
      <trkpt lat="45.54679" lon="2.28938">
        <ele>704</ele>
        <time>2019-05-18T14:23:48Z</time>
      </trkpt>
      <trkpt lat="45.54677" lon="2.28934">
        <ele>704</ele>
        <time>2019-05-18T14:23:49Z</time>
      </trkpt>
      <trkpt lat="45.54676" lon="2.28932">
        <ele>704</ele>
        <time>2019-05-18T14:23:50Z</time>
      </trkpt>
      <trkpt lat="45.54672" lon="2.28927">
        <ele>704</ele>
        <time>2019-05-18T14:23:51Z</time>
      </trkpt>
      <trkpt lat="45.54669" lon="2.2892">
        <ele>704</ele>
        <time>2019-05-18T14:23:53Z</time>
      </trkpt>
      <trkpt lat="45.54663" lon="2.28913">
        <ele>703</ele>
        <time>2019-05-18T14:23:55Z</time>
      </trkpt>
      <trkpt lat="45.54657" lon="2.28904">
        <ele>703</ele>
        <time>2019-05-18T14:23:57Z</time>
      </trkpt>
      <trkpt lat="45.54649" lon="2.28896">
        <ele>702</ele>
        <time>2019-05-18T14:23:59Z</time>
      </trkpt>
      <trkpt lat="45.54644" lon="2.28896">
        <ele>701</ele>
        <time>2019-05-18T14:24:00Z</time>
      </trkpt>
      <trkpt lat="45.5464" lon="2.28898">
        <ele>702</ele>
        <time>2019-05-18T14:24:01Z</time>
      </trkpt>
      <trkpt lat="45.54636" lon="2.289">
        <ele>702</ele>
        <time>2019-05-18T14:24:02Z</time>
      </trkpt>
      <trkpt lat="45.54634" lon="2.28903">
        <ele>702</ele>
        <time>2019-05-18T14:24:03Z</time>
      </trkpt>
      <trkpt lat="45.54631" lon="2.28907">
        <ele>702</ele>
        <time>2019-05-18T14:24:05Z</time>
      </trkpt>
      <trkpt lat="45.54628" lon="2.2891">
        <ele>702</ele>
        <time>2019-05-18T14:24:06Z</time>
      </trkpt>
      <trkpt lat="45.54625" lon="2.28913">
        <ele>702</ele>
        <time>2019-05-18T14:24:07Z</time>
      </trkpt>
      <trkpt lat="45.54622" lon="2.28916">
        <ele>702</ele>
        <time>2019-05-18T14:24:08Z</time>
      </trkpt>
      <trkpt lat="45.5462" lon="2.28918">
        <ele>702</ele>
        <time>2019-05-18T14:24:09Z</time>
      </trkpt>
      <trkpt lat="45.54617" lon="2.2892">
        <ele>702</ele>
        <time>2019-05-18T14:24:10Z</time>
      </trkpt>
      <trkpt lat="45.54614" lon="2.28923">
        <ele>702</ele>
        <time>2019-05-18T14:24:11Z</time>
      </trkpt>
      <trkpt lat="45.54612" lon="2.28927">
        <ele>702</ele>
        <time>2019-05-18T14:24:12Z</time>
      </trkpt>
      <trkpt lat="45.54606" lon="2.28933">
        <ele>702</ele>
        <time>2019-05-18T14:24:13Z</time>
      </trkpt>
      <trkpt lat="45.54601" lon="2.2894">
        <ele>702</ele>
        <time>2019-05-18T14:24:15Z</time>
      </trkpt>
      <trkpt lat="45.54597" lon="2.28946">
        <ele>702</ele>
        <time>2019-05-18T14:24:17Z</time>
      </trkpt>
      <trkpt lat="45.54592" lon="2.28953">
        <ele>702</ele>
        <time>2019-05-18T14:24:19Z</time>
      </trkpt>
      <trkpt lat="45.54591" lon="2.28956">
        <ele>702</ele>
        <time>2019-05-18T14:24:20Z</time>
      </trkpt>
      <trkpt lat="45.54586" lon="2.28962">
        <ele>703</ele>
        <time>2019-05-18T14:24:22Z</time>
      </trkpt>
      <trkpt lat="45.54584" lon="2.28964">
        <ele>703</ele>
        <time>2019-05-18T14:24:23Z</time>
      </trkpt>
      <trkpt lat="45.54581" lon="2.28965">
        <ele>704</ele>
        <time>2019-05-18T14:24:24Z</time>
      </trkpt>
      <trkpt lat="45.54579" lon="2.28965">
        <ele>704</ele>
        <time>2019-05-18T14:24:25Z</time>
      </trkpt>
      <trkpt lat="45.54576" lon="2.28964">
        <ele>704</ele>
        <time>2019-05-18T14:24:26Z</time>
      </trkpt>
      <trkpt lat="45.54574" lon="2.28962">
        <ele>704</ele>
        <time>2019-05-18T14:24:27Z</time>
      </trkpt>
      <trkpt lat="45.54571" lon="2.2896">
        <ele>704</ele>
        <time>2019-05-18T14:24:28Z</time>
      </trkpt>
      <trkpt lat="45.54569" lon="2.28957">
        <ele>704</ele>
        <time>2019-05-18T14:24:29Z</time>
      </trkpt>
      <trkpt lat="45.54567" lon="2.28954">
        <ele>704</ele>
        <time>2019-05-18T14:24:30Z</time>
      </trkpt>
      <trkpt lat="45.54565" lon="2.2895">
        <ele>704</ele>
        <time>2019-05-18T14:24:32Z</time>
      </trkpt>
      <trkpt lat="45.54564" lon="2.28947">
        <ele>704</ele>
        <time>2019-05-18T14:24:33Z</time>
      </trkpt>
      <trkpt lat="45.54562" lon="2.28943">
        <ele>704</ele>
        <time>2019-05-18T14:24:34Z</time>
      </trkpt>
      <trkpt lat="45.54561" lon="2.28939">
        <ele>704</ele>
        <time>2019-05-18T14:24:35Z</time>
      </trkpt>
      <trkpt lat="45.54559" lon="2.28935">
        <ele>704</ele>
        <time>2019-05-18T14:24:36Z</time>
      </trkpt>
      <trkpt lat="45.54558" lon="2.28931">
        <ele>704</ele>
        <time>2019-05-18T14:24:37Z</time>
      </trkpt>
      <trkpt lat="45.54556" lon="2.28928">
        <ele>704</ele>
        <time>2019-05-18T14:24:38Z</time>
      </trkpt>
      <trkpt lat="45.54554" lon="2.28923">
        <ele>704</ele>
        <time>2019-05-18T14:24:39Z</time>
      </trkpt>
      <trkpt lat="45.54553" lon="2.28919">
        <ele>704</ele>
        <time>2019-05-18T14:24:40Z</time>
      </trkpt>
      <trkpt lat="45.54552" lon="2.28914">
        <ele>704</ele>
        <time>2019-05-18T14:24:41Z</time>
      </trkpt>
      <trkpt lat="45.54551" lon="2.28911">
        <ele>705</ele>
        <time>2019-05-18T14:24:42Z</time>
      </trkpt>
      <trkpt lat="45.54552" lon="2.28907">
        <ele>705</ele>
        <time>2019-05-18T14:24:43Z</time>
      </trkpt>
      <trkpt lat="45.54552" lon="2.28902">
        <ele>706</ele>
        <time>2019-05-18T14:24:44Z</time>
      </trkpt>
      <trkpt lat="45.5455" lon="2.28898">
        <ele>707</ele>
        <time>2019-05-18T14:24:46Z</time>
      </trkpt>
      <trkpt lat="45.5455" lon="2.28895">
        <ele>707</ele>
        <time>2019-05-18T14:24:47Z</time>
      </trkpt>
      <trkpt lat="45.5455" lon="2.2889">
        <ele>708</ele>
        <time>2019-05-18T14:24:49Z</time>
      </trkpt>
      <trkpt lat="45.5455" lon="2.28887">
        <ele>708</ele>
        <time>2019-05-18T14:24:50Z</time>
      </trkpt>
      <trkpt lat="45.54549" lon="2.28885">
        <ele>708</ele>
        <time>2019-05-18T14:24:51Z</time>
      </trkpt>
      <trkpt lat="45.54549" lon="2.28882">
        <ele>709</ele>
        <time>2019-05-18T14:24:52Z</time>
      </trkpt>
      <trkpt lat="45.54549" lon="2.28879">
        <ele>709</ele>
        <time>2019-05-18T14:24:54Z</time>
      </trkpt>
      <trkpt lat="45.54548" lon="2.28877">
        <ele>709</ele>
        <time>2019-05-18T14:24:55Z</time>
      </trkpt>
      <trkpt lat="45.54547" lon="2.28874">
        <ele>710</ele>
        <time>2019-05-18T14:24:56Z</time>
      </trkpt>
      <trkpt lat="45.54547" lon="2.28871">
        <ele>710</ele>
        <time>2019-05-18T14:24:57Z</time>
      </trkpt>
      <trkpt lat="45.54547" lon="2.28869">
        <ele>710</ele>
        <time>2019-05-18T14:24:58Z</time>
      </trkpt>
      <trkpt lat="45.54547" lon="2.28866">
        <ele>710</ele>
        <time>2019-05-18T14:24:59Z</time>
      </trkpt>
      <trkpt lat="45.54546" lon="2.28864">
        <ele>710</ele>
        <time>2019-05-18T14:25:00Z</time>
      </trkpt>
      <trkpt lat="45.54545" lon="2.28862">
        <ele>711</ele>
        <time>2019-05-18T14:25:01Z</time>
      </trkpt>
      <trkpt lat="45.54543" lon="2.28858">
        <ele>711</ele>
        <time>2019-05-18T14:25:02Z</time>
      </trkpt>
      <trkpt lat="45.5454" lon="2.28853">
        <ele>711</ele>
        <time>2019-05-18T14:25:04Z</time>
      </trkpt>
      <trkpt lat="45.54539" lon="2.28851">
        <ele>712</ele>
        <time>2019-05-18T14:25:06Z</time>
      </trkpt>
      <trkpt lat="45.54538" lon="2.2885">
        <ele>712</ele>
        <time>2019-05-18T14:25:07Z</time>
      </trkpt>
      <trkpt lat="45.54536" lon="2.28846">
        <ele>712</ele>
        <time>2019-05-18T14:25:08Z</time>
      </trkpt>
      <trkpt lat="45.54535" lon="2.28844">
        <ele>712</ele>
        <time>2019-05-18T14:25:09Z</time>
      </trkpt>
      <trkpt lat="45.54534" lon="2.28842">
        <ele>712</ele>
        <time>2019-05-18T14:25:10Z</time>
      </trkpt>
      <trkpt lat="45.54534" lon="2.28839">
        <ele>712</ele>
        <time>2019-05-18T14:25:11Z</time>
      </trkpt>
      <trkpt lat="45.54534" lon="2.28837">
        <ele>713</ele>
        <time>2019-05-18T14:25:12Z</time>
      </trkpt>
      <trkpt lat="45.54533" lon="2.28835">
        <ele>713</ele>
        <time>2019-05-18T14:25:13Z</time>
      </trkpt>
      <trkpt lat="45.54533" lon="2.28832">
        <ele>713</ele>
        <time>2019-05-18T14:25:14Z</time>
      </trkpt>
      <trkpt lat="45.54533" lon="2.2883">
        <ele>713</ele>
        <time>2019-05-18T14:25:15Z</time>
      </trkpt>
      <trkpt lat="45.54533" lon="2.28827">
        <ele>713</ele>
        <time>2019-05-18T14:25:16Z</time>
      </trkpt>
      <trkpt lat="45.54533" lon="2.28824">
        <ele>713</ele>
        <time>2019-05-18T14:25:17Z</time>
      </trkpt>
      <trkpt lat="45.54534" lon="2.28822">
        <ele>713</ele>
        <time>2019-05-18T14:25:18Z</time>
      </trkpt>
      <trkpt lat="45.54534" lon="2.2882">
        <ele>713</ele>
        <time>2019-05-18T14:25:19Z</time>
      </trkpt>
      <trkpt lat="45.54535" lon="2.28817">
        <ele>713</ele>
        <time>2019-05-18T14:25:20Z</time>
      </trkpt>
      <trkpt lat="45.54535" lon="2.28813">
        <ele>713</ele>
        <time>2019-05-18T14:25:21Z</time>
      </trkpt>
      <trkpt lat="45.54534" lon="2.28809">
        <ele>713</ele>
        <time>2019-05-18T14:25:22Z</time>
      </trkpt>
      <trkpt lat="45.54534" lon="2.28806">
        <ele>713</ele>
        <time>2019-05-18T14:25:23Z</time>
      </trkpt>
      <trkpt lat="45.54533" lon="2.28802">
        <ele>713</ele>
        <time>2019-05-18T14:25:24Z</time>
      </trkpt>
      <trkpt lat="45.54533" lon="2.28798">
        <ele>712</ele>
        <time>2019-05-18T14:25:25Z</time>
      </trkpt>
      <trkpt lat="45.54532" lon="2.28794">
        <ele>712</ele>
        <time>2019-05-18T14:25:27Z</time>
      </trkpt>
      <trkpt lat="45.54531" lon="2.28791">
        <ele>712</ele>
        <time>2019-05-18T14:25:28Z</time>
      </trkpt>
      <trkpt lat="45.54529" lon="2.28787">
        <ele>712</ele>
        <time>2019-05-18T14:25:29Z</time>
      </trkpt>
      <trkpt lat="45.54528" lon="2.28785">
        <ele>712</ele>
        <time>2019-05-18T14:25:30Z</time>
      </trkpt>
      <trkpt lat="45.54526" lon="2.28782">
        <ele>712</ele>
        <time>2019-05-18T14:25:31Z</time>
      </trkpt>
      <trkpt lat="45.54524" lon="2.28779">
        <ele>712</ele>
        <time>2019-05-18T14:25:32Z</time>
      </trkpt>
      <trkpt lat="45.54519" lon="2.28774">
        <ele>712</ele>
        <time>2019-05-18T14:25:33Z</time>
      </trkpt>
      <trkpt lat="45.54517" lon="2.28772">
        <ele>712</ele>
        <time>2019-05-18T14:25:34Z</time>
      </trkpt>
      <trkpt lat="45.54514" lon="2.28769">
        <ele>712</ele>
        <time>2019-05-18T14:25:35Z</time>
      </trkpt>
      <trkpt lat="45.54512" lon="2.28767">
        <ele>712</ele>
        <time>2019-05-18T14:25:36Z</time>
      </trkpt>
      <trkpt lat="45.54509" lon="2.28765">
        <ele>712</ele>
        <time>2019-05-18T14:25:37Z</time>
      </trkpt>
      <trkpt lat="45.54506" lon="2.28763">
        <ele>712</ele>
        <time>2019-05-18T14:25:38Z</time>
      </trkpt>
      <trkpt lat="45.54503" lon="2.28761">
        <ele>712</ele>
        <time>2019-05-18T14:25:39Z</time>
      </trkpt>
      <trkpt lat="45.545" lon="2.28758">
        <ele>712</ele>
        <time>2019-05-18T14:25:40Z</time>
      </trkpt>
      <trkpt lat="45.54497" lon="2.28754">
        <ele>711</ele>
        <time>2019-05-18T14:25:41Z</time>
      </trkpt>
      <trkpt lat="45.54495" lon="2.28749">
        <ele>711</ele>
        <time>2019-05-18T14:25:42Z</time>
      </trkpt>
      <trkpt lat="45.54493" lon="2.28744">
        <ele>711</ele>
        <time>2019-05-18T14:25:43Z</time>
      </trkpt>
      <trkpt lat="45.54489" lon="2.28731">
        <ele>710</ele>
        <time>2019-05-18T14:25:45Z</time>
      </trkpt>
      <trkpt lat="45.54488" lon="2.28721">
        <ele>710</ele>
        <time>2019-05-18T14:25:46Z</time>
      </trkpt>
      <trkpt lat="45.54487" lon="2.28713">
        <ele>709</ele>
        <time>2019-05-18T14:25:47Z</time>
      </trkpt>
      <trkpt lat="45.54486" lon="2.28704">
        <ele>708</ele>
        <time>2019-05-18T14:25:48Z</time>
      </trkpt>
      <trkpt lat="45.54486" lon="2.28696">
        <ele>708</ele>
        <time>2019-05-18T14:25:49Z</time>
      </trkpt>
      <trkpt lat="45.54486" lon="2.28688">
        <ele>707</ele>
        <time>2019-05-18T14:25:50Z</time>
      </trkpt>
      <trkpt lat="45.54486" lon="2.28681">
        <ele>707</ele>
        <time>2019-05-18T14:25:51Z</time>
      </trkpt>
      <trkpt lat="45.54485" lon="2.28675">
        <ele>707</ele>
        <time>2019-05-18T14:25:52Z</time>
      </trkpt>
      <trkpt lat="45.54484" lon="2.2867">
        <ele>707</ele>
        <time>2019-05-18T14:25:54Z</time>
      </trkpt>
      <trkpt lat="45.54482" lon="2.28666">
        <ele>706</ele>
        <time>2019-05-18T14:25:55Z</time>
      </trkpt>
      <trkpt lat="45.54481" lon="2.28663">
        <ele>705</ele>
        <time>2019-05-18T14:25:56Z</time>
      </trkpt>
      <trkpt lat="45.54479" lon="2.28659">
        <ele>705</ele>
        <time>2019-05-18T14:25:57Z</time>
      </trkpt>
      <trkpt lat="45.54476" lon="2.28657">
        <ele>705</ele>
        <time>2019-05-18T14:25:58Z</time>
      </trkpt>
      <trkpt lat="45.54473" lon="2.28658">
        <ele>705</ele>
        <time>2019-05-18T14:25:59Z</time>
      </trkpt>
      <trkpt lat="45.54468" lon="2.28662">
        <ele>705</ele>
        <time>2019-05-18T14:26:00Z</time>
      </trkpt>
      <trkpt lat="45.54465" lon="2.28663">
        <ele>705</ele>
        <time>2019-05-18T14:26:01Z</time>
      </trkpt>
      <trkpt lat="45.54463" lon="2.28663">
        <ele>705</ele>
        <time>2019-05-18T14:26:02Z</time>
      </trkpt>
      <trkpt lat="45.5446" lon="2.28663">
        <ele>705</ele>
        <time>2019-05-18T14:26:03Z</time>
      </trkpt>
      <trkpt lat="45.54458" lon="2.28664">
        <ele>706</ele>
        <time>2019-05-18T14:26:04Z</time>
      </trkpt>
      <trkpt lat="45.54455" lon="2.28665">
        <ele>706</ele>
        <time>2019-05-18T14:26:05Z</time>
      </trkpt>
      <trkpt lat="45.54453" lon="2.28665">
        <ele>706</ele>
        <time>2019-05-18T14:26:06Z</time>
      </trkpt>
      <trkpt lat="45.5445" lon="2.28665">
        <ele>707</ele>
        <time>2019-05-18T14:26:07Z</time>
      </trkpt>
      <trkpt lat="45.54446" lon="2.28665">
        <ele>707</ele>
        <time>2019-05-18T14:26:09Z</time>
      </trkpt>
      <trkpt lat="45.5444" lon="2.28665">
        <ele>707</ele>
        <time>2019-05-18T14:26:11Z</time>
      </trkpt>
      <trkpt lat="45.54438" lon="2.28665">
        <ele>707</ele>
        <time>2019-05-18T14:26:12Z</time>
      </trkpt>
      <trkpt lat="45.54436" lon="2.28665">
        <ele>708</ele>
        <time>2019-05-18T14:26:13Z</time>
      </trkpt>
      <trkpt lat="45.54433" lon="2.28665">
        <ele>708</ele>
        <time>2019-05-18T14:26:14Z</time>
      </trkpt>
      <trkpt lat="45.54431" lon="2.28665">
        <ele>708</ele>
        <time>2019-05-18T14:26:15Z</time>
      </trkpt>
      <trkpt lat="45.54428" lon="2.28665">
        <ele>708</ele>
        <time>2019-05-18T14:26:16Z</time>
      </trkpt>
      <trkpt lat="45.54425" lon="2.28665">
        <ele>708</ele>
        <time>2019-05-18T14:26:17Z</time>
      </trkpt>
      <trkpt lat="45.54423" lon="2.28665">
        <ele>708</ele>
        <time>2019-05-18T14:26:18Z</time>
      </trkpt>
      <trkpt lat="45.5442" lon="2.28665">
        <ele>708</ele>
        <time>2019-05-18T14:26:19Z</time>
      </trkpt>
      <trkpt lat="45.54417" lon="2.28664">
        <ele>708</ele>
        <time>2019-05-18T14:26:20Z</time>
      </trkpt>
      <trkpt lat="45.54414" lon="2.28664">
        <ele>708</ele>
        <time>2019-05-18T14:26:21Z</time>
      </trkpt>
      <trkpt lat="45.5441" lon="2.28664">
        <ele>708</ele>
        <time>2019-05-18T14:26:22Z</time>
      </trkpt>
      <trkpt lat="45.54407" lon="2.28663">
        <ele>708</ele>
        <time>2019-05-18T14:26:24Z</time>
      </trkpt>
      <trkpt lat="45.54405" lon="2.28663">
        <ele>708</ele>
        <time>2019-05-18T14:26:25Z</time>
      </trkpt>
      <trkpt lat="45.54402" lon="2.28663">
        <ele>708</ele>
        <time>2019-05-18T14:26:26Z</time>
      </trkpt>
      <trkpt lat="45.54399" lon="2.28662">
        <ele>708</ele>
        <time>2019-05-18T14:26:27Z</time>
      </trkpt>
      <trkpt lat="45.54396" lon="2.28661">
        <ele>708</ele>
        <time>2019-05-18T14:26:28Z</time>
      </trkpt>
      <trkpt lat="45.5439" lon="2.28661">
        <ele>708</ele>
        <time>2019-05-18T14:26:29Z</time>
      </trkpt>
      <trkpt lat="45.54387" lon="2.28661">
        <ele>708</ele>
        <time>2019-05-18T14:26:30Z</time>
      </trkpt>
      <trkpt lat="45.54383" lon="2.28662">
        <ele>709</ele>
        <time>2019-05-18T14:26:31Z</time>
      </trkpt>
      <trkpt lat="45.54381" lon="2.28663">
        <ele>709</ele>
        <time>2019-05-18T14:26:32Z</time>
      </trkpt>
      <trkpt lat="45.54378" lon="2.28663">
        <ele>709</ele>
        <time>2019-05-18T14:26:33Z</time>
      </trkpt>
      <trkpt lat="45.54375" lon="2.28664">
        <ele>709</ele>
        <time>2019-05-18T14:26:34Z</time>
      </trkpt>
      <trkpt lat="45.54372" lon="2.28665">
        <ele>709</ele>
        <time>2019-05-18T14:26:35Z</time>
      </trkpt>
      <trkpt lat="45.54369" lon="2.28666">
        <ele>709</ele>
        <time>2019-05-18T14:26:36Z</time>
      </trkpt>
      <trkpt lat="45.54366" lon="2.28666">
        <ele>709</ele>
        <time>2019-05-18T14:26:37Z</time>
      </trkpt>
      <trkpt lat="45.54363" lon="2.28666">
        <ele>709</ele>
        <time>2019-05-18T14:26:38Z</time>
      </trkpt>
      <trkpt lat="45.5436" lon="2.28667">
        <ele>709</ele>
        <time>2019-05-18T14:26:39Z</time>
      </trkpt>
      <trkpt lat="45.54358" lon="2.28668">
        <ele>709</ele>
        <time>2019-05-18T14:26:40Z</time>
      </trkpt>
      <trkpt lat="45.54355" lon="2.28669">
        <ele>709</ele>
        <time>2019-05-18T14:26:41Z</time>
      </trkpt>
      <trkpt lat="45.54353" lon="2.28671">
        <ele>709</ele>
        <time>2019-05-18T14:26:42Z</time>
      </trkpt>
      <trkpt lat="45.5435" lon="2.28672">
        <ele>709</ele>
        <time>2019-05-18T14:26:43Z</time>
      </trkpt>
      <trkpt lat="45.54348" lon="2.28674">
        <ele>709</ele>
        <time>2019-05-18T14:26:44Z</time>
      </trkpt>
      <trkpt lat="45.54345" lon="2.28676">
        <ele>709</ele>
        <time>2019-05-18T14:26:45Z</time>
      </trkpt>
      <trkpt lat="45.54343" lon="2.28678">
        <ele>709</ele>
        <time>2019-05-18T14:26:46Z</time>
      </trkpt>
      <trkpt lat="45.54339" lon="2.28683">
        <ele>710</ele>
        <time>2019-05-18T14:26:48Z</time>
      </trkpt>
      <trkpt lat="45.54334" lon="2.28686">
        <ele>710</ele>
        <time>2019-05-18T14:26:50Z</time>
      </trkpt>
      <trkpt lat="45.5433" lon="2.2869">
        <ele>710</ele>
        <time>2019-05-18T14:26:52Z</time>
      </trkpt>
      <trkpt lat="45.54328" lon="2.28692">
        <ele>710</ele>
        <time>2019-05-18T14:26:53Z</time>
      </trkpt>
      <trkpt lat="45.54327" lon="2.28694">
        <ele>711</ele>
        <time>2019-05-18T14:26:54Z</time>
      </trkpt>
      <trkpt lat="45.54325" lon="2.28697">
        <ele>711</ele>
        <time>2019-05-18T14:26:55Z</time>
      </trkpt>
      <trkpt lat="45.54324" lon="2.28701">
        <ele>711</ele>
        <time>2019-05-18T14:26:56Z</time>
      </trkpt>
      <trkpt lat="45.54324" lon="2.28705">
        <ele>711</ele>
        <time>2019-05-18T14:26:57Z</time>
      </trkpt>
      <trkpt lat="45.54323" lon="2.28709">
        <ele>712</ele>
        <time>2019-05-18T14:26:58Z</time>
      </trkpt>
      <trkpt lat="45.54321" lon="2.28712">
        <ele>712</ele>
        <time>2019-05-18T14:26:59Z</time>
      </trkpt>
      <trkpt lat="45.5432" lon="2.28715">
        <ele>713</ele>
        <time>2019-05-18T14:27:00Z</time>
      </trkpt>
      <trkpt lat="45.54319" lon="2.28719">
        <ele>713</ele>
        <time>2019-05-18T14:27:02Z</time>
      </trkpt>
      <trkpt lat="45.54318" lon="2.28722">
        <ele>713</ele>
        <time>2019-05-18T14:27:03Z</time>
      </trkpt>
      <trkpt lat="45.54317" lon="2.28724">
        <ele>713</ele>
        <time>2019-05-18T14:27:04Z</time>
      </trkpt>
      <trkpt lat="45.54313" lon="2.28728">
        <ele>713</ele>
        <time>2019-05-18T14:27:05Z</time>
      </trkpt>
      <trkpt lat="45.54311" lon="2.2873">
        <ele>714</ele>
        <time>2019-05-18T14:27:06Z</time>
      </trkpt>
      <trkpt lat="45.54309" lon="2.28732">
        <ele>714</ele>
        <time>2019-05-18T14:27:07Z</time>
      </trkpt>
      <trkpt lat="45.54307" lon="2.28735">
        <ele>714</ele>
        <time>2019-05-18T14:27:08Z</time>
      </trkpt>
      <trkpt lat="45.54304" lon="2.28737">
        <ele>714</ele>
        <time>2019-05-18T14:27:09Z</time>
      </trkpt>
      <trkpt lat="45.54302" lon="2.2874">
        <ele>714</ele>
        <time>2019-05-18T14:27:10Z</time>
      </trkpt>
      <trkpt lat="45.543" lon="2.28743">
        <ele>714</ele>
        <time>2019-05-18T14:27:11Z</time>
      </trkpt>
      <trkpt lat="45.54298" lon="2.28745">
        <ele>714</ele>
        <time>2019-05-18T14:27:12Z</time>
      </trkpt>
      <trkpt lat="45.54296" lon="2.28746">
        <ele>714</ele>
        <time>2019-05-18T14:27:13Z</time>
      </trkpt>
      <trkpt lat="45.54293" lon="2.28746">
        <ele>714</ele>
        <time>2019-05-18T14:27:14Z</time>
      </trkpt>
      <trkpt lat="45.54289" lon="2.28746">
        <ele>714</ele>
        <time>2019-05-18T14:27:15Z</time>
      </trkpt>
      <trkpt lat="45.54287" lon="2.28745">
        <ele>714</ele>
        <time>2019-05-18T14:27:16Z</time>
      </trkpt>
      <trkpt lat="45.54284" lon="2.28744">
        <ele>714</ele>
        <time>2019-05-18T14:27:17Z</time>
      </trkpt>
      <trkpt lat="45.54281" lon="2.28742">
        <ele>714</ele>
        <time>2019-05-18T14:27:18Z</time>
      </trkpt>
      <trkpt lat="45.54279" lon="2.28741">
        <ele>714</ele>
        <time>2019-05-18T14:27:19Z</time>
      </trkpt>
      <trkpt lat="45.54277" lon="2.28739">
        <ele>714</ele>
        <time>2019-05-18T14:27:20Z</time>
      </trkpt>
      <trkpt lat="45.54272" lon="2.28734">
        <ele>714</ele>
        <time>2019-05-18T14:27:22Z</time>
      </trkpt>
      <trkpt lat="45.5427" lon="2.28732">
        <ele>714</ele>
        <time>2019-05-18T14:27:23Z</time>
      </trkpt>
      <trkpt lat="45.54268" lon="2.28729">
        <ele>714</ele>
        <time>2019-05-18T14:27:24Z</time>
      </trkpt>
      <trkpt lat="45.54266" lon="2.28727">
        <ele>714</ele>
        <time>2019-05-18T14:27:25Z</time>
      </trkpt>
      <trkpt lat="45.54264" lon="2.28724">
        <ele>714</ele>
        <time>2019-05-18T14:27:26Z</time>
      </trkpt>
      <trkpt lat="45.5426" lon="2.2872">
        <ele>714</ele>
        <time>2019-05-18T14:27:27Z</time>
      </trkpt>
      <trkpt lat="45.54256" lon="2.28716">
        <ele>713</ele>
        <time>2019-05-18T14:27:28Z</time>
      </trkpt>
      <trkpt lat="45.54251" lon="2.2871">
        <ele>712</ele>
        <time>2019-05-18T14:27:29Z</time>
      </trkpt>
      <trkpt lat="45.54247" lon="2.28703">
        <ele>712</ele>
        <time>2019-05-18T14:27:30Z</time>
      </trkpt>
      <trkpt lat="45.54244" lon="2.28696">
        <ele>712</ele>
        <time>2019-05-18T14:27:31Z</time>
      </trkpt>
      <trkpt lat="45.54241" lon="2.28689">
        <ele>711</ele>
        <time>2019-05-18T14:27:32Z</time>
      </trkpt>
      <trkpt lat="45.54238" lon="2.28682">
        <ele>711</ele>
        <time>2019-05-18T14:27:33Z</time>
      </trkpt>
      <trkpt lat="45.54236" lon="2.28678">
        <ele>711</ele>
        <time>2019-05-18T14:27:34Z</time>
      </trkpt>
      <trkpt lat="45.54234" lon="2.28673">
        <ele>711</ele>
        <time>2019-05-18T14:27:36Z</time>
      </trkpt>
      <trkpt lat="45.54231" lon="2.28663">
        <ele>711</ele>
        <time>2019-05-18T14:27:37Z</time>
      </trkpt>
      <trkpt lat="45.5423" lon="2.28658">
        <ele>711</ele>
        <time>2019-05-18T14:27:38Z</time>
      </trkpt>
      <trkpt lat="45.54229" lon="2.28653">
        <ele>711</ele>
        <time>2019-05-18T14:27:39Z</time>
      </trkpt>
      <trkpt lat="45.54228" lon="2.28649">
        <ele>712</ele>
        <time>2019-05-18T14:27:40Z</time>
      </trkpt>
      <trkpt lat="45.54227" lon="2.28646">
        <ele>712</ele>
        <time>2019-05-18T14:27:41Z</time>
      </trkpt>
      <trkpt lat="45.54226" lon="2.28642">
        <ele>712</ele>
        <time>2019-05-18T14:27:42Z</time>
      </trkpt>
      <trkpt lat="45.54225" lon="2.28638">
        <ele>712</ele>
        <time>2019-05-18T14:27:43Z</time>
      </trkpt>
      <trkpt lat="45.54224" lon="2.28634">
        <ele>712</ele>
        <time>2019-05-18T14:27:44Z</time>
      </trkpt>
      <trkpt lat="45.54222" lon="2.28631">
        <ele>712</ele>
        <time>2019-05-18T14:27:45Z</time>
      </trkpt>
      <trkpt lat="45.5422" lon="2.28628">
        <ele>712</ele>
        <time>2019-05-18T14:27:46Z</time>
      </trkpt>
      <trkpt lat="45.54218" lon="2.28625">
        <ele>712</ele>
        <time>2019-05-18T14:27:47Z</time>
      </trkpt>
      <trkpt lat="45.54215" lon="2.28623">
        <ele>712</ele>
        <time>2019-05-18T14:27:48Z</time>
      </trkpt>
      <trkpt lat="45.5421" lon="2.28619">
        <ele>712</ele>
        <time>2019-05-18T14:27:50Z</time>
      </trkpt>
      <trkpt lat="45.54207" lon="2.28617">
        <ele>713</ele>
        <time>2019-05-18T14:27:51Z</time>
      </trkpt>
      <trkpt lat="45.54205" lon="2.28615">
        <ele>713</ele>
        <time>2019-05-18T14:27:52Z</time>
      </trkpt>
      <trkpt lat="45.54202" lon="2.28614">
        <ele>713</ele>
        <time>2019-05-18T14:27:53Z</time>
      </trkpt>
      <trkpt lat="45.542" lon="2.28612">
        <ele>713</ele>
        <time>2019-05-18T14:27:54Z</time>
      </trkpt>
      <trkpt lat="45.54198" lon="2.28611">
        <ele>714</ele>
        <time>2019-05-18T14:27:55Z</time>
      </trkpt>
      <trkpt lat="45.54195" lon="2.2861">
        <ele>714</ele>
        <time>2019-05-18T14:27:56Z</time>
      </trkpt>
      <trkpt lat="45.54193" lon="2.28608">
        <ele>714</ele>
        <time>2019-05-18T14:27:57Z</time>
      </trkpt>
      <trkpt lat="45.54191" lon="2.28606">
        <ele>714</ele>
        <time>2019-05-18T14:27:58Z</time>
      </trkpt>
      <trkpt lat="45.54188" lon="2.28604">
        <ele>714</ele>
        <time>2019-05-18T14:27:59Z</time>
      </trkpt>
      <trkpt lat="45.54186" lon="2.28602">
        <ele>715</ele>
        <time>2019-05-18T14:28:00Z</time>
      </trkpt>
      <trkpt lat="45.54184" lon="2.286">
        <ele>715</ele>
        <time>2019-05-18T14:28:01Z</time>
      </trkpt>
      <trkpt lat="45.54182" lon="2.28598">
        <ele>715</ele>
        <time>2019-05-18T14:28:02Z</time>
      </trkpt>
      <trkpt lat="45.5418" lon="2.28596">
        <ele>715</ele>
        <time>2019-05-18T14:28:03Z</time>
      </trkpt>
      <trkpt lat="45.54175" lon="2.28592">
        <ele>715</ele>
        <time>2019-05-18T14:28:05Z</time>
      </trkpt>
      <trkpt lat="45.54173" lon="2.28589">
        <ele>715</ele>
        <time>2019-05-18T14:28:06Z</time>
      </trkpt>
      <trkpt lat="45.54171" lon="2.28586">
        <ele>715</ele>
        <time>2019-05-18T14:28:07Z</time>
      </trkpt>
      <trkpt lat="45.54169" lon="2.28584">
        <ele>716</ele>
        <time>2019-05-18T14:28:08Z</time>
      </trkpt>
      <trkpt lat="45.54167" lon="2.2858">
        <ele>716</ele>
        <time>2019-05-18T14:28:09Z</time>
      </trkpt>
      <trkpt lat="45.54166" lon="2.28576">
        <ele>715</ele>
        <time>2019-05-18T14:28:10Z</time>
      </trkpt>
      <trkpt lat="45.54164" lon="2.28572">
        <ele>715</ele>
        <time>2019-05-18T14:28:11Z</time>
      </trkpt>
      <trkpt lat="45.54162" lon="2.28568">
        <ele>715</ele>
        <time>2019-05-18T14:28:12Z</time>
      </trkpt>
      <trkpt lat="45.5416" lon="2.28563">
        <ele>715</ele>
        <time>2019-05-18T14:28:13Z</time>
      </trkpt>
      <trkpt lat="45.54159" lon="2.2856">
        <ele>715</ele>
        <time>2019-05-18T14:28:14Z</time>
      </trkpt>
      <trkpt lat="45.54157" lon="2.28555">
        <ele>715</ele>
        <time>2019-05-18T14:28:15Z</time>
      </trkpt>
      <trkpt lat="45.54155" lon="2.28552">
        <ele>715</ele>
        <time>2019-05-18T14:28:16Z</time>
      </trkpt>
      <trkpt lat="45.54153" lon="2.28548">
        <ele>715</ele>
        <time>2019-05-18T14:28:17Z</time>
      </trkpt>
      <trkpt lat="45.54151" lon="2.28545">
        <ele>715</ele>
        <time>2019-05-18T14:28:18Z</time>
      </trkpt>
      <trkpt lat="45.54149" lon="2.28541">
        <ele>716</ele>
        <time>2019-05-18T14:28:19Z</time>
      </trkpt>
      <trkpt lat="45.54147" lon="2.28538">
        <ele>716</ele>
        <time>2019-05-18T14:28:20Z</time>
      </trkpt>
      <trkpt lat="45.54146" lon="2.28534">
        <ele>716</ele>
        <time>2019-05-18T14:28:21Z</time>
      </trkpt>
      <trkpt lat="45.54145" lon="2.28531">
        <ele>716</ele>
        <time>2019-05-18T14:28:22Z</time>
      </trkpt>
      <trkpt lat="45.54143" lon="2.28528">
        <ele>717</ele>
        <time>2019-05-18T14:28:23Z</time>
      </trkpt>
      <trkpt lat="45.54141" lon="2.28526">
        <ele>717</ele>
        <time>2019-05-18T14:28:24Z</time>
      </trkpt>
      <trkpt lat="45.54139" lon="2.28524">
        <ele>717</ele>
        <time>2019-05-18T14:28:25Z</time>
      </trkpt>
      <trkpt lat="45.54137" lon="2.28523">
        <ele>717</ele>
        <time>2019-05-18T14:28:26Z</time>
      </trkpt>
      <trkpt lat="45.54136" lon="2.2852">
        <ele>717</ele>
        <time>2019-05-18T14:28:27Z</time>
      </trkpt>
      <trkpt lat="45.54133" lon="2.28515">
        <ele>718</ele>
        <time>2019-05-18T14:28:29Z</time>
      </trkpt>
      <trkpt lat="45.54131" lon="2.28512">
        <ele>718</ele>
        <time>2019-05-18T14:28:30Z</time>
      </trkpt>
      <trkpt lat="45.54129" lon="2.28509">
        <ele>718</ele>
        <time>2019-05-18T14:28:31Z</time>
      </trkpt>
      <trkpt lat="45.54127" lon="2.28506">
        <ele>718</ele>
        <time>2019-05-18T14:28:32Z</time>
      </trkpt>
      <trkpt lat="45.54125" lon="2.28503">
        <ele>718</ele>
        <time>2019-05-18T14:28:33Z</time>
      </trkpt>
      <trkpt lat="45.54123" lon="2.28499">
        <ele>718</ele>
        <time>2019-05-18T14:28:34Z</time>
      </trkpt>
      <trkpt lat="45.54122" lon="2.28496">
        <ele>718</ele>
        <time>2019-05-18T14:28:35Z</time>
      </trkpt>
      <trkpt lat="45.5412" lon="2.28494">
        <ele>718</ele>
        <time>2019-05-18T14:28:36Z</time>
      </trkpt>
      <trkpt lat="45.54118" lon="2.2849">
        <ele>718</ele>
        <time>2019-05-18T14:28:37Z</time>
      </trkpt>
      <trkpt lat="45.54116" lon="2.28488">
        <ele>718</ele>
        <time>2019-05-18T14:28:38Z</time>
      </trkpt>
      <trkpt lat="45.54114" lon="2.28484">
        <ele>718</ele>
        <time>2019-05-18T14:28:39Z</time>
      </trkpt>
      <trkpt lat="45.54112" lon="2.28481">
        <ele>718</ele>
        <time>2019-05-18T14:28:40Z</time>
      </trkpt>
      <trkpt lat="45.5411" lon="2.28477">
        <ele>718</ele>
        <time>2019-05-18T14:28:41Z</time>
      </trkpt>
      <trkpt lat="45.54107" lon="2.28473">
        <ele>717</ele>
        <time>2019-05-18T14:28:42Z</time>
      </trkpt>
      <trkpt lat="45.54105" lon="2.28469">
        <ele>717</ele>
        <time>2019-05-18T14:28:43Z</time>
      </trkpt>
      <trkpt lat="45.54103" lon="2.28464">
        <ele>717</ele>
        <time>2019-05-18T14:28:44Z</time>
      </trkpt>
      <trkpt lat="45.54101" lon="2.28459">
        <ele>717</ele>
        <time>2019-05-18T14:28:45Z</time>
      </trkpt>
      <trkpt lat="45.541" lon="2.28452">
        <ele>717</ele>
        <time>2019-05-18T14:28:46Z</time>
      </trkpt>
      <trkpt lat="45.541" lon="2.28446">
        <ele>717</ele>
        <time>2019-05-18T14:28:47Z</time>
      </trkpt>
      <trkpt lat="45.54101" lon="2.28441">
        <ele>717</ele>
        <time>2019-05-18T14:28:48Z</time>
      </trkpt>
      <trkpt lat="45.54103" lon="2.28436">
        <ele>717</ele>
        <time>2019-05-18T14:28:49Z</time>
      </trkpt>
      <trkpt lat="45.54105" lon="2.28431">
        <ele>716</ele>
        <time>2019-05-18T14:28:50Z</time>
      </trkpt>
      <trkpt lat="45.54107" lon="2.28427">
        <ele>717</ele>
        <time>2019-05-18T14:28:51Z</time>
      </trkpt>
      <trkpt lat="45.5411" lon="2.28423">
        <ele>717</ele>
        <time>2019-05-18T14:28:52Z</time>
      </trkpt>
      <trkpt lat="45.54112" lon="2.2842">
        <ele>717</ele>
        <time>2019-05-18T14:28:53Z</time>
      </trkpt>
      <trkpt lat="45.54115" lon="2.28418">
        <ele>717</ele>
        <time>2019-05-18T14:28:54Z</time>
      </trkpt>
      <trkpt lat="45.54119" lon="2.28417">
        <ele>717</ele>
        <time>2019-05-18T14:28:55Z</time>
      </trkpt>
      <trkpt lat="45.54122" lon="2.28415">
        <ele>716</ele>
        <time>2019-05-18T14:28:56Z</time>
      </trkpt>
      <trkpt lat="45.54126" lon="2.28414">
        <ele>716</ele>
        <time>2019-05-18T14:28:57Z</time>
      </trkpt>
      <trkpt lat="45.5413" lon="2.28413">
        <ele>717</ele>
        <time>2019-05-18T14:28:58Z</time>
      </trkpt>
      <trkpt lat="45.54133" lon="2.28414">
        <ele>717</ele>
        <time>2019-05-18T14:28:59Z</time>
      </trkpt>
      <trkpt lat="45.54136" lon="2.28415">
        <ele>717</ele>
        <time>2019-05-18T14:29:00Z</time>
      </trkpt>
      <trkpt lat="45.54139" lon="2.28417">
        <ele>717</ele>
        <time>2019-05-18T14:29:01Z</time>
      </trkpt>
      <trkpt lat="45.54141" lon="2.28418">
        <ele>717</ele>
        <time>2019-05-18T14:29:02Z</time>
      </trkpt>
      <trkpt lat="45.54144" lon="2.2842">
        <ele>718</ele>
        <time>2019-05-18T14:29:03Z</time>
      </trkpt>
      <trkpt lat="45.54146" lon="2.28423">
        <ele>718</ele>
        <time>2019-05-18T14:29:04Z</time>
      </trkpt>
      <trkpt lat="45.54148" lon="2.28425">
        <ele>718</ele>
        <time>2019-05-18T14:29:05Z</time>
      </trkpt>
      <trkpt lat="45.54152" lon="2.28429">
        <ele>718</ele>
        <time>2019-05-18T14:29:07Z</time>
      </trkpt>
      <trkpt lat="45.54155" lon="2.28431">
        <ele>718</ele>
        <time>2019-05-18T14:29:08Z</time>
      </trkpt>
      <trkpt lat="45.54158" lon="2.28433">
        <ele>718</ele>
        <time>2019-05-18T14:29:09Z</time>
      </trkpt>
      <trkpt lat="45.5416" lon="2.28436">
        <ele>718</ele>
        <time>2019-05-18T14:29:10Z</time>
      </trkpt>
      <trkpt lat="45.54163" lon="2.28439">
        <ele>718</ele>
        <time>2019-05-18T14:29:11Z</time>
      </trkpt>
      <trkpt lat="45.54165" lon="2.28443">
        <ele>718</ele>
        <time>2019-05-18T14:29:12Z</time>
      </trkpt>
      <trkpt lat="45.54168" lon="2.28449">
        <ele>717</ele>
        <time>2019-05-18T14:29:13Z</time>
      </trkpt>
      <trkpt lat="45.54172" lon="2.28454">
        <ele>717</ele>
        <time>2019-05-18T14:29:14Z</time>
      </trkpt>
      <trkpt lat="45.54178" lon="2.28458">
        <ele>716</ele>
        <time>2019-05-18T14:29:15Z</time>
      </trkpt>
      <trkpt lat="45.54184" lon="2.2846">
        <ele>715</ele>
        <time>2019-05-18T14:29:16Z</time>
      </trkpt>
      <trkpt lat="45.5419" lon="2.28462">
        <ele>715</ele>
        <time>2019-05-18T14:29:17Z</time>
      </trkpt>
      <trkpt lat="45.54194" lon="2.28461">
        <ele>715</ele>
        <time>2019-05-18T14:29:18Z</time>
      </trkpt>
      <trkpt lat="45.54201" lon="2.28461">
        <ele>714</ele>
        <time>2019-05-18T14:29:19Z</time>
      </trkpt>
      <trkpt lat="45.54206" lon="2.28461">
        <ele>714</ele>
        <time>2019-05-18T14:29:20Z</time>
      </trkpt>
      <trkpt lat="45.54213" lon="2.28462">
        <ele>713</ele>
        <time>2019-05-18T14:29:21Z</time>
      </trkpt>
      <trkpt lat="45.5422" lon="2.28463">
        <ele>712</ele>
        <time>2019-05-18T14:29:22Z</time>
      </trkpt>
      <trkpt lat="45.54228" lon="2.28465">
        <ele>712</ele>
        <time>2019-05-18T14:29:23Z</time>
      </trkpt>
      <trkpt lat="45.54235" lon="2.28466">
        <ele>711</ele>
        <time>2019-05-18T14:29:24Z</time>
      </trkpt>
      <trkpt lat="45.54242" lon="2.28468">
        <ele>711</ele>
        <time>2019-05-18T14:29:25Z</time>
      </trkpt>
      <trkpt lat="45.54249" lon="2.28471">
        <ele>711</ele>
        <time>2019-05-18T14:29:26Z</time>
      </trkpt>
      <trkpt lat="45.54257" lon="2.28472">
        <ele>710</ele>
        <time>2019-05-18T14:29:27Z</time>
      </trkpt>
      <trkpt lat="45.54263" lon="2.28474">
        <ele>710</ele>
        <time>2019-05-18T14:29:28Z</time>
      </trkpt>
      <trkpt lat="45.5427" lon="2.28476">
        <ele>710</ele>
        <time>2019-05-18T14:29:29Z</time>
      </trkpt>
      <trkpt lat="45.54277" lon="2.28476">
        <ele>709</ele>
        <time>2019-05-18T14:29:30Z</time>
      </trkpt>
      <trkpt lat="45.54284" lon="2.28477">
        <ele>709</ele>
        <time>2019-05-18T14:29:31Z</time>
      </trkpt>
      <trkpt lat="45.54289" lon="2.28478">
        <ele>709</ele>
        <time>2019-05-18T14:29:32Z</time>
      </trkpt>
      <trkpt lat="45.54293" lon="2.28481">
        <ele>709</ele>
        <time>2019-05-18T14:29:33Z</time>
      </trkpt>
      <trkpt lat="45.54297" lon="2.28484">
        <ele>708</ele>
        <time>2019-05-18T14:29:34Z</time>
      </trkpt>
      <trkpt lat="45.54302" lon="2.28484">
        <ele>708</ele>
        <time>2019-05-18T14:29:35Z</time>
      </trkpt>
      <trkpt lat="45.54308" lon="2.28484">
        <ele>708</ele>
        <time>2019-05-18T14:29:36Z</time>
      </trkpt>
      <trkpt lat="45.54314" lon="2.28481">
        <ele>708</ele>
        <time>2019-05-18T14:29:37Z</time>
      </trkpt>
      <trkpt lat="45.54318" lon="2.28475">
        <ele>708</ele>
        <time>2019-05-18T14:29:38Z</time>
      </trkpt>
      <trkpt lat="45.54323" lon="2.2847">
        <ele>709</ele>
        <time>2019-05-18T14:29:39Z</time>
      </trkpt>
      <trkpt lat="45.54326" lon="2.28467">
        <ele>709</ele>
        <time>2019-05-18T14:29:40Z</time>
      </trkpt>
      <trkpt lat="45.54329" lon="2.28464">
        <ele>710</ele>
        <time>2019-05-18T14:29:41Z</time>
      </trkpt>
      <trkpt lat="45.54331" lon="2.28461">
        <ele>710</ele>
        <time>2019-05-18T14:29:42Z</time>
      </trkpt>
      <trkpt lat="45.54333" lon="2.28458">
        <ele>710</ele>
        <time>2019-05-18T14:29:43Z</time>
      </trkpt>
      <trkpt lat="45.54336" lon="2.28454">
        <ele>710</ele>
        <time>2019-05-18T14:29:44Z</time>
      </trkpt>
      <trkpt lat="45.5434" lon="2.28451">
        <ele>710</ele>
        <time>2019-05-18T14:29:45Z</time>
      </trkpt>
      <trkpt lat="45.54342" lon="2.28448">
        <ele>710</ele>
        <time>2019-05-18T14:29:46Z</time>
      </trkpt>
      <trkpt lat="45.54344" lon="2.28445">
        <ele>710</ele>
        <time>2019-05-18T14:29:47Z</time>
      </trkpt>
      <trkpt lat="45.54347" lon="2.28442">
        <ele>711</ele>
        <time>2019-05-18T14:29:48Z</time>
      </trkpt>
      <trkpt lat="45.54349" lon="2.28438">
        <ele>711</ele>
        <time>2019-05-18T14:29:49Z</time>
      </trkpt>
      <trkpt lat="45.54352" lon="2.28434">
        <ele>711</ele>
        <time>2019-05-18T14:29:50Z</time>
      </trkpt>
      <trkpt lat="45.54354" lon="2.2843">
        <ele>711</ele>
        <time>2019-05-18T14:29:51Z</time>
      </trkpt>
      <trkpt lat="45.54356" lon="2.28426">
        <ele>711</ele>
        <time>2019-05-18T14:29:52Z</time>
      </trkpt>
      <trkpt lat="45.54358" lon="2.28422">
        <ele>711</ele>
        <time>2019-05-18T14:29:53Z</time>
      </trkpt>
      <trkpt lat="45.5436" lon="2.28419">
        <ele>711</ele>
        <time>2019-05-18T14:29:54Z</time>
      </trkpt>
      <trkpt lat="45.54362" lon="2.28416">
        <ele>711</ele>
        <time>2019-05-18T14:29:55Z</time>
      </trkpt>
      <trkpt lat="45.54364" lon="2.28413">
        <ele>711</ele>
        <time>2019-05-18T14:29:56Z</time>
      </trkpt>
      <trkpt lat="45.54365" lon="2.28409">
        <ele>712</ele>
        <time>2019-05-18T14:29:57Z</time>
      </trkpt>
      <trkpt lat="45.54367" lon="2.28406">
        <ele>712</ele>
        <time>2019-05-18T14:29:58Z</time>
      </trkpt>
      <trkpt lat="45.54369" lon="2.28403">
        <ele>712</ele>
        <time>2019-05-18T14:29:59Z</time>
      </trkpt>
      <trkpt lat="45.54371" lon="2.28399">
        <ele>712</ele>
        <time>2019-05-18T14:30:00Z</time>
      </trkpt>
      <trkpt lat="45.54372" lon="2.28396">
        <ele>712</ele>
        <time>2019-05-18T14:30:01Z</time>
      </trkpt>
      <trkpt lat="45.54373" lon="2.28392">
        <ele>712</ele>
        <time>2019-05-18T14:30:02Z</time>
      </trkpt>
      <trkpt lat="45.54374" lon="2.28387">
        <ele>712</ele>
        <time>2019-05-18T14:30:03Z</time>
      </trkpt>
      <trkpt lat="45.54375" lon="2.28383">
        <ele>712</ele>
        <time>2019-05-18T14:30:04Z</time>
      </trkpt>
      <trkpt lat="45.54375" lon="2.28378">
        <ele>712</ele>
        <time>2019-05-18T14:30:05Z</time>
      </trkpt>
      <trkpt lat="45.54376" lon="2.28374">
        <ele>712</ele>
        <time>2019-05-18T14:30:06Z</time>
      </trkpt>
      <trkpt lat="45.54376" lon="2.2837">
        <ele>712</ele>
        <time>2019-05-18T14:30:07Z</time>
      </trkpt>
      <trkpt lat="45.54376" lon="2.28366">
        <ele>713</ele>
        <time>2019-05-18T14:30:08Z</time>
      </trkpt>
      <trkpt lat="45.54375" lon="2.28361">
        <ele>713</ele>
        <time>2019-05-18T14:30:09Z</time>
      </trkpt>
      <trkpt lat="45.54375" lon="2.28357">
        <ele>713</ele>
        <time>2019-05-18T14:30:10Z</time>
      </trkpt>
      <trkpt lat="45.54375" lon="2.28354">
        <ele>713</ele>
        <time>2019-05-18T14:30:11Z</time>
      </trkpt>
      <trkpt lat="45.54374" lon="2.2835">
        <ele>713</ele>
        <time>2019-05-18T14:30:12Z</time>
      </trkpt>
      <trkpt lat="45.54373" lon="2.28346">
        <ele>713</ele>
        <time>2019-05-18T14:30:13Z</time>
      </trkpt>
      <trkpt lat="45.54372" lon="2.28342">
        <ele>713</ele>
        <time>2019-05-18T14:30:14Z</time>
      </trkpt>
      <trkpt lat="45.54372" lon="2.28339">
        <ele>713</ele>
        <time>2019-05-18T14:30:15Z</time>
      </trkpt>
      <trkpt lat="45.54371" lon="2.28336">
        <ele>714</ele>
        <time>2019-05-18T14:30:16Z</time>
      </trkpt>
      <trkpt lat="45.54369" lon="2.28333">
        <ele>714</ele>
        <time>2019-05-18T14:30:17Z</time>
      </trkpt>
      <trkpt lat="45.54368" lon="2.28331">
        <ele>714</ele>
        <time>2019-05-18T14:30:18Z</time>
      </trkpt>
      <trkpt lat="45.54367" lon="2.28329">
        <ele>715</ele>
        <time>2019-05-18T14:30:19Z</time>
      </trkpt>
      <trkpt lat="45.54366" lon="2.28327">
        <ele>715</ele>
        <time>2019-05-18T14:30:20Z</time>
      </trkpt>
      <trkpt lat="45.54365" lon="2.28326">
        <ele>716</ele>
        <time>2019-05-18T14:30:21Z</time>
      </trkpt>
      <trkpt lat="45.54363" lon="2.28324">
        <ele>716</ele>
        <time>2019-05-18T14:30:22Z</time>
      </trkpt>
      <trkpt lat="45.54362" lon="2.28322">
        <ele>716</ele>
        <time>2019-05-18T14:30:23Z</time>
      </trkpt>
      <trkpt lat="45.5436" lon="2.2832">
        <ele>717</ele>
        <time>2019-05-18T14:30:24Z</time>
      </trkpt>
      <trkpt lat="45.54359" lon="2.28318">
        <ele>717</ele>
        <time>2019-05-18T14:30:25Z</time>
      </trkpt>
      <trkpt lat="45.54357" lon="2.28316">
        <ele>717</ele>
        <time>2019-05-18T14:30:26Z</time>
      </trkpt>
      <trkpt lat="45.54356" lon="2.28314">
        <ele>717</ele>
        <time>2019-05-18T14:30:27Z</time>
      </trkpt>
      <trkpt lat="45.54354" lon="2.28312">
        <ele>718</ele>
        <time>2019-05-18T14:30:28Z</time>
      </trkpt>
      <trkpt lat="45.54353" lon="2.28309">
        <ele>718</ele>
        <time>2019-05-18T14:30:29Z</time>
      </trkpt>
      <trkpt lat="45.54352" lon="2.28308">
        <ele>718</ele>
        <time>2019-05-18T14:30:30Z</time>
      </trkpt>
      <trkpt lat="45.5435" lon="2.28306">
        <ele>718</ele>
        <time>2019-05-18T14:30:31Z</time>
      </trkpt>
      <trkpt lat="45.54348" lon="2.28304">
        <ele>719</ele>
        <time>2019-05-18T14:30:32Z</time>
      </trkpt>
      <trkpt lat="45.54346" lon="2.28302">
        <ele>719</ele>
        <time>2019-05-18T14:30:33Z</time>
      </trkpt>
      <trkpt lat="45.54344" lon="2.28301">
        <ele>719</ele>
        <time>2019-05-18T14:30:34Z</time>
      </trkpt>
      <trkpt lat="45.54342" lon="2.283">
        <ele>719</ele>
        <time>2019-05-18T14:30:35Z</time>
      </trkpt>
      <trkpt lat="45.5434" lon="2.28299">
        <ele>719</ele>
        <time>2019-05-18T14:30:36Z</time>
      </trkpt>
      <trkpt lat="45.54338" lon="2.28298">
        <ele>720</ele>
        <time>2019-05-18T14:30:37Z</time>
      </trkpt>
      <trkpt lat="45.54337" lon="2.28296">
        <ele>720</ele>
        <time>2019-05-18T14:30:38Z</time>
      </trkpt>
      <trkpt lat="45.54335" lon="2.28295">
        <ele>720</ele>
        <time>2019-05-18T14:30:39Z</time>
      </trkpt>
      <trkpt lat="45.54333" lon="2.28294">
        <ele>720</ele>
        <time>2019-05-18T14:30:40Z</time>
      </trkpt>
      <trkpt lat="45.5433" lon="2.28293">
        <ele>720</ele>
        <time>2019-05-18T14:30:41Z</time>
      </trkpt>
      <trkpt lat="45.54328" lon="2.28292">
        <ele>720</ele>
        <time>2019-05-18T14:30:42Z</time>
      </trkpt>
      <trkpt lat="45.54326" lon="2.28291">
        <ele>720</ele>
        <time>2019-05-18T14:30:43Z</time>
      </trkpt>
      <trkpt lat="45.54325" lon="2.2829">
        <ele>720</ele>
        <time>2019-05-18T14:30:44Z</time>
      </trkpt>
      <trkpt lat="45.54322" lon="2.28289">
        <ele>720</ele>
        <time>2019-05-18T14:30:45Z</time>
      </trkpt>
      <trkpt lat="45.5432" lon="2.28288">
        <ele>721</ele>
        <time>2019-05-18T14:30:46Z</time>
      </trkpt>
      <trkpt lat="45.54318" lon="2.28288">
        <ele>721</ele>
        <time>2019-05-18T14:30:47Z</time>
      </trkpt>
      <trkpt lat="45.54316" lon="2.28288">
        <ele>721</ele>
        <time>2019-05-18T14:30:48Z</time>
      </trkpt>
      <trkpt lat="45.54315" lon="2.2829">
        <ele>721</ele>
        <time>2019-05-18T14:30:49Z</time>
      </trkpt>
      <trkpt lat="45.54313" lon="2.28291">
        <ele>721</ele>
        <time>2019-05-18T14:30:50Z</time>
      </trkpt>
      <trkpt lat="45.54311" lon="2.28292">
        <ele>722</ele>
        <time>2019-05-18T14:30:51Z</time>
      </trkpt>
      <trkpt lat="45.5431" lon="2.28293">
        <ele>722</ele>
        <time>2019-05-18T14:30:52Z</time>
      </trkpt>
      <trkpt lat="45.54308" lon="2.28294">
        <ele>722</ele>
        <time>2019-05-18T14:30:53Z</time>
      </trkpt>
      <trkpt lat="45.54306" lon="2.28295">
        <ele>722</ele>
        <time>2019-05-18T14:30:54Z</time>
      </trkpt>
      <trkpt lat="45.54304" lon="2.28296">
        <ele>723</ele>
        <time>2019-05-18T14:30:55Z</time>
      </trkpt>
      <trkpt lat="45.54302" lon="2.28297">
        <ele>723</ele>
        <time>2019-05-18T14:30:56Z</time>
      </trkpt>
      <trkpt lat="45.54301" lon="2.28298">
        <ele>723</ele>
        <time>2019-05-18T14:30:57Z</time>
      </trkpt>
      <trkpt lat="45.54299" lon="2.28299">
        <ele>723</ele>
        <time>2019-05-18T14:30:58Z</time>
      </trkpt>
      <trkpt lat="45.54297" lon="2.28299">
        <ele>724</ele>
        <time>2019-05-18T14:30:59Z</time>
      </trkpt>
      <trkpt lat="45.54296" lon="2.28301">
        <ele>724</ele>
        <time>2019-05-18T14:31:00Z</time>
      </trkpt>
      <trkpt lat="45.54295" lon="2.28302">
        <ele>724</ele>
        <time>2019-05-18T14:31:01Z</time>
      </trkpt>
      <trkpt lat="45.54293" lon="2.28303">
        <ele>724</ele>
        <time>2019-05-18T14:31:02Z</time>
      </trkpt>
      <trkpt lat="45.54291" lon="2.28303">
        <ele>724</ele>
        <time>2019-05-18T14:31:03Z</time>
      </trkpt>
      <trkpt lat="45.5429" lon="2.28302">
        <ele>725</ele>
        <time>2019-05-18T14:31:04Z</time>
      </trkpt>
      <trkpt lat="45.54287" lon="2.28302">
        <ele>725</ele>
        <time>2019-05-18T14:31:05Z</time>
      </trkpt>
      <trkpt lat="45.54285" lon="2.28301">
        <ele>725</ele>
        <time>2019-05-18T14:31:06Z</time>
      </trkpt>
      <trkpt lat="45.54284" lon="2.28301">
        <ele>725</ele>
        <time>2019-05-18T14:31:07Z</time>
      </trkpt>
      <trkpt lat="45.54282" lon="2.283">
        <ele>725</ele>
        <time>2019-05-18T14:31:08Z</time>
      </trkpt>
      <trkpt lat="45.5428" lon="2.28298">
        <ele>725</ele>
        <time>2019-05-18T14:31:09Z</time>
      </trkpt>
      <trkpt lat="45.54278" lon="2.28297">
        <ele>725</ele>
        <time>2019-05-18T14:31:10Z</time>
      </trkpt>
      <trkpt lat="45.54277" lon="2.28296">
        <ele>725</ele>
        <time>2019-05-18T14:31:11Z</time>
      </trkpt>
      <trkpt lat="45.54275" lon="2.28294">
        <ele>725</ele>
        <time>2019-05-18T14:31:12Z</time>
      </trkpt>
      <trkpt lat="45.54273" lon="2.28292">
        <ele>725</ele>
        <time>2019-05-18T14:31:13Z</time>
      </trkpt>
      <trkpt lat="45.54271" lon="2.28289">
        <ele>725</ele>
        <time>2019-05-18T14:31:14Z</time>
      </trkpt>
      <trkpt lat="45.5427" lon="2.28287">
        <ele>725</ele>
        <time>2019-05-18T14:31:15Z</time>
      </trkpt>
      <trkpt lat="45.54268" lon="2.28285">
        <ele>725</ele>
        <time>2019-05-18T14:31:16Z</time>
      </trkpt>
      <trkpt lat="45.54267" lon="2.28282">
        <ele>725</ele>
        <time>2019-05-18T14:31:17Z</time>
      </trkpt>
      <trkpt lat="45.54267" lon="2.28278">
        <ele>725</ele>
        <time>2019-05-18T14:31:18Z</time>
      </trkpt>
      <trkpt lat="45.54265" lon="2.28273">
        <ele>724</ele>
        <time>2019-05-18T14:31:19Z</time>
      </trkpt>
      <trkpt lat="45.54265" lon="2.28268">
        <ele>724</ele>
        <time>2019-05-18T14:31:20Z</time>
      </trkpt>
      <trkpt lat="45.54266" lon="2.28261">
        <ele>723</ele>
        <time>2019-05-18T14:31:21Z</time>
      </trkpt>
      <trkpt lat="45.54267" lon="2.28255">
        <ele>722</ele>
        <time>2019-05-18T14:31:22Z</time>
      </trkpt>
      <trkpt lat="45.54268" lon="2.28247">
        <ele>721</ele>
        <time>2019-05-18T14:31:23Z</time>
      </trkpt>
      <trkpt lat="45.54267" lon="2.28238">
        <ele>720</ele>
        <time>2019-05-18T14:31:24Z</time>
      </trkpt>
      <trkpt lat="45.54264" lon="2.28229">
        <ele>720</ele>
        <time>2019-05-18T14:31:25Z</time>
      </trkpt>
      <trkpt lat="45.54262" lon="2.28221">
        <ele>719</ele>
        <time>2019-05-18T14:31:26Z</time>
      </trkpt>
      <trkpt lat="45.54259" lon="2.28211">
        <ele>718</ele>
        <time>2019-05-18T14:31:27Z</time>
      </trkpt>
      <trkpt lat="45.54255" lon="2.28202">
        <ele>717</ele>
        <time>2019-05-18T14:31:28Z</time>
      </trkpt>
      <trkpt lat="45.54252" lon="2.28194">
        <ele>716</ele>
        <time>2019-05-18T14:31:29Z</time>
      </trkpt>
      <trkpt lat="45.54248" lon="2.28186">
        <ele>716</ele>
        <time>2019-05-18T14:31:30Z</time>
      </trkpt>
      <trkpt lat="45.54243" lon="2.28181">
        <ele>715</ele>
        <time>2019-05-18T14:31:31Z</time>
      </trkpt>
      <trkpt lat="45.5424" lon="2.28178">
        <ele>715</ele>
        <time>2019-05-18T14:31:32Z</time>
      </trkpt>
      <trkpt lat="45.54237" lon="2.28175">
        <ele>714</ele>
        <time>2019-05-18T14:31:33Z</time>
      </trkpt>
      <trkpt lat="45.54234" lon="2.28173">
        <ele>714</ele>
        <time>2019-05-18T14:31:34Z</time>
      </trkpt>
      <trkpt lat="45.54232" lon="2.28171">
        <ele>714</ele>
        <time>2019-05-18T14:31:35Z</time>
      </trkpt>
      <trkpt lat="45.5423" lon="2.2817">
        <ele>713</ele>
        <time>2019-05-18T14:31:36Z</time>
      </trkpt>
      <trkpt lat="45.54229" lon="2.28169">
        <ele>713</ele>
        <time>2019-05-18T14:31:37Z</time>
      </trkpt>
      <trkpt lat="45.54228" lon="2.28168">
        <ele>713</ele>
        <time>2019-05-18T14:31:38Z</time>
      </trkpt>
      <trkpt lat="45.54226" lon="2.28167">
        <ele>713</ele>
        <time>2019-05-18T14:31:39Z</time>
      </trkpt>
      <trkpt lat="45.54225" lon="2.28167">
        <ele>713</ele>
        <time>2019-05-18T14:31:40Z</time>
      </trkpt>
      <trkpt lat="45.54223" lon="2.28165">
        <ele>713</ele>
        <time>2019-05-18T14:31:41Z</time>
      </trkpt>
      <trkpt lat="45.54221" lon="2.28164">
        <ele>713</ele>
        <time>2019-05-18T14:31:42Z</time>
      </trkpt>
      <trkpt lat="45.54219" lon="2.28162">
        <ele>713</ele>
        <time>2019-05-18T14:31:43Z</time>
      </trkpt>
      <trkpt lat="45.54217" lon="2.2816">
        <ele>712</ele>
        <time>2019-05-18T14:31:44Z</time>
      </trkpt>
      <trkpt lat="45.54214" lon="2.28157">
        <ele>712</ele>
        <time>2019-05-18T14:31:45Z</time>
      </trkpt>
      <trkpt lat="45.54211" lon="2.28154">
        <ele>712</ele>
        <time>2019-05-18T14:31:46Z</time>
      </trkpt>
      <trkpt lat="45.54209" lon="2.28151">
        <ele>712</ele>
        <time>2019-05-18T14:31:47Z</time>
      </trkpt>
      <trkpt lat="45.54205" lon="2.28149">
        <ele>712</ele>
        <time>2019-05-18T14:31:48Z</time>
      </trkpt>
      <trkpt lat="45.54201" lon="2.28145">
        <ele>711</ele>
        <time>2019-05-18T14:31:49Z</time>
      </trkpt>
      <trkpt lat="45.54197" lon="2.28141">
        <ele>711</ele>
        <time>2019-05-18T14:31:50Z</time>
      </trkpt>
      <trkpt lat="45.54193" lon="2.28138">
        <ele>711</ele>
        <time>2019-05-18T14:31:51Z</time>
      </trkpt>
      <trkpt lat="45.54189" lon="2.28134">
        <ele>711</ele>
        <time>2019-05-18T14:31:52Z</time>
      </trkpt>
      <trkpt lat="45.54185" lon="2.2813">
        <ele>710</ele>
        <time>2019-05-18T14:31:53Z</time>
      </trkpt>
      <trkpt lat="45.54183" lon="2.28127">
        <ele>711</ele>
        <time>2019-05-18T14:31:54Z</time>
      </trkpt>
      <trkpt lat="45.5418" lon="2.28123">
        <ele>711</ele>
        <time>2019-05-18T14:31:55Z</time>
      </trkpt>
      <trkpt lat="45.54178" lon="2.28119">
        <ele>710</ele>
        <time>2019-05-18T14:31:56Z</time>
      </trkpt>
      <trkpt lat="45.54178" lon="2.28114">
        <ele>710</ele>
        <time>2019-05-18T14:31:57Z</time>
      </trkpt>
      <trkpt lat="45.54178" lon="2.28107">
        <ele>710</ele>
        <time>2019-05-18T14:31:58Z</time>
      </trkpt>
      <trkpt lat="45.54177" lon="2.28099">
        <ele>709</ele>
        <time>2019-05-18T14:31:59Z</time>
      </trkpt>
      <trkpt lat="45.54176" lon="2.28091">
        <ele>707</ele>
        <time>2019-05-18T14:32:00Z</time>
      </trkpt>
      <trkpt lat="45.54176" lon="2.28084">
        <ele>705</ele>
        <time>2019-05-18T14:32:01Z</time>
      </trkpt>
      <trkpt lat="45.54178" lon="2.28079">
        <ele>704</ele>
        <time>2019-05-18T14:32:02Z</time>
      </trkpt>
      <trkpt lat="45.54179" lon="2.28076">
        <ele>704</ele>
        <time>2019-05-18T14:32:03Z</time>
      </trkpt>
      <trkpt lat="45.5418" lon="2.28072">
        <ele>703</ele>
        <time>2019-05-18T14:32:04Z</time>
      </trkpt>
      <trkpt lat="45.54181" lon="2.2807">
        <ele>703</ele>
        <time>2019-05-18T14:32:05Z</time>
      </trkpt>
      <trkpt lat="45.54181" lon="2.28068">
        <ele>703</ele>
        <time>2019-05-18T14:32:06Z</time>
      </trkpt>
      <trkpt lat="45.54181" lon="2.28067">
        <ele>703</ele>
        <time>2019-05-18T14:32:07Z</time>
      </trkpt>
      <trkpt lat="45.54181" lon="2.28066">
        <ele>703</ele>
        <time>2019-05-18T14:32:08Z</time>
      </trkpt>
      <trkpt lat="45.54182" lon="2.28065">
        <ele>703</ele>
        <time>2019-05-18T14:32:09Z</time>
      </trkpt>
      <trkpt lat="45.54183" lon="2.28063">
        <ele>703</ele>
        <time>2019-05-18T14:32:10Z</time>
      </trkpt>
      <trkpt lat="45.54184" lon="2.2806">
        <ele>703</ele>
        <time>2019-05-18T14:32:11Z</time>
      </trkpt>
      <trkpt lat="45.54186" lon="2.28057">
        <ele>703</ele>
        <time>2019-05-18T14:32:12Z</time>
      </trkpt>
      <trkpt lat="45.54187" lon="2.28053">
        <ele>703</ele>
        <time>2019-05-18T14:32:13Z</time>
      </trkpt>
      <trkpt lat="45.54187" lon="2.28048">
        <ele>703</ele>
        <time>2019-05-18T14:32:14Z</time>
      </trkpt>
      <trkpt lat="45.54186" lon="2.28043">
        <ele>702</ele>
        <time>2019-05-18T14:32:15Z</time>
      </trkpt>
      <trkpt lat="45.54185" lon="2.28038">
        <ele>702</ele>
        <time>2019-05-18T14:32:16Z</time>
      </trkpt>
      <trkpt lat="45.54186" lon="2.28033">
        <ele>702</ele>
        <time>2019-05-18T14:32:17Z</time>
      </trkpt>
      <trkpt lat="45.54186" lon="2.28029">
        <ele>702</ele>
        <time>2019-05-18T14:32:18Z</time>
      </trkpt>
      <trkpt lat="45.54186" lon="2.28024">
        <ele>702</ele>
        <time>2019-05-18T14:32:19Z</time>
      </trkpt>
      <trkpt lat="45.54186" lon="2.28018">
        <ele>702</ele>
        <time>2019-05-18T14:32:20Z</time>
      </trkpt>
      <trkpt lat="45.54188" lon="2.28012">
        <ele>702</ele>
        <time>2019-05-18T14:32:21Z</time>
      </trkpt>
      <trkpt lat="45.5419" lon="2.28007">
        <ele>702</ele>
        <time>2019-05-18T14:32:22Z</time>
      </trkpt>
      <trkpt lat="45.54192" lon="2.28001">
        <ele>702</ele>
        <time>2019-05-18T14:32:23Z</time>
      </trkpt>
      <trkpt lat="45.54195" lon="2.27996">
        <ele>702</ele>
        <time>2019-05-18T14:32:24Z</time>
      </trkpt>
      <trkpt lat="45.54198" lon="2.27991">
        <ele>703</ele>
        <time>2019-05-18T14:32:25Z</time>
      </trkpt>
      <trkpt lat="45.54201" lon="2.27987">
        <ele>703</ele>
        <time>2019-05-18T14:32:26Z</time>
      </trkpt>
      <trkpt lat="45.54204" lon="2.27983">
        <ele>703</ele>
        <time>2019-05-18T14:32:27Z</time>
      </trkpt>
      <trkpt lat="45.54208" lon="2.2798">
        <ele>703</ele>
        <time>2019-05-18T14:32:28Z</time>
      </trkpt>
      <trkpt lat="45.54211" lon="2.27976">
        <ele>703</ele>
        <time>2019-05-18T14:32:29Z</time>
      </trkpt>
      <trkpt lat="45.54215" lon="2.27973">
        <ele>703</ele>
        <time>2019-05-18T14:32:30Z</time>
      </trkpt>
      <trkpt lat="45.54219" lon="2.2797">
        <ele>702</ele>
        <time>2019-05-18T14:32:31Z</time>
      </trkpt>
      <trkpt lat="45.54223" lon="2.27967">
        <ele>702</ele>
        <time>2019-05-18T14:32:32Z</time>
      </trkpt>
      <trkpt lat="45.54228" lon="2.27965">
        <ele>702</ele>
        <time>2019-05-18T14:32:33Z</time>
      </trkpt>
      <trkpt lat="45.54232" lon="2.27964">
        <ele>702</ele>
        <time>2019-05-18T14:32:34Z</time>
      </trkpt>
      <trkpt lat="45.54236" lon="2.27962">
        <ele>702</ele>
        <time>2019-05-18T14:32:35Z</time>
      </trkpt>
      <trkpt lat="45.54241" lon="2.27961">
        <ele>702</ele>
        <time>2019-05-18T14:32:36Z</time>
      </trkpt>
      <trkpt lat="45.54247" lon="2.27958">
        <ele>702</ele>
        <time>2019-05-18T14:32:37Z</time>
      </trkpt>
      <trkpt lat="45.54251" lon="2.27955">
        <ele>702</ele>
        <time>2019-05-18T14:32:38Z</time>
      </trkpt>
      <trkpt lat="45.54255" lon="2.27953">
        <ele>702</ele>
        <time>2019-05-18T14:32:39Z</time>
      </trkpt>
      <trkpt lat="45.54259" lon="2.27952">
        <ele>702</ele>
        <time>2019-05-18T14:32:40Z</time>
      </trkpt>
      <trkpt lat="45.54263" lon="2.2795">
        <ele>702</ele>
        <time>2019-05-18T14:32:41Z</time>
      </trkpt>
      <trkpt lat="45.54268" lon="2.27948">
        <ele>702</ele>
        <time>2019-05-18T14:32:42Z</time>
      </trkpt>
      <trkpt lat="45.54272" lon="2.27946">
        <ele>703</ele>
        <time>2019-05-18T14:32:43Z</time>
      </trkpt>
      <trkpt lat="45.54275" lon="2.27945">
        <ele>703</ele>
        <time>2019-05-18T14:32:44Z</time>
      </trkpt>
      <trkpt lat="45.54279" lon="2.27943">
        <ele>703</ele>
        <time>2019-05-18T14:32:45Z</time>
      </trkpt>
      <trkpt lat="45.54284" lon="2.27942">
        <ele>703</ele>
        <time>2019-05-18T14:32:46Z</time>
      </trkpt>
      <trkpt lat="45.54288" lon="2.2794">
        <ele>703</ele>
        <time>2019-05-18T14:32:47Z</time>
      </trkpt>
      <trkpt lat="45.54292" lon="2.27939">
        <ele>703</ele>
        <time>2019-05-18T14:32:48Z</time>
      </trkpt>
      <trkpt lat="45.54297" lon="2.27938">
        <ele>703</ele>
        <time>2019-05-18T14:32:49Z</time>
      </trkpt>
      <trkpt lat="45.54301" lon="2.27937">
        <ele>703</ele>
        <time>2019-05-18T14:32:50Z</time>
      </trkpt>
      <trkpt lat="45.54305" lon="2.27936">
        <ele>703</ele>
        <time>2019-05-18T14:32:51Z</time>
      </trkpt>
      <trkpt lat="45.54309" lon="2.27935">
        <ele>702</ele>
        <time>2019-05-18T14:32:52Z</time>
      </trkpt>
      <trkpt lat="45.54313" lon="2.27934">
        <ele>702</ele>
        <time>2019-05-18T14:32:53Z</time>
      </trkpt>
      <trkpt lat="45.54318" lon="2.27932">
        <ele>702</ele>
        <time>2019-05-18T14:32:54Z</time>
      </trkpt>
      <trkpt lat="45.54323" lon="2.2793">
        <ele>702</ele>
        <time>2019-05-18T14:32:55Z</time>
      </trkpt>
      <trkpt lat="45.54326" lon="2.27928">
        <ele>702</ele>
        <time>2019-05-18T14:32:56Z</time>
      </trkpt>
      <trkpt lat="45.5433" lon="2.27924">
        <ele>702</ele>
        <time>2019-05-18T14:32:57Z</time>
      </trkpt>
      <trkpt lat="45.54334" lon="2.2792">
        <ele>702</ele>
        <time>2019-05-18T14:32:58Z</time>
      </trkpt>
      <trkpt lat="45.54337" lon="2.27916">
        <ele>703</ele>
        <time>2019-05-18T14:32:59Z</time>
      </trkpt>
      <trkpt lat="45.5434" lon="2.27912">
        <ele>703</ele>
        <time>2019-05-18T14:33:00Z</time>
      </trkpt>
      <trkpt lat="45.54343" lon="2.27907">
        <ele>703</ele>
        <time>2019-05-18T14:33:01Z</time>
      </trkpt>
      <trkpt lat="45.54346" lon="2.27905">
        <ele>703</ele>
        <time>2019-05-18T14:33:02Z</time>
      </trkpt>
      <trkpt lat="45.54349" lon="2.27901">
        <ele>703</ele>
        <time>2019-05-18T14:33:03Z</time>
      </trkpt>
      <trkpt lat="45.54352" lon="2.27897">
        <ele>703</ele>
        <time>2019-05-18T14:33:04Z</time>
      </trkpt>
      <trkpt lat="45.54356" lon="2.27893">
        <ele>703</ele>
        <time>2019-05-18T14:33:05Z</time>
      </trkpt>
      <trkpt lat="45.5436" lon="2.2789">
        <ele>702</ele>
        <time>2019-05-18T14:33:06Z</time>
      </trkpt>
      <trkpt lat="45.54365" lon="2.27888">
        <ele>702</ele>
        <time>2019-05-18T14:33:07Z</time>
      </trkpt>
      <trkpt lat="45.5437" lon="2.27887">
        <ele>703</ele>
        <time>2019-05-18T14:33:08Z</time>
      </trkpt>
      <trkpt lat="45.54374" lon="2.27888">
        <ele>703</ele>
        <time>2019-05-18T14:33:09Z</time>
      </trkpt>
      <trkpt lat="45.54378" lon="2.27889">
        <ele>703</ele>
        <time>2019-05-18T14:33:10Z</time>
      </trkpt>
      <trkpt lat="45.54382" lon="2.27891">
        <ele>703</ele>
        <time>2019-05-18T14:33:11Z</time>
      </trkpt>
      <trkpt lat="45.54386" lon="2.27892">
        <ele>704</ele>
        <time>2019-05-18T14:33:12Z</time>
      </trkpt>
      <trkpt lat="45.5439" lon="2.27893">
        <ele>704</ele>
        <time>2019-05-18T14:33:13Z</time>
      </trkpt>
      <trkpt lat="45.54394" lon="2.27894">
        <ele>704</ele>
        <time>2019-05-18T14:33:14Z</time>
      </trkpt>
      <trkpt lat="45.54397" lon="2.27895">
        <ele>705</ele>
        <time>2019-05-18T14:33:15Z</time>
      </trkpt>
      <trkpt lat="45.544" lon="2.27896">
        <ele>706</ele>
        <time>2019-05-18T14:33:16Z</time>
      </trkpt>
      <trkpt lat="45.54403" lon="2.27896">
        <ele>706</ele>
        <time>2019-05-18T14:33:17Z</time>
      </trkpt>
      <trkpt lat="45.54406" lon="2.27897">
        <ele>706</ele>
        <time>2019-05-18T14:33:18Z</time>
      </trkpt>
      <trkpt lat="45.54409" lon="2.27898">
        <ele>706</ele>
        <time>2019-05-18T14:33:19Z</time>
      </trkpt>
      <trkpt lat="45.54411" lon="2.27899">
        <ele>707</ele>
        <time>2019-05-18T14:33:20Z</time>
      </trkpt>
      <trkpt lat="45.54414" lon="2.27899">
        <ele>707</ele>
        <time>2019-05-18T14:33:21Z</time>
      </trkpt>
      <trkpt lat="45.54417" lon="2.279">
        <ele>707</ele>
        <time>2019-05-18T14:33:22Z</time>
      </trkpt>
      <trkpt lat="45.5442" lon="2.279">
        <ele>707</ele>
        <time>2019-05-18T14:33:23Z</time>
      </trkpt>
      <trkpt lat="45.54422" lon="2.27901">
        <ele>707</ele>
        <time>2019-05-18T14:33:24Z</time>
      </trkpt>
      <trkpt lat="45.54425" lon="2.27902">
        <ele>707</ele>
        <time>2019-05-18T14:33:25Z</time>
      </trkpt>
      <trkpt lat="45.54428" lon="2.27903">
        <ele>707</ele>
        <time>2019-05-18T14:33:26Z</time>
      </trkpt>
      <trkpt lat="45.54431" lon="2.27904">
        <ele>707</ele>
        <time>2019-05-18T14:33:27Z</time>
      </trkpt>
      <trkpt lat="45.54433" lon="2.27905">
        <ele>707</ele>
        <time>2019-05-18T14:33:28Z</time>
      </trkpt>
      <trkpt lat="45.54436" lon="2.27906">
        <ele>707</ele>
        <time>2019-05-18T14:33:29Z</time>
      </trkpt>
      <trkpt lat="45.54439" lon="2.27907">
        <ele>707</ele>
        <time>2019-05-18T14:33:30Z</time>
      </trkpt>
      <trkpt lat="45.54442" lon="2.27908">
        <ele>707</ele>
        <time>2019-05-18T14:33:31Z</time>
      </trkpt>
      <trkpt lat="45.54446" lon="2.27909">
        <ele>707</ele>
        <time>2019-05-18T14:33:32Z</time>
      </trkpt>
      <trkpt lat="45.54449" lon="2.2791">
        <ele>707</ele>
        <time>2019-05-18T14:33:33Z</time>
      </trkpt>
      <trkpt lat="45.54453" lon="2.27911">
        <ele>707</ele>
        <time>2019-05-18T14:33:34Z</time>
      </trkpt>
      <trkpt lat="45.54457" lon="2.27912">
        <ele>707</ele>
        <time>2019-05-18T14:33:35Z</time>
      </trkpt>
      <trkpt lat="45.54461" lon="2.27913">
        <ele>707</ele>
        <time>2019-05-18T14:33:36Z</time>
      </trkpt>
      <trkpt lat="45.54466" lon="2.27914">
        <ele>706</ele>
        <time>2019-05-18T14:33:37Z</time>
      </trkpt>
      <trkpt lat="45.54472" lon="2.27914">
        <ele>706</ele>
        <time>2019-05-18T14:33:38Z</time>
      </trkpt>
      <trkpt lat="45.54478" lon="2.2791">
        <ele>705</ele>
        <time>2019-05-18T14:33:39Z</time>
      </trkpt>
      <trkpt lat="45.54483" lon="2.27905">
        <ele>704</ele>
        <time>2019-05-18T14:33:40Z</time>
      </trkpt>
      <trkpt lat="45.54489" lon="2.27898">
        <ele>703</ele>
        <time>2019-05-18T14:33:41Z</time>
      </trkpt>
      <trkpt lat="45.54494" lon="2.27893">
        <ele>703</ele>
        <time>2019-05-18T14:33:42Z</time>
      </trkpt>
      <trkpt lat="45.54499" lon="2.2789">
        <ele>703</ele>
        <time>2019-05-18T14:33:43Z</time>
      </trkpt>
      <trkpt lat="45.54504" lon="2.27887">
        <ele>703</ele>
        <time>2019-05-18T14:33:44Z</time>
      </trkpt>
      <trkpt lat="45.54509" lon="2.27885">
        <ele>703</ele>
        <time>2019-05-18T14:33:45Z</time>
      </trkpt>
      <trkpt lat="45.54514" lon="2.27885">
        <ele>704</ele>
        <time>2019-05-18T14:33:46Z</time>
      </trkpt>
      <trkpt lat="45.54517" lon="2.27884">
        <ele>704</ele>
        <time>2019-05-18T14:33:47Z</time>
      </trkpt>
      <trkpt lat="45.54521" lon="2.27884">
        <ele>704</ele>
        <time>2019-05-18T14:33:48Z</time>
      </trkpt>
      <trkpt lat="45.54525" lon="2.27883">
        <ele>704</ele>
        <time>2019-05-18T14:33:49Z</time>
      </trkpt>
      <trkpt lat="45.54528" lon="2.27882">
        <ele>704</ele>
        <time>2019-05-18T14:33:50Z</time>
      </trkpt>
      <trkpt lat="45.54532" lon="2.2788">
        <ele>704</ele>
        <time>2019-05-18T14:33:51Z</time>
      </trkpt>
      <trkpt lat="45.54535" lon="2.27879">
        <ele>705</ele>
        <time>2019-05-18T14:33:52Z</time>
      </trkpt>
      <trkpt lat="45.54539" lon="2.27877">
        <ele>705</ele>
        <time>2019-05-18T14:33:53Z</time>
      </trkpt>
      <trkpt lat="45.54542" lon="2.27874">
        <ele>705</ele>
        <time>2019-05-18T14:33:54Z</time>
      </trkpt>
      <trkpt lat="45.54546" lon="2.27871">
        <ele>705</ele>
        <time>2019-05-18T14:33:55Z</time>
      </trkpt>
      <trkpt lat="45.54549" lon="2.27868">
        <ele>705</ele>
        <time>2019-05-18T14:33:56Z</time>
      </trkpt>
      <trkpt lat="45.54552" lon="2.27865">
        <ele>705</ele>
        <time>2019-05-18T14:33:57Z</time>
      </trkpt>
      <trkpt lat="45.54555" lon="2.27861">
        <ele>705</ele>
        <time>2019-05-18T14:33:58Z</time>
      </trkpt>
      <trkpt lat="45.54558" lon="2.27858">
        <ele>705</ele>
        <time>2019-05-18T14:33:59Z</time>
      </trkpt>
      <trkpt lat="45.5456" lon="2.27854">
        <ele>705</ele>
        <time>2019-05-18T14:34:00Z</time>
      </trkpt>
      <trkpt lat="45.54563" lon="2.27851">
        <ele>705</ele>
        <time>2019-05-18T14:34:01Z</time>
      </trkpt>
      <trkpt lat="45.54565" lon="2.27847">
        <ele>705</ele>
        <time>2019-05-18T14:34:02Z</time>
      </trkpt>
      <trkpt lat="45.54568" lon="2.27844">
        <ele>705</ele>
        <time>2019-05-18T14:34:03Z</time>
      </trkpt>
      <trkpt lat="45.54571" lon="2.27842">
        <ele>705</ele>
        <time>2019-05-18T14:34:04Z</time>
      </trkpt>
      <trkpt lat="45.54574" lon="2.27838">
        <ele>705</ele>
        <time>2019-05-18T14:34:05Z</time>
      </trkpt>
      <trkpt lat="45.54576" lon="2.27835">
        <ele>705</ele>
        <time>2019-05-18T14:34:06Z</time>
      </trkpt>
      <trkpt lat="45.54579" lon="2.27831">
        <ele>705</ele>
        <time>2019-05-18T14:34:07Z</time>
      </trkpt>
      <trkpt lat="45.54581" lon="2.27827">
        <ele>705</ele>
        <time>2019-05-18T14:34:08Z</time>
      </trkpt>
      <trkpt lat="45.54584" lon="2.27822">
        <ele>705</ele>
        <time>2019-05-18T14:34:09Z</time>
      </trkpt>
      <trkpt lat="45.54588" lon="2.27818">
        <ele>704</ele>
        <time>2019-05-18T14:34:10Z</time>
      </trkpt>
      <trkpt lat="45.54592" lon="2.27814">
        <ele>704</ele>
        <time>2019-05-18T14:34:11Z</time>
      </trkpt>
      <trkpt lat="45.54595" lon="2.27811">
        <ele>704</ele>
        <time>2019-05-18T14:34:12Z</time>
      </trkpt>
      <trkpt lat="45.546" lon="2.27808">
        <ele>704</ele>
        <time>2019-05-18T14:34:13Z</time>
      </trkpt>
      <trkpt lat="45.54604" lon="2.27807">
        <ele>704</ele>
        <time>2019-05-18T14:34:14Z</time>
      </trkpt>
      <trkpt lat="45.54607" lon="2.27807">
        <ele>704</ele>
        <time>2019-05-18T14:34:15Z</time>
      </trkpt>
      <trkpt lat="45.5461" lon="2.27808">
        <ele>704</ele>
        <time>2019-05-18T14:34:16Z</time>
      </trkpt>
      <trkpt lat="45.54613" lon="2.27808">
        <ele>705</ele>
        <time>2019-05-18T14:34:17Z</time>
      </trkpt>
      <trkpt lat="45.54617" lon="2.27808">
        <ele>705</ele>
        <time>2019-05-18T14:34:18Z</time>
      </trkpt>
      <trkpt lat="45.5462" lon="2.27808">
        <ele>705</ele>
        <time>2019-05-18T14:34:19Z</time>
      </trkpt>
      <trkpt lat="45.54623" lon="2.27808">
        <ele>705</ele>
        <time>2019-05-18T14:34:20Z</time>
      </trkpt>
      <trkpt lat="45.54626" lon="2.27808">
        <ele>706</ele>
        <time>2019-05-18T14:34:21Z</time>
      </trkpt>
      <trkpt lat="45.54629" lon="2.27807">
        <ele>706</ele>
        <time>2019-05-18T14:34:22Z</time>
      </trkpt>
      <trkpt lat="45.54632" lon="2.27806">
        <ele>706</ele>
        <time>2019-05-18T14:34:23Z</time>
      </trkpt>
      <trkpt lat="45.54635" lon="2.27804">
        <ele>706</ele>
        <time>2019-05-18T14:34:24Z</time>
      </trkpt>
      <trkpt lat="45.54637" lon="2.27803">
        <ele>707</ele>
        <time>2019-05-18T14:34:25Z</time>
      </trkpt>
      <trkpt lat="45.54639" lon="2.27802">
        <ele>707</ele>
        <time>2019-05-18T14:34:26Z</time>
      </trkpt>
      <trkpt lat="45.54641" lon="2.278">
        <ele>707</ele>
        <time>2019-05-18T14:34:27Z</time>
      </trkpt>
      <trkpt lat="45.54644" lon="2.27799">
        <ele>707</ele>
        <time>2019-05-18T14:34:28Z</time>
      </trkpt>
      <trkpt lat="45.54646" lon="2.27798">
        <ele>707</ele>
        <time>2019-05-18T14:34:29Z</time>
      </trkpt>
      <trkpt lat="45.54647" lon="2.27798">
        <ele>707</ele>
        <time>2019-05-18T14:34:30Z</time>
      </trkpt>
      <trkpt lat="45.54648" lon="2.27796">
        <ele>708</ele>
        <time>2019-05-18T14:34:31Z</time>
      </trkpt>
      <trkpt lat="45.5465" lon="2.27794">
        <ele>708</ele>
        <time>2019-05-18T14:34:32Z</time>
      </trkpt>
      <trkpt lat="45.54654" lon="2.27791">
        <ele>707</ele>
        <time>2019-05-18T14:34:33Z</time>
      </trkpt>
      <trkpt lat="45.54657" lon="2.27789">
        <ele>707</ele>
        <time>2019-05-18T14:34:34Z</time>
      </trkpt>
      <trkpt lat="45.54661" lon="2.27788">
        <ele>707</ele>
        <time>2019-05-18T14:34:35Z</time>
      </trkpt>
      <trkpt lat="45.54666" lon="2.27787">
        <ele>707</ele>
        <time>2019-05-18T14:34:36Z</time>
      </trkpt>
      <trkpt lat="45.5467" lon="2.27787">
        <ele>707</ele>
        <time>2019-05-18T14:34:37Z</time>
      </trkpt>
      <trkpt lat="45.54673" lon="2.27787">
        <ele>706</ele>
        <time>2019-05-18T14:34:38Z</time>
      </trkpt>
      <trkpt lat="45.54677" lon="2.27787">
        <ele>706</ele>
        <time>2019-05-18T14:34:39Z</time>
      </trkpt>
      <trkpt lat="45.54682" lon="2.27789">
        <ele>706</ele>
        <time>2019-05-18T14:34:40Z</time>
      </trkpt>
      <trkpt lat="45.54687" lon="2.27791">
        <ele>706</ele>
        <time>2019-05-18T14:34:41Z</time>
      </trkpt>
      <trkpt lat="45.54692" lon="2.27793">
        <ele>705</ele>
        <time>2019-05-18T14:34:42Z</time>
      </trkpt>
      <trkpt lat="45.54696" lon="2.27795">
        <ele>705</ele>
        <time>2019-05-18T14:34:43Z</time>
      </trkpt>
      <trkpt lat="45.547" lon="2.27798">
        <ele>705</ele>
        <time>2019-05-18T14:34:44Z</time>
      </trkpt>
      <trkpt lat="45.54705" lon="2.27799">
        <ele>705</ele>
        <time>2019-05-18T14:34:45Z</time>
      </trkpt>
      <trkpt lat="45.54709" lon="2.27799">
        <ele>705</ele>
        <time>2019-05-18T14:34:46Z</time>
      </trkpt>
      <trkpt lat="45.54711" lon="2.27797">
        <ele>705</ele>
        <time>2019-05-18T14:34:47Z</time>
      </trkpt>
      <trkpt lat="45.54713" lon="2.27793">
        <ele>706</ele>
        <time>2019-05-18T14:34:48Z</time>
      </trkpt>
      <trkpt lat="45.54714" lon="2.27788">
        <ele>706</ele>
        <time>2019-05-18T14:34:49Z</time>
      </trkpt>
      <trkpt lat="45.54716" lon="2.27785">
        <ele>706</ele>
        <time>2019-05-18T14:34:50Z</time>
      </trkpt>
      <trkpt lat="45.54717" lon="2.27782">
        <ele>706</ele>
        <time>2019-05-18T14:34:51Z</time>
      </trkpt>
      <trkpt lat="45.54717" lon="2.27778">
        <ele>706</ele>
        <time>2019-05-18T14:34:52Z</time>
      </trkpt>
      <trkpt lat="45.54718" lon="2.27775">
        <ele>706</ele>
        <time>2019-05-18T14:34:53Z</time>
      </trkpt>
      <trkpt lat="45.54719" lon="2.27772">
        <ele>707</ele>
        <time>2019-05-18T14:34:54Z</time>
      </trkpt>
      <trkpt lat="45.54721" lon="2.27769">
        <ele>707</ele>
        <time>2019-05-18T14:34:55Z</time>
      </trkpt>
      <trkpt lat="45.54721" lon="2.27767">
        <ele>707</ele>
        <time>2019-05-18T14:34:56Z</time>
      </trkpt>
      <trkpt lat="45.54721" lon="2.27763">
        <ele>707</ele>
        <time>2019-05-18T14:34:57Z</time>
      </trkpt>
      <trkpt lat="45.54722" lon="2.27761">
        <ele>707</ele>
        <time>2019-05-18T14:34:58Z</time>
      </trkpt>
      <trkpt lat="45.54723" lon="2.27759">
        <ele>708</ele>
        <time>2019-05-18T14:34:59Z</time>
      </trkpt>
      <trkpt lat="45.54724" lon="2.27757">
        <ele>708</ele>
        <time>2019-05-18T14:35:00Z</time>
      </trkpt>
      <trkpt lat="45.54725" lon="2.27754">
        <ele>708</ele>
        <time>2019-05-18T14:35:01Z</time>
      </trkpt>
      <trkpt lat="45.54725" lon="2.27752">
        <ele>708</ele>
        <time>2019-05-18T14:35:02Z</time>
      </trkpt>
      <trkpt lat="45.54726" lon="2.27749">
        <ele>708</ele>
        <time>2019-05-18T14:35:03Z</time>
      </trkpt>
      <trkpt lat="45.54728" lon="2.27749">
        <ele>709</ele>
        <time>2019-05-18T14:35:04Z</time>
      </trkpt>
      <trkpt lat="45.54729" lon="2.27746">
        <ele>709</ele>
        <time>2019-05-18T14:35:05Z</time>
      </trkpt>
      <trkpt lat="45.5473" lon="2.27743">
        <ele>709</ele>
        <time>2019-05-18T14:35:06Z</time>
      </trkpt>
      <trkpt lat="45.54731" lon="2.27739">
        <ele>709</ele>
        <time>2019-05-18T14:35:07Z</time>
      </trkpt>
      <trkpt lat="45.54732" lon="2.27735">
        <ele>709</ele>
        <time>2019-05-18T14:35:08Z</time>
      </trkpt>
      <trkpt lat="45.54733" lon="2.27732">
        <ele>710</ele>
        <time>2019-05-18T14:35:09Z</time>
      </trkpt>
      <trkpt lat="45.54734" lon="2.27728">
        <ele>710</ele>
        <time>2019-05-18T14:35:10Z</time>
      </trkpt>
      <trkpt lat="45.54735" lon="2.27725">
        <ele>710</ele>
        <time>2019-05-18T14:35:11Z</time>
      </trkpt>
      <trkpt lat="45.54736" lon="2.27722">
        <ele>710</ele>
        <time>2019-05-18T14:35:12Z</time>
      </trkpt>
      <trkpt lat="45.54736" lon="2.2772">
        <ele>710</ele>
        <time>2019-05-18T14:35:13Z</time>
      </trkpt>
      <trkpt lat="45.54736" lon="2.27717">
        <ele>710</ele>
        <time>2019-05-18T14:35:14Z</time>
      </trkpt>
      <trkpt lat="45.54736" lon="2.27714">
        <ele>710</ele>
        <time>2019-05-18T14:35:15Z</time>
      </trkpt>
      <trkpt lat="45.54736" lon="2.27712">
        <ele>711</ele>
        <time>2019-05-18T14:35:16Z</time>
      </trkpt>
      <trkpt lat="45.54736" lon="2.27709">
        <ele>711</ele>
        <time>2019-05-18T14:35:17Z</time>
      </trkpt>
      <trkpt lat="45.54737" lon="2.27705">
        <ele>711</ele>
        <time>2019-05-18T14:35:18Z</time>
      </trkpt>
      <trkpt lat="45.54737" lon="2.27702">
        <ele>711</ele>
        <time>2019-05-18T14:35:19Z</time>
      </trkpt>
      <trkpt lat="45.54737" lon="2.27699">
        <ele>711</ele>
        <time>2019-05-18T14:35:20Z</time>
      </trkpt>
      <trkpt lat="45.54736" lon="2.27695">
        <ele>711</ele>
        <time>2019-05-18T14:35:21Z</time>
      </trkpt>
      <trkpt lat="45.54736" lon="2.27692">
        <ele>712</ele>
        <time>2019-05-18T14:35:22Z</time>
      </trkpt>
      <trkpt lat="45.54736" lon="2.2769">
        <ele>712</ele>
        <time>2019-05-18T14:35:23Z</time>
      </trkpt>
      <trkpt lat="45.54736" lon="2.27687">
        <ele>712</ele>
        <time>2019-05-18T14:35:24Z</time>
      </trkpt>
      <trkpt lat="45.54736" lon="2.27684">
        <ele>712</ele>
        <time>2019-05-18T14:35:25Z</time>
      </trkpt>
      <trkpt lat="45.54735" lon="2.27681">
        <ele>712</ele>
        <time>2019-05-18T14:35:26Z</time>
      </trkpt>
      <trkpt lat="45.54735" lon="2.27678">
        <ele>712</ele>
        <time>2019-05-18T14:35:27Z</time>
      </trkpt>
      <trkpt lat="45.54734" lon="2.27674">
        <ele>712</ele>
        <time>2019-05-18T14:35:28Z</time>
      </trkpt>
      <trkpt lat="45.54734" lon="2.27671">
        <ele>713</ele>
        <time>2019-05-18T14:35:29Z</time>
      </trkpt>
      <trkpt lat="45.54733" lon="2.27668">
        <ele>713</ele>
        <time>2019-05-18T14:35:30Z</time>
      </trkpt>
      <trkpt lat="45.54733" lon="2.27666">
        <ele>713</ele>
        <time>2019-05-18T14:35:31Z</time>
      </trkpt>
      <trkpt lat="45.54733" lon="2.27663">
        <ele>713</ele>
        <time>2019-05-18T14:35:32Z</time>
      </trkpt>
      <trkpt lat="45.54732" lon="2.27659">
        <ele>713</ele>
        <time>2019-05-18T14:35:33Z</time>
      </trkpt>
      <trkpt lat="45.54732" lon="2.27655">
        <ele>713</ele>
        <time>2019-05-18T14:35:34Z</time>
      </trkpt>
      <trkpt lat="45.54731" lon="2.27653">
        <ele>713</ele>
        <time>2019-05-18T14:35:35Z</time>
      </trkpt>
      <trkpt lat="45.5473" lon="2.2765">
        <ele>714</ele>
        <time>2019-05-18T14:35:36Z</time>
      </trkpt>
      <trkpt lat="45.54729" lon="2.27647">
        <ele>714</ele>
        <time>2019-05-18T14:35:37Z</time>
      </trkpt>
      <trkpt lat="45.54729" lon="2.27644">
        <ele>714</ele>
        <time>2019-05-18T14:35:38Z</time>
      </trkpt>
      <trkpt lat="45.54728" lon="2.27641">
        <ele>714</ele>
        <time>2019-05-18T14:35:39Z</time>
      </trkpt>
      <trkpt lat="45.54727" lon="2.27638">
        <ele>714</ele>
        <time>2019-05-18T14:35:40Z</time>
      </trkpt>
      <trkpt lat="45.54726" lon="2.27636">
        <ele>715</ele>
        <time>2019-05-18T14:35:41Z</time>
      </trkpt>
      <trkpt lat="45.54725" lon="2.27634">
        <ele>715</ele>
        <time>2019-05-18T14:35:42Z</time>
      </trkpt>
      <trkpt lat="45.54725" lon="2.27631">
        <ele>715</ele>
        <time>2019-05-18T14:35:43Z</time>
      </trkpt>
      <trkpt lat="45.54724" lon="2.27628">
        <ele>715</ele>
        <time>2019-05-18T14:35:44Z</time>
      </trkpt>
      <trkpt lat="45.54723" lon="2.27625">
        <ele>715</ele>
        <time>2019-05-18T14:35:45Z</time>
      </trkpt>
      <trkpt lat="45.54722" lon="2.27623">
        <ele>716</ele>
        <time>2019-05-18T14:35:46Z</time>
      </trkpt>
      <trkpt lat="45.54721" lon="2.27621">
        <ele>716</ele>
        <time>2019-05-18T14:35:47Z</time>
      </trkpt>
      <trkpt lat="45.5472" lon="2.27617">
        <ele>716</ele>
        <time>2019-05-18T14:35:48Z</time>
      </trkpt>
      <trkpt lat="45.54719" lon="2.27614">
        <ele>716</ele>
        <time>2019-05-18T14:35:49Z</time>
      </trkpt>
      <trkpt lat="45.54719" lon="2.27611">
        <ele>716</ele>
        <time>2019-05-18T14:35:50Z</time>
      </trkpt>
      <trkpt lat="45.54718" lon="2.27607">
        <ele>716</ele>
        <time>2019-05-18T14:35:51Z</time>
      </trkpt>
      <trkpt lat="45.54718" lon="2.27604">
        <ele>717</ele>
        <time>2019-05-18T14:35:52Z</time>
      </trkpt>
      <trkpt lat="45.54717" lon="2.27601">
        <ele>717</ele>
        <time>2019-05-18T14:35:53Z</time>
      </trkpt>
      <trkpt lat="45.54717" lon="2.27598">
        <ele>717</ele>
        <time>2019-05-18T14:35:54Z</time>
      </trkpt>
      <trkpt lat="45.54716" lon="2.27595">
        <ele>717</ele>
        <time>2019-05-18T14:35:55Z</time>
      </trkpt>
      <trkpt lat="45.54716" lon="2.27593">
        <ele>717</ele>
        <time>2019-05-18T14:35:56Z</time>
      </trkpt>
      <trkpt lat="45.54716" lon="2.2759">
        <ele>717</ele>
        <time>2019-05-18T14:35:57Z</time>
      </trkpt>
      <trkpt lat="45.54716" lon="2.27588">
        <ele>717</ele>
        <time>2019-05-18T14:35:58Z</time>
      </trkpt>
      <trkpt lat="45.54716" lon="2.27589">
        <ele>718</ele>
        <time>2019-05-18T14:35:59Z</time>
      </trkpt>
      <trkpt lat="45.54716" lon="2.27587">
        <ele>718</ele>
        <time>2019-05-18T14:36:00Z</time>
      </trkpt>
      <trkpt lat="45.54716" lon="2.27584">
        <ele>718</ele>
        <time>2019-05-18T14:36:01Z</time>
      </trkpt>
      <trkpt lat="45.54717" lon="2.27581">
        <ele>718</ele>
        <time>2019-05-18T14:36:02Z</time>
      </trkpt>
      <trkpt lat="45.54717" lon="2.27579">
        <ele>718</ele>
        <time>2019-05-18T14:36:03Z</time>
      </trkpt>
      <trkpt lat="45.54718" lon="2.27577">
        <ele>718</ele>
        <time>2019-05-18T14:36:04Z</time>
      </trkpt>
      <trkpt lat="45.54718" lon="2.27574">
        <ele>718</ele>
        <time>2019-05-18T14:36:05Z</time>
      </trkpt>
      <trkpt lat="45.54719" lon="2.27572">
        <ele>718</ele>
        <time>2019-05-18T14:36:06Z</time>
      </trkpt>
      <trkpt lat="45.5472" lon="2.27571">
        <ele>718</ele>
        <time>2019-05-18T14:36:07Z</time>
      </trkpt>
      <trkpt lat="45.54722" lon="2.27569">
        <ele>718</ele>
        <time>2019-05-18T14:36:08Z</time>
      </trkpt>
      <trkpt lat="45.54722" lon="2.27567">
        <ele>718</ele>
        <time>2019-05-18T14:36:09Z</time>
      </trkpt>
      <trkpt lat="45.54723" lon="2.27564">
        <ele>719</ele>
        <time>2019-05-18T14:36:10Z</time>
      </trkpt>
      <trkpt lat="45.54724" lon="2.27562">
        <ele>719</ele>
        <time>2019-05-18T14:36:11Z</time>
      </trkpt>
      <trkpt lat="45.54724" lon="2.2756">
        <ele>719</ele>
        <time>2019-05-18T14:36:12Z</time>
      </trkpt>
      <trkpt lat="45.54725" lon="2.27558">
        <ele>719</ele>
        <time>2019-05-18T14:36:13Z</time>
      </trkpt>
      <trkpt lat="45.54725" lon="2.27556">
        <ele>719</ele>
        <time>2019-05-18T14:36:14Z</time>
      </trkpt>
      <trkpt lat="45.54725" lon="2.27554">
        <ele>719</ele>
        <time>2019-05-18T14:36:15Z</time>
      </trkpt>
      <trkpt lat="45.54726" lon="2.2755">
        <ele>719</ele>
        <time>2019-05-18T14:36:16Z</time>
      </trkpt>
      <trkpt lat="45.54726" lon="2.27548">
        <ele>719</ele>
        <time>2019-05-18T14:36:17Z</time>
      </trkpt>
      <trkpt lat="45.54727" lon="2.27546">
        <ele>720</ele>
        <time>2019-05-18T14:36:18Z</time>
      </trkpt>
      <trkpt lat="45.54728" lon="2.27543">
        <ele>720</ele>
        <time>2019-05-18T14:36:19Z</time>
      </trkpt>
      <trkpt lat="45.54728" lon="2.27541">
        <ele>720</ele>
        <time>2019-05-18T14:36:20Z</time>
      </trkpt>
      <trkpt lat="45.54728" lon="2.27537">
        <ele>720</ele>
        <time>2019-05-18T14:36:21Z</time>
      </trkpt>
      <trkpt lat="45.54729" lon="2.27535">
        <ele>720</ele>
        <time>2019-05-18T14:36:22Z</time>
      </trkpt>
      <trkpt lat="45.5473" lon="2.27531">
        <ele>720</ele>
        <time>2019-05-18T14:36:23Z</time>
      </trkpt>
      <trkpt lat="45.54731" lon="2.27527">
        <ele>720</ele>
        <time>2019-05-18T14:36:24Z</time>
      </trkpt>
      <trkpt lat="45.54732" lon="2.27524">
        <ele>721</ele>
        <time>2019-05-18T14:36:25Z</time>
      </trkpt>
      <trkpt lat="45.54733" lon="2.27521">
        <ele>721</ele>
        <time>2019-05-18T14:36:26Z</time>
      </trkpt>
      <trkpt lat="45.54733" lon="2.27518">
        <ele>721</ele>
        <time>2019-05-18T14:36:27Z</time>
      </trkpt>
      <trkpt lat="45.54734" lon="2.27514">
        <ele>721</ele>
        <time>2019-05-18T14:36:28Z</time>
      </trkpt>
      <trkpt lat="45.54734" lon="2.27512">
        <ele>721</ele>
        <time>2019-05-18T14:36:29Z</time>
      </trkpt>
      <trkpt lat="45.54736" lon="2.2751">
        <ele>722</ele>
        <time>2019-05-18T14:36:30Z</time>
      </trkpt>
      <trkpt lat="45.54736" lon="2.27507">
        <ele>722</ele>
        <time>2019-05-18T14:36:31Z</time>
      </trkpt>
      <trkpt lat="45.54737" lon="2.27503">
        <ele>722</ele>
        <time>2019-05-18T14:36:32Z</time>
      </trkpt>
      <trkpt lat="45.54737" lon="2.275">
        <ele>722</ele>
        <time>2019-05-18T14:36:33Z</time>
      </trkpt>
      <trkpt lat="45.54738" lon="2.27497">
        <ele>722</ele>
        <time>2019-05-18T14:36:34Z</time>
      </trkpt>
      <trkpt lat="45.54737" lon="2.27494">
        <ele>722</ele>
        <time>2019-05-18T14:36:35Z</time>
      </trkpt>
      <trkpt lat="45.54738" lon="2.2749">
        <ele>723</ele>
        <time>2019-05-18T14:36:36Z</time>
      </trkpt>
      <trkpt lat="45.54738" lon="2.27487">
        <ele>723</ele>
        <time>2019-05-18T14:36:37Z</time>
      </trkpt>
      <trkpt lat="45.54738" lon="2.27484">
        <ele>723</ele>
        <time>2019-05-18T14:36:38Z</time>
      </trkpt>
      <trkpt lat="45.54739" lon="2.2748">
        <ele>723</ele>
        <time>2019-05-18T14:36:39Z</time>
      </trkpt>
      <trkpt lat="45.54739" lon="2.27477">
        <ele>723</ele>
        <time>2019-05-18T14:36:40Z</time>
      </trkpt>
      <trkpt lat="45.54739" lon="2.27474">
        <ele>723</ele>
        <time>2019-05-18T14:36:41Z</time>
      </trkpt>
      <trkpt lat="45.54738" lon="2.27471">
        <ele>723</ele>
        <time>2019-05-18T14:36:42Z</time>
      </trkpt>
      <trkpt lat="45.54738" lon="2.27468">
        <ele>724</ele>
        <time>2019-05-18T14:36:43Z</time>
      </trkpt>
      <trkpt lat="45.54739" lon="2.27466">
        <ele>724</ele>
        <time>2019-05-18T14:36:44Z</time>
      </trkpt>
      <trkpt lat="45.54738" lon="2.27464">
        <ele>724</ele>
        <time>2019-05-18T14:36:45Z</time>
      </trkpt>
      <trkpt lat="45.54738" lon="2.2746">
        <ele>724</ele>
        <time>2019-05-18T14:36:46Z</time>
      </trkpt>
      <trkpt lat="45.54738" lon="2.27457">
        <ele>724</ele>
        <time>2019-05-18T14:36:47Z</time>
      </trkpt>
      <trkpt lat="45.54737" lon="2.27454">
        <ele>724</ele>
        <time>2019-05-18T14:36:48Z</time>
      </trkpt>
      <trkpt lat="45.54736" lon="2.2745">
        <ele>724</ele>
        <time>2019-05-18T14:36:49Z</time>
      </trkpt>
      <trkpt lat="45.54735" lon="2.27447">
        <ele>725</ele>
        <time>2019-05-18T14:36:50Z</time>
      </trkpt>
      <trkpt lat="45.54734" lon="2.27443">
        <ele>725</ele>
        <time>2019-05-18T14:36:51Z</time>
      </trkpt>
      <trkpt lat="45.54733" lon="2.27439">
        <ele>725</ele>
        <time>2019-05-18T14:36:52Z</time>
      </trkpt>
      <trkpt lat="45.54733" lon="2.27436">
        <ele>725</ele>
        <time>2019-05-18T14:36:53Z</time>
      </trkpt>
      <trkpt lat="45.54731" lon="2.27432">
        <ele>725</ele>
        <time>2019-05-18T14:36:54Z</time>
      </trkpt>
      <trkpt lat="45.5473" lon="2.27428">
        <ele>725</ele>
        <time>2019-05-18T14:36:55Z</time>
      </trkpt>
      <trkpt lat="45.54729" lon="2.27425">
        <ele>725</ele>
        <time>2019-05-18T14:36:56Z</time>
      </trkpt>
      <trkpt lat="45.54729" lon="2.27421">
        <ele>725</ele>
        <time>2019-05-18T14:36:57Z</time>
      </trkpt>
      <trkpt lat="45.54728" lon="2.27417">
        <ele>725</ele>
        <time>2019-05-18T14:36:58Z</time>
      </trkpt>
      <trkpt lat="45.54728" lon="2.27414">
        <ele>725</ele>
        <time>2019-05-18T14:36:59Z</time>
      </trkpt>
      <trkpt lat="45.54727" lon="2.27413">
        <ele>726</ele>
        <time>2019-05-18T14:37:00Z</time>
      </trkpt>
      <trkpt lat="45.54727" lon="2.2741">
        <ele>726</ele>
        <time>2019-05-18T14:37:01Z</time>
      </trkpt>
      <trkpt lat="45.54727" lon="2.27407">
        <ele>726</ele>
        <time>2019-05-18T14:37:02Z</time>
      </trkpt>
      <trkpt lat="45.54727" lon="2.27403">
        <ele>726</ele>
        <time>2019-05-18T14:37:03Z</time>
      </trkpt>
      <trkpt lat="45.54727" lon="2.274">
        <ele>726</ele>
        <time>2019-05-18T14:37:04Z</time>
      </trkpt>
      <trkpt lat="45.54727" lon="2.27398">
        <ele>726</ele>
        <time>2019-05-18T14:37:05Z</time>
      </trkpt>
      <trkpt lat="45.54726" lon="2.27396">
        <ele>726</ele>
        <time>2019-05-18T14:37:06Z</time>
      </trkpt>
      <trkpt lat="45.54726" lon="2.27392">
        <ele>726</ele>
        <time>2019-05-18T14:37:07Z</time>
      </trkpt>
      <trkpt lat="45.54726" lon="2.27389">
        <ele>726</ele>
        <time>2019-05-18T14:37:08Z</time>
      </trkpt>
      <trkpt lat="45.54726" lon="2.27386">
        <ele>726</ele>
        <time>2019-05-18T14:37:09Z</time>
      </trkpt>
      <trkpt lat="45.54726" lon="2.27382">
        <ele>727</ele>
        <time>2019-05-18T14:37:10Z</time>
      </trkpt>
      <trkpt lat="45.54726" lon="2.27379">
        <ele>727</ele>
        <time>2019-05-18T14:37:11Z</time>
      </trkpt>
      <trkpt lat="45.54726" lon="2.27378">
        <ele>727</ele>
        <time>2019-05-18T14:37:12Z</time>
      </trkpt>
      <trkpt lat="45.54726" lon="2.27374">
        <ele>727</ele>
        <time>2019-05-18T14:37:13Z</time>
      </trkpt>
      <trkpt lat="45.54726" lon="2.27373">
        <ele>727</ele>
        <time>2019-05-18T14:37:14Z</time>
      </trkpt>
      <trkpt lat="45.54726" lon="2.2737">
        <ele>727</ele>
        <time>2019-05-18T14:37:15Z</time>
      </trkpt>
      <trkpt lat="45.54726" lon="2.27367">
        <ele>727</ele>
        <time>2019-05-18T14:37:16Z</time>
      </trkpt>
      <trkpt lat="45.54726" lon="2.27363">
        <ele>727</ele>
        <time>2019-05-18T14:37:17Z</time>
      </trkpt>
      <trkpt lat="45.54725" lon="2.27361">
        <ele>727</ele>
        <time>2019-05-18T14:37:18Z</time>
      </trkpt>
      <trkpt lat="45.54725" lon="2.27358">
        <ele>727</ele>
        <time>2019-05-18T14:37:19Z</time>
      </trkpt>
      <trkpt lat="45.54724" lon="2.27356">
        <ele>728</ele>
        <time>2019-05-18T14:37:20Z</time>
      </trkpt>
      <trkpt lat="45.54724" lon="2.27351">
        <ele>728</ele>
        <time>2019-05-18T14:37:21Z</time>
      </trkpt>
      <trkpt lat="45.54724" lon="2.27346">
        <ele>728</ele>
        <time>2019-05-18T14:37:22Z</time>
      </trkpt>
      <trkpt lat="45.54724" lon="2.27343">
        <ele>728</ele>
        <time>2019-05-18T14:37:23Z</time>
      </trkpt>
      <trkpt lat="45.54723" lon="2.27339">
        <ele>728</ele>
        <time>2019-05-18T14:37:24Z</time>
      </trkpt>
      <trkpt lat="45.54723" lon="2.27336">
        <ele>728</ele>
        <time>2019-05-18T14:37:25Z</time>
      </trkpt>
      <trkpt lat="45.54723" lon="2.27333">
        <ele>728</ele>
        <time>2019-05-18T14:37:26Z</time>
      </trkpt>
      <trkpt lat="45.54723" lon="2.2733">
        <ele>728</ele>
        <time>2019-05-18T14:37:27Z</time>
      </trkpt>
      <trkpt lat="45.54722" lon="2.27327">
        <ele>728</ele>
        <time>2019-05-18T14:37:28Z</time>
      </trkpt>
      <trkpt lat="45.54722" lon="2.27324">
        <ele>729</ele>
        <time>2019-05-18T14:37:29Z</time>
      </trkpt>
      <trkpt lat="45.54722" lon="2.27322">
        <ele>729</ele>
        <time>2019-05-18T14:37:30Z</time>
      </trkpt>
      <trkpt lat="45.54721" lon="2.27318">
        <ele>729</ele>
        <time>2019-05-18T14:37:31Z</time>
      </trkpt>
      <trkpt lat="45.54721" lon="2.27316">
        <ele>729</ele>
        <time>2019-05-18T14:37:32Z</time>
      </trkpt>
      <trkpt lat="45.5472" lon="2.27314">
        <ele>729</ele>
        <time>2019-05-18T14:37:33Z</time>
      </trkpt>
      <trkpt lat="45.5472" lon="2.27312">
        <ele>729</ele>
        <time>2019-05-18T14:37:34Z</time>
      </trkpt>
      <trkpt lat="45.5472" lon="2.27307">
        <ele>729</ele>
        <time>2019-05-18T14:37:35Z</time>
      </trkpt>
      <trkpt lat="45.5472" lon="2.27303">
        <ele>730</ele>
        <time>2019-05-18T14:37:36Z</time>
      </trkpt>
      <trkpt lat="45.5472" lon="2.273">
        <ele>730</ele>
        <time>2019-05-18T14:37:37Z</time>
      </trkpt>
      <trkpt lat="45.5472" lon="2.27297">
        <ele>730</ele>
        <time>2019-05-18T14:37:38Z</time>
      </trkpt>
      <trkpt lat="45.5472" lon="2.27294">
        <ele>730</ele>
        <time>2019-05-18T14:37:39Z</time>
      </trkpt>
      <trkpt lat="45.54721" lon="2.27291">
        <ele>730</ele>
        <time>2019-05-18T14:37:40Z</time>
      </trkpt>
      <trkpt lat="45.54721" lon="2.27289">
        <ele>730</ele>
        <time>2019-05-18T14:37:41Z</time>
      </trkpt>
      <trkpt lat="45.54721" lon="2.27287">
        <ele>731</ele>
        <time>2019-05-18T14:37:42Z</time>
      </trkpt>
      <trkpt lat="45.54721" lon="2.27282">
        <ele>731</ele>
        <time>2019-05-18T14:37:43Z</time>
      </trkpt>
      <trkpt lat="45.54722" lon="2.27279">
        <ele>731</ele>
        <time>2019-05-18T14:37:44Z</time>
      </trkpt>
      <trkpt lat="45.54722" lon="2.27275">
        <ele>731</ele>
        <time>2019-05-18T14:37:45Z</time>
      </trkpt>
      <trkpt lat="45.54722" lon="2.2727">
        <ele>731</ele>
        <time>2019-05-18T14:37:46Z</time>
      </trkpt>
      <trkpt lat="45.54722" lon="2.27267">
        <ele>732</ele>
        <time>2019-05-18T14:37:47Z</time>
      </trkpt>
      <trkpt lat="45.54722" lon="2.27263">
        <ele>732</ele>
        <time>2019-05-18T14:37:48Z</time>
      </trkpt>
      <trkpt lat="45.54722" lon="2.27259">
        <ele>732</ele>
        <time>2019-05-18T14:37:49Z</time>
      </trkpt>
      <trkpt lat="45.54722" lon="2.27255">
        <ele>732</ele>
        <time>2019-05-18T14:37:50Z</time>
      </trkpt>
      <trkpt lat="45.54722" lon="2.2725">
        <ele>732</ele>
        <time>2019-05-18T14:37:51Z</time>
      </trkpt>
      <trkpt lat="45.54723" lon="2.27246">
        <ele>732</ele>
        <time>2019-05-18T14:37:52Z</time>
      </trkpt>
      <trkpt lat="45.54723" lon="2.27242">
        <ele>732</ele>
        <time>2019-05-18T14:37:53Z</time>
      </trkpt>
      <trkpt lat="45.54722" lon="2.27238">
        <ele>732</ele>
        <time>2019-05-18T14:37:54Z</time>
      </trkpt>
      <trkpt lat="45.54722" lon="2.27235">
        <ele>733</ele>
        <time>2019-05-18T14:37:55Z</time>
      </trkpt>
      <trkpt lat="45.54722" lon="2.27232">
        <ele>733</ele>
        <time>2019-05-18T14:37:56Z</time>
      </trkpt>
      <trkpt lat="45.54721" lon="2.27229">
        <ele>733</ele>
        <time>2019-05-18T14:37:57Z</time>
      </trkpt>
      <trkpt lat="45.54721" lon="2.27227">
        <ele>733</ele>
        <time>2019-05-18T14:37:58Z</time>
      </trkpt>
      <trkpt lat="45.54721" lon="2.27225">
        <ele>733</ele>
        <time>2019-05-18T14:37:59Z</time>
      </trkpt>
      <trkpt lat="45.54721" lon="2.27221">
        <ele>733</ele>
        <time>2019-05-18T14:38:00Z</time>
      </trkpt>
      <trkpt lat="45.5472" lon="2.27217">
        <ele>733</ele>
        <time>2019-05-18T14:38:01Z</time>
      </trkpt>
      <trkpt lat="45.5472" lon="2.27214">
        <ele>733</ele>
        <time>2019-05-18T14:38:02Z</time>
      </trkpt>
      <trkpt lat="45.5472" lon="2.27211">
        <ele>733</ele>
        <time>2019-05-18T14:38:03Z</time>
      </trkpt>
      <trkpt lat="45.54719" lon="2.27208">
        <ele>734</ele>
        <time>2019-05-18T14:38:04Z</time>
      </trkpt>
      <trkpt lat="45.54719" lon="2.27205">
        <ele>734</ele>
        <time>2019-05-18T14:38:05Z</time>
      </trkpt>
      <trkpt lat="45.5472" lon="2.27204">
        <ele>734</ele>
        <time>2019-05-18T14:38:06Z</time>
      </trkpt>
      <trkpt lat="45.5472" lon="2.27201">
        <ele>734</ele>
        <time>2019-05-18T14:38:07Z</time>
      </trkpt>
      <trkpt lat="45.5472" lon="2.27199">
        <ele>734</ele>
        <time>2019-05-18T14:38:08Z</time>
      </trkpt>
      <trkpt lat="45.5472" lon="2.27197">
        <ele>734</ele>
        <time>2019-05-18T14:38:09Z</time>
      </trkpt>
      <trkpt lat="45.5472" lon="2.27195">
        <ele>734</ele>
        <time>2019-05-18T14:38:10Z</time>
      </trkpt>
      <trkpt lat="45.5472" lon="2.27192">
        <ele>734</ele>
        <time>2019-05-18T14:38:11Z</time>
      </trkpt>
      <trkpt lat="45.54721" lon="2.27189">
        <ele>734</ele>
        <time>2019-05-18T14:38:12Z</time>
      </trkpt>
      <trkpt lat="45.54721" lon="2.27185">
        <ele>734</ele>
        <time>2019-05-18T14:38:13Z</time>
      </trkpt>
      <trkpt lat="45.54721" lon="2.2718">
        <ele>734</ele>
        <time>2019-05-18T14:38:14Z</time>
      </trkpt>
      <trkpt lat="45.54722" lon="2.27176">
        <ele>734</ele>
        <time>2019-05-18T14:38:15Z</time>
      </trkpt>
      <trkpt lat="45.54722" lon="2.27172">
        <ele>734</ele>
        <time>2019-05-18T14:38:16Z</time>
      </trkpt>
      <trkpt lat="45.54723" lon="2.27167">
        <ele>735</ele>
        <time>2019-05-18T14:38:17Z</time>
      </trkpt>
      <trkpt lat="45.54724" lon="2.27163">
        <ele>735</ele>
        <time>2019-05-18T14:38:18Z</time>
      </trkpt>
      <trkpt lat="45.54725" lon="2.27161">
        <ele>735</ele>
        <time>2019-05-18T14:38:19Z</time>
      </trkpt>
      <trkpt lat="45.54726" lon="2.27158">
        <ele>735</ele>
        <time>2019-05-18T14:38:20Z</time>
      </trkpt>
      <trkpt lat="45.54726" lon="2.27156">
        <ele>735</ele>
        <time>2019-05-18T14:38:21Z</time>
      </trkpt>
      <trkpt lat="45.54727" lon="2.27153">
        <ele>735</ele>
        <time>2019-05-18T14:38:22Z</time>
      </trkpt>
      <trkpt lat="45.54728" lon="2.2715">
        <ele>735</ele>
        <time>2019-05-18T14:38:23Z</time>
      </trkpt>
      <trkpt lat="45.5473" lon="2.27148">
        <ele>735</ele>
        <time>2019-05-18T14:38:24Z</time>
      </trkpt>
      <trkpt lat="45.54731" lon="2.27144">
        <ele>735</ele>
        <time>2019-05-18T14:38:25Z</time>
      </trkpt>
      <trkpt lat="45.54733" lon="2.27141">
        <ele>735</ele>
        <time>2019-05-18T14:38:26Z</time>
      </trkpt>
      <trkpt lat="45.54734" lon="2.27137">
        <ele>735</ele>
        <time>2019-05-18T14:38:27Z</time>
      </trkpt>
      <trkpt lat="45.54735" lon="2.27134">
        <ele>736</ele>
        <time>2019-05-18T14:38:28Z</time>
      </trkpt>
      <trkpt lat="45.54737" lon="2.27131">
        <ele>736</ele>
        <time>2019-05-18T14:38:29Z</time>
      </trkpt>
      <trkpt lat="45.54738" lon="2.27127">
        <ele>736</ele>
        <time>2019-05-18T14:38:30Z</time>
      </trkpt>
      <trkpt lat="45.54739" lon="2.27124">
        <ele>736</ele>
        <time>2019-05-18T14:38:31Z</time>
      </trkpt>
      <trkpt lat="45.5474" lon="2.2712">
        <ele>736</ele>
        <time>2019-05-18T14:38:32Z</time>
      </trkpt>
      <trkpt lat="45.5474" lon="2.27117">
        <ele>736</ele>
        <time>2019-05-18T14:38:33Z</time>
      </trkpt>
      <trkpt lat="45.54741" lon="2.27114">
        <ele>737</ele>
        <time>2019-05-18T14:38:34Z</time>
      </trkpt>
      <trkpt lat="45.54741" lon="2.2711">
        <ele>737</ele>
        <time>2019-05-18T14:38:35Z</time>
      </trkpt>
      <trkpt lat="45.54741" lon="2.27107">
        <ele>737</ele>
        <time>2019-05-18T14:38:36Z</time>
      </trkpt>
      <trkpt lat="45.54741" lon="2.27104">
        <ele>737</ele>
        <time>2019-05-18T14:38:37Z</time>
      </trkpt>
      <trkpt lat="45.54741" lon="2.271">
        <ele>737</ele>
        <time>2019-05-18T14:38:38Z</time>
      </trkpt>
      <trkpt lat="45.54741" lon="2.27097">
        <ele>738</ele>
        <time>2019-05-18T14:38:39Z</time>
      </trkpt>
      <trkpt lat="45.54742" lon="2.27094">
        <ele>738</ele>
        <time>2019-05-18T14:38:40Z</time>
      </trkpt>
      <trkpt lat="45.54742" lon="2.27091">
        <ele>738</ele>
        <time>2019-05-18T14:38:41Z</time>
      </trkpt>
      <trkpt lat="45.54742" lon="2.27088">
        <ele>738</ele>
        <time>2019-05-18T14:38:42Z</time>
      </trkpt>
      <trkpt lat="45.54742" lon="2.27085">
        <ele>738</ele>
        <time>2019-05-18T14:38:43Z</time>
      </trkpt>
      <trkpt lat="45.54741" lon="2.27082">
        <ele>739</ele>
        <time>2019-05-18T14:38:44Z</time>
      </trkpt>
      <trkpt lat="45.54741" lon="2.27079">
        <ele>739</ele>
        <time>2019-05-18T14:38:45Z</time>
      </trkpt>
      <trkpt lat="45.54741" lon="2.27077">
        <ele>739</ele>
        <time>2019-05-18T14:38:46Z</time>
      </trkpt>
      <trkpt lat="45.54741" lon="2.27076">
        <ele>739</ele>
        <time>2019-05-18T14:38:47Z</time>
      </trkpt>
      <trkpt lat="45.54742" lon="2.27074">
        <ele>739</ele>
        <time>2019-05-18T14:38:48Z</time>
      </trkpt>
      <trkpt lat="45.54742" lon="2.27071">
        <ele>739</ele>
        <time>2019-05-18T14:38:49Z</time>
      </trkpt>
      <trkpt lat="45.54741" lon="2.27069">
        <ele>739</ele>
        <time>2019-05-18T14:38:50Z</time>
      </trkpt>
      <trkpt lat="45.54741" lon="2.27067">
        <ele>739</ele>
        <time>2019-05-18T14:38:51Z</time>
      </trkpt>
      <trkpt lat="45.54741" lon="2.27065">
        <ele>740</ele>
        <time>2019-05-18T14:38:52Z</time>
      </trkpt>
      <trkpt lat="45.54741" lon="2.27063">
        <ele>740</ele>
        <time>2019-05-18T14:38:53Z</time>
      </trkpt>
      <trkpt lat="45.54741" lon="2.27061">
        <ele>740</ele>
        <time>2019-05-18T14:38:54Z</time>
      </trkpt>
      <trkpt lat="45.54742" lon="2.27058">
        <ele>740</ele>
        <time>2019-05-18T14:38:55Z</time>
      </trkpt>
      <trkpt lat="45.54742" lon="2.27056">
        <ele>740</ele>
        <time>2019-05-18T14:38:56Z</time>
      </trkpt>
      <trkpt lat="45.54742" lon="2.27053">
        <ele>740</ele>
        <time>2019-05-18T14:38:57Z</time>
      </trkpt>
      <trkpt lat="45.54741" lon="2.27051">
        <ele>741</ele>
        <time>2019-05-18T14:38:58Z</time>
      </trkpt>
      <trkpt lat="45.54741" lon="2.27049">
        <ele>741</ele>
        <time>2019-05-18T14:38:59Z</time>
      </trkpt>
      <trkpt lat="45.54741" lon="2.27047">
        <ele>741</ele>
        <time>2019-05-18T14:39:00Z</time>
      </trkpt>
      <trkpt lat="45.54741" lon="2.27043">
        <ele>741</ele>
        <time>2019-05-18T14:39:01Z</time>
      </trkpt>
      <trkpt lat="45.54741" lon="2.2704">
        <ele>741</ele>
        <time>2019-05-18T14:39:02Z</time>
      </trkpt>
      <trkpt lat="45.54741" lon="2.27038">
        <ele>742</ele>
        <time>2019-05-18T14:39:03Z</time>
      </trkpt>
      <trkpt lat="45.54741" lon="2.27036">
        <ele>742</ele>
        <time>2019-05-18T14:39:04Z</time>
      </trkpt>
      <trkpt lat="45.54741" lon="2.27034">
        <ele>742</ele>
        <time>2019-05-18T14:39:05Z</time>
      </trkpt>
      <trkpt lat="45.54741" lon="2.27032">
        <ele>742</ele>
        <time>2019-05-18T14:39:06Z</time>
      </trkpt>
      <trkpt lat="45.54741" lon="2.27029">
        <ele>742</ele>
        <time>2019-05-18T14:39:07Z</time>
      </trkpt>
      <trkpt lat="45.54742" lon="2.27028">
        <ele>742</ele>
        <time>2019-05-18T14:39:08Z</time>
      </trkpt>
      <trkpt lat="45.54743" lon="2.27026">
        <ele>743</ele>
        <time>2019-05-18T14:39:09Z</time>
      </trkpt>
      <trkpt lat="45.54745" lon="2.27024">
        <ele>743</ele>
        <time>2019-05-18T14:39:10Z</time>
      </trkpt>
      <trkpt lat="45.54746" lon="2.27023">
        <ele>743</ele>
        <time>2019-05-18T14:39:11Z</time>
      </trkpt>
      <trkpt lat="45.54746" lon="2.27021">
        <ele>743</ele>
        <time>2019-05-18T14:39:12Z</time>
      </trkpt>
      <trkpt lat="45.54745" lon="2.27018">
        <ele>743</ele>
        <time>2019-05-18T14:39:13Z</time>
      </trkpt>
      <trkpt lat="45.54745" lon="2.27014">
        <ele>743</ele>
        <time>2019-05-18T14:39:14Z</time>
      </trkpt>
      <trkpt lat="45.54746" lon="2.27011">
        <ele>743</ele>
        <time>2019-05-18T14:39:15Z</time>
      </trkpt>
      <trkpt lat="45.54746" lon="2.27009">
        <ele>744</ele>
        <time>2019-05-18T14:39:16Z</time>
      </trkpt>
      <trkpt lat="45.54745" lon="2.27005">
        <ele>744</ele>
        <time>2019-05-18T14:39:17Z</time>
      </trkpt>
      <trkpt lat="45.54744" lon="2.27003">
        <ele>744</ele>
        <time>2019-05-18T14:39:18Z</time>
      </trkpt>
      <trkpt lat="45.54744" lon="2.27">
        <ele>744</ele>
        <time>2019-05-18T14:39:19Z</time>
      </trkpt>
      <trkpt lat="45.54744" lon="2.26998">
        <ele>744</ele>
        <time>2019-05-18T14:39:20Z</time>
      </trkpt>
      <trkpt lat="45.54745" lon="2.26995">
        <ele>744</ele>
        <time>2019-05-18T14:39:21Z</time>
      </trkpt>
      <trkpt lat="45.54746" lon="2.26992">
        <ele>744</ele>
        <time>2019-05-18T14:39:22Z</time>
      </trkpt>
      <trkpt lat="45.54746" lon="2.26989">
        <ele>745</ele>
        <time>2019-05-18T14:39:23Z</time>
      </trkpt>
      <trkpt lat="45.54746" lon="2.26987">
        <ele>745</ele>
        <time>2019-05-18T14:39:24Z</time>
      </trkpt>
      <trkpt lat="45.54747" lon="2.26985">
        <ele>745</ele>
        <time>2019-05-18T14:39:25Z</time>
      </trkpt>
      <trkpt lat="45.54747" lon="2.26982">
        <ele>745</ele>
        <time>2019-05-18T14:39:26Z</time>
      </trkpt>
      <trkpt lat="45.54747" lon="2.2698">
        <ele>745</ele>
        <time>2019-05-18T14:39:27Z</time>
      </trkpt>
      <trkpt lat="45.54748" lon="2.26977">
        <ele>745</ele>
        <time>2019-05-18T14:39:28Z</time>
      </trkpt>
      <trkpt lat="45.54749" lon="2.26976">
        <ele>745</ele>
        <time>2019-05-18T14:39:29Z</time>
      </trkpt>
      <trkpt lat="45.54749" lon="2.26974">
        <ele>746</ele>
        <time>2019-05-18T14:39:30Z</time>
      </trkpt>
      <trkpt lat="45.5475" lon="2.26973">
        <ele>746</ele>
        <time>2019-05-18T14:39:31Z</time>
      </trkpt>
      <trkpt lat="45.54751" lon="2.26971">
        <ele>746</ele>
        <time>2019-05-18T14:39:32Z</time>
      </trkpt>
      <trkpt lat="45.54753" lon="2.26969">
        <ele>746</ele>
        <time>2019-05-18T14:39:33Z</time>
      </trkpt>
      <trkpt lat="45.54754" lon="2.26966">
        <ele>747</ele>
        <time>2019-05-18T14:39:34Z</time>
      </trkpt>
      <trkpt lat="45.54755" lon="2.26965">
        <ele>747</ele>
        <time>2019-05-18T14:39:35Z</time>
      </trkpt>
      <trkpt lat="45.54756" lon="2.26964">
        <ele>747</ele>
        <time>2019-05-18T14:39:36Z</time>
      </trkpt>
      <trkpt lat="45.54757" lon="2.26962">
        <ele>747</ele>
        <time>2019-05-18T14:39:37Z</time>
      </trkpt>
      <trkpt lat="45.54759" lon="2.2696">
        <ele>748</ele>
        <time>2019-05-18T14:39:38Z</time>
      </trkpt>
      <trkpt lat="45.5476" lon="2.26958">
        <ele>748</ele>
        <time>2019-05-18T14:39:39Z</time>
      </trkpt>
      <trkpt lat="45.54761" lon="2.26956">
        <ele>748</ele>
        <time>2019-05-18T14:39:40Z</time>
      </trkpt>
      <trkpt lat="45.54762" lon="2.26954">
        <ele>749</ele>
        <time>2019-05-18T14:39:41Z</time>
      </trkpt>
      <trkpt lat="45.54763" lon="2.26952">
        <ele>749</ele>
        <time>2019-05-18T14:39:42Z</time>
      </trkpt>
      <trkpt lat="45.54764" lon="2.26951">
        <ele>749</ele>
        <time>2019-05-18T14:39:43Z</time>
      </trkpt>
      <trkpt lat="45.54765" lon="2.26949">
        <ele>749</ele>
        <time>2019-05-18T14:39:44Z</time>
      </trkpt>
      <trkpt lat="45.54767" lon="2.26948">
        <ele>750</ele>
        <time>2019-05-18T14:39:45Z</time>
      </trkpt>
      <trkpt lat="45.54768" lon="2.26946">
        <ele>750</ele>
        <time>2019-05-18T14:39:46Z</time>
      </trkpt>
      <trkpt lat="45.54769" lon="2.26944">
        <ele>750</ele>
        <time>2019-05-18T14:39:47Z</time>
      </trkpt>
      <trkpt lat="45.54771" lon="2.26943">
        <ele>750</ele>
        <time>2019-05-18T14:39:48Z</time>
      </trkpt>
      <trkpt lat="45.54772" lon="2.26942">
        <ele>750</ele>
        <time>2019-05-18T14:39:49Z</time>
      </trkpt>
      <trkpt lat="45.54774" lon="2.26941">
        <ele>751</ele>
        <time>2019-05-18T14:39:50Z</time>
      </trkpt>
      <trkpt lat="45.54775" lon="2.2694">
        <ele>751</ele>
        <time>2019-05-18T14:39:51Z</time>
      </trkpt>
      <trkpt lat="45.54776" lon="2.26939">
        <ele>751</ele>
        <time>2019-05-18T14:39:52Z</time>
      </trkpt>
      <trkpt lat="45.54778" lon="2.26938">
        <ele>751</ele>
        <time>2019-05-18T14:39:53Z</time>
      </trkpt>
      <trkpt lat="45.54779" lon="2.26938">
        <ele>751</ele>
        <time>2019-05-18T14:39:54Z</time>
      </trkpt>
      <trkpt lat="45.5478" lon="2.26937">
        <ele>752</ele>
        <time>2019-05-18T14:39:55Z</time>
      </trkpt>
      <trkpt lat="45.54782" lon="2.26936">
        <ele>752</ele>
        <time>2019-05-18T14:39:56Z</time>
      </trkpt>
      <trkpt lat="45.54784" lon="2.26935">
        <ele>752</ele>
        <time>2019-05-18T14:39:57Z</time>
      </trkpt>
      <trkpt lat="45.54785" lon="2.26935">
        <ele>752</ele>
        <time>2019-05-18T14:39:58Z</time>
      </trkpt>
      <trkpt lat="45.54787" lon="2.26935">
        <ele>752</ele>
        <time>2019-05-18T14:39:59Z</time>
      </trkpt>
      <trkpt lat="45.54789" lon="2.26934">
        <ele>752</ele>
        <time>2019-05-18T14:40:00Z</time>
      </trkpt>
      <trkpt lat="45.54791" lon="2.26933">
        <ele>752</ele>
        <time>2019-05-18T14:40:01Z</time>
      </trkpt>
      <trkpt lat="45.54792" lon="2.26933">
        <ele>752</ele>
        <time>2019-05-18T14:40:02Z</time>
      </trkpt>
      <trkpt lat="45.54794" lon="2.26932">
        <ele>753</ele>
        <time>2019-05-18T14:40:03Z</time>
      </trkpt>
      <trkpt lat="45.54796" lon="2.26932">
        <ele>753</ele>
        <time>2019-05-18T14:40:04Z</time>
      </trkpt>
      <trkpt lat="45.54797" lon="2.26931">
        <ele>753</ele>
        <time>2019-05-18T14:40:05Z</time>
      </trkpt>
      <trkpt lat="45.54799" lon="2.2693">
        <ele>753</ele>
        <time>2019-05-18T14:40:06Z</time>
      </trkpt>
      <trkpt lat="45.548" lon="2.2693">
        <ele>753</ele>
        <time>2019-05-18T14:40:07Z</time>
      </trkpt>
      <trkpt lat="45.54802" lon="2.26929">
        <ele>753</ele>
        <time>2019-05-18T14:40:08Z</time>
      </trkpt>
      <trkpt lat="45.54804" lon="2.26928">
        <ele>753</ele>
        <time>2019-05-18T14:40:09Z</time>
      </trkpt>
      <trkpt lat="45.54805" lon="2.26928">
        <ele>754</ele>
        <time>2019-05-18T14:40:10Z</time>
      </trkpt>
      <trkpt lat="45.54807" lon="2.26927">
        <ele>754</ele>
        <time>2019-05-18T14:40:11Z</time>
      </trkpt>
      <trkpt lat="45.54809" lon="2.26926">
        <ele>754</ele>
        <time>2019-05-18T14:40:12Z</time>
      </trkpt>
      <trkpt lat="45.5481" lon="2.26925">
        <ele>754</ele>
        <time>2019-05-18T14:40:13Z</time>
      </trkpt>
      <trkpt lat="45.54812" lon="2.26925">
        <ele>754</ele>
        <time>2019-05-18T14:40:14Z</time>
      </trkpt>
      <trkpt lat="45.54813" lon="2.26924">
        <ele>754</ele>
        <time>2019-05-18T14:40:15Z</time>
      </trkpt>
      <trkpt lat="45.54814" lon="2.26924">
        <ele>754</ele>
        <time>2019-05-18T14:40:16Z</time>
      </trkpt>
      <trkpt lat="45.54816" lon="2.26923">
        <ele>755</ele>
        <time>2019-05-18T14:40:17Z</time>
      </trkpt>
      <trkpt lat="45.54817" lon="2.26923">
        <ele>755</ele>
        <time>2019-05-18T14:40:18Z</time>
      </trkpt>
      <trkpt lat="45.54818" lon="2.26923">
        <ele>755</ele>
        <time>2019-05-18T14:40:19Z</time>
      </trkpt>
      <trkpt lat="45.5482" lon="2.26922">
        <ele>755</ele>
        <time>2019-05-18T14:40:20Z</time>
      </trkpt>
      <trkpt lat="45.54821" lon="2.26922">
        <ele>755</ele>
        <time>2019-05-18T14:40:21Z</time>
      </trkpt>
      <trkpt lat="45.54822" lon="2.26921">
        <ele>755</ele>
        <time>2019-05-18T14:40:22Z</time>
      </trkpt>
      <trkpt lat="45.54823" lon="2.2692">
        <ele>755</ele>
        <time>2019-05-18T14:40:23Z</time>
      </trkpt>
      <trkpt lat="45.54825" lon="2.2692">
        <ele>756</ele>
        <time>2019-05-18T14:40:24Z</time>
      </trkpt>
      <trkpt lat="45.54826" lon="2.26919">
        <ele>756</ele>
        <time>2019-05-18T14:40:25Z</time>
      </trkpt>
      <trkpt lat="45.54828" lon="2.26918">
        <ele>756</ele>
        <time>2019-05-18T14:40:26Z</time>
      </trkpt>
      <trkpt lat="45.54829" lon="2.26917">
        <ele>756</ele>
        <time>2019-05-18T14:40:27Z</time>
      </trkpt>
      <trkpt lat="45.5483" lon="2.26917">
        <ele>756</ele>
        <time>2019-05-18T14:40:28Z</time>
      </trkpt>
      <trkpt lat="45.54832" lon="2.26916">
        <ele>756</ele>
        <time>2019-05-18T14:40:29Z</time>
      </trkpt>
      <trkpt lat="45.54833" lon="2.26917">
        <ele>756</ele>
        <time>2019-05-18T14:40:30Z</time>
      </trkpt>
      <trkpt lat="45.54835" lon="2.26916">
        <ele>756</ele>
        <time>2019-05-18T14:40:31Z</time>
      </trkpt>
      <trkpt lat="45.54836" lon="2.26915">
        <ele>756</ele>
        <time>2019-05-18T14:40:32Z</time>
      </trkpt>
      <trkpt lat="45.54838" lon="2.26915">
        <ele>757</ele>
        <time>2019-05-18T14:40:33Z</time>
      </trkpt>
      <trkpt lat="45.54839" lon="2.26914">
        <ele>757</ele>
        <time>2019-05-18T14:40:34Z</time>
      </trkpt>
      <trkpt lat="45.5484" lon="2.26914">
        <ele>757</ele>
        <time>2019-05-18T14:40:35Z</time>
      </trkpt>
      <trkpt lat="45.54841" lon="2.26913">
        <ele>757</ele>
        <time>2019-05-18T14:40:36Z</time>
      </trkpt>
      <trkpt lat="45.54843" lon="2.26913">
        <ele>757</ele>
        <time>2019-05-18T14:40:37Z</time>
      </trkpt>
      <trkpt lat="45.54844" lon="2.26913">
        <ele>757</ele>
        <time>2019-05-18T14:40:38Z</time>
      </trkpt>
      <trkpt lat="45.54845" lon="2.26913">
        <ele>757</ele>
        <time>2019-05-18T14:40:39Z</time>
      </trkpt>
      <trkpt lat="45.54847" lon="2.26912">
        <ele>757</ele>
        <time>2019-05-18T14:40:40Z</time>
      </trkpt>
      <trkpt lat="45.54848" lon="2.26911">
        <ele>758</ele>
        <time>2019-05-18T14:40:41Z</time>
      </trkpt>
      <trkpt lat="45.5485" lon="2.26911">
        <ele>758</ele>
        <time>2019-05-18T14:40:42Z</time>
      </trkpt>
      <trkpt lat="45.54851" lon="2.26911">
        <ele>758</ele>
        <time>2019-05-18T14:40:43Z</time>
      </trkpt>
      <trkpt lat="45.54853" lon="2.2691">
        <ele>758</ele>
        <time>2019-05-18T14:40:44Z</time>
      </trkpt>
      <trkpt lat="45.54854" lon="2.26908">
        <ele>758</ele>
        <time>2019-05-18T14:40:45Z</time>
      </trkpt>
      <trkpt lat="45.54855" lon="2.26907">
        <ele>758</ele>
        <time>2019-05-18T14:40:46Z</time>
      </trkpt>
      <trkpt lat="45.54857" lon="2.26906">
        <ele>758</ele>
        <time>2019-05-18T14:40:47Z</time>
      </trkpt>
      <trkpt lat="45.54858" lon="2.26905">
        <ele>758</ele>
        <time>2019-05-18T14:40:48Z</time>
      </trkpt>
      <trkpt lat="45.54859" lon="2.26904">
        <ele>758</ele>
        <time>2019-05-18T14:40:49Z</time>
      </trkpt>
      <trkpt lat="45.5486" lon="2.26903">
        <ele>758</ele>
        <time>2019-05-18T14:40:50Z</time>
      </trkpt>
      <trkpt lat="45.54861" lon="2.26901">
        <ele>758</ele>
        <time>2019-05-18T14:40:51Z</time>
      </trkpt>
      <trkpt lat="45.54863" lon="2.26899">
        <ele>759</ele>
        <time>2019-05-18T14:40:52Z</time>
      </trkpt>
      <trkpt lat="45.54864" lon="2.26898">
        <ele>759</ele>
        <time>2019-05-18T14:40:53Z</time>
      </trkpt>
      <trkpt lat="45.54866" lon="2.26897">
        <ele>759</ele>
        <time>2019-05-18T14:40:54Z</time>
      </trkpt>
      <trkpt lat="45.54867" lon="2.26896">
        <ele>759</ele>
        <time>2019-05-18T14:40:55Z</time>
      </trkpt>
      <trkpt lat="45.54868" lon="2.26894">
        <ele>759</ele>
        <time>2019-05-18T14:40:56Z</time>
      </trkpt>
      <trkpt lat="45.54869" lon="2.26893">
        <ele>759</ele>
        <time>2019-05-18T14:40:57Z</time>
      </trkpt>
      <trkpt lat="45.5487" lon="2.26892">
        <ele>759</ele>
        <time>2019-05-18T14:40:58Z</time>
      </trkpt>
      <trkpt lat="45.54871" lon="2.26892">
        <ele>759</ele>
        <time>2019-05-18T14:40:59Z</time>
      </trkpt>
      <trkpt lat="45.54872" lon="2.26893">
        <ele>760</ele>
        <time>2019-05-18T14:41:00Z</time>
      </trkpt>
      <trkpt lat="45.54873" lon="2.26892">
        <ele>760</ele>
        <time>2019-05-18T14:41:01Z</time>
      </trkpt>
      <trkpt lat="45.54874" lon="2.2689">
        <ele>760</ele>
        <time>2019-05-18T14:41:02Z</time>
      </trkpt>
      <trkpt lat="45.54876" lon="2.26889">
        <ele>760</ele>
        <time>2019-05-18T14:41:03Z</time>
      </trkpt>
      <trkpt lat="45.54877" lon="2.26888">
        <ele>760</ele>
        <time>2019-05-18T14:41:04Z</time>
      </trkpt>
      <trkpt lat="45.54878" lon="2.26886">
        <ele>760</ele>
        <time>2019-05-18T14:41:05Z</time>
      </trkpt>
      <trkpt lat="45.54881" lon="2.26884">
        <ele>760</ele>
        <time>2019-05-18T14:41:06Z</time>
      </trkpt>
      <trkpt lat="45.54882" lon="2.26882">
        <ele>760</ele>
        <time>2019-05-18T14:41:07Z</time>
      </trkpt>
      <trkpt lat="45.54884" lon="2.26881">
        <ele>760</ele>
        <time>2019-05-18T14:41:08Z</time>
      </trkpt>
      <trkpt lat="45.54886" lon="2.26879">
        <ele>760</ele>
        <time>2019-05-18T14:41:09Z</time>
      </trkpt>
      <trkpt lat="45.54887" lon="2.26879">
        <ele>760</ele>
        <time>2019-05-18T14:41:10Z</time>
      </trkpt>
      <trkpt lat="45.54888" lon="2.26877">
        <ele>760</ele>
        <time>2019-05-18T14:41:11Z</time>
      </trkpt>
      <trkpt lat="45.54889" lon="2.26876">
        <ele>761</ele>
        <time>2019-05-18T14:41:12Z</time>
      </trkpt>
      <trkpt lat="45.5489" lon="2.26875">
        <ele>761</ele>
        <time>2019-05-18T14:41:13Z</time>
      </trkpt>
      <trkpt lat="45.54892" lon="2.26873">
        <ele>761</ele>
        <time>2019-05-18T14:41:14Z</time>
      </trkpt>
      <trkpt lat="45.54893" lon="2.2687">
        <ele>761</ele>
        <time>2019-05-18T14:41:15Z</time>
      </trkpt>
      <trkpt lat="45.54895" lon="2.26868">
        <ele>761</ele>
        <time>2019-05-18T14:41:16Z</time>
      </trkpt>
      <trkpt lat="45.54897" lon="2.26866">
        <ele>761</ele>
        <time>2019-05-18T14:41:17Z</time>
      </trkpt>
      <trkpt lat="45.54898" lon="2.26863">
        <ele>761</ele>
        <time>2019-05-18T14:41:18Z</time>
      </trkpt>
      <trkpt lat="45.549" lon="2.26861">
        <ele>761</ele>
        <time>2019-05-18T14:41:19Z</time>
      </trkpt>
      <trkpt lat="45.54902" lon="2.26859">
        <ele>761</ele>
        <time>2019-05-18T14:41:20Z</time>
      </trkpt>
      <trkpt lat="45.54904" lon="2.26856">
        <ele>761</ele>
        <time>2019-05-18T14:41:21Z</time>
      </trkpt>
      <trkpt lat="45.54906" lon="2.26853">
        <ele>761</ele>
        <time>2019-05-18T14:41:22Z</time>
      </trkpt>
      <trkpt lat="45.54908" lon="2.26851">
        <ele>761</ele>
        <time>2019-05-18T14:41:23Z</time>
      </trkpt>
      <trkpt lat="45.54909" lon="2.26848">
        <ele>761</ele>
        <time>2019-05-18T14:41:24Z</time>
      </trkpt>
      <trkpt lat="45.54911" lon="2.26846">
        <ele>761</ele>
        <time>2019-05-18T14:41:25Z</time>
      </trkpt>
      <trkpt lat="45.54913" lon="2.26844">
        <ele>761</ele>
        <time>2019-05-18T14:41:26Z</time>
      </trkpt>
      <trkpt lat="45.54915" lon="2.26842">
        <ele>761</ele>
        <time>2019-05-18T14:41:27Z</time>
      </trkpt>
      <trkpt lat="45.54916" lon="2.2684">
        <ele>761</ele>
        <time>2019-05-18T14:41:28Z</time>
      </trkpt>
      <trkpt lat="45.54918" lon="2.26838">
        <ele>762</ele>
        <time>2019-05-18T14:41:29Z</time>
      </trkpt>
      <trkpt lat="45.5492" lon="2.26836">
        <ele>762</ele>
        <time>2019-05-18T14:41:30Z</time>
      </trkpt>
      <trkpt lat="45.54922" lon="2.26834">
        <ele>762</ele>
        <time>2019-05-18T14:41:31Z</time>
      </trkpt>
      <trkpt lat="45.54924" lon="2.26832">
        <ele>762</ele>
        <time>2019-05-18T14:41:32Z</time>
      </trkpt>
      <trkpt lat="45.54926" lon="2.2683">
        <ele>761</ele>
        <time>2019-05-18T14:41:33Z</time>
      </trkpt>
      <trkpt lat="45.54928" lon="2.26829">
        <ele>761</ele>
        <time>2019-05-18T14:41:34Z</time>
      </trkpt>
      <trkpt lat="45.54931" lon="2.26827">
        <ele>761</ele>
        <time>2019-05-18T14:41:35Z</time>
      </trkpt>
      <trkpt lat="45.54933" lon="2.26825">
        <ele>761</ele>
        <time>2019-05-18T14:41:36Z</time>
      </trkpt>
      <trkpt lat="45.54937" lon="2.26822">
        <ele>761</ele>
        <time>2019-05-18T14:41:37Z</time>
      </trkpt>
      <trkpt lat="45.5494" lon="2.26819">
        <ele>760</ele>
        <time>2019-05-18T14:41:38Z</time>
      </trkpt>
      <trkpt lat="45.54944" lon="2.26816">
        <ele>760</ele>
        <time>2019-05-18T14:41:39Z</time>
      </trkpt>
      <trkpt lat="45.54946" lon="2.26813">
        <ele>760</ele>
        <time>2019-05-18T14:41:40Z</time>
      </trkpt>
      <trkpt lat="45.5495" lon="2.26811">
        <ele>760</ele>
        <time>2019-05-18T14:41:41Z</time>
      </trkpt>
      <trkpt lat="45.54953" lon="2.26808">
        <ele>760</ele>
        <time>2019-05-18T14:41:42Z</time>
      </trkpt>
      <trkpt lat="45.54957" lon="2.26803">
        <ele>759</ele>
        <time>2019-05-18T14:41:43Z</time>
      </trkpt>
      <trkpt lat="45.54962" lon="2.26799">
        <ele>759</ele>
        <time>2019-05-18T14:41:44Z</time>
      </trkpt>
      <trkpt lat="45.54966" lon="2.26795">
        <ele>759</ele>
        <time>2019-05-18T14:41:45Z</time>
      </trkpt>
      <trkpt lat="45.54971" lon="2.2679">
        <ele>758</ele>
        <time>2019-05-18T14:41:46Z</time>
      </trkpt>
      <trkpt lat="45.54974" lon="2.26785">
        <ele>758</ele>
        <time>2019-05-18T14:41:47Z</time>
      </trkpt>
      <trkpt lat="45.54978" lon="2.2678">
        <ele>758</ele>
        <time>2019-05-18T14:41:48Z</time>
      </trkpt>
      <trkpt lat="45.54982" lon="2.26775">
        <ele>758</ele>
        <time>2019-05-18T14:41:49Z</time>
      </trkpt>
      <trkpt lat="45.54987" lon="2.26769">
        <ele>757</ele>
        <time>2019-05-18T14:41:50Z</time>
      </trkpt>
      <trkpt lat="45.54992" lon="2.26761">
        <ele>757</ele>
        <time>2019-05-18T14:41:51Z</time>
      </trkpt>
      <trkpt lat="45.54997" lon="2.26754">
        <ele>756</ele>
        <time>2019-05-18T14:41:52Z</time>
      </trkpt>
      <trkpt lat="45.55002" lon="2.26745">
        <ele>755</ele>
        <time>2019-05-18T14:41:53Z</time>
      </trkpt>
      <trkpt lat="45.55007" lon="2.26736">
        <ele>754</ele>
        <time>2019-05-18T14:41:54Z</time>
      </trkpt>
      <trkpt lat="45.55012" lon="2.26727">
        <ele>753</ele>
        <time>2019-05-18T14:41:55Z</time>
      </trkpt>
      <trkpt lat="45.55016" lon="2.26719">
        <ele>752</ele>
        <time>2019-05-18T14:41:56Z</time>
      </trkpt>
      <trkpt lat="45.55022" lon="2.2671">
        <ele>752</ele>
        <time>2019-05-18T14:41:57Z</time>
      </trkpt>
      <trkpt lat="45.55028" lon="2.26699">
        <ele>751</ele>
        <time>2019-05-18T14:41:58Z</time>
      </trkpt>
      <trkpt lat="45.55035" lon="2.26691">
        <ele>751</ele>
        <time>2019-05-18T14:41:59Z</time>
      </trkpt>
      <trkpt lat="45.55042" lon="2.26684">
        <ele>751</ele>
        <time>2019-05-18T14:42:00Z</time>
      </trkpt>
      <trkpt lat="45.5505" lon="2.26676">
        <ele>750</ele>
        <time>2019-05-18T14:42:01Z</time>
      </trkpt>
      <trkpt lat="45.55056" lon="2.26669">
        <ele>750</ele>
        <time>2019-05-18T14:42:02Z</time>
      </trkpt>
      <trkpt lat="45.55061" lon="2.26661">
        <ele>750</ele>
        <time>2019-05-18T14:42:03Z</time>
      </trkpt>
      <trkpt lat="45.55064" lon="2.26653">
        <ele>749</ele>
        <time>2019-05-18T14:42:04Z</time>
      </trkpt>
      <trkpt lat="45.55065" lon="2.26646">
        <ele>749</ele>
        <time>2019-05-18T14:42:05Z</time>
      </trkpt>
      <trkpt lat="45.55065" lon="2.26638">
        <ele>748</ele>
        <time>2019-05-18T14:42:06Z</time>
      </trkpt>
      <trkpt lat="45.55065" lon="2.26629">
        <ele>748</ele>
        <time>2019-05-18T14:42:07Z</time>
      </trkpt>
      <trkpt lat="45.55065" lon="2.2662">
        <ele>748</ele>
        <time>2019-05-18T14:42:08Z</time>
      </trkpt>
      <trkpt lat="45.55065" lon="2.26612">
        <ele>747</ele>
        <time>2019-05-18T14:42:09Z</time>
      </trkpt>
      <trkpt lat="45.55064" lon="2.26603">
        <ele>747</ele>
        <time>2019-05-18T14:42:10Z</time>
      </trkpt>
      <trkpt lat="45.55063" lon="2.26592">
        <ele>746</ele>
        <time>2019-05-18T14:42:11Z</time>
      </trkpt>
      <trkpt lat="45.55063" lon="2.26583">
        <ele>746</ele>
        <time>2019-05-18T14:42:12Z</time>
      </trkpt>
      <trkpt lat="45.55062" lon="2.26574">
        <ele>745</ele>
        <time>2019-05-18T14:42:13Z</time>
      </trkpt>
      <trkpt lat="45.55063" lon="2.26567">
        <ele>745</ele>
        <time>2019-05-18T14:42:14Z</time>
      </trkpt>
      <trkpt lat="45.55063" lon="2.2656">
        <ele>745</ele>
        <time>2019-05-18T14:42:15Z</time>
      </trkpt>
      <trkpt lat="45.55064" lon="2.26556">
        <ele>744</ele>
        <time>2019-05-18T14:42:16Z</time>
      </trkpt>
      <trkpt lat="45.55067" lon="2.26552">
        <ele>744</ele>
        <time>2019-05-18T14:42:17Z</time>
      </trkpt>
      <trkpt lat="45.55069" lon="2.2655">
        <ele>744</ele>
        <time>2019-05-18T14:42:18Z</time>
      </trkpt>
      <trkpt lat="45.55072" lon="2.26549">
        <ele>744</ele>
        <time>2019-05-18T14:42:19Z</time>
      </trkpt>
      <trkpt lat="45.55074" lon="2.26546">
        <ele>744</ele>
        <time>2019-05-18T14:42:20Z</time>
      </trkpt>
      <trkpt lat="45.55077" lon="2.26544">
        <ele>744</ele>
        <time>2019-05-18T14:42:21Z</time>
      </trkpt>
      <trkpt lat="45.55079" lon="2.26543">
        <ele>744</ele>
        <time>2019-05-18T14:42:22Z</time>
      </trkpt>
      <trkpt lat="45.55082" lon="2.26541">
        <ele>743</ele>
        <time>2019-05-18T14:42:23Z</time>
      </trkpt>
      <trkpt lat="45.55084" lon="2.2654">
        <ele>743</ele>
        <time>2019-05-18T14:42:24Z</time>
      </trkpt>
      <trkpt lat="45.55087" lon="2.26538">
        <ele>743</ele>
        <time>2019-05-18T14:42:25Z</time>
      </trkpt>
      <trkpt lat="45.55091" lon="2.26536">
        <ele>743</ele>
        <time>2019-05-18T14:42:26Z</time>
      </trkpt>
      <trkpt lat="45.55095" lon="2.26533">
        <ele>742</ele>
        <time>2019-05-18T14:42:27Z</time>
      </trkpt>
      <trkpt lat="45.551" lon="2.2653">
        <ele>742</ele>
        <time>2019-05-18T14:42:28Z</time>
      </trkpt>
      <trkpt lat="45.55104" lon="2.26527">
        <ele>741</ele>
        <time>2019-05-18T14:42:29Z</time>
      </trkpt>
      <trkpt lat="45.55109" lon="2.26526">
        <ele>741</ele>
        <time>2019-05-18T14:42:30Z</time>
      </trkpt>
      <trkpt lat="45.55114" lon="2.26524">
        <ele>741</ele>
        <time>2019-05-18T14:42:31Z</time>
      </trkpt>
      <trkpt lat="45.55118" lon="2.26523">
        <ele>741</ele>
        <time>2019-05-18T14:42:32Z</time>
      </trkpt>
      <trkpt lat="45.55123" lon="2.26521">
        <ele>741</ele>
        <time>2019-05-18T14:42:33Z</time>
      </trkpt>
      <trkpt lat="45.55126" lon="2.2652">
        <ele>741</ele>
        <time>2019-05-18T14:42:34Z</time>
      </trkpt>
      <trkpt lat="45.55128" lon="2.26519">
        <ele>741</ele>
        <time>2019-05-18T14:42:35Z</time>
      </trkpt>
      <trkpt lat="45.55131" lon="2.26518">
        <ele>741</ele>
        <time>2019-05-18T14:42:36Z</time>
      </trkpt>
      <trkpt lat="45.55133" lon="2.26518">
        <ele>741</ele>
        <time>2019-05-18T14:42:37Z</time>
      </trkpt>
      <trkpt lat="45.55135" lon="2.26518">
        <ele>741</ele>
        <time>2019-05-18T14:42:38Z</time>
      </trkpt>
      <trkpt lat="45.55135" lon="2.26518">
        <ele>741</ele>
        <time>2019-05-18T14:42:39Z</time>
      </trkpt>
      <trkpt lat="45.55137" lon="2.26517">
        <ele>741</ele>
        <time>2019-05-18T14:42:40Z</time>
      </trkpt>
      <trkpt lat="45.5514" lon="2.26516">
        <ele>741</ele>
        <time>2019-05-18T14:42:41Z</time>
      </trkpt>
      <trkpt lat="45.55143" lon="2.26513">
        <ele>741</ele>
        <time>2019-05-18T14:42:42Z</time>
      </trkpt>
      <trkpt lat="45.55147" lon="2.26514">
        <ele>741</ele>
        <time>2019-05-18T14:42:43Z</time>
      </trkpt>
      <trkpt lat="45.5515" lon="2.26513">
        <ele>741</ele>
        <time>2019-05-18T14:42:44Z</time>
      </trkpt>
      <trkpt lat="45.55152" lon="2.26511">
        <ele>741</ele>
        <time>2019-05-18T14:42:45Z</time>
      </trkpt>
      <trkpt lat="45.55154" lon="2.2651">
        <ele>741</ele>
        <time>2019-05-18T14:42:46Z</time>
      </trkpt>
      <trkpt lat="45.55158" lon="2.26509">
        <ele>742</ele>
        <time>2019-05-18T14:42:47Z</time>
      </trkpt>
      <trkpt lat="45.5516" lon="2.26509">
        <ele>742</ele>
        <time>2019-05-18T14:42:48Z</time>
      </trkpt>
      <trkpt lat="45.55161" lon="2.26506">
        <ele>742</ele>
        <time>2019-05-18T14:42:49Z</time>
      </trkpt>
      <trkpt lat="45.55162" lon="2.26506">
        <ele>743</ele>
        <time>2019-05-18T14:42:50Z</time>
      </trkpt>
      <trkpt lat="45.55163" lon="2.26504">
        <ele>743</ele>
        <time>2019-05-18T14:42:51Z</time>
      </trkpt>
      <trkpt lat="45.55165" lon="2.26503">
        <ele>743</ele>
        <time>2019-05-18T14:42:52Z</time>
      </trkpt>
      <trkpt lat="45.55167" lon="2.26502">
        <ele>743</ele>
        <time>2019-05-18T14:42:53Z</time>
      </trkpt>
      <trkpt lat="45.55169" lon="2.26502">
        <ele>744</ele>
        <time>2019-05-18T14:42:54Z</time>
      </trkpt>
      <trkpt lat="45.55171" lon="2.26501">
        <ele>744</ele>
        <time>2019-05-18T14:42:55Z</time>
      </trkpt>
      <trkpt lat="45.55173" lon="2.265">
        <ele>744</ele>
        <time>2019-05-18T14:42:56Z</time>
      </trkpt>
      <trkpt lat="45.55175" lon="2.26499">
        <ele>744</ele>
        <time>2019-05-18T14:42:57Z</time>
      </trkpt>
      <trkpt lat="45.55177" lon="2.26498">
        <ele>745</ele>
        <time>2019-05-18T14:42:58Z</time>
      </trkpt>
      <trkpt lat="45.55179" lon="2.26496">
        <ele>745</ele>
        <time>2019-05-18T14:42:59Z</time>
      </trkpt>
      <trkpt lat="45.55181" lon="2.26496">
        <ele>745</ele>
        <time>2019-05-18T14:43:00Z</time>
      </trkpt>
      <trkpt lat="45.55183" lon="2.26496">
        <ele>745</ele>
        <time>2019-05-18T14:43:01Z</time>
      </trkpt>
      <trkpt lat="45.55186" lon="2.26495">
        <ele>745</ele>
        <time>2019-05-18T14:43:02Z</time>
      </trkpt>
      <trkpt lat="45.55189" lon="2.26494">
        <ele>745</ele>
        <time>2019-05-18T14:43:03Z</time>
      </trkpt>
      <trkpt lat="45.55191" lon="2.26493">
        <ele>745</ele>
        <time>2019-05-18T14:43:04Z</time>
      </trkpt>
      <trkpt lat="45.55193" lon="2.26492">
        <ele>745</ele>
        <time>2019-05-18T14:43:05Z</time>
      </trkpt>
      <trkpt lat="45.55196" lon="2.26491">
        <ele>745</ele>
        <time>2019-05-18T14:43:06Z</time>
      </trkpt>
      <trkpt lat="45.55198" lon="2.26491">
        <ele>745</ele>
        <time>2019-05-18T14:43:07Z</time>
      </trkpt>
      <trkpt lat="45.55201" lon="2.26491">
        <ele>745</ele>
        <time>2019-05-18T14:43:09Z</time>
      </trkpt>
      <trkpt lat="45.55206" lon="2.26487">
        <ele>745</ele>
        <time>2019-05-18T14:43:10Z</time>
      </trkpt>
      <trkpt lat="45.55209" lon="2.26484">
        <ele>745</ele>
        <time>2019-05-18T14:43:11Z</time>
      </trkpt>
      <trkpt lat="45.55212" lon="2.26482">
        <ele>745</ele>
        <time>2019-05-18T14:43:12Z</time>
      </trkpt>
      <trkpt lat="45.55214" lon="2.26479">
        <ele>745</ele>
        <time>2019-05-18T14:43:13Z</time>
      </trkpt>
      <trkpt lat="45.55217" lon="2.26476">
        <ele>745</ele>
        <time>2019-05-18T14:43:14Z</time>
      </trkpt>
      <trkpt lat="45.55219" lon="2.26474">
        <ele>744</ele>
        <time>2019-05-18T14:43:15Z</time>
      </trkpt>
      <trkpt lat="45.55223" lon="2.26472">
        <ele>744</ele>
        <time>2019-05-18T14:43:16Z</time>
      </trkpt>
      <trkpt lat="45.55226" lon="2.26468">
        <ele>744</ele>
        <time>2019-05-18T14:43:17Z</time>
      </trkpt>
      <trkpt lat="45.55231" lon="2.26465">
        <ele>743</ele>
        <time>2019-05-18T14:43:18Z</time>
      </trkpt>
      <trkpt lat="45.55236" lon="2.26462">
        <ele>743</ele>
        <time>2019-05-18T14:43:19Z</time>
      </trkpt>
      <trkpt lat="45.55242" lon="2.2646">
        <ele>743</ele>
        <time>2019-05-18T14:43:20Z</time>
      </trkpt>
      <trkpt lat="45.55247" lon="2.26459">
        <ele>743</ele>
        <time>2019-05-18T14:43:21Z</time>
      </trkpt>
      <trkpt lat="45.55251" lon="2.26461">
        <ele>743</ele>
        <time>2019-05-18T14:43:22Z</time>
      </trkpt>
      <trkpt lat="45.55255" lon="2.26465">
        <ele>742</ele>
        <time>2019-05-18T14:43:23Z</time>
      </trkpt>
      <trkpt lat="45.55259" lon="2.26469">
        <ele>742</ele>
        <time>2019-05-18T14:43:24Z</time>
      </trkpt>
      <trkpt lat="45.55263" lon="2.26471">
        <ele>743</ele>
        <time>2019-05-18T14:43:25Z</time>
      </trkpt>
      <trkpt lat="45.55267" lon="2.26473">
        <ele>743</ele>
        <time>2019-05-18T14:43:26Z</time>
      </trkpt>
      <trkpt lat="45.5527" lon="2.26474">
        <ele>743</ele>
        <time>2019-05-18T14:43:27Z</time>
      </trkpt>
      <trkpt lat="45.55273" lon="2.26475">
        <ele>743</ele>
        <time>2019-05-18T14:43:28Z</time>
      </trkpt>
      <trkpt lat="45.55275" lon="2.26474">
        <ele>743</ele>
        <time>2019-05-18T14:43:29Z</time>
      </trkpt>
      <trkpt lat="45.55278" lon="2.26475">
        <ele>743</ele>
        <time>2019-05-18T14:43:30Z</time>
      </trkpt>
      <trkpt lat="45.5528" lon="2.26476">
        <ele>743</ele>
        <time>2019-05-18T14:43:31Z</time>
      </trkpt>
      <trkpt lat="45.55283" lon="2.26476">
        <ele>743</ele>
        <time>2019-05-18T14:43:33Z</time>
      </trkpt>
      <trkpt lat="45.55287" lon="2.26478">
        <ele>744</ele>
        <time>2019-05-18T14:43:34Z</time>
      </trkpt>
      <trkpt lat="45.55289" lon="2.26477">
        <ele>744</ele>
        <time>2019-05-18T14:43:35Z</time>
      </trkpt>
      <trkpt lat="45.55292" lon="2.26476">
        <ele>745</ele>
        <time>2019-05-18T14:43:36Z</time>
      </trkpt>
      <trkpt lat="45.55296" lon="2.26476">
        <ele>745</ele>
        <time>2019-05-18T14:43:37Z</time>
      </trkpt>
      <trkpt lat="45.55298" lon="2.26476">
        <ele>745</ele>
        <time>2019-05-18T14:43:38Z</time>
      </trkpt>
      <trkpt lat="45.553" lon="2.26476">
        <ele>746</ele>
        <time>2019-05-18T14:43:39Z</time>
      </trkpt>
      <trkpt lat="45.55302" lon="2.26476">
        <ele>746</ele>
        <time>2019-05-18T14:43:40Z</time>
      </trkpt>
      <trkpt lat="45.55304" lon="2.26475">
        <ele>746</ele>
        <time>2019-05-18T14:43:41Z</time>
      </trkpt>
      <trkpt lat="45.55306" lon="2.26475">
        <ele>747</ele>
        <time>2019-05-18T14:43:42Z</time>
      </trkpt>
      <trkpt lat="45.55308" lon="2.26475">
        <ele>747</ele>
        <time>2019-05-18T14:43:43Z</time>
      </trkpt>
      <trkpt lat="45.5531" lon="2.26475">
        <ele>747</ele>
        <time>2019-05-18T14:43:44Z</time>
      </trkpt>
      <trkpt lat="45.55312" lon="2.26474">
        <ele>747</ele>
        <time>2019-05-18T14:43:45Z</time>
      </trkpt>
      <trkpt lat="45.55314" lon="2.26473">
        <ele>747</ele>
        <time>2019-05-18T14:43:46Z</time>
      </trkpt>
      <trkpt lat="45.55317" lon="2.26471">
        <ele>748</ele>
        <time>2019-05-18T14:43:47Z</time>
      </trkpt>
      <trkpt lat="45.55319" lon="2.2647">
        <ele>748</ele>
        <time>2019-05-18T14:43:48Z</time>
      </trkpt>
      <trkpt lat="45.55321" lon="2.26469">
        <ele>748</ele>
        <time>2019-05-18T14:43:49Z</time>
      </trkpt>
      <trkpt lat="45.55324" lon="2.26468">
        <ele>748</ele>
        <time>2019-05-18T14:43:50Z</time>
      </trkpt>
      <trkpt lat="45.55325" lon="2.26468">
        <ele>748</ele>
        <time>2019-05-18T14:43:51Z</time>
      </trkpt>
      <trkpt lat="45.55326" lon="2.26468">
        <ele>749</ele>
        <time>2019-05-18T14:43:52Z</time>
      </trkpt>
      <trkpt lat="45.55329" lon="2.26466">
        <ele>749</ele>
        <time>2019-05-18T14:43:53Z</time>
      </trkpt>
      <trkpt lat="45.55331" lon="2.26465">
        <ele>749</ele>
        <time>2019-05-18T14:43:54Z</time>
      </trkpt>
      <trkpt lat="45.55333" lon="2.26465">
        <ele>749</ele>
        <time>2019-05-18T14:43:55Z</time>
      </trkpt>
      <trkpt lat="45.55333" lon="2.26464">
        <ele>749</ele>
        <time>2019-05-18T14:43:56Z</time>
      </trkpt>
      <trkpt lat="45.55334" lon="2.26464">
        <ele>749</ele>
        <time>2019-05-18T14:43:57Z</time>
      </trkpt>
      <trkpt lat="45.55335" lon="2.26463">
        <ele>750</ele>
        <time>2019-05-18T14:43:58Z</time>
      </trkpt>
      <trkpt lat="45.55337" lon="2.26462">
        <ele>750</ele>
        <time>2019-05-18T14:43:59Z</time>
      </trkpt>
      <trkpt lat="45.5534" lon="2.26461">
        <ele>750</ele>
        <time>2019-05-18T14:44:00Z</time>
      </trkpt>
      <trkpt lat="45.55342" lon="2.2646">
        <ele>750</ele>
        <time>2019-05-18T14:44:02Z</time>
      </trkpt>
      <trkpt lat="45.55347" lon="2.26457">
        <ele>751</ele>
        <time>2019-05-18T14:44:03Z</time>
      </trkpt>
      <trkpt lat="45.55349" lon="2.26456">
        <ele>751</ele>
        <time>2019-05-18T14:44:04Z</time>
      </trkpt>
      <trkpt lat="45.55351" lon="2.26454">
        <ele>751</ele>
        <time>2019-05-18T14:44:05Z</time>
      </trkpt>
      <trkpt lat="45.55353" lon="2.26453">
        <ele>752</ele>
        <time>2019-05-18T14:44:06Z</time>
      </trkpt>
      <trkpt lat="45.55354" lon="2.26451">
        <ele>752</ele>
        <time>2019-05-18T14:44:07Z</time>
      </trkpt>
      <trkpt lat="45.55357" lon="2.26449">
        <ele>752</ele>
        <time>2019-05-18T14:44:08Z</time>
      </trkpt>
      <trkpt lat="45.55358" lon="2.26447">
        <ele>752</ele>
        <time>2019-05-18T14:44:09Z</time>
      </trkpt>
      <trkpt lat="45.5536" lon="2.26446">
        <ele>753</ele>
        <time>2019-05-18T14:44:10Z</time>
      </trkpt>
      <trkpt lat="45.55362" lon="2.26443">
        <ele>753</ele>
        <time>2019-05-18T14:44:11Z</time>
      </trkpt>
      <trkpt lat="45.55363" lon="2.2644">
        <ele>753</ele>
        <time>2019-05-18T14:44:12Z</time>
      </trkpt>
      <trkpt lat="45.55365" lon="2.26438">
        <ele>753</ele>
        <time>2019-05-18T14:44:13Z</time>
      </trkpt>
      <trkpt lat="45.55367" lon="2.26435">
        <ele>754</ele>
        <time>2019-05-18T14:44:14Z</time>
      </trkpt>
      <trkpt lat="45.55368" lon="2.26432">
        <ele>754</ele>
        <time>2019-05-18T14:44:16Z</time>
      </trkpt>
      <trkpt lat="45.55371" lon="2.26429">
        <ele>754</ele>
        <time>2019-05-18T14:44:17Z</time>
      </trkpt>
      <trkpt lat="45.55372" lon="2.26426">
        <ele>755</ele>
        <time>2019-05-18T14:44:18Z</time>
      </trkpt>
      <trkpt lat="45.55373" lon="2.26423">
        <ele>755</ele>
        <time>2019-05-18T14:44:19Z</time>
      </trkpt>
      <trkpt lat="45.55374" lon="2.2642">
        <ele>755</ele>
        <time>2019-05-18T14:44:20Z</time>
      </trkpt>
      <trkpt lat="45.55375" lon="2.26418">
        <ele>755</ele>
        <time>2019-05-18T14:44:21Z</time>
      </trkpt>
      <trkpt lat="45.55376" lon="2.26417">
        <ele>755</ele>
        <time>2019-05-18T14:44:22Z</time>
      </trkpt>
      <trkpt lat="45.55378" lon="2.26415">
        <ele>755</ele>
        <time>2019-05-18T14:44:23Z</time>
      </trkpt>
      <trkpt lat="45.55379" lon="2.26412">
        <ele>755</ele>
        <time>2019-05-18T14:44:24Z</time>
      </trkpt>
      <trkpt lat="45.55381" lon="2.26409">
        <ele>755</ele>
        <time>2019-05-18T14:44:25Z</time>
      </trkpt>
      <trkpt lat="45.55382" lon="2.26406">
        <ele>755</ele>
        <time>2019-05-18T14:44:26Z</time>
      </trkpt>
      <trkpt lat="45.55383" lon="2.26402">
        <ele>755</ele>
        <time>2019-05-18T14:44:27Z</time>
      </trkpt>
      <trkpt lat="45.55384" lon="2.26399">
        <ele>755</ele>
        <time>2019-05-18T14:44:28Z</time>
      </trkpt>
      <trkpt lat="45.55386" lon="2.26397">
        <ele>755</ele>
        <time>2019-05-18T14:44:29Z</time>
      </trkpt>
      <trkpt lat="45.55388" lon="2.26394">
        <ele>755</ele>
        <time>2019-05-18T14:44:30Z</time>
      </trkpt>
      <trkpt lat="45.5539" lon="2.26392">
        <ele>755</ele>
        <time>2019-05-18T14:44:31Z</time>
      </trkpt>
      <trkpt lat="45.55391" lon="2.26389">
        <ele>755</ele>
        <time>2019-05-18T14:44:32Z</time>
      </trkpt>
      <trkpt lat="45.55392" lon="2.26387">
        <ele>756</ele>
        <time>2019-05-18T14:44:33Z</time>
      </trkpt>
      <trkpt lat="45.55393" lon="2.26384">
        <ele>756</ele>
        <time>2019-05-18T14:44:34Z</time>
      </trkpt>
      <trkpt lat="45.55393" lon="2.2638">
        <ele>756</ele>
        <time>2019-05-18T14:44:35Z</time>
      </trkpt>
      <trkpt lat="45.55393" lon="2.26377">
        <ele>756</ele>
        <time>2019-05-18T14:44:36Z</time>
      </trkpt>
      <trkpt lat="45.55393" lon="2.26374">
        <ele>756</ele>
        <time>2019-05-18T14:44:37Z</time>
      </trkpt>
      <trkpt lat="45.55393" lon="2.2637">
        <ele>756</ele>
        <time>2019-05-18T14:44:39Z</time>
      </trkpt>
      <trkpt lat="45.55394" lon="2.26366">
        <ele>756</ele>
        <time>2019-05-18T14:44:40Z</time>
      </trkpt>
      <trkpt lat="45.55394" lon="2.26363">
        <ele>756</ele>
        <time>2019-05-18T14:44:41Z</time>
      </trkpt>
      <trkpt lat="45.55394" lon="2.2636">
        <ele>756</ele>
        <time>2019-05-18T14:44:42Z</time>
      </trkpt>
      <trkpt lat="45.55395" lon="2.26356">
        <ele>756</ele>
        <time>2019-05-18T14:44:43Z</time>
      </trkpt>
      <trkpt lat="45.55395" lon="2.26353">
        <ele>756</ele>
        <time>2019-05-18T14:44:44Z</time>
      </trkpt>
      <trkpt lat="45.55395" lon="2.26349">
        <ele>756</ele>
        <time>2019-05-18T14:44:45Z</time>
      </trkpt>
      <trkpt lat="45.55395" lon="2.26345">
        <ele>756</ele>
        <time>2019-05-18T14:44:46Z</time>
      </trkpt>
      <trkpt lat="45.55396" lon="2.26342">
        <ele>757</ele>
        <time>2019-05-18T14:44:47Z</time>
      </trkpt>
      <trkpt lat="45.55396" lon="2.26338">
        <ele>757</ele>
        <time>2019-05-18T14:44:48Z</time>
      </trkpt>
      <trkpt lat="45.55397" lon="2.26335">
        <ele>757</ele>
        <time>2019-05-18T14:44:49Z</time>
      </trkpt>
      <trkpt lat="45.55397" lon="2.26331">
        <ele>757</ele>
        <time>2019-05-18T14:44:50Z</time>
      </trkpt>
      <trkpt lat="45.55397" lon="2.26327">
        <ele>757</ele>
        <time>2019-05-18T14:44:51Z</time>
      </trkpt>
      <trkpt lat="45.55398" lon="2.26324">
        <ele>757</ele>
        <time>2019-05-18T14:44:52Z</time>
      </trkpt>
      <trkpt lat="45.55399" lon="2.26316">
        <ele>757</ele>
        <time>2019-05-18T14:44:53Z</time>
      </trkpt>
      <trkpt lat="45.55399" lon="2.26312">
        <ele>757</ele>
        <time>2019-05-18T14:44:54Z</time>
      </trkpt>
      <trkpt lat="45.554" lon="2.26308">
        <ele>757</ele>
        <time>2019-05-18T14:44:55Z</time>
      </trkpt>
      <trkpt lat="45.554" lon="2.26305">
        <ele>758</ele>
        <time>2019-05-18T14:44:56Z</time>
      </trkpt>
      <trkpt lat="45.55401" lon="2.26301">
        <ele>758</ele>
        <time>2019-05-18T14:44:57Z</time>
      </trkpt>
      <trkpt lat="45.55401" lon="2.26297">
        <ele>758</ele>
        <time>2019-05-18T14:44:58Z</time>
      </trkpt>
      <trkpt lat="45.55401" lon="2.26293">
        <ele>758</ele>
        <time>2019-05-18T14:44:59Z</time>
      </trkpt>
      <trkpt lat="45.55402" lon="2.2629">
        <ele>758</ele>
        <time>2019-05-18T14:45:00Z</time>
      </trkpt>
      <trkpt lat="45.55402" lon="2.26286">
        <ele>758</ele>
        <time>2019-05-18T14:45:02Z</time>
      </trkpt>
      <trkpt lat="45.55403" lon="2.26281">
        <ele>758</ele>
        <time>2019-05-18T14:45:03Z</time>
      </trkpt>
      <trkpt lat="45.55403" lon="2.26277">
        <ele>759</ele>
        <time>2019-05-18T14:45:04Z</time>
      </trkpt>
      <trkpt lat="45.55404" lon="2.26273">
        <ele>759</ele>
        <time>2019-05-18T14:45:05Z</time>
      </trkpt>
      <trkpt lat="45.55405" lon="2.26269">
        <ele>759</ele>
        <time>2019-05-18T14:45:06Z</time>
      </trkpt>
      <trkpt lat="45.55409" lon="2.26264">
        <ele>759</ele>
        <time>2019-05-18T14:45:07Z</time>
      </trkpt>
      <trkpt lat="45.55411" lon="2.26262">
        <ele>759</ele>
        <time>2019-05-18T14:45:08Z</time>
      </trkpt>
      <trkpt lat="45.55414" lon="2.2626">
        <ele>759</ele>
        <time>2019-05-18T14:45:09Z</time>
      </trkpt>
      <trkpt lat="45.55416" lon="2.26257">
        <ele>759</ele>
        <time>2019-05-18T14:45:10Z</time>
      </trkpt>
      <trkpt lat="45.55418" lon="2.26255">
        <ele>759</ele>
        <time>2019-05-18T14:45:11Z</time>
      </trkpt>
      <trkpt lat="45.55421" lon="2.26253">
        <ele>759</ele>
        <time>2019-05-18T14:45:12Z</time>
      </trkpt>
      <trkpt lat="45.55423" lon="2.26251">
        <ele>759</ele>
        <time>2019-05-18T14:45:13Z</time>
      </trkpt>
      <trkpt lat="45.55426" lon="2.26249">
        <ele>759</ele>
        <time>2019-05-18T14:45:14Z</time>
      </trkpt>
      <trkpt lat="45.55428" lon="2.26247">
        <ele>759</ele>
        <time>2019-05-18T14:45:15Z</time>
      </trkpt>
      <trkpt lat="45.55431" lon="2.26245">
        <ele>759</ele>
        <time>2019-05-18T14:45:16Z</time>
      </trkpt>
      <trkpt lat="45.55433" lon="2.26243">
        <ele>759</ele>
        <time>2019-05-18T14:45:17Z</time>
      </trkpt>
      <trkpt lat="45.55436" lon="2.26242">
        <ele>759</ele>
        <time>2019-05-18T14:45:18Z</time>
      </trkpt>
      <trkpt lat="45.55439" lon="2.26241">
        <ele>759</ele>
        <time>2019-05-18T14:45:19Z</time>
      </trkpt>
      <trkpt lat="45.55443" lon="2.26241">
        <ele>758</ele>
        <time>2019-05-18T14:45:21Z</time>
      </trkpt>
      <trkpt lat="45.55445" lon="2.26241">
        <ele>758</ele>
        <time>2019-05-18T14:45:22Z</time>
      </trkpt>
      <trkpt lat="45.55448" lon="2.26242">
        <ele>758</ele>
        <time>2019-05-18T14:45:23Z</time>
      </trkpt>
      <trkpt lat="45.55451" lon="2.26246">
        <ele>758</ele>
        <time>2019-05-18T14:45:24Z</time>
      </trkpt>
      <trkpt lat="45.55454" lon="2.26249">
        <ele>758</ele>
        <time>2019-05-18T14:45:25Z</time>
      </trkpt>
      <trkpt lat="45.55455" lon="2.26252">
        <ele>758</ele>
        <time>2019-05-18T14:45:26Z</time>
      </trkpt>
      <trkpt lat="45.55457" lon="2.26256">
        <ele>758</ele>
        <time>2019-05-18T14:45:27Z</time>
      </trkpt>
      <trkpt lat="45.5546" lon="2.26259">
        <ele>758</ele>
        <time>2019-05-18T14:45:28Z</time>
      </trkpt>
      <trkpt lat="45.55463" lon="2.26263">
        <ele>758</ele>
        <time>2019-05-18T14:45:29Z</time>
      </trkpt>
      <trkpt lat="45.55465" lon="2.26266">
        <ele>758</ele>
        <time>2019-05-18T14:45:30Z</time>
      </trkpt>
      <trkpt lat="45.55472" lon="2.26271">
        <ele>757</ele>
        <time>2019-05-18T14:45:31Z</time>
      </trkpt>
      <trkpt lat="45.55475" lon="2.26272">
        <ele>757</ele>
        <time>2019-05-18T14:45:32Z</time>
      </trkpt>
      <trkpt lat="45.55479" lon="2.26272">
        <ele>757</ele>
        <time>2019-05-18T14:45:33Z</time>
      </trkpt>
      <trkpt lat="45.55483" lon="2.26271">
        <ele>757</ele>
        <time>2019-05-18T14:45:34Z</time>
      </trkpt>
      <trkpt lat="45.55487" lon="2.26269">
        <ele>757</ele>
        <time>2019-05-18T14:45:35Z</time>
      </trkpt>
      <trkpt lat="45.5549" lon="2.26267">
        <ele>757</ele>
        <time>2019-05-18T14:45:36Z</time>
      </trkpt>
      <trkpt lat="45.55494" lon="2.26264">
        <ele>757</ele>
        <time>2019-05-18T14:45:37Z</time>
      </trkpt>
      <trkpt lat="45.55498" lon="2.26261">
        <ele>756</ele>
        <time>2019-05-18T14:45:38Z</time>
      </trkpt>
      <trkpt lat="45.55501" lon="2.26257">
        <ele>756</ele>
        <time>2019-05-18T14:45:39Z</time>
      </trkpt>
      <trkpt lat="45.55505" lon="2.26253">
        <ele>756</ele>
        <time>2019-05-18T14:45:40Z</time>
      </trkpt>
      <trkpt lat="45.55508" lon="2.26249">
        <ele>756</ele>
        <time>2019-05-18T14:45:41Z</time>
      </trkpt>
      <trkpt lat="45.55512" lon="2.26246">
        <ele>756</ele>
        <time>2019-05-18T14:45:42Z</time>
      </trkpt>
      <trkpt lat="45.55516" lon="2.26243">
        <ele>756</ele>
        <time>2019-05-18T14:45:43Z</time>
      </trkpt>
      <trkpt lat="45.5552" lon="2.26242">
        <ele>755</ele>
        <time>2019-05-18T14:45:44Z</time>
      </trkpt>
      <trkpt lat="45.55525" lon="2.26242">
        <ele>755</ele>
        <time>2019-05-18T14:45:45Z</time>
      </trkpt>
      <trkpt lat="45.55529" lon="2.26243">
        <ele>755</ele>
        <time>2019-05-18T14:45:46Z</time>
      </trkpt>
      <trkpt lat="45.55532" lon="2.26246">
        <ele>755</ele>
        <time>2019-05-18T14:45:47Z</time>
      </trkpt>
      <trkpt lat="45.55536" lon="2.26249">
        <ele>755</ele>
        <time>2019-05-18T14:45:48Z</time>
      </trkpt>
      <trkpt lat="45.5554" lon="2.26252">
        <ele>755</ele>
        <time>2019-05-18T14:45:49Z</time>
      </trkpt>
      <trkpt lat="45.55544" lon="2.26255">
        <ele>755</ele>
        <time>2019-05-18T14:45:51Z</time>
      </trkpt>
      <trkpt lat="45.55548" lon="2.26258">
        <ele>755</ele>
        <time>2019-05-18T14:45:52Z</time>
      </trkpt>
      <trkpt lat="45.55553" lon="2.26262">
        <ele>754</ele>
        <time>2019-05-18T14:45:53Z</time>
      </trkpt>
      <trkpt lat="45.55558" lon="2.26264">
        <ele>754</ele>
        <time>2019-05-18T14:45:54Z</time>
      </trkpt>
      <trkpt lat="45.55562" lon="2.26266">
        <ele>754</ele>
        <time>2019-05-18T14:45:55Z</time>
      </trkpt>
      <trkpt lat="45.55566" lon="2.26268">
        <ele>754</ele>
        <time>2019-05-18T14:45:56Z</time>
      </trkpt>
      <trkpt lat="45.55576" lon="2.2627">
        <ele>754</ele>
        <time>2019-05-18T14:45:57Z</time>
      </trkpt>
      <trkpt lat="45.5558" lon="2.2627">
        <ele>754</ele>
        <time>2019-05-18T14:45:58Z</time>
      </trkpt>
      <trkpt lat="45.55584" lon="2.26268">
        <ele>753</ele>
        <time>2019-05-18T14:45:59Z</time>
      </trkpt>
      <trkpt lat="45.55588" lon="2.26263">
        <ele>753</ele>
        <time>2019-05-18T14:46:00Z</time>
      </trkpt>
      <trkpt lat="45.55591" lon="2.26258">
        <ele>753</ele>
        <time>2019-05-18T14:46:01Z</time>
      </trkpt>
      <trkpt lat="45.55594" lon="2.26253">
        <ele>753</ele>
        <time>2019-05-18T14:46:02Z</time>
      </trkpt>
      <trkpt lat="45.55597" lon="2.26247">
        <ele>753</ele>
        <time>2019-05-18T14:46:03Z</time>
      </trkpt>
      <trkpt lat="45.556" lon="2.2624">
        <ele>752</ele>
        <time>2019-05-18T14:46:04Z</time>
      </trkpt>
      <trkpt lat="45.55605" lon="2.26233">
        <ele>752</ele>
        <time>2019-05-18T14:46:05Z</time>
      </trkpt>
      <trkpt lat="45.5561" lon="2.26228">
        <ele>752</ele>
        <time>2019-05-18T14:46:06Z</time>
      </trkpt>
      <trkpt lat="45.55615" lon="2.26227">
        <ele>751</ele>
        <time>2019-05-18T14:46:07Z</time>
      </trkpt>
      <trkpt lat="45.5562" lon="2.26228">
        <ele>751</ele>
        <time>2019-05-18T14:46:08Z</time>
      </trkpt>
      <trkpt lat="45.55624" lon="2.26229">
        <ele>751</ele>
        <time>2019-05-18T14:46:09Z</time>
      </trkpt>
      <trkpt lat="45.55629" lon="2.26231">
        <ele>751</ele>
        <time>2019-05-18T14:46:10Z</time>
      </trkpt>
      <trkpt lat="45.55634" lon="2.26233">
        <ele>751</ele>
        <time>2019-05-18T14:46:12Z</time>
      </trkpt>
      <trkpt lat="45.5564" lon="2.26234">
        <ele>751</ele>
        <time>2019-05-18T14:46:13Z</time>
      </trkpt>
      <trkpt lat="45.55645" lon="2.26234">
        <ele>750</ele>
        <time>2019-05-18T14:46:14Z</time>
      </trkpt>
      <trkpt lat="45.5565" lon="2.26233">
        <ele>750</ele>
        <time>2019-05-18T14:46:15Z</time>
      </trkpt>
      <trkpt lat="45.55656" lon="2.26232">
        <ele>750</ele>
        <time>2019-05-18T14:46:16Z</time>
      </trkpt>
      <trkpt lat="45.55662" lon="2.2623">
        <ele>750</ele>
        <time>2019-05-18T14:46:17Z</time>
      </trkpt>
      <trkpt lat="45.55667" lon="2.26227">
        <ele>750</ele>
        <time>2019-05-18T14:46:18Z</time>
      </trkpt>
      <trkpt lat="45.55676" lon="2.26217">
        <ele>750</ele>
        <time>2019-05-18T14:46:19Z</time>
      </trkpt>
      <trkpt lat="45.5568" lon="2.26213">
        <ele>749</ele>
        <time>2019-05-18T14:46:20Z</time>
      </trkpt>
      <trkpt lat="45.55682" lon="2.26209">
        <ele>749</ele>
        <time>2019-05-18T14:46:21Z</time>
      </trkpt>
      <trkpt lat="45.55683" lon="2.26203">
        <ele>749</ele>
        <time>2019-05-18T14:46:22Z</time>
      </trkpt>
      <trkpt lat="45.55684" lon="2.26197">
        <ele>749</ele>
        <time>2019-05-18T14:46:23Z</time>
      </trkpt>
      <trkpt lat="45.55685" lon="2.2619">
        <ele>749</ele>
        <time>2019-05-18T14:46:24Z</time>
      </trkpt>
      <trkpt lat="45.55687" lon="2.26182">
        <ele>748</ele>
        <time>2019-05-18T14:46:25Z</time>
      </trkpt>
      <trkpt lat="45.55688" lon="2.26175">
        <ele>748</ele>
        <time>2019-05-18T14:46:26Z</time>
      </trkpt>
      <trkpt lat="45.55689" lon="2.26167">
        <ele>748</ele>
        <time>2019-05-18T14:46:27Z</time>
      </trkpt>
      <trkpt lat="45.55689" lon="2.26159">
        <ele>748</ele>
        <time>2019-05-18T14:46:28Z</time>
      </trkpt>
      <trkpt lat="45.5569" lon="2.26153">
        <ele>748</ele>
        <time>2019-05-18T14:46:29Z</time>
      </trkpt>
      <trkpt lat="45.55692" lon="2.26146">
        <ele>748</ele>
        <time>2019-05-18T14:46:30Z</time>
      </trkpt>
      <trkpt lat="45.55693" lon="2.26139">
        <ele>747</ele>
        <time>2019-05-18T14:46:31Z</time>
      </trkpt>
      <trkpt lat="45.55694" lon="2.26132">
        <ele>747</ele>
        <time>2019-05-18T14:46:32Z</time>
      </trkpt>
      <trkpt lat="45.55696" lon="2.26126">
        <ele>747</ele>
        <time>2019-05-18T14:46:33Z</time>
      </trkpt>
      <trkpt lat="45.55698" lon="2.26119">
        <ele>747</ele>
        <time>2019-05-18T14:46:34Z</time>
      </trkpt>
      <trkpt lat="45.55699" lon="2.26112">
        <ele>747</ele>
        <time>2019-05-18T14:46:35Z</time>
      </trkpt>
      <trkpt lat="45.55702" lon="2.26105">
        <ele>747</ele>
        <time>2019-05-18T14:46:36Z</time>
      </trkpt>
      <trkpt lat="45.55706" lon="2.26099">
        <ele>746</ele>
        <time>2019-05-18T14:46:37Z</time>
      </trkpt>
      <trkpt lat="45.5571" lon="2.26096">
        <ele>746</ele>
        <time>2019-05-18T14:46:38Z</time>
      </trkpt>
      <trkpt lat="45.55713" lon="2.26092">
        <ele>746</ele>
        <time>2019-05-18T14:46:40Z</time>
      </trkpt>
      <trkpt lat="45.55716" lon="2.2609">
        <ele>746</ele>
        <time>2019-05-18T14:46:41Z</time>
      </trkpt>
      <trkpt lat="45.5572" lon="2.26087">
        <ele>746</ele>
        <time>2019-05-18T14:46:42Z</time>
      </trkpt>
      <trkpt lat="45.55725" lon="2.26084">
        <ele>746</ele>
        <time>2019-05-18T14:46:43Z</time>
      </trkpt>
      <trkpt lat="45.55729" lon="2.26081">
        <ele>746</ele>
        <time>2019-05-18T14:46:44Z</time>
      </trkpt>
      <trkpt lat="45.55732" lon="2.26076">
        <ele>745</ele>
        <time>2019-05-18T14:46:45Z</time>
      </trkpt>
      <trkpt lat="45.55734" lon="2.26071">
        <ele>745</ele>
        <time>2019-05-18T14:46:46Z</time>
      </trkpt>
      <trkpt lat="45.55736" lon="2.26065">
        <ele>745</ele>
        <time>2019-05-18T14:46:47Z</time>
      </trkpt>
      <trkpt lat="45.55739" lon="2.26058">
        <ele>745</ele>
        <time>2019-05-18T14:46:48Z</time>
      </trkpt>
      <trkpt lat="45.55745" lon="2.26053">
        <ele>745</ele>
        <time>2019-05-18T14:46:49Z</time>
      </trkpt>
      <trkpt lat="45.55749" lon="2.26048">
        <ele>745</ele>
        <time>2019-05-18T14:46:50Z</time>
      </trkpt>
      <trkpt lat="45.55751" lon="2.26042">
        <ele>744</ele>
        <time>2019-05-18T14:46:51Z</time>
      </trkpt>
      <trkpt lat="45.55755" lon="2.26032">
        <ele>744</ele>
        <time>2019-05-18T14:46:52Z</time>
      </trkpt>
      <trkpt lat="45.55756" lon="2.26028">
        <ele>744</ele>
        <time>2019-05-18T14:46:53Z</time>
      </trkpt>
      <trkpt lat="45.55756" lon="2.26022">
        <ele>744</ele>
        <time>2019-05-18T14:46:54Z</time>
      </trkpt>
      <trkpt lat="45.55756" lon="2.26016">
        <ele>744</ele>
        <time>2019-05-18T14:46:55Z</time>
      </trkpt>
      <trkpt lat="45.55757" lon="2.26008">
        <ele>743</ele>
        <time>2019-05-18T14:46:56Z</time>
      </trkpt>
      <trkpt lat="45.55758" lon="2.26001">
        <ele>743</ele>
        <time>2019-05-18T14:46:57Z</time>
      </trkpt>
      <trkpt lat="45.55759" lon="2.25994">
        <ele>743</ele>
        <time>2019-05-18T14:46:58Z</time>
      </trkpt>
      <trkpt lat="45.55761" lon="2.25987">
        <ele>743</ele>
        <time>2019-05-18T14:46:59Z</time>
      </trkpt>
      <trkpt lat="45.55763" lon="2.25981">
        <ele>743</ele>
        <time>2019-05-18T14:47:00Z</time>
      </trkpt>
      <trkpt lat="45.55765" lon="2.25975">
        <ele>742</ele>
        <time>2019-05-18T14:47:01Z</time>
      </trkpt>
      <trkpt lat="45.55768" lon="2.25971">
        <ele>742</ele>
        <time>2019-05-18T14:47:02Z</time>
      </trkpt>
      <trkpt lat="45.55771" lon="2.25968">
        <ele>742</ele>
        <time>2019-05-18T14:47:03Z</time>
      </trkpt>
      <trkpt lat="45.55775" lon="2.25963">
        <ele>742</ele>
        <time>2019-05-18T14:47:05Z</time>
      </trkpt>
      <trkpt lat="45.55781" lon="2.2596">
        <ele>742</ele>
        <time>2019-05-18T14:47:06Z</time>
      </trkpt>
      <trkpt lat="45.55786" lon="2.25957">
        <ele>741</ele>
        <time>2019-05-18T14:47:07Z</time>
      </trkpt>
      <trkpt lat="45.55791" lon="2.25955">
        <ele>741</ele>
        <time>2019-05-18T14:47:08Z</time>
      </trkpt>
      <trkpt lat="45.55796" lon="2.25952">
        <ele>741</ele>
        <time>2019-05-18T14:47:09Z</time>
      </trkpt>
      <trkpt lat="45.55803" lon="2.25947">
        <ele>741</ele>
        <time>2019-05-18T14:47:10Z</time>
      </trkpt>
      <trkpt lat="45.55809" lon="2.25942">
        <ele>740</ele>
        <time>2019-05-18T14:47:11Z</time>
      </trkpt>
      <trkpt lat="45.55818" lon="2.25928">
        <ele>740</ele>
        <time>2019-05-18T14:47:12Z</time>
      </trkpt>
      <trkpt lat="45.55821" lon="2.25921">
        <ele>740</ele>
        <time>2019-05-18T14:47:13Z</time>
      </trkpt>
      <trkpt lat="45.55826" lon="2.25914">
        <ele>740</ele>
        <time>2019-05-18T14:47:14Z</time>
      </trkpt>
      <trkpt lat="45.5583" lon="2.25909">
        <ele>739</ele>
        <time>2019-05-18T14:47:15Z</time>
      </trkpt>
      <trkpt lat="45.55835" lon="2.25904">
        <ele>739</ele>
        <time>2019-05-18T14:47:16Z</time>
      </trkpt>
      <trkpt lat="45.5584" lon="2.25898">
        <ele>739</ele>
        <time>2019-05-18T14:47:17Z</time>
      </trkpt>
      <trkpt lat="45.55843" lon="2.25893">
        <ele>739</ele>
        <time>2019-05-18T14:47:18Z</time>
      </trkpt>
      <trkpt lat="45.55845" lon="2.25888">
        <ele>739</ele>
        <time>2019-05-18T14:47:19Z</time>
      </trkpt>
      <trkpt lat="45.55847" lon="2.25882">
        <ele>739</ele>
        <time>2019-05-18T14:47:21Z</time>
      </trkpt>
      <trkpt lat="45.55849" lon="2.25875">
        <ele>739</ele>
        <time>2019-05-18T14:47:22Z</time>
      </trkpt>
      <trkpt lat="45.55851" lon="2.25869">
        <ele>738</ele>
        <time>2019-05-18T14:47:23Z</time>
      </trkpt>
      <trkpt lat="45.55852" lon="2.25864">
        <ele>738</ele>
        <time>2019-05-18T14:47:24Z</time>
      </trkpt>
      <trkpt lat="45.55853" lon="2.25859">
        <ele>738</ele>
        <time>2019-05-18T14:47:25Z</time>
      </trkpt>
      <trkpt lat="45.55853" lon="2.25852">
        <ele>738</ele>
        <time>2019-05-18T14:47:26Z</time>
      </trkpt>
      <trkpt lat="45.55853" lon="2.25844">
        <ele>738</ele>
        <time>2019-05-18T14:47:27Z</time>
      </trkpt>
      <trkpt lat="45.55852" lon="2.25837">
        <ele>738</ele>
        <time>2019-05-18T14:47:28Z</time>
      </trkpt>
      <trkpt lat="45.55852" lon="2.25828">
        <ele>738</ele>
        <time>2019-05-18T14:47:29Z</time>
      </trkpt>
      <trkpt lat="45.55852" lon="2.25819">
        <ele>738</ele>
        <time>2019-05-18T14:47:30Z</time>
      </trkpt>
      <trkpt lat="45.55851" lon="2.2581">
        <ele>737</ele>
        <time>2019-05-18T14:47:31Z</time>
      </trkpt>
      <trkpt lat="45.5585" lon="2.25802">
        <ele>737</ele>
        <time>2019-05-18T14:47:32Z</time>
      </trkpt>
      <trkpt lat="45.55849" lon="2.25793">
        <ele>737</ele>
        <time>2019-05-18T14:47:33Z</time>
      </trkpt>
      <trkpt lat="45.55849" lon="2.25784">
        <ele>736</ele>
        <time>2019-05-18T14:47:34Z</time>
      </trkpt>
      <trkpt lat="45.55849" lon="2.25774">
        <ele>736</ele>
        <time>2019-05-18T14:47:35Z</time>
      </trkpt>
      <trkpt lat="45.55851" lon="2.25763">
        <ele>736</ele>
        <time>2019-05-18T14:47:36Z</time>
      </trkpt>
      <trkpt lat="45.55854" lon="2.25754">
        <ele>735</ele>
        <time>2019-05-18T14:47:37Z</time>
      </trkpt>
      <trkpt lat="45.55858" lon="2.25746">
        <ele>735</ele>
        <time>2019-05-18T14:47:38Z</time>
      </trkpt>
      <trkpt lat="45.55861" lon="2.25739">
        <ele>735</ele>
        <time>2019-05-18T14:47:39Z</time>
      </trkpt>
      <trkpt lat="45.55864" lon="2.25733">
        <ele>735</ele>
        <time>2019-05-18T14:47:40Z</time>
      </trkpt>
      <trkpt lat="45.55867" lon="2.25727">
        <ele>735</ele>
        <time>2019-05-18T14:47:41Z</time>
      </trkpt>
      <trkpt lat="45.55869" lon="2.2572">
        <ele>734</ele>
        <time>2019-05-18T14:47:42Z</time>
      </trkpt>
      <trkpt lat="45.55874" lon="2.25706">
        <ele>734</ele>
        <time>2019-05-18T14:47:43Z</time>
      </trkpt>
      <trkpt lat="45.55877" lon="2.25698">
        <ele>734</ele>
        <time>2019-05-18T14:47:44Z</time>
      </trkpt>
      <trkpt lat="45.55879" lon="2.2569">
        <ele>734</ele>
        <time>2019-05-18T14:47:45Z</time>
      </trkpt>
      <trkpt lat="45.55881" lon="2.25682">
        <ele>734</ele>
        <time>2019-05-18T14:47:46Z</time>
      </trkpt>
      <trkpt lat="45.55883" lon="2.25675">
        <ele>734</ele>
        <time>2019-05-18T14:47:47Z</time>
      </trkpt>
      <trkpt lat="45.55885" lon="2.25668">
        <ele>733</ele>
        <time>2019-05-18T14:47:48Z</time>
      </trkpt>
      <trkpt lat="45.55887" lon="2.25661">
        <ele>733</ele>
        <time>2019-05-18T14:47:49Z</time>
      </trkpt>
      <trkpt lat="45.55888" lon="2.25654">
        <ele>733</ele>
        <time>2019-05-18T14:47:50Z</time>
      </trkpt>
      <trkpt lat="45.5589" lon="2.25645">
        <ele>733</ele>
        <time>2019-05-18T14:47:52Z</time>
      </trkpt>
      <trkpt lat="45.55892" lon="2.25637">
        <ele>732</ele>
        <time>2019-05-18T14:47:53Z</time>
      </trkpt>
      <trkpt lat="45.55895" lon="2.2563">
        <ele>732</ele>
        <time>2019-05-18T14:47:54Z</time>
      </trkpt>
      <trkpt lat="45.55897" lon="2.25621">
        <ele>732</ele>
        <time>2019-05-18T14:47:55Z</time>
      </trkpt>
      <trkpt lat="45.55902" lon="2.25617">
        <ele>732</ele>
        <time>2019-05-18T14:47:56Z</time>
      </trkpt>
      <trkpt lat="45.55906" lon="2.25612">
        <ele>732</ele>
        <time>2019-05-18T14:47:57Z</time>
      </trkpt>
      <trkpt lat="45.55909" lon="2.25608">
        <ele>732</ele>
        <time>2019-05-18T14:47:58Z</time>
      </trkpt>
      <trkpt lat="45.55917" lon="2.25602">
        <ele>733</ele>
        <time>2019-05-18T14:47:59Z</time>
      </trkpt>
      <trkpt lat="45.55922" lon="2.25601">
        <ele>733</ele>
        <time>2019-05-18T14:48:00Z</time>
      </trkpt>
      <trkpt lat="45.55925" lon="2.25598">
        <ele>733</ele>
        <time>2019-05-18T14:48:01Z</time>
      </trkpt>
      <trkpt lat="45.55927" lon="2.25594">
        <ele>733</ele>
        <time>2019-05-18T14:48:03Z</time>
      </trkpt>
      <trkpt lat="45.5593" lon="2.2559">
        <ele>733</ele>
        <time>2019-05-18T14:48:04Z</time>
      </trkpt>
      <trkpt lat="45.55933" lon="2.25586">
        <ele>733</ele>
        <time>2019-05-18T14:48:05Z</time>
      </trkpt>
      <trkpt lat="45.55935" lon="2.25582">
        <ele>733</ele>
        <time>2019-05-18T14:48:06Z</time>
      </trkpt>
      <trkpt lat="45.55937" lon="2.25578">
        <ele>734</ele>
        <time>2019-05-18T14:48:07Z</time>
      </trkpt>
      <trkpt lat="45.55938" lon="2.25574">
        <ele>734</ele>
        <time>2019-05-18T14:48:08Z</time>
      </trkpt>
      <trkpt lat="45.55939" lon="2.25569">
        <ele>734</ele>
        <time>2019-05-18T14:48:09Z</time>
      </trkpt>
      <trkpt lat="45.55939" lon="2.25564">
        <ele>734</ele>
        <time>2019-05-18T14:48:10Z</time>
      </trkpt>
      <trkpt lat="45.55939" lon="2.25559">
        <ele>734</ele>
        <time>2019-05-18T14:48:11Z</time>
      </trkpt>
      <trkpt lat="45.55939" lon="2.25554">
        <ele>734</ele>
        <time>2019-05-18T14:48:12Z</time>
      </trkpt>
      <trkpt lat="45.55938" lon="2.2555">
        <ele>734</ele>
        <time>2019-05-18T14:48:13Z</time>
      </trkpt>
      <trkpt lat="45.55938" lon="2.25545">
        <ele>734</ele>
        <time>2019-05-18T14:48:14Z</time>
      </trkpt>
      <trkpt lat="45.55937" lon="2.25541">
        <ele>734</ele>
        <time>2019-05-18T14:48:15Z</time>
      </trkpt>
      <trkpt lat="45.55936" lon="2.25536">
        <ele>734</ele>
        <time>2019-05-18T14:48:16Z</time>
      </trkpt>
      <trkpt lat="45.55935" lon="2.25532">
        <ele>734</ele>
        <time>2019-05-18T14:48:17Z</time>
      </trkpt>
      <trkpt lat="45.55934" lon="2.25528">
        <ele>734</ele>
        <time>2019-05-18T14:48:18Z</time>
      </trkpt>
      <trkpt lat="45.55934" lon="2.25523">
        <ele>734</ele>
        <time>2019-05-18T14:48:19Z</time>
      </trkpt>
      <trkpt lat="45.55933" lon="2.25519">
        <ele>734</ele>
        <time>2019-05-18T14:48:20Z</time>
      </trkpt>
      <trkpt lat="45.55933" lon="2.25515">
        <ele>734</ele>
        <time>2019-05-18T14:48:21Z</time>
      </trkpt>
      <trkpt lat="45.55933" lon="2.2551">
        <ele>734</ele>
        <time>2019-05-18T14:48:22Z</time>
      </trkpt>
      <trkpt lat="45.55933" lon="2.25502">
        <ele>734</ele>
        <time>2019-05-18T14:48:23Z</time>
      </trkpt>
      <trkpt lat="45.55933" lon="2.25498">
        <ele>735</ele>
        <time>2019-05-18T14:48:24Z</time>
      </trkpt>
      <trkpt lat="45.55934" lon="2.25494">
        <ele>735</ele>
        <time>2019-05-18T14:48:25Z</time>
      </trkpt>
      <trkpt lat="45.55934" lon="2.25489">
        <ele>735</ele>
        <time>2019-05-18T14:48:26Z</time>
      </trkpt>
      <trkpt lat="45.55935" lon="2.25485">
        <ele>735</ele>
        <time>2019-05-18T14:48:28Z</time>
      </trkpt>
      <trkpt lat="45.55936" lon="2.2548">
        <ele>735</ele>
        <time>2019-05-18T14:48:29Z</time>
      </trkpt>
      <trkpt lat="45.55937" lon="2.25475">
        <ele>734</ele>
        <time>2019-05-18T14:48:30Z</time>
      </trkpt>
      <trkpt lat="45.55939" lon="2.25471">
        <ele>734</ele>
        <time>2019-05-18T14:48:31Z</time>
      </trkpt>
      <trkpt lat="45.55941" lon="2.25467">
        <ele>734</ele>
        <time>2019-05-18T14:48:32Z</time>
      </trkpt>
      <trkpt lat="45.55943" lon="2.25463">
        <ele>734</ele>
        <time>2019-05-18T14:48:33Z</time>
      </trkpt>
      <trkpt lat="45.55946" lon="2.25459">
        <ele>734</ele>
        <time>2019-05-18T14:48:34Z</time>
      </trkpt>
      <trkpt lat="45.55948" lon="2.25457">
        <ele>733</ele>
        <time>2019-05-18T14:48:35Z</time>
      </trkpt>
      <trkpt lat="45.55949" lon="2.25455">
        <ele>733</ele>
        <time>2019-05-18T14:48:36Z</time>
      </trkpt>
      <trkpt lat="45.55952" lon="2.2545">
        <ele>733</ele>
        <time>2019-05-18T14:48:37Z</time>
      </trkpt>
      <trkpt lat="45.55955" lon="2.25445">
        <ele>733</ele>
        <time>2019-05-18T14:48:38Z</time>
      </trkpt>
      <trkpt lat="45.55958" lon="2.25441">
        <ele>733</ele>
        <time>2019-05-18T14:48:39Z</time>
      </trkpt>
      <trkpt lat="45.55961" lon="2.25437">
        <ele>733</ele>
        <time>2019-05-18T14:48:40Z</time>
      </trkpt>
      <trkpt lat="45.55964" lon="2.25433">
        <ele>733</ele>
        <time>2019-05-18T14:48:41Z</time>
      </trkpt>
      <trkpt lat="45.55967" lon="2.25428">
        <ele>733</ele>
        <time>2019-05-18T14:48:42Z</time>
      </trkpt>
      <trkpt lat="45.55968" lon="2.25423">
        <ele>733</ele>
        <time>2019-05-18T14:48:43Z</time>
      </trkpt>
      <trkpt lat="45.5597" lon="2.25418">
        <ele>733</ele>
        <time>2019-05-18T14:48:44Z</time>
      </trkpt>
      <trkpt lat="45.55973" lon="2.25412">
        <ele>733</ele>
        <time>2019-05-18T14:48:45Z</time>
      </trkpt>
      <trkpt lat="45.55976" lon="2.25408">
        <ele>733</ele>
        <time>2019-05-18T14:48:46Z</time>
      </trkpt>
      <trkpt lat="45.5598" lon="2.25399">
        <ele>733</ele>
        <time>2019-05-18T14:48:47Z</time>
      </trkpt>
      <trkpt lat="45.55981" lon="2.25394">
        <ele>733</ele>
        <time>2019-05-18T14:48:48Z</time>
      </trkpt>
      <trkpt lat="45.55983" lon="2.25391">
        <ele>733</ele>
        <time>2019-05-18T14:48:49Z</time>
      </trkpt>
      <trkpt lat="45.55985" lon="2.25387">
        <ele>734</ele>
        <time>2019-05-18T14:48:50Z</time>
      </trkpt>
      <trkpt lat="45.55987" lon="2.25384">
        <ele>734</ele>
        <time>2019-05-18T14:48:52Z</time>
      </trkpt>
      <trkpt lat="45.55988" lon="2.2538">
        <ele>734</ele>
        <time>2019-05-18T14:48:53Z</time>
      </trkpt>
      <trkpt lat="45.55989" lon="2.25376">
        <ele>734</ele>
        <time>2019-05-18T14:48:54Z</time>
      </trkpt>
      <trkpt lat="45.5599" lon="2.25375">
        <ele>734</ele>
        <time>2019-05-18T14:48:55Z</time>
      </trkpt>
      <trkpt lat="45.55992" lon="2.2537">
        <ele>734</ele>
        <time>2019-05-18T14:48:56Z</time>
      </trkpt>
      <trkpt lat="45.55992" lon="2.25367">
        <ele>734</ele>
        <time>2019-05-18T14:48:57Z</time>
      </trkpt>
      <trkpt lat="45.55994" lon="2.25364">
        <ele>734</ele>
        <time>2019-05-18T14:48:58Z</time>
      </trkpt>
      <trkpt lat="45.55996" lon="2.25361">
        <ele>734</ele>
        <time>2019-05-18T14:48:59Z</time>
      </trkpt>
      <trkpt lat="45.55997" lon="2.25359">
        <ele>734</ele>
        <time>2019-05-18T14:49:00Z</time>
      </trkpt>
      <trkpt lat="45.56" lon="2.25357">
        <ele>734</ele>
        <time>2019-05-18T14:49:01Z</time>
      </trkpt>
      <trkpt lat="45.56002" lon="2.25353">
        <ele>734</ele>
        <time>2019-05-18T14:49:02Z</time>
      </trkpt>
      <trkpt lat="45.56003" lon="2.25351">
        <ele>734</ele>
        <time>2019-05-18T14:49:03Z</time>
      </trkpt>
      <trkpt lat="45.56005" lon="2.25347">
        <ele>734</ele>
        <time>2019-05-18T14:49:04Z</time>
      </trkpt>
      <trkpt lat="45.56008" lon="2.25338">
        <ele>735</ele>
        <time>2019-05-18T14:49:06Z</time>
      </trkpt>
      <trkpt lat="45.5601" lon="2.25333">
        <ele>735</ele>
        <time>2019-05-18T14:49:07Z</time>
      </trkpt>
      <trkpt lat="45.56011" lon="2.25329">
        <ele>735</ele>
        <time>2019-05-18T14:49:08Z</time>
      </trkpt>
      <trkpt lat="45.56012" lon="2.25325">
        <ele>735</ele>
        <time>2019-05-18T14:49:09Z</time>
      </trkpt>
      <trkpt lat="45.56014" lon="2.25321">
        <ele>735</ele>
        <time>2019-05-18T14:49:10Z</time>
      </trkpt>
      <trkpt lat="45.56016" lon="2.25317">
        <ele>735</ele>
        <time>2019-05-18T14:49:11Z</time>
      </trkpt>
      <trkpt lat="45.56018" lon="2.25312">
        <ele>735</ele>
        <time>2019-05-18T14:49:12Z</time>
      </trkpt>
      <trkpt lat="45.5602" lon="2.25307">
        <ele>734</ele>
        <time>2019-05-18T14:49:13Z</time>
      </trkpt>
      <trkpt lat="45.56022" lon="2.25304">
        <ele>734</ele>
        <time>2019-05-18T14:49:14Z</time>
      </trkpt>
      <trkpt lat="45.56025" lon="2.25299">
        <ele>734</ele>
        <time>2019-05-18T14:49:15Z</time>
      </trkpt>
      <trkpt lat="45.56028" lon="2.25294">
        <ele>734</ele>
        <time>2019-05-18T14:49:16Z</time>
      </trkpt>
      <trkpt lat="45.5603" lon="2.25294">
        <ele>734</ele>
        <time>2019-05-18T14:49:17Z</time>
      </trkpt>
      <trkpt lat="45.56031" lon="2.25296">
        <ele>734</ele>
        <time>2019-05-18T14:49:18Z</time>
      </trkpt>
      <trkpt lat="45.56034" lon="2.25294">
        <ele>734</ele>
        <time>2019-05-18T14:49:19Z</time>
      </trkpt>
      <trkpt lat="45.56036" lon="2.25293">
        <ele>735</ele>
        <time>2019-05-18T14:49:20Z</time>
      </trkpt>
      <trkpt lat="45.5604" lon="2.25291">
        <ele>735</ele>
        <time>2019-05-18T14:49:21Z</time>
      </trkpt>
      <trkpt lat="45.56042" lon="2.25291">
        <ele>735</ele>
        <time>2019-05-18T14:49:23Z</time>
      </trkpt>
      <trkpt lat="45.56044" lon="2.2529">
        <ele>735</ele>
        <time>2019-05-18T14:49:24Z</time>
      </trkpt>
      <trkpt lat="45.56046" lon="2.25288">
        <ele>735</ele>
        <time>2019-05-18T14:49:25Z</time>
      </trkpt>
      <trkpt lat="45.56048" lon="2.25288">
        <ele>735</ele>
        <time>2019-05-18T14:49:26Z</time>
      </trkpt>
      <trkpt lat="45.56051" lon="2.25287">
        <ele>735</ele>
        <time>2019-05-18T14:49:27Z</time>
      </trkpt>
      <trkpt lat="45.56054" lon="2.25288">
        <ele>735</ele>
        <time>2019-05-18T14:49:28Z</time>
      </trkpt>
      <trkpt lat="45.56056" lon="2.25286">
        <ele>735</ele>
        <time>2019-05-18T14:49:29Z</time>
      </trkpt>
      <trkpt lat="45.56058" lon="2.25285">
        <ele>736</ele>
        <time>2019-05-18T14:49:30Z</time>
      </trkpt>
      <trkpt lat="45.56061" lon="2.25285">
        <ele>736</ele>
        <time>2019-05-18T14:49:31Z</time>
      </trkpt>
      <trkpt lat="45.56066" lon="2.25284">
        <ele>736</ele>
        <time>2019-05-18T14:49:32Z</time>
      </trkpt>
      <trkpt lat="45.5607" lon="2.25283">
        <ele>736</ele>
        <time>2019-05-18T14:49:33Z</time>
      </trkpt>
      <trkpt lat="45.56074" lon="2.25282">
        <ele>736</ele>
        <time>2019-05-18T14:49:34Z</time>
      </trkpt>
      <trkpt lat="45.56077" lon="2.25282">
        <ele>736</ele>
        <time>2019-05-18T14:49:35Z</time>
      </trkpt>
      <trkpt lat="45.56083" lon="2.25279">
        <ele>736</ele>
        <time>2019-05-18T14:49:37Z</time>
      </trkpt>
      <trkpt lat="45.56086" lon="2.25279">
        <ele>736</ele>
        <time>2019-05-18T14:49:38Z</time>
      </trkpt>
      <trkpt lat="45.56089" lon="2.25278">
        <ele>737</ele>
        <time>2019-05-18T14:49:39Z</time>
      </trkpt>
      <trkpt lat="45.56092" lon="2.25278">
        <ele>737</ele>
        <time>2019-05-18T14:49:40Z</time>
      </trkpt>
      <trkpt lat="45.56094" lon="2.25278">
        <ele>737</ele>
        <time>2019-05-18T14:49:41Z</time>
      </trkpt>
      <trkpt lat="45.56097" lon="2.25278">
        <ele>737</ele>
        <time>2019-05-18T14:49:42Z</time>
      </trkpt>
      <trkpt lat="45.561" lon="2.25278">
        <ele>737</ele>
        <time>2019-05-18T14:49:43Z</time>
      </trkpt>
      <trkpt lat="45.56104" lon="2.25277">
        <ele>737</ele>
        <time>2019-05-18T14:49:44Z</time>
      </trkpt>
      <trkpt lat="45.56108" lon="2.25276">
        <ele>737</ele>
        <time>2019-05-18T14:49:45Z</time>
      </trkpt>
      <trkpt lat="45.56111" lon="2.25275">
        <ele>737</ele>
        <time>2019-05-18T14:49:46Z</time>
      </trkpt>
      <trkpt lat="45.56114" lon="2.25276">
        <ele>737</ele>
        <time>2019-05-18T14:49:47Z</time>
      </trkpt>
      <trkpt lat="45.56117" lon="2.25276">
        <ele>737</ele>
        <time>2019-05-18T14:49:48Z</time>
      </trkpt>
      <trkpt lat="45.56125" lon="2.25275">
        <ele>737</ele>
        <time>2019-05-18T14:49:49Z</time>
      </trkpt>
      <trkpt lat="45.56129" lon="2.25275">
        <ele>737</ele>
        <time>2019-05-18T14:49:51Z</time>
      </trkpt>
      <trkpt lat="45.56132" lon="2.25275">
        <ele>737</ele>
        <time>2019-05-18T14:49:52Z</time>
      </trkpt>
      <trkpt lat="45.56134" lon="2.25275">
        <ele>737</ele>
        <time>2019-05-18T14:49:53Z</time>
      </trkpt>
      <trkpt lat="45.56138" lon="2.25274">
        <ele>737</ele>
        <time>2019-05-18T14:49:54Z</time>
      </trkpt>
      <trkpt lat="45.56142" lon="2.25274">
        <ele>737</ele>
        <time>2019-05-18T14:49:55Z</time>
      </trkpt>
      <trkpt lat="45.56145" lon="2.25274">
        <ele>737</ele>
        <time>2019-05-18T14:49:56Z</time>
      </trkpt>
      <trkpt lat="45.56148" lon="2.25272">
        <ele>737</ele>
        <time>2019-05-18T14:49:57Z</time>
      </trkpt>
      <trkpt lat="45.56151" lon="2.25273">
        <ele>737</ele>
        <time>2019-05-18T14:49:58Z</time>
      </trkpt>
      <trkpt lat="45.56153" lon="2.25273">
        <ele>737</ele>
        <time>2019-05-18T14:49:59Z</time>
      </trkpt>
      <trkpt lat="45.56156" lon="2.25273">
        <ele>737</ele>
        <time>2019-05-18T14:50:00Z</time>
      </trkpt>
      <trkpt lat="45.56159" lon="2.25272">
        <ele>737</ele>
        <time>2019-05-18T14:50:01Z</time>
      </trkpt>
      <trkpt lat="45.56162" lon="2.25272">
        <ele>737</ele>
        <time>2019-05-18T14:50:02Z</time>
      </trkpt>
      <trkpt lat="45.56167" lon="2.25269">
        <ele>737</ele>
        <time>2019-05-18T14:50:03Z</time>
      </trkpt>
      <trkpt lat="45.56171" lon="2.25267">
        <ele>737</ele>
        <time>2019-05-18T14:50:04Z</time>
      </trkpt>
      <trkpt lat="45.56175" lon="2.25265">
        <ele>737</ele>
        <time>2019-05-18T14:50:05Z</time>
      </trkpt>
      <trkpt lat="45.56178" lon="2.25265">
        <ele>738</ele>
        <time>2019-05-18T14:50:06Z</time>
      </trkpt>
      <trkpt lat="45.56182" lon="2.25264">
        <ele>738</ele>
        <time>2019-05-18T14:50:07Z</time>
      </trkpt>
      <trkpt lat="45.56185" lon="2.25262">
        <ele>738</ele>
        <time>2019-05-18T14:50:08Z</time>
      </trkpt>
      <trkpt lat="45.56189" lon="2.25261">
        <ele>738</ele>
        <time>2019-05-18T14:50:09Z</time>
      </trkpt>
      <trkpt lat="45.56193" lon="2.2526">
        <ele>738</ele>
        <time>2019-05-18T14:50:10Z</time>
      </trkpt>
      <trkpt lat="45.56196" lon="2.2526">
        <ele>738</ele>
        <time>2019-05-18T14:50:11Z</time>
      </trkpt>
      <trkpt lat="45.56199" lon="2.25259">
        <ele>738</ele>
        <time>2019-05-18T14:50:12Z</time>
      </trkpt>
      <trkpt lat="45.56202" lon="2.25259">
        <ele>738</ele>
        <time>2019-05-18T14:50:13Z</time>
      </trkpt>
      <trkpt lat="45.56205" lon="2.25258">
        <ele>738</ele>
        <time>2019-05-18T14:50:14Z</time>
      </trkpt>
      <trkpt lat="45.56209" lon="2.25258">
        <ele>738</ele>
        <time>2019-05-18T14:50:15Z</time>
      </trkpt>
      <trkpt lat="45.56211" lon="2.25259">
        <ele>738</ele>
        <time>2019-05-18T14:50:16Z</time>
      </trkpt>
      <trkpt lat="45.56214" lon="2.25259">
        <ele>738</ele>
        <time>2019-05-18T14:50:17Z</time>
      </trkpt>
      <trkpt lat="45.56217" lon="2.25259">
        <ele>738</ele>
        <time>2019-05-18T14:50:18Z</time>
      </trkpt>
      <trkpt lat="45.56219" lon="2.2526">
        <ele>738</ele>
        <time>2019-05-18T14:50:19Z</time>
      </trkpt>
      <trkpt lat="45.56221" lon="2.25261">
        <ele>738</ele>
        <time>2019-05-18T14:50:20Z</time>
      </trkpt>
      <trkpt lat="45.56224" lon="2.25261">
        <ele>738</ele>
        <time>2019-05-18T14:50:21Z</time>
      </trkpt>
      <trkpt lat="45.56227" lon="2.25261">
        <ele>739</ele>
        <time>2019-05-18T14:50:22Z</time>
      </trkpt>
      <trkpt lat="45.56229" lon="2.25261">
        <ele>739</ele>
        <time>2019-05-18T14:50:23Z</time>
      </trkpt>
      <trkpt lat="45.56232" lon="2.25261">
        <ele>739</ele>
        <time>2019-05-18T14:50:24Z</time>
      </trkpt>
      <trkpt lat="45.56236" lon="2.25261">
        <ele>739</ele>
        <time>2019-05-18T14:50:25Z</time>
      </trkpt>
      <trkpt lat="45.5624" lon="2.2526">
        <ele>739</ele>
        <time>2019-05-18T14:50:26Z</time>
      </trkpt>
      <trkpt lat="45.56243" lon="2.2526">
        <ele>739</ele>
        <time>2019-05-18T14:50:27Z</time>
      </trkpt>
      <trkpt lat="45.56245" lon="2.2526">
        <ele>739</ele>
        <time>2019-05-18T14:50:28Z</time>
      </trkpt>
      <trkpt lat="45.56248" lon="2.2526">
        <ele>739</ele>
        <time>2019-05-18T14:50:29Z</time>
      </trkpt>
      <trkpt lat="45.56251" lon="2.2526">
        <ele>739</ele>
        <time>2019-05-18T14:50:30Z</time>
      </trkpt>
      <trkpt lat="45.56253" lon="2.25259">
        <ele>739</ele>
        <time>2019-05-18T14:50:31Z</time>
      </trkpt>
      <trkpt lat="45.56257" lon="2.25258">
        <ele>739</ele>
        <time>2019-05-18T14:50:32Z</time>
      </trkpt>
      <trkpt lat="45.5626" lon="2.25258">
        <ele>739</ele>
        <time>2019-05-18T14:50:33Z</time>
      </trkpt>
      <trkpt lat="45.56263" lon="2.25256">
        <ele>739</ele>
        <time>2019-05-18T14:50:34Z</time>
      </trkpt>
      <trkpt lat="45.56266" lon="2.25255">
        <ele>739</ele>
        <time>2019-05-18T14:50:35Z</time>
      </trkpt>
      <trkpt lat="45.56268" lon="2.25254">
        <ele>739</ele>
        <time>2019-05-18T14:50:36Z</time>
      </trkpt>
      <trkpt lat="45.5627" lon="2.25252">
        <ele>739</ele>
        <time>2019-05-18T14:50:37Z</time>
      </trkpt>
      <trkpt lat="45.56272" lon="2.25251">
        <ele>739</ele>
        <time>2019-05-18T14:50:38Z</time>
      </trkpt>
      <trkpt lat="45.56274" lon="2.2525">
        <ele>739</ele>
        <time>2019-05-18T14:50:39Z</time>
      </trkpt>
      <trkpt lat="45.56277" lon="2.25247">
        <ele>739</ele>
        <time>2019-05-18T14:50:40Z</time>
      </trkpt>
      <trkpt lat="45.56279" lon="2.25244">
        <ele>739</ele>
        <time>2019-05-18T14:50:41Z</time>
      </trkpt>
      <trkpt lat="45.56282" lon="2.25241">
        <ele>739</ele>
        <time>2019-05-18T14:50:42Z</time>
      </trkpt>
      <trkpt lat="45.56285" lon="2.25238">
        <ele>739</ele>
        <time>2019-05-18T14:50:43Z</time>
      </trkpt>
      <trkpt lat="45.56288" lon="2.25235">
        <ele>740</ele>
        <time>2019-05-18T14:50:44Z</time>
      </trkpt>
      <trkpt lat="45.5629" lon="2.25232">
        <ele>740</ele>
        <time>2019-05-18T14:50:45Z</time>
      </trkpt>
      <trkpt lat="45.56293" lon="2.2523">
        <ele>740</ele>
        <time>2019-05-18T14:50:46Z</time>
      </trkpt>
      <trkpt lat="45.56297" lon="2.25226">
        <ele>740</ele>
        <time>2019-05-18T14:50:47Z</time>
      </trkpt>
      <trkpt lat="45.56299" lon="2.25224">
        <ele>740</ele>
        <time>2019-05-18T14:50:48Z</time>
      </trkpt>
      <trkpt lat="45.56302" lon="2.25221">
        <ele>740</ele>
        <time>2019-05-18T14:50:49Z</time>
      </trkpt>
      <trkpt lat="45.56305" lon="2.25218">
        <ele>740</ele>
        <time>2019-05-18T14:50:50Z</time>
      </trkpt>
      <trkpt lat="45.56308" lon="2.25216">
        <ele>740</ele>
        <time>2019-05-18T14:50:51Z</time>
      </trkpt>
      <trkpt lat="45.56311" lon="2.25213">
        <ele>740</ele>
        <time>2019-05-18T14:50:52Z</time>
      </trkpt>
      <trkpt lat="45.56314" lon="2.2521">
        <ele>740</ele>
        <time>2019-05-18T14:50:53Z</time>
      </trkpt>
      <trkpt lat="45.56316" lon="2.25208">
        <ele>740</ele>
        <time>2019-05-18T14:50:54Z</time>
      </trkpt>
      <trkpt lat="45.56319" lon="2.25205">
        <ele>740</ele>
        <time>2019-05-18T14:50:55Z</time>
      </trkpt>
      <trkpt lat="45.56322" lon="2.25202">
        <ele>741</ele>
        <time>2019-05-18T14:50:56Z</time>
      </trkpt>
      <trkpt lat="45.56324" lon="2.252">
        <ele>741</ele>
        <time>2019-05-18T14:50:57Z</time>
      </trkpt>
      <trkpt lat="45.56327" lon="2.25198">
        <ele>741</ele>
        <time>2019-05-18T14:50:58Z</time>
      </trkpt>
      <trkpt lat="45.56329" lon="2.25195">
        <ele>741</ele>
        <time>2019-05-18T14:50:59Z</time>
      </trkpt>
      <trkpt lat="45.56331" lon="2.25192">
        <ele>741</ele>
        <time>2019-05-18T14:51:00Z</time>
      </trkpt>
      <trkpt lat="45.56334" lon="2.25189">
        <ele>741</ele>
        <time>2019-05-18T14:51:01Z</time>
      </trkpt>
      <trkpt lat="45.56337" lon="2.25187">
        <ele>741</ele>
        <time>2019-05-18T14:51:02Z</time>
      </trkpt>
      <trkpt lat="45.56339" lon="2.25185">
        <ele>741</ele>
        <time>2019-05-18T14:51:03Z</time>
      </trkpt>
      <trkpt lat="45.56342" lon="2.25182">
        <ele>742</ele>
        <time>2019-05-18T14:51:04Z</time>
      </trkpt>
      <trkpt lat="45.56345" lon="2.2518">
        <ele>742</ele>
        <time>2019-05-18T14:51:05Z</time>
      </trkpt>
      <trkpt lat="45.56348" lon="2.25177">
        <ele>742</ele>
        <time>2019-05-18T14:51:06Z</time>
      </trkpt>
      <trkpt lat="45.5635" lon="2.25175">
        <ele>742</ele>
        <time>2019-05-18T14:51:07Z</time>
      </trkpt>
      <trkpt lat="45.56353" lon="2.25172">
        <ele>742</ele>
        <time>2019-05-18T14:51:08Z</time>
      </trkpt>
      <trkpt lat="45.56356" lon="2.2517">
        <ele>742</ele>
        <time>2019-05-18T14:51:09Z</time>
      </trkpt>
      <trkpt lat="45.56359" lon="2.25168">
        <ele>742</ele>
        <time>2019-05-18T14:51:10Z</time>
      </trkpt>
      <trkpt lat="45.56361" lon="2.25165">
        <ele>742</ele>
        <time>2019-05-18T14:51:11Z</time>
      </trkpt>
      <trkpt lat="45.56363" lon="2.25164">
        <ele>743</ele>
        <time>2019-05-18T14:51:12Z</time>
      </trkpt>
      <trkpt lat="45.56366" lon="2.25162">
        <ele>743</ele>
        <time>2019-05-18T14:51:13Z</time>
      </trkpt>
      <trkpt lat="45.56368" lon="2.2516">
        <ele>743</ele>
        <time>2019-05-18T14:51:14Z</time>
      </trkpt>
      <trkpt lat="45.56371" lon="2.25158">
        <ele>743</ele>
        <time>2019-05-18T14:51:15Z</time>
      </trkpt>
      <trkpt lat="45.56373" lon="2.25156">
        <ele>743</ele>
        <time>2019-05-18T14:51:16Z</time>
      </trkpt>
      <trkpt lat="45.56376" lon="2.25153">
        <ele>743</ele>
        <time>2019-05-18T14:51:17Z</time>
      </trkpt>
      <trkpt lat="45.56379" lon="2.25151">
        <ele>743</ele>
        <time>2019-05-18T14:51:18Z</time>
      </trkpt>
      <trkpt lat="45.56381" lon="2.25149">
        <ele>743</ele>
        <time>2019-05-18T14:51:19Z</time>
      </trkpt>
      <trkpt lat="45.56384" lon="2.25147">
        <ele>744</ele>
        <time>2019-05-18T14:51:20Z</time>
      </trkpt>
      <trkpt lat="45.56387" lon="2.25144">
        <ele>744</ele>
        <time>2019-05-18T14:51:21Z</time>
      </trkpt>
      <trkpt lat="45.56389" lon="2.25142">
        <ele>744</ele>
        <time>2019-05-18T14:51:22Z</time>
      </trkpt>
      <trkpt lat="45.56391" lon="2.25139">
        <ele>744</ele>
        <time>2019-05-18T14:51:23Z</time>
      </trkpt>
      <trkpt lat="45.56394" lon="2.25137">
        <ele>744</ele>
        <time>2019-05-18T14:51:24Z</time>
      </trkpt>
      <trkpt lat="45.56396" lon="2.25134">
        <ele>744</ele>
        <time>2019-05-18T14:51:25Z</time>
      </trkpt>
      <trkpt lat="45.56398" lon="2.25132">
        <ele>744</ele>
        <time>2019-05-18T14:51:26Z</time>
      </trkpt>
      <trkpt lat="45.56401" lon="2.2513">
        <ele>744</ele>
        <time>2019-05-18T14:51:27Z</time>
      </trkpt>
      <trkpt lat="45.56403" lon="2.25128">
        <ele>744</ele>
        <time>2019-05-18T14:51:28Z</time>
      </trkpt>
      <trkpt lat="45.56405" lon="2.25126">
        <ele>745</ele>
        <time>2019-05-18T14:51:29Z</time>
      </trkpt>
      <trkpt lat="45.56407" lon="2.25123">
        <ele>745</ele>
        <time>2019-05-18T14:51:30Z</time>
      </trkpt>
      <trkpt lat="45.56409" lon="2.25121">
        <ele>745</ele>
        <time>2019-05-18T14:51:31Z</time>
      </trkpt>
      <trkpt lat="45.56411" lon="2.25119">
        <ele>745</ele>
        <time>2019-05-18T14:51:32Z</time>
      </trkpt>
      <trkpt lat="45.56413" lon="2.25117">
        <ele>745</ele>
        <time>2019-05-18T14:51:33Z</time>
      </trkpt>
      <trkpt lat="45.56415" lon="2.25115">
        <ele>745</ele>
        <time>2019-05-18T14:51:34Z</time>
      </trkpt>
      <trkpt lat="45.56417" lon="2.25113">
        <ele>746</ele>
        <time>2019-05-18T14:51:35Z</time>
      </trkpt>
      <trkpt lat="45.56419" lon="2.25112">
        <ele>746</ele>
        <time>2019-05-18T14:51:36Z</time>
      </trkpt>
      <trkpt lat="45.56421" lon="2.2511">
        <ele>746</ele>
        <time>2019-05-18T14:51:37Z</time>
      </trkpt>
      <trkpt lat="45.56423" lon="2.25108">
        <ele>746</ele>
        <time>2019-05-18T14:51:38Z</time>
      </trkpt>
      <trkpt lat="45.56424" lon="2.25106">
        <ele>746</ele>
        <time>2019-05-18T14:51:39Z</time>
      </trkpt>
      <trkpt lat="45.56426" lon="2.25104">
        <ele>746</ele>
        <time>2019-05-18T14:51:40Z</time>
      </trkpt>
      <trkpt lat="45.56428" lon="2.25102">
        <ele>746</ele>
        <time>2019-05-18T14:51:41Z</time>
      </trkpt>
      <trkpt lat="45.5643" lon="2.25099">
        <ele>746</ele>
        <time>2019-05-18T14:51:42Z</time>
      </trkpt>
      <trkpt lat="45.56433" lon="2.25097">
        <ele>746</ele>
        <time>2019-05-18T14:51:43Z</time>
      </trkpt>
      <trkpt lat="45.56435" lon="2.25095">
        <ele>747</ele>
        <time>2019-05-18T14:51:44Z</time>
      </trkpt>
      <trkpt lat="45.56437" lon="2.25094">
        <ele>747</ele>
        <time>2019-05-18T14:51:45Z</time>
      </trkpt>
      <trkpt lat="45.56439" lon="2.25092">
        <ele>747</ele>
        <time>2019-05-18T14:51:46Z</time>
      </trkpt>
      <trkpt lat="45.56441" lon="2.2509">
        <ele>747</ele>
        <time>2019-05-18T14:51:47Z</time>
      </trkpt>
      <trkpt lat="45.56443" lon="2.25088">
        <ele>747</ele>
        <time>2019-05-18T14:51:48Z</time>
      </trkpt>
      <trkpt lat="45.56445" lon="2.25087">
        <ele>747</ele>
        <time>2019-05-18T14:51:49Z</time>
      </trkpt>
      <trkpt lat="45.56448" lon="2.25086">
        <ele>747</ele>
        <time>2019-05-18T14:51:50Z</time>
      </trkpt>
      <trkpt lat="45.56451" lon="2.25085">
        <ele>748</ele>
        <time>2019-05-18T14:51:51Z</time>
      </trkpt>
      <trkpt lat="45.56454" lon="2.25084">
        <ele>748</ele>
        <time>2019-05-18T14:51:52Z</time>
      </trkpt>
      <trkpt lat="45.56457" lon="2.25084">
        <ele>748</ele>
        <time>2019-05-18T14:51:53Z</time>
      </trkpt>
      <trkpt lat="45.56459" lon="2.25083">
        <ele>748</ele>
        <time>2019-05-18T14:51:54Z</time>
      </trkpt>
      <trkpt lat="45.5646" lon="2.25083">
        <ele>748</ele>
        <time>2019-05-18T14:51:55Z</time>
      </trkpt>
      <trkpt lat="45.56463" lon="2.25083">
        <ele>748</ele>
        <time>2019-05-18T14:51:56Z</time>
      </trkpt>
      <trkpt lat="45.56466" lon="2.25083">
        <ele>748</ele>
        <time>2019-05-18T14:51:57Z</time>
      </trkpt>
      <trkpt lat="45.56468" lon="2.25084">
        <ele>748</ele>
        <time>2019-05-18T14:51:58Z</time>
      </trkpt>
      <trkpt lat="45.5647" lon="2.25085">
        <ele>749</ele>
        <time>2019-05-18T14:51:59Z</time>
      </trkpt>
      <trkpt lat="45.56472" lon="2.25085">
        <ele>749</ele>
        <time>2019-05-18T14:52:00Z</time>
      </trkpt>
      <trkpt lat="45.56473" lon="2.25086">
        <ele>749</ele>
        <time>2019-05-18T14:52:01Z</time>
      </trkpt>
      <trkpt lat="45.56475" lon="2.25087">
        <ele>749</ele>
        <time>2019-05-18T14:52:02Z</time>
      </trkpt>
      <trkpt lat="45.56477" lon="2.25088">
        <ele>749</ele>
        <time>2019-05-18T14:52:03Z</time>
      </trkpt>
      <trkpt lat="45.56478" lon="2.25089">
        <ele>749</ele>
        <time>2019-05-18T14:52:04Z</time>
      </trkpt>
      <trkpt lat="45.5648" lon="2.2509">
        <ele>749</ele>
        <time>2019-05-18T14:52:05Z</time>
      </trkpt>
      <trkpt lat="45.56481" lon="2.2509">
        <ele>749</ele>
        <time>2019-05-18T14:52:06Z</time>
      </trkpt>
      <trkpt lat="45.56483" lon="2.25091">
        <ele>750</ele>
        <time>2019-05-18T14:52:07Z</time>
      </trkpt>
      <trkpt lat="45.56484" lon="2.25092">
        <ele>750</ele>
        <time>2019-05-18T14:52:08Z</time>
      </trkpt>
      <trkpt lat="45.56486" lon="2.25093">
        <ele>750</ele>
        <time>2019-05-18T14:52:09Z</time>
      </trkpt>
      <trkpt lat="45.56488" lon="2.25094">
        <ele>750</ele>
        <time>2019-05-18T14:52:10Z</time>
      </trkpt>
      <trkpt lat="45.5649" lon="2.25095">
        <ele>750</ele>
        <time>2019-05-18T14:52:11Z</time>
      </trkpt>
      <trkpt lat="45.56492" lon="2.25097">
        <ele>751</ele>
        <time>2019-05-18T14:52:12Z</time>
      </trkpt>
      <trkpt lat="45.56496" lon="2.25099">
        <ele>751</ele>
        <time>2019-05-18T14:52:13Z</time>
      </trkpt>
      <trkpt lat="45.56498" lon="2.25101">
        <ele>751</ele>
        <time>2019-05-18T14:52:14Z</time>
      </trkpt>
      <trkpt lat="45.56499" lon="2.25102">
        <ele>751</ele>
        <time>2019-05-18T14:52:15Z</time>
      </trkpt>
      <trkpt lat="45.56501" lon="2.25104">
        <ele>751</ele>
        <time>2019-05-18T14:52:16Z</time>
      </trkpt>
      <trkpt lat="45.56504" lon="2.25105">
        <ele>751</ele>
        <time>2019-05-18T14:52:17Z</time>
      </trkpt>
      <trkpt lat="45.56506" lon="2.25107">
        <ele>751</ele>
        <time>2019-05-18T14:52:18Z</time>
      </trkpt>
      <trkpt lat="45.56509" lon="2.25108">
        <ele>752</ele>
        <time>2019-05-18T14:52:19Z</time>
      </trkpt>
      <trkpt lat="45.56513" lon="2.2511">
        <ele>752</ele>
        <time>2019-05-18T14:52:20Z</time>
      </trkpt>
      <trkpt lat="45.56515" lon="2.25112">
        <ele>752</ele>
        <time>2019-05-18T14:52:21Z</time>
      </trkpt>
      <trkpt lat="45.56518" lon="2.25113">
        <ele>752</ele>
        <time>2019-05-18T14:52:22Z</time>
      </trkpt>
      <trkpt lat="45.56521" lon="2.25115">
        <ele>752</ele>
        <time>2019-05-18T14:52:23Z</time>
      </trkpt>
      <trkpt lat="45.56523" lon="2.25117">
        <ele>752</ele>
        <time>2019-05-18T14:52:24Z</time>
      </trkpt>
      <trkpt lat="45.56527" lon="2.25119">
        <ele>752</ele>
        <time>2019-05-18T14:52:25Z</time>
      </trkpt>
      <trkpt lat="45.5653" lon="2.2512">
        <ele>753</ele>
        <time>2019-05-18T14:52:26Z</time>
      </trkpt>
      <trkpt lat="45.56533" lon="2.25122">
        <ele>753</ele>
        <time>2019-05-18T14:52:27Z</time>
      </trkpt>
      <trkpt lat="45.56535" lon="2.25123">
        <ele>753</ele>
        <time>2019-05-18T14:52:28Z</time>
      </trkpt>
      <trkpt lat="45.56538" lon="2.25125">
        <ele>753</ele>
        <time>2019-05-18T14:52:29Z</time>
      </trkpt>
      <trkpt lat="45.56541" lon="2.25126">
        <ele>753</ele>
        <time>2019-05-18T14:52:30Z</time>
      </trkpt>
      <trkpt lat="45.56543" lon="2.25127">
        <ele>753</ele>
        <time>2019-05-18T14:52:31Z</time>
      </trkpt>
      <trkpt lat="45.56546" lon="2.25128">
        <ele>753</ele>
        <time>2019-05-18T14:52:32Z</time>
      </trkpt>
      <trkpt lat="45.56549" lon="2.25128">
        <ele>753</ele>
        <time>2019-05-18T14:52:33Z</time>
      </trkpt>
      <trkpt lat="45.56551" lon="2.25129">
        <ele>754</ele>
        <time>2019-05-18T14:52:34Z</time>
      </trkpt>
      <trkpt lat="45.56554" lon="2.2513">
        <ele>754</ele>
        <time>2019-05-18T14:52:35Z</time>
      </trkpt>
      <trkpt lat="45.56556" lon="2.25131">
        <ele>754</ele>
        <time>2019-05-18T14:52:36Z</time>
      </trkpt>
      <trkpt lat="45.56558" lon="2.25131">
        <ele>754</ele>
        <time>2019-05-18T14:52:37Z</time>
      </trkpt>
      <trkpt lat="45.56561" lon="2.25132">
        <ele>754</ele>
        <time>2019-05-18T14:52:38Z</time>
      </trkpt>
      <trkpt lat="45.56563" lon="2.25132">
        <ele>754</ele>
        <time>2019-05-18T14:52:39Z</time>
      </trkpt>
      <trkpt lat="45.56565" lon="2.25133">
        <ele>754</ele>
        <time>2019-05-18T14:52:40Z</time>
      </trkpt>
      <trkpt lat="45.56568" lon="2.25133">
        <ele>755</ele>
        <time>2019-05-18T14:52:41Z</time>
      </trkpt>
      <trkpt lat="45.56571" lon="2.25133">
        <ele>755</ele>
        <time>2019-05-18T14:52:42Z</time>
      </trkpt>
      <trkpt lat="45.56573" lon="2.25132">
        <ele>755</ele>
        <time>2019-05-18T14:52:43Z</time>
      </trkpt>
      <trkpt lat="45.56576" lon="2.25132">
        <ele>755</ele>
        <time>2019-05-18T14:52:44Z</time>
      </trkpt>
      <trkpt lat="45.56578" lon="2.25132">
        <ele>755</ele>
        <time>2019-05-18T14:52:45Z</time>
      </trkpt>
      <trkpt lat="45.56581" lon="2.25132">
        <ele>755</ele>
        <time>2019-05-18T14:52:46Z</time>
      </trkpt>
      <trkpt lat="45.56583" lon="2.25131">
        <ele>755</ele>
        <time>2019-05-18T14:52:47Z</time>
      </trkpt>
      <trkpt lat="45.56586" lon="2.25131">
        <ele>755</ele>
        <time>2019-05-18T14:52:48Z</time>
      </trkpt>
      <trkpt lat="45.56589" lon="2.2513">
        <ele>755</ele>
        <time>2019-05-18T14:52:49Z</time>
      </trkpt>
      <trkpt lat="45.56591" lon="2.2513">
        <ele>755</ele>
        <time>2019-05-18T14:52:50Z</time>
      </trkpt>
      <trkpt lat="45.56594" lon="2.25129">
        <ele>756</ele>
        <time>2019-05-18T14:52:51Z</time>
      </trkpt>
      <trkpt lat="45.56596" lon="2.25129">
        <ele>756</ele>
        <time>2019-05-18T14:52:52Z</time>
      </trkpt>
      <trkpt lat="45.56599" lon="2.25128">
        <ele>756</ele>
        <time>2019-05-18T14:52:53Z</time>
      </trkpt>
      <trkpt lat="45.56601" lon="2.25128">
        <ele>756</ele>
        <time>2019-05-18T14:52:54Z</time>
      </trkpt>
      <trkpt lat="45.56604" lon="2.25128">
        <ele>756</ele>
        <time>2019-05-18T14:52:55Z</time>
      </trkpt>
      <trkpt lat="45.56606" lon="2.25128">
        <ele>756</ele>
        <time>2019-05-18T14:52:56Z</time>
      </trkpt>
      <trkpt lat="45.56608" lon="2.25128">
        <ele>757</ele>
        <time>2019-05-18T14:52:57Z</time>
      </trkpt>
      <trkpt lat="45.56611" lon="2.25128">
        <ele>757</ele>
        <time>2019-05-18T14:52:58Z</time>
      </trkpt>
      <trkpt lat="45.56614" lon="2.25128">
        <ele>757</ele>
        <time>2019-05-18T14:52:59Z</time>
      </trkpt>
      <trkpt lat="45.56616" lon="2.25129">
        <ele>757</ele>
        <time>2019-05-18T14:53:00Z</time>
      </trkpt>
      <trkpt lat="45.56618" lon="2.25129">
        <ele>757</ele>
        <time>2019-05-18T14:53:01Z</time>
      </trkpt>
      <trkpt lat="45.5662" lon="2.2513">
        <ele>757</ele>
        <time>2019-05-18T14:53:02Z</time>
      </trkpt>
      <trkpt lat="45.56622" lon="2.25131">
        <ele>757</ele>
        <time>2019-05-18T14:53:03Z</time>
      </trkpt>
      <trkpt lat="45.56624" lon="2.25132">
        <ele>758</ele>
        <time>2019-05-18T14:53:04Z</time>
      </trkpt>
      <trkpt lat="45.56626" lon="2.25133">
        <ele>758</ele>
        <time>2019-05-18T14:53:05Z</time>
      </trkpt>
      <trkpt lat="45.56628" lon="2.25134">
        <ele>758</ele>
        <time>2019-05-18T14:53:06Z</time>
      </trkpt>
      <trkpt lat="45.5663" lon="2.25135">
        <ele>758</ele>
        <time>2019-05-18T14:53:07Z</time>
      </trkpt>
      <trkpt lat="45.56632" lon="2.25136">
        <ele>758</ele>
        <time>2019-05-18T14:53:08Z</time>
      </trkpt>
      <trkpt lat="45.56635" lon="2.25138">
        <ele>758</ele>
        <time>2019-05-18T14:53:09Z</time>
      </trkpt>
      <trkpt lat="45.56637" lon="2.25139">
        <ele>758</ele>
        <time>2019-05-18T14:53:10Z</time>
      </trkpt>
      <trkpt lat="45.56639" lon="2.2514">
        <ele>759</ele>
        <time>2019-05-18T14:53:11Z</time>
      </trkpt>
      <trkpt lat="45.56641" lon="2.25142">
        <ele>759</ele>
        <time>2019-05-18T14:53:12Z</time>
      </trkpt>
      <trkpt lat="45.56643" lon="2.25144">
        <ele>759</ele>
        <time>2019-05-18T14:53:13Z</time>
      </trkpt>
      <trkpt lat="45.56645" lon="2.25145">
        <ele>759</ele>
        <time>2019-05-18T14:53:14Z</time>
      </trkpt>
      <trkpt lat="45.56647" lon="2.25146">
        <ele>759</ele>
        <time>2019-05-18T14:53:15Z</time>
      </trkpt>
      <trkpt lat="45.5665" lon="2.25148">
        <ele>759</ele>
        <time>2019-05-18T14:53:16Z</time>
      </trkpt>
      <trkpt lat="45.56652" lon="2.2515">
        <ele>759</ele>
        <time>2019-05-18T14:53:17Z</time>
      </trkpt>
      <trkpt lat="45.56653" lon="2.25152">
        <ele>760</ele>
        <time>2019-05-18T14:53:18Z</time>
      </trkpt>
      <trkpt lat="45.56655" lon="2.25153">
        <ele>760</ele>
        <time>2019-05-18T14:53:19Z</time>
      </trkpt>
      <trkpt lat="45.56656" lon="2.25155">
        <ele>760</ele>
        <time>2019-05-18T14:53:20Z</time>
      </trkpt>
      <trkpt lat="45.56658" lon="2.25156">
        <ele>760</ele>
        <time>2019-05-18T14:53:21Z</time>
      </trkpt>
      <trkpt lat="45.56659" lon="2.25158">
        <ele>760</ele>
        <time>2019-05-18T14:53:22Z</time>
      </trkpt>
      <trkpt lat="45.56661" lon="2.2516">
        <ele>760</ele>
        <time>2019-05-18T14:53:23Z</time>
      </trkpt>
      <trkpt lat="45.56663" lon="2.25162">
        <ele>761</ele>
        <time>2019-05-18T14:53:24Z</time>
      </trkpt>
      <trkpt lat="45.56665" lon="2.25164">
        <ele>761</ele>
        <time>2019-05-18T14:53:25Z</time>
      </trkpt>
      <trkpt lat="45.56667" lon="2.25166">
        <ele>761</ele>
        <time>2019-05-18T14:53:26Z</time>
      </trkpt>
      <trkpt lat="45.56669" lon="2.25167">
        <ele>761</ele>
        <time>2019-05-18T14:53:27Z</time>
      </trkpt>
      <trkpt lat="45.56671" lon="2.25168">
        <ele>761</ele>
        <time>2019-05-18T14:53:28Z</time>
      </trkpt>
      <trkpt lat="45.56674" lon="2.2517">
        <ele>761</ele>
        <time>2019-05-18T14:53:29Z</time>
      </trkpt>
      <trkpt lat="45.56676" lon="2.25172">
        <ele>761</ele>
        <time>2019-05-18T14:53:30Z</time>
      </trkpt>
      <trkpt lat="45.56678" lon="2.25173">
        <ele>761</ele>
        <time>2019-05-18T14:53:31Z</time>
      </trkpt>
      <trkpt lat="45.5668" lon="2.25175">
        <ele>761</ele>
        <time>2019-05-18T14:53:32Z</time>
      </trkpt>
      <trkpt lat="45.56682" lon="2.25177">
        <ele>762</ele>
        <time>2019-05-18T14:53:33Z</time>
      </trkpt>
      <trkpt lat="45.56684" lon="2.25178">
        <ele>762</ele>
        <time>2019-05-18T14:53:34Z</time>
      </trkpt>
      <trkpt lat="45.56686" lon="2.2518">
        <ele>762</ele>
        <time>2019-05-18T14:53:35Z</time>
      </trkpt>
      <trkpt lat="45.56688" lon="2.25182">
        <ele>762</ele>
        <time>2019-05-18T14:53:36Z</time>
      </trkpt>
      <trkpt lat="45.56691" lon="2.25183">
        <ele>762</ele>
        <time>2019-05-18T14:53:37Z</time>
      </trkpt>
      <trkpt lat="45.56693" lon="2.25185">
        <ele>762</ele>
        <time>2019-05-18T14:53:38Z</time>
      </trkpt>
      <trkpt lat="45.56695" lon="2.25187">
        <ele>762</ele>
        <time>2019-05-18T14:53:39Z</time>
      </trkpt>
      <trkpt lat="45.56697" lon="2.25189">
        <ele>762</ele>
        <time>2019-05-18T14:53:40Z</time>
      </trkpt>
      <trkpt lat="45.56699" lon="2.2519">
        <ele>762</ele>
        <time>2019-05-18T14:53:41Z</time>
      </trkpt>
      <trkpt lat="45.56701" lon="2.25192">
        <ele>763</ele>
        <time>2019-05-18T14:53:42Z</time>
      </trkpt>
      <trkpt lat="45.56703" lon="2.25193">
        <ele>763</ele>
        <time>2019-05-18T14:53:43Z</time>
      </trkpt>
      <trkpt lat="45.56705" lon="2.25195">
        <ele>763</ele>
        <time>2019-05-18T14:53:44Z</time>
      </trkpt>
      <trkpt lat="45.56708" lon="2.25196">
        <ele>763</ele>
        <time>2019-05-18T14:53:45Z</time>
      </trkpt>
      <trkpt lat="45.5671" lon="2.25196">
        <ele>763</ele>
        <time>2019-05-18T14:53:46Z</time>
      </trkpt>
      <trkpt lat="45.56712" lon="2.25197">
        <ele>763</ele>
        <time>2019-05-18T14:53:47Z</time>
      </trkpt>
      <trkpt lat="45.56715" lon="2.25198">
        <ele>763</ele>
        <time>2019-05-18T14:53:48Z</time>
      </trkpt>
      <trkpt lat="45.56717" lon="2.25198">
        <ele>763</ele>
        <time>2019-05-18T14:53:49Z</time>
      </trkpt>
      <trkpt lat="45.56719" lon="2.25198">
        <ele>763</ele>
        <time>2019-05-18T14:53:50Z</time>
      </trkpt>
      <trkpt lat="45.56722" lon="2.25198">
        <ele>763</ele>
        <time>2019-05-18T14:53:51Z</time>
      </trkpt>
      <trkpt lat="45.56724" lon="2.25198">
        <ele>763</ele>
        <time>2019-05-18T14:53:52Z</time>
      </trkpt>
      <trkpt lat="45.56726" lon="2.25198">
        <ele>764</ele>
        <time>2019-05-18T14:53:53Z</time>
      </trkpt>
      <trkpt lat="45.56728" lon="2.25197">
        <ele>764</ele>
        <time>2019-05-18T14:53:54Z</time>
      </trkpt>
      <trkpt lat="45.56731" lon="2.25197">
        <ele>764</ele>
        <time>2019-05-18T14:53:55Z</time>
      </trkpt>
      <trkpt lat="45.56733" lon="2.25196">
        <ele>764</ele>
        <time>2019-05-18T14:53:56Z</time>
      </trkpt>
      <trkpt lat="45.56736" lon="2.25195">
        <ele>764</ele>
        <time>2019-05-18T14:53:57Z</time>
      </trkpt>
      <trkpt lat="45.56738" lon="2.25194">
        <ele>764</ele>
        <time>2019-05-18T14:53:58Z</time>
      </trkpt>
      <trkpt lat="45.5674" lon="2.25193">
        <ele>764</ele>
        <time>2019-05-18T14:53:59Z</time>
      </trkpt>
      <trkpt lat="45.56743" lon="2.25192">
        <ele>764</ele>
        <time>2019-05-18T14:54:00Z</time>
      </trkpt>
      <trkpt lat="45.56745" lon="2.25191">
        <ele>764</ele>
        <time>2019-05-18T14:54:01Z</time>
      </trkpt>
      <trkpt lat="45.56748" lon="2.25189">
        <ele>764</ele>
        <time>2019-05-18T14:54:02Z</time>
      </trkpt>
      <trkpt lat="45.5675" lon="2.25188">
        <ele>764</ele>
        <time>2019-05-18T14:54:03Z</time>
      </trkpt>
      <trkpt lat="45.56753" lon="2.25187">
        <ele>764</ele>
        <time>2019-05-18T14:54:04Z</time>
      </trkpt>
      <trkpt lat="45.56755" lon="2.25186">
        <ele>764</ele>
        <time>2019-05-18T14:54:05Z</time>
      </trkpt>
      <trkpt lat="45.56757" lon="2.25185">
        <ele>764</ele>
        <time>2019-05-18T14:54:06Z</time>
      </trkpt>
      <trkpt lat="45.5676" lon="2.25183">
        <ele>764</ele>
        <time>2019-05-18T14:54:07Z</time>
      </trkpt>
      <trkpt lat="45.56762" lon="2.25182">
        <ele>764</ele>
        <time>2019-05-18T14:54:08Z</time>
      </trkpt>
      <trkpt lat="45.56764" lon="2.25181">
        <ele>764</ele>
        <time>2019-05-18T14:54:09Z</time>
      </trkpt>
      <trkpt lat="45.56767" lon="2.2518">
        <ele>765</ele>
        <time>2019-05-18T14:54:10Z</time>
      </trkpt>
      <trkpt lat="45.56769" lon="2.25179">
        <ele>765</ele>
        <time>2019-05-18T14:54:11Z</time>
      </trkpt>
      <trkpt lat="45.56771" lon="2.25178">
        <ele>765</ele>
        <time>2019-05-18T14:54:12Z</time>
      </trkpt>
      <trkpt lat="45.56773" lon="2.25176">
        <ele>765</ele>
        <time>2019-05-18T14:54:13Z</time>
      </trkpt>
      <trkpt lat="45.56775" lon="2.25176">
        <ele>765</ele>
        <time>2019-05-18T14:54:14Z</time>
      </trkpt>
      <trkpt lat="45.56777" lon="2.25175">
        <ele>765</ele>
        <time>2019-05-18T14:54:15Z</time>
      </trkpt>
      <trkpt lat="45.56779" lon="2.25175">
        <ele>765</ele>
        <time>2019-05-18T14:54:16Z</time>
      </trkpt>
      <trkpt lat="45.5678" lon="2.25175">
        <ele>765</ele>
        <time>2019-05-18T14:54:17Z</time>
      </trkpt>
      <trkpt lat="45.56782" lon="2.25175">
        <ele>765</ele>
        <time>2019-05-18T14:54:18Z</time>
      </trkpt>
      <trkpt lat="45.56783" lon="2.25176">
        <ele>765</ele>
        <time>2019-05-18T14:54:19Z</time>
      </trkpt>
      <trkpt lat="45.56784" lon="2.25177">
        <ele>765</ele>
        <time>2019-05-18T14:54:20Z</time>
      </trkpt>
      <trkpt lat="45.56787" lon="2.25176">
        <ele>765</ele>
        <time>2019-05-18T14:54:21Z</time>
      </trkpt>
      <trkpt lat="45.5679" lon="2.25176">
        <ele>765</ele>
        <time>2019-05-18T14:54:22Z</time>
      </trkpt>
      <trkpt lat="45.56792" lon="2.25175">
        <ele>765</ele>
        <time>2019-05-18T14:54:23Z</time>
      </trkpt>
      <trkpt lat="45.56794" lon="2.25175">
        <ele>765</ele>
        <time>2019-05-18T14:54:24Z</time>
      </trkpt>
      <trkpt lat="45.56797" lon="2.25175">
        <ele>765</ele>
        <time>2019-05-18T14:54:25Z</time>
      </trkpt>
      <trkpt lat="45.56799" lon="2.25175">
        <ele>765</ele>
        <time>2019-05-18T14:54:26Z</time>
      </trkpt>
      <trkpt lat="45.56802" lon="2.25175">
        <ele>766</ele>
        <time>2019-05-18T14:54:27Z</time>
      </trkpt>
      <trkpt lat="45.56804" lon="2.25175">
        <ele>766</ele>
        <time>2019-05-18T14:54:28Z</time>
      </trkpt>
      <trkpt lat="45.56807" lon="2.25176">
        <ele>766</ele>
        <time>2019-05-18T14:54:29Z</time>
      </trkpt>
      <trkpt lat="45.56808" lon="2.25176">
        <ele>766</ele>
        <time>2019-05-18T14:54:30Z</time>
      </trkpt>
      <trkpt lat="45.56811" lon="2.25176">
        <ele>766</ele>
        <time>2019-05-18T14:54:31Z</time>
      </trkpt>
      <trkpt lat="45.56814" lon="2.25177">
        <ele>766</ele>
        <time>2019-05-18T14:54:32Z</time>
      </trkpt>
      <trkpt lat="45.56816" lon="2.25178">
        <ele>766</ele>
        <time>2019-05-18T14:54:33Z</time>
      </trkpt>
      <trkpt lat="45.56818" lon="2.25179">
        <ele>766</ele>
        <time>2019-05-18T14:54:34Z</time>
      </trkpt>
      <trkpt lat="45.56821" lon="2.2518">
        <ele>766</ele>
        <time>2019-05-18T14:54:35Z</time>
      </trkpt>
      <trkpt lat="45.56823" lon="2.2518">
        <ele>766</ele>
        <time>2019-05-18T14:54:36Z</time>
      </trkpt>
      <trkpt lat="45.56825" lon="2.25181">
        <ele>767</ele>
        <time>2019-05-18T14:54:37Z</time>
      </trkpt>
      <trkpt lat="45.56827" lon="2.25183">
        <ele>767</ele>
        <time>2019-05-18T14:54:38Z</time>
      </trkpt>
      <trkpt lat="45.5683" lon="2.25185">
        <ele>767</ele>
        <time>2019-05-18T14:54:39Z</time>
      </trkpt>
      <trkpt lat="45.56832" lon="2.25187">
        <ele>767</ele>
        <time>2019-05-18T14:54:40Z</time>
      </trkpt>
      <trkpt lat="45.56835" lon="2.25189">
        <ele>767</ele>
        <time>2019-05-18T14:54:41Z</time>
      </trkpt>
      <trkpt lat="45.56837" lon="2.25191">
        <ele>767</ele>
        <time>2019-05-18T14:54:42Z</time>
      </trkpt>
      <trkpt lat="45.5684" lon="2.25192">
        <ele>767</ele>
        <time>2019-05-18T14:54:43Z</time>
      </trkpt>
      <trkpt lat="45.56842" lon="2.25194">
        <ele>767</ele>
        <time>2019-05-18T14:54:44Z</time>
      </trkpt>
      <trkpt lat="45.56845" lon="2.25195">
        <ele>767</ele>
        <time>2019-05-18T14:54:45Z</time>
      </trkpt>
      <trkpt lat="45.56847" lon="2.25197">
        <ele>767</ele>
        <time>2019-05-18T14:54:46Z</time>
      </trkpt>
      <trkpt lat="45.56849" lon="2.25199">
        <ele>767</ele>
        <time>2019-05-18T14:54:47Z</time>
      </trkpt>
      <trkpt lat="45.56852" lon="2.25201">
        <ele>767</ele>
        <time>2019-05-18T14:54:48Z</time>
      </trkpt>
      <trkpt lat="45.56854" lon="2.25202">
        <ele>767</ele>
        <time>2019-05-18T14:54:49Z</time>
      </trkpt>
      <trkpt lat="45.56857" lon="2.25204">
        <ele>767</ele>
        <time>2019-05-18T14:54:50Z</time>
      </trkpt>
      <trkpt lat="45.56859" lon="2.25206">
        <ele>767</ele>
        <time>2019-05-18T14:54:51Z</time>
      </trkpt>
      <trkpt lat="45.56861" lon="2.25208">
        <ele>767</ele>
        <time>2019-05-18T14:54:52Z</time>
      </trkpt>
      <trkpt lat="45.56863" lon="2.2521">
        <ele>767</ele>
        <time>2019-05-18T14:54:53Z</time>
      </trkpt>
      <trkpt lat="45.56866" lon="2.25212">
        <ele>767</ele>
        <time>2019-05-18T14:54:54Z</time>
      </trkpt>
      <trkpt lat="45.56869" lon="2.25213">
        <ele>768</ele>
        <time>2019-05-18T14:54:55Z</time>
      </trkpt>
      <trkpt lat="45.56871" lon="2.25215">
        <ele>768</ele>
        <time>2019-05-18T14:54:56Z</time>
      </trkpt>
      <trkpt lat="45.56874" lon="2.25217">
        <ele>768</ele>
        <time>2019-05-18T14:54:57Z</time>
      </trkpt>
      <trkpt lat="45.56876" lon="2.25219">
        <ele>768</ele>
        <time>2019-05-18T14:54:58Z</time>
      </trkpt>
      <trkpt lat="45.56879" lon="2.2522">
        <ele>768</ele>
        <time>2019-05-18T14:54:59Z</time>
      </trkpt>
      <trkpt lat="45.56881" lon="2.25222">
        <ele>768</ele>
        <time>2019-05-18T14:55:00Z</time>
      </trkpt>
      <trkpt lat="45.56883" lon="2.25224">
        <ele>768</ele>
        <time>2019-05-18T14:55:01Z</time>
      </trkpt>
      <trkpt lat="45.56886" lon="2.25226">
        <ele>768</ele>
        <time>2019-05-18T14:55:02Z</time>
      </trkpt>
      <trkpt lat="45.56888" lon="2.25228">
        <ele>768</ele>
        <time>2019-05-18T14:55:03Z</time>
      </trkpt>
      <trkpt lat="45.5689" lon="2.2523">
        <ele>768</ele>
        <time>2019-05-18T14:55:04Z</time>
      </trkpt>
      <trkpt lat="45.56891" lon="2.25231">
        <ele>768</ele>
        <time>2019-05-18T14:55:05Z</time>
      </trkpt>
      <trkpt lat="45.56893" lon="2.25233">
        <ele>769</ele>
        <time>2019-05-18T14:55:06Z</time>
      </trkpt>
      <trkpt lat="45.56895" lon="2.25235">
        <ele>769</ele>
        <time>2019-05-18T14:55:07Z</time>
      </trkpt>
      <trkpt lat="45.56898" lon="2.25237">
        <ele>769</ele>
        <time>2019-05-18T14:55:08Z</time>
      </trkpt>
      <trkpt lat="45.569" lon="2.25239">
        <ele>769</ele>
        <time>2019-05-18T14:55:09Z</time>
      </trkpt>
      <trkpt lat="45.56902" lon="2.25241">
        <ele>769</ele>
        <time>2019-05-18T14:55:10Z</time>
      </trkpt>
      <trkpt lat="45.56905" lon="2.25243">
        <ele>769</ele>
        <time>2019-05-18T14:55:11Z</time>
      </trkpt>
      <trkpt lat="45.56908" lon="2.25245">
        <ele>769</ele>
        <time>2019-05-18T14:55:12Z</time>
      </trkpt>
      <trkpt lat="45.56911" lon="2.25247">
        <ele>769</ele>
        <time>2019-05-18T14:55:13Z</time>
      </trkpt>
      <trkpt lat="45.56914" lon="2.25249">
        <ele>769</ele>
        <time>2019-05-18T14:55:14Z</time>
      </trkpt>
      <trkpt lat="45.56917" lon="2.25251">
        <ele>769</ele>
        <time>2019-05-18T14:55:15Z</time>
      </trkpt>
      <trkpt lat="45.5692" lon="2.25253">
        <ele>769</ele>
        <time>2019-05-18T14:55:16Z</time>
      </trkpt>
      <trkpt lat="45.56922" lon="2.25255">
        <ele>769</ele>
        <time>2019-05-18T14:55:17Z</time>
      </trkpt>
      <trkpt lat="45.56925" lon="2.25257">
        <ele>769</ele>
        <time>2019-05-18T14:55:18Z</time>
      </trkpt>
      <trkpt lat="45.56928" lon="2.25259">
        <ele>769</ele>
        <time>2019-05-18T14:55:19Z</time>
      </trkpt>
      <trkpt lat="45.56931" lon="2.25261">
        <ele>769</ele>
        <time>2019-05-18T14:55:20Z</time>
      </trkpt>
      <trkpt lat="45.56934" lon="2.25263">
        <ele>769</ele>
        <time>2019-05-18T14:55:21Z</time>
      </trkpt>
      <trkpt lat="45.56937" lon="2.25265">
        <ele>769</ele>
        <time>2019-05-18T14:55:22Z</time>
      </trkpt>
      <trkpt lat="45.56941" lon="2.25268">
        <ele>768</ele>
        <time>2019-05-18T14:55:23Z</time>
      </trkpt>
      <trkpt lat="45.56944" lon="2.2527">
        <ele>768</ele>
        <time>2019-05-18T14:55:24Z</time>
      </trkpt>
      <trkpt lat="45.56948" lon="2.25272">
        <ele>768</ele>
        <time>2019-05-18T14:55:25Z</time>
      </trkpt>
      <trkpt lat="45.56951" lon="2.25274">
        <ele>768</ele>
        <time>2019-05-18T14:55:26Z</time>
      </trkpt>
      <trkpt lat="45.56954" lon="2.25277">
        <ele>768</ele>
        <time>2019-05-18T14:55:27Z</time>
      </trkpt>
      <trkpt lat="45.56958" lon="2.25279">
        <ele>769</ele>
        <time>2019-05-18T14:55:28Z</time>
      </trkpt>
      <trkpt lat="45.56961" lon="2.25281">
        <ele>769</ele>
        <time>2019-05-18T14:55:29Z</time>
      </trkpt>
      <trkpt lat="45.56965" lon="2.25283">
        <ele>769</ele>
        <time>2019-05-18T14:55:30Z</time>
      </trkpt>
      <trkpt lat="45.56968" lon="2.25286">
        <ele>769</ele>
        <time>2019-05-18T14:55:31Z</time>
      </trkpt>
      <trkpt lat="45.56971" lon="2.25288">
        <ele>769</ele>
        <time>2019-05-18T14:55:32Z</time>
      </trkpt>
      <trkpt lat="45.56974" lon="2.2529">
        <ele>769</ele>
        <time>2019-05-18T14:55:33Z</time>
      </trkpt>
      <trkpt lat="45.56977" lon="2.25292">
        <ele>769</ele>
        <time>2019-05-18T14:55:34Z</time>
      </trkpt>
      <trkpt lat="45.5698" lon="2.25294">
        <ele>769</ele>
        <time>2019-05-18T14:55:35Z</time>
      </trkpt>
      <trkpt lat="45.56983" lon="2.25296">
        <ele>769</ele>
        <time>2019-05-18T14:55:36Z</time>
      </trkpt>
      <trkpt lat="45.56986" lon="2.25298">
        <ele>770</ele>
        <time>2019-05-18T14:55:37Z</time>
      </trkpt>
      <trkpt lat="45.56988" lon="2.253">
        <ele>770</ele>
        <time>2019-05-18T14:55:38Z</time>
      </trkpt>
      <trkpt lat="45.5699" lon="2.25303">
        <ele>770</ele>
        <time>2019-05-18T14:55:39Z</time>
      </trkpt>
      <trkpt lat="45.56992" lon="2.25305">
        <ele>770</ele>
        <time>2019-05-18T14:55:40Z</time>
      </trkpt>
      <trkpt lat="45.56994" lon="2.25307">
        <ele>770</ele>
        <time>2019-05-18T14:55:41Z</time>
      </trkpt>
      <trkpt lat="45.56997" lon="2.25308">
        <ele>770</ele>
        <time>2019-05-18T14:55:42Z</time>
      </trkpt>
      <trkpt lat="45.57" lon="2.25309">
        <ele>771</ele>
        <time>2019-05-18T14:55:43Z</time>
      </trkpt>
      <trkpt lat="45.57003" lon="2.25309">
        <ele>771</ele>
        <time>2019-05-18T14:55:44Z</time>
      </trkpt>
      <trkpt lat="45.57006" lon="2.2531">
        <ele>771</ele>
        <time>2019-05-18T14:55:45Z</time>
      </trkpt>
      <trkpt lat="45.57008" lon="2.25312">
        <ele>771</ele>
        <time>2019-05-18T14:55:46Z</time>
      </trkpt>
      <trkpt lat="45.57011" lon="2.25314">
        <ele>771</ele>
        <time>2019-05-18T14:55:47Z</time>
      </trkpt>
      <trkpt lat="45.57013" lon="2.25316">
        <ele>771</ele>
        <time>2019-05-18T14:55:48Z</time>
      </trkpt>
      <trkpt lat="45.57016" lon="2.25318">
        <ele>771</ele>
        <time>2019-05-18T14:55:49Z</time>
      </trkpt>
      <trkpt lat="45.57018" lon="2.2532">
        <ele>771</ele>
        <time>2019-05-18T14:55:50Z</time>
      </trkpt>
      <trkpt lat="45.5702" lon="2.25322">
        <ele>771</ele>
        <time>2019-05-18T14:55:51Z</time>
      </trkpt>
      <trkpt lat="45.57023" lon="2.25323">
        <ele>771</ele>
        <time>2019-05-18T14:55:52Z</time>
      </trkpt>
      <trkpt lat="45.57026" lon="2.25325">
        <ele>771</ele>
        <time>2019-05-18T14:55:53Z</time>
      </trkpt>
      <trkpt lat="45.57028" lon="2.25327">
        <ele>771</ele>
        <time>2019-05-18T14:55:54Z</time>
      </trkpt>
      <trkpt lat="45.57031" lon="2.25329">
        <ele>771</ele>
        <time>2019-05-18T14:55:55Z</time>
      </trkpt>
      <trkpt lat="45.57034" lon="2.25331">
        <ele>771</ele>
        <time>2019-05-18T14:55:56Z</time>
      </trkpt>
      <trkpt lat="45.57036" lon="2.25331">
        <ele>771</ele>
        <time>2019-05-18T14:55:57Z</time>
      </trkpt>
      <trkpt lat="45.57039" lon="2.25331">
        <ele>771</ele>
        <time>2019-05-18T14:55:58Z</time>
      </trkpt>
      <trkpt lat="45.57043" lon="2.2533">
        <ele>771</ele>
        <time>2019-05-18T14:55:59Z</time>
      </trkpt>
      <trkpt lat="45.57046" lon="2.2533">
        <ele>771</ele>
        <time>2019-05-18T14:56:00Z</time>
      </trkpt>
      <trkpt lat="45.5705" lon="2.25327">
        <ele>771</ele>
        <time>2019-05-18T14:56:01Z</time>
      </trkpt>
      <trkpt lat="45.57054" lon="2.25324">
        <ele>770</ele>
        <time>2019-05-18T14:56:02Z</time>
      </trkpt>
      <trkpt lat="45.57058" lon="2.25321">
        <ele>770</ele>
        <time>2019-05-18T14:56:03Z</time>
      </trkpt>
      <trkpt lat="45.57062" lon="2.25317">
        <ele>770</ele>
        <time>2019-05-18T14:56:04Z</time>
      </trkpt>
      <trkpt lat="45.57067" lon="2.25314">
        <ele>769</ele>
        <time>2019-05-18T14:56:05Z</time>
      </trkpt>
      <trkpt lat="45.57072" lon="2.25309">
        <ele>769</ele>
        <time>2019-05-18T14:56:06Z</time>
      </trkpt>
      <trkpt lat="45.57076" lon="2.25304">
        <ele>769</ele>
        <time>2019-05-18T14:56:07Z</time>
      </trkpt>
      <trkpt lat="45.5708" lon="2.25299">
        <ele>769</ele>
        <time>2019-05-18T14:56:08Z</time>
      </trkpt>
      <trkpt lat="45.57084" lon="2.25293">
        <ele>768</ele>
        <time>2019-05-18T14:56:09Z</time>
      </trkpt>
      <trkpt lat="45.57089" lon="2.25287">
        <ele>768</ele>
        <time>2019-05-18T14:56:10Z</time>
      </trkpt>
      <trkpt lat="45.57093" lon="2.25282">
        <ele>768</ele>
        <time>2019-05-18T14:56:11Z</time>
      </trkpt>
      <trkpt lat="45.57096" lon="2.25275">
        <ele>768</ele>
        <time>2019-05-18T14:56:12Z</time>
      </trkpt>
      <trkpt lat="45.57099" lon="2.25269">
        <ele>768</ele>
        <time>2019-05-18T14:56:13Z</time>
      </trkpt>
      <trkpt lat="45.57102" lon="2.25263">
        <ele>768</ele>
        <time>2019-05-18T14:56:14Z</time>
      </trkpt>
      <trkpt lat="45.57105" lon="2.25258">
        <ele>768</ele>
        <time>2019-05-18T14:56:15Z</time>
      </trkpt>
      <trkpt lat="45.57108" lon="2.25252">
        <ele>768</ele>
        <time>2019-05-18T14:56:16Z</time>
      </trkpt>
      <trkpt lat="45.5711" lon="2.25248">
        <ele>768</ele>
        <time>2019-05-18T14:56:17Z</time>
      </trkpt>
      <trkpt lat="45.57113" lon="2.25244">
        <ele>768</ele>
        <time>2019-05-18T14:56:18Z</time>
      </trkpt>
      <trkpt lat="45.57116" lon="2.25241">
        <ele>769</ele>
        <time>2019-05-18T14:56:19Z</time>
      </trkpt>
      <trkpt lat="45.57118" lon="2.25238">
        <ele>769</ele>
        <time>2019-05-18T14:56:20Z</time>
      </trkpt>
      <trkpt lat="45.57121" lon="2.25235">
        <ele>769</ele>
        <time>2019-05-18T14:56:21Z</time>
      </trkpt>
      <trkpt lat="45.57123" lon="2.25232">
        <ele>769</ele>
        <time>2019-05-18T14:56:22Z</time>
      </trkpt>
      <trkpt lat="45.57125" lon="2.25229">
        <ele>769</ele>
        <time>2019-05-18T14:56:23Z</time>
      </trkpt>
      <trkpt lat="45.57128" lon="2.25227">
        <ele>769</ele>
        <time>2019-05-18T14:56:24Z</time>
      </trkpt>
      <trkpt lat="45.57131" lon="2.25225">
        <ele>770</ele>
        <time>2019-05-18T14:56:25Z</time>
      </trkpt>
      <trkpt lat="45.57133" lon="2.25222">
        <ele>770</ele>
        <time>2019-05-18T14:56:26Z</time>
      </trkpt>
      <trkpt lat="45.57136" lon="2.2522">
        <ele>770</ele>
        <time>2019-05-18T14:56:27Z</time>
      </trkpt>
      <trkpt lat="45.57138" lon="2.25218">
        <ele>770</ele>
        <time>2019-05-18T14:56:28Z</time>
      </trkpt>
      <trkpt lat="45.57141" lon="2.25216">
        <ele>770</ele>
        <time>2019-05-18T14:56:29Z</time>
      </trkpt>
      <trkpt lat="45.57143" lon="2.25214">
        <ele>770</ele>
        <time>2019-05-18T14:56:30Z</time>
      </trkpt>
      <trkpt lat="45.57145" lon="2.25212">
        <ele>771</ele>
        <time>2019-05-18T14:56:31Z</time>
      </trkpt>
      <trkpt lat="45.57148" lon="2.2521">
        <ele>771</ele>
        <time>2019-05-18T14:56:32Z</time>
      </trkpt>
      <trkpt lat="45.5715" lon="2.25207">
        <ele>771</ele>
        <time>2019-05-18T14:56:33Z</time>
      </trkpt>
      <trkpt lat="45.57153" lon="2.25205">
        <ele>771</ele>
        <time>2019-05-18T14:56:34Z</time>
      </trkpt>
      <trkpt lat="45.57155" lon="2.25204">
        <ele>771</ele>
        <time>2019-05-18T14:56:35Z</time>
      </trkpt>
      <trkpt lat="45.57158" lon="2.25203">
        <ele>771</ele>
        <time>2019-05-18T14:56:36Z</time>
      </trkpt>
      <trkpt lat="45.5716" lon="2.25203">
        <ele>772</ele>
        <time>2019-05-18T14:56:37Z</time>
      </trkpt>
      <trkpt lat="45.57163" lon="2.25201">
        <ele>772</ele>
        <time>2019-05-18T14:56:38Z</time>
      </trkpt>
      <trkpt lat="45.57165" lon="2.25199">
        <ele>772</ele>
        <time>2019-05-18T14:56:39Z</time>
      </trkpt>
      <trkpt lat="45.57167" lon="2.25197">
        <ele>772</ele>
        <time>2019-05-18T14:56:40Z</time>
      </trkpt>
      <trkpt lat="45.57169" lon="2.25195">
        <ele>772</ele>
        <time>2019-05-18T14:56:41Z</time>
      </trkpt>
      <trkpt lat="45.57171" lon="2.25193">
        <ele>772</ele>
        <time>2019-05-18T14:56:42Z</time>
      </trkpt>
      <trkpt lat="45.57174" lon="2.25191">
        <ele>772</ele>
        <time>2019-05-18T14:56:43Z</time>
      </trkpt>
      <trkpt lat="45.57177" lon="2.25189">
        <ele>772</ele>
        <time>2019-05-18T14:56:44Z</time>
      </trkpt>
      <trkpt lat="45.57179" lon="2.25187">
        <ele>772</ele>
        <time>2019-05-18T14:56:45Z</time>
      </trkpt>
      <trkpt lat="45.57182" lon="2.25184">
        <ele>772</ele>
        <time>2019-05-18T14:56:46Z</time>
      </trkpt>
      <trkpt lat="45.57185" lon="2.25182">
        <ele>772</ele>
        <time>2019-05-18T14:56:47Z</time>
      </trkpt>
      <trkpt lat="45.57189" lon="2.25179">
        <ele>772</ele>
        <time>2019-05-18T14:56:48Z</time>
      </trkpt>
      <trkpt lat="45.57193" lon="2.25177">
        <ele>772</ele>
        <time>2019-05-18T14:56:49Z</time>
      </trkpt>
      <trkpt lat="45.57197" lon="2.25174">
        <ele>771</ele>
        <time>2019-05-18T14:56:50Z</time>
      </trkpt>
      <trkpt lat="45.57201" lon="2.25171">
        <ele>771</ele>
        <time>2019-05-18T14:56:51Z</time>
      </trkpt>
      <trkpt lat="45.57206" lon="2.25168">
        <ele>771</ele>
        <time>2019-05-18T14:56:52Z</time>
      </trkpt>
      <trkpt lat="45.5721" lon="2.25165">
        <ele>771</ele>
        <time>2019-05-18T14:56:53Z</time>
      </trkpt>
      <trkpt lat="45.57215" lon="2.25162">
        <ele>771</ele>
        <time>2019-05-18T14:56:54Z</time>
      </trkpt>
      <trkpt lat="45.5722" lon="2.25159">
        <ele>770</ele>
        <time>2019-05-18T14:56:55Z</time>
      </trkpt>
      <trkpt lat="45.57224" lon="2.25155">
        <ele>770</ele>
        <time>2019-05-18T14:56:56Z</time>
      </trkpt>
      <trkpt lat="45.57229" lon="2.25151">
        <ele>770</ele>
        <time>2019-05-18T14:56:57Z</time>
      </trkpt>
      <trkpt lat="45.57233" lon="2.25147">
        <ele>770</ele>
        <time>2019-05-18T14:56:58Z</time>
      </trkpt>
      <trkpt lat="45.57238" lon="2.25142">
        <ele>770</ele>
        <time>2019-05-18T14:56:59Z</time>
      </trkpt>
      <trkpt lat="45.57242" lon="2.25137">
        <ele>770</ele>
        <time>2019-05-18T14:57:00Z</time>
      </trkpt>
      <trkpt lat="45.57246" lon="2.25133">
        <ele>770</ele>
        <time>2019-05-18T14:57:01Z</time>
      </trkpt>
      <trkpt lat="45.57251" lon="2.25129">
        <ele>770</ele>
        <time>2019-05-18T14:57:02Z</time>
      </trkpt>
      <trkpt lat="45.57256" lon="2.25126">
        <ele>769</ele>
        <time>2019-05-18T14:57:03Z</time>
      </trkpt>
      <trkpt lat="45.57261" lon="2.25123">
        <ele>769</ele>
        <time>2019-05-18T14:57:04Z</time>
      </trkpt>
      <trkpt lat="45.57266" lon="2.25122">
        <ele>769</ele>
        <time>2019-05-18T14:57:05Z</time>
      </trkpt>
      <trkpt lat="45.5727" lon="2.25121">
        <ele>770</ele>
        <time>2019-05-18T14:57:06Z</time>
      </trkpt>
      <trkpt lat="45.57274" lon="2.2512">
        <ele>770</ele>
        <time>2019-05-18T14:57:07Z</time>
      </trkpt>
      <trkpt lat="45.57278" lon="2.25118">
        <ele>770</ele>
        <time>2019-05-18T14:57:08Z</time>
      </trkpt>
      <trkpt lat="45.57281" lon="2.25115">
        <ele>770</ele>
        <time>2019-05-18T14:57:09Z</time>
      </trkpt>
      <trkpt lat="45.57284" lon="2.25112">
        <ele>770</ele>
        <time>2019-05-18T14:57:10Z</time>
      </trkpt>
      <trkpt lat="45.57286" lon="2.25109">
        <ele>770</ele>
        <time>2019-05-18T14:57:11Z</time>
      </trkpt>
      <trkpt lat="45.5729" lon="2.25106">
        <ele>770</ele>
        <time>2019-05-18T14:57:12Z</time>
      </trkpt>
      <trkpt lat="45.57293" lon="2.25103">
        <ele>770</ele>
        <time>2019-05-18T14:57:13Z</time>
      </trkpt>
      <trkpt lat="45.57296" lon="2.251">
        <ele>771</ele>
        <time>2019-05-18T14:57:14Z</time>
      </trkpt>
      <trkpt lat="45.57299" lon="2.25098">
        <ele>771</ele>
        <time>2019-05-18T14:57:15Z</time>
      </trkpt>
      <trkpt lat="45.57301" lon="2.25096">
        <ele>771</ele>
        <time>2019-05-18T14:57:16Z</time>
      </trkpt>
      <trkpt lat="45.57304" lon="2.25093">
        <ele>771</ele>
        <time>2019-05-18T14:57:17Z</time>
      </trkpt>
      <trkpt lat="45.57306" lon="2.25091">
        <ele>771</ele>
        <time>2019-05-18T14:57:18Z</time>
      </trkpt>
      <trkpt lat="45.57308" lon="2.25089">
        <ele>771</ele>
        <time>2019-05-18T14:57:19Z</time>
      </trkpt>
      <trkpt lat="45.57311" lon="2.25087">
        <ele>771</ele>
        <time>2019-05-18T14:57:20Z</time>
      </trkpt>
      <trkpt lat="45.57313" lon="2.25085">
        <ele>771</ele>
        <time>2019-05-18T14:57:21Z</time>
      </trkpt>
      <trkpt lat="45.57315" lon="2.25082">
        <ele>771</ele>
        <time>2019-05-18T14:57:22Z</time>
      </trkpt>
      <trkpt lat="45.57318" lon="2.25079">
        <ele>771</ele>
        <time>2019-05-18T14:57:23Z</time>
      </trkpt>
      <trkpt lat="45.57321" lon="2.25075">
        <ele>771</ele>
        <time>2019-05-18T14:57:24Z</time>
      </trkpt>
      <trkpt lat="45.57324" lon="2.25071">
        <ele>770</ele>
        <time>2019-05-18T14:57:25Z</time>
      </trkpt>
      <trkpt lat="45.57327" lon="2.25066">
        <ele>770</ele>
        <time>2019-05-18T14:57:26Z</time>
      </trkpt>
      <trkpt lat="45.57331" lon="2.25061">
        <ele>770</ele>
        <time>2019-05-18T14:57:27Z</time>
      </trkpt>
      <trkpt lat="45.57334" lon="2.25056">
        <ele>770</ele>
        <time>2019-05-18T14:57:28Z</time>
      </trkpt>
      <trkpt lat="45.57338" lon="2.25051">
        <ele>770</ele>
        <time>2019-05-18T14:57:29Z</time>
      </trkpt>
      <trkpt lat="45.57342" lon="2.25046">
        <ele>769</ele>
        <time>2019-05-18T14:57:30Z</time>
      </trkpt>
      <trkpt lat="45.57347" lon="2.25039">
        <ele>769</ele>
        <time>2019-05-18T14:57:31Z</time>
      </trkpt>
      <trkpt lat="45.57351" lon="2.25033">
        <ele>768</ele>
        <time>2019-05-18T14:57:32Z</time>
      </trkpt>
      <trkpt lat="45.57355" lon="2.25027">
        <ele>768</ele>
        <time>2019-05-18T14:57:33Z</time>
      </trkpt>
      <trkpt lat="45.5736" lon="2.2502">
        <ele>768</ele>
        <time>2019-05-18T14:57:34Z</time>
      </trkpt>
      <trkpt lat="45.57364" lon="2.25014">
        <ele>768</ele>
        <time>2019-05-18T14:57:35Z</time>
      </trkpt>
      <trkpt lat="45.57369" lon="2.25008">
        <ele>767</ele>
        <time>2019-05-18T14:57:36Z</time>
      </trkpt>
      <trkpt lat="45.57374" lon="2.25002">
        <ele>767</ele>
        <time>2019-05-18T14:57:37Z</time>
      </trkpt>
      <trkpt lat="45.57378" lon="2.24995">
        <ele>767</ele>
        <time>2019-05-18T14:57:38Z</time>
      </trkpt>
      <trkpt lat="45.57383" lon="2.24989">
        <ele>766</ele>
        <time>2019-05-18T14:57:39Z</time>
      </trkpt>
      <trkpt lat="45.57388" lon="2.24984">
        <ele>766</ele>
        <time>2019-05-18T14:57:40Z</time>
      </trkpt>
      <trkpt lat="45.57392" lon="2.24977">
        <ele>766</ele>
        <time>2019-05-18T14:57:41Z</time>
      </trkpt>
      <trkpt lat="45.57396" lon="2.24971">
        <ele>766</ele>
        <time>2019-05-18T14:57:42Z</time>
      </trkpt>
      <trkpt lat="45.57401" lon="2.24966">
        <ele>765</ele>
        <time>2019-05-18T14:57:43Z</time>
      </trkpt>
      <trkpt lat="45.57407" lon="2.24962">
        <ele>765</ele>
        <time>2019-05-18T14:57:44Z</time>
      </trkpt>
      <trkpt lat="45.57412" lon="2.24959">
        <ele>764</ele>
        <time>2019-05-18T14:57:45Z</time>
      </trkpt>
      <trkpt lat="45.57418" lon="2.24956">
        <ele>763</ele>
        <time>2019-05-18T14:57:46Z</time>
      </trkpt>
      <trkpt lat="45.57425" lon="2.24956">
        <ele>763</ele>
        <time>2019-05-18T14:57:47Z</time>
      </trkpt>
      <trkpt lat="45.57432" lon="2.24956">
        <ele>762</ele>
        <time>2019-05-18T14:57:48Z</time>
      </trkpt>
      <trkpt lat="45.57439" lon="2.24955">
        <ele>762</ele>
        <time>2019-05-18T14:57:49Z</time>
      </trkpt>
      <trkpt lat="45.57445" lon="2.24955">
        <ele>761</ele>
        <time>2019-05-18T14:57:50Z</time>
      </trkpt>
      <trkpt lat="45.5745" lon="2.24954">
        <ele>760</ele>
        <time>2019-05-18T14:57:51Z</time>
      </trkpt>
      <trkpt lat="45.57456" lon="2.24953">
        <ele>759</ele>
        <time>2019-05-18T14:57:52Z</time>
      </trkpt>
      <trkpt lat="45.5746" lon="2.24951">
        <ele>758</ele>
        <time>2019-05-18T14:57:53Z</time>
      </trkpt>
      <trkpt lat="45.57465" lon="2.24948">
        <ele>757</ele>
        <time>2019-05-18T14:57:54Z</time>
      </trkpt>
      <trkpt lat="45.57467" lon="2.24943">
        <ele>757</ele>
        <time>2019-05-18T14:57:55Z</time>
      </trkpt>
      <trkpt lat="45.57468" lon="2.24939">
        <ele>756</ele>
        <time>2019-05-18T14:57:56Z</time>
      </trkpt>
      <trkpt lat="45.57468" lon="2.24936">
        <ele>755</ele>
        <time>2019-05-18T14:57:57Z</time>
      </trkpt>
      <trkpt lat="45.57467" lon="2.24931">
        <ele>755</ele>
        <time>2019-05-18T14:57:58Z</time>
      </trkpt>
      <trkpt lat="45.57465" lon="2.24925">
        <ele>754</ele>
        <time>2019-05-18T14:57:59Z</time>
      </trkpt>
      <trkpt lat="45.57462" lon="2.24921">
        <ele>754</ele>
        <time>2019-05-18T14:58:00Z</time>
      </trkpt>
      <trkpt lat="45.57457" lon="2.24917">
        <ele>753</ele>
        <time>2019-05-18T14:58:01Z</time>
      </trkpt>
      <trkpt lat="45.57453" lon="2.24914">
        <ele>752</ele>
        <time>2019-05-18T14:58:02Z</time>
      </trkpt>
      <trkpt lat="45.57451" lon="2.24909">
        <ele>752</ele>
        <time>2019-05-18T14:58:03Z</time>
      </trkpt>
      <trkpt lat="45.57449" lon="2.24904">
        <ele>751</ele>
        <time>2019-05-18T14:58:04Z</time>
      </trkpt>
      <trkpt lat="45.57448" lon="2.24897">
        <ele>750</ele>
        <time>2019-05-18T14:58:05Z</time>
      </trkpt>
      <trkpt lat="45.57449" lon="2.2489">
        <ele>750</ele>
        <time>2019-05-18T14:58:06Z</time>
      </trkpt>
      <trkpt lat="45.57451" lon="2.24884">
        <ele>749</ele>
        <time>2019-05-18T14:58:07Z</time>
      </trkpt>
      <trkpt lat="45.57454" lon="2.24878">
        <ele>748</ele>
        <time>2019-05-18T14:58:08Z</time>
      </trkpt>
      <trkpt lat="45.57457" lon="2.24874">
        <ele>747</ele>
        <time>2019-05-18T14:58:09Z</time>
      </trkpt>
      <trkpt lat="45.5746" lon="2.24871">
        <ele>747</ele>
        <time>2019-05-18T14:58:10Z</time>
      </trkpt>
      <trkpt lat="45.57465" lon="2.24871">
        <ele>746</ele>
        <time>2019-05-18T14:58:11Z</time>
      </trkpt>
      <trkpt lat="45.57468" lon="2.24872">
        <ele>746</ele>
        <time>2019-05-18T14:58:12Z</time>
      </trkpt>
      <trkpt lat="45.57471" lon="2.24874">
        <ele>746</ele>
        <time>2019-05-18T14:58:13Z</time>
      </trkpt>
      <trkpt lat="45.57474" lon="2.24876">
        <ele>746</ele>
        <time>2019-05-18T14:58:14Z</time>
      </trkpt>
      <trkpt lat="45.57476" lon="2.24877">
        <ele>746</ele>
        <time>2019-05-18T14:58:15Z</time>
      </trkpt>
      <trkpt lat="45.57478" lon="2.24878">
        <ele>746</ele>
        <time>2019-05-18T14:58:16Z</time>
      </trkpt>
      <trkpt lat="45.57481" lon="2.24877">
        <ele>746</ele>
        <time>2019-05-18T14:58:17Z</time>
      </trkpt>
      <trkpt lat="45.57483" lon="2.24878">
        <ele>746</ele>
        <time>2019-05-18T14:58:18Z</time>
      </trkpt>
      <trkpt lat="45.57486" lon="2.24879">
        <ele>746</ele>
        <time>2019-05-18T14:58:19Z</time>
      </trkpt>
      <trkpt lat="45.57489" lon="2.2488">
        <ele>746</ele>
        <time>2019-05-18T14:58:20Z</time>
      </trkpt>
      <trkpt lat="45.57492" lon="2.24881">
        <ele>746</ele>
        <time>2019-05-18T14:58:21Z</time>
      </trkpt>
      <trkpt lat="45.57495" lon="2.24882">
        <ele>746</ele>
        <time>2019-05-18T14:58:22Z</time>
      </trkpt>
      <trkpt lat="45.57496" lon="2.24882">
        <ele>746</ele>
        <time>2019-05-18T14:58:23Z</time>
      </trkpt>
      <trkpt lat="45.57499" lon="2.24883">
        <ele>746</ele>
        <time>2019-05-18T14:58:24Z</time>
      </trkpt>
      <trkpt lat="45.57502" lon="2.24885">
        <ele>746</ele>
        <time>2019-05-18T14:58:25Z</time>
      </trkpt>
      <trkpt lat="45.57505" lon="2.24888">
        <ele>746</ele>
        <time>2019-05-18T14:58:26Z</time>
      </trkpt>
      <trkpt lat="45.57508" lon="2.24888">
        <ele>746</ele>
        <time>2019-05-18T14:58:27Z</time>
      </trkpt>
      <trkpt lat="45.5751" lon="2.24887">
        <ele>746</ele>
        <time>2019-05-18T14:58:28Z</time>
      </trkpt>
      <trkpt lat="45.57514" lon="2.24887">
        <ele>746</ele>
        <time>2019-05-18T14:58:29Z</time>
      </trkpt>
      <trkpt lat="45.57518" lon="2.24887">
        <ele>746</ele>
        <time>2019-05-18T14:58:30Z</time>
      </trkpt>
      <trkpt lat="45.57522" lon="2.24889">
        <ele>745</ele>
        <time>2019-05-18T14:58:31Z</time>
      </trkpt>
      <trkpt lat="45.57526" lon="2.24892">
        <ele>745</ele>
        <time>2019-05-18T14:58:32Z</time>
      </trkpt>
      <trkpt lat="45.5753" lon="2.24895">
        <ele>745</ele>
        <time>2019-05-18T14:58:33Z</time>
      </trkpt>
      <trkpt lat="45.57534" lon="2.24898">
        <ele>745</ele>
        <time>2019-05-18T14:58:34Z</time>
      </trkpt>
      <trkpt lat="45.57538" lon="2.24899">
        <ele>744</ele>
        <time>2019-05-18T14:58:35Z</time>
      </trkpt>
      <trkpt lat="45.57543" lon="2.24901">
        <ele>744</ele>
        <time>2019-05-18T14:58:36Z</time>
      </trkpt>
      <trkpt lat="45.57547" lon="2.24904">
        <ele>744</ele>
        <time>2019-05-18T14:58:37Z</time>
      </trkpt>
      <trkpt lat="45.57551" lon="2.24908">
        <ele>743</ele>
        <time>2019-05-18T14:58:38Z</time>
      </trkpt>
      <trkpt lat="45.57556" lon="2.24913">
        <ele>743</ele>
        <time>2019-05-18T14:58:39Z</time>
      </trkpt>
      <trkpt lat="45.5756" lon="2.24919">
        <ele>743</ele>
        <time>2019-05-18T14:58:40Z</time>
      </trkpt>
      <trkpt lat="45.57564" lon="2.24925">
        <ele>742</ele>
        <time>2019-05-18T14:58:41Z</time>
      </trkpt>
      <trkpt lat="45.57569" lon="2.24932">
        <ele>742</ele>
        <time>2019-05-18T14:58:42Z</time>
      </trkpt>
      <trkpt lat="45.57573" lon="2.24938">
        <ele>742</ele>
        <time>2019-05-18T14:58:43Z</time>
      </trkpt>
      <trkpt lat="45.57578" lon="2.24945">
        <ele>741</ele>
        <time>2019-05-18T14:58:44Z</time>
      </trkpt>
      <trkpt lat="45.57583" lon="2.24951">
        <ele>741</ele>
        <time>2019-05-18T14:58:45Z</time>
      </trkpt>
      <trkpt lat="45.57588" lon="2.24956">
        <ele>741</ele>
        <time>2019-05-18T14:58:46Z</time>
      </trkpt>
      <trkpt lat="45.57594" lon="2.24959">
        <ele>741</ele>
        <time>2019-05-18T14:58:47Z</time>
      </trkpt>
      <trkpt lat="45.57598" lon="2.24964">
        <ele>741</ele>
        <time>2019-05-18T14:58:48Z</time>
      </trkpt>
      <trkpt lat="45.57601" lon="2.2497">
        <ele>741</ele>
        <time>2019-05-18T14:58:49Z</time>
      </trkpt>
      <trkpt lat="45.57604" lon="2.24976">
        <ele>741</ele>
        <time>2019-05-18T14:58:50Z</time>
      </trkpt>
      <trkpt lat="45.57608" lon="2.2498">
        <ele>740</ele>
        <time>2019-05-18T14:58:51Z</time>
      </trkpt>
      <trkpt lat="45.57611" lon="2.24984">
        <ele>740</ele>
        <time>2019-05-18T14:58:52Z</time>
      </trkpt>
      <trkpt lat="45.57615" lon="2.24986">
        <ele>740</ele>
        <time>2019-05-18T14:58:53Z</time>
      </trkpt>
      <trkpt lat="45.57617" lon="2.24989">
        <ele>740</ele>
        <time>2019-05-18T14:58:54Z</time>
      </trkpt>
      <trkpt lat="45.57619" lon="2.24992">
        <ele>740</ele>
        <time>2019-05-18T14:58:55Z</time>
      </trkpt>
      <trkpt lat="45.57622" lon="2.24997">
        <ele>740</ele>
        <time>2019-05-18T14:58:56Z</time>
      </trkpt>
      <trkpt lat="45.57623" lon="2.25001">
        <ele>740</ele>
        <time>2019-05-18T14:58:57Z</time>
      </trkpt>
      <trkpt lat="45.57626" lon="2.25003">
        <ele>740</ele>
        <time>2019-05-18T14:58:58Z</time>
      </trkpt>
      <trkpt lat="45.57628" lon="2.25006">
        <ele>740</ele>
        <time>2019-05-18T14:58:59Z</time>
      </trkpt>
      <trkpt lat="45.5763" lon="2.25006">
        <ele>740</ele>
        <time>2019-05-18T14:59:00Z</time>
      </trkpt>
      <trkpt lat="45.57633" lon="2.25007">
        <ele>740</ele>
        <time>2019-05-18T14:59:01Z</time>
      </trkpt>
      <trkpt lat="45.57636" lon="2.25009">
        <ele>740</ele>
        <time>2019-05-18T14:59:02Z</time>
      </trkpt>
      <trkpt lat="45.57639" lon="2.25012">
        <ele>740</ele>
        <time>2019-05-18T14:59:03Z</time>
      </trkpt>
      <trkpt lat="45.57641" lon="2.25016">
        <ele>740</ele>
        <time>2019-05-18T14:59:04Z</time>
      </trkpt>
      <trkpt lat="45.57644" lon="2.25021">
        <ele>740</ele>
        <time>2019-05-18T14:59:05Z</time>
      </trkpt>
      <trkpt lat="45.57645" lon="2.25026">
        <ele>740</ele>
        <time>2019-05-18T14:59:06Z</time>
      </trkpt>
      <trkpt lat="45.57648" lon="2.25031">
        <ele>740</ele>
        <time>2019-05-18T14:59:07Z</time>
      </trkpt>
      <trkpt lat="45.57649" lon="2.25035">
        <ele>740</ele>
        <time>2019-05-18T14:59:08Z</time>
      </trkpt>
      <trkpt lat="45.5765" lon="2.2504">
        <ele>740</ele>
        <time>2019-05-18T14:59:09Z</time>
      </trkpt>
      <trkpt lat="45.57653" lon="2.25044">
        <ele>740</ele>
        <time>2019-05-18T14:59:10Z</time>
      </trkpt>
      <trkpt lat="45.57655" lon="2.25049">
        <ele>740</ele>
        <time>2019-05-18T14:59:11Z</time>
      </trkpt>
      <trkpt lat="45.57657" lon="2.25053">
        <ele>740</ele>
        <time>2019-05-18T14:59:12Z</time>
      </trkpt>
      <trkpt lat="45.57659" lon="2.25058">
        <ele>740</ele>
        <time>2019-05-18T14:59:13Z</time>
      </trkpt>
      <trkpt lat="45.57661" lon="2.25063">
        <ele>740</ele>
        <time>2019-05-18T14:59:14Z</time>
      </trkpt>
      <trkpt lat="45.57663" lon="2.25068">
        <ele>740</ele>
        <time>2019-05-18T14:59:15Z</time>
      </trkpt>
      <trkpt lat="45.57664" lon="2.25072">
        <ele>741</ele>
        <time>2019-05-18T14:59:16Z</time>
      </trkpt>
      <trkpt lat="45.57666" lon="2.25076">
        <ele>741</ele>
        <time>2019-05-18T14:59:17Z</time>
      </trkpt>
      <trkpt lat="45.57667" lon="2.25081">
        <ele>741</ele>
        <time>2019-05-18T14:59:18Z</time>
      </trkpt>
      <trkpt lat="45.57668" lon="2.25084">
        <ele>741</ele>
        <time>2019-05-18T14:59:19Z</time>
      </trkpt>
      <trkpt lat="45.57671" lon="2.25089">
        <ele>741</ele>
        <time>2019-05-18T14:59:20Z</time>
      </trkpt>
      <trkpt lat="45.57673" lon="2.25094">
        <ele>741</ele>
        <time>2019-05-18T14:59:21Z</time>
      </trkpt>
      <trkpt lat="45.57676" lon="2.25099">
        <ele>741</ele>
        <time>2019-05-18T14:59:22Z</time>
      </trkpt>
      <trkpt lat="45.57678" lon="2.25104">
        <ele>740</ele>
        <time>2019-05-18T14:59:23Z</time>
      </trkpt>
      <trkpt lat="45.5768" lon="2.2511">
        <ele>740</ele>
        <time>2019-05-18T14:59:24Z</time>
      </trkpt>
      <trkpt lat="45.57683" lon="2.25114">
        <ele>740</ele>
        <time>2019-05-18T14:59:25Z</time>
      </trkpt>
      <trkpt lat="45.57684" lon="2.25118">
        <ele>740</ele>
        <time>2019-05-18T14:59:26Z</time>
      </trkpt>
      <trkpt lat="45.57685" lon="2.25123">
        <ele>740</ele>
        <time>2019-05-18T14:59:27Z</time>
      </trkpt>
      <trkpt lat="45.57687" lon="2.25127">
        <ele>739</ele>
        <time>2019-05-18T14:59:28Z</time>
      </trkpt>
      <trkpt lat="45.5769" lon="2.25133">
        <ele>739</ele>
        <time>2019-05-18T14:59:29Z</time>
      </trkpt>
      <trkpt lat="45.57691" lon="2.25139">
        <ele>739</ele>
        <time>2019-05-18T14:59:30Z</time>
      </trkpt>
      <trkpt lat="45.57692" lon="2.25144">
        <ele>738</ele>
        <time>2019-05-18T14:59:31Z</time>
      </trkpt>
      <trkpt lat="45.57695" lon="2.2515">
        <ele>738</ele>
        <time>2019-05-18T14:59:32Z</time>
      </trkpt>
      <trkpt lat="45.57696" lon="2.25155">
        <ele>737</ele>
        <time>2019-05-18T14:59:33Z</time>
      </trkpt>
      <trkpt lat="45.577" lon="2.25161">
        <ele>737</ele>
        <time>2019-05-18T14:59:34Z</time>
      </trkpt>
      <trkpt lat="45.57703" lon="2.25166">
        <ele>736</ele>
        <time>2019-05-18T14:59:35Z</time>
      </trkpt>
      <trkpt lat="45.57705" lon="2.25171">
        <ele>735</ele>
        <time>2019-05-18T14:59:36Z</time>
      </trkpt>
      <trkpt lat="45.57708" lon="2.25175">
        <ele>734</ele>
        <time>2019-05-18T14:59:37Z</time>
      </trkpt>
      <trkpt lat="45.57712" lon="2.25178">
        <ele>733</ele>
        <time>2019-05-18T14:59:38Z</time>
      </trkpt>
      <trkpt lat="45.57716" lon="2.25182">
        <ele>733</ele>
        <time>2019-05-18T14:59:39Z</time>
      </trkpt>
      <trkpt lat="45.5772" lon="2.25184">
        <ele>732</ele>
        <time>2019-05-18T14:59:40Z</time>
      </trkpt>
      <trkpt lat="45.57724" lon="2.25187">
        <ele>732</ele>
        <time>2019-05-18T14:59:41Z</time>
      </trkpt>
      <trkpt lat="45.5773" lon="2.2519">
        <ele>731</ele>
        <time>2019-05-18T14:59:42Z</time>
      </trkpt>
      <trkpt lat="45.57735" lon="2.25194">
        <ele>731</ele>
        <time>2019-05-18T14:59:43Z</time>
      </trkpt>
      <trkpt lat="45.57738" lon="2.25197">
        <ele>731</ele>
        <time>2019-05-18T14:59:44Z</time>
      </trkpt>
      <trkpt lat="45.57742" lon="2.252">
        <ele>731</ele>
        <time>2019-05-18T14:59:45Z</time>
      </trkpt>
      <trkpt lat="45.57746" lon="2.25203">
        <ele>730</ele>
        <time>2019-05-18T14:59:46Z</time>
      </trkpt>
      <trkpt lat="45.57748" lon="2.25206">
        <ele>730</ele>
        <time>2019-05-18T14:59:47Z</time>
      </trkpt>
      <trkpt lat="45.57751" lon="2.2521">
        <ele>730</ele>
        <time>2019-05-18T14:59:48Z</time>
      </trkpt>
      <trkpt lat="45.57755" lon="2.25213">
        <ele>730</ele>
        <time>2019-05-18T14:59:49Z</time>
      </trkpt>
      <trkpt lat="45.57759" lon="2.25215">
        <ele>730</ele>
        <time>2019-05-18T14:59:50Z</time>
      </trkpt>
      <trkpt lat="45.57763" lon="2.25221">
        <ele>730</ele>
        <time>2019-05-18T14:59:51Z</time>
      </trkpt>
      <trkpt lat="45.57766" lon="2.25226">
        <ele>730</ele>
        <time>2019-05-18T14:59:52Z</time>
      </trkpt>
      <trkpt lat="45.57768" lon="2.25231">
        <ele>730</ele>
        <time>2019-05-18T14:59:53Z</time>
      </trkpt>
      <trkpt lat="45.57771" lon="2.25235">
        <ele>730</ele>
        <time>2019-05-18T14:59:54Z</time>
      </trkpt>
      <trkpt lat="45.57774" lon="2.25239">
        <ele>730</ele>
        <time>2019-05-18T14:59:55Z</time>
      </trkpt>
      <trkpt lat="45.57777" lon="2.25244">
        <ele>730</ele>
        <time>2019-05-18T14:59:56Z</time>
      </trkpt>
      <trkpt lat="45.57779" lon="2.25249">
        <ele>730</ele>
        <time>2019-05-18T14:59:57Z</time>
      </trkpt>
      <trkpt lat="45.57781" lon="2.25254">
        <ele>730</ele>
        <time>2019-05-18T14:59:58Z</time>
      </trkpt>
      <trkpt lat="45.57782" lon="2.25259">
        <ele>730</ele>
        <time>2019-05-18T14:59:59Z</time>
      </trkpt>
      <trkpt lat="45.57784" lon="2.25262">
        <ele>730</ele>
        <time>2019-05-18T15:00:00Z</time>
      </trkpt>
      <trkpt lat="45.57785" lon="2.25265">
        <ele>730</ele>
        <time>2019-05-18T15:00:01Z</time>
      </trkpt>
      <trkpt lat="45.57787" lon="2.2527">
        <ele>730</ele>
        <time>2019-05-18T15:00:02Z</time>
      </trkpt>
      <trkpt lat="45.57788" lon="2.25275">
        <ele>730</ele>
        <time>2019-05-18T15:00:03Z</time>
      </trkpt>
      <trkpt lat="45.57789" lon="2.2528">
        <ele>730</ele>
        <time>2019-05-18T15:00:04Z</time>
      </trkpt>
      <trkpt lat="45.57791" lon="2.25286">
        <ele>730</ele>
        <time>2019-05-18T15:00:05Z</time>
      </trkpt>
      <trkpt lat="45.57794" lon="2.2529">
        <ele>730</ele>
        <time>2019-05-18T15:00:06Z</time>
      </trkpt>
      <trkpt lat="45.57796" lon="2.25296">
        <ele>730</ele>
        <time>2019-05-18T15:00:07Z</time>
      </trkpt>
      <trkpt lat="45.57798" lon="2.25301">
        <ele>730</ele>
        <time>2019-05-18T15:00:08Z</time>
      </trkpt>
      <trkpt lat="45.578" lon="2.25306">
        <ele>730</ele>
        <time>2019-05-18T15:00:09Z</time>
      </trkpt>
      <trkpt lat="45.57802" lon="2.25311">
        <ele>730</ele>
        <time>2019-05-18T15:00:10Z</time>
      </trkpt>
      <trkpt lat="45.57805" lon="2.25316">
        <ele>730</ele>
        <time>2019-05-18T15:00:11Z</time>
      </trkpt>
      <trkpt lat="45.57807" lon="2.2532">
        <ele>729</ele>
        <time>2019-05-18T15:00:12Z</time>
      </trkpt>
      <trkpt lat="45.5781" lon="2.25325">
        <ele>729</ele>
        <time>2019-05-18T15:00:13Z</time>
      </trkpt>
      <trkpt lat="45.57814" lon="2.2533">
        <ele>729</ele>
        <time>2019-05-18T15:00:14Z</time>
      </trkpt>
      <trkpt lat="45.57818" lon="2.25335">
        <ele>728</ele>
        <time>2019-05-18T15:00:15Z</time>
      </trkpt>
      <trkpt lat="45.57823" lon="2.25342">
        <ele>728</ele>
        <time>2019-05-18T15:00:16Z</time>
      </trkpt>
      <trkpt lat="45.57827" lon="2.25348">
        <ele>727</ele>
        <time>2019-05-18T15:00:17Z</time>
      </trkpt>
      <trkpt lat="45.57832" lon="2.25355">
        <ele>726</ele>
        <time>2019-05-18T15:00:18Z</time>
      </trkpt>
      <trkpt lat="45.57836" lon="2.25364">
        <ele>726</ele>
        <time>2019-05-18T15:00:19Z</time>
      </trkpt>
      <trkpt lat="45.5784" lon="2.25373">
        <ele>725</ele>
        <time>2019-05-18T15:00:20Z</time>
      </trkpt>
      <trkpt lat="45.57842" lon="2.25383">
        <ele>725</ele>
        <time>2019-05-18T15:00:21Z</time>
      </trkpt>
      <trkpt lat="45.57845" lon="2.25392">
        <ele>725</ele>
        <time>2019-05-18T15:00:22Z</time>
      </trkpt>
      <trkpt lat="45.57847" lon="2.25402">
        <ele>725</ele>
        <time>2019-05-18T15:00:23Z</time>
      </trkpt>
      <trkpt lat="45.57848" lon="2.25411">
        <ele>724</ele>
        <time>2019-05-18T15:00:24Z</time>
      </trkpt>
      <trkpt lat="45.57847" lon="2.25419">
        <ele>723</ele>
        <time>2019-05-18T15:00:25Z</time>
      </trkpt>
      <trkpt lat="45.5785" lon="2.25428">
        <ele>723</ele>
        <time>2019-05-18T15:00:26Z</time>
      </trkpt>
      <trkpt lat="45.57851" lon="2.25436">
        <ele>722</ele>
        <time>2019-05-18T15:00:27Z</time>
      </trkpt>
      <trkpt lat="45.57854" lon="2.25446">
        <ele>721</ele>
        <time>2019-05-18T15:00:28Z</time>
      </trkpt>
      <trkpt lat="45.57856" lon="2.25455">
        <ele>720</ele>
        <time>2019-05-18T15:00:29Z</time>
      </trkpt>
      <trkpt lat="45.57856" lon="2.25465">
        <ele>719</ele>
        <time>2019-05-18T15:00:30Z</time>
      </trkpt>
      <trkpt lat="45.57855" lon="2.25474">
        <ele>718</ele>
        <time>2019-05-18T15:00:31Z</time>
      </trkpt>
      <trkpt lat="45.57855" lon="2.25482">
        <ele>718</ele>
        <time>2019-05-18T15:00:32Z</time>
      </trkpt>
      <trkpt lat="45.57856" lon="2.25487">
        <ele>716</ele>
        <time>2019-05-18T15:00:33Z</time>
      </trkpt>
      <trkpt lat="45.57858" lon="2.25492">
        <ele>716</ele>
        <time>2019-05-18T15:00:34Z</time>
      </trkpt>
      <trkpt lat="45.5786" lon="2.25495">
        <ele>716</ele>
        <time>2019-05-18T15:00:35Z</time>
      </trkpt>
      <trkpt lat="45.57864" lon="2.25499">
        <ele>716</ele>
        <time>2019-05-18T15:00:36Z</time>
      </trkpt>
      <trkpt lat="45.57868" lon="2.255">
        <ele>716</ele>
        <time>2019-05-18T15:00:37Z</time>
      </trkpt>
      <trkpt lat="45.57871" lon="2.25502">
        <ele>716</ele>
        <time>2019-05-18T15:00:38Z</time>
      </trkpt>
      <trkpt lat="45.57874" lon="2.25503">
        <ele>717</ele>
        <time>2019-05-18T15:00:39Z</time>
      </trkpt>
      <trkpt lat="45.57877" lon="2.25504">
        <ele>717</ele>
        <time>2019-05-18T15:00:40Z</time>
      </trkpt>
      <trkpt lat="45.5788" lon="2.25506">
        <ele>717</ele>
        <time>2019-05-18T15:00:41Z</time>
      </trkpt>
      <trkpt lat="45.57882" lon="2.25508">
        <ele>717</ele>
        <time>2019-05-18T15:00:42Z</time>
      </trkpt>
      <trkpt lat="45.57884" lon="2.2551">
        <ele>717</ele>
        <time>2019-05-18T15:00:43Z</time>
      </trkpt>
      <trkpt lat="45.57887" lon="2.25512">
        <ele>718</ele>
        <time>2019-05-18T15:00:44Z</time>
      </trkpt>
      <trkpt lat="45.57889" lon="2.25513">
        <ele>718</ele>
        <time>2019-05-18T15:00:45Z</time>
      </trkpt>
      <trkpt lat="45.57891" lon="2.25514">
        <ele>718</ele>
        <time>2019-05-18T15:00:46Z</time>
      </trkpt>
      <trkpt lat="45.57893" lon="2.25516">
        <ele>718</ele>
        <time>2019-05-18T15:00:47Z</time>
      </trkpt>
      <trkpt lat="45.57895" lon="2.25517">
        <ele>719</ele>
        <time>2019-05-18T15:00:48Z</time>
      </trkpt>
      <trkpt lat="45.57897" lon="2.25516">
        <ele>719</ele>
        <time>2019-05-18T15:00:49Z</time>
      </trkpt>
      <trkpt lat="45.57899" lon="2.25514">
        <ele>719</ele>
        <time>2019-05-18T15:00:50Z</time>
      </trkpt>
      <trkpt lat="45.579" lon="2.25513">
        <ele>719</ele>
        <time>2019-05-18T15:00:51Z</time>
      </trkpt>
      <trkpt lat="45.57901" lon="2.25511">
        <ele>719</ele>
        <time>2019-05-18T15:00:52Z</time>
      </trkpt>
      <trkpt lat="45.57903" lon="2.25509">
        <ele>719</ele>
        <time>2019-05-18T15:00:53Z</time>
      </trkpt>
      <trkpt lat="45.57904" lon="2.25508">
        <ele>719</ele>
        <time>2019-05-18T15:00:54Z</time>
      </trkpt>
      <trkpt lat="45.57905" lon="2.25507">
        <ele>720</ele>
        <time>2019-05-18T15:00:55Z</time>
      </trkpt>
      <trkpt lat="45.57907" lon="2.25506">
        <ele>720</ele>
        <time>2019-05-18T15:00:56Z</time>
      </trkpt>
      <trkpt lat="45.57909" lon="2.25505">
        <ele>720</ele>
        <time>2019-05-18T15:00:57Z</time>
      </trkpt>
      <trkpt lat="45.5791" lon="2.25502">
        <ele>720</ele>
        <time>2019-05-18T15:00:58Z</time>
      </trkpt>
      <trkpt lat="45.57912" lon="2.255">
        <ele>720</ele>
        <time>2019-05-18T15:00:59Z</time>
      </trkpt>
      <trkpt lat="45.57914" lon="2.25499">
        <ele>720</ele>
        <time>2019-05-18T15:01:00Z</time>
      </trkpt>
      <trkpt lat="45.57916" lon="2.25498">
        <ele>720</ele>
        <time>2019-05-18T15:01:01Z</time>
      </trkpt>
      <trkpt lat="45.57917" lon="2.25497">
        <ele>721</ele>
        <time>2019-05-18T15:01:02Z</time>
      </trkpt>
      <trkpt lat="45.57919" lon="2.25495">
        <ele>720</ele>
        <time>2019-05-18T15:01:03Z</time>
      </trkpt>
      <trkpt lat="45.5792" lon="2.25493">
        <ele>721</ele>
        <time>2019-05-18T15:01:04Z</time>
      </trkpt>
      <trkpt lat="45.57922" lon="2.25491">
        <ele>721</ele>
        <time>2019-05-18T15:01:05Z</time>
      </trkpt>
      <trkpt lat="45.57924" lon="2.25489">
        <ele>721</ele>
        <time>2019-05-18T15:01:06Z</time>
      </trkpt>
      <trkpt lat="45.57926" lon="2.25488">
        <ele>721</ele>
        <time>2019-05-18T15:01:07Z</time>
      </trkpt>
      <trkpt lat="45.57928" lon="2.25487">
        <ele>721</ele>
        <time>2019-05-18T15:01:08Z</time>
      </trkpt>
      <trkpt lat="45.57929" lon="2.25486">
        <ele>722</ele>
        <time>2019-05-18T15:01:09Z</time>
      </trkpt>
      <trkpt lat="45.57931" lon="2.25485">
        <ele>722</ele>
        <time>2019-05-18T15:01:10Z</time>
      </trkpt>
      <trkpt lat="45.57933" lon="2.25484">
        <ele>722</ele>
        <time>2019-05-18T15:01:11Z</time>
      </trkpt>
      <trkpt lat="45.57934" lon="2.25483">
        <ele>723</ele>
        <time>2019-05-18T15:01:12Z</time>
      </trkpt>
      <trkpt lat="45.57935" lon="2.25482">
        <ele>723</ele>
        <time>2019-05-18T15:01:13Z</time>
      </trkpt>
      <trkpt lat="45.57936" lon="2.25481">
        <ele>723</ele>
        <time>2019-05-18T15:01:14Z</time>
      </trkpt>
      <trkpt lat="45.57937" lon="2.25479">
        <ele>723</ele>
        <time>2019-05-18T15:01:15Z</time>
      </trkpt>
      <trkpt lat="45.57939" lon="2.25478">
        <ele>723</ele>
        <time>2019-05-18T15:01:16Z</time>
      </trkpt>
      <trkpt lat="45.5794" lon="2.25475">
        <ele>723</ele>
        <time>2019-05-18T15:01:17Z</time>
      </trkpt>
      <trkpt lat="45.57942" lon="2.25473">
        <ele>723</ele>
        <time>2019-05-18T15:01:18Z</time>
      </trkpt>
      <trkpt lat="45.57944" lon="2.25471">
        <ele>723</ele>
        <time>2019-05-18T15:01:19Z</time>
      </trkpt>
      <trkpt lat="45.57945" lon="2.2547">
        <ele>723</ele>
        <time>2019-05-18T15:01:20Z</time>
      </trkpt>
      <trkpt lat="45.57946" lon="2.25467">
        <ele>723</ele>
        <time>2019-05-18T15:01:21Z</time>
      </trkpt>
      <trkpt lat="45.57948" lon="2.25465">
        <ele>723</ele>
        <time>2019-05-18T15:01:22Z</time>
      </trkpt>
      <trkpt lat="45.57948" lon="2.25462">
        <ele>723</ele>
        <time>2019-05-18T15:01:23Z</time>
      </trkpt>
      <trkpt lat="45.5795" lon="2.2546">
        <ele>723</ele>
        <time>2019-05-18T15:01:24Z</time>
      </trkpt>
      <trkpt lat="45.57951" lon="2.25459">
        <ele>724</ele>
        <time>2019-05-18T15:01:25Z</time>
      </trkpt>
      <trkpt lat="45.57953" lon="2.25457">
        <ele>724</ele>
        <time>2019-05-18T15:01:26Z</time>
      </trkpt>
      <trkpt lat="45.57955" lon="2.25457">
        <ele>724</ele>
        <time>2019-05-18T15:01:27Z</time>
      </trkpt>
      <trkpt lat="45.57957" lon="2.25455">
        <ele>724</ele>
        <time>2019-05-18T15:01:28Z</time>
      </trkpt>
      <trkpt lat="45.5796" lon="2.25455">
        <ele>724</ele>
        <time>2019-05-18T15:01:29Z</time>
      </trkpt>
      <trkpt lat="45.57961" lon="2.25454">
        <ele>725</ele>
        <time>2019-05-18T15:01:30Z</time>
      </trkpt>
      <trkpt lat="45.57963" lon="2.25453">
        <ele>725</ele>
        <time>2019-05-18T15:01:31Z</time>
      </trkpt>
      <trkpt lat="45.57964" lon="2.25453">
        <ele>725</ele>
        <time>2019-05-18T15:01:32Z</time>
      </trkpt>
      <trkpt lat="45.57966" lon="2.25453">
        <ele>725</ele>
        <time>2019-05-18T15:01:33Z</time>
      </trkpt>
      <trkpt lat="45.57967" lon="2.25453">
        <ele>726</ele>
        <time>2019-05-18T15:01:34Z</time>
      </trkpt>
      <trkpt lat="45.57969" lon="2.25453">
        <ele>726</ele>
        <time>2019-05-18T15:01:35Z</time>
      </trkpt>
      <trkpt lat="45.5797" lon="2.25454">
        <ele>726</ele>
        <time>2019-05-18T15:01:36Z</time>
      </trkpt>
      <trkpt lat="45.57972" lon="2.25455">
        <ele>727</ele>
        <time>2019-05-18T15:01:37Z</time>
      </trkpt>
      <trkpt lat="45.57973" lon="2.25455">
        <ele>727</ele>
        <time>2019-05-18T15:01:38Z</time>
      </trkpt>
      <trkpt lat="45.57974" lon="2.25456">
        <ele>727</ele>
        <time>2019-05-18T15:01:39Z</time>
      </trkpt>
      <trkpt lat="45.57976" lon="2.25457">
        <ele>728</ele>
        <time>2019-05-18T15:01:40Z</time>
      </trkpt>
      <trkpt lat="45.57976" lon="2.25458">
        <ele>728</ele>
        <time>2019-05-18T15:01:41Z</time>
      </trkpt>
      <trkpt lat="45.57978" lon="2.25458">
        <ele>728</ele>
        <time>2019-05-18T15:01:42Z</time>
      </trkpt>
      <trkpt lat="45.5798" lon="2.25458">
        <ele>728</ele>
        <time>2019-05-18T15:01:43Z</time>
      </trkpt>
      <trkpt lat="45.57981" lon="2.25457">
        <ele>728</ele>
        <time>2019-05-18T15:01:44Z</time>
      </trkpt>
      <trkpt lat="45.57982" lon="2.25457">
        <ele>728</ele>
        <time>2019-05-18T15:01:45Z</time>
      </trkpt>
      <trkpt lat="45.57983" lon="2.25456">
        <ele>728</ele>
        <time>2019-05-18T15:01:46Z</time>
      </trkpt>
      <trkpt lat="45.57985" lon="2.25455">
        <ele>728</ele>
        <time>2019-05-18T15:01:47Z</time>
      </trkpt>
      <trkpt lat="45.57987" lon="2.25454">
        <ele>728</ele>
        <time>2019-05-18T15:01:48Z</time>
      </trkpt>
      <trkpt lat="45.57989" lon="2.25453">
        <ele>728</ele>
        <time>2019-05-18T15:01:49Z</time>
      </trkpt>
      <trkpt lat="45.57991" lon="2.25454">
        <ele>728</ele>
        <time>2019-05-18T15:01:50Z</time>
      </trkpt>
      <trkpt lat="45.57992" lon="2.25454">
        <ele>728</ele>
        <time>2019-05-18T15:01:51Z</time>
      </trkpt>
      <trkpt lat="45.57994" lon="2.25453">
        <ele>728</ele>
        <time>2019-05-18T15:01:52Z</time>
      </trkpt>
      <trkpt lat="45.57996" lon="2.25453">
        <ele>728</ele>
        <time>2019-05-18T15:01:53Z</time>
      </trkpt>
      <trkpt lat="45.57998" lon="2.25453">
        <ele>728</ele>
        <time>2019-05-18T15:01:54Z</time>
      </trkpt>
      <trkpt lat="45.58" lon="2.25452">
        <ele>728</ele>
        <time>2019-05-18T15:01:55Z</time>
      </trkpt>
      <trkpt lat="45.58001" lon="2.25451">
        <ele>728</ele>
        <time>2019-05-18T15:01:56Z</time>
      </trkpt>
      <trkpt lat="45.58003" lon="2.25451">
        <ele>729</ele>
        <time>2019-05-18T15:01:57Z</time>
      </trkpt>
      <trkpt lat="45.58004" lon="2.25451">
        <ele>729</ele>
        <time>2019-05-18T15:01:58Z</time>
      </trkpt>
      <trkpt lat="45.58006" lon="2.2545">
        <ele>729</ele>
        <time>2019-05-18T15:01:59Z</time>
      </trkpt>
      <trkpt lat="45.58007" lon="2.25449">
        <ele>729</ele>
        <time>2019-05-18T15:02:00Z</time>
      </trkpt>
      <trkpt lat="45.58009" lon="2.25449">
        <ele>729</ele>
        <time>2019-05-18T15:02:01Z</time>
      </trkpt>
      <trkpt lat="45.58011" lon="2.25449">
        <ele>729</ele>
        <time>2019-05-18T15:02:02Z</time>
      </trkpt>
      <trkpt lat="45.58012" lon="2.25449">
        <ele>729</ele>
        <time>2019-05-18T15:02:03Z</time>
      </trkpt>
      <trkpt lat="45.58013" lon="2.25449">
        <ele>729</ele>
        <time>2019-05-18T15:02:04Z</time>
      </trkpt>
      <trkpt lat="45.58014" lon="2.2545">
        <ele>729</ele>
        <time>2019-05-18T15:02:05Z</time>
      </trkpt>
      <trkpt lat="45.58015" lon="2.25451">
        <ele>730</ele>
        <time>2019-05-18T15:02:06Z</time>
      </trkpt>
      <trkpt lat="45.58016" lon="2.25452">
        <ele>730</ele>
        <time>2019-05-18T15:02:07Z</time>
      </trkpt>
      <trkpt lat="45.58017" lon="2.25453">
        <ele>730</ele>
        <time>2019-05-18T15:02:08Z</time>
      </trkpt>
      <trkpt lat="45.58018" lon="2.25454">
        <ele>730</ele>
        <time>2019-05-18T15:02:09Z</time>
      </trkpt>
      <trkpt lat="45.58019" lon="2.25454">
        <ele>730</ele>
        <time>2019-05-18T15:02:10Z</time>
      </trkpt>
      <trkpt lat="45.5802" lon="2.25455">
        <ele>731</ele>
        <time>2019-05-18T15:02:11Z</time>
      </trkpt>
      <trkpt lat="45.58021" lon="2.25456">
        <ele>731</ele>
        <time>2019-05-18T15:02:12Z</time>
      </trkpt>
      <trkpt lat="45.58022" lon="2.25457">
        <ele>731</ele>
        <time>2019-05-18T15:02:13Z</time>
      </trkpt>
      <trkpt lat="45.58024" lon="2.25458">
        <ele>731</ele>
        <time>2019-05-18T15:02:14Z</time>
      </trkpt>
      <trkpt lat="45.58025" lon="2.25459">
        <ele>731</ele>
        <time>2019-05-18T15:02:15Z</time>
      </trkpt>
      <trkpt lat="45.58026" lon="2.25461">
        <ele>731</ele>
        <time>2019-05-18T15:02:16Z</time>
      </trkpt>
      <trkpt lat="45.58027" lon="2.25462">
        <ele>732</ele>
        <time>2019-05-18T15:02:17Z</time>
      </trkpt>
      <trkpt lat="45.58028" lon="2.25463">
        <ele>732</ele>
        <time>2019-05-18T15:02:18Z</time>
      </trkpt>
      <trkpt lat="45.58029" lon="2.25464">
        <ele>732</ele>
        <time>2019-05-18T15:02:19Z</time>
      </trkpt>
      <trkpt lat="45.5803" lon="2.25466">
        <ele>732</ele>
        <time>2019-05-18T15:02:20Z</time>
      </trkpt>
      <trkpt lat="45.58031" lon="2.25468">
        <ele>732</ele>
        <time>2019-05-18T15:02:21Z</time>
      </trkpt>
      <trkpt lat="45.58031" lon="2.2547">
        <ele>732</ele>
        <time>2019-05-18T15:02:22Z</time>
      </trkpt>
      <trkpt lat="45.58031" lon="2.25472">
        <ele>732</ele>
        <time>2019-05-18T15:02:23Z</time>
      </trkpt>
      <trkpt lat="45.58031" lon="2.25474">
        <ele>732</ele>
        <time>2019-05-18T15:02:24Z</time>
      </trkpt>
      <trkpt lat="45.58031" lon="2.25476">
        <ele>732</ele>
        <time>2019-05-18T15:02:25Z</time>
      </trkpt>
      <trkpt lat="45.58031" lon="2.25478">
        <ele>733</ele>
        <time>2019-05-18T15:02:26Z</time>
      </trkpt>
      <trkpt lat="45.58032" lon="2.2548">
        <ele>733</ele>
        <time>2019-05-18T15:02:27Z</time>
      </trkpt>
      <trkpt lat="45.58031" lon="2.25482">
        <ele>733</ele>
        <time>2019-05-18T15:02:28Z</time>
      </trkpt>
      <trkpt lat="45.58031" lon="2.25484">
        <ele>733</ele>
        <time>2019-05-18T15:02:29Z</time>
      </trkpt>
      <trkpt lat="45.58031" lon="2.25487">
        <ele>733</ele>
        <time>2019-05-18T15:02:30Z</time>
      </trkpt>
      <trkpt lat="45.5803" lon="2.25489">
        <ele>733</ele>
        <time>2019-05-18T15:02:31Z</time>
      </trkpt>
      <trkpt lat="45.5803" lon="2.25491">
        <ele>733</ele>
        <time>2019-05-18T15:02:32Z</time>
      </trkpt>
      <trkpt lat="45.58029" lon="2.25493">
        <ele>733</ele>
        <time>2019-05-18T15:02:33Z</time>
      </trkpt>
      <trkpt lat="45.58029" lon="2.25495">
        <ele>733</ele>
        <time>2019-05-18T15:02:34Z</time>
      </trkpt>
      <trkpt lat="45.5803" lon="2.25498">
        <ele>733</ele>
        <time>2019-05-18T15:02:35Z</time>
      </trkpt>
      <trkpt lat="45.5803" lon="2.25501">
        <ele>733</ele>
        <time>2019-05-18T15:02:36Z</time>
      </trkpt>
      <trkpt lat="45.58031" lon="2.25503">
        <ele>733</ele>
        <time>2019-05-18T15:02:37Z</time>
      </trkpt>
      <trkpt lat="45.58031" lon="2.25505">
        <ele>733</ele>
        <time>2019-05-18T15:02:38Z</time>
      </trkpt>
      <trkpt lat="45.58031" lon="2.25507">
        <ele>733</ele>
        <time>2019-05-18T15:02:39Z</time>
      </trkpt>
      <trkpt lat="45.5803" lon="2.2551">
        <ele>733</ele>
        <time>2019-05-18T15:02:40Z</time>
      </trkpt>
      <trkpt lat="45.58031" lon="2.25513">
        <ele>733</ele>
        <time>2019-05-18T15:02:41Z</time>
      </trkpt>
      <trkpt lat="45.58031" lon="2.25516">
        <ele>733</ele>
        <time>2019-05-18T15:02:42Z</time>
      </trkpt>
      <trkpt lat="45.58031" lon="2.25518">
        <ele>733</ele>
        <time>2019-05-18T15:02:43Z</time>
      </trkpt>
      <trkpt lat="45.58031" lon="2.25521">
        <ele>733</ele>
        <time>2019-05-18T15:02:44Z</time>
      </trkpt>
      <trkpt lat="45.58031" lon="2.25524">
        <ele>733</ele>
        <time>2019-05-18T15:02:45Z</time>
      </trkpt>
      <trkpt lat="45.58031" lon="2.25527">
        <ele>733</ele>
        <time>2019-05-18T15:02:46Z</time>
      </trkpt>
      <trkpt lat="45.58032" lon="2.2553">
        <ele>734</ele>
        <time>2019-05-18T15:02:47Z</time>
      </trkpt>
      <trkpt lat="45.58032" lon="2.25534">
        <ele>734</ele>
        <time>2019-05-18T15:02:48Z</time>
      </trkpt>
      <trkpt lat="45.58033" lon="2.25537">
        <ele>734</ele>
        <time>2019-05-18T15:02:49Z</time>
      </trkpt>
      <trkpt lat="45.58034" lon="2.25539">
        <ele>734</ele>
        <time>2019-05-18T15:02:50Z</time>
      </trkpt>
      <trkpt lat="45.58034" lon="2.25541">
        <ele>734</ele>
        <time>2019-05-18T15:02:51Z</time>
      </trkpt>
      <trkpt lat="45.58036" lon="2.25542">
        <ele>734</ele>
        <time>2019-05-18T15:02:52Z</time>
      </trkpt>
      <trkpt lat="45.58037" lon="2.25542">
        <ele>734</ele>
        <time>2019-05-18T15:02:53Z</time>
      </trkpt>
      <trkpt lat="45.58039" lon="2.25541">
        <ele>734</ele>
        <time>2019-05-18T15:02:54Z</time>
      </trkpt>
      <trkpt lat="45.58042" lon="2.2554">
        <ele>734</ele>
        <time>2019-05-18T15:02:55Z</time>
      </trkpt>
      <trkpt lat="45.58044" lon="2.25539">
        <ele>734</ele>
        <time>2019-05-18T15:02:56Z</time>
      </trkpt>
      <trkpt lat="45.58045" lon="2.25537">
        <ele>734</ele>
        <time>2019-05-18T15:02:57Z</time>
      </trkpt>
      <trkpt lat="45.58047" lon="2.25535">
        <ele>734</ele>
        <time>2019-05-18T15:02:58Z</time>
      </trkpt>
      <trkpt lat="45.58049" lon="2.25533">
        <ele>734</ele>
        <time>2019-05-18T15:02:59Z</time>
      </trkpt>
      <trkpt lat="45.58051" lon="2.25531">
        <ele>734</ele>
        <time>2019-05-18T15:03:00Z</time>
      </trkpt>
      <trkpt lat="45.58053" lon="2.25529">
        <ele>734</ele>
        <time>2019-05-18T15:03:01Z</time>
      </trkpt>
      <trkpt lat="45.58056" lon="2.25528">
        <ele>734</ele>
        <time>2019-05-18T15:03:02Z</time>
      </trkpt>
      <trkpt lat="45.58059" lon="2.25525">
        <ele>734</ele>
        <time>2019-05-18T15:03:03Z</time>
      </trkpt>
      <trkpt lat="45.58063" lon="2.25524">
        <ele>733</ele>
        <time>2019-05-18T15:03:04Z</time>
      </trkpt>
      <trkpt lat="45.58066" lon="2.25522">
        <ele>733</ele>
        <time>2019-05-18T15:03:05Z</time>
      </trkpt>
      <trkpt lat="45.58071" lon="2.25519">
        <ele>733</ele>
        <time>2019-05-18T15:03:06Z</time>
      </trkpt>
      <trkpt lat="45.58075" lon="2.25517">
        <ele>732</ele>
        <time>2019-05-18T15:03:07Z</time>
      </trkpt>
      <trkpt lat="45.5808" lon="2.25514">
        <ele>732</ele>
        <time>2019-05-18T15:03:08Z</time>
      </trkpt>
      <trkpt lat="45.58085" lon="2.25512">
        <ele>732</ele>
        <time>2019-05-18T15:03:09Z</time>
      </trkpt>
      <trkpt lat="45.5809" lon="2.25509">
        <ele>732</ele>
        <time>2019-05-18T15:03:10Z</time>
      </trkpt>
      <trkpt lat="45.58095" lon="2.25507">
        <ele>732</ele>
        <time>2019-05-18T15:03:11Z</time>
      </trkpt>
      <trkpt lat="45.581" lon="2.25506">
        <ele>731</ele>
        <time>2019-05-18T15:03:12Z</time>
      </trkpt>
      <trkpt lat="45.58103" lon="2.25505">
        <ele>731</ele>
        <time>2019-05-18T15:03:13Z</time>
      </trkpt>
      <trkpt lat="45.58106" lon="2.25503">
        <ele>731</ele>
        <time>2019-05-18T15:03:14Z</time>
      </trkpt>
      <trkpt lat="45.58107" lon="2.25502">
        <ele>731</ele>
        <time>2019-05-18T15:03:15Z</time>
      </trkpt>
      <trkpt lat="45.58108" lon="2.255">
        <ele>731</ele>
        <time>2019-05-18T15:03:16Z</time>
      </trkpt>
      <trkpt lat="45.5811" lon="2.25498">
        <ele>731</ele>
        <time>2019-05-18T15:03:17Z</time>
      </trkpt>
      <trkpt lat="45.58111" lon="2.25495">
        <ele>731</ele>
        <time>2019-05-18T15:03:18Z</time>
      </trkpt>
      <trkpt lat="45.58113" lon="2.25492">
        <ele>731</ele>
        <time>2019-05-18T15:03:19Z</time>
      </trkpt>
      <trkpt lat="45.58115" lon="2.2549">
        <ele>730</ele>
        <time>2019-05-18T15:03:20Z</time>
      </trkpt>
      <trkpt lat="45.58117" lon="2.25488">
        <ele>730</ele>
        <time>2019-05-18T15:03:21Z</time>
      </trkpt>
      <trkpt lat="45.5812" lon="2.25485">
        <ele>730</ele>
        <time>2019-05-18T15:03:22Z</time>
      </trkpt>
      <trkpt lat="45.58123" lon="2.25483">
        <ele>730</ele>
        <time>2019-05-18T15:03:23Z</time>
      </trkpt>
      <trkpt lat="45.58127" lon="2.2548">
        <ele>729</ele>
        <time>2019-05-18T15:03:24Z</time>
      </trkpt>
      <trkpt lat="45.58131" lon="2.25477">
        <ele>729</ele>
        <time>2019-05-18T15:03:25Z</time>
      </trkpt>
      <trkpt lat="45.58136" lon="2.25474">
        <ele>729</ele>
        <time>2019-05-18T15:03:26Z</time>
      </trkpt>
      <trkpt lat="45.58139" lon="2.25471">
        <ele>728</ele>
        <time>2019-05-18T15:03:27Z</time>
      </trkpt>
      <trkpt lat="45.58142" lon="2.2547">
        <ele>728</ele>
        <time>2019-05-18T15:03:28Z</time>
      </trkpt>
      <trkpt lat="45.58145" lon="2.2547">
        <ele>728</ele>
        <time>2019-05-18T15:03:29Z</time>
      </trkpt>
      <trkpt lat="45.58148" lon="2.2547">
        <ele>727</ele>
        <time>2019-05-18T15:03:30Z</time>
      </trkpt>
      <trkpt lat="45.58151" lon="2.25471">
        <ele>727</ele>
        <time>2019-05-18T15:03:31Z</time>
      </trkpt>
      <trkpt lat="45.58155" lon="2.25471">
        <ele>727</ele>
        <time>2019-05-18T15:03:32Z</time>
      </trkpt>
      <trkpt lat="45.58156" lon="2.25471">
        <ele>727</ele>
        <time>2019-05-18T15:03:33Z</time>
      </trkpt>
      <trkpt lat="45.58159" lon="2.2547">
        <ele>726</ele>
        <time>2019-05-18T15:03:34Z</time>
      </trkpt>
      <trkpt lat="45.58163" lon="2.25467">
        <ele>726</ele>
        <time>2019-05-18T15:03:35Z</time>
      </trkpt>
      <trkpt lat="45.58167" lon="2.25466">
        <ele>725</ele>
        <time>2019-05-18T15:03:36Z</time>
      </trkpt>
      <trkpt lat="45.58171" lon="2.25462">
        <ele>725</ele>
        <time>2019-05-18T15:03:37Z</time>
      </trkpt>
      <trkpt lat="45.58175" lon="2.2546">
        <ele>724</ele>
        <time>2019-05-18T15:03:38Z</time>
      </trkpt>
      <trkpt lat="45.58179" lon="2.25458">
        <ele>724</ele>
        <time>2019-05-18T15:03:39Z</time>
      </trkpt>
      <trkpt lat="45.58182" lon="2.25456">
        <ele>724</ele>
        <time>2019-05-18T15:03:40Z</time>
      </trkpt>
      <trkpt lat="45.58187" lon="2.25453">
        <ele>724</ele>
        <time>2019-05-18T15:03:41Z</time>
      </trkpt>
      <trkpt lat="45.58192" lon="2.25447">
        <ele>723</ele>
        <time>2019-05-18T15:03:42Z</time>
      </trkpt>
      <trkpt lat="45.58198" lon="2.25441">
        <ele>723</ele>
        <time>2019-05-18T15:03:43Z</time>
      </trkpt>
      <trkpt lat="45.58204" lon="2.25435">
        <ele>722</ele>
        <time>2019-05-18T15:03:44Z</time>
      </trkpt>
      <trkpt lat="45.58209" lon="2.25429">
        <ele>722</ele>
        <time>2019-05-18T15:03:45Z</time>
      </trkpt>
      <trkpt lat="45.58215" lon="2.25426">
        <ele>721</ele>
        <time>2019-05-18T15:03:46Z</time>
      </trkpt>
      <trkpt lat="45.58221" lon="2.25423">
        <ele>721</ele>
        <time>2019-05-18T15:03:47Z</time>
      </trkpt>
      <trkpt lat="45.58227" lon="2.25421">
        <ele>721</ele>
        <time>2019-05-18T15:03:48Z</time>
      </trkpt>
      <trkpt lat="45.58232" lon="2.25419">
        <ele>720</ele>
        <time>2019-05-18T15:03:49Z</time>
      </trkpt>
      <trkpt lat="45.58237" lon="2.25416">
        <ele>720</ele>
        <time>2019-05-18T15:03:50Z</time>
      </trkpt>
      <trkpt lat="45.58244" lon="2.25413">
        <ele>719</ele>
        <time>2019-05-18T15:03:51Z</time>
      </trkpt>
      <trkpt lat="45.58249" lon="2.25412">
        <ele>719</ele>
        <time>2019-05-18T15:03:52Z</time>
      </trkpt>
      <trkpt lat="45.58253" lon="2.2541">
        <ele>718</ele>
        <time>2019-05-18T15:03:53Z</time>
      </trkpt>
      <trkpt lat="45.58257" lon="2.25406">
        <ele>718</ele>
        <time>2019-05-18T15:03:54Z</time>
      </trkpt>
      <trkpt lat="45.5826" lon="2.25404">
        <ele>718</ele>
        <time>2019-05-18T15:03:55Z</time>
      </trkpt>
      <trkpt lat="45.58263" lon="2.25404">
        <ele>718</ele>
        <time>2019-05-18T15:03:56Z</time>
      </trkpt>
      <trkpt lat="45.58267" lon="2.25404">
        <ele>718</ele>
        <time>2019-05-18T15:03:57Z</time>
      </trkpt>
      <trkpt lat="45.5827" lon="2.25403">
        <ele>718</ele>
        <time>2019-05-18T15:03:58Z</time>
      </trkpt>
      <trkpt lat="45.58274" lon="2.254">
        <ele>718</ele>
        <time>2019-05-18T15:03:59Z</time>
      </trkpt>
      <trkpt lat="45.58277" lon="2.25397">
        <ele>718</ele>
        <time>2019-05-18T15:04:00Z</time>
      </trkpt>
      <trkpt lat="45.5828" lon="2.25395">
        <ele>719</ele>
        <time>2019-05-18T15:04:01Z</time>
      </trkpt>
      <trkpt lat="45.58282" lon="2.25394">
        <ele>719</ele>
        <time>2019-05-18T15:04:02Z</time>
      </trkpt>
      <trkpt lat="45.58285" lon="2.25393">
        <ele>719</ele>
        <time>2019-05-18T15:04:03Z</time>
      </trkpt>
      <trkpt lat="45.58287" lon="2.25391">
        <ele>719</ele>
        <time>2019-05-18T15:04:04Z</time>
      </trkpt>
      <trkpt lat="45.58289" lon="2.25389">
        <ele>719</ele>
        <time>2019-05-18T15:04:05Z</time>
      </trkpt>
      <trkpt lat="45.58289" lon="2.25388">
        <ele>719</ele>
        <time>2019-05-18T15:04:06Z</time>
      </trkpt>
      <trkpt lat="45.58291" lon="2.25386">
        <ele>719</ele>
        <time>2019-05-18T15:04:07Z</time>
      </trkpt>
      <trkpt lat="45.58293" lon="2.25383">
        <ele>719</ele>
        <time>2019-05-18T15:04:08Z</time>
      </trkpt>
      <trkpt lat="45.58294" lon="2.25381">
        <ele>719</ele>
        <time>2019-05-18T15:04:09Z</time>
      </trkpt>
      <trkpt lat="45.58297" lon="2.25377">
        <ele>719</ele>
        <time>2019-05-18T15:04:10Z</time>
      </trkpt>
      <trkpt lat="45.58298" lon="2.25374">
        <ele>719</ele>
        <time>2019-05-18T15:04:11Z</time>
      </trkpt>
      <trkpt lat="45.583" lon="2.25371">
        <ele>719</ele>
        <time>2019-05-18T15:04:12Z</time>
      </trkpt>
      <trkpt lat="45.58302" lon="2.25368">
        <ele>719</ele>
        <time>2019-05-18T15:04:13Z</time>
      </trkpt>
      <trkpt lat="45.58302" lon="2.25365">
        <ele>719</ele>
        <time>2019-05-18T15:04:14Z</time>
      </trkpt>
      <trkpt lat="45.58304" lon="2.25362">
        <ele>719</ele>
        <time>2019-05-18T15:04:15Z</time>
      </trkpt>
      <trkpt lat="45.58306" lon="2.25359">
        <ele>719</ele>
        <time>2019-05-18T15:04:16Z</time>
      </trkpt>
      <trkpt lat="45.58307" lon="2.25356">
        <ele>719</ele>
        <time>2019-05-18T15:04:17Z</time>
      </trkpt>
      <trkpt lat="45.58308" lon="2.25353">
        <ele>719</ele>
        <time>2019-05-18T15:04:18Z</time>
      </trkpt>
      <trkpt lat="45.58309" lon="2.25351">
        <ele>720</ele>
        <time>2019-05-18T15:04:19Z</time>
      </trkpt>
      <trkpt lat="45.58311" lon="2.25349">
        <ele>720</ele>
        <time>2019-05-18T15:04:20Z</time>
      </trkpt>
      <trkpt lat="45.58314" lon="2.25347">
        <ele>720</ele>
        <time>2019-05-18T15:04:21Z</time>
      </trkpt>
      <trkpt lat="45.58316" lon="2.25344">
        <ele>720</ele>
        <time>2019-05-18T15:04:22Z</time>
      </trkpt>
      <trkpt lat="45.58318" lon="2.2534">
        <ele>720</ele>
        <time>2019-05-18T15:04:23Z</time>
      </trkpt>
      <trkpt lat="45.5832" lon="2.25337">
        <ele>720</ele>
        <time>2019-05-18T15:04:24Z</time>
      </trkpt>
      <trkpt lat="45.58322" lon="2.25333">
        <ele>720</ele>
        <time>2019-05-18T15:04:25Z</time>
      </trkpt>
      <trkpt lat="45.58324" lon="2.2533">
        <ele>720</ele>
        <time>2019-05-18T15:04:26Z</time>
      </trkpt>
      <trkpt lat="45.58326" lon="2.25327">
        <ele>720</ele>
        <time>2019-05-18T15:04:27Z</time>
      </trkpt>
      <trkpt lat="45.58329" lon="2.25324">
        <ele>721</ele>
        <time>2019-05-18T15:04:28Z</time>
      </trkpt>
      <trkpt lat="45.58331" lon="2.25322">
        <ele>721</ele>
        <time>2019-05-18T15:04:29Z</time>
      </trkpt>
      <trkpt lat="45.58333" lon="2.2532">
        <ele>721</ele>
        <time>2019-05-18T15:04:30Z</time>
      </trkpt>
      <trkpt lat="45.58336" lon="2.25318">
        <ele>721</ele>
        <time>2019-05-18T15:04:31Z</time>
      </trkpt>
      <trkpt lat="45.58336" lon="2.25316">
        <ele>721</ele>
        <time>2019-05-18T15:04:32Z</time>
      </trkpt>
      <trkpt lat="45.58338" lon="2.25315">
        <ele>721</ele>
        <time>2019-05-18T15:04:33Z</time>
      </trkpt>
      <trkpt lat="45.5834" lon="2.25313">
        <ele>722</ele>
        <time>2019-05-18T15:04:34Z</time>
      </trkpt>
      <trkpt lat="45.58342" lon="2.25311">
        <ele>722</ele>
        <time>2019-05-18T15:04:35Z</time>
      </trkpt>
      <trkpt lat="45.58344" lon="2.2531">
        <ele>722</ele>
        <time>2019-05-18T15:04:36Z</time>
      </trkpt>
      <trkpt lat="45.58347" lon="2.25308">
        <ele>722</ele>
        <time>2019-05-18T15:04:37Z</time>
      </trkpt>
      <trkpt lat="45.58349" lon="2.25306">
        <ele>722</ele>
        <time>2019-05-18T15:04:38Z</time>
      </trkpt>
      <trkpt lat="45.5835" lon="2.25306">
        <ele>723</ele>
        <time>2019-05-18T15:04:39Z</time>
      </trkpt>
      <trkpt lat="45.58352" lon="2.25307">
        <ele>723</ele>
        <time>2019-05-18T15:04:40Z</time>
      </trkpt>
      <trkpt lat="45.58354" lon="2.25306">
        <ele>723</ele>
        <time>2019-05-18T15:04:41Z</time>
      </trkpt>
      <trkpt lat="45.58358" lon="2.25303">
        <ele>723</ele>
        <time>2019-05-18T15:04:42Z</time>
      </trkpt>
      <trkpt lat="45.5836" lon="2.25302">
        <ele>723</ele>
        <time>2019-05-18T15:04:43Z</time>
      </trkpt>
      <trkpt lat="45.58362" lon="2.25299">
        <ele>723</ele>
        <time>2019-05-18T15:04:44Z</time>
      </trkpt>
      <trkpt lat="45.58364" lon="2.25295">
        <ele>723</ele>
        <time>2019-05-18T15:04:45Z</time>
      </trkpt>
      <trkpt lat="45.58366" lon="2.25292">
        <ele>723</ele>
        <time>2019-05-18T15:04:46Z</time>
      </trkpt>
      <trkpt lat="45.58368" lon="2.25289">
        <ele>723</ele>
        <time>2019-05-18T15:04:47Z</time>
      </trkpt>
      <trkpt lat="45.5837" lon="2.25286">
        <ele>723</ele>
        <time>2019-05-18T15:04:48Z</time>
      </trkpt>
      <trkpt lat="45.58374" lon="2.25282">
        <ele>723</ele>
        <time>2019-05-18T15:04:49Z</time>
      </trkpt>
      <trkpt lat="45.58376" lon="2.25278">
        <ele>723</ele>
        <time>2019-05-18T15:04:50Z</time>
      </trkpt>
      <trkpt lat="45.58379" lon="2.25276">
        <ele>723</ele>
        <time>2019-05-18T15:04:51Z</time>
      </trkpt>
      <trkpt lat="45.58381" lon="2.25274">
        <ele>722</ele>
        <time>2019-05-18T15:04:52Z</time>
      </trkpt>
      <trkpt lat="45.58384" lon="2.25271">
        <ele>722</ele>
        <time>2019-05-18T15:04:53Z</time>
      </trkpt>
      <trkpt lat="45.58386" lon="2.25267">
        <ele>722</ele>
        <time>2019-05-18T15:04:54Z</time>
      </trkpt>
      <trkpt lat="45.58389" lon="2.25266">
        <ele>722</ele>
        <time>2019-05-18T15:04:55Z</time>
      </trkpt>
      <trkpt lat="45.58391" lon="2.25263">
        <ele>722</ele>
        <time>2019-05-18T15:04:56Z</time>
      </trkpt>
      <trkpt lat="45.58394" lon="2.2526">
        <ele>722</ele>
        <time>2019-05-18T15:04:57Z</time>
      </trkpt>
      <trkpt lat="45.58396" lon="2.25259">
        <ele>722</ele>
        <time>2019-05-18T15:04:58Z</time>
      </trkpt>
      <trkpt lat="45.584" lon="2.25256">
        <ele>722</ele>
        <time>2019-05-18T15:04:59Z</time>
      </trkpt>
      <trkpt lat="45.58403" lon="2.25253">
        <ele>721</ele>
        <time>2019-05-18T15:05:00Z</time>
      </trkpt>
      <trkpt lat="45.58406" lon="2.25249">
        <ele>721</ele>
        <time>2019-05-18T15:05:01Z</time>
      </trkpt>
      <trkpt lat="45.58409" lon="2.25247">
        <ele>721</ele>
        <time>2019-05-18T15:05:02Z</time>
      </trkpt>
      <trkpt lat="45.58412" lon="2.25245">
        <ele>720</ele>
        <time>2019-05-18T15:05:03Z</time>
      </trkpt>
      <trkpt lat="45.58414" lon="2.25243">
        <ele>720</ele>
        <time>2019-05-18T15:05:04Z</time>
      </trkpt>
      <trkpt lat="45.58418" lon="2.25242">
        <ele>720</ele>
        <time>2019-05-18T15:05:05Z</time>
      </trkpt>
      <trkpt lat="45.5842" lon="2.25241">
        <ele>720</ele>
        <time>2019-05-18T15:05:06Z</time>
      </trkpt>
      <trkpt lat="45.58424" lon="2.25241">
        <ele>720</ele>
        <time>2019-05-18T15:05:07Z</time>
      </trkpt>
      <trkpt lat="45.58428" lon="2.2524">
        <ele>720</ele>
        <time>2019-05-18T15:05:08Z</time>
      </trkpt>
      <trkpt lat="45.58432" lon="2.25241">
        <ele>720</ele>
        <time>2019-05-18T15:05:09Z</time>
      </trkpt>
      <trkpt lat="45.58435" lon="2.25241">
        <ele>720</ele>
        <time>2019-05-18T15:05:10Z</time>
      </trkpt>
      <trkpt lat="45.58438" lon="2.2524">
        <ele>720</ele>
        <time>2019-05-18T15:05:11Z</time>
      </trkpt>
      <trkpt lat="45.58441" lon="2.25241">
        <ele>720</ele>
        <time>2019-05-18T15:05:12Z</time>
      </trkpt>
      <trkpt lat="45.58444" lon="2.25241">
        <ele>720</ele>
        <time>2019-05-18T15:05:13Z</time>
      </trkpt>
      <trkpt lat="45.58447" lon="2.25241">
        <ele>720</ele>
        <time>2019-05-18T15:05:14Z</time>
      </trkpt>
      <trkpt lat="45.5845" lon="2.25243">
        <ele>720</ele>
        <time>2019-05-18T15:05:15Z</time>
      </trkpt>
      <trkpt lat="45.58453" lon="2.25243">
        <ele>720</ele>
        <time>2019-05-18T15:05:16Z</time>
      </trkpt>
      <trkpt lat="45.58455" lon="2.25243">
        <ele>720</ele>
        <time>2019-05-18T15:05:17Z</time>
      </trkpt>
      <trkpt lat="45.58457" lon="2.25243">
        <ele>720</ele>
        <time>2019-05-18T15:05:18Z</time>
      </trkpt>
      <trkpt lat="45.5846" lon="2.25243">
        <ele>721</ele>
        <time>2019-05-18T15:05:19Z</time>
      </trkpt>
      <trkpt lat="45.58461" lon="2.25243">
        <ele>721</ele>
        <time>2019-05-18T15:05:20Z</time>
      </trkpt>
      <trkpt lat="45.58463" lon="2.25242">
        <ele>721</ele>
        <time>2019-05-18T15:05:21Z</time>
      </trkpt>
      <trkpt lat="45.58466" lon="2.25242">
        <ele>721</ele>
        <time>2019-05-18T15:05:22Z</time>
      </trkpt>
      <trkpt lat="45.58469" lon="2.25241">
        <ele>721</ele>
        <time>2019-05-18T15:05:23Z</time>
      </trkpt>
      <trkpt lat="45.5847" lon="2.2524">
        <ele>721</ele>
        <time>2019-05-18T15:05:24Z</time>
      </trkpt>
      <trkpt lat="45.58473" lon="2.25239">
        <ele>721</ele>
        <time>2019-05-18T15:05:25Z</time>
      </trkpt>
      <trkpt lat="45.58475" lon="2.25238">
        <ele>722</ele>
        <time>2019-05-18T15:05:26Z</time>
      </trkpt>
      <trkpt lat="45.58476" lon="2.25236">
        <ele>722</ele>
        <time>2019-05-18T15:05:27Z</time>
      </trkpt>
      <trkpt lat="45.58478" lon="2.25235">
        <ele>722</ele>
        <time>2019-05-18T15:05:28Z</time>
      </trkpt>
      <trkpt lat="45.58479" lon="2.25233">
        <ele>722</ele>
        <time>2019-05-18T15:05:29Z</time>
      </trkpt>
      <trkpt lat="45.58481" lon="2.25233">
        <ele>722</ele>
        <time>2019-05-18T15:05:30Z</time>
      </trkpt>
      <trkpt lat="45.58483" lon="2.25232">
        <ele>723</ele>
        <time>2019-05-18T15:05:31Z</time>
      </trkpt>
      <trkpt lat="45.58485" lon="2.25231">
        <ele>723</ele>
        <time>2019-05-18T15:05:32Z</time>
      </trkpt>
      <trkpt lat="45.58486" lon="2.25229">
        <ele>723</ele>
        <time>2019-05-18T15:05:33Z</time>
      </trkpt>
      <trkpt lat="45.58487" lon="2.25228">
        <ele>723</ele>
        <time>2019-05-18T15:05:34Z</time>
      </trkpt>
      <trkpt lat="45.58489" lon="2.25228">
        <ele>723</ele>
        <time>2019-05-18T15:05:35Z</time>
      </trkpt>
      <trkpt lat="45.5849" lon="2.25227">
        <ele>723</ele>
        <time>2019-05-18T15:05:36Z</time>
      </trkpt>
      <trkpt lat="45.58493" lon="2.25225">
        <ele>723</ele>
        <time>2019-05-18T15:05:37Z</time>
      </trkpt>
      <trkpt lat="45.58494" lon="2.25225">
        <ele>723</ele>
        <time>2019-05-18T15:05:38Z</time>
      </trkpt>
      <trkpt lat="45.58495" lon="2.25224">
        <ele>724</ele>
        <time>2019-05-18T15:05:39Z</time>
      </trkpt>
      <trkpt lat="45.58497" lon="2.25224">
        <ele>724</ele>
        <time>2019-05-18T15:05:40Z</time>
      </trkpt>
      <trkpt lat="45.58498" lon="2.25222">
        <ele>724</ele>
        <time>2019-05-18T15:05:41Z</time>
      </trkpt>
      <trkpt lat="45.58501" lon="2.25221">
        <ele>724</ele>
        <time>2019-05-18T15:05:42Z</time>
      </trkpt>
      <trkpt lat="45.58503" lon="2.25221">
        <ele>725</ele>
        <time>2019-05-18T15:05:43Z</time>
      </trkpt>
      <trkpt lat="45.58504" lon="2.25221">
        <ele>725</ele>
        <time>2019-05-18T15:05:44Z</time>
      </trkpt>
      <trkpt lat="45.58505" lon="2.25221">
        <ele>725</ele>
        <time>2019-05-18T15:05:45Z</time>
      </trkpt>
      <trkpt lat="45.58506" lon="2.25222">
        <ele>725</ele>
        <time>2019-05-18T15:05:46Z</time>
      </trkpt>
      <trkpt lat="45.58508" lon="2.25223">
        <ele>726</ele>
        <time>2019-05-18T15:05:47Z</time>
      </trkpt>
      <trkpt lat="45.58509" lon="2.25225">
        <ele>726</ele>
        <time>2019-05-18T15:05:48Z</time>
      </trkpt>
      <trkpt lat="45.5851" lon="2.25227">
        <ele>726</ele>
        <time>2019-05-18T15:05:49Z</time>
      </trkpt>
      <trkpt lat="45.5851" lon="2.25227">
        <ele>726</ele>
        <time>2019-05-18T15:05:50Z</time>
      </trkpt>
      <trkpt lat="45.58511" lon="2.25226">
        <ele>727</ele>
        <time>2019-05-18T15:05:51Z</time>
      </trkpt>
      <trkpt lat="45.58512" lon="2.25227">
        <ele>727</ele>
        <time>2019-05-18T15:05:52Z</time>
      </trkpt>
      <trkpt lat="45.58512" lon="2.25228">
        <ele>727</ele>
        <time>2019-05-18T15:05:53Z</time>
      </trkpt>
      <trkpt lat="45.58514" lon="2.25229">
        <ele>727</ele>
        <time>2019-05-18T15:05:54Z</time>
      </trkpt>
      <trkpt lat="45.58514" lon="2.2523">
        <ele>727</ele>
        <time>2019-05-18T15:05:55Z</time>
      </trkpt>
      <trkpt lat="45.58515" lon="2.25231">
        <ele>727</ele>
        <time>2019-05-18T15:05:56Z</time>
      </trkpt>
      <trkpt lat="45.58516" lon="2.25233">
        <ele>728</ele>
        <time>2019-05-18T15:05:57Z</time>
      </trkpt>
      <trkpt lat="45.58516" lon="2.25235">
        <ele>728</ele>
        <time>2019-05-18T15:05:58Z</time>
      </trkpt>
      <trkpt lat="45.58518" lon="2.25235">
        <ele>728</ele>
        <time>2019-05-18T15:05:59Z</time>
      </trkpt>
      <trkpt lat="45.58519" lon="2.25237">
        <ele>728</ele>
        <time>2019-05-18T15:06:00Z</time>
      </trkpt>
      <trkpt lat="45.5852" lon="2.25239">
        <ele>728</ele>
        <time>2019-05-18T15:06:01Z</time>
      </trkpt>
      <trkpt lat="45.58521" lon="2.2524">
        <ele>729</ele>
        <time>2019-05-18T15:06:02Z</time>
      </trkpt>
      <trkpt lat="45.58523" lon="2.25241">
        <ele>729</ele>
        <time>2019-05-18T15:06:03Z</time>
      </trkpt>
      <trkpt lat="45.58524" lon="2.25243">
        <ele>729</ele>
        <time>2019-05-18T15:06:04Z</time>
      </trkpt>
      <trkpt lat="45.58526" lon="2.25244">
        <ele>729</ele>
        <time>2019-05-18T15:06:05Z</time>
      </trkpt>
      <trkpt lat="45.58528" lon="2.25244">
        <ele>730</ele>
        <time>2019-05-18T15:06:06Z</time>
      </trkpt>
      <trkpt lat="45.5853" lon="2.25245">
        <ele>730</ele>
        <time>2019-05-18T15:06:07Z</time>
      </trkpt>
      <trkpt lat="45.58532" lon="2.25245">
        <ele>730</ele>
        <time>2019-05-18T15:06:08Z</time>
      </trkpt>
      <trkpt lat="45.58533" lon="2.25246">
        <ele>730</ele>
        <time>2019-05-18T15:06:09Z</time>
      </trkpt>
      <trkpt lat="45.58535" lon="2.25246">
        <ele>730</ele>
        <time>2019-05-18T15:06:10Z</time>
      </trkpt>
      <trkpt lat="45.58536" lon="2.25246">
        <ele>730</ele>
        <time>2019-05-18T15:06:11Z</time>
      </trkpt>
      <trkpt lat="45.58538" lon="2.25246">
        <ele>730</ele>
        <time>2019-05-18T15:06:12Z</time>
      </trkpt>
      <trkpt lat="45.58539" lon="2.25245">
        <ele>731</ele>
        <time>2019-05-18T15:06:13Z</time>
      </trkpt>
      <trkpt lat="45.58541" lon="2.25246">
        <ele>731</ele>
        <time>2019-05-18T15:06:14Z</time>
      </trkpt>
      <trkpt lat="45.58542" lon="2.25246">
        <ele>731</ele>
        <time>2019-05-18T15:06:15Z</time>
      </trkpt>
      <trkpt lat="45.58543" lon="2.25246">
        <ele>731</ele>
        <time>2019-05-18T15:06:16Z</time>
      </trkpt>
      <trkpt lat="45.58544" lon="2.25246">
        <ele>731</ele>
        <time>2019-05-18T15:06:17Z</time>
      </trkpt>
      <trkpt lat="45.58545" lon="2.25247">
        <ele>731</ele>
        <time>2019-05-18T15:06:18Z</time>
      </trkpt>
      <trkpt lat="45.58546" lon="2.25247">
        <ele>732</ele>
        <time>2019-05-18T15:06:19Z</time>
      </trkpt>
      <trkpt lat="45.58548" lon="2.25246">
        <ele>732</ele>
        <time>2019-05-18T15:06:20Z</time>
      </trkpt>
      <trkpt lat="45.58549" lon="2.25246">
        <ele>732</ele>
        <time>2019-05-18T15:06:21Z</time>
      </trkpt>
      <trkpt lat="45.58551" lon="2.25246">
        <ele>732</ele>
        <time>2019-05-18T15:06:22Z</time>
      </trkpt>
      <trkpt lat="45.58553" lon="2.25246">
        <ele>732</ele>
        <time>2019-05-18T15:06:23Z</time>
      </trkpt>
      <trkpt lat="45.58555" lon="2.25246">
        <ele>733</ele>
        <time>2019-05-18T15:06:24Z</time>
      </trkpt>
      <trkpt lat="45.58557" lon="2.25247">
        <ele>733</ele>
        <time>2019-05-18T15:06:25Z</time>
      </trkpt>
      <trkpt lat="45.58559" lon="2.25247">
        <ele>733</ele>
        <time>2019-05-18T15:06:26Z</time>
      </trkpt>
      <trkpt lat="45.58561" lon="2.25246">
        <ele>733</ele>
        <time>2019-05-18T15:06:27Z</time>
      </trkpt>
      <trkpt lat="45.58562" lon="2.25246">
        <ele>733</ele>
        <time>2019-05-18T15:06:28Z</time>
      </trkpt>
      <trkpt lat="45.58564" lon="2.25245">
        <ele>734</ele>
        <time>2019-05-18T15:06:29Z</time>
      </trkpt>
      <trkpt lat="45.58567" lon="2.25244">
        <ele>734</ele>
        <time>2019-05-18T15:06:30Z</time>
      </trkpt>
      <trkpt lat="45.58569" lon="2.25242">
        <ele>734</ele>
        <time>2019-05-18T15:06:31Z</time>
      </trkpt>
      <trkpt lat="45.5857" lon="2.25241">
        <ele>734</ele>
        <time>2019-05-18T15:06:32Z</time>
      </trkpt>
      <trkpt lat="45.58572" lon="2.25239">
        <ele>734</ele>
        <time>2019-05-18T15:06:33Z</time>
      </trkpt>
      <trkpt lat="45.58574" lon="2.25237">
        <ele>734</ele>
        <time>2019-05-18T15:06:34Z</time>
      </trkpt>
      <trkpt lat="45.58576" lon="2.25236">
        <ele>734</ele>
        <time>2019-05-18T15:06:35Z</time>
      </trkpt>
      <trkpt lat="45.58578" lon="2.25233">
        <ele>735</ele>
        <time>2019-05-18T15:06:36Z</time>
      </trkpt>
      <trkpt lat="45.58579" lon="2.2523">
        <ele>735</ele>
        <time>2019-05-18T15:06:37Z</time>
      </trkpt>
      <trkpt lat="45.58581" lon="2.25228">
        <ele>735</ele>
        <time>2019-05-18T15:06:38Z</time>
      </trkpt>
      <trkpt lat="45.58582" lon="2.25226">
        <ele>735</ele>
        <time>2019-05-18T15:06:39Z</time>
      </trkpt>
      <trkpt lat="45.58584" lon="2.25224">
        <ele>735</ele>
        <time>2019-05-18T15:06:40Z</time>
      </trkpt>
      <trkpt lat="45.58585" lon="2.25222">
        <ele>735</ele>
        <time>2019-05-18T15:06:41Z</time>
      </trkpt>
      <trkpt lat="45.58586" lon="2.2522">
        <ele>735</ele>
        <time>2019-05-18T15:06:42Z</time>
      </trkpt>
      <trkpt lat="45.58588" lon="2.25218">
        <ele>735</ele>
        <time>2019-05-18T15:06:43Z</time>
      </trkpt>
      <trkpt lat="45.58589" lon="2.25216">
        <ele>735</ele>
        <time>2019-05-18T15:06:44Z</time>
      </trkpt>
      <trkpt lat="45.58591" lon="2.25215">
        <ele>736</ele>
        <time>2019-05-18T15:06:45Z</time>
      </trkpt>
      <trkpt lat="45.58592" lon="2.25213">
        <ele>736</ele>
        <time>2019-05-18T15:06:46Z</time>
      </trkpt>
      <trkpt lat="45.58593" lon="2.25211">
        <ele>736</ele>
        <time>2019-05-18T15:06:47Z</time>
      </trkpt>
      <trkpt lat="45.58595" lon="2.25209">
        <ele>736</ele>
        <time>2019-05-18T15:06:48Z</time>
      </trkpt>
      <trkpt lat="45.58596" lon="2.25209">
        <ele>736</ele>
        <time>2019-05-18T15:06:49Z</time>
      </trkpt>
      <trkpt lat="45.58596" lon="2.25208">
        <ele>736</ele>
        <time>2019-05-18T15:06:50Z</time>
      </trkpt>
      <trkpt lat="45.58597" lon="2.25206">
        <ele>736</ele>
        <time>2019-05-18T15:06:51Z</time>
      </trkpt>
      <trkpt lat="45.58598" lon="2.25204">
        <ele>736</ele>
        <time>2019-05-18T15:06:52Z</time>
      </trkpt>
      <trkpt lat="45.58599" lon="2.25203">
        <ele>737</ele>
        <time>2019-05-18T15:06:53Z</time>
      </trkpt>
      <trkpt lat="45.586" lon="2.25201">
        <ele>737</ele>
        <time>2019-05-18T15:06:54Z</time>
      </trkpt>
      <trkpt lat="45.586" lon="2.252">
        <ele>737</ele>
        <time>2019-05-18T15:06:55Z</time>
      </trkpt>
      <trkpt lat="45.58601" lon="2.25198">
        <ele>737</ele>
        <time>2019-05-18T15:06:56Z</time>
      </trkpt>
      <trkpt lat="45.58603" lon="2.25196">
        <ele>737</ele>
        <time>2019-05-18T15:06:57Z</time>
      </trkpt>
      <trkpt lat="45.58604" lon="2.25194">
        <ele>737</ele>
        <time>2019-05-18T15:06:58Z</time>
      </trkpt>
      <trkpt lat="45.58606" lon="2.25194">
        <ele>737</ele>
        <time>2019-05-18T15:06:59Z</time>
      </trkpt>
      <trkpt lat="45.58606" lon="2.25192">
        <ele>737</ele>
        <time>2019-05-18T15:07:00Z</time>
      </trkpt>
      <trkpt lat="45.58608" lon="2.25191">
        <ele>738</ele>
        <time>2019-05-18T15:07:01Z</time>
      </trkpt>
      <trkpt lat="45.5861" lon="2.25191">
        <ele>738</ele>
        <time>2019-05-18T15:07:02Z</time>
      </trkpt>
      <trkpt lat="45.58611" lon="2.25191">
        <ele>738</ele>
        <time>2019-05-18T15:07:03Z</time>
      </trkpt>
      <trkpt lat="45.58613" lon="2.25191">
        <ele>738</ele>
        <time>2019-05-18T15:07:04Z</time>
      </trkpt>
      <trkpt lat="45.58614" lon="2.25191">
        <ele>738</ele>
        <time>2019-05-18T15:07:05Z</time>
      </trkpt>
      <trkpt lat="45.58616" lon="2.25191">
        <ele>739</ele>
        <time>2019-05-18T15:07:06Z</time>
      </trkpt>
      <trkpt lat="45.58618" lon="2.25191">
        <ele>739</ele>
        <time>2019-05-18T15:07:07Z</time>
      </trkpt>
      <trkpt lat="45.5862" lon="2.25191">
        <ele>739</ele>
        <time>2019-05-18T15:07:08Z</time>
      </trkpt>
      <trkpt lat="45.58621" lon="2.2519">
        <ele>739</ele>
        <time>2019-05-18T15:07:09Z</time>
      </trkpt>
      <trkpt lat="45.58623" lon="2.25189">
        <ele>739</ele>
        <time>2019-05-18T15:07:10Z</time>
      </trkpt>
      <trkpt lat="45.58624" lon="2.25189">
        <ele>739</ele>
        <time>2019-05-18T15:07:11Z</time>
      </trkpt>
      <trkpt lat="45.58627" lon="2.25187">
        <ele>739</ele>
        <time>2019-05-18T15:07:12Z</time>
      </trkpt>
      <trkpt lat="45.58629" lon="2.25185">
        <ele>739</ele>
        <time>2019-05-18T15:07:13Z</time>
      </trkpt>
      <trkpt lat="45.58631" lon="2.25183">
        <ele>739</ele>
        <time>2019-05-18T15:07:14Z</time>
      </trkpt>
      <trkpt lat="45.58633" lon="2.25181">
        <ele>739</ele>
        <time>2019-05-18T15:07:15Z</time>
      </trkpt>
      <trkpt lat="45.58636" lon="2.25179">
        <ele>739</ele>
        <time>2019-05-18T15:07:16Z</time>
      </trkpt>
      <trkpt lat="45.58639" lon="2.25177">
        <ele>739</ele>
        <time>2019-05-18T15:07:17Z</time>
      </trkpt>
      <trkpt lat="45.58642" lon="2.25176">
        <ele>740</ele>
        <time>2019-05-18T15:07:18Z</time>
      </trkpt>
      <trkpt lat="45.58645" lon="2.25174">
        <ele>740</ele>
        <time>2019-05-18T15:07:19Z</time>
      </trkpt>
      <trkpt lat="45.58648" lon="2.25173">
        <ele>740</ele>
        <time>2019-05-18T15:07:20Z</time>
      </trkpt>
      <trkpt lat="45.5865" lon="2.25172">
        <ele>740</ele>
        <time>2019-05-18T15:07:21Z</time>
      </trkpt>
      <trkpt lat="45.58652" lon="2.25171">
        <ele>740</ele>
        <time>2019-05-18T15:07:22Z</time>
      </trkpt>
      <trkpt lat="45.58654" lon="2.2517">
        <ele>740</ele>
        <time>2019-05-18T15:07:23Z</time>
      </trkpt>
      <trkpt lat="45.58656" lon="2.25168">
        <ele>740</ele>
        <time>2019-05-18T15:07:24Z</time>
      </trkpt>
      <trkpt lat="45.58658" lon="2.25168">
        <ele>740</ele>
        <time>2019-05-18T15:07:25Z</time>
      </trkpt>
      <trkpt lat="45.5866" lon="2.25167">
        <ele>741</ele>
        <time>2019-05-18T15:07:26Z</time>
      </trkpt>
      <trkpt lat="45.58662" lon="2.25167">
        <ele>741</ele>
        <time>2019-05-18T15:07:27Z</time>
      </trkpt>
      <trkpt lat="45.58665" lon="2.25166">
        <ele>741</ele>
        <time>2019-05-18T15:07:28Z</time>
      </trkpt>
      <trkpt lat="45.58667" lon="2.25166">
        <ele>741</ele>
        <time>2019-05-18T15:07:29Z</time>
      </trkpt>
      <trkpt lat="45.58669" lon="2.25165">
        <ele>741</ele>
        <time>2019-05-18T15:07:30Z</time>
      </trkpt>
      <trkpt lat="45.58671" lon="2.25165">
        <ele>741</ele>
        <time>2019-05-18T15:07:31Z</time>
      </trkpt>
      <trkpt lat="45.58673" lon="2.25165">
        <ele>741</ele>
        <time>2019-05-18T15:07:32Z</time>
      </trkpt>
      <trkpt lat="45.58675" lon="2.25165">
        <ele>741</ele>
        <time>2019-05-18T15:07:33Z</time>
      </trkpt>
      <trkpt lat="45.58677" lon="2.25165">
        <ele>742</ele>
        <time>2019-05-18T15:07:34Z</time>
      </trkpt>
      <trkpt lat="45.58679" lon="2.25164">
        <ele>742</ele>
        <time>2019-05-18T15:07:35Z</time>
      </trkpt>
      <trkpt lat="45.58682" lon="2.25164">
        <ele>742</ele>
        <time>2019-05-18T15:07:36Z</time>
      </trkpt>
      <trkpt lat="45.58684" lon="2.25165">
        <ele>742</ele>
        <time>2019-05-18T15:07:37Z</time>
      </trkpt>
      <trkpt lat="45.58686" lon="2.25165">
        <ele>742</ele>
        <time>2019-05-18T15:07:38Z</time>
      </trkpt>
      <trkpt lat="45.58688" lon="2.25165">
        <ele>742</ele>
        <time>2019-05-18T15:07:39Z</time>
      </trkpt>
      <trkpt lat="45.5869" lon="2.25166">
        <ele>742</ele>
        <time>2019-05-18T15:07:40Z</time>
      </trkpt>
      <trkpt lat="45.58692" lon="2.25167">
        <ele>742</ele>
        <time>2019-05-18T15:07:41Z</time>
      </trkpt>
      <trkpt lat="45.58695" lon="2.25168">
        <ele>742</ele>
        <time>2019-05-18T15:07:42Z</time>
      </trkpt>
      <trkpt lat="45.58697" lon="2.25169">
        <ele>742</ele>
        <time>2019-05-18T15:07:43Z</time>
      </trkpt>
      <trkpt lat="45.587" lon="2.25169">
        <ele>742</ele>
        <time>2019-05-18T15:07:44Z</time>
      </trkpt>
      <trkpt lat="45.58702" lon="2.2517">
        <ele>742</ele>
        <time>2019-05-18T15:07:45Z</time>
      </trkpt>
      <trkpt lat="45.58705" lon="2.2517">
        <ele>742</ele>
        <time>2019-05-18T15:07:46Z</time>
      </trkpt>
      <trkpt lat="45.58707" lon="2.25171">
        <ele>742</ele>
        <time>2019-05-18T15:07:47Z</time>
      </trkpt>
      <trkpt lat="45.58709" lon="2.25172">
        <ele>742</ele>
        <time>2019-05-18T15:07:48Z</time>
      </trkpt>
      <trkpt lat="45.58712" lon="2.25173">
        <ele>742</ele>
        <time>2019-05-18T15:07:49Z</time>
      </trkpt>
      <trkpt lat="45.58714" lon="2.25173">
        <ele>742</ele>
        <time>2019-05-18T15:07:50Z</time>
      </trkpt>
      <trkpt lat="45.58717" lon="2.25174">
        <ele>742</ele>
        <time>2019-05-18T15:07:51Z</time>
      </trkpt>
      <trkpt lat="45.5872" lon="2.25175">
        <ele>742</ele>
        <time>2019-05-18T15:07:52Z</time>
      </trkpt>
      <trkpt lat="45.58723" lon="2.25176">
        <ele>742</ele>
        <time>2019-05-18T15:07:53Z</time>
      </trkpt>
      <trkpt lat="45.58726" lon="2.25178">
        <ele>742</ele>
        <time>2019-05-18T15:07:54Z</time>
      </trkpt>
      <trkpt lat="45.58729" lon="2.25178">
        <ele>742</ele>
        <time>2019-05-18T15:07:55Z</time>
      </trkpt>
      <trkpt lat="45.58732" lon="2.25179">
        <ele>741</ele>
        <time>2019-05-18T15:07:56Z</time>
      </trkpt>
      <trkpt lat="45.58736" lon="2.2518">
        <ele>741</ele>
        <time>2019-05-18T15:07:57Z</time>
      </trkpt>
      <trkpt lat="45.58739" lon="2.25181">
        <ele>741</ele>
        <time>2019-05-18T15:07:58Z</time>
      </trkpt>
      <trkpt lat="45.58743" lon="2.25182">
        <ele>741</ele>
        <time>2019-05-18T15:07:59Z</time>
      </trkpt>
      <trkpt lat="45.58747" lon="2.25183">
        <ele>741</ele>
        <time>2019-05-18T15:08:00Z</time>
      </trkpt>
      <trkpt lat="45.58751" lon="2.25186">
        <ele>740</ele>
        <time>2019-05-18T15:08:01Z</time>
      </trkpt>
      <trkpt lat="45.58756" lon="2.2519">
        <ele>739</ele>
        <time>2019-05-18T15:08:02Z</time>
      </trkpt>
      <trkpt lat="45.5876" lon="2.25196">
        <ele>739</ele>
        <time>2019-05-18T15:08:03Z</time>
      </trkpt>
      <trkpt lat="45.58763" lon="2.25203">
        <ele>738</ele>
        <time>2019-05-18T15:08:04Z</time>
      </trkpt>
      <trkpt lat="45.58765" lon="2.2521">
        <ele>738</ele>
        <time>2019-05-18T15:08:05Z</time>
      </trkpt>
      <trkpt lat="45.58766" lon="2.25217">
        <ele>738</ele>
        <time>2019-05-18T15:08:06Z</time>
      </trkpt>
      <trkpt lat="45.58766" lon="2.25224">
        <ele>738</ele>
        <time>2019-05-18T15:08:07Z</time>
      </trkpt>
      <trkpt lat="45.58766" lon="2.2523">
        <ele>738</ele>
        <time>2019-05-18T15:08:08Z</time>
      </trkpt>
      <trkpt lat="45.58766" lon="2.25236">
        <ele>738</ele>
        <time>2019-05-18T15:08:09Z</time>
      </trkpt>
      <trkpt lat="45.58766" lon="2.2524">
        <ele>738</ele>
        <time>2019-05-18T15:08:10Z</time>
      </trkpt>
      <trkpt lat="45.58765" lon="2.25244">
        <ele>738</ele>
        <time>2019-05-18T15:08:11Z</time>
      </trkpt>
      <trkpt lat="45.58766" lon="2.25249">
        <ele>738</ele>
        <time>2019-05-18T15:08:12Z</time>
      </trkpt>
      <trkpt lat="45.58767" lon="2.25253">
        <ele>738</ele>
        <time>2019-05-18T15:08:13Z</time>
      </trkpt>
      <trkpt lat="45.58768" lon="2.25258">
        <ele>738</ele>
        <time>2019-05-18T15:08:14Z</time>
      </trkpt>
      <trkpt lat="45.58768" lon="2.25263">
        <ele>738</ele>
        <time>2019-05-18T15:08:15Z</time>
      </trkpt>
      <trkpt lat="45.58769" lon="2.25268">
        <ele>738</ele>
        <time>2019-05-18T15:08:16Z</time>
      </trkpt>
      <trkpt lat="45.58771" lon="2.25272">
        <ele>738</ele>
        <time>2019-05-18T15:08:17Z</time>
      </trkpt>
      <trkpt lat="45.58773" lon="2.25277">
        <ele>737</ele>
        <time>2019-05-18T15:08:18Z</time>
      </trkpt>
      <trkpt lat="45.58776" lon="2.25282">
        <ele>738</ele>
        <time>2019-05-18T15:08:19Z</time>
      </trkpt>
      <trkpt lat="45.58779" lon="2.25286">
        <ele>738</ele>
        <time>2019-05-18T15:08:20Z</time>
      </trkpt>
      <trkpt lat="45.58782" lon="2.25291">
        <ele>737</ele>
        <time>2019-05-18T15:08:21Z</time>
      </trkpt>
      <trkpt lat="45.58785" lon="2.25296">
        <ele>738</ele>
        <time>2019-05-18T15:08:22Z</time>
      </trkpt>
      <trkpt lat="45.58787" lon="2.253">
        <ele>738</ele>
        <time>2019-05-18T15:08:23Z</time>
      </trkpt>
      <trkpt lat="45.5879" lon="2.25305">
        <ele>738</ele>
        <time>2019-05-18T15:08:24Z</time>
      </trkpt>
      <trkpt lat="45.58792" lon="2.25309">
        <ele>738</ele>
        <time>2019-05-18T15:08:25Z</time>
      </trkpt>
      <trkpt lat="45.58793" lon="2.25312">
        <ele>738</ele>
        <time>2019-05-18T15:08:26Z</time>
      </trkpt>
      <trkpt lat="45.58795" lon="2.25314">
        <ele>739</ele>
        <time>2019-05-18T15:08:27Z</time>
      </trkpt>
      <trkpt lat="45.58797" lon="2.25317">
        <ele>739</ele>
        <time>2019-05-18T15:08:28Z</time>
      </trkpt>
      <trkpt lat="45.58798" lon="2.2532">
        <ele>739</ele>
        <time>2019-05-18T15:08:29Z</time>
      </trkpt>
      <trkpt lat="45.58799" lon="2.25323">
        <ele>739</ele>
        <time>2019-05-18T15:08:30Z</time>
      </trkpt>
      <trkpt lat="45.58801" lon="2.25328">
        <ele>738</ele>
        <time>2019-05-18T15:08:31Z</time>
      </trkpt>
      <trkpt lat="45.58802" lon="2.25334">
        <ele>738</ele>
        <time>2019-05-18T15:08:32Z</time>
      </trkpt>
      <trkpt lat="45.58803" lon="2.25342">
        <ele>737</ele>
        <time>2019-05-18T15:08:33Z</time>
      </trkpt>
      <trkpt lat="45.58803" lon="2.2535">
        <ele>737</ele>
        <time>2019-05-18T15:08:34Z</time>
      </trkpt>
      <trkpt lat="45.58804" lon="2.25359">
        <ele>736</ele>
        <time>2019-05-18T15:08:35Z</time>
      </trkpt>
      <trkpt lat="45.58804" lon="2.25369">
        <ele>736</ele>
        <time>2019-05-18T15:08:36Z</time>
      </trkpt>
      <trkpt lat="45.58805" lon="2.25379">
        <ele>735</ele>
        <time>2019-05-18T15:08:37Z</time>
      </trkpt>
      <trkpt lat="45.58805" lon="2.2539">
        <ele>734</ele>
        <time>2019-05-18T15:08:38Z</time>
      </trkpt>
      <trkpt lat="45.58804" lon="2.25402">
        <ele>734</ele>
        <time>2019-05-18T15:08:39Z</time>
      </trkpt>
      <trkpt lat="45.58804" lon="2.25413">
        <ele>733</ele>
        <time>2019-05-18T15:08:40Z</time>
      </trkpt>
      <trkpt lat="45.58802" lon="2.25425">
        <ele>733</ele>
        <time>2019-05-18T15:08:41Z</time>
      </trkpt>
      <trkpt lat="45.588" lon="2.25436">
        <ele>732</ele>
        <time>2019-05-18T15:08:42Z</time>
      </trkpt>
      <trkpt lat="45.58798" lon="2.25447">
        <ele>732</ele>
        <time>2019-05-18T15:08:43Z</time>
      </trkpt>
      <trkpt lat="45.58795" lon="2.25459">
        <ele>731</ele>
        <time>2019-05-18T15:08:44Z</time>
      </trkpt>
      <trkpt lat="45.58791" lon="2.2547">
        <ele>730</ele>
        <time>2019-05-18T15:08:45Z</time>
      </trkpt>
      <trkpt lat="45.58787" lon="2.25482">
        <ele>730</ele>
        <time>2019-05-18T15:08:46Z</time>
      </trkpt>
      <trkpt lat="45.58785" lon="2.25493">
        <ele>729</ele>
        <time>2019-05-18T15:08:47Z</time>
      </trkpt>
      <trkpt lat="45.58782" lon="2.25504">
        <ele>729</ele>
        <time>2019-05-18T15:08:48Z</time>
      </trkpt>
      <trkpt lat="45.58782" lon="2.25516">
        <ele>728</ele>
        <time>2019-05-18T15:08:49Z</time>
      </trkpt>
      <trkpt lat="45.58781" lon="2.25527">
        <ele>728</ele>
        <time>2019-05-18T15:08:50Z</time>
      </trkpt>
      <trkpt lat="45.58782" lon="2.25539">
        <ele>728</ele>
        <time>2019-05-18T15:08:51Z</time>
      </trkpt>
      <trkpt lat="45.58782" lon="2.25551">
        <ele>728</ele>
        <time>2019-05-18T15:08:52Z</time>
      </trkpt>
      <trkpt lat="45.58781" lon="2.25562">
        <ele>727</ele>
        <time>2019-05-18T15:08:53Z</time>
      </trkpt>
      <trkpt lat="45.5878" lon="2.25573">
        <ele>727</ele>
        <time>2019-05-18T15:08:54Z</time>
      </trkpt>
      <trkpt lat="45.58779" lon="2.25583">
        <ele>727</ele>
        <time>2019-05-18T15:08:55Z</time>
      </trkpt>
      <trkpt lat="45.58776" lon="2.25594">
        <ele>727</ele>
        <time>2019-05-18T15:08:56Z</time>
      </trkpt>
      <trkpt lat="45.58774" lon="2.25604">
        <ele>727</ele>
        <time>2019-05-18T15:08:57Z</time>
      </trkpt>
      <trkpt lat="45.58771" lon="2.25613">
        <ele>727</ele>
        <time>2019-05-18T15:08:58Z</time>
      </trkpt>
      <trkpt lat="45.58767" lon="2.25622">
        <ele>727</ele>
        <time>2019-05-18T15:08:59Z</time>
      </trkpt>
      <trkpt lat="45.58764" lon="2.2563">
        <ele>727</ele>
        <time>2019-05-18T15:09:00Z</time>
      </trkpt>
      <trkpt lat="45.58761" lon="2.25638">
        <ele>727</ele>
        <time>2019-05-18T15:09:01Z</time>
      </trkpt>
      <trkpt lat="45.58758" lon="2.25645">
        <ele>727</ele>
        <time>2019-05-18T15:09:02Z</time>
      </trkpt>
      <trkpt lat="45.58755" lon="2.2565">
        <ele>727</ele>
        <time>2019-05-18T15:09:03Z</time>
      </trkpt>
      <trkpt lat="45.58752" lon="2.25655">
        <ele>728</ele>
        <time>2019-05-18T15:09:04Z</time>
      </trkpt>
      <trkpt lat="45.5875" lon="2.2566">
        <ele>728</ele>
        <time>2019-05-18T15:09:05Z</time>
      </trkpt>
      <trkpt lat="45.58748" lon="2.25664">
        <ele>728</ele>
        <time>2019-05-18T15:09:06Z</time>
      </trkpt>
      <trkpt lat="45.58748" lon="2.25669">
        <ele>728</ele>
        <time>2019-05-18T15:09:07Z</time>
      </trkpt>
      <trkpt lat="45.58748" lon="2.25673">
        <ele>728</ele>
        <time>2019-05-18T15:09:08Z</time>
      </trkpt>
      <trkpt lat="45.5875" lon="2.25677">
        <ele>729</ele>
        <time>2019-05-18T15:09:09Z</time>
      </trkpt>
      <trkpt lat="45.58752" lon="2.2568">
        <ele>729</ele>
        <time>2019-05-18T15:09:10Z</time>
      </trkpt>
      <trkpt lat="45.58753" lon="2.25683">
        <ele>729</ele>
        <time>2019-05-18T15:09:11Z</time>
      </trkpt>
      <trkpt lat="45.58755" lon="2.25686">
        <ele>729</ele>
        <time>2019-05-18T15:09:12Z</time>
      </trkpt>
      <trkpt lat="45.58756" lon="2.2569">
        <ele>729</ele>
        <time>2019-05-18T15:09:13Z</time>
      </trkpt>
      <trkpt lat="45.58756" lon="2.25694">
        <ele>730</ele>
        <time>2019-05-18T15:09:14Z</time>
      </trkpt>
      <trkpt lat="45.58757" lon="2.25697">
        <ele>730</ele>
        <time>2019-05-18T15:09:15Z</time>
      </trkpt>
      <trkpt lat="45.58757" lon="2.25701">
        <ele>730</ele>
        <time>2019-05-18T15:09:16Z</time>
      </trkpt>
      <trkpt lat="45.58758" lon="2.25704">
        <ele>730</ele>
        <time>2019-05-18T15:09:17Z</time>
      </trkpt>
      <trkpt lat="45.58759" lon="2.25707">
        <ele>730</ele>
        <time>2019-05-18T15:09:18Z</time>
      </trkpt>
      <trkpt lat="45.5876" lon="2.2571">
        <ele>731</ele>
        <time>2019-05-18T15:09:19Z</time>
      </trkpt>
      <trkpt lat="45.58761" lon="2.25712">
        <ele>731</ele>
        <time>2019-05-18T15:09:20Z</time>
      </trkpt>
      <trkpt lat="45.58763" lon="2.25714">
        <ele>731</ele>
        <time>2019-05-18T15:09:21Z</time>
      </trkpt>
      <trkpt lat="45.58765" lon="2.25716">
        <ele>731</ele>
        <time>2019-05-18T15:09:22Z</time>
      </trkpt>
      <trkpt lat="45.58767" lon="2.25719">
        <ele>731</ele>
        <time>2019-05-18T15:09:23Z</time>
      </trkpt>
      <trkpt lat="45.58768" lon="2.25721">
        <ele>731</ele>
        <time>2019-05-18T15:09:24Z</time>
      </trkpt>
      <trkpt lat="45.5877" lon="2.25722">
        <ele>732</ele>
        <time>2019-05-18T15:09:25Z</time>
      </trkpt>
      <trkpt lat="45.58771" lon="2.25723">
        <ele>732</ele>
        <time>2019-05-18T15:09:26Z</time>
      </trkpt>
      <trkpt lat="45.58773" lon="2.25724">
        <ele>732</ele>
        <time>2019-05-18T15:09:27Z</time>
      </trkpt>
      <trkpt lat="45.58775" lon="2.25725">
        <ele>732</ele>
        <time>2019-05-18T15:09:28Z</time>
      </trkpt>
      <trkpt lat="45.58777" lon="2.25725">
        <ele>732</ele>
        <time>2019-05-18T15:09:29Z</time>
      </trkpt>
      <trkpt lat="45.58779" lon="2.25727">
        <ele>732</ele>
        <time>2019-05-18T15:09:30Z</time>
      </trkpt>
      <trkpt lat="45.58781" lon="2.25727">
        <ele>733</ele>
        <time>2019-05-18T15:09:31Z</time>
      </trkpt>
      <trkpt lat="45.58783" lon="2.25728">
        <ele>733</ele>
        <time>2019-05-18T15:09:32Z</time>
      </trkpt>
      <trkpt lat="45.58785" lon="2.25727">
        <ele>733</ele>
        <time>2019-05-18T15:09:33Z</time>
      </trkpt>
      <trkpt lat="45.58787" lon="2.25727">
        <ele>733</ele>
        <time>2019-05-18T15:09:34Z</time>
      </trkpt>
      <trkpt lat="45.58789" lon="2.25727">
        <ele>733</ele>
        <time>2019-05-18T15:09:35Z</time>
      </trkpt>
      <trkpt lat="45.58791" lon="2.25726">
        <ele>733</ele>
        <time>2019-05-18T15:09:36Z</time>
      </trkpt>
      <trkpt lat="45.58793" lon="2.25726">
        <ele>733</ele>
        <time>2019-05-18T15:09:37Z</time>
      </trkpt>
      <trkpt lat="45.58794" lon="2.25725">
        <ele>734</ele>
        <time>2019-05-18T15:09:38Z</time>
      </trkpt>
      <trkpt lat="45.58796" lon="2.25725">
        <ele>734</ele>
        <time>2019-05-18T15:09:39Z</time>
      </trkpt>
      <trkpt lat="45.58797" lon="2.25724">
        <ele>734</ele>
        <time>2019-05-18T15:09:40Z</time>
      </trkpt>
      <trkpt lat="45.58799" lon="2.25723">
        <ele>734</ele>
        <time>2019-05-18T15:09:41Z</time>
      </trkpt>
      <trkpt lat="45.588" lon="2.25722">
        <ele>734</ele>
        <time>2019-05-18T15:09:42Z</time>
      </trkpt>
      <trkpt lat="45.58802" lon="2.2572">
        <ele>735</ele>
        <time>2019-05-18T15:09:43Z</time>
      </trkpt>
      <trkpt lat="45.58803" lon="2.25719">
        <ele>735</ele>
        <time>2019-05-18T15:09:44Z</time>
      </trkpt>
      <trkpt lat="45.58805" lon="2.25718">
        <ele>735</ele>
        <time>2019-05-18T15:09:45Z</time>
      </trkpt>
      <trkpt lat="45.58806" lon="2.25718">
        <ele>735</ele>
        <time>2019-05-18T15:09:46Z</time>
      </trkpt>
      <trkpt lat="45.58808" lon="2.25717">
        <ele>735</ele>
        <time>2019-05-18T15:09:47Z</time>
      </trkpt>
      <trkpt lat="45.58809" lon="2.25716">
        <ele>735</ele>
        <time>2019-05-18T15:09:48Z</time>
      </trkpt>
      <trkpt lat="45.5881" lon="2.25715">
        <ele>736</ele>
        <time>2019-05-18T15:09:49Z</time>
      </trkpt>
      <trkpt lat="45.58812" lon="2.25714">
        <ele>736</ele>
        <time>2019-05-18T15:09:50Z</time>
      </trkpt>
      <trkpt lat="45.58813" lon="2.25714">
        <ele>736</ele>
        <time>2019-05-18T15:09:51Z</time>
      </trkpt>
      <trkpt lat="45.58814" lon="2.25714">
        <ele>736</ele>
        <time>2019-05-18T15:09:52Z</time>
      </trkpt>
      <trkpt lat="45.58815" lon="2.25714">
        <ele>736</ele>
        <time>2019-05-18T15:09:53Z</time>
      </trkpt>
      <trkpt lat="45.58816" lon="2.25714">
        <ele>736</ele>
        <time>2019-05-18T15:09:54Z</time>
      </trkpt>
      <trkpt lat="45.58817" lon="2.25714">
        <ele>736</ele>
        <time>2019-05-18T15:09:55Z</time>
      </trkpt>
      <trkpt lat="45.58819" lon="2.25714">
        <ele>736</ele>
        <time>2019-05-18T15:09:56Z</time>
      </trkpt>
      <trkpt lat="45.58821" lon="2.25713">
        <ele>737</ele>
        <time>2019-05-18T15:09:57Z</time>
      </trkpt>
      <trkpt lat="45.58822" lon="2.25713">
        <ele>737</ele>
        <time>2019-05-18T15:09:58Z</time>
      </trkpt>
      <trkpt lat="45.58824" lon="2.25713">
        <ele>737</ele>
        <time>2019-05-18T15:09:59Z</time>
      </trkpt>
      <trkpt lat="45.58826" lon="2.25712">
        <ele>737</ele>
        <time>2019-05-18T15:10:00Z</time>
      </trkpt>
      <trkpt lat="45.58827" lon="2.25712">
        <ele>737</ele>
        <time>2019-05-18T15:10:01Z</time>
      </trkpt>
      <trkpt lat="45.58828" lon="2.25712">
        <ele>737</ele>
        <time>2019-05-18T15:10:02Z</time>
      </trkpt>
      <trkpt lat="45.58829" lon="2.25712">
        <ele>737</ele>
        <time>2019-05-18T15:10:03Z</time>
      </trkpt>
      <trkpt lat="45.58831" lon="2.25712">
        <ele>737</ele>
        <time>2019-05-18T15:10:04Z</time>
      </trkpt>
      <trkpt lat="45.58832" lon="2.25711">
        <ele>738</ele>
        <time>2019-05-18T15:10:05Z</time>
      </trkpt>
      <trkpt lat="45.58834" lon="2.2571">
        <ele>738</ele>
        <time>2019-05-18T15:10:06Z</time>
      </trkpt>
      <trkpt lat="45.58836" lon="2.2571">
        <ele>738</ele>
        <time>2019-05-18T15:10:07Z</time>
      </trkpt>
      <trkpt lat="45.58837" lon="2.25709">
        <ele>738</ele>
        <time>2019-05-18T15:10:08Z</time>
      </trkpt>
      <trkpt lat="45.58839" lon="2.25709">
        <ele>738</ele>
        <time>2019-05-18T15:10:09Z</time>
      </trkpt>
      <trkpt lat="45.5884" lon="2.25708">
        <ele>738</ele>
        <time>2019-05-18T15:10:10Z</time>
      </trkpt>
      <trkpt lat="45.58842" lon="2.25707">
        <ele>739</ele>
        <time>2019-05-18T15:10:11Z</time>
      </trkpt>
      <trkpt lat="45.58844" lon="2.25707">
        <ele>739</ele>
        <time>2019-05-18T15:10:12Z</time>
      </trkpt>
      <trkpt lat="45.58846" lon="2.25706">
        <ele>739</ele>
        <time>2019-05-18T15:10:13Z</time>
      </trkpt>
      <trkpt lat="45.58848" lon="2.25705">
        <ele>739</ele>
        <time>2019-05-18T15:10:14Z</time>
      </trkpt>
      <trkpt lat="45.5885" lon="2.25704">
        <ele>739</ele>
        <time>2019-05-18T15:10:15Z</time>
      </trkpt>
      <trkpt lat="45.58852" lon="2.25704">
        <ele>739</ele>
        <time>2019-05-18T15:10:16Z</time>
      </trkpt>
      <trkpt lat="45.58854" lon="2.25704">
        <ele>739</ele>
        <time>2019-05-18T15:10:17Z</time>
      </trkpt>
      <trkpt lat="45.58856" lon="2.25703">
        <ele>740</ele>
        <time>2019-05-18T15:10:18Z</time>
      </trkpt>
      <trkpt lat="45.58857" lon="2.25702">
        <ele>740</ele>
        <time>2019-05-18T15:10:19Z</time>
      </trkpt>
      <trkpt lat="45.58859" lon="2.25701">
        <ele>740</ele>
        <time>2019-05-18T15:10:20Z</time>
      </trkpt>
      <trkpt lat="45.58861" lon="2.25699">
        <ele>740</ele>
        <time>2019-05-18T15:10:21Z</time>
      </trkpt>
      <trkpt lat="45.58863" lon="2.25698">
        <ele>740</ele>
        <time>2019-05-18T15:10:22Z</time>
      </trkpt>
      <trkpt lat="45.58865" lon="2.25697">
        <ele>740</ele>
        <time>2019-05-18T15:10:23Z</time>
      </trkpt>
      <trkpt lat="45.58866" lon="2.25696">
        <ele>740</ele>
        <time>2019-05-18T15:10:24Z</time>
      </trkpt>
      <trkpt lat="45.58868" lon="2.25694">
        <ele>741</ele>
        <time>2019-05-18T15:10:25Z</time>
      </trkpt>
      <trkpt lat="45.5887" lon="2.25693">
        <ele>741</ele>
        <time>2019-05-18T15:10:26Z</time>
      </trkpt>
      <trkpt lat="45.58872" lon="2.25692">
        <ele>741</ele>
        <time>2019-05-18T15:10:27Z</time>
      </trkpt>
      <trkpt lat="45.58874" lon="2.25691">
        <ele>741</ele>
        <time>2019-05-18T15:10:28Z</time>
      </trkpt>
      <trkpt lat="45.58876" lon="2.25691">
        <ele>741</ele>
        <time>2019-05-18T15:10:29Z</time>
      </trkpt>
      <trkpt lat="45.58878" lon="2.2569">
        <ele>742</ele>
        <time>2019-05-18T15:10:30Z</time>
      </trkpt>
      <trkpt lat="45.5888" lon="2.25689">
        <ele>742</ele>
        <time>2019-05-18T15:10:31Z</time>
      </trkpt>
      <trkpt lat="45.58882" lon="2.25688">
        <ele>742</ele>
        <time>2019-05-18T15:10:32Z</time>
      </trkpt>
      <trkpt lat="45.58883" lon="2.25687">
        <ele>742</ele>
        <time>2019-05-18T15:10:33Z</time>
      </trkpt>
      <trkpt lat="45.58885" lon="2.25686">
        <ele>743</ele>
        <time>2019-05-18T15:10:34Z</time>
      </trkpt>
      <trkpt lat="45.58887" lon="2.25685">
        <ele>743</ele>
        <time>2019-05-18T15:10:35Z</time>
      </trkpt>
      <trkpt lat="45.58888" lon="2.25684">
        <ele>743</ele>
        <time>2019-05-18T15:10:36Z</time>
      </trkpt>
      <trkpt lat="45.5889" lon="2.25682">
        <ele>743</ele>
        <time>2019-05-18T15:10:37Z</time>
      </trkpt>
      <trkpt lat="45.58892" lon="2.25681">
        <ele>743</ele>
        <time>2019-05-18T15:10:38Z</time>
      </trkpt>
      <trkpt lat="45.58893" lon="2.2568">
        <ele>744</ele>
        <time>2019-05-18T15:10:39Z</time>
      </trkpt>
      <trkpt lat="45.58895" lon="2.25679">
        <ele>744</ele>
        <time>2019-05-18T15:10:40Z</time>
      </trkpt>
      <trkpt lat="45.58897" lon="2.25678">
        <ele>744</ele>
        <time>2019-05-18T15:10:41Z</time>
      </trkpt>
      <trkpt lat="45.58898" lon="2.25677">
        <ele>744</ele>
        <time>2019-05-18T15:10:42Z</time>
      </trkpt>
      <trkpt lat="45.589" lon="2.25676">
        <ele>744</ele>
        <time>2019-05-18T15:10:43Z</time>
      </trkpt>
      <trkpt lat="45.58901" lon="2.25675">
        <ele>745</ele>
        <time>2019-05-18T15:10:44Z</time>
      </trkpt>
      <trkpt lat="45.58903" lon="2.25674">
        <ele>745</ele>
        <time>2019-05-18T15:10:45Z</time>
      </trkpt>
      <trkpt lat="45.58904" lon="2.25672">
        <ele>745</ele>
        <time>2019-05-18T15:10:46Z</time>
      </trkpt>
      <trkpt lat="45.58906" lon="2.25671">
        <ele>745</ele>
        <time>2019-05-18T15:10:47Z</time>
      </trkpt>
      <trkpt lat="45.58907" lon="2.2567">
        <ele>745</ele>
        <time>2019-05-18T15:10:48Z</time>
      </trkpt>
      <trkpt lat="45.58909" lon="2.25669">
        <ele>745</ele>
        <time>2019-05-18T15:10:49Z</time>
      </trkpt>
      <trkpt lat="45.5891" lon="2.25668">
        <ele>746</ele>
        <time>2019-05-18T15:10:50Z</time>
      </trkpt>
      <trkpt lat="45.58912" lon="2.25667">
        <ele>746</ele>
        <time>2019-05-18T15:10:51Z</time>
      </trkpt>
      <trkpt lat="45.58913" lon="2.25666">
        <ele>746</ele>
        <time>2019-05-18T15:10:52Z</time>
      </trkpt>
      <trkpt lat="45.58914" lon="2.25665">
        <ele>746</ele>
        <time>2019-05-18T15:10:53Z</time>
      </trkpt>
      <trkpt lat="45.58916" lon="2.25665">
        <ele>747</ele>
        <time>2019-05-18T15:10:54Z</time>
      </trkpt>
      <trkpt lat="45.58918" lon="2.25663">
        <ele>747</ele>
        <time>2019-05-18T15:10:55Z</time>
      </trkpt>
      <trkpt lat="45.58919" lon="2.25662">
        <ele>747</ele>
        <time>2019-05-18T15:10:56Z</time>
      </trkpt>
      <trkpt lat="45.5892" lon="2.2566">
        <ele>747</ele>
        <time>2019-05-18T15:10:57Z</time>
      </trkpt>
      <trkpt lat="45.58922" lon="2.2566">
        <ele>747</ele>
        <time>2019-05-18T15:10:58Z</time>
      </trkpt>
      <trkpt lat="45.58923" lon="2.25659">
        <ele>748</ele>
        <time>2019-05-18T15:10:59Z</time>
      </trkpt>
      <trkpt lat="45.58925" lon="2.25657">
        <ele>748</ele>
        <time>2019-05-18T15:11:00Z</time>
      </trkpt>
      <trkpt lat="45.58926" lon="2.25656">
        <ele>748</ele>
        <time>2019-05-18T15:11:01Z</time>
      </trkpt>
      <trkpt lat="45.58928" lon="2.25655">
        <ele>748</ele>
        <time>2019-05-18T15:11:02Z</time>
      </trkpt>
      <trkpt lat="45.58929" lon="2.25654">
        <ele>748</ele>
        <time>2019-05-18T15:11:03Z</time>
      </trkpt>
      <trkpt lat="45.58931" lon="2.25653">
        <ele>749</ele>
        <time>2019-05-18T15:11:04Z</time>
      </trkpt>
      <trkpt lat="45.58932" lon="2.25651">
        <ele>749</ele>
        <time>2019-05-18T15:11:05Z</time>
      </trkpt>
      <trkpt lat="45.58934" lon="2.2565">
        <ele>749</ele>
        <time>2019-05-18T15:11:06Z</time>
      </trkpt>
      <trkpt lat="45.58935" lon="2.25649">
        <ele>749</ele>
        <time>2019-05-18T15:11:07Z</time>
      </trkpt>
      <trkpt lat="45.58936" lon="2.25648">
        <ele>749</ele>
        <time>2019-05-18T15:11:08Z</time>
      </trkpt>
      <trkpt lat="45.58938" lon="2.25647">
        <ele>750</ele>
        <time>2019-05-18T15:11:09Z</time>
      </trkpt>
      <trkpt lat="45.58939" lon="2.25646">
        <ele>750</ele>
        <time>2019-05-18T15:11:10Z</time>
      </trkpt>
      <trkpt lat="45.5894" lon="2.25644">
        <ele>750</ele>
        <time>2019-05-18T15:11:11Z</time>
      </trkpt>
      <trkpt lat="45.58941" lon="2.25643">
        <ele>750</ele>
        <time>2019-05-18T15:11:12Z</time>
      </trkpt>
      <trkpt lat="45.58942" lon="2.25641">
        <ele>750</ele>
        <time>2019-05-18T15:11:13Z</time>
      </trkpt>
      <trkpt lat="45.58944" lon="2.25639">
        <ele>750</ele>
        <time>2019-05-18T15:11:14Z</time>
      </trkpt>
      <trkpt lat="45.58945" lon="2.25637">
        <ele>751</ele>
        <time>2019-05-18T15:11:15Z</time>
      </trkpt>
      <trkpt lat="45.58946" lon="2.25636">
        <ele>751</ele>
        <time>2019-05-18T15:11:16Z</time>
      </trkpt>
      <trkpt lat="45.58947" lon="2.25634">
        <ele>751</ele>
        <time>2019-05-18T15:11:17Z</time>
      </trkpt>
      <trkpt lat="45.58949" lon="2.25633">
        <ele>751</ele>
        <time>2019-05-18T15:11:18Z</time>
      </trkpt>
      <trkpt lat="45.5895" lon="2.25632">
        <ele>751</ele>
        <time>2019-05-18T15:11:19Z</time>
      </trkpt>
      <trkpt lat="45.58951" lon="2.25632">
        <ele>752</ele>
        <time>2019-05-18T15:11:20Z</time>
      </trkpt>
      <trkpt lat="45.58952" lon="2.2563">
        <ele>752</ele>
        <time>2019-05-18T15:11:21Z</time>
      </trkpt>
      <trkpt lat="45.58954" lon="2.25629">
        <ele>752</ele>
        <time>2019-05-18T15:11:22Z</time>
      </trkpt>
      <trkpt lat="45.58955" lon="2.25627">
        <ele>752</ele>
        <time>2019-05-18T15:11:23Z</time>
      </trkpt>
      <trkpt lat="45.58956" lon="2.25626">
        <ele>752</ele>
        <time>2019-05-18T15:11:24Z</time>
      </trkpt>
      <trkpt lat="45.58957" lon="2.25625">
        <ele>752</ele>
        <time>2019-05-18T15:11:25Z</time>
      </trkpt>
      <trkpt lat="45.58959" lon="2.25623">
        <ele>753</ele>
        <time>2019-05-18T15:11:26Z</time>
      </trkpt>
      <trkpt lat="45.5896" lon="2.25622">
        <ele>753</ele>
        <time>2019-05-18T15:11:27Z</time>
      </trkpt>
      <trkpt lat="45.58961" lon="2.2562">
        <ele>753</ele>
        <time>2019-05-18T15:11:28Z</time>
      </trkpt>
      <trkpt lat="45.58962" lon="2.25618">
        <ele>753</ele>
        <time>2019-05-18T15:11:29Z</time>
      </trkpt>
      <trkpt lat="45.58963" lon="2.25617">
        <ele>753</ele>
        <time>2019-05-18T15:11:30Z</time>
      </trkpt>
      <trkpt lat="45.58965" lon="2.25615">
        <ele>754</ele>
        <time>2019-05-18T15:11:31Z</time>
      </trkpt>
      <trkpt lat="45.58966" lon="2.25614">
        <ele>754</ele>
        <time>2019-05-18T15:11:32Z</time>
      </trkpt>
      <trkpt lat="45.58967" lon="2.25613">
        <ele>754</ele>
        <time>2019-05-18T15:11:33Z</time>
      </trkpt>
      <trkpt lat="45.58969" lon="2.25612">
        <ele>754</ele>
        <time>2019-05-18T15:11:34Z</time>
      </trkpt>
      <trkpt lat="45.5897" lon="2.25611">
        <ele>754</ele>
        <time>2019-05-18T15:11:35Z</time>
      </trkpt>
      <trkpt lat="45.58971" lon="2.25609">
        <ele>754</ele>
        <time>2019-05-18T15:11:36Z</time>
      </trkpt>
      <trkpt lat="45.58973" lon="2.25608">
        <ele>754</ele>
        <time>2019-05-18T15:11:37Z</time>
      </trkpt>
      <trkpt lat="45.58974" lon="2.25606">
        <ele>755</ele>
        <time>2019-05-18T15:11:38Z</time>
      </trkpt>
      <trkpt lat="45.58975" lon="2.25604">
        <ele>755</ele>
        <time>2019-05-18T15:11:39Z</time>
      </trkpt>
      <trkpt lat="45.58976" lon="2.25602">
        <ele>755</ele>
        <time>2019-05-18T15:11:40Z</time>
      </trkpt>
      <trkpt lat="45.58978" lon="2.25601">
        <ele>755</ele>
        <time>2019-05-18T15:11:41Z</time>
      </trkpt>
      <trkpt lat="45.58979" lon="2.256">
        <ele>755</ele>
        <time>2019-05-18T15:11:42Z</time>
      </trkpt>
      <trkpt lat="45.58981" lon="2.25598">
        <ele>756</ele>
        <time>2019-05-18T15:11:43Z</time>
      </trkpt>
      <trkpt lat="45.58982" lon="2.25596">
        <ele>756</ele>
        <time>2019-05-18T15:11:44Z</time>
      </trkpt>
      <trkpt lat="45.58984" lon="2.25595">
        <ele>756</ele>
        <time>2019-05-18T15:11:45Z</time>
      </trkpt>
      <trkpt lat="45.58985" lon="2.25594">
        <ele>756</ele>
        <time>2019-05-18T15:11:46Z</time>
      </trkpt>
      <trkpt lat="45.58987" lon="2.25592">
        <ele>756</ele>
        <time>2019-05-18T15:11:47Z</time>
      </trkpt>
      <trkpt lat="45.58988" lon="2.2559">
        <ele>756</ele>
        <time>2019-05-18T15:11:48Z</time>
      </trkpt>
      <trkpt lat="45.58989" lon="2.25588">
        <ele>757</ele>
        <time>2019-05-18T15:11:49Z</time>
      </trkpt>
      <trkpt lat="45.5899" lon="2.25586">
        <ele>757</ele>
        <time>2019-05-18T15:11:50Z</time>
      </trkpt>
      <trkpt lat="45.58992" lon="2.25585">
        <ele>757</ele>
        <time>2019-05-18T15:11:51Z</time>
      </trkpt>
      <trkpt lat="45.58993" lon="2.25583">
        <ele>757</ele>
        <time>2019-05-18T15:11:52Z</time>
      </trkpt>
      <trkpt lat="45.58994" lon="2.25582">
        <ele>757</ele>
        <time>2019-05-18T15:11:53Z</time>
      </trkpt>
      <trkpt lat="45.58995" lon="2.25581">
        <ele>757</ele>
        <time>2019-05-18T15:11:54Z</time>
      </trkpt>
      <trkpt lat="45.58996" lon="2.25579">
        <ele>757</ele>
        <time>2019-05-18T15:11:55Z</time>
      </trkpt>
      <trkpt lat="45.58998" lon="2.25578">
        <ele>758</ele>
        <time>2019-05-18T15:11:56Z</time>
      </trkpt>
      <trkpt lat="45.58999" lon="2.25577">
        <ele>758</ele>
        <time>2019-05-18T15:11:57Z</time>
      </trkpt>
      <trkpt lat="45.59" lon="2.25575">
        <ele>758</ele>
        <time>2019-05-18T15:11:58Z</time>
      </trkpt>
      <trkpt lat="45.59002" lon="2.25574">
        <ele>758</ele>
        <time>2019-05-18T15:11:59Z</time>
      </trkpt>
      <trkpt lat="45.59003" lon="2.25572">
        <ele>758</ele>
        <time>2019-05-18T15:12:00Z</time>
      </trkpt>
      <trkpt lat="45.59005" lon="2.2557">
        <ele>758</ele>
        <time>2019-05-18T15:12:01Z</time>
      </trkpt>
      <trkpt lat="45.59006" lon="2.25569">
        <ele>759</ele>
        <time>2019-05-18T15:12:02Z</time>
      </trkpt>
      <trkpt lat="45.59007" lon="2.25567">
        <ele>759</ele>
        <time>2019-05-18T15:12:03Z</time>
      </trkpt>
      <trkpt lat="45.59008" lon="2.25566">
        <ele>759</ele>
        <time>2019-05-18T15:12:04Z</time>
      </trkpt>
      <trkpt lat="45.5901" lon="2.25564">
        <ele>759</ele>
        <time>2019-05-18T15:12:05Z</time>
      </trkpt>
      <trkpt lat="45.59011" lon="2.25563">
        <ele>759</ele>
        <time>2019-05-18T15:12:06Z</time>
      </trkpt>
      <trkpt lat="45.59012" lon="2.25561">
        <ele>759</ele>
        <time>2019-05-18T15:12:07Z</time>
      </trkpt>
      <trkpt lat="45.59014" lon="2.2556">
        <ele>759</ele>
        <time>2019-05-18T15:12:08Z</time>
      </trkpt>
      <trkpt lat="45.59015" lon="2.25558">
        <ele>759</ele>
        <time>2019-05-18T15:12:09Z</time>
      </trkpt>
      <trkpt lat="45.59017" lon="2.25557">
        <ele>760</ele>
        <time>2019-05-18T15:12:10Z</time>
      </trkpt>
      <trkpt lat="45.59018" lon="2.25555">
        <ele>760</ele>
        <time>2019-05-18T15:12:11Z</time>
      </trkpt>
      <trkpt lat="45.59019" lon="2.25554">
        <ele>760</ele>
        <time>2019-05-18T15:12:12Z</time>
      </trkpt>
      <trkpt lat="45.5902" lon="2.25552">
        <ele>760</ele>
        <time>2019-05-18T15:12:13Z</time>
      </trkpt>
      <trkpt lat="45.59021" lon="2.2555">
        <ele>760</ele>
        <time>2019-05-18T15:12:14Z</time>
      </trkpt>
      <trkpt lat="45.59023" lon="2.25549">
        <ele>760</ele>
        <time>2019-05-18T15:12:15Z</time>
      </trkpt>
      <trkpt lat="45.59025" lon="2.25547">
        <ele>760</ele>
        <time>2019-05-18T15:12:16Z</time>
      </trkpt>
      <trkpt lat="45.59026" lon="2.25546">
        <ele>760</ele>
        <time>2019-05-18T15:12:17Z</time>
      </trkpt>
      <trkpt lat="45.59027" lon="2.25544">
        <ele>760</ele>
        <time>2019-05-18T15:12:18Z</time>
      </trkpt>
      <trkpt lat="45.59029" lon="2.25543">
        <ele>760</ele>
        <time>2019-05-18T15:12:19Z</time>
      </trkpt>
      <trkpt lat="45.5903" lon="2.25541">
        <ele>760</ele>
        <time>2019-05-18T15:12:20Z</time>
      </trkpt>
      <trkpt lat="45.59032" lon="2.2554">
        <ele>760</ele>
        <time>2019-05-18T15:12:21Z</time>
      </trkpt>
      <trkpt lat="45.59034" lon="2.25539">
        <ele>760</ele>
        <time>2019-05-18T15:12:22Z</time>
      </trkpt>
      <trkpt lat="45.59035" lon="2.25538">
        <ele>760</ele>
        <time>2019-05-18T15:12:23Z</time>
      </trkpt>
      <trkpt lat="45.59037" lon="2.25536">
        <ele>760</ele>
        <time>2019-05-18T15:12:24Z</time>
      </trkpt>
      <trkpt lat="45.59038" lon="2.25535">
        <ele>760</ele>
        <time>2019-05-18T15:12:25Z</time>
      </trkpt>
      <trkpt lat="45.5904" lon="2.25534">
        <ele>761</ele>
        <time>2019-05-18T15:12:26Z</time>
      </trkpt>
      <trkpt lat="45.5904" lon="2.25533">
        <ele>761</ele>
        <time>2019-05-18T15:12:27Z</time>
      </trkpt>
      <trkpt lat="45.59041" lon="2.25532">
        <ele>761</ele>
        <time>2019-05-18T15:12:28Z</time>
      </trkpt>
      <trkpt lat="45.59042" lon="2.25531">
        <ele>761</ele>
        <time>2019-05-18T15:12:29Z</time>
      </trkpt>
      <trkpt lat="45.59043" lon="2.2553">
        <ele>761</ele>
        <time>2019-05-18T15:12:30Z</time>
      </trkpt>
      <trkpt lat="45.59043" lon="2.25529">
        <ele>761</ele>
        <time>2019-05-18T15:12:31Z</time>
      </trkpt>
      <trkpt lat="45.59044" lon="2.25529">
        <ele>761</ele>
        <time>2019-05-18T15:12:32Z</time>
      </trkpt>
      <trkpt lat="45.59044" lon="2.25529">
        <ele>761</ele>
        <time>2019-05-18T15:12:33Z</time>
      </trkpt>
      <trkpt lat="45.59044" lon="2.25528">
        <ele>760</ele>
        <time>2019-05-18T15:12:34Z</time>
      </trkpt>
      <trkpt lat="45.59044" lon="2.25528">
        <ele>763</ele>
        <time>2019-05-18T15:12:35Z</time>
      </trkpt>
      <trkpt lat="45.59044" lon="2.25528">
        <ele>758</ele>
        <time>2019-05-18T15:12:36Z</time>
      </trkpt>
      <trkpt lat="45.59044" lon="2.25528">
        <ele>760</ele>
        <time>2019-05-18T15:12:37Z</time>
      </trkpt>
      <trkpt lat="45.59044" lon="2.25528">
        <ele>760</ele>
        <time>2019-05-18T15:12:38Z</time>
      </trkpt>
      <trkpt lat="45.59041" lon="2.25509">
        <ele>759</ele>
        <time>2019-05-18T15:16:16Z</time>
      </trkpt>
      <trkpt lat="45.59041" lon="2.25506">
        <ele>759</ele>
        <time>2019-05-18T15:16:17Z</time>
      </trkpt>
      <trkpt lat="45.59041" lon="2.25503">
        <ele>759</ele>
        <time>2019-05-18T15:16:18Z</time>
      </trkpt>
      <trkpt lat="45.59041" lon="2.255">
        <ele>759</ele>
        <time>2019-05-18T15:16:19Z</time>
      </trkpt>
      <trkpt lat="45.59041" lon="2.25496">
        <ele>759</ele>
        <time>2019-05-18T15:16:20Z</time>
      </trkpt>
      <trkpt lat="45.59041" lon="2.25492">
        <ele>759</ele>
        <time>2019-05-18T15:16:21Z</time>
      </trkpt>
      <trkpt lat="45.59041" lon="2.25489">
        <ele>759</ele>
        <time>2019-05-18T15:16:22Z</time>
      </trkpt>
      <trkpt lat="45.59041" lon="2.25485">
        <ele>759</ele>
        <time>2019-05-18T15:16:23Z</time>
      </trkpt>
      <trkpt lat="45.59042" lon="2.25482">
        <ele>759</ele>
        <time>2019-05-18T15:16:24Z</time>
      </trkpt>
      <trkpt lat="45.59042" lon="2.2548">
        <ele>759</ele>
        <time>2019-05-18T15:16:25Z</time>
      </trkpt>
      <trkpt lat="45.59041" lon="2.25476">
        <ele>759</ele>
        <time>2019-05-18T15:16:26Z</time>
      </trkpt>
      <trkpt lat="45.59041" lon="2.25472">
        <ele>759</ele>
        <time>2019-05-18T15:16:27Z</time>
      </trkpt>
      <trkpt lat="45.59041" lon="2.25469">
        <ele>759</ele>
        <time>2019-05-18T15:16:28Z</time>
      </trkpt>
      <trkpt lat="45.59041" lon="2.25466">
        <ele>759</ele>
        <time>2019-05-18T15:16:29Z</time>
      </trkpt>
      <trkpt lat="45.59041" lon="2.25463">
        <ele>759</ele>
        <time>2019-05-18T15:16:30Z</time>
      </trkpt>
      <trkpt lat="45.5904" lon="2.25459">
        <ele>759</ele>
        <time>2019-05-18T15:16:31Z</time>
      </trkpt>
      <trkpt lat="45.59039" lon="2.25456">
        <ele>759</ele>
        <time>2019-05-18T15:16:32Z</time>
      </trkpt>
      <trkpt lat="45.59037" lon="2.25452">
        <ele>759</ele>
        <time>2019-05-18T15:16:33Z</time>
      </trkpt>
      <trkpt lat="45.59037" lon="2.25449">
        <ele>759</ele>
        <time>2019-05-18T15:16:34Z</time>
      </trkpt>
      <trkpt lat="45.59036" lon="2.25446">
        <ele>759</ele>
        <time>2019-05-18T15:16:35Z</time>
      </trkpt>
      <trkpt lat="45.59036" lon="2.25442">
        <ele>759</ele>
        <time>2019-05-18T15:16:36Z</time>
      </trkpt>
      <trkpt lat="45.59036" lon="2.25439">
        <ele>759</ele>
        <time>2019-05-18T15:16:37Z</time>
      </trkpt>
      <trkpt lat="45.59036" lon="2.25435">
        <ele>759</ele>
        <time>2019-05-18T15:16:38Z</time>
      </trkpt>
      <trkpt lat="45.59036" lon="2.25432">
        <ele>759</ele>
        <time>2019-05-18T15:16:39Z</time>
      </trkpt>
      <trkpt lat="45.59036" lon="2.25428">
        <ele>759</ele>
        <time>2019-05-18T15:16:40Z</time>
      </trkpt>
      <trkpt lat="45.59036" lon="2.25425">
        <ele>760</ele>
        <time>2019-05-18T15:16:41Z</time>
      </trkpt>
      <trkpt lat="45.59036" lon="2.25421">
        <ele>760</ele>
        <time>2019-05-18T15:16:42Z</time>
      </trkpt>
      <trkpt lat="45.59035" lon="2.25418">
        <ele>760</ele>
        <time>2019-05-18T15:16:43Z</time>
      </trkpt>
      <trkpt lat="45.59035" lon="2.25415">
        <ele>760</ele>
        <time>2019-05-18T15:16:44Z</time>
      </trkpt>
      <trkpt lat="45.59035" lon="2.25411">
        <ele>760</ele>
        <time>2019-05-18T15:16:45Z</time>
      </trkpt>
      <trkpt lat="45.59034" lon="2.25408">
        <ele>760</ele>
        <time>2019-05-18T15:16:46Z</time>
      </trkpt>
      <trkpt lat="45.59033" lon="2.25404">
        <ele>760</ele>
        <time>2019-05-18T15:16:47Z</time>
      </trkpt>
      <trkpt lat="45.59033" lon="2.25401">
        <ele>760</ele>
        <time>2019-05-18T15:16:48Z</time>
      </trkpt>
      <trkpt lat="45.59032" lon="2.25398">
        <ele>760</ele>
        <time>2019-05-18T15:16:49Z</time>
      </trkpt>
      <trkpt lat="45.5903" lon="2.25395">
        <ele>760</ele>
        <time>2019-05-18T15:16:50Z</time>
      </trkpt>
      <trkpt lat="45.59029" lon="2.25392">
        <ele>760</ele>
        <time>2019-05-18T15:16:51Z</time>
      </trkpt>
      <trkpt lat="45.59028" lon="2.25389">
        <ele>760</ele>
        <time>2019-05-18T15:16:52Z</time>
      </trkpt>
      <trkpt lat="45.59027" lon="2.25387">
        <ele>760</ele>
        <time>2019-05-18T15:16:53Z</time>
      </trkpt>
      <trkpt lat="45.59025" lon="2.25385">
        <ele>760</ele>
        <time>2019-05-18T15:16:54Z</time>
      </trkpt>
      <trkpt lat="45.59023" lon="2.25382">
        <ele>760</ele>
        <time>2019-05-18T15:16:55Z</time>
      </trkpt>
      <trkpt lat="45.59022" lon="2.2538">
        <ele>761</ele>
        <time>2019-05-18T15:16:56Z</time>
      </trkpt>
      <trkpt lat="45.5902" lon="2.25379">
        <ele>761</ele>
        <time>2019-05-18T15:16:57Z</time>
      </trkpt>
      <trkpt lat="45.59018" lon="2.25378">
        <ele>761</ele>
        <time>2019-05-18T15:16:58Z</time>
      </trkpt>
      <trkpt lat="45.59016" lon="2.25377">
        <ele>761</ele>
        <time>2019-05-18T15:16:59Z</time>
      </trkpt>
      <trkpt lat="45.59014" lon="2.25376">
        <ele>761</ele>
        <time>2019-05-18T15:17:00Z</time>
      </trkpt>
      <trkpt lat="45.59012" lon="2.25375">
        <ele>761</ele>
        <time>2019-05-18T15:17:01Z</time>
      </trkpt>
      <trkpt lat="45.5901" lon="2.25374">
        <ele>761</ele>
        <time>2019-05-18T15:17:02Z</time>
      </trkpt>
      <trkpt lat="45.59008" lon="2.25372">
        <ele>761</ele>
        <time>2019-05-18T15:17:03Z</time>
      </trkpt>
      <trkpt lat="45.59006" lon="2.25371">
        <ele>761</ele>
        <time>2019-05-18T15:17:04Z</time>
      </trkpt>
      <trkpt lat="45.59006" lon="2.25369">
        <ele>761</ele>
        <time>2019-05-18T15:17:05Z</time>
      </trkpt>
      <trkpt lat="45.59005" lon="2.25367">
        <ele>762</ele>
        <time>2019-05-18T15:17:06Z</time>
      </trkpt>
      <trkpt lat="45.59003" lon="2.25366">
        <ele>762</ele>
        <time>2019-05-18T15:17:07Z</time>
      </trkpt>
      <trkpt lat="45.59" lon="2.25365">
        <ele>762</ele>
        <time>2019-05-18T15:17:08Z</time>
      </trkpt>
      <trkpt lat="45.58997" lon="2.25363">
        <ele>762</ele>
        <time>2019-05-18T15:17:09Z</time>
      </trkpt>
      <trkpt lat="45.58995" lon="2.25362">
        <ele>762</ele>
        <time>2019-05-18T15:17:10Z</time>
      </trkpt>
      <trkpt lat="45.58993" lon="2.2536">
        <ele>762</ele>
        <time>2019-05-18T15:17:11Z</time>
      </trkpt>
      <trkpt lat="45.58991" lon="2.25359">
        <ele>762</ele>
        <time>2019-05-18T15:17:12Z</time>
      </trkpt>
      <trkpt lat="45.58989" lon="2.25358">
        <ele>762</ele>
        <time>2019-05-18T15:17:13Z</time>
      </trkpt>
      <trkpt lat="45.58987" lon="2.25358">
        <ele>763</ele>
        <time>2019-05-18T15:17:14Z</time>
      </trkpt>
      <trkpt lat="45.58985" lon="2.25357">
        <ele>763</ele>
        <time>2019-05-18T15:17:15Z</time>
      </trkpt>
      <trkpt lat="45.58983" lon="2.25356">
        <ele>763</ele>
        <time>2019-05-18T15:17:16Z</time>
      </trkpt>
      <trkpt lat="45.58981" lon="2.25356">
        <ele>763</ele>
        <time>2019-05-18T15:17:17Z</time>
      </trkpt>
      <trkpt lat="45.58979" lon="2.25355">
        <ele>763</ele>
        <time>2019-05-18T15:17:18Z</time>
      </trkpt>
      <trkpt lat="45.58977" lon="2.25355">
        <ele>763</ele>
        <time>2019-05-18T15:17:19Z</time>
      </trkpt>
      <trkpt lat="45.58975" lon="2.25353">
        <ele>763</ele>
        <time>2019-05-18T15:17:20Z</time>
      </trkpt>
      <trkpt lat="45.58973" lon="2.25353">
        <ele>763</ele>
        <time>2019-05-18T15:17:21Z</time>
      </trkpt>
      <trkpt lat="45.58971" lon="2.25353">
        <ele>763</ele>
        <time>2019-05-18T15:17:22Z</time>
      </trkpt>
      <trkpt lat="45.58969" lon="2.25352">
        <ele>764</ele>
        <time>2019-05-18T15:17:23Z</time>
      </trkpt>
      <trkpt lat="45.58967" lon="2.25351">
        <ele>764</ele>
        <time>2019-05-18T15:17:24Z</time>
      </trkpt>
      <trkpt lat="45.58965" lon="2.2535">
        <ele>764</ele>
        <time>2019-05-18T15:17:25Z</time>
      </trkpt>
      <trkpt lat="45.58963" lon="2.25349">
        <ele>764</ele>
        <time>2019-05-18T15:17:26Z</time>
      </trkpt>
      <trkpt lat="45.58961" lon="2.25348">
        <ele>764</ele>
        <time>2019-05-18T15:17:27Z</time>
      </trkpt>
      <trkpt lat="45.5896" lon="2.25347">
        <ele>764</ele>
        <time>2019-05-18T15:17:28Z</time>
      </trkpt>
      <trkpt lat="45.58958" lon="2.25345">
        <ele>764</ele>
        <time>2019-05-18T15:17:29Z</time>
      </trkpt>
      <trkpt lat="45.58956" lon="2.25343">
        <ele>765</ele>
        <time>2019-05-18T15:17:30Z</time>
      </trkpt>
      <trkpt lat="45.58954" lon="2.25342">
        <ele>765</ele>
        <time>2019-05-18T15:17:31Z</time>
      </trkpt>
      <trkpt lat="45.58953" lon="2.2534">
        <ele>765</ele>
        <time>2019-05-18T15:17:32Z</time>
      </trkpt>
      <trkpt lat="45.58951" lon="2.25338">
        <ele>765</ele>
        <time>2019-05-18T15:17:33Z</time>
      </trkpt>
      <trkpt lat="45.58949" lon="2.25336">
        <ele>765</ele>
        <time>2019-05-18T15:17:34Z</time>
      </trkpt>
      <trkpt lat="45.58947" lon="2.25334">
        <ele>765</ele>
        <time>2019-05-18T15:17:35Z</time>
      </trkpt>
      <trkpt lat="45.58946" lon="2.25332">
        <ele>766</ele>
        <time>2019-05-18T15:17:36Z</time>
      </trkpt>
      <trkpt lat="45.58944" lon="2.25331">
        <ele>766</ele>
        <time>2019-05-18T15:17:37Z</time>
      </trkpt>
      <trkpt lat="45.58943" lon="2.25328">
        <ele>766</ele>
        <time>2019-05-18T15:17:38Z</time>
      </trkpt>
      <trkpt lat="45.58941" lon="2.25326">
        <ele>766</ele>
        <time>2019-05-18T15:17:39Z</time>
      </trkpt>
      <trkpt lat="45.5894" lon="2.25325">
        <ele>766</ele>
        <time>2019-05-18T15:17:40Z</time>
      </trkpt>
      <trkpt lat="45.58939" lon="2.25323">
        <ele>766</ele>
        <time>2019-05-18T15:17:41Z</time>
      </trkpt>
      <trkpt lat="45.58937" lon="2.2532">
        <ele>766</ele>
        <time>2019-05-18T15:17:42Z</time>
      </trkpt>
      <trkpt lat="45.58936" lon="2.25318">
        <ele>766</ele>
        <time>2019-05-18T15:17:43Z</time>
      </trkpt>
      <trkpt lat="45.58935" lon="2.25316">
        <ele>766</ele>
        <time>2019-05-18T15:17:44Z</time>
      </trkpt>
      <trkpt lat="45.58933" lon="2.25314">
        <ele>767</ele>
        <time>2019-05-18T15:17:45Z</time>
      </trkpt>
      <trkpt lat="45.58932" lon="2.25311">
        <ele>767</ele>
        <time>2019-05-18T15:17:46Z</time>
      </trkpt>
      <trkpt lat="45.58932" lon="2.25308">
        <ele>767</ele>
        <time>2019-05-18T15:17:47Z</time>
      </trkpt>
      <trkpt lat="45.58931" lon="2.25307">
        <ele>767</ele>
        <time>2019-05-18T15:17:48Z</time>
      </trkpt>
      <trkpt lat="45.58931" lon="2.25304">
        <ele>767</ele>
        <time>2019-05-18T15:17:49Z</time>
      </trkpt>
      <trkpt lat="45.5893" lon="2.25302">
        <ele>767</ele>
        <time>2019-05-18T15:17:50Z</time>
      </trkpt>
      <trkpt lat="45.5893" lon="2.25299">
        <ele>767</ele>
        <time>2019-05-18T15:17:51Z</time>
      </trkpt>
      <trkpt lat="45.58929" lon="2.25297">
        <ele>767</ele>
        <time>2019-05-18T15:17:52Z</time>
      </trkpt>
      <trkpt lat="45.58929" lon="2.25294">
        <ele>767</ele>
        <time>2019-05-18T15:17:53Z</time>
      </trkpt>
      <trkpt lat="45.58928" lon="2.25291">
        <ele>768</ele>
        <time>2019-05-18T15:17:54Z</time>
      </trkpt>
      <trkpt lat="45.58929" lon="2.25289">
        <ele>768</ele>
        <time>2019-05-18T15:17:55Z</time>
      </trkpt>
      <trkpt lat="45.58929" lon="2.25287">
        <ele>768</ele>
        <time>2019-05-18T15:17:56Z</time>
      </trkpt>
      <trkpt lat="45.58929" lon="2.25285">
        <ele>768</ele>
        <time>2019-05-18T15:17:57Z</time>
      </trkpt>
      <trkpt lat="45.58929" lon="2.25283">
        <ele>768</ele>
        <time>2019-05-18T15:17:58Z</time>
      </trkpt>
      <trkpt lat="45.5893" lon="2.25281">
        <ele>768</ele>
        <time>2019-05-18T15:17:59Z</time>
      </trkpt>
      <trkpt lat="45.58929" lon="2.25278">
        <ele>768</ele>
        <time>2019-05-18T15:18:00Z</time>
      </trkpt>
      <trkpt lat="45.58929" lon="2.25275">
        <ele>769</ele>
        <time>2019-05-18T15:18:01Z</time>
      </trkpt>
      <trkpt lat="45.58929" lon="2.25273">
        <ele>769</ele>
        <time>2019-05-18T15:18:02Z</time>
      </trkpt>
      <trkpt lat="45.5893" lon="2.25271">
        <ele>769</ele>
        <time>2019-05-18T15:18:03Z</time>
      </trkpt>
      <trkpt lat="45.58931" lon="2.25268">
        <ele>769</ele>
        <time>2019-05-18T15:18:04Z</time>
      </trkpt>
      <trkpt lat="45.58931" lon="2.25265">
        <ele>769</ele>
        <time>2019-05-18T15:18:05Z</time>
      </trkpt>
      <trkpt lat="45.58931" lon="2.25263">
        <ele>769</ele>
        <time>2019-05-18T15:18:06Z</time>
      </trkpt>
      <trkpt lat="45.5893" lon="2.25259">
        <ele>769</ele>
        <time>2019-05-18T15:18:07Z</time>
      </trkpt>
      <trkpt lat="45.58931" lon="2.25256">
        <ele>770</ele>
        <time>2019-05-18T15:18:08Z</time>
      </trkpt>
      <trkpt lat="45.58931" lon="2.25253">
        <ele>770</ele>
        <time>2019-05-18T15:18:09Z</time>
      </trkpt>
      <trkpt lat="45.58931" lon="2.2525">
        <ele>770</ele>
        <time>2019-05-18T15:18:10Z</time>
      </trkpt>
      <trkpt lat="45.58932" lon="2.25247">
        <ele>770</ele>
        <time>2019-05-18T15:18:11Z</time>
      </trkpt>
      <trkpt lat="45.58932" lon="2.25245">
        <ele>770</ele>
        <time>2019-05-18T15:18:12Z</time>
      </trkpt>
      <trkpt lat="45.58933" lon="2.25242">
        <ele>770</ele>
        <time>2019-05-18T15:18:13Z</time>
      </trkpt>
      <trkpt lat="45.58934" lon="2.25239">
        <ele>770</ele>
        <time>2019-05-18T15:18:14Z</time>
      </trkpt>
      <trkpt lat="45.58934" lon="2.25236">
        <ele>771</ele>
        <time>2019-05-18T15:18:15Z</time>
      </trkpt>
      <trkpt lat="45.58935" lon="2.25234">
        <ele>771</ele>
        <time>2019-05-18T15:18:16Z</time>
      </trkpt>
      <trkpt lat="45.58936" lon="2.25231">
        <ele>771</ele>
        <time>2019-05-18T15:18:17Z</time>
      </trkpt>
      <trkpt lat="45.58936" lon="2.25228">
        <ele>771</ele>
        <time>2019-05-18T15:18:18Z</time>
      </trkpt>
      <trkpt lat="45.58938" lon="2.25224">
        <ele>771</ele>
        <time>2019-05-18T15:18:19Z</time>
      </trkpt>
      <trkpt lat="45.58939" lon="2.25221">
        <ele>771</ele>
        <time>2019-05-18T15:18:20Z</time>
      </trkpt>
      <trkpt lat="45.5894" lon="2.25218">
        <ele>771</ele>
        <time>2019-05-18T15:18:21Z</time>
      </trkpt>
      <trkpt lat="45.58941" lon="2.25216">
        <ele>772</ele>
        <time>2019-05-18T15:18:22Z</time>
      </trkpt>
      <trkpt lat="45.58942" lon="2.25213">
        <ele>772</ele>
        <time>2019-05-18T15:18:23Z</time>
      </trkpt>
      <trkpt lat="45.58944" lon="2.2521">
        <ele>772</ele>
        <time>2019-05-18T15:18:24Z</time>
      </trkpt>
      <trkpt lat="45.58945" lon="2.25208">
        <ele>772</ele>
        <time>2019-05-18T15:18:25Z</time>
      </trkpt>
      <trkpt lat="45.58947" lon="2.25207">
        <ele>772</ele>
        <time>2019-05-18T15:18:26Z</time>
      </trkpt>
      <trkpt lat="45.58949" lon="2.25205">
        <ele>772</ele>
        <time>2019-05-18T15:18:27Z</time>
      </trkpt>
      <trkpt lat="45.58951" lon="2.25203">
        <ele>773</ele>
        <time>2019-05-18T15:18:28Z</time>
      </trkpt>
      <trkpt lat="45.58952" lon="2.252">
        <ele>773</ele>
        <time>2019-05-18T15:18:29Z</time>
      </trkpt>
      <trkpt lat="45.58953" lon="2.25198">
        <ele>773</ele>
        <time>2019-05-18T15:18:30Z</time>
      </trkpt>
      <trkpt lat="45.58955" lon="2.25197">
        <ele>773</ele>
        <time>2019-05-18T15:18:31Z</time>
      </trkpt>
      <trkpt lat="45.58957" lon="2.25195">
        <ele>773</ele>
        <time>2019-05-18T15:18:32Z</time>
      </trkpt>
      <trkpt lat="45.58958" lon="2.25193">
        <ele>773</ele>
        <time>2019-05-18T15:18:33Z</time>
      </trkpt>
      <trkpt lat="45.5896" lon="2.25191">
        <ele>773</ele>
        <time>2019-05-18T15:18:34Z</time>
      </trkpt>
      <trkpt lat="45.58961" lon="2.25189">
        <ele>774</ele>
        <time>2019-05-18T15:18:35Z</time>
      </trkpt>
      <trkpt lat="45.58963" lon="2.25187">
        <ele>774</ele>
        <time>2019-05-18T15:18:36Z</time>
      </trkpt>
      <trkpt lat="45.58964" lon="2.25185">
        <ele>774</ele>
        <time>2019-05-18T15:18:37Z</time>
      </trkpt>
      <trkpt lat="45.58966" lon="2.25184">
        <ele>774</ele>
        <time>2019-05-18T15:18:38Z</time>
      </trkpt>
      <trkpt lat="45.58967" lon="2.25182">
        <ele>774</ele>
        <time>2019-05-18T15:18:39Z</time>
      </trkpt>
      <trkpt lat="45.58969" lon="2.25181">
        <ele>774</ele>
        <time>2019-05-18T15:18:40Z</time>
      </trkpt>
      <trkpt lat="45.5897" lon="2.25179">
        <ele>775</ele>
        <time>2019-05-18T15:18:41Z</time>
      </trkpt>
      <trkpt lat="45.58972" lon="2.25177">
        <ele>775</ele>
        <time>2019-05-18T15:18:42Z</time>
      </trkpt>
      <trkpt lat="45.58973" lon="2.25175">
        <ele>775</ele>
        <time>2019-05-18T15:18:43Z</time>
      </trkpt>
      <trkpt lat="45.58975" lon="2.25174">
        <ele>775</ele>
        <time>2019-05-18T15:18:44Z</time>
      </trkpt>
      <trkpt lat="45.58977" lon="2.25172">
        <ele>775</ele>
        <time>2019-05-18T15:18:45Z</time>
      </trkpt>
      <trkpt lat="45.58979" lon="2.2517">
        <ele>775</ele>
        <time>2019-05-18T15:18:46Z</time>
      </trkpt>
      <trkpt lat="45.5898" lon="2.25168">
        <ele>775</ele>
        <time>2019-05-18T15:18:47Z</time>
      </trkpt>
      <trkpt lat="45.58982" lon="2.25166">
        <ele>775</ele>
        <time>2019-05-18T15:18:48Z</time>
      </trkpt>
      <trkpt lat="45.58984" lon="2.25165">
        <ele>775</ele>
        <time>2019-05-18T15:18:49Z</time>
      </trkpt>
      <trkpt lat="45.58986" lon="2.25163">
        <ele>776</ele>
        <time>2019-05-18T15:18:50Z</time>
      </trkpt>
      <trkpt lat="45.58987" lon="2.25161">
        <ele>776</ele>
        <time>2019-05-18T15:18:51Z</time>
      </trkpt>
      <trkpt lat="45.58988" lon="2.25159">
        <ele>776</ele>
        <time>2019-05-18T15:18:52Z</time>
      </trkpt>
      <trkpt lat="45.5899" lon="2.25157">
        <ele>776</ele>
        <time>2019-05-18T15:18:53Z</time>
      </trkpt>
      <trkpt lat="45.58991" lon="2.25155">
        <ele>776</ele>
        <time>2019-05-18T15:18:54Z</time>
      </trkpt>
      <trkpt lat="45.58993" lon="2.25154">
        <ele>776</ele>
        <time>2019-05-18T15:18:55Z</time>
      </trkpt>
      <trkpt lat="45.58995" lon="2.25152">
        <ele>776</ele>
        <time>2019-05-18T15:18:56Z</time>
      </trkpt>
      <trkpt lat="45.58996" lon="2.25149">
        <ele>776</ele>
        <time>2019-05-18T15:18:57Z</time>
      </trkpt>
      <trkpt lat="45.58998" lon="2.25147">
        <ele>776</ele>
        <time>2019-05-18T15:18:58Z</time>
      </trkpt>
      <trkpt lat="45.59" lon="2.25145">
        <ele>776</ele>
        <time>2019-05-18T15:18:59Z</time>
      </trkpt>
      <trkpt lat="45.59002" lon="2.25143">
        <ele>776</ele>
        <time>2019-05-18T15:19:00Z</time>
      </trkpt>
      <trkpt lat="45.59004" lon="2.25141">
        <ele>776</ele>
        <time>2019-05-18T15:19:01Z</time>
      </trkpt>
      <trkpt lat="45.59006" lon="2.25139">
        <ele>776</ele>
        <time>2019-05-18T15:19:02Z</time>
      </trkpt>
      <trkpt lat="45.59008" lon="2.25136">
        <ele>776</ele>
        <time>2019-05-18T15:19:03Z</time>
      </trkpt>
      <trkpt lat="45.5901" lon="2.25134">
        <ele>776</ele>
        <time>2019-05-18T15:19:04Z</time>
      </trkpt>
      <trkpt lat="45.59012" lon="2.25131">
        <ele>776</ele>
        <time>2019-05-18T15:19:05Z</time>
      </trkpt>
      <trkpt lat="45.59014" lon="2.25128">
        <ele>776</ele>
        <time>2019-05-18T15:19:06Z</time>
      </trkpt>
      <trkpt lat="45.59017" lon="2.25125">
        <ele>776</ele>
        <time>2019-05-18T15:19:07Z</time>
      </trkpt>
      <trkpt lat="45.59018" lon="2.25122">
        <ele>776</ele>
        <time>2019-05-18T15:19:08Z</time>
      </trkpt>
      <trkpt lat="45.5902" lon="2.25118">
        <ele>776</ele>
        <time>2019-05-18T15:19:09Z</time>
      </trkpt>
      <trkpt lat="45.59021" lon="2.25115">
        <ele>776</ele>
        <time>2019-05-18T15:19:10Z</time>
      </trkpt>
      <trkpt lat="45.59023" lon="2.25111">
        <ele>776</ele>
        <time>2019-05-18T15:19:11Z</time>
      </trkpt>
      <trkpt lat="45.59024" lon="2.25107">
        <ele>776</ele>
        <time>2019-05-18T15:19:12Z</time>
      </trkpt>
      <trkpt lat="45.59025" lon="2.25102">
        <ele>776</ele>
        <time>2019-05-18T15:19:13Z</time>
      </trkpt>
      <trkpt lat="45.59026" lon="2.25097">
        <ele>776</ele>
        <time>2019-05-18T15:19:14Z</time>
      </trkpt>
      <trkpt lat="45.59027" lon="2.25092">
        <ele>776</ele>
        <time>2019-05-18T15:19:15Z</time>
      </trkpt>
      <trkpt lat="45.59028" lon="2.25087">
        <ele>775</ele>
        <time>2019-05-18T15:19:16Z</time>
      </trkpt>
      <trkpt lat="45.59029" lon="2.25081">
        <ele>775</ele>
        <time>2019-05-18T15:19:17Z</time>
      </trkpt>
      <trkpt lat="45.5903" lon="2.25075">
        <ele>775</ele>
        <time>2019-05-18T15:19:18Z</time>
      </trkpt>
      <trkpt lat="45.5903" lon="2.2507">
        <ele>775</ele>
        <time>2019-05-18T15:19:19Z</time>
      </trkpt>
      <trkpt lat="45.5903" lon="2.25064">
        <ele>775</ele>
        <time>2019-05-18T15:19:20Z</time>
      </trkpt>
      <trkpt lat="45.59031" lon="2.25058">
        <ele>775</ele>
        <time>2019-05-18T15:19:21Z</time>
      </trkpt>
      <trkpt lat="45.59031" lon="2.25052">
        <ele>775</ele>
        <time>2019-05-18T15:19:22Z</time>
      </trkpt>
      <trkpt lat="45.5903" lon="2.25046">
        <ele>774</ele>
        <time>2019-05-18T15:19:23Z</time>
      </trkpt>
      <trkpt lat="45.5903" lon="2.25039">
        <ele>774</ele>
        <time>2019-05-18T15:19:24Z</time>
      </trkpt>
      <trkpt lat="45.59029" lon="2.25032">
        <ele>774</ele>
        <time>2019-05-18T15:19:25Z</time>
      </trkpt>
      <trkpt lat="45.59028" lon="2.25025">
        <ele>773</ele>
        <time>2019-05-18T15:19:26Z</time>
      </trkpt>
      <trkpt lat="45.59025" lon="2.25017">
        <ele>773</ele>
        <time>2019-05-18T15:19:27Z</time>
      </trkpt>
      <trkpt lat="45.59023" lon="2.25009">
        <ele>772</ele>
        <time>2019-05-18T15:19:28Z</time>
      </trkpt>
      <trkpt lat="45.5902" lon="2.25001">
        <ele>772</ele>
        <time>2019-05-18T15:19:29Z</time>
      </trkpt>
      <trkpt lat="45.59016" lon="2.24994">
        <ele>771</ele>
        <time>2019-05-18T15:19:30Z</time>
      </trkpt>
      <trkpt lat="45.59013" lon="2.24986">
        <ele>771</ele>
        <time>2019-05-18T15:19:31Z</time>
      </trkpt>
      <trkpt lat="45.59009" lon="2.24981">
        <ele>771</ele>
        <time>2019-05-18T15:19:32Z</time>
      </trkpt>
      <trkpt lat="45.59006" lon="2.24975">
        <ele>771</ele>
        <time>2019-05-18T15:19:33Z</time>
      </trkpt>
      <trkpt lat="45.59003" lon="2.2497">
        <ele>770</ele>
        <time>2019-05-18T15:19:34Z</time>
      </trkpt>
      <trkpt lat="45.59002" lon="2.24965">
        <ele>770</ele>
        <time>2019-05-18T15:19:35Z</time>
      </trkpt>
      <trkpt lat="45.59002" lon="2.2496">
        <ele>770</ele>
        <time>2019-05-18T15:19:36Z</time>
      </trkpt>
      <trkpt lat="45.59003" lon="2.24957">
        <ele>771</ele>
        <time>2019-05-18T15:19:37Z</time>
      </trkpt>
      <trkpt lat="45.59004" lon="2.24955">
        <ele>771</ele>
        <time>2019-05-18T15:19:38Z</time>
      </trkpt>
      <trkpt lat="45.59005" lon="2.24953">
        <ele>771</ele>
        <time>2019-05-18T15:19:39Z</time>
      </trkpt>
      <trkpt lat="45.59007" lon="2.24951">
        <ele>771</ele>
        <time>2019-05-18T15:19:40Z</time>
      </trkpt>
      <trkpt lat="45.59008" lon="2.24949">
        <ele>772</ele>
        <time>2019-05-18T15:19:41Z</time>
      </trkpt>
      <trkpt lat="45.5901" lon="2.24948">
        <ele>772</ele>
        <time>2019-05-18T15:19:42Z</time>
      </trkpt>
      <trkpt lat="45.59011" lon="2.24946">
        <ele>772</ele>
        <time>2019-05-18T15:19:43Z</time>
      </trkpt>
      <trkpt lat="45.59013" lon="2.24943">
        <ele>772</ele>
        <time>2019-05-18T15:19:44Z</time>
      </trkpt>
      <trkpt lat="45.59014" lon="2.24941">
        <ele>773</ele>
        <time>2019-05-18T15:19:45Z</time>
      </trkpt>
      <trkpt lat="45.59016" lon="2.24939">
        <ele>773</ele>
        <time>2019-05-18T15:19:46Z</time>
      </trkpt>
      <trkpt lat="45.59017" lon="2.24937">
        <ele>773</ele>
        <time>2019-05-18T15:19:47Z</time>
      </trkpt>
      <trkpt lat="45.59019" lon="2.24935">
        <ele>773</ele>
        <time>2019-05-18T15:19:48Z</time>
      </trkpt>
      <trkpt lat="45.5902" lon="2.24933">
        <ele>774</ele>
        <time>2019-05-18T15:19:49Z</time>
      </trkpt>
      <trkpt lat="45.59022" lon="2.24931">
        <ele>774</ele>
        <time>2019-05-18T15:19:50Z</time>
      </trkpt>
      <trkpt lat="45.59023" lon="2.24929">
        <ele>774</ele>
        <time>2019-05-18T15:19:51Z</time>
      </trkpt>
      <trkpt lat="45.59024" lon="2.24927">
        <ele>774</ele>
        <time>2019-05-18T15:19:52Z</time>
      </trkpt>
      <trkpt lat="45.59026" lon="2.24924">
        <ele>775</ele>
        <time>2019-05-18T15:19:53Z</time>
      </trkpt>
      <trkpt lat="45.59028" lon="2.24922">
        <ele>775</ele>
        <time>2019-05-18T15:19:54Z</time>
      </trkpt>
      <trkpt lat="45.59029" lon="2.2492">
        <ele>775</ele>
        <time>2019-05-18T15:19:55Z</time>
      </trkpt>
      <trkpt lat="45.5903" lon="2.24918">
        <ele>775</ele>
        <time>2019-05-18T15:19:56Z</time>
      </trkpt>
      <trkpt lat="45.59032" lon="2.24915">
        <ele>775</ele>
        <time>2019-05-18T15:19:57Z</time>
      </trkpt>
      <trkpt lat="45.59034" lon="2.24913">
        <ele>776</ele>
        <time>2019-05-18T15:19:58Z</time>
      </trkpt>
      <trkpt lat="45.59035" lon="2.24911">
        <ele>776</ele>
        <time>2019-05-18T15:19:59Z</time>
      </trkpt>
      <trkpt lat="45.59037" lon="2.24909">
        <ele>776</ele>
        <time>2019-05-18T15:20:00Z</time>
      </trkpt>
      <trkpt lat="45.59038" lon="2.24907">
        <ele>776</ele>
        <time>2019-05-18T15:20:01Z</time>
      </trkpt>
      <trkpt lat="45.5904" lon="2.24905">
        <ele>776</ele>
        <time>2019-05-18T15:20:02Z</time>
      </trkpt>
      <trkpt lat="45.59041" lon="2.24903">
        <ele>776</ele>
        <time>2019-05-18T15:20:03Z</time>
      </trkpt>
      <trkpt lat="45.59043" lon="2.249">
        <ele>777</ele>
        <time>2019-05-18T15:20:04Z</time>
      </trkpt>
      <trkpt lat="45.59044" lon="2.24898">
        <ele>777</ele>
        <time>2019-05-18T15:20:05Z</time>
      </trkpt>
      <trkpt lat="45.59046" lon="2.24896">
        <ele>777</ele>
        <time>2019-05-18T15:20:06Z</time>
      </trkpt>
      <trkpt lat="45.59047" lon="2.24894">
        <ele>777</ele>
        <time>2019-05-18T15:20:07Z</time>
      </trkpt>
      <trkpt lat="45.59049" lon="2.24892">
        <ele>777</ele>
        <time>2019-05-18T15:20:08Z</time>
      </trkpt>
      <trkpt lat="45.5905" lon="2.2489">
        <ele>777</ele>
        <time>2019-05-18T15:20:09Z</time>
      </trkpt>
      <trkpt lat="45.59051" lon="2.24887">
        <ele>777</ele>
        <time>2019-05-18T15:20:10Z</time>
      </trkpt>
      <trkpt lat="45.59053" lon="2.24885">
        <ele>777</ele>
        <time>2019-05-18T15:20:11Z</time>
      </trkpt>
      <trkpt lat="45.59054" lon="2.24883">
        <ele>778</ele>
        <time>2019-05-18T15:20:12Z</time>
      </trkpt>
      <trkpt lat="45.59056" lon="2.24881">
        <ele>778</ele>
        <time>2019-05-18T15:20:13Z</time>
      </trkpt>
      <trkpt lat="45.59058" lon="2.24879">
        <ele>778</ele>
        <time>2019-05-18T15:20:14Z</time>
      </trkpt>
      <trkpt lat="45.59059" lon="2.24877">
        <ele>778</ele>
        <time>2019-05-18T15:20:15Z</time>
      </trkpt>
      <trkpt lat="45.5906" lon="2.24875">
        <ele>778</ele>
        <time>2019-05-18T15:20:16Z</time>
      </trkpt>
      <trkpt lat="45.59062" lon="2.24873">
        <ele>778</ele>
        <time>2019-05-18T15:20:17Z</time>
      </trkpt>
      <trkpt lat="45.59063" lon="2.24871">
        <ele>778</ele>
        <time>2019-05-18T15:20:18Z</time>
      </trkpt>
      <trkpt lat="45.59065" lon="2.24869">
        <ele>778</ele>
        <time>2019-05-18T15:20:19Z</time>
      </trkpt>
      <trkpt lat="45.59066" lon="2.24866">
        <ele>778</ele>
        <time>2019-05-18T15:20:20Z</time>
      </trkpt>
      <trkpt lat="45.59068" lon="2.24864">
        <ele>779</ele>
        <time>2019-05-18T15:20:21Z</time>
      </trkpt>
      <trkpt lat="45.59069" lon="2.24862">
        <ele>779</ele>
        <time>2019-05-18T15:20:22Z</time>
      </trkpt>
      <trkpt lat="45.59071" lon="2.2486">
        <ele>779</ele>
        <time>2019-05-18T15:20:23Z</time>
      </trkpt>
      <trkpt lat="45.59072" lon="2.24858">
        <ele>779</ele>
        <time>2019-05-18T15:20:24Z</time>
      </trkpt>
      <trkpt lat="45.59074" lon="2.24856">
        <ele>779</ele>
        <time>2019-05-18T15:20:25Z</time>
      </trkpt>
      <trkpt lat="45.59075" lon="2.24854">
        <ele>779</ele>
        <time>2019-05-18T15:20:26Z</time>
      </trkpt>
      <trkpt lat="45.59077" lon="2.24852">
        <ele>779</ele>
        <time>2019-05-18T15:20:27Z</time>
      </trkpt>
      <trkpt lat="45.59078" lon="2.2485">
        <ele>779</ele>
        <time>2019-05-18T15:20:28Z</time>
      </trkpt>
      <trkpt lat="45.5908" lon="2.24848">
        <ele>779</ele>
        <time>2019-05-18T15:20:29Z</time>
      </trkpt>
      <trkpt lat="45.59081" lon="2.24846">
        <ele>779</ele>
        <time>2019-05-18T15:20:30Z</time>
      </trkpt>
      <trkpt lat="45.59083" lon="2.24844">
        <ele>779</ele>
        <time>2019-05-18T15:20:31Z</time>
      </trkpt>
      <trkpt lat="45.59084" lon="2.24842">
        <ele>779</ele>
        <time>2019-05-18T15:20:32Z</time>
      </trkpt>
      <trkpt lat="45.59085" lon="2.2484">
        <ele>779</ele>
        <time>2019-05-18T15:20:33Z</time>
      </trkpt>
      <trkpt lat="45.59087" lon="2.24838">
        <ele>779</ele>
        <time>2019-05-18T15:20:34Z</time>
      </trkpt>
      <trkpt lat="45.59089" lon="2.24836">
        <ele>780</ele>
        <time>2019-05-18T15:20:35Z</time>
      </trkpt>
      <trkpt lat="45.5909" lon="2.24834">
        <ele>780</ele>
        <time>2019-05-18T15:20:36Z</time>
      </trkpt>
      <trkpt lat="45.59092" lon="2.24832">
        <ele>780</ele>
        <time>2019-05-18T15:20:37Z</time>
      </trkpt>
      <trkpt lat="45.59093" lon="2.2483">
        <ele>780</ele>
        <time>2019-05-18T15:20:38Z</time>
      </trkpt>
      <trkpt lat="45.59095" lon="2.24828">
        <ele>780</ele>
        <time>2019-05-18T15:20:39Z</time>
      </trkpt>
      <trkpt lat="45.59097" lon="2.24826">
        <ele>780</ele>
        <time>2019-05-18T15:20:40Z</time>
      </trkpt>
      <trkpt lat="45.59098" lon="2.24824">
        <ele>780</ele>
        <time>2019-05-18T15:20:41Z</time>
      </trkpt>
      <trkpt lat="45.591" lon="2.24823">
        <ele>780</ele>
        <time>2019-05-18T15:20:42Z</time>
      </trkpt>
      <trkpt lat="45.59101" lon="2.24821">
        <ele>780</ele>
        <time>2019-05-18T15:20:43Z</time>
      </trkpt>
      <trkpt lat="45.59103" lon="2.24818">
        <ele>780</ele>
        <time>2019-05-18T15:20:44Z</time>
      </trkpt>
      <trkpt lat="45.59104" lon="2.24816">
        <ele>781</ele>
        <time>2019-05-18T15:20:45Z</time>
      </trkpt>
      <trkpt lat="45.59106" lon="2.24814">
        <ele>781</ele>
        <time>2019-05-18T15:20:46Z</time>
      </trkpt>
      <trkpt lat="45.59107" lon="2.24812">
        <ele>781</ele>
        <time>2019-05-18T15:20:47Z</time>
      </trkpt>
      <trkpt lat="45.59109" lon="2.2481">
        <ele>781</ele>
        <time>2019-05-18T15:20:48Z</time>
      </trkpt>
      <trkpt lat="45.5911" lon="2.24808">
        <ele>781</ele>
        <time>2019-05-18T15:20:49Z</time>
      </trkpt>
      <trkpt lat="45.59112" lon="2.24806">
        <ele>781</ele>
        <time>2019-05-18T15:20:50Z</time>
      </trkpt>
      <trkpt lat="45.59113" lon="2.24804">
        <ele>782</ele>
        <time>2019-05-18T15:20:51Z</time>
      </trkpt>
      <trkpt lat="45.59115" lon="2.24803">
        <ele>782</ele>
        <time>2019-05-18T15:20:52Z</time>
      </trkpt>
      <trkpt lat="45.59116" lon="2.24801">
        <ele>782</ele>
        <time>2019-05-18T15:20:53Z</time>
      </trkpt>
      <trkpt lat="45.59118" lon="2.24799">
        <ele>782</ele>
        <time>2019-05-18T15:20:54Z</time>
      </trkpt>
      <trkpt lat="45.59119" lon="2.24798">
        <ele>782</ele>
        <time>2019-05-18T15:20:55Z</time>
      </trkpt>
      <trkpt lat="45.59121" lon="2.24796">
        <ele>783</ele>
        <time>2019-05-18T15:20:56Z</time>
      </trkpt>
      <trkpt lat="45.59122" lon="2.24794">
        <ele>783</ele>
        <time>2019-05-18T15:20:57Z</time>
      </trkpt>
      <trkpt lat="45.59124" lon="2.24793">
        <ele>783</ele>
        <time>2019-05-18T15:20:58Z</time>
      </trkpt>
      <trkpt lat="45.59125" lon="2.24791">
        <ele>783</ele>
        <time>2019-05-18T15:20:59Z</time>
      </trkpt>
      <trkpt lat="45.59127" lon="2.24789">
        <ele>783</ele>
        <time>2019-05-18T15:21:00Z</time>
      </trkpt>
      <trkpt lat="45.59128" lon="2.24787">
        <ele>784</ele>
        <time>2019-05-18T15:21:01Z</time>
      </trkpt>
      <trkpt lat="45.5913" lon="2.24785">
        <ele>784</ele>
        <time>2019-05-18T15:21:02Z</time>
      </trkpt>
      <trkpt lat="45.59131" lon="2.24783">
        <ele>784</ele>
        <time>2019-05-18T15:21:03Z</time>
      </trkpt>
      <trkpt lat="45.59132" lon="2.24781">
        <ele>784</ele>
        <time>2019-05-18T15:21:04Z</time>
      </trkpt>
      <trkpt lat="45.59134" lon="2.24779">
        <ele>784</ele>
        <time>2019-05-18T15:21:05Z</time>
      </trkpt>
      <trkpt lat="45.59135" lon="2.24777">
        <ele>784</ele>
        <time>2019-05-18T15:21:06Z</time>
      </trkpt>
      <trkpt lat="45.59136" lon="2.24775">
        <ele>785</ele>
        <time>2019-05-18T15:21:07Z</time>
      </trkpt>
      <trkpt lat="45.59138" lon="2.24773">
        <ele>785</ele>
        <time>2019-05-18T15:21:08Z</time>
      </trkpt>
      <trkpt lat="45.59139" lon="2.24772">
        <ele>785</ele>
        <time>2019-05-18T15:21:09Z</time>
      </trkpt>
      <trkpt lat="45.59141" lon="2.2477">
        <ele>785</ele>
        <time>2019-05-18T15:21:10Z</time>
      </trkpt>
      <trkpt lat="45.59142" lon="2.24768">
        <ele>785</ele>
        <time>2019-05-18T15:21:11Z</time>
      </trkpt>
      <trkpt lat="45.59143" lon="2.24766">
        <ele>786</ele>
        <time>2019-05-18T15:21:12Z</time>
      </trkpt>
      <trkpt lat="45.59145" lon="2.24764">
        <ele>786</ele>
        <time>2019-05-18T15:21:13Z</time>
      </trkpt>
      <trkpt lat="45.59146" lon="2.24762">
        <ele>786</ele>
        <time>2019-05-18T15:21:14Z</time>
      </trkpt>
      <trkpt lat="45.59148" lon="2.2476">
        <ele>786</ele>
        <time>2019-05-18T15:21:15Z</time>
      </trkpt>
      <trkpt lat="45.59149" lon="2.24758">
        <ele>786</ele>
        <time>2019-05-18T15:21:16Z</time>
      </trkpt>
      <trkpt lat="45.5915" lon="2.24756">
        <ele>787</ele>
        <time>2019-05-18T15:21:17Z</time>
      </trkpt>
      <trkpt lat="45.59151" lon="2.24754">
        <ele>787</ele>
        <time>2019-05-18T15:21:18Z</time>
      </trkpt>
      <trkpt lat="45.59153" lon="2.24751">
        <ele>787</ele>
        <time>2019-05-18T15:21:19Z</time>
      </trkpt>
      <trkpt lat="45.59154" lon="2.2475">
        <ele>787</ele>
        <time>2019-05-18T15:21:20Z</time>
      </trkpt>
      <trkpt lat="45.59155" lon="2.24748">
        <ele>787</ele>
        <time>2019-05-18T15:21:21Z</time>
      </trkpt>
      <trkpt lat="45.59157" lon="2.24746">
        <ele>788</ele>
        <time>2019-05-18T15:21:22Z</time>
      </trkpt>
      <trkpt lat="45.59158" lon="2.24743">
        <ele>788</ele>
        <time>2019-05-18T15:21:23Z</time>
      </trkpt>
      <trkpt lat="45.59159" lon="2.24741">
        <ele>788</ele>
        <time>2019-05-18T15:21:24Z</time>
      </trkpt>
      <trkpt lat="45.5916" lon="2.24739">
        <ele>788</ele>
        <time>2019-05-18T15:21:25Z</time>
      </trkpt>
      <trkpt lat="45.59161" lon="2.24737">
        <ele>788</ele>
        <time>2019-05-18T15:21:26Z</time>
      </trkpt>
      <trkpt lat="45.59163" lon="2.24734">
        <ele>789</ele>
        <time>2019-05-18T15:21:27Z</time>
      </trkpt>
      <trkpt lat="45.59163" lon="2.24732">
        <ele>789</ele>
        <time>2019-05-18T15:21:28Z</time>
      </trkpt>
      <trkpt lat="45.59163" lon="2.24729">
        <ele>789</ele>
        <time>2019-05-18T15:21:29Z</time>
      </trkpt>
      <trkpt lat="45.59164" lon="2.24727">
        <ele>789</ele>
        <time>2019-05-18T15:21:30Z</time>
      </trkpt>
      <trkpt lat="45.59165" lon="2.24724">
        <ele>789</ele>
        <time>2019-05-18T15:21:31Z</time>
      </trkpt>
      <trkpt lat="45.59165" lon="2.24722">
        <ele>789</ele>
        <time>2019-05-18T15:21:32Z</time>
      </trkpt>
      <trkpt lat="45.59165" lon="2.24721">
        <ele>789</ele>
        <time>2019-05-18T15:21:33Z</time>
      </trkpt>
      <trkpt lat="45.59165" lon="2.24721">
        <ele>789</ele>
        <time>2019-05-18T15:21:34Z</time>
      </trkpt>
      <trkpt lat="45.59166" lon="2.24719">
        <ele>790</ele>
        <time>2019-05-18T15:21:35Z</time>
      </trkpt>
      <trkpt lat="45.59167" lon="2.24717">
        <ele>790</ele>
        <time>2019-05-18T15:21:36Z</time>
      </trkpt>
      <trkpt lat="45.59168" lon="2.24715">
        <ele>790</ele>
        <time>2019-05-18T15:21:37Z</time>
      </trkpt>
      <trkpt lat="45.59168" lon="2.24713">
        <ele>790</ele>
        <time>2019-05-18T15:21:38Z</time>
      </trkpt>
      <trkpt lat="45.59168" lon="2.24711">
        <ele>790</ele>
        <time>2019-05-18T15:21:39Z</time>
      </trkpt>
      <trkpt lat="45.59168" lon="2.24709">
        <ele>790</ele>
        <time>2019-05-18T15:21:40Z</time>
      </trkpt>
      <trkpt lat="45.59168" lon="2.24705">
        <ele>790</ele>
        <time>2019-05-18T15:21:41Z</time>
      </trkpt>
      <trkpt lat="45.59169" lon="2.24702">
        <ele>790</ele>
        <time>2019-05-18T15:21:42Z</time>
      </trkpt>
      <trkpt lat="45.59169" lon="2.247">
        <ele>790</ele>
        <time>2019-05-18T15:21:43Z</time>
      </trkpt>
      <trkpt lat="45.59169" lon="2.24697">
        <ele>790</ele>
        <time>2019-05-18T15:21:44Z</time>
      </trkpt>
      <trkpt lat="45.5917" lon="2.24694">
        <ele>790</ele>
        <time>2019-05-18T15:21:45Z</time>
      </trkpt>
      <trkpt lat="45.59171" lon="2.24691">
        <ele>790</ele>
        <time>2019-05-18T15:21:46Z</time>
      </trkpt>
      <trkpt lat="45.59172" lon="2.24688">
        <ele>790</ele>
        <time>2019-05-18T15:21:47Z</time>
      </trkpt>
      <trkpt lat="45.59173" lon="2.24684">
        <ele>790</ele>
        <time>2019-05-18T15:21:48Z</time>
      </trkpt>
      <trkpt lat="45.59174" lon="2.24679">
        <ele>790</ele>
        <time>2019-05-18T15:21:49Z</time>
      </trkpt>
      <trkpt lat="45.59175" lon="2.24675">
        <ele>790</ele>
        <time>2019-05-18T15:21:50Z</time>
      </trkpt>
      <trkpt lat="45.59176" lon="2.24671">
        <ele>790</ele>
        <time>2019-05-18T15:21:51Z</time>
      </trkpt>
      <trkpt lat="45.59176" lon="2.24667">
        <ele>790</ele>
        <time>2019-05-18T15:21:52Z</time>
      </trkpt>
      <trkpt lat="45.59177" lon="2.24663">
        <ele>790</ele>
        <time>2019-05-18T15:21:53Z</time>
      </trkpt>
      <trkpt lat="45.59178" lon="2.24657">
        <ele>790</ele>
        <time>2019-05-18T15:21:54Z</time>
      </trkpt>
      <trkpt lat="45.59178" lon="2.24652">
        <ele>789</ele>
        <time>2019-05-18T15:21:55Z</time>
      </trkpt>
      <trkpt lat="45.59179" lon="2.24647">
        <ele>789</ele>
        <time>2019-05-18T15:21:56Z</time>
      </trkpt>
      <trkpt lat="45.5918" lon="2.24641">
        <ele>789</ele>
        <time>2019-05-18T15:21:57Z</time>
      </trkpt>
      <trkpt lat="45.59181" lon="2.24634">
        <ele>789</ele>
        <time>2019-05-18T15:21:58Z</time>
      </trkpt>
      <trkpt lat="45.59182" lon="2.24627">
        <ele>788</ele>
        <time>2019-05-18T15:21:59Z</time>
      </trkpt>
      <trkpt lat="45.59182" lon="2.24619">
        <ele>788</ele>
        <time>2019-05-18T15:22:00Z</time>
      </trkpt>
      <trkpt lat="45.59182" lon="2.24611">
        <ele>788</ele>
        <time>2019-05-18T15:22:01Z</time>
      </trkpt>
      <trkpt lat="45.59183" lon="2.24603">
        <ele>788</ele>
        <time>2019-05-18T15:22:02Z</time>
      </trkpt>
      <trkpt lat="45.59184" lon="2.24595">
        <ele>787</ele>
        <time>2019-05-18T15:22:03Z</time>
      </trkpt>
      <trkpt lat="45.59184" lon="2.24586">
        <ele>787</ele>
        <time>2019-05-18T15:22:04Z</time>
      </trkpt>
      <trkpt lat="45.59185" lon="2.2458">
        <ele>787</ele>
        <time>2019-05-18T15:22:05Z</time>
      </trkpt>
      <trkpt lat="45.59186" lon="2.24574">
        <ele>787</ele>
        <time>2019-05-18T15:22:06Z</time>
      </trkpt>
      <trkpt lat="45.59187" lon="2.24566">
        <ele>787</ele>
        <time>2019-05-18T15:22:07Z</time>
      </trkpt>
      <trkpt lat="45.59189" lon="2.24559">
        <ele>787</ele>
        <time>2019-05-18T15:22:08Z</time>
      </trkpt>
      <trkpt lat="45.5919" lon="2.24551">
        <ele>787</ele>
        <time>2019-05-18T15:22:09Z</time>
      </trkpt>
      <trkpt lat="45.59192" lon="2.24543">
        <ele>787</ele>
        <time>2019-05-18T15:22:10Z</time>
      </trkpt>
      <trkpt lat="45.59193" lon="2.24537">
        <ele>787</ele>
        <time>2019-05-18T15:22:11Z</time>
      </trkpt>
      <trkpt lat="45.59195" lon="2.24531">
        <ele>787</ele>
        <time>2019-05-18T15:22:12Z</time>
      </trkpt>
      <trkpt lat="45.59196" lon="2.24525">
        <ele>787</ele>
        <time>2019-05-18T15:22:13Z</time>
      </trkpt>
      <trkpt lat="45.59199" lon="2.24521">
        <ele>787</ele>
        <time>2019-05-18T15:22:14Z</time>
      </trkpt>
      <trkpt lat="45.59201" lon="2.24516">
        <ele>787</ele>
        <time>2019-05-18T15:22:15Z</time>
      </trkpt>
      <trkpt lat="45.59203" lon="2.24511">
        <ele>787</ele>
        <time>2019-05-18T15:22:16Z</time>
      </trkpt>
      <trkpt lat="45.59205" lon="2.24507">
        <ele>787</ele>
        <time>2019-05-18T15:22:17Z</time>
      </trkpt>
      <trkpt lat="45.59207" lon="2.24503">
        <ele>787</ele>
        <time>2019-05-18T15:22:18Z</time>
      </trkpt>
      <trkpt lat="45.5921" lon="2.24499">
        <ele>787</ele>
        <time>2019-05-18T15:22:19Z</time>
      </trkpt>
      <trkpt lat="45.59212" lon="2.24495">
        <ele>787</ele>
        <time>2019-05-18T15:22:20Z</time>
      </trkpt>
      <trkpt lat="45.59215" lon="2.24491">
        <ele>787</ele>
        <time>2019-05-18T15:22:21Z</time>
      </trkpt>
      <trkpt lat="45.59218" lon="2.24487">
        <ele>787</ele>
        <time>2019-05-18T15:22:22Z</time>
      </trkpt>
      <trkpt lat="45.59221" lon="2.24484">
        <ele>787</ele>
        <time>2019-05-18T15:22:23Z</time>
      </trkpt>
      <trkpt lat="45.59224" lon="2.24481">
        <ele>787</ele>
        <time>2019-05-18T15:22:24Z</time>
      </trkpt>
      <trkpt lat="45.59228" lon="2.24478">
        <ele>787</ele>
        <time>2019-05-18T15:22:25Z</time>
      </trkpt>
      <trkpt lat="45.59232" lon="2.24476">
        <ele>787</ele>
        <time>2019-05-18T15:22:26Z</time>
      </trkpt>
      <trkpt lat="45.59236" lon="2.24475">
        <ele>787</ele>
        <time>2019-05-18T15:22:27Z</time>
      </trkpt>
      <trkpt lat="45.5924" lon="2.24473">
        <ele>787</ele>
        <time>2019-05-18T15:22:28Z</time>
      </trkpt>
      <trkpt lat="45.59243" lon="2.24472">
        <ele>787</ele>
        <time>2019-05-18T15:22:29Z</time>
      </trkpt>
      <trkpt lat="45.59247" lon="2.24469">
        <ele>787</ele>
        <time>2019-05-18T15:22:30Z</time>
      </trkpt>
      <trkpt lat="45.59251" lon="2.24467">
        <ele>787</ele>
        <time>2019-05-18T15:22:31Z</time>
      </trkpt>
      <trkpt lat="45.59255" lon="2.24466">
        <ele>787</ele>
        <time>2019-05-18T15:22:32Z</time>
      </trkpt>
      <trkpt lat="45.59259" lon="2.24464">
        <ele>787</ele>
        <time>2019-05-18T15:22:33Z</time>
      </trkpt>
      <trkpt lat="45.59263" lon="2.24461">
        <ele>787</ele>
        <time>2019-05-18T15:22:34Z</time>
      </trkpt>
      <trkpt lat="45.59267" lon="2.24459">
        <ele>787</ele>
        <time>2019-05-18T15:22:35Z</time>
      </trkpt>
      <trkpt lat="45.59271" lon="2.24457">
        <ele>787</ele>
        <time>2019-05-18T15:22:36Z</time>
      </trkpt>
      <trkpt lat="45.59275" lon="2.24454">
        <ele>787</ele>
        <time>2019-05-18T15:22:37Z</time>
      </trkpt>
      <trkpt lat="45.59279" lon="2.24452">
        <ele>787</ele>
        <time>2019-05-18T15:22:38Z</time>
      </trkpt>
      <trkpt lat="45.59282" lon="2.24449">
        <ele>787</ele>
        <time>2019-05-18T15:22:39Z</time>
      </trkpt>
      <trkpt lat="45.59285" lon="2.24446">
        <ele>787</ele>
        <time>2019-05-18T15:22:40Z</time>
      </trkpt>
      <trkpt lat="45.59288" lon="2.24444">
        <ele>787</ele>
        <time>2019-05-18T15:22:41Z</time>
      </trkpt>
      <trkpt lat="45.59292" lon="2.24441">
        <ele>787</ele>
        <time>2019-05-18T15:22:42Z</time>
      </trkpt>
      <trkpt lat="45.59295" lon="2.24438">
        <ele>787</ele>
        <time>2019-05-18T15:22:43Z</time>
      </trkpt>
      <trkpt lat="45.59298" lon="2.24434">
        <ele>788</ele>
        <time>2019-05-18T15:22:44Z</time>
      </trkpt>
      <trkpt lat="45.59301" lon="2.24431">
        <ele>788</ele>
        <time>2019-05-18T15:22:45Z</time>
      </trkpt>
      <trkpt lat="45.59304" lon="2.24427">
        <ele>788</ele>
        <time>2019-05-18T15:22:46Z</time>
      </trkpt>
      <trkpt lat="45.59306" lon="2.24424">
        <ele>788</ele>
        <time>2019-05-18T15:22:47Z</time>
      </trkpt>
      <trkpt lat="45.59309" lon="2.2442">
        <ele>788</ele>
        <time>2019-05-18T15:22:48Z</time>
      </trkpt>
      <trkpt lat="45.59311" lon="2.24416">
        <ele>788</ele>
        <time>2019-05-18T15:22:49Z</time>
      </trkpt>
      <trkpt lat="45.59314" lon="2.24413">
        <ele>788</ele>
        <time>2019-05-18T15:22:50Z</time>
      </trkpt>
      <trkpt lat="45.59316" lon="2.24409">
        <ele>788</ele>
        <time>2019-05-18T15:22:51Z</time>
      </trkpt>
      <trkpt lat="45.59319" lon="2.24405">
        <ele>788</ele>
        <time>2019-05-18T15:22:52Z</time>
      </trkpt>
      <trkpt lat="45.59322" lon="2.24402">
        <ele>788</ele>
        <time>2019-05-18T15:22:53Z</time>
      </trkpt>
      <trkpt lat="45.59326" lon="2.24398">
        <ele>788</ele>
        <time>2019-05-18T15:22:54Z</time>
      </trkpt>
      <trkpt lat="45.59329" lon="2.24395">
        <ele>788</ele>
        <time>2019-05-18T15:22:55Z</time>
      </trkpt>
      <trkpt lat="45.59332" lon="2.24392">
        <ele>788</ele>
        <time>2019-05-18T15:22:56Z</time>
      </trkpt>
      <trkpt lat="45.59336" lon="2.24389">
        <ele>788</ele>
        <time>2019-05-18T15:22:57Z</time>
      </trkpt>
      <trkpt lat="45.59339" lon="2.24386">
        <ele>788</ele>
        <time>2019-05-18T15:22:58Z</time>
      </trkpt>
      <trkpt lat="45.59343" lon="2.24384">
        <ele>788</ele>
        <time>2019-05-18T15:22:59Z</time>
      </trkpt>
      <trkpt lat="45.59346" lon="2.24382">
        <ele>788</ele>
        <time>2019-05-18T15:23:00Z</time>
      </trkpt>
      <trkpt lat="45.59349" lon="2.24379">
        <ele>788</ele>
        <time>2019-05-18T15:23:01Z</time>
      </trkpt>
      <trkpt lat="45.59353" lon="2.24377">
        <ele>789</ele>
        <time>2019-05-18T15:23:02Z</time>
      </trkpt>
      <trkpt lat="45.59356" lon="2.24375">
        <ele>789</ele>
        <time>2019-05-18T15:23:03Z</time>
      </trkpt>
      <trkpt lat="45.59359" lon="2.24373">
        <ele>789</ele>
        <time>2019-05-18T15:23:04Z</time>
      </trkpt>
      <trkpt lat="45.59362" lon="2.24371">
        <ele>789</ele>
        <time>2019-05-18T15:23:05Z</time>
      </trkpt>
      <trkpt lat="45.59365" lon="2.24369">
        <ele>789</ele>
        <time>2019-05-18T15:23:06Z</time>
      </trkpt>
      <trkpt lat="45.59369" lon="2.24367">
        <ele>789</ele>
        <time>2019-05-18T15:23:07Z</time>
      </trkpt>
      <trkpt lat="45.59372" lon="2.24365">
        <ele>789</ele>
        <time>2019-05-18T15:23:08Z</time>
      </trkpt>
      <trkpt lat="45.59375" lon="2.24363">
        <ele>790</ele>
        <time>2019-05-18T15:23:09Z</time>
      </trkpt>
      <trkpt lat="45.59379" lon="2.24361">
        <ele>790</ele>
        <time>2019-05-18T15:23:10Z</time>
      </trkpt>
      <trkpt lat="45.59382" lon="2.24359">
        <ele>790</ele>
        <time>2019-05-18T15:23:11Z</time>
      </trkpt>
      <trkpt lat="45.59386" lon="2.24357">
        <ele>790</ele>
        <time>2019-05-18T15:23:12Z</time>
      </trkpt>
      <trkpt lat="45.59389" lon="2.24354">
        <ele>790</ele>
        <time>2019-05-18T15:23:13Z</time>
      </trkpt>
      <trkpt lat="45.59392" lon="2.24352">
        <ele>790</ele>
        <time>2019-05-18T15:23:14Z</time>
      </trkpt>
      <trkpt lat="45.59395" lon="2.24349">
        <ele>790</ele>
        <time>2019-05-18T15:23:15Z</time>
      </trkpt>
      <trkpt lat="45.59398" lon="2.24346">
        <ele>790</ele>
        <time>2019-05-18T15:23:16Z</time>
      </trkpt>
      <trkpt lat="45.59401" lon="2.24343">
        <ele>791</ele>
        <time>2019-05-18T15:23:17Z</time>
      </trkpt>
      <trkpt lat="45.59403" lon="2.2434">
        <ele>791</ele>
        <time>2019-05-18T15:23:18Z</time>
      </trkpt>
      <trkpt lat="45.59406" lon="2.24338">
        <ele>791</ele>
        <time>2019-05-18T15:23:19Z</time>
      </trkpt>
      <trkpt lat="45.59408" lon="2.24335">
        <ele>791</ele>
        <time>2019-05-18T15:23:20Z</time>
      </trkpt>
      <trkpt lat="45.5941" lon="2.24332">
        <ele>791</ele>
        <time>2019-05-18T15:23:21Z</time>
      </trkpt>
      <trkpt lat="45.59412" lon="2.24329">
        <ele>791</ele>
        <time>2019-05-18T15:23:22Z</time>
      </trkpt>
      <trkpt lat="45.59415" lon="2.24326">
        <ele>792</ele>
        <time>2019-05-18T15:23:23Z</time>
      </trkpt>
      <trkpt lat="45.59417" lon="2.24324">
        <ele>792</ele>
        <time>2019-05-18T15:23:24Z</time>
      </trkpt>
      <trkpt lat="45.59418" lon="2.24321">
        <ele>792</ele>
        <time>2019-05-18T15:23:25Z</time>
      </trkpt>
      <trkpt lat="45.59421" lon="2.24318">
        <ele>792</ele>
        <time>2019-05-18T15:23:26Z</time>
      </trkpt>
      <trkpt lat="45.59423" lon="2.24315">
        <ele>792</ele>
        <time>2019-05-18T15:23:27Z</time>
      </trkpt>
      <trkpt lat="45.59425" lon="2.24313">
        <ele>792</ele>
        <time>2019-05-18T15:23:28Z</time>
      </trkpt>
      <trkpt lat="45.59427" lon="2.2431">
        <ele>793</ele>
        <time>2019-05-18T15:23:29Z</time>
      </trkpt>
      <trkpt lat="45.5943" lon="2.24308">
        <ele>793</ele>
        <time>2019-05-18T15:23:30Z</time>
      </trkpt>
      <trkpt lat="45.59432" lon="2.24305">
        <ele>793</ele>
        <time>2019-05-18T15:23:31Z</time>
      </trkpt>
      <trkpt lat="45.59434" lon="2.24303">
        <ele>793</ele>
        <time>2019-05-18T15:23:32Z</time>
      </trkpt>
      <trkpt lat="45.59437" lon="2.243">
        <ele>793</ele>
        <time>2019-05-18T15:23:33Z</time>
      </trkpt>
      <trkpt lat="45.59439" lon="2.24298">
        <ele>793</ele>
        <time>2019-05-18T15:23:34Z</time>
      </trkpt>
      <trkpt lat="45.59441" lon="2.24296">
        <ele>793</ele>
        <time>2019-05-18T15:23:35Z</time>
      </trkpt>
      <trkpt lat="45.59444" lon="2.24293">
        <ele>794</ele>
        <time>2019-05-18T15:23:36Z</time>
      </trkpt>
      <trkpt lat="45.59446" lon="2.24291">
        <ele>794</ele>
        <time>2019-05-18T15:23:37Z</time>
      </trkpt>
      <trkpt lat="45.59448" lon="2.24288">
        <ele>794</ele>
        <time>2019-05-18T15:23:38Z</time>
      </trkpt>
      <trkpt lat="45.59451" lon="2.24286">
        <ele>794</ele>
        <time>2019-05-18T15:23:39Z</time>
      </trkpt>
      <trkpt lat="45.59453" lon="2.24283">
        <ele>794</ele>
        <time>2019-05-18T15:23:40Z</time>
      </trkpt>
      <trkpt lat="45.59456" lon="2.24281">
        <ele>794</ele>
        <time>2019-05-18T15:23:41Z</time>
      </trkpt>
      <trkpt lat="45.59458" lon="2.24278">
        <ele>794</ele>
        <time>2019-05-18T15:23:42Z</time>
      </trkpt>
      <trkpt lat="45.5946" lon="2.24276">
        <ele>794</ele>
        <time>2019-05-18T15:23:43Z</time>
      </trkpt>
      <trkpt lat="45.59462" lon="2.24273">
        <ele>795</ele>
        <time>2019-05-18T15:23:44Z</time>
      </trkpt>
      <trkpt lat="45.59465" lon="2.2427">
        <ele>795</ele>
        <time>2019-05-18T15:23:45Z</time>
      </trkpt>
      <trkpt lat="45.59467" lon="2.24268">
        <ele>795</ele>
        <time>2019-05-18T15:23:46Z</time>
      </trkpt>
      <trkpt lat="45.59469" lon="2.24265">
        <ele>795</ele>
        <time>2019-05-18T15:23:47Z</time>
      </trkpt>
      <trkpt lat="45.59471" lon="2.24263">
        <ele>795</ele>
        <time>2019-05-18T15:23:48Z</time>
      </trkpt>
      <trkpt lat="45.59474" lon="2.2426">
        <ele>795</ele>
        <time>2019-05-18T15:23:49Z</time>
      </trkpt>
      <trkpt lat="45.59476" lon="2.24257">
        <ele>795</ele>
        <time>2019-05-18T15:23:50Z</time>
      </trkpt>
      <trkpt lat="45.59478" lon="2.24254">
        <ele>795</ele>
        <time>2019-05-18T15:23:51Z</time>
      </trkpt>
      <trkpt lat="45.5948" lon="2.24251">
        <ele>795</ele>
        <time>2019-05-18T15:23:52Z</time>
      </trkpt>
      <trkpt lat="45.59483" lon="2.24249">
        <ele>795</ele>
        <time>2019-05-18T15:23:53Z</time>
      </trkpt>
      <trkpt lat="45.59485" lon="2.24246">
        <ele>795</ele>
        <time>2019-05-18T15:23:54Z</time>
      </trkpt>
      <trkpt lat="45.59487" lon="2.24243">
        <ele>795</ele>
        <time>2019-05-18T15:23:55Z</time>
      </trkpt>
      <trkpt lat="45.59489" lon="2.2424">
        <ele>795</ele>
        <time>2019-05-18T15:23:56Z</time>
      </trkpt>
      <trkpt lat="45.59492" lon="2.24238">
        <ele>795</ele>
        <time>2019-05-18T15:23:57Z</time>
      </trkpt>
      <trkpt lat="45.59494" lon="2.24235">
        <ele>795</ele>
        <time>2019-05-18T15:23:58Z</time>
      </trkpt>
      <trkpt lat="45.59497" lon="2.24233">
        <ele>795</ele>
        <time>2019-05-18T15:23:59Z</time>
      </trkpt>
      <trkpt lat="45.59499" lon="2.2423">
        <ele>795</ele>
        <time>2019-05-18T15:24:00Z</time>
      </trkpt>
      <trkpt lat="45.59502" lon="2.24227">
        <ele>795</ele>
        <time>2019-05-18T15:24:01Z</time>
      </trkpt>
      <trkpt lat="45.59504" lon="2.24225">
        <ele>795</ele>
        <time>2019-05-18T15:24:02Z</time>
      </trkpt>
      <trkpt lat="45.59507" lon="2.24222">
        <ele>795</ele>
        <time>2019-05-18T15:24:03Z</time>
      </trkpt>
      <trkpt lat="45.59509" lon="2.2422">
        <ele>796</ele>
        <time>2019-05-18T15:24:04Z</time>
      </trkpt>
      <trkpt lat="45.59512" lon="2.24217">
        <ele>796</ele>
        <time>2019-05-18T15:24:05Z</time>
      </trkpt>
      <trkpt lat="45.59515" lon="2.24215">
        <ele>796</ele>
        <time>2019-05-18T15:24:06Z</time>
      </trkpt>
      <trkpt lat="45.59518" lon="2.24213">
        <ele>796</ele>
        <time>2019-05-18T15:24:07Z</time>
      </trkpt>
      <trkpt lat="45.5952" lon="2.24211">
        <ele>796</ele>
        <time>2019-05-18T15:24:08Z</time>
      </trkpt>
      <trkpt lat="45.59524" lon="2.2421">
        <ele>796</ele>
        <time>2019-05-18T15:24:09Z</time>
      </trkpt>
      <trkpt lat="45.59527" lon="2.24208">
        <ele>795</ele>
        <time>2019-05-18T15:24:10Z</time>
      </trkpt>
      <trkpt lat="45.5953" lon="2.24207">
        <ele>795</ele>
        <time>2019-05-18T15:24:11Z</time>
      </trkpt>
      <trkpt lat="45.59533" lon="2.24205">
        <ele>795</ele>
        <time>2019-05-18T15:24:12Z</time>
      </trkpt>
      <trkpt lat="45.59537" lon="2.24203">
        <ele>795</ele>
        <time>2019-05-18T15:24:13Z</time>
      </trkpt>
      <trkpt lat="45.5954" lon="2.24201">
        <ele>795</ele>
        <time>2019-05-18T15:24:14Z</time>
      </trkpt>
      <trkpt lat="45.59544" lon="2.242">
        <ele>795</ele>
        <time>2019-05-18T15:24:15Z</time>
      </trkpt>
      <trkpt lat="45.59547" lon="2.24198">
        <ele>795</ele>
        <time>2019-05-18T15:24:16Z</time>
      </trkpt>
      <trkpt lat="45.5955" lon="2.24196">
        <ele>795</ele>
        <time>2019-05-18T15:24:17Z</time>
      </trkpt>
      <trkpt lat="45.59553" lon="2.24194">
        <ele>795</ele>
        <time>2019-05-18T15:24:18Z</time>
      </trkpt>
      <trkpt lat="45.59556" lon="2.24191">
        <ele>795</ele>
        <time>2019-05-18T15:24:19Z</time>
      </trkpt>
      <trkpt lat="45.5956" lon="2.24189">
        <ele>795</ele>
        <time>2019-05-18T15:24:20Z</time>
      </trkpt>
      <trkpt lat="45.59563" lon="2.24187">
        <ele>795</ele>
        <time>2019-05-18T15:24:21Z</time>
      </trkpt>
      <trkpt lat="45.59567" lon="2.24184">
        <ele>795</ele>
        <time>2019-05-18T15:24:22Z</time>
      </trkpt>
      <trkpt lat="45.59571" lon="2.24182">
        <ele>795</ele>
        <time>2019-05-18T15:24:23Z</time>
      </trkpt>
      <trkpt lat="45.59574" lon="2.24179">
        <ele>795</ele>
        <time>2019-05-18T15:24:24Z</time>
      </trkpt>
      <trkpt lat="45.59578" lon="2.24177">
        <ele>795</ele>
        <time>2019-05-18T15:24:25Z</time>
      </trkpt>
      <trkpt lat="45.59581" lon="2.24174">
        <ele>795</ele>
        <time>2019-05-18T15:24:26Z</time>
      </trkpt>
      <trkpt lat="45.59585" lon="2.24172">
        <ele>795</ele>
        <time>2019-05-18T15:24:27Z</time>
      </trkpt>
      <trkpt lat="45.59589" lon="2.2417">
        <ele>795</ele>
        <time>2019-05-18T15:24:28Z</time>
      </trkpt>
      <trkpt lat="45.59593" lon="2.24168">
        <ele>795</ele>
        <time>2019-05-18T15:24:29Z</time>
      </trkpt>
      <trkpt lat="45.59597" lon="2.24166">
        <ele>795</ele>
        <time>2019-05-18T15:24:30Z</time>
      </trkpt>
      <trkpt lat="45.59602" lon="2.24164">
        <ele>795</ele>
        <time>2019-05-18T15:24:31Z</time>
      </trkpt>
      <trkpt lat="45.59606" lon="2.24162">
        <ele>795</ele>
        <time>2019-05-18T15:24:32Z</time>
      </trkpt>
      <trkpt lat="45.5961" lon="2.2416">
        <ele>794</ele>
        <time>2019-05-18T15:24:33Z</time>
      </trkpt>
      <trkpt lat="45.59614" lon="2.24158">
        <ele>794</ele>
        <time>2019-05-18T15:24:34Z</time>
      </trkpt>
      <trkpt lat="45.59619" lon="2.24156">
        <ele>794</ele>
        <time>2019-05-18T15:24:35Z</time>
      </trkpt>
      <trkpt lat="45.59623" lon="2.24153">
        <ele>794</ele>
        <time>2019-05-18T15:24:36Z</time>
      </trkpt>
      <trkpt lat="45.59628" lon="2.24151">
        <ele>794</ele>
        <time>2019-05-18T15:24:37Z</time>
      </trkpt>
      <trkpt lat="45.59632" lon="2.24148">
        <ele>794</ele>
        <time>2019-05-18T15:24:38Z</time>
      </trkpt>
      <trkpt lat="45.59636" lon="2.24146">
        <ele>794</ele>
        <time>2019-05-18T15:24:39Z</time>
      </trkpt>
      <trkpt lat="45.59641" lon="2.24144">
        <ele>794</ele>
        <time>2019-05-18T15:24:40Z</time>
      </trkpt>
      <trkpt lat="45.59644" lon="2.24142">
        <ele>795</ele>
        <time>2019-05-18T15:24:41Z</time>
      </trkpt>
      <trkpt lat="45.59648" lon="2.2414">
        <ele>795</ele>
        <time>2019-05-18T15:24:42Z</time>
      </trkpt>
      <trkpt lat="45.59652" lon="2.24138">
        <ele>795</ele>
        <time>2019-05-18T15:24:43Z</time>
      </trkpt>
      <trkpt lat="45.59655" lon="2.24136">
        <ele>795</ele>
        <time>2019-05-18T15:24:44Z</time>
      </trkpt>
      <trkpt lat="45.59659" lon="2.24134">
        <ele>795</ele>
        <time>2019-05-18T15:24:45Z</time>
      </trkpt>
      <trkpt lat="45.59662" lon="2.24133">
        <ele>795</ele>
        <time>2019-05-18T15:24:46Z</time>
      </trkpt>
      <trkpt lat="45.59665" lon="2.24131">
        <ele>796</ele>
        <time>2019-05-18T15:24:47Z</time>
      </trkpt>
      <trkpt lat="45.59668" lon="2.24129">
        <ele>796</ele>
        <time>2019-05-18T15:24:48Z</time>
      </trkpt>
      <trkpt lat="45.59671" lon="2.24128">
        <ele>796</ele>
        <time>2019-05-18T15:24:49Z</time>
      </trkpt>
      <trkpt lat="45.59674" lon="2.24126">
        <ele>796</ele>
        <time>2019-05-18T15:24:50Z</time>
      </trkpt>
      <trkpt lat="45.59676" lon="2.24124">
        <ele>796</ele>
        <time>2019-05-18T15:24:51Z</time>
      </trkpt>
      <trkpt lat="45.59679" lon="2.24122">
        <ele>796</ele>
        <time>2019-05-18T15:24:52Z</time>
      </trkpt>
      <trkpt lat="45.59682" lon="2.24121">
        <ele>796</ele>
        <time>2019-05-18T15:24:53Z</time>
      </trkpt>
      <trkpt lat="45.59685" lon="2.24119">
        <ele>797</ele>
        <time>2019-05-18T15:24:54Z</time>
      </trkpt>
      <trkpt lat="45.59687" lon="2.24118">
        <ele>797</ele>
        <time>2019-05-18T15:24:55Z</time>
      </trkpt>
      <trkpt lat="45.59689" lon="2.24116">
        <ele>797</ele>
        <time>2019-05-18T15:24:56Z</time>
      </trkpt>
      <trkpt lat="45.59692" lon="2.24115">
        <ele>797</ele>
        <time>2019-05-18T15:24:57Z</time>
      </trkpt>
      <trkpt lat="45.59694" lon="2.24113">
        <ele>797</ele>
        <time>2019-05-18T15:24:58Z</time>
      </trkpt>
      <trkpt lat="45.59697" lon="2.24112">
        <ele>797</ele>
        <time>2019-05-18T15:24:59Z</time>
      </trkpt>
      <trkpt lat="45.59699" lon="2.2411">
        <ele>798</ele>
        <time>2019-05-18T15:25:00Z</time>
      </trkpt>
      <trkpt lat="45.59702" lon="2.24109">
        <ele>798</ele>
        <time>2019-05-18T15:25:01Z</time>
      </trkpt>
      <trkpt lat="45.59704" lon="2.24107">
        <ele>798</ele>
        <time>2019-05-18T15:25:02Z</time>
      </trkpt>
      <trkpt lat="45.59707" lon="2.24104">
        <ele>798</ele>
        <time>2019-05-18T15:25:03Z</time>
      </trkpt>
      <trkpt lat="45.59708" lon="2.24101">
        <ele>798</ele>
        <time>2019-05-18T15:25:04Z</time>
      </trkpt>
      <trkpt lat="45.59709" lon="2.24098">
        <ele>798</ele>
        <time>2019-05-18T15:25:05Z</time>
      </trkpt>
      <trkpt lat="45.5971" lon="2.24095">
        <ele>798</ele>
        <time>2019-05-18T15:25:06Z</time>
      </trkpt>
      <trkpt lat="45.59709" lon="2.24093">
        <ele>798</ele>
        <time>2019-05-18T15:25:07Z</time>
      </trkpt>
      <trkpt lat="45.59708" lon="2.2409">
        <ele>799</ele>
        <time>2019-05-18T15:25:08Z</time>
      </trkpt>
      <trkpt lat="45.59707" lon="2.24089">
        <ele>799</ele>
        <time>2019-05-18T15:25:09Z</time>
      </trkpt>
      <trkpt lat="45.59705" lon="2.24088">
        <ele>799</ele>
        <time>2019-05-18T15:25:10Z</time>
      </trkpt>
      <trkpt lat="45.59703" lon="2.24087">
        <ele>799</ele>
        <time>2019-05-18T15:25:11Z</time>
      </trkpt>
      <trkpt lat="45.59702" lon="2.24086">
        <ele>799</ele>
        <time>2019-05-18T15:25:12Z</time>
      </trkpt>
      <trkpt lat="45.597" lon="2.24085">
        <ele>799</ele>
        <time>2019-05-18T15:25:13Z</time>
      </trkpt>
      <trkpt lat="45.59699" lon="2.24084">
        <ele>800</ele>
        <time>2019-05-18T15:25:14Z</time>
      </trkpt>
      <trkpt lat="45.59697" lon="2.24083">
        <ele>800</ele>
        <time>2019-05-18T15:25:15Z</time>
      </trkpt>
      <trkpt lat="45.59696" lon="2.24082">
        <ele>800</ele>
        <time>2019-05-18T15:25:16Z</time>
      </trkpt>
      <trkpt lat="45.59694" lon="2.24081">
        <ele>800</ele>
        <time>2019-05-18T15:25:17Z</time>
      </trkpt>
      <trkpt lat="45.59693" lon="2.24079">
        <ele>800</ele>
        <time>2019-05-18T15:25:18Z</time>
      </trkpt>
      <trkpt lat="45.59691" lon="2.24078">
        <ele>800</ele>
        <time>2019-05-18T15:25:19Z</time>
      </trkpt>
      <trkpt lat="45.5969" lon="2.24077">
        <ele>800</ele>
        <time>2019-05-18T15:25:20Z</time>
      </trkpt>
      <trkpt lat="45.59689" lon="2.24075">
        <ele>800</ele>
        <time>2019-05-18T15:25:21Z</time>
      </trkpt>
      <trkpt lat="45.59688" lon="2.24073">
        <ele>801</ele>
        <time>2019-05-18T15:25:22Z</time>
      </trkpt>
      <trkpt lat="45.59687" lon="2.24071">
        <ele>801</ele>
        <time>2019-05-18T15:25:23Z</time>
      </trkpt>
      <trkpt lat="45.59686" lon="2.24069">
        <ele>801</ele>
        <time>2019-05-18T15:25:24Z</time>
      </trkpt>
      <trkpt lat="45.59685" lon="2.24067">
        <ele>801</ele>
        <time>2019-05-18T15:25:25Z</time>
      </trkpt>
      <trkpt lat="45.59684" lon="2.24065">
        <ele>801</ele>
        <time>2019-05-18T15:25:26Z</time>
      </trkpt>
      <trkpt lat="45.59684" lon="2.24063">
        <ele>802</ele>
        <time>2019-05-18T15:25:27Z</time>
      </trkpt>
      <trkpt lat="45.59683" lon="2.24061">
        <ele>802</ele>
        <time>2019-05-18T15:25:28Z</time>
      </trkpt>
      <trkpt lat="45.59683" lon="2.24059">
        <ele>802</ele>
        <time>2019-05-18T15:25:29Z</time>
      </trkpt>
      <trkpt lat="45.59683" lon="2.24057">
        <ele>802</ele>
        <time>2019-05-18T15:25:30Z</time>
      </trkpt>
      <trkpt lat="45.59682" lon="2.24055">
        <ele>802</ele>
        <time>2019-05-18T15:25:31Z</time>
      </trkpt>
      <trkpt lat="45.59682" lon="2.24053">
        <ele>803</ele>
        <time>2019-05-18T15:25:32Z</time>
      </trkpt>
      <trkpt lat="45.59682" lon="2.24051">
        <ele>803</ele>
        <time>2019-05-18T15:25:33Z</time>
      </trkpt>
      <trkpt lat="45.59681" lon="2.24049">
        <ele>803</ele>
        <time>2019-05-18T15:25:34Z</time>
      </trkpt>
      <trkpt lat="45.59681" lon="2.24047">
        <ele>803</ele>
        <time>2019-05-18T15:25:35Z</time>
      </trkpt>
      <trkpt lat="45.5968" lon="2.24044">
        <ele>803</ele>
        <time>2019-05-18T15:25:36Z</time>
      </trkpt>
      <trkpt lat="45.5968" lon="2.24042">
        <ele>804</ele>
        <time>2019-05-18T15:25:37Z</time>
      </trkpt>
      <trkpt lat="45.59679" lon="2.2404">
        <ele>804</ele>
        <time>2019-05-18T15:25:38Z</time>
      </trkpt>
      <trkpt lat="45.59678" lon="2.24038">
        <ele>804</ele>
        <time>2019-05-18T15:25:39Z</time>
      </trkpt>
      <trkpt lat="45.59678" lon="2.24036">
        <ele>804</ele>
        <time>2019-05-18T15:25:40Z</time>
      </trkpt>
      <trkpt lat="45.59677" lon="2.24034">
        <ele>804</ele>
        <time>2019-05-18T15:25:41Z</time>
      </trkpt>
      <trkpt lat="45.59677" lon="2.24032">
        <ele>804</ele>
        <time>2019-05-18T15:25:42Z</time>
      </trkpt>
      <trkpt lat="45.59676" lon="2.2403">
        <ele>805</ele>
        <time>2019-05-18T15:25:43Z</time>
      </trkpt>
      <trkpt lat="45.59675" lon="2.24028">
        <ele>805</ele>
        <time>2019-05-18T15:25:44Z</time>
      </trkpt>
      <trkpt lat="45.59675" lon="2.24026">
        <ele>805</ele>
        <time>2019-05-18T15:25:45Z</time>
      </trkpt>
      <trkpt lat="45.59674" lon="2.24025">
        <ele>805</ele>
        <time>2019-05-18T15:25:46Z</time>
      </trkpt>
      <trkpt lat="45.59674" lon="2.24023">
        <ele>806</ele>
        <time>2019-05-18T15:25:47Z</time>
      </trkpt>
      <trkpt lat="45.59673" lon="2.24021">
        <ele>806</ele>
        <time>2019-05-18T15:25:48Z</time>
      </trkpt>
      <trkpt lat="45.59673" lon="2.24019">
        <ele>806</ele>
        <time>2019-05-18T15:25:49Z</time>
      </trkpt>
      <trkpt lat="45.59673" lon="2.24017">
        <ele>806</ele>
        <time>2019-05-18T15:25:50Z</time>
      </trkpt>
      <trkpt lat="45.59672" lon="2.24016">
        <ele>807</ele>
        <time>2019-05-18T15:25:51Z</time>
      </trkpt>
      <trkpt lat="45.59672" lon="2.24014">
        <ele>807</ele>
        <time>2019-05-18T15:25:52Z</time>
      </trkpt>
      <trkpt lat="45.59671" lon="2.24012">
        <ele>807</ele>
        <time>2019-05-18T15:25:53Z</time>
      </trkpt>
      <trkpt lat="45.5967" lon="2.2401">
        <ele>807</ele>
        <time>2019-05-18T15:25:54Z</time>
      </trkpt>
      <trkpt lat="45.5967" lon="2.24009">
        <ele>807</ele>
        <time>2019-05-18T15:25:55Z</time>
      </trkpt>
      <trkpt lat="45.59669" lon="2.24008">
        <ele>808</ele>
        <time>2019-05-18T15:25:56Z</time>
      </trkpt>
      <trkpt lat="45.59668" lon="2.24006">
        <ele>808</ele>
        <time>2019-05-18T15:25:57Z</time>
      </trkpt>
      <trkpt lat="45.59667" lon="2.24005">
        <ele>808</ele>
        <time>2019-05-18T15:25:58Z</time>
      </trkpt>
      <trkpt lat="45.59666" lon="2.24003">
        <ele>808</ele>
        <time>2019-05-18T15:25:59Z</time>
      </trkpt>
      <trkpt lat="45.59666" lon="2.24001">
        <ele>808</ele>
        <time>2019-05-18T15:26:00Z</time>
      </trkpt>
      <trkpt lat="45.59665" lon="2.23999">
        <ele>809</ele>
        <time>2019-05-18T15:26:01Z</time>
      </trkpt>
      <trkpt lat="45.59665" lon="2.23997">
        <ele>809</ele>
        <time>2019-05-18T15:26:02Z</time>
      </trkpt>
      <trkpt lat="45.59664" lon="2.23995">
        <ele>809</ele>
        <time>2019-05-18T15:26:03Z</time>
      </trkpt>
      <trkpt lat="45.59663" lon="2.23993">
        <ele>809</ele>
        <time>2019-05-18T15:26:04Z</time>
      </trkpt>
      <trkpt lat="45.59663" lon="2.23991">
        <ele>809</ele>
        <time>2019-05-18T15:26:05Z</time>
      </trkpt>
      <trkpt lat="45.59662" lon="2.23989">
        <ele>809</ele>
        <time>2019-05-18T15:26:06Z</time>
      </trkpt>
      <trkpt lat="45.59662" lon="2.23987">
        <ele>809</ele>
        <time>2019-05-18T15:26:07Z</time>
      </trkpt>
      <trkpt lat="45.59662" lon="2.23985">
        <ele>810</ele>
        <time>2019-05-18T15:26:08Z</time>
      </trkpt>
      <trkpt lat="45.59662" lon="2.23982">
        <ele>810</ele>
        <time>2019-05-18T15:26:09Z</time>
      </trkpt>
      <trkpt lat="45.59661" lon="2.2398">
        <ele>810</ele>
        <time>2019-05-18T15:26:10Z</time>
      </trkpt>
      <trkpt lat="45.59661" lon="2.23978">
        <ele>810</ele>
        <time>2019-05-18T15:26:11Z</time>
      </trkpt>
      <trkpt lat="45.59661" lon="2.23976">
        <ele>810</ele>
        <time>2019-05-18T15:26:12Z</time>
      </trkpt>
      <trkpt lat="45.59661" lon="2.23974">
        <ele>810</ele>
        <time>2019-05-18T15:26:13Z</time>
      </trkpt>
      <trkpt lat="45.59661" lon="2.23972">
        <ele>810</ele>
        <time>2019-05-18T15:26:14Z</time>
      </trkpt>
      <trkpt lat="45.59661" lon="2.2397">
        <ele>810</ele>
        <time>2019-05-18T15:26:15Z</time>
      </trkpt>
      <trkpt lat="45.59661" lon="2.23968">
        <ele>811</ele>
        <time>2019-05-18T15:26:16Z</time>
      </trkpt>
      <trkpt lat="45.59661" lon="2.23966">
        <ele>811</ele>
        <time>2019-05-18T15:26:17Z</time>
      </trkpt>
      <trkpt lat="45.5966" lon="2.23963">
        <ele>811</ele>
        <time>2019-05-18T15:26:18Z</time>
      </trkpt>
      <trkpt lat="45.5966" lon="2.23961">
        <ele>811</ele>
        <time>2019-05-18T15:26:19Z</time>
      </trkpt>
      <trkpt lat="45.5966" lon="2.23959">
        <ele>811</ele>
        <time>2019-05-18T15:26:20Z</time>
      </trkpt>
      <trkpt lat="45.5966" lon="2.23957">
        <ele>811</ele>
        <time>2019-05-18T15:26:21Z</time>
      </trkpt>
      <trkpt lat="45.5966" lon="2.23955">
        <ele>811</ele>
        <time>2019-05-18T15:26:22Z</time>
      </trkpt>
      <trkpt lat="45.59659" lon="2.23953">
        <ele>811</ele>
        <time>2019-05-18T15:26:23Z</time>
      </trkpt>
      <trkpt lat="45.59659" lon="2.23951">
        <ele>811</ele>
        <time>2019-05-18T15:26:24Z</time>
      </trkpt>
      <trkpt lat="45.59659" lon="2.23949">
        <ele>811</ele>
        <time>2019-05-18T15:26:25Z</time>
      </trkpt>
      <trkpt lat="45.59658" lon="2.23947">
        <ele>812</ele>
        <time>2019-05-18T15:26:26Z</time>
      </trkpt>
      <trkpt lat="45.59658" lon="2.23944">
        <ele>812</ele>
        <time>2019-05-18T15:26:27Z</time>
      </trkpt>
      <trkpt lat="45.59658" lon="2.23942">
        <ele>812</ele>
        <time>2019-05-18T15:26:28Z</time>
      </trkpt>
      <trkpt lat="45.59657" lon="2.2394">
        <ele>812</ele>
        <time>2019-05-18T15:26:29Z</time>
      </trkpt>
      <trkpt lat="45.59657" lon="2.23938">
        <ele>812</ele>
        <time>2019-05-18T15:26:30Z</time>
      </trkpt>
      <trkpt lat="45.59657" lon="2.23935">
        <ele>812</ele>
        <time>2019-05-18T15:26:31Z</time>
      </trkpt>
      <trkpt lat="45.59656" lon="2.23933">
        <ele>812</ele>
        <time>2019-05-18T15:26:32Z</time>
      </trkpt>
      <trkpt lat="45.59656" lon="2.23931">
        <ele>813</ele>
        <time>2019-05-18T15:26:33Z</time>
      </trkpt>
      <trkpt lat="45.59656" lon="2.23929">
        <ele>813</ele>
        <time>2019-05-18T15:26:34Z</time>
      </trkpt>
      <trkpt lat="45.59656" lon="2.23927">
        <ele>813</ele>
        <time>2019-05-18T15:26:35Z</time>
      </trkpt>
      <trkpt lat="45.59656" lon="2.23925">
        <ele>813</ele>
        <time>2019-05-18T15:26:36Z</time>
      </trkpt>
      <trkpt lat="45.59655" lon="2.23922">
        <ele>813</ele>
        <time>2019-05-18T15:26:37Z</time>
      </trkpt>
      <trkpt lat="45.59655" lon="2.2392">
        <ele>813</ele>
        <time>2019-05-18T15:26:38Z</time>
      </trkpt>
      <trkpt lat="45.59656" lon="2.23918">
        <ele>813</ele>
        <time>2019-05-18T15:26:39Z</time>
      </trkpt>
      <trkpt lat="45.59655" lon="2.23916">
        <ele>813</ele>
        <time>2019-05-18T15:26:40Z</time>
      </trkpt>
      <trkpt lat="45.59655" lon="2.23914">
        <ele>813</ele>
        <time>2019-05-18T15:26:41Z</time>
      </trkpt>
      <trkpt lat="45.59655" lon="2.23912">
        <ele>814</ele>
        <time>2019-05-18T15:26:42Z</time>
      </trkpt>
      <trkpt lat="45.59655" lon="2.23909">
        <ele>814</ele>
        <time>2019-05-18T15:26:43Z</time>
      </trkpt>
      <trkpt lat="45.59655" lon="2.23907">
        <ele>814</ele>
        <time>2019-05-18T15:26:44Z</time>
      </trkpt>
      <trkpt lat="45.59655" lon="2.23905">
        <ele>814</ele>
        <time>2019-05-18T15:26:45Z</time>
      </trkpt>
      <trkpt lat="45.59656" lon="2.23903">
        <ele>814</ele>
        <time>2019-05-18T15:26:46Z</time>
      </trkpt>
      <trkpt lat="45.59656" lon="2.23901">
        <ele>814</ele>
        <time>2019-05-18T15:26:47Z</time>
      </trkpt>
      <trkpt lat="45.59655" lon="2.23899">
        <ele>814</ele>
        <time>2019-05-18T15:26:48Z</time>
      </trkpt>
      <trkpt lat="45.59655" lon="2.23897">
        <ele>815</ele>
        <time>2019-05-18T15:26:49Z</time>
      </trkpt>
      <trkpt lat="45.59656" lon="2.23894">
        <ele>815</ele>
        <time>2019-05-18T15:26:50Z</time>
      </trkpt>
      <trkpt lat="45.59656" lon="2.23893">
        <ele>815</ele>
        <time>2019-05-18T15:26:51Z</time>
      </trkpt>
      <trkpt lat="45.59656" lon="2.23891">
        <ele>815</ele>
        <time>2019-05-18T15:26:52Z</time>
      </trkpt>
      <trkpt lat="45.59656" lon="2.23889">
        <ele>815</ele>
        <time>2019-05-18T15:26:53Z</time>
      </trkpt>
      <trkpt lat="45.59656" lon="2.23887">
        <ele>815</ele>
        <time>2019-05-18T15:26:54Z</time>
      </trkpt>
      <trkpt lat="45.59656" lon="2.23884">
        <ele>815</ele>
        <time>2019-05-18T15:26:55Z</time>
      </trkpt>
      <trkpt lat="45.59657" lon="2.23882">
        <ele>816</ele>
        <time>2019-05-18T15:26:56Z</time>
      </trkpt>
      <trkpt lat="45.59657" lon="2.2388">
        <ele>816</ele>
        <time>2019-05-18T15:26:57Z</time>
      </trkpt>
      <trkpt lat="45.59657" lon="2.23877">
        <ele>816</ele>
        <time>2019-05-18T15:26:58Z</time>
      </trkpt>
      <trkpt lat="45.59658" lon="2.23875">
        <ele>816</ele>
        <time>2019-05-18T15:26:59Z</time>
      </trkpt>
      <trkpt lat="45.59658" lon="2.23874">
        <ele>816</ele>
        <time>2019-05-18T15:27:00Z</time>
      </trkpt>
      <trkpt lat="45.59658" lon="2.23871">
        <ele>816</ele>
        <time>2019-05-18T15:27:01Z</time>
      </trkpt>
      <trkpt lat="45.59658" lon="2.23869">
        <ele>816</ele>
        <time>2019-05-18T15:27:02Z</time>
      </trkpt>
      <trkpt lat="45.59658" lon="2.23867">
        <ele>816</ele>
        <time>2019-05-18T15:27:03Z</time>
      </trkpt>
      <trkpt lat="45.59659" lon="2.23865">
        <ele>817</ele>
        <time>2019-05-18T15:27:04Z</time>
      </trkpt>
      <trkpt lat="45.59659" lon="2.23863">
        <ele>817</ele>
        <time>2019-05-18T15:27:05Z</time>
      </trkpt>
      <trkpt lat="45.5966" lon="2.23861">
        <ele>817</ele>
        <time>2019-05-18T15:27:06Z</time>
      </trkpt>
      <trkpt lat="45.5966" lon="2.23859">
        <ele>817</ele>
        <time>2019-05-18T15:27:07Z</time>
      </trkpt>
      <trkpt lat="45.59661" lon="2.23857">
        <ele>817</ele>
        <time>2019-05-18T15:27:08Z</time>
      </trkpt>
      <trkpt lat="45.59661" lon="2.23855">
        <ele>817</ele>
        <time>2019-05-18T15:27:09Z</time>
      </trkpt>
      <trkpt lat="45.59662" lon="2.23853">
        <ele>818</ele>
        <time>2019-05-18T15:27:10Z</time>
      </trkpt>
      <trkpt lat="45.59662" lon="2.23852">
        <ele>818</ele>
        <time>2019-05-18T15:27:11Z</time>
      </trkpt>
      <trkpt lat="45.59663" lon="2.2385">
        <ele>818</ele>
        <time>2019-05-18T15:27:12Z</time>
      </trkpt>
      <trkpt lat="45.59663" lon="2.23847">
        <ele>819</ele>
        <time>2019-05-18T15:27:13Z</time>
      </trkpt>
      <trkpt lat="45.59663" lon="2.23845">
        <ele>819</ele>
        <time>2019-05-18T15:27:14Z</time>
      </trkpt>
      <trkpt lat="45.59664" lon="2.23843">
        <ele>819</ele>
        <time>2019-05-18T15:27:15Z</time>
      </trkpt>
      <trkpt lat="45.59664" lon="2.23841">
        <ele>819</ele>
        <time>2019-05-18T15:27:16Z</time>
      </trkpt>
      <trkpt lat="45.59664" lon="2.23839">
        <ele>819</ele>
        <time>2019-05-18T15:27:17Z</time>
      </trkpt>
      <trkpt lat="45.59664" lon="2.23838">
        <ele>819</ele>
        <time>2019-05-18T15:27:18Z</time>
      </trkpt>
      <trkpt lat="45.59664" lon="2.23836">
        <ele>820</ele>
        <time>2019-05-18T15:27:19Z</time>
      </trkpt>
      <trkpt lat="45.59664" lon="2.23834">
        <ele>820</ele>
        <time>2019-05-18T15:27:20Z</time>
      </trkpt>
      <trkpt lat="45.59665" lon="2.23832">
        <ele>820</ele>
        <time>2019-05-18T15:27:21Z</time>
      </trkpt>
      <trkpt lat="45.59665" lon="2.2383">
        <ele>820</ele>
        <time>2019-05-18T15:27:22Z</time>
      </trkpt>
      <trkpt lat="45.59665" lon="2.23829">
        <ele>820</ele>
        <time>2019-05-18T15:27:23Z</time>
      </trkpt>
      <trkpt lat="45.59666" lon="2.23827">
        <ele>821</ele>
        <time>2019-05-18T15:27:24Z</time>
      </trkpt>
      <trkpt lat="45.59666" lon="2.23825">
        <ele>821</ele>
        <time>2019-05-18T15:27:25Z</time>
      </trkpt>
      <trkpt lat="45.59666" lon="2.23823">
        <ele>821</ele>
        <time>2019-05-18T15:27:26Z</time>
      </trkpt>
      <trkpt lat="45.59666" lon="2.23822">
        <ele>821</ele>
        <time>2019-05-18T15:27:27Z</time>
      </trkpt>
      <trkpt lat="45.59667" lon="2.23821">
        <ele>821</ele>
        <time>2019-05-18T15:27:28Z</time>
      </trkpt>
      <trkpt lat="45.59667" lon="2.23819">
        <ele>821</ele>
        <time>2019-05-18T15:27:29Z</time>
      </trkpt>
      <trkpt lat="45.59668" lon="2.23818">
        <ele>822</ele>
        <time>2019-05-18T15:27:30Z</time>
      </trkpt>
      <trkpt lat="45.59668" lon="2.23817">
        <ele>822</ele>
        <time>2019-05-18T15:27:31Z</time>
      </trkpt>
      <trkpt lat="45.59668" lon="2.23816">
        <ele>822</ele>
        <time>2019-05-18T15:27:32Z</time>
      </trkpt>
      <trkpt lat="45.59668" lon="2.23814">
        <ele>822</ele>
        <time>2019-05-18T15:27:33Z</time>
      </trkpt>
      <trkpt lat="45.59668" lon="2.23813">
        <ele>822</ele>
        <time>2019-05-18T15:27:34Z</time>
      </trkpt>
      <trkpt lat="45.59668" lon="2.23811">
        <ele>823</ele>
        <time>2019-05-18T15:27:35Z</time>
      </trkpt>
      <trkpt lat="45.59669" lon="2.2381">
        <ele>823</ele>
        <time>2019-05-18T15:27:36Z</time>
      </trkpt>
      <trkpt lat="45.59669" lon="2.23808">
        <ele>823</ele>
        <time>2019-05-18T15:27:37Z</time>
      </trkpt>
      <trkpt lat="45.59669" lon="2.23807">
        <ele>823</ele>
        <time>2019-05-18T15:27:38Z</time>
      </trkpt>
      <trkpt lat="45.59669" lon="2.23805">
        <ele>823</ele>
        <time>2019-05-18T15:27:39Z</time>
      </trkpt>
      <trkpt lat="45.59669" lon="2.23804">
        <ele>824</ele>
        <time>2019-05-18T15:27:40Z</time>
      </trkpt>
      <trkpt lat="45.59669" lon="2.23803">
        <ele>824</ele>
        <time>2019-05-18T15:27:41Z</time>
      </trkpt>
      <trkpt lat="45.59669" lon="2.23802">
        <ele>824</ele>
        <time>2019-05-18T15:27:42Z</time>
      </trkpt>
      <trkpt lat="45.59669" lon="2.238">
        <ele>824</ele>
        <time>2019-05-18T15:27:43Z</time>
      </trkpt>
      <trkpt lat="45.5967" lon="2.23798">
        <ele>824</ele>
        <time>2019-05-18T15:27:44Z</time>
      </trkpt>
      <trkpt lat="45.5967" lon="2.23796">
        <ele>824</ele>
        <time>2019-05-18T15:27:45Z</time>
      </trkpt>
      <trkpt lat="45.5967" lon="2.23794">
        <ele>824</ele>
        <time>2019-05-18T15:27:46Z</time>
      </trkpt>
      <trkpt lat="45.5967" lon="2.23793">
        <ele>825</ele>
        <time>2019-05-18T15:27:47Z</time>
      </trkpt>
      <trkpt lat="45.5967" lon="2.23791">
        <ele>825</ele>
        <time>2019-05-18T15:27:48Z</time>
      </trkpt>
      <trkpt lat="45.59671" lon="2.2379">
        <ele>825</ele>
        <time>2019-05-18T15:27:49Z</time>
      </trkpt>
      <trkpt lat="45.59672" lon="2.23788">
        <ele>825</ele>
        <time>2019-05-18T15:27:50Z</time>
      </trkpt>
      <trkpt lat="45.59672" lon="2.23787">
        <ele>825</ele>
        <time>2019-05-18T15:27:51Z</time>
      </trkpt>
      <trkpt lat="45.59673" lon="2.23786">
        <ele>825</ele>
        <time>2019-05-18T15:27:52Z</time>
      </trkpt>
      <trkpt lat="45.59674" lon="2.23784">
        <ele>825</ele>
        <time>2019-05-18T15:27:53Z</time>
      </trkpt>
      <trkpt lat="45.59675" lon="2.23781">
        <ele>826</ele>
        <time>2019-05-18T15:27:54Z</time>
      </trkpt>
      <trkpt lat="45.59676" lon="2.23777">
        <ele>826</ele>
        <time>2019-05-18T15:27:55Z</time>
      </trkpt>
      <trkpt lat="45.59677" lon="2.23771">
        <ele>826</ele>
        <time>2019-05-18T15:27:56Z</time>
      </trkpt>
      <trkpt lat="45.59678" lon="2.23769">
        <ele>826</ele>
        <time>2019-05-18T15:27:58Z</time>
      </trkpt>
      <trkpt lat="45.59678" lon="2.23767">
        <ele>826</ele>
        <time>2019-05-18T15:27:59Z</time>
      </trkpt>
      <trkpt lat="45.59679" lon="2.23766">
        <ele>826</ele>
        <time>2019-05-18T15:28:00Z</time>
      </trkpt>
      <trkpt lat="45.5968" lon="2.23763">
        <ele>826</ele>
        <time>2019-05-18T15:28:01Z</time>
      </trkpt>
      <trkpt lat="45.5968" lon="2.2376">
        <ele>827</ele>
        <time>2019-05-18T15:28:02Z</time>
      </trkpt>
      <trkpt lat="45.5968" lon="2.23758">
        <ele>827</ele>
        <time>2019-05-18T15:28:03Z</time>
      </trkpt>
      <trkpt lat="45.59681" lon="2.23756">
        <ele>827</ele>
        <time>2019-05-18T15:28:04Z</time>
      </trkpt>
      <trkpt lat="45.59681" lon="2.23754">
        <ele>827</ele>
        <time>2019-05-18T15:28:05Z</time>
      </trkpt>
      <trkpt lat="45.59681" lon="2.23752">
        <ele>827</ele>
        <time>2019-05-18T15:28:06Z</time>
      </trkpt>
      <trkpt lat="45.59681" lon="2.23749">
        <ele>827</ele>
        <time>2019-05-18T15:28:07Z</time>
      </trkpt>
      <trkpt lat="45.59681" lon="2.23747">
        <ele>828</ele>
        <time>2019-05-18T15:28:08Z</time>
      </trkpt>
      <trkpt lat="45.59681" lon="2.23744">
        <ele>828</ele>
        <time>2019-05-18T15:28:09Z</time>
      </trkpt>
      <trkpt lat="45.59681" lon="2.23742">
        <ele>828</ele>
        <time>2019-05-18T15:28:10Z</time>
      </trkpt>
      <trkpt lat="45.59681" lon="2.2374">
        <ele>828</ele>
        <time>2019-05-18T15:28:11Z</time>
      </trkpt>
      <trkpt lat="45.59681" lon="2.23738">
        <ele>828</ele>
        <time>2019-05-18T15:28:12Z</time>
      </trkpt>
      <trkpt lat="45.5968" lon="2.23736">
        <ele>828</ele>
        <time>2019-05-18T15:28:13Z</time>
      </trkpt>
      <trkpt lat="45.5968" lon="2.23734">
        <ele>828</ele>
        <time>2019-05-18T15:28:14Z</time>
      </trkpt>
      <trkpt lat="45.59681" lon="2.23733">
        <ele>829</ele>
        <time>2019-05-18T15:28:15Z</time>
      </trkpt>
      <trkpt lat="45.59681" lon="2.23732">
        <ele>829</ele>
        <time>2019-05-18T15:28:16Z</time>
      </trkpt>
      <trkpt lat="45.59681" lon="2.2373">
        <ele>829</ele>
        <time>2019-05-18T15:28:17Z</time>
      </trkpt>
      <trkpt lat="45.59681" lon="2.23728">
        <ele>829</ele>
        <time>2019-05-18T15:28:18Z</time>
      </trkpt>
      <trkpt lat="45.59681" lon="2.23727">
        <ele>829</ele>
        <time>2019-05-18T15:28:19Z</time>
      </trkpt>
      <trkpt lat="45.59681" lon="2.23726">
        <ele>830</ele>
        <time>2019-05-18T15:28:20Z</time>
      </trkpt>
      <trkpt lat="45.59681" lon="2.23724">
        <ele>830</ele>
        <time>2019-05-18T15:28:21Z</time>
      </trkpt>
      <trkpt lat="45.59681" lon="2.23723">
        <ele>830</ele>
        <time>2019-05-18T15:28:22Z</time>
      </trkpt>
      <trkpt lat="45.59681" lon="2.23721">
        <ele>830</ele>
        <time>2019-05-18T15:28:23Z</time>
      </trkpt>
      <trkpt lat="45.59682" lon="2.23719">
        <ele>830</ele>
        <time>2019-05-18T15:28:24Z</time>
      </trkpt>
      <trkpt lat="45.59682" lon="2.23715">
        <ele>830</ele>
        <time>2019-05-18T15:28:25Z</time>
      </trkpt>
      <trkpt lat="45.59682" lon="2.23714">
        <ele>831</ele>
        <time>2019-05-18T15:28:27Z</time>
      </trkpt>
      <trkpt lat="45.59682" lon="2.23713">
        <ele>831</ele>
        <time>2019-05-18T15:28:28Z</time>
      </trkpt>
      <trkpt lat="45.59682" lon="2.23712">
        <ele>831</ele>
        <time>2019-05-18T15:28:29Z</time>
      </trkpt>
      <trkpt lat="45.59682" lon="2.23711">
        <ele>831</ele>
        <time>2019-05-18T15:28:30Z</time>
      </trkpt>
      <trkpt lat="45.59681" lon="2.23708">
        <ele>831</ele>
        <time>2019-05-18T15:28:31Z</time>
      </trkpt>
      <trkpt lat="45.59681" lon="2.23706">
        <ele>831</ele>
        <time>2019-05-18T15:28:32Z</time>
      </trkpt>
      <trkpt lat="45.59681" lon="2.23703">
        <ele>831</ele>
        <time>2019-05-18T15:28:33Z</time>
      </trkpt>
      <trkpt lat="45.59681" lon="2.23701">
        <ele>832</ele>
        <time>2019-05-18T15:28:34Z</time>
      </trkpt>
      <trkpt lat="45.59681" lon="2.23699">
        <ele>832</ele>
        <time>2019-05-18T15:28:35Z</time>
      </trkpt>
      <trkpt lat="45.59681" lon="2.23697">
        <ele>832</ele>
        <time>2019-05-18T15:28:36Z</time>
      </trkpt>
      <trkpt lat="45.59681" lon="2.23696">
        <ele>832</ele>
        <time>2019-05-18T15:28:37Z</time>
      </trkpt>
      <trkpt lat="45.59681" lon="2.23694">
        <ele>832</ele>
        <time>2019-05-18T15:28:38Z</time>
      </trkpt>
      <trkpt lat="45.59681" lon="2.23693">
        <ele>832</ele>
        <time>2019-05-18T15:28:39Z</time>
      </trkpt>
      <trkpt lat="45.59682" lon="2.23692">
        <ele>833</ele>
        <time>2019-05-18T15:28:40Z</time>
      </trkpt>
      <trkpt lat="45.59682" lon="2.2369">
        <ele>833</ele>
        <time>2019-05-18T15:28:41Z</time>
      </trkpt>
      <trkpt lat="45.59683" lon="2.23688">
        <ele>833</ele>
        <time>2019-05-18T15:28:42Z</time>
      </trkpt>
      <trkpt lat="45.59682" lon="2.23685">
        <ele>833</ele>
        <time>2019-05-18T15:28:43Z</time>
      </trkpt>
      <trkpt lat="45.59684" lon="2.23685">
        <ele>833</ele>
        <time>2019-05-18T15:28:44Z</time>
      </trkpt>
      <trkpt lat="45.59685" lon="2.23684">
        <ele>833</ele>
        <time>2019-05-18T15:28:45Z</time>
      </trkpt>
      <trkpt lat="45.59686" lon="2.23683">
        <ele>833</ele>
        <time>2019-05-18T15:28:46Z</time>
      </trkpt>
      <trkpt lat="45.59686" lon="2.23682">
        <ele>834</ele>
        <time>2019-05-18T15:28:47Z</time>
      </trkpt>
      <trkpt lat="45.59687" lon="2.2368">
        <ele>834</ele>
        <time>2019-05-18T15:28:48Z</time>
      </trkpt>
      <trkpt lat="45.59686" lon="2.23678">
        <ele>834</ele>
        <time>2019-05-18T15:28:49Z</time>
      </trkpt>
      <trkpt lat="45.59687" lon="2.23675">
        <ele>834</ele>
        <time>2019-05-18T15:28:50Z</time>
      </trkpt>
      <trkpt lat="45.59688" lon="2.23674">
        <ele>834</ele>
        <time>2019-05-18T15:28:51Z</time>
      </trkpt>
      <trkpt lat="45.59688" lon="2.23669">
        <ele>834</ele>
        <time>2019-05-18T15:28:52Z</time>
      </trkpt>
      <trkpt lat="45.59688" lon="2.23666">
        <ele>835</ele>
        <time>2019-05-18T15:28:54Z</time>
      </trkpt>
      <trkpt lat="45.59688" lon="2.23663">
        <ele>835</ele>
        <time>2019-05-18T15:28:55Z</time>
      </trkpt>
      <trkpt lat="45.59686" lon="2.23659">
        <ele>835</ele>
        <time>2019-05-18T15:28:56Z</time>
      </trkpt>
      <trkpt lat="45.59686" lon="2.23656">
        <ele>835</ele>
        <time>2019-05-18T15:28:57Z</time>
      </trkpt>
      <trkpt lat="45.59685" lon="2.23654">
        <ele>836</ele>
        <time>2019-05-18T15:28:58Z</time>
      </trkpt>
      <trkpt lat="45.59685" lon="2.23652">
        <ele>836</ele>
        <time>2019-05-18T15:28:59Z</time>
      </trkpt>
      <trkpt lat="45.59686" lon="2.2365">
        <ele>836</ele>
        <time>2019-05-18T15:29:00Z</time>
      </trkpt>
      <trkpt lat="45.59686" lon="2.23648">
        <ele>836</ele>
        <time>2019-05-18T15:29:01Z</time>
      </trkpt>
      <trkpt lat="45.59686" lon="2.23647">
        <ele>836</ele>
        <time>2019-05-18T15:29:02Z</time>
      </trkpt>
      <trkpt lat="45.59686" lon="2.23644">
        <ele>836</ele>
        <time>2019-05-18T15:29:03Z</time>
      </trkpt>
      <trkpt lat="45.59686" lon="2.23642">
        <ele>837</ele>
        <time>2019-05-18T15:29:04Z</time>
      </trkpt>
      <trkpt lat="45.59685" lon="2.23639">
        <ele>837</ele>
        <time>2019-05-18T15:29:05Z</time>
      </trkpt>
      <trkpt lat="45.59685" lon="2.23638">
        <ele>837</ele>
        <time>2019-05-18T15:29:06Z</time>
      </trkpt>
      <trkpt lat="45.59684" lon="2.23635">
        <ele>837</ele>
        <time>2019-05-18T15:29:07Z</time>
      </trkpt>
      <trkpt lat="45.59684" lon="2.23633">
        <ele>838</ele>
        <time>2019-05-18T15:29:08Z</time>
      </trkpt>
      <trkpt lat="45.59685" lon="2.23631">
        <ele>838</ele>
        <time>2019-05-18T15:29:09Z</time>
      </trkpt>
      <trkpt lat="45.59684" lon="2.2363">
        <ele>838</ele>
        <time>2019-05-18T15:29:10Z</time>
      </trkpt>
      <trkpt lat="45.59684" lon="2.23628">
        <ele>838</ele>
        <time>2019-05-18T15:29:11Z</time>
      </trkpt>
      <trkpt lat="45.59684" lon="2.23626">
        <ele>839</ele>
        <time>2019-05-18T15:29:12Z</time>
      </trkpt>
      <trkpt lat="45.59684" lon="2.23623">
        <ele>839</ele>
        <time>2019-05-18T15:29:13Z</time>
      </trkpt>
      <trkpt lat="45.59684" lon="2.2362">
        <ele>839</ele>
        <time>2019-05-18T15:29:14Z</time>
      </trkpt>
      <trkpt lat="45.59683" lon="2.23618">
        <ele>840</ele>
        <time>2019-05-18T15:29:15Z</time>
      </trkpt>
      <trkpt lat="45.59683" lon="2.23615">
        <ele>840</ele>
        <time>2019-05-18T15:29:16Z</time>
      </trkpt>
      <trkpt lat="45.59683" lon="2.23612">
        <ele>840</ele>
        <time>2019-05-18T15:29:17Z</time>
      </trkpt>
      <trkpt lat="45.59682" lon="2.23607">
        <ele>840</ele>
        <time>2019-05-18T15:29:18Z</time>
      </trkpt>
      <trkpt lat="45.59681" lon="2.23605">
        <ele>840</ele>
        <time>2019-05-18T15:29:19Z</time>
      </trkpt>
      <trkpt lat="45.59681" lon="2.23602">
        <ele>841</ele>
        <time>2019-05-18T15:29:20Z</time>
      </trkpt>
      <trkpt lat="45.5968" lon="2.23601">
        <ele>841</ele>
        <time>2019-05-18T15:29:21Z</time>
      </trkpt>
      <trkpt lat="45.5968" lon="2.23598">
        <ele>841</ele>
        <time>2019-05-18T15:29:23Z</time>
      </trkpt>
      <trkpt lat="45.59679" lon="2.23596">
        <ele>842</ele>
        <time>2019-05-18T15:29:24Z</time>
      </trkpt>
      <trkpt lat="45.59679" lon="2.23593">
        <ele>842</ele>
        <time>2019-05-18T15:29:25Z</time>
      </trkpt>
      <trkpt lat="45.5968" lon="2.2359">
        <ele>842</ele>
        <time>2019-05-18T15:29:27Z</time>
      </trkpt>
      <trkpt lat="45.5968" lon="2.23588">
        <ele>842</ele>
        <time>2019-05-18T15:29:28Z</time>
      </trkpt>
      <trkpt lat="45.5968" lon="2.23586">
        <ele>843</ele>
        <time>2019-05-18T15:29:30Z</time>
      </trkpt>
      <trkpt lat="45.59679" lon="2.23584">
        <ele>843</ele>
        <time>2019-05-18T15:29:31Z</time>
      </trkpt>
      <trkpt lat="45.59679" lon="2.23581">
        <ele>843</ele>
        <time>2019-05-18T15:29:32Z</time>
      </trkpt>
      <trkpt lat="45.59679" lon="2.23578">
        <ele>843</ele>
        <time>2019-05-18T15:29:33Z</time>
      </trkpt>
      <trkpt lat="45.59678" lon="2.23576">
        <ele>844</ele>
        <time>2019-05-18T15:29:34Z</time>
      </trkpt>
      <trkpt lat="45.59678" lon="2.23574">
        <ele>844</ele>
        <time>2019-05-18T15:29:35Z</time>
      </trkpt>
      <trkpt lat="45.59678" lon="2.23572">
        <ele>844</ele>
        <time>2019-05-18T15:29:36Z</time>
      </trkpt>
      <trkpt lat="45.59676" lon="2.23569">
        <ele>844</ele>
        <time>2019-05-18T15:29:37Z</time>
      </trkpt>
      <trkpt lat="45.59675" lon="2.23566">
        <ele>844</ele>
        <time>2019-05-18T15:29:38Z</time>
      </trkpt>
      <trkpt lat="45.59673" lon="2.23563">
        <ele>844</ele>
        <time>2019-05-18T15:29:39Z</time>
      </trkpt>
      <trkpt lat="45.59672" lon="2.23561">
        <ele>845</ele>
        <time>2019-05-18T15:29:40Z</time>
      </trkpt>
      <trkpt lat="45.59671" lon="2.23559">
        <ele>845</ele>
        <time>2019-05-18T15:29:41Z</time>
      </trkpt>
      <trkpt lat="45.59671" lon="2.23557">
        <ele>845</ele>
        <time>2019-05-18T15:29:42Z</time>
      </trkpt>
      <trkpt lat="45.5967" lon="2.23554">
        <ele>845</ele>
        <time>2019-05-18T15:29:43Z</time>
      </trkpt>
      <trkpt lat="45.59669" lon="2.23553">
        <ele>845</ele>
        <time>2019-05-18T15:29:44Z</time>
      </trkpt>
      <trkpt lat="45.59669" lon="2.2355">
        <ele>846</ele>
        <time>2019-05-18T15:29:45Z</time>
      </trkpt>
      <trkpt lat="45.59668" lon="2.2355">
        <ele>846</ele>
        <time>2019-05-18T15:29:46Z</time>
      </trkpt>
      <trkpt lat="45.59667" lon="2.23549">
        <ele>846</ele>
        <time>2019-05-18T15:29:48Z</time>
      </trkpt>
      <trkpt lat="45.59668" lon="2.23544">
        <ele>847</ele>
        <time>2019-05-18T15:29:49Z</time>
      </trkpt>
      <trkpt lat="45.59668" lon="2.23543">
        <ele>847</ele>
        <time>2019-05-18T15:29:50Z</time>
      </trkpt>
      <trkpt lat="45.59668" lon="2.23541">
        <ele>847</ele>
        <time>2019-05-18T15:29:51Z</time>
      </trkpt>
      <trkpt lat="45.59667" lon="2.23538">
        <ele>848</ele>
        <time>2019-05-18T15:29:53Z</time>
      </trkpt>
      <trkpt lat="45.59666" lon="2.23535">
        <ele>848</ele>
        <time>2019-05-18T15:29:54Z</time>
      </trkpt>
      <trkpt lat="45.59667" lon="2.23533">
        <ele>848</ele>
        <time>2019-05-18T15:29:55Z</time>
      </trkpt>
      <trkpt lat="45.59667" lon="2.23531">
        <ele>848</ele>
        <time>2019-05-18T15:29:56Z</time>
      </trkpt>
      <trkpt lat="45.59666" lon="2.23527">
        <ele>849</ele>
        <time>2019-05-18T15:29:58Z</time>
      </trkpt>
      <trkpt lat="45.59666" lon="2.23526">
        <ele>849</ele>
        <time>2019-05-18T15:29:59Z</time>
      </trkpt>
      <trkpt lat="45.59667" lon="2.23525">
        <ele>849</ele>
        <time>2019-05-18T15:30:00Z</time>
      </trkpt>
      <trkpt lat="45.59667" lon="2.23524">
        <ele>849</ele>
        <time>2019-05-18T15:30:01Z</time>
      </trkpt>
      <trkpt lat="45.59667" lon="2.23523">
        <ele>849</ele>
        <time>2019-05-18T15:30:02Z</time>
      </trkpt>
      <trkpt lat="45.59667" lon="2.23521">
        <ele>850</ele>
        <time>2019-05-18T15:30:03Z</time>
      </trkpt>
      <trkpt lat="45.59667" lon="2.2352">
        <ele>850</ele>
        <time>2019-05-18T15:30:04Z</time>
      </trkpt>
      <trkpt lat="45.59667" lon="2.23518">
        <ele>850</ele>
        <time>2019-05-18T15:30:05Z</time>
      </trkpt>
      <trkpt lat="45.59655" lon="2.23449">
        <ele>859</ele>
        <time>2019-05-18T15:30:54Z</time>
      </trkpt>
      <trkpt lat="45.59654" lon="2.23448">
        <ele>859</ele>
        <time>2019-05-18T15:30:55Z</time>
      </trkpt>
      <trkpt lat="45.59654" lon="2.23447">
        <ele>859</ele>
        <time>2019-05-18T15:30:56Z</time>
      </trkpt>
      <trkpt lat="45.59653" lon="2.23445">
        <ele>859</ele>
        <time>2019-05-18T15:30:57Z</time>
      </trkpt>
      <trkpt lat="45.59651" lon="2.23443">
        <ele>859</ele>
        <time>2019-05-18T15:30:58Z</time>
      </trkpt>
      <trkpt lat="45.5965" lon="2.23442">
        <ele>859</ele>
        <time>2019-05-18T15:30:59Z</time>
      </trkpt>
      <trkpt lat="45.59648" lon="2.23438">
        <ele>859</ele>
        <time>2019-05-18T15:31:01Z</time>
      </trkpt>
      <trkpt lat="45.59647" lon="2.23437">
        <ele>859</ele>
        <time>2019-05-18T15:31:02Z</time>
      </trkpt>
      <trkpt lat="45.59646" lon="2.23436">
        <ele>859</ele>
        <time>2019-05-18T15:31:03Z</time>
      </trkpt>
      <trkpt lat="45.59646" lon="2.23435">
        <ele>859</ele>
        <time>2019-05-18T15:31:04Z</time>
      </trkpt>
      <trkpt lat="45.59644" lon="2.23431">
        <ele>859</ele>
        <time>2019-05-18T15:31:06Z</time>
      </trkpt>
      <trkpt lat="45.59643" lon="2.2343">
        <ele>859</ele>
        <time>2019-05-18T15:31:07Z</time>
      </trkpt>
      <trkpt lat="45.59639" lon="2.23425">
        <ele>859</ele>
        <time>2019-05-18T15:31:09Z</time>
      </trkpt>
      <trkpt lat="45.59638" lon="2.23424">
        <ele>860</ele>
        <time>2019-05-18T15:31:10Z</time>
      </trkpt>
      <trkpt lat="45.59636" lon="2.23422">
        <ele>860</ele>
        <time>2019-05-18T15:31:11Z</time>
      </trkpt>
      <trkpt lat="45.59633" lon="2.23419">
        <ele>860</ele>
        <time>2019-05-18T15:31:13Z</time>
      </trkpt>
      <trkpt lat="45.59632" lon="2.23417">
        <ele>860</ele>
        <time>2019-05-18T15:31:14Z</time>
      </trkpt>
      <trkpt lat="45.59631" lon="2.23415">
        <ele>860</ele>
        <time>2019-05-18T15:31:15Z</time>
      </trkpt>
      <trkpt lat="45.59629" lon="2.23413">
        <ele>860</ele>
        <time>2019-05-18T15:31:16Z</time>
      </trkpt>
      <trkpt lat="45.59627" lon="2.23412">
        <ele>860</ele>
        <time>2019-05-18T15:31:18Z</time>
      </trkpt>
      <trkpt lat="45.59626" lon="2.2341">
        <ele>860</ele>
        <time>2019-05-18T15:31:19Z</time>
      </trkpt>
      <trkpt lat="45.59625" lon="2.23409">
        <ele>860</ele>
        <time>2019-05-18T15:31:20Z</time>
      </trkpt>
      <trkpt lat="45.59624" lon="2.23408">
        <ele>860</ele>
        <time>2019-05-18T15:31:21Z</time>
      </trkpt>
      <trkpt lat="45.59622" lon="2.23406">
        <ele>860</ele>
        <time>2019-05-18T15:31:22Z</time>
      </trkpt>
      <trkpt lat="45.59619" lon="2.23404">
        <ele>860</ele>
        <time>2019-05-18T15:31:23Z</time>
      </trkpt>
      <trkpt lat="45.59617" lon="2.23402">
        <ele>860</ele>
        <time>2019-05-18T15:31:24Z</time>
      </trkpt>
      <trkpt lat="45.59615" lon="2.234">
        <ele>860</ele>
        <time>2019-05-18T15:31:25Z</time>
      </trkpt>
      <trkpt lat="45.59613" lon="2.23398">
        <ele>860</ele>
        <time>2019-05-18T15:31:26Z</time>
      </trkpt>
      <trkpt lat="45.59612" lon="2.23396">
        <ele>860</ele>
        <time>2019-05-18T15:31:27Z</time>
      </trkpt>
      <trkpt lat="45.59611" lon="2.23393">
        <ele>860</ele>
        <time>2019-05-18T15:31:28Z</time>
      </trkpt>
      <trkpt lat="45.5961" lon="2.2339">
        <ele>860</ele>
        <time>2019-05-18T15:31:29Z</time>
      </trkpt>
      <trkpt lat="45.59606" lon="2.23385">
        <ele>859</ele>
        <time>2019-05-18T15:31:30Z</time>
      </trkpt>
      <trkpt lat="45.59604" lon="2.23384">
        <ele>859</ele>
        <time>2019-05-18T15:31:31Z</time>
      </trkpt>
      <trkpt lat="45.59602" lon="2.23381">
        <ele>859</ele>
        <time>2019-05-18T15:31:33Z</time>
      </trkpt>
      <trkpt lat="45.596" lon="2.23378">
        <ele>859</ele>
        <time>2019-05-18T15:31:34Z</time>
      </trkpt>
      <trkpt lat="45.59595" lon="2.23375">
        <ele>859</ele>
        <time>2019-05-18T15:31:35Z</time>
      </trkpt>
      <trkpt lat="45.59593" lon="2.23372">
        <ele>859</ele>
        <time>2019-05-18T15:31:36Z</time>
      </trkpt>
      <trkpt lat="45.59591" lon="2.2337">
        <ele>859</ele>
        <time>2019-05-18T15:31:37Z</time>
      </trkpt>
      <trkpt lat="45.59588" lon="2.23368">
        <ele>859</ele>
        <time>2019-05-18T15:31:38Z</time>
      </trkpt>
      <trkpt lat="45.59585" lon="2.23365">
        <ele>859</ele>
        <time>2019-05-18T15:31:39Z</time>
      </trkpt>
      <trkpt lat="45.59583" lon="2.23362">
        <ele>859</ele>
        <time>2019-05-18T15:31:40Z</time>
      </trkpt>
      <trkpt lat="45.5958" lon="2.2336">
        <ele>859</ele>
        <time>2019-05-18T15:31:41Z</time>
      </trkpt>
      <trkpt lat="45.59578" lon="2.23357">
        <ele>859</ele>
        <time>2019-05-18T15:31:43Z</time>
      </trkpt>
      <trkpt lat="45.59575" lon="2.23354">
        <ele>858</ele>
        <time>2019-05-18T15:31:44Z</time>
      </trkpt>
      <trkpt lat="45.59573" lon="2.23352">
        <ele>858</ele>
        <time>2019-05-18T15:31:45Z</time>
      </trkpt>
      <trkpt lat="45.59571" lon="2.2335">
        <ele>858</ele>
        <time>2019-05-18T15:31:46Z</time>
      </trkpt>
      <trkpt lat="45.59568" lon="2.23347">
        <ele>858</ele>
        <time>2019-05-18T15:31:47Z</time>
      </trkpt>
      <trkpt lat="45.59565" lon="2.23344">
        <ele>858</ele>
        <time>2019-05-18T15:31:48Z</time>
      </trkpt>
      <trkpt lat="45.59563" lon="2.2334">
        <ele>858</ele>
        <time>2019-05-18T15:31:49Z</time>
      </trkpt>
      <trkpt lat="45.59559" lon="2.23335">
        <ele>858</ele>
        <time>2019-05-18T15:31:50Z</time>
      </trkpt>
      <trkpt lat="45.59558" lon="2.23332">
        <ele>858</ele>
        <time>2019-05-18T15:31:51Z</time>
      </trkpt>
      <trkpt lat="45.59555" lon="2.23329">
        <ele>858</ele>
        <time>2019-05-18T15:31:52Z</time>
      </trkpt>
      <trkpt lat="45.59553" lon="2.23327">
        <ele>858</ele>
        <time>2019-05-18T15:31:53Z</time>
      </trkpt>
      <trkpt lat="45.5955" lon="2.23324">
        <ele>858</ele>
        <time>2019-05-18T15:31:54Z</time>
      </trkpt>
      <trkpt lat="45.59548" lon="2.23321">
        <ele>858</ele>
        <time>2019-05-18T15:31:55Z</time>
      </trkpt>
      <trkpt lat="45.59546" lon="2.23318">
        <ele>858</ele>
        <time>2019-05-18T15:31:56Z</time>
      </trkpt>
      <trkpt lat="45.59543" lon="2.23316">
        <ele>858</ele>
        <time>2019-05-18T15:31:57Z</time>
      </trkpt>
      <trkpt lat="45.59541" lon="2.23315">
        <ele>858</ele>
        <time>2019-05-18T15:31:58Z</time>
      </trkpt>
      <trkpt lat="45.59539" lon="2.23313">
        <ele>858</ele>
        <time>2019-05-18T15:31:59Z</time>
      </trkpt>
      <trkpt lat="45.59536" lon="2.23311">
        <ele>858</ele>
        <time>2019-05-18T15:32:01Z</time>
      </trkpt>
      <trkpt lat="45.59534" lon="2.2331">
        <ele>858</ele>
        <time>2019-05-18T15:32:02Z</time>
      </trkpt>
      <trkpt lat="45.59531" lon="2.23308">
        <ele>858</ele>
        <time>2019-05-18T15:32:03Z</time>
      </trkpt>
      <trkpt lat="45.59529" lon="2.23305">
        <ele>858</ele>
        <time>2019-05-18T15:32:04Z</time>
      </trkpt>
      <trkpt lat="45.59527" lon="2.23304">
        <ele>859</ele>
        <time>2019-05-18T15:32:05Z</time>
      </trkpt>
      <trkpt lat="45.59524" lon="2.23298">
        <ele>859</ele>
        <time>2019-05-18T15:32:06Z</time>
      </trkpt>
      <trkpt lat="45.59522" lon="2.23296">
        <ele>859</ele>
        <time>2019-05-18T15:32:07Z</time>
      </trkpt>
      <trkpt lat="45.59521" lon="2.23294">
        <ele>859</ele>
        <time>2019-05-18T15:32:09Z</time>
      </trkpt>
      <trkpt lat="45.59516" lon="2.23291">
        <ele>859</ele>
        <time>2019-05-18T15:32:10Z</time>
      </trkpt>
      <trkpt lat="45.59514" lon="2.23289">
        <ele>859</ele>
        <time>2019-05-18T15:32:11Z</time>
      </trkpt>
      <trkpt lat="45.5951" lon="2.23284">
        <ele>859</ele>
        <time>2019-05-18T15:32:13Z</time>
      </trkpt>
      <trkpt lat="45.59509" lon="2.23281">
        <ele>859</ele>
        <time>2019-05-18T15:32:14Z</time>
      </trkpt>
      <trkpt lat="45.59507" lon="2.23278">
        <ele>859</ele>
        <time>2019-05-18T15:32:15Z</time>
      </trkpt>
      <trkpt lat="45.59505" lon="2.23276">
        <ele>859</ele>
        <time>2019-05-18T15:32:16Z</time>
      </trkpt>
      <trkpt lat="45.59504" lon="2.23274">
        <ele>859</ele>
        <time>2019-05-18T15:32:17Z</time>
      </trkpt>
      <trkpt lat="45.59501" lon="2.23273">
        <ele>859</ele>
        <time>2019-05-18T15:32:18Z</time>
      </trkpt>
      <trkpt lat="45.595" lon="2.23271">
        <ele>859</ele>
        <time>2019-05-18T15:32:19Z</time>
      </trkpt>
      <trkpt lat="45.59498" lon="2.2327">
        <ele>859</ele>
        <time>2019-05-18T15:32:20Z</time>
      </trkpt>
      <trkpt lat="45.59496" lon="2.23267">
        <ele>859</ele>
        <time>2019-05-18T15:32:21Z</time>
      </trkpt>
      <trkpt lat="45.59494" lon="2.23265">
        <ele>859</ele>
        <time>2019-05-18T15:32:22Z</time>
      </trkpt>
      <trkpt lat="45.59491" lon="2.23262">
        <ele>859</ele>
        <time>2019-05-18T15:32:23Z</time>
      </trkpt>
      <trkpt lat="45.59489" lon="2.23259">
        <ele>859</ele>
        <time>2019-05-18T15:32:24Z</time>
      </trkpt>
      <trkpt lat="45.59487" lon="2.23258">
        <ele>859</ele>
        <time>2019-05-18T15:32:25Z</time>
      </trkpt>
      <trkpt lat="45.59485" lon="2.23255">
        <ele>859</ele>
        <time>2019-05-18T15:32:26Z</time>
      </trkpt>
      <trkpt lat="45.59483" lon="2.23254">
        <ele>859</ele>
        <time>2019-05-18T15:32:28Z</time>
      </trkpt>
      <trkpt lat="45.59482" lon="2.23252">
        <ele>859</ele>
        <time>2019-05-18T15:32:29Z</time>
      </trkpt>
      <trkpt lat="45.59479" lon="2.2325">
        <ele>859</ele>
        <time>2019-05-18T15:32:30Z</time>
      </trkpt>
      <trkpt lat="45.59477" lon="2.2325">
        <ele>859</ele>
        <time>2019-05-18T15:32:31Z</time>
      </trkpt>
      <trkpt lat="45.59475" lon="2.23248">
        <ele>859</ele>
        <time>2019-05-18T15:32:32Z</time>
      </trkpt>
      <trkpt lat="45.59473" lon="2.23245">
        <ele>859</ele>
        <time>2019-05-18T15:32:33Z</time>
      </trkpt>
      <trkpt lat="45.5947" lon="2.23242">
        <ele>859</ele>
        <time>2019-05-18T15:32:34Z</time>
      </trkpt>
      <trkpt lat="45.59469" lon="2.2324">
        <ele>859</ele>
        <time>2019-05-18T15:32:35Z</time>
      </trkpt>
      <trkpt lat="45.59465" lon="2.23235">
        <ele>859</ele>
        <time>2019-05-18T15:32:36Z</time>
      </trkpt>
      <trkpt lat="45.59464" lon="2.23234">
        <ele>859</ele>
        <time>2019-05-18T15:32:37Z</time>
      </trkpt>
      <trkpt lat="45.59462" lon="2.23232">
        <ele>859</ele>
        <time>2019-05-18T15:32:38Z</time>
      </trkpt>
      <trkpt lat="45.59458" lon="2.23228">
        <ele>859</ele>
        <time>2019-05-18T15:32:40Z</time>
      </trkpt>
      <trkpt lat="45.59457" lon="2.23226">
        <ele>859</ele>
        <time>2019-05-18T15:32:41Z</time>
      </trkpt>
      <trkpt lat="45.59455" lon="2.23223">
        <ele>859</ele>
        <time>2019-05-18T15:32:42Z</time>
      </trkpt>
      <trkpt lat="45.59454" lon="2.2322">
        <ele>859</ele>
        <time>2019-05-18T15:32:43Z</time>
      </trkpt>
      <trkpt lat="45.59452" lon="2.23218">
        <ele>859</ele>
        <time>2019-05-18T15:32:44Z</time>
      </trkpt>
      <trkpt lat="45.5945" lon="2.23216">
        <ele>860</ele>
        <time>2019-05-18T15:32:45Z</time>
      </trkpt>
      <trkpt lat="45.59448" lon="2.23214">
        <ele>860</ele>
        <time>2019-05-18T15:32:46Z</time>
      </trkpt>
      <trkpt lat="45.59446" lon="2.23212">
        <ele>860</ele>
        <time>2019-05-18T15:32:47Z</time>
      </trkpt>
      <trkpt lat="45.59444" lon="2.23211">
        <ele>860</ele>
        <time>2019-05-18T15:32:49Z</time>
      </trkpt>
      <trkpt lat="45.59443" lon="2.23208">
        <ele>860</ele>
        <time>2019-05-18T15:32:50Z</time>
      </trkpt>
      <trkpt lat="45.59441" lon="2.23207">
        <ele>860</ele>
        <time>2019-05-18T15:32:51Z</time>
      </trkpt>
      <trkpt lat="45.5944" lon="2.23205">
        <ele>860</ele>
        <time>2019-05-18T15:32:52Z</time>
      </trkpt>
      <trkpt lat="45.59438" lon="2.23203">
        <ele>860</ele>
        <time>2019-05-18T15:32:53Z</time>
      </trkpt>
      <trkpt lat="45.59437" lon="2.23201">
        <ele>860</ele>
        <time>2019-05-18T15:32:54Z</time>
      </trkpt>
      <trkpt lat="45.59433" lon="2.23198">
        <ele>860</ele>
        <time>2019-05-18T15:32:55Z</time>
      </trkpt>
      <trkpt lat="45.59431" lon="2.23196">
        <ele>860</ele>
        <time>2019-05-18T15:32:56Z</time>
      </trkpt>
      <trkpt lat="45.5943" lon="2.23195">
        <ele>860</ele>
        <time>2019-05-18T15:32:57Z</time>
      </trkpt>
      <trkpt lat="45.59429" lon="2.23194">
        <ele>860</ele>
        <time>2019-05-18T15:32:58Z</time>
      </trkpt>
      <trkpt lat="45.59426" lon="2.23192">
        <ele>860</ele>
        <time>2019-05-18T15:32:59Z</time>
      </trkpt>
      <trkpt lat="45.59424" lon="2.2319">
        <ele>860</ele>
        <time>2019-05-18T15:33:00Z</time>
      </trkpt>
      <trkpt lat="45.59422" lon="2.23187">
        <ele>860</ele>
        <time>2019-05-18T15:33:01Z</time>
      </trkpt>
      <trkpt lat="45.59419" lon="2.23185">
        <ele>860</ele>
        <time>2019-05-18T15:33:02Z</time>
      </trkpt>
      <trkpt lat="45.59417" lon="2.23183">
        <ele>860</ele>
        <time>2019-05-18T15:33:03Z</time>
      </trkpt>
      <trkpt lat="45.59415" lon="2.2318">
        <ele>860</ele>
        <time>2019-05-18T15:33:04Z</time>
      </trkpt>
      <trkpt lat="45.59414" lon="2.23178">
        <ele>860</ele>
        <time>2019-05-18T15:33:05Z</time>
      </trkpt>
      <trkpt lat="45.59411" lon="2.23176">
        <ele>860</ele>
        <time>2019-05-18T15:33:06Z</time>
      </trkpt>
      <trkpt lat="45.59409" lon="2.23173">
        <ele>860</ele>
        <time>2019-05-18T15:33:07Z</time>
      </trkpt>
      <trkpt lat="45.59406" lon="2.23171">
        <ele>860</ele>
        <time>2019-05-18T15:33:08Z</time>
      </trkpt>
      <trkpt lat="45.59404" lon="2.2317">
        <ele>860</ele>
        <time>2019-05-18T15:33:10Z</time>
      </trkpt>
      <trkpt lat="45.59402" lon="2.23168">
        <ele>860</ele>
        <time>2019-05-18T15:33:11Z</time>
      </trkpt>
      <trkpt lat="45.594" lon="2.23166">
        <ele>860</ele>
        <time>2019-05-18T15:33:12Z</time>
      </trkpt>
      <trkpt lat="45.59396" lon="2.23163">
        <ele>860</ele>
        <time>2019-05-18T15:33:13Z</time>
      </trkpt>
      <trkpt lat="45.59395" lon="2.23162">
        <ele>860</ele>
        <time>2019-05-18T15:33:14Z</time>
      </trkpt>
      <trkpt lat="45.59393" lon="2.2316">
        <ele>860</ele>
        <time>2019-05-18T15:33:15Z</time>
      </trkpt>
      <trkpt lat="45.59391" lon="2.23158">
        <ele>860</ele>
        <time>2019-05-18T15:33:16Z</time>
      </trkpt>
      <trkpt lat="45.5939" lon="2.23156">
        <ele>860</ele>
        <time>2019-05-18T15:33:17Z</time>
      </trkpt>
      <trkpt lat="45.59388" lon="2.23154">
        <ele>860</ele>
        <time>2019-05-18T15:33:18Z</time>
      </trkpt>
      <trkpt lat="45.59387" lon="2.23152">
        <ele>860</ele>
        <time>2019-05-18T15:33:19Z</time>
      </trkpt>
      <trkpt lat="45.59385" lon="2.2315">
        <ele>860</ele>
        <time>2019-05-18T15:33:20Z</time>
      </trkpt>
      <trkpt lat="45.59384" lon="2.23148">
        <ele>860</ele>
        <time>2019-05-18T15:33:21Z</time>
      </trkpt>
      <trkpt lat="45.59382" lon="2.23146">
        <ele>860</ele>
        <time>2019-05-18T15:33:22Z</time>
      </trkpt>
      <trkpt lat="45.59382" lon="2.23146">
        <ele>860</ele>
        <time>2019-05-18T15:33:23Z</time>
      </trkpt>
      <trkpt lat="45.5938" lon="2.23145">
        <ele>860</ele>
        <time>2019-05-18T15:33:24Z</time>
      </trkpt>
      <trkpt lat="45.59379" lon="2.23142">
        <ele>860</ele>
        <time>2019-05-18T15:33:25Z</time>
      </trkpt>
      <trkpt lat="45.59377" lon="2.23139">
        <ele>860</ele>
        <time>2019-05-18T15:33:27Z</time>
      </trkpt>
      <trkpt lat="45.59375" lon="2.23137">
        <ele>860</ele>
        <time>2019-05-18T15:33:28Z</time>
      </trkpt>
      <trkpt lat="45.59374" lon="2.23136">
        <ele>861</ele>
        <time>2019-05-18T15:33:29Z</time>
      </trkpt>
      <trkpt lat="45.59372" lon="2.23135">
        <ele>861</ele>
        <time>2019-05-18T15:33:30Z</time>
      </trkpt>
      <trkpt lat="45.59371" lon="2.23134">
        <ele>861</ele>
        <time>2019-05-18T15:33:31Z</time>
      </trkpt>
      <trkpt lat="45.59369" lon="2.23133">
        <ele>861</ele>
        <time>2019-05-18T15:33:32Z</time>
      </trkpt>
      <trkpt lat="45.59367" lon="2.23133">
        <ele>861</ele>
        <time>2019-05-18T15:33:33Z</time>
      </trkpt>
      <trkpt lat="45.59362" lon="2.23131">
        <ele>861</ele>
        <time>2019-05-18T15:33:34Z</time>
      </trkpt>
      <trkpt lat="45.5936" lon="2.2313">
        <ele>861</ele>
        <time>2019-05-18T15:33:35Z</time>
      </trkpt>
      <trkpt lat="45.59358" lon="2.23128">
        <ele>861</ele>
        <time>2019-05-18T15:33:36Z</time>
      </trkpt>
      <trkpt lat="45.59356" lon="2.23127">
        <ele>861</ele>
        <time>2019-05-18T15:33:37Z</time>
      </trkpt>
      <trkpt lat="45.59354" lon="2.23126">
        <ele>861</ele>
        <time>2019-05-18T15:33:38Z</time>
      </trkpt>
      <trkpt lat="45.59353" lon="2.23124">
        <ele>861</ele>
        <time>2019-05-18T15:33:39Z</time>
      </trkpt>
      <trkpt lat="45.59352" lon="2.23122">
        <ele>862</ele>
        <time>2019-05-18T15:33:40Z</time>
      </trkpt>
      <trkpt lat="45.59352" lon="2.23119">
        <ele>862</ele>
        <time>2019-05-18T15:33:41Z</time>
      </trkpt>
      <trkpt lat="45.59353" lon="2.23117">
        <ele>862</ele>
        <time>2019-05-18T15:33:42Z</time>
      </trkpt>
      <trkpt lat="45.59353" lon="2.23114">
        <ele>862</ele>
        <time>2019-05-18T15:33:43Z</time>
      </trkpt>
      <trkpt lat="45.59354" lon="2.23111">
        <ele>862</ele>
        <time>2019-05-18T15:33:44Z</time>
      </trkpt>
      <trkpt lat="45.59354" lon="2.23108">
        <ele>863</ele>
        <time>2019-05-18T15:33:45Z</time>
      </trkpt>
      <trkpt lat="45.59354" lon="2.23105">
        <ele>863</ele>
        <time>2019-05-18T15:33:46Z</time>
      </trkpt>
      <trkpt lat="45.59354" lon="2.23105">
        <ele>863</ele>
        <time>2019-05-18T15:33:47Z</time>
      </trkpt>
      <trkpt lat="45.59355" lon="2.23103">
        <ele>863</ele>
        <time>2019-05-18T15:33:48Z</time>
      </trkpt>
      <trkpt lat="45.59355" lon="2.23101">
        <ele>863</ele>
        <time>2019-05-18T15:33:49Z</time>
      </trkpt>
      <trkpt lat="45.59356" lon="2.23099">
        <ele>863</ele>
        <time>2019-05-18T15:33:50Z</time>
      </trkpt>
      <trkpt lat="45.59356" lon="2.23097">
        <ele>863</ele>
        <time>2019-05-18T15:33:51Z</time>
      </trkpt>
      <trkpt lat="45.59356" lon="2.23095">
        <ele>863</ele>
        <time>2019-05-18T15:33:52Z</time>
      </trkpt>
      <trkpt lat="45.59357" lon="2.23093">
        <ele>864</ele>
        <time>2019-05-18T15:33:53Z</time>
      </trkpt>
      <trkpt lat="45.59357" lon="2.2309">
        <ele>864</ele>
        <time>2019-05-18T15:33:54Z</time>
      </trkpt>
      <trkpt lat="45.59358" lon="2.23087">
        <ele>864</ele>
        <time>2019-05-18T15:33:55Z</time>
      </trkpt>
      <trkpt lat="45.59359" lon="2.23084">
        <ele>864</ele>
        <time>2019-05-18T15:33:56Z</time>
      </trkpt>
      <trkpt lat="45.59359" lon="2.23081">
        <ele>864</ele>
        <time>2019-05-18T15:33:57Z</time>
      </trkpt>
      <trkpt lat="45.5936" lon="2.23078">
        <ele>864</ele>
        <time>2019-05-18T15:33:58Z</time>
      </trkpt>
      <trkpt lat="45.59361" lon="2.23076">
        <ele>864</ele>
        <time>2019-05-18T15:33:59Z</time>
      </trkpt>
      <trkpt lat="45.59362" lon="2.23073">
        <ele>864</ele>
        <time>2019-05-18T15:34:00Z</time>
      </trkpt>
      <trkpt lat="45.59365" lon="2.23073">
        <ele>864</ele>
        <time>2019-05-18T15:34:02Z</time>
      </trkpt>
      <trkpt lat="45.59369" lon="2.23068">
        <ele>863</ele>
        <time>2019-05-18T15:34:03Z</time>
      </trkpt>
      <trkpt lat="45.5937" lon="2.23065">
        <ele>863</ele>
        <time>2019-05-18T15:34:04Z</time>
      </trkpt>
      <trkpt lat="45.5937" lon="2.23061">
        <ele>863</ele>
        <time>2019-05-18T15:34:05Z</time>
      </trkpt>
      <trkpt lat="45.59369" lon="2.23056">
        <ele>863</ele>
        <time>2019-05-18T15:34:06Z</time>
      </trkpt>
      <trkpt lat="45.59369" lon="2.23052">
        <ele>863</ele>
        <time>2019-05-18T15:34:07Z</time>
      </trkpt>
      <trkpt lat="45.59371" lon="2.23049">
        <ele>863</ele>
        <time>2019-05-18T15:34:08Z</time>
      </trkpt>
      <trkpt lat="45.59372" lon="2.23045">
        <ele>863</ele>
        <time>2019-05-18T15:34:09Z</time>
      </trkpt>
      <trkpt lat="45.59374" lon="2.23042">
        <ele>862</ele>
        <time>2019-05-18T15:34:10Z</time>
      </trkpt>
      <trkpt lat="45.59376" lon="2.23039">
        <ele>862</ele>
        <time>2019-05-18T15:34:11Z</time>
      </trkpt>
      <trkpt lat="45.59376" lon="2.23035">
        <ele>862</ele>
        <time>2019-05-18T15:34:12Z</time>
      </trkpt>
      <trkpt lat="45.59376" lon="2.23032">
        <ele>862</ele>
        <time>2019-05-18T15:34:14Z</time>
      </trkpt>
      <trkpt lat="45.5938" lon="2.23026">
        <ele>862</ele>
        <time>2019-05-18T15:34:15Z</time>
      </trkpt>
      <trkpt lat="45.59383" lon="2.23023">
        <ele>861</ele>
        <time>2019-05-18T15:34:17Z</time>
      </trkpt>
      <trkpt lat="45.59385" lon="2.23019">
        <ele>861</ele>
        <time>2019-05-18T15:34:18Z</time>
      </trkpt>
      <trkpt lat="45.59388" lon="2.23016">
        <ele>861</ele>
        <time>2019-05-18T15:34:19Z</time>
      </trkpt>
      <trkpt lat="45.59391" lon="2.23015">
        <ele>861</ele>
        <time>2019-05-18T15:34:20Z</time>
      </trkpt>
      <trkpt lat="45.59394" lon="2.23011">
        <ele>860</ele>
        <time>2019-05-18T15:34:21Z</time>
      </trkpt>
      <trkpt lat="45.59397" lon="2.23008">
        <ele>860</ele>
        <time>2019-05-18T15:34:22Z</time>
      </trkpt>
      <trkpt lat="45.594" lon="2.23005">
        <ele>860</ele>
        <time>2019-05-18T15:34:23Z</time>
      </trkpt>
      <trkpt lat="45.59403" lon="2.23002">
        <ele>859</ele>
        <time>2019-05-18T15:34:24Z</time>
      </trkpt>
      <trkpt lat="45.59406" lon="2.23">
        <ele>859</ele>
        <time>2019-05-18T15:34:25Z</time>
      </trkpt>
      <trkpt lat="45.59409" lon="2.22997">
        <ele>859</ele>
        <time>2019-05-18T15:34:26Z</time>
      </trkpt>
      <trkpt lat="45.59413" lon="2.22997">
        <ele>859</ele>
        <time>2019-05-18T15:34:27Z</time>
      </trkpt>
      <trkpt lat="45.59417" lon="2.22996">
        <ele>859</ele>
        <time>2019-05-18T15:34:28Z</time>
      </trkpt>
      <trkpt lat="45.5942" lon="2.22994">
        <ele>858</ele>
        <time>2019-05-18T15:34:29Z</time>
      </trkpt>
      <trkpt lat="45.59424" lon="2.22991">
        <ele>858</ele>
        <time>2019-05-18T15:34:30Z</time>
      </trkpt>
      <trkpt lat="45.59427" lon="2.22988">
        <ele>858</ele>
        <time>2019-05-18T15:34:31Z</time>
      </trkpt>
      <trkpt lat="45.59431" lon="2.22984">
        <ele>858</ele>
        <time>2019-05-18T15:34:32Z</time>
      </trkpt>
      <trkpt lat="45.59434" lon="2.22981">
        <ele>857</ele>
        <time>2019-05-18T15:34:33Z</time>
      </trkpt>
      <trkpt lat="45.59438" lon="2.2298">
        <ele>857</ele>
        <time>2019-05-18T15:34:35Z</time>
      </trkpt>
      <trkpt lat="45.59442" lon="2.22974">
        <ele>857</ele>
        <time>2019-05-18T15:34:36Z</time>
      </trkpt>
      <trkpt lat="45.59446" lon="2.22971">
        <ele>857</ele>
        <time>2019-05-18T15:34:37Z</time>
      </trkpt>
      <trkpt lat="45.59448" lon="2.22967">
        <ele>856</ele>
        <time>2019-05-18T15:34:39Z</time>
      </trkpt>
      <trkpt lat="45.59455" lon="2.22962">
        <ele>856</ele>
        <time>2019-05-18T15:34:40Z</time>
      </trkpt>
      <trkpt lat="45.59458" lon="2.22958">
        <ele>856</ele>
        <time>2019-05-18T15:34:41Z</time>
      </trkpt>
      <trkpt lat="45.59461" lon="2.22957">
        <ele>856</ele>
        <time>2019-05-18T15:34:42Z</time>
      </trkpt>
      <trkpt lat="45.59463" lon="2.22955">
        <ele>856</ele>
        <time>2019-05-18T15:34:43Z</time>
      </trkpt>
      <trkpt lat="45.59466" lon="2.22954">
        <ele>856</ele>
        <time>2019-05-18T15:34:44Z</time>
      </trkpt>
      <trkpt lat="45.59469" lon="2.22954">
        <ele>856</ele>
        <time>2019-05-18T15:34:45Z</time>
      </trkpt>
      <trkpt lat="45.59472" lon="2.22953">
        <ele>856</ele>
        <time>2019-05-18T15:34:46Z</time>
      </trkpt>
      <trkpt lat="45.59474" lon="2.22952">
        <ele>855</ele>
        <time>2019-05-18T15:34:47Z</time>
      </trkpt>
      <trkpt lat="45.59476" lon="2.2295">
        <ele>855</ele>
        <time>2019-05-18T15:34:48Z</time>
      </trkpt>
      <trkpt lat="45.59479" lon="2.22947">
        <ele>855</ele>
        <time>2019-05-18T15:34:49Z</time>
      </trkpt>
      <trkpt lat="45.59481" lon="2.22947">
        <ele>855</ele>
        <time>2019-05-18T15:34:50Z</time>
      </trkpt>
      <trkpt lat="45.59483" lon="2.22947">
        <ele>855</ele>
        <time>2019-05-18T15:34:51Z</time>
      </trkpt>
      <trkpt lat="45.59487" lon="2.22947">
        <ele>855</ele>
        <time>2019-05-18T15:34:52Z</time>
      </trkpt>
      <trkpt lat="45.5949" lon="2.22946">
        <ele>855</ele>
        <time>2019-05-18T15:34:53Z</time>
      </trkpt>
      <trkpt lat="45.59492" lon="2.22945">
        <ele>855</ele>
        <time>2019-05-18T15:34:54Z</time>
      </trkpt>
      <trkpt lat="45.59495" lon="2.22944">
        <ele>855</ele>
        <time>2019-05-18T15:34:55Z</time>
      </trkpt>
      <trkpt lat="45.595" lon="2.22939">
        <ele>854</ele>
        <time>2019-05-18T15:34:57Z</time>
      </trkpt>
      <trkpt lat="45.59503" lon="2.22937">
        <ele>854</ele>
        <time>2019-05-18T15:34:58Z</time>
      </trkpt>
      <trkpt lat="45.59509" lon="2.22935">
        <ele>854</ele>
        <time>2019-05-18T15:35:00Z</time>
      </trkpt>
      <trkpt lat="45.59512" lon="2.22933">
        <ele>854</ele>
        <time>2019-05-18T15:35:01Z</time>
      </trkpt>
      <trkpt lat="45.59516" lon="2.22933">
        <ele>853</ele>
        <time>2019-05-18T15:35:02Z</time>
      </trkpt>
      <trkpt lat="45.59519" lon="2.22932">
        <ele>853</ele>
        <time>2019-05-18T15:35:03Z</time>
      </trkpt>
      <trkpt lat="45.59523" lon="2.22932">
        <ele>853</ele>
        <time>2019-05-18T15:35:04Z</time>
      </trkpt>
      <trkpt lat="45.59527" lon="2.22932">
        <ele>853</ele>
        <time>2019-05-18T15:35:05Z</time>
      </trkpt>
      <trkpt lat="45.59531" lon="2.22933">
        <ele>852</ele>
        <time>2019-05-18T15:35:06Z</time>
      </trkpt>
      <trkpt lat="45.59536" lon="2.22933">
        <ele>852</ele>
        <time>2019-05-18T15:35:07Z</time>
      </trkpt>
      <trkpt lat="45.59541" lon="2.22931">
        <ele>852</ele>
        <time>2019-05-18T15:35:08Z</time>
      </trkpt>
      <trkpt lat="45.59545" lon="2.22931">
        <ele>852</ele>
        <time>2019-05-18T15:35:09Z</time>
      </trkpt>
      <trkpt lat="45.5955" lon="2.2293">
        <ele>852</ele>
        <time>2019-05-18T15:35:10Z</time>
      </trkpt>
      <trkpt lat="45.59554" lon="2.2293">
        <ele>851</ele>
        <time>2019-05-18T15:35:11Z</time>
      </trkpt>
      <trkpt lat="45.59559" lon="2.22931">
        <ele>851</ele>
        <time>2019-05-18T15:35:12Z</time>
      </trkpt>
      <trkpt lat="45.59564" lon="2.22932">
        <ele>851</ele>
        <time>2019-05-18T15:35:13Z</time>
      </trkpt>
      <trkpt lat="45.59569" lon="2.22932">
        <ele>851</ele>
        <time>2019-05-18T15:35:14Z</time>
      </trkpt>
      <trkpt lat="45.59574" lon="2.22934">
        <ele>850</ele>
        <time>2019-05-18T15:35:15Z</time>
      </trkpt>
      <trkpt lat="45.59579" lon="2.22933">
        <ele>850</ele>
        <time>2019-05-18T15:35:16Z</time>
      </trkpt>
      <trkpt lat="45.59585" lon="2.22934">
        <ele>850</ele>
        <time>2019-05-18T15:35:17Z</time>
      </trkpt>
      <trkpt lat="45.59589" lon="2.22933">
        <ele>850</ele>
        <time>2019-05-18T15:35:18Z</time>
      </trkpt>
      <trkpt lat="45.59595" lon="2.22931">
        <ele>850</ele>
        <time>2019-05-18T15:35:19Z</time>
      </trkpt>
      <trkpt lat="45.59599" lon="2.22931">
        <ele>850</ele>
        <time>2019-05-18T15:35:20Z</time>
      </trkpt>
      <trkpt lat="45.59604" lon="2.22931">
        <ele>849</ele>
        <time>2019-05-18T15:35:21Z</time>
      </trkpt>
      <trkpt lat="45.59608" lon="2.2293">
        <ele>849</ele>
        <time>2019-05-18T15:35:22Z</time>
      </trkpt>
      <trkpt lat="45.59611" lon="2.22931">
        <ele>849</ele>
        <time>2019-05-18T15:35:23Z</time>
      </trkpt>
      <trkpt lat="45.59614" lon="2.22931">
        <ele>849</ele>
        <time>2019-05-18T15:35:24Z</time>
      </trkpt>
      <trkpt lat="45.59618" lon="2.22931">
        <ele>849</ele>
        <time>2019-05-18T15:35:25Z</time>
      </trkpt>
      <trkpt lat="45.59622" lon="2.22931">
        <ele>849</ele>
        <time>2019-05-18T15:35:26Z</time>
      </trkpt>
      <trkpt lat="45.59626" lon="2.22931">
        <ele>849</ele>
        <time>2019-05-18T15:35:27Z</time>
      </trkpt>
      <trkpt lat="45.5963" lon="2.22931">
        <ele>849</ele>
        <time>2019-05-18T15:35:28Z</time>
      </trkpt>
      <trkpt lat="45.59632" lon="2.22931">
        <ele>848</ele>
        <time>2019-05-18T15:35:29Z</time>
      </trkpt>
      <trkpt lat="45.59634" lon="2.22931">
        <ele>848</ele>
        <time>2019-05-18T15:35:30Z</time>
      </trkpt>
      <trkpt lat="45.59636" lon="2.22931">
        <ele>848</ele>
        <time>2019-05-18T15:35:31Z</time>
      </trkpt>
      <trkpt lat="45.5964" lon="2.22933">
        <ele>848</ele>
        <time>2019-05-18T15:35:32Z</time>
      </trkpt>
      <trkpt lat="45.59643" lon="2.22934">
        <ele>848</ele>
        <time>2019-05-18T15:35:33Z</time>
      </trkpt>
      <trkpt lat="45.59645" lon="2.22934">
        <ele>848</ele>
        <time>2019-05-18T15:35:34Z</time>
      </trkpt>
      <trkpt lat="45.59648" lon="2.22934">
        <ele>848</ele>
        <time>2019-05-18T15:35:35Z</time>
      </trkpt>
      <trkpt lat="45.59651" lon="2.22934">
        <ele>848</ele>
        <time>2019-05-18T15:35:36Z</time>
      </trkpt>
      <trkpt lat="45.59653" lon="2.22934">
        <ele>848</ele>
        <time>2019-05-18T15:35:37Z</time>
      </trkpt>
      <trkpt lat="45.59656" lon="2.22934">
        <ele>848</ele>
        <time>2019-05-18T15:35:38Z</time>
      </trkpt>
      <trkpt lat="45.5966" lon="2.22934">
        <ele>848</ele>
        <time>2019-05-18T15:35:39Z</time>
      </trkpt>
      <trkpt lat="45.59663" lon="2.22934">
        <ele>848</ele>
        <time>2019-05-18T15:35:40Z</time>
      </trkpt>
      <trkpt lat="45.59665" lon="2.22933">
        <ele>848</ele>
        <time>2019-05-18T15:35:41Z</time>
      </trkpt>
      <trkpt lat="45.59668" lon="2.22933">
        <ele>848</ele>
        <time>2019-05-18T15:35:42Z</time>
      </trkpt>
      <trkpt lat="45.59671" lon="2.22933">
        <ele>848</ele>
        <time>2019-05-18T15:35:43Z</time>
      </trkpt>
      <trkpt lat="45.59674" lon="2.22934">
        <ele>848</ele>
        <time>2019-05-18T15:35:44Z</time>
      </trkpt>
      <trkpt lat="45.59677" lon="2.22935">
        <ele>848</ele>
        <time>2019-05-18T15:35:45Z</time>
      </trkpt>
      <trkpt lat="45.5968" lon="2.22935">
        <ele>848</ele>
        <time>2019-05-18T15:35:46Z</time>
      </trkpt>
      <trkpt lat="45.59684" lon="2.22936">
        <ele>848</ele>
        <time>2019-05-18T15:35:47Z</time>
      </trkpt>
      <trkpt lat="45.59687" lon="2.22935">
        <ele>848</ele>
        <time>2019-05-18T15:35:48Z</time>
      </trkpt>
      <trkpt lat="45.59691" lon="2.22935">
        <ele>848</ele>
        <time>2019-05-18T15:35:49Z</time>
      </trkpt>
      <trkpt lat="45.59694" lon="2.22936">
        <ele>848</ele>
        <time>2019-05-18T15:35:50Z</time>
      </trkpt>
      <trkpt lat="45.59697" lon="2.22935">
        <ele>848</ele>
        <time>2019-05-18T15:35:51Z</time>
      </trkpt>
      <trkpt lat="45.597" lon="2.22935">
        <ele>848</ele>
        <time>2019-05-18T15:35:52Z</time>
      </trkpt>
      <trkpt lat="45.59704" lon="2.22935">
        <ele>848</ele>
        <time>2019-05-18T15:35:53Z</time>
      </trkpt>
      <trkpt lat="45.59707" lon="2.22935">
        <ele>848</ele>
        <time>2019-05-18T15:35:54Z</time>
      </trkpt>
      <trkpt lat="45.5971" lon="2.22936">
        <ele>848</ele>
        <time>2019-05-18T15:35:55Z</time>
      </trkpt>
      <trkpt lat="45.59715" lon="2.22937">
        <ele>847</ele>
        <time>2019-05-18T15:35:56Z</time>
      </trkpt>
      <trkpt lat="45.59717" lon="2.22936">
        <ele>847</ele>
        <time>2019-05-18T15:35:57Z</time>
      </trkpt>
      <trkpt lat="45.59721" lon="2.22935">
        <ele>847</ele>
        <time>2019-05-18T15:35:58Z</time>
      </trkpt>
      <trkpt lat="45.59725" lon="2.22936">
        <ele>847</ele>
        <time>2019-05-18T15:35:59Z</time>
      </trkpt>
      <trkpt lat="45.59728" lon="2.22935">
        <ele>847</ele>
        <time>2019-05-18T15:36:00Z</time>
      </trkpt>
      <trkpt lat="45.5973" lon="2.22934">
        <ele>847</ele>
        <time>2019-05-18T15:36:01Z</time>
      </trkpt>
      <trkpt lat="45.59734" lon="2.22934">
        <ele>847</ele>
        <time>2019-05-18T15:36:02Z</time>
      </trkpt>
      <trkpt lat="45.59738" lon="2.22935">
        <ele>847</ele>
        <time>2019-05-18T15:36:03Z</time>
      </trkpt>
      <trkpt lat="45.59741" lon="2.22934">
        <ele>847</ele>
        <time>2019-05-18T15:36:04Z</time>
      </trkpt>
      <trkpt lat="45.59744" lon="2.22934">
        <ele>847</ele>
        <time>2019-05-18T15:36:05Z</time>
      </trkpt>
      <trkpt lat="45.59748" lon="2.22934">
        <ele>846</ele>
        <time>2019-05-18T15:36:06Z</time>
      </trkpt>
      <trkpt lat="45.59751" lon="2.22934">
        <ele>846</ele>
        <time>2019-05-18T15:36:07Z</time>
      </trkpt>
      <trkpt lat="45.59756" lon="2.22935">
        <ele>846</ele>
        <time>2019-05-18T15:36:08Z</time>
      </trkpt>
      <trkpt lat="45.59759" lon="2.22935">
        <ele>846</ele>
        <time>2019-05-18T15:36:09Z</time>
      </trkpt>
      <trkpt lat="45.59762" lon="2.22934">
        <ele>846</ele>
        <time>2019-05-18T15:36:10Z</time>
      </trkpt>
      <trkpt lat="45.59765" lon="2.22934">
        <ele>845</ele>
        <time>2019-05-18T15:36:11Z</time>
      </trkpt>
      <trkpt lat="45.59768" lon="2.22934">
        <ele>845</ele>
        <time>2019-05-18T15:36:12Z</time>
      </trkpt>
      <trkpt lat="45.59772" lon="2.22935">
        <ele>845</ele>
        <time>2019-05-18T15:36:13Z</time>
      </trkpt>
      <trkpt lat="45.59775" lon="2.22937">
        <ele>845</ele>
        <time>2019-05-18T15:36:14Z</time>
      </trkpt>
      <trkpt lat="45.59778" lon="2.22938">
        <ele>844</ele>
        <time>2019-05-18T15:36:15Z</time>
      </trkpt>
      <trkpt lat="45.59781" lon="2.22939">
        <ele>844</ele>
        <time>2019-05-18T15:36:16Z</time>
      </trkpt>
      <trkpt lat="45.59784" lon="2.2294">
        <ele>844</ele>
        <time>2019-05-18T15:36:17Z</time>
      </trkpt>
      <trkpt lat="45.59787" lon="2.22941">
        <ele>843</ele>
        <time>2019-05-18T15:36:18Z</time>
      </trkpt>
      <trkpt lat="45.5979" lon="2.22944">
        <ele>843</ele>
        <time>2019-05-18T15:36:19Z</time>
      </trkpt>
      <trkpt lat="45.59794" lon="2.22948">
        <ele>842</ele>
        <time>2019-05-18T15:36:20Z</time>
      </trkpt>
      <trkpt lat="45.59798" lon="2.22951">
        <ele>842</ele>
        <time>2019-05-18T15:36:21Z</time>
      </trkpt>
      <trkpt lat="45.59802" lon="2.22955">
        <ele>841</ele>
        <time>2019-05-18T15:36:22Z</time>
      </trkpt>
      <trkpt lat="45.59807" lon="2.2296">
        <ele>841</ele>
        <time>2019-05-18T15:36:23Z</time>
      </trkpt>
      <trkpt lat="45.59812" lon="2.22964">
        <ele>840</ele>
        <time>2019-05-18T15:36:24Z</time>
      </trkpt>
      <trkpt lat="45.59819" lon="2.22969">
        <ele>840</ele>
        <time>2019-05-18T15:36:25Z</time>
      </trkpt>
      <trkpt lat="45.59824" lon="2.22974">
        <ele>839</ele>
        <time>2019-05-18T15:36:26Z</time>
      </trkpt>
      <trkpt lat="45.59829" lon="2.22977">
        <ele>838</ele>
        <time>2019-05-18T15:36:27Z</time>
      </trkpt>
      <trkpt lat="45.59833" lon="2.2298">
        <ele>838</ele>
        <time>2019-05-18T15:36:28Z</time>
      </trkpt>
      <trkpt lat="45.59839" lon="2.22982">
        <ele>837</ele>
        <time>2019-05-18T15:36:29Z</time>
      </trkpt>
      <trkpt lat="45.59845" lon="2.22985">
        <ele>836</ele>
        <time>2019-05-18T15:36:30Z</time>
      </trkpt>
      <trkpt lat="45.59849" lon="2.2299">
        <ele>835</ele>
        <time>2019-05-18T15:36:31Z</time>
      </trkpt>
      <trkpt lat="45.59855" lon="2.22996">
        <ele>834</ele>
        <time>2019-05-18T15:36:32Z</time>
      </trkpt>
      <trkpt lat="45.59861" lon="2.22999">
        <ele>833</ele>
        <time>2019-05-18T15:36:33Z</time>
      </trkpt>
      <trkpt lat="45.59867" lon="2.23">
        <ele>832</ele>
        <time>2019-05-18T15:36:34Z</time>
      </trkpt>
      <trkpt lat="45.59872" lon="2.23001">
        <ele>831</ele>
        <time>2019-05-18T15:36:35Z</time>
      </trkpt>
      <trkpt lat="45.59876" lon="2.23003">
        <ele>830</ele>
        <time>2019-05-18T15:36:36Z</time>
      </trkpt>
      <trkpt lat="45.5988" lon="2.23008">
        <ele>830</ele>
        <time>2019-05-18T15:36:37Z</time>
      </trkpt>
      <trkpt lat="45.59885" lon="2.23013">
        <ele>829</ele>
        <time>2019-05-18T15:36:38Z</time>
      </trkpt>
      <trkpt lat="45.59888" lon="2.23017">
        <ele>828</ele>
        <time>2019-05-18T15:36:39Z</time>
      </trkpt>
      <trkpt lat="45.59892" lon="2.23018">
        <ele>828</ele>
        <time>2019-05-18T15:36:40Z</time>
      </trkpt>
      <trkpt lat="45.59895" lon="2.23019">
        <ele>827</ele>
        <time>2019-05-18T15:36:41Z</time>
      </trkpt>
      <trkpt lat="45.599" lon="2.23023">
        <ele>827</ele>
        <time>2019-05-18T15:36:42Z</time>
      </trkpt>
      <trkpt lat="45.59905" lon="2.23025">
        <ele>826</ele>
        <time>2019-05-18T15:36:43Z</time>
      </trkpt>
      <trkpt lat="45.59912" lon="2.23028">
        <ele>825</ele>
        <time>2019-05-18T15:36:44Z</time>
      </trkpt>
      <trkpt lat="45.59917" lon="2.23028">
        <ele>825</ele>
        <time>2019-05-18T15:36:45Z</time>
      </trkpt>
      <trkpt lat="45.59923" lon="2.23031">
        <ele>824</ele>
        <time>2019-05-18T15:36:46Z</time>
      </trkpt>
      <trkpt lat="45.59929" lon="2.23033">
        <ele>824</ele>
        <time>2019-05-18T15:36:47Z</time>
      </trkpt>
      <trkpt lat="45.59937" lon="2.23034">
        <ele>823</ele>
        <time>2019-05-18T15:36:48Z</time>
      </trkpt>
      <trkpt lat="45.59945" lon="2.23033">
        <ele>823</ele>
        <time>2019-05-18T15:36:49Z</time>
      </trkpt>
      <trkpt lat="45.59953" lon="2.23032">
        <ele>821</ele>
        <time>2019-05-18T15:36:50Z</time>
      </trkpt>
      <trkpt lat="45.59962" lon="2.23031">
        <ele>820</ele>
        <time>2019-05-18T15:36:51Z</time>
      </trkpt>
      <trkpt lat="45.59972" lon="2.23029">
        <ele>820</ele>
        <time>2019-05-18T15:36:52Z</time>
      </trkpt>
      <trkpt lat="45.59984" lon="2.23029">
        <ele>819</ele>
        <time>2019-05-18T15:36:53Z</time>
      </trkpt>
      <trkpt lat="45.59994" lon="2.23028">
        <ele>818</ele>
        <time>2019-05-18T15:36:54Z</time>
      </trkpt>
      <trkpt lat="45.60004" lon="2.23028">
        <ele>818</ele>
        <time>2019-05-18T15:36:55Z</time>
      </trkpt>
      <trkpt lat="45.60014" lon="2.23027">
        <ele>817</ele>
        <time>2019-05-18T15:36:56Z</time>
      </trkpt>
      <trkpt lat="45.60023" lon="2.23025">
        <ele>816</ele>
        <time>2019-05-18T15:36:57Z</time>
      </trkpt>
      <trkpt lat="45.60032" lon="2.23021">
        <ele>815</ele>
        <time>2019-05-18T15:36:58Z</time>
      </trkpt>
      <trkpt lat="45.60041" lon="2.23019">
        <ele>814</ele>
        <time>2019-05-18T15:36:59Z</time>
      </trkpt>
      <trkpt lat="45.60047" lon="2.23017">
        <ele>813</ele>
        <time>2019-05-18T15:37:00Z</time>
      </trkpt>
      <trkpt lat="45.60054" lon="2.23015">
        <ele>813</ele>
        <time>2019-05-18T15:37:01Z</time>
      </trkpt>
      <trkpt lat="45.60059" lon="2.23014">
        <ele>813</ele>
        <time>2019-05-18T15:37:02Z</time>
      </trkpt>
      <trkpt lat="45.60063" lon="2.23013">
        <ele>813</ele>
        <time>2019-05-18T15:37:03Z</time>
      </trkpt>
      <trkpt lat="45.60065" lon="2.23012">
        <ele>813</ele>
        <time>2019-05-18T15:37:04Z</time>
      </trkpt>
      <trkpt lat="45.60067" lon="2.2301">
        <ele>813</ele>
        <time>2019-05-18T15:37:05Z</time>
      </trkpt>
      <trkpt lat="45.60069" lon="2.23009">
        <ele>813</ele>
        <time>2019-05-18T15:37:06Z</time>
      </trkpt>
      <trkpt lat="45.60071" lon="2.2301">
        <ele>813</ele>
        <time>2019-05-18T15:37:07Z</time>
      </trkpt>
      <trkpt lat="45.60072" lon="2.23009">
        <ele>813</ele>
        <time>2019-05-18T15:37:08Z</time>
      </trkpt>
      <trkpt lat="45.60074" lon="2.23009">
        <ele>813</ele>
        <time>2019-05-18T15:37:09Z</time>
      </trkpt>
      <trkpt lat="45.60075" lon="2.23008">
        <ele>813</ele>
        <time>2019-05-18T15:37:10Z</time>
      </trkpt>
      <trkpt lat="45.60074" lon="2.23007">
        <ele>813</ele>
        <time>2019-05-18T15:37:11Z</time>
      </trkpt>
      <trkpt lat="45.60074" lon="2.23007">
        <ele>813</ele>
        <time>2019-05-18T15:37:12Z</time>
      </trkpt>
      <trkpt lat="45.60074" lon="2.23005">
        <ele>813</ele>
        <time>2019-05-18T15:37:13Z</time>
      </trkpt>
      <trkpt lat="45.60073" lon="2.23003">
        <ele>813</ele>
        <time>2019-05-18T15:37:14Z</time>
      </trkpt>
      <trkpt lat="45.60073" lon="2.23002">
        <ele>813</ele>
        <time>2019-05-18T15:37:15Z</time>
      </trkpt>
      <trkpt lat="45.60073" lon="2.23001">
        <ele>813</ele>
        <time>2019-05-18T15:37:16Z</time>
      </trkpt>
      <trkpt lat="45.60072" lon="2.22999">
        <ele>813</ele>
        <time>2019-05-18T15:37:17Z</time>
      </trkpt>
      <trkpt lat="45.6007" lon="2.22998">
        <ele>813</ele>
        <time>2019-05-18T15:37:18Z</time>
      </trkpt>
      <trkpt lat="45.60069" lon="2.22996">
        <ele>813</ele>
        <time>2019-05-18T15:37:19Z</time>
      </trkpt>
      <trkpt lat="45.60068" lon="2.22996">
        <ele>813</ele>
        <time>2019-05-18T15:37:20Z</time>
      </trkpt>
      <trkpt lat="45.60068" lon="2.22994">
        <ele>813</ele>
        <time>2019-05-18T15:37:21Z</time>
      </trkpt>
      <trkpt lat="45.60067" lon="2.22993">
        <ele>813</ele>
        <time>2019-05-18T15:37:22Z</time>
      </trkpt>
      <trkpt lat="45.60066" lon="2.2299">
        <ele>813</ele>
        <time>2019-05-18T15:37:23Z</time>
      </trkpt>
      <trkpt lat="45.60065" lon="2.22988">
        <ele>813</ele>
        <time>2019-05-18T15:37:24Z</time>
      </trkpt>
      <trkpt lat="45.60064" lon="2.22985">
        <ele>813</ele>
        <time>2019-05-18T15:37:25Z</time>
      </trkpt>
      <trkpt lat="45.60063" lon="2.22983">
        <ele>813</ele>
        <time>2019-05-18T15:37:26Z</time>
      </trkpt>
      <trkpt lat="45.60061" lon="2.22982">
        <ele>813</ele>
        <time>2019-05-18T15:37:27Z</time>
      </trkpt>
      <trkpt lat="45.60059" lon="2.22979">
        <ele>813</ele>
        <time>2019-05-18T15:37:28Z</time>
      </trkpt>
      <trkpt lat="45.60057" lon="2.22977">
        <ele>813</ele>
        <time>2019-05-18T15:37:29Z</time>
      </trkpt>
      <trkpt lat="45.60056" lon="2.22975">
        <ele>813</ele>
        <time>2019-05-18T15:37:30Z</time>
      </trkpt>
      <trkpt lat="45.60055" lon="2.22974">
        <ele>813</ele>
        <time>2019-05-18T15:37:31Z</time>
      </trkpt>
      <trkpt lat="45.60053" lon="2.22972">
        <ele>813</ele>
        <time>2019-05-18T15:37:32Z</time>
      </trkpt>
      <trkpt lat="45.60052" lon="2.2297">
        <ele>813</ele>
        <time>2019-05-18T15:37:33Z</time>
      </trkpt>
      <trkpt lat="45.6005" lon="2.22968">
        <ele>814</ele>
        <time>2019-05-18T15:37:34Z</time>
      </trkpt>
      <trkpt lat="45.60048" lon="2.22965">
        <ele>814</ele>
        <time>2019-05-18T15:37:35Z</time>
      </trkpt>
      <trkpt lat="45.60046" lon="2.22963">
        <ele>814</ele>
        <time>2019-05-18T15:37:36Z</time>
      </trkpt>
      <trkpt lat="45.60044" lon="2.22961">
        <ele>814</ele>
        <time>2019-05-18T15:37:37Z</time>
      </trkpt>
      <trkpt lat="45.60043" lon="2.2296">
        <ele>814</ele>
        <time>2019-05-18T15:37:38Z</time>
      </trkpt>
      <trkpt lat="45.60041" lon="2.22958">
        <ele>814</ele>
        <time>2019-05-18T15:37:39Z</time>
      </trkpt>
      <trkpt lat="45.6004" lon="2.22957">
        <ele>814</ele>
        <time>2019-05-18T15:37:40Z</time>
      </trkpt>
      <trkpt lat="45.60038" lon="2.22955">
        <ele>814</ele>
        <time>2019-05-18T15:37:41Z</time>
      </trkpt>
      <trkpt lat="45.60036" lon="2.22953">
        <ele>814</ele>
        <time>2019-05-18T15:37:42Z</time>
      </trkpt>
      <trkpt lat="45.60034" lon="2.22952">
        <ele>814</ele>
        <time>2019-05-18T15:37:43Z</time>
      </trkpt>
      <trkpt lat="45.60031" lon="2.2295">
        <ele>814</ele>
        <time>2019-05-18T15:37:44Z</time>
      </trkpt>
      <trkpt lat="45.60029" lon="2.22949">
        <ele>814</ele>
        <time>2019-05-18T15:37:45Z</time>
      </trkpt>
      <trkpt lat="45.60028" lon="2.22947">
        <ele>814</ele>
        <time>2019-05-18T15:37:46Z</time>
      </trkpt>
      <trkpt lat="45.60025" lon="2.22945">
        <ele>815</ele>
        <time>2019-05-18T15:37:47Z</time>
      </trkpt>
      <trkpt lat="45.60024" lon="2.22943">
        <ele>815</ele>
        <time>2019-05-18T15:37:48Z</time>
      </trkpt>
      <trkpt lat="45.60021" lon="2.22941">
        <ele>815</ele>
        <time>2019-05-18T15:37:49Z</time>
      </trkpt>
      <trkpt lat="45.60019" lon="2.22938">
        <ele>815</ele>
        <time>2019-05-18T15:37:50Z</time>
      </trkpt>
      <trkpt lat="45.60017" lon="2.22936">
        <ele>815</ele>
        <time>2019-05-18T15:37:51Z</time>
      </trkpt>
      <trkpt lat="45.60015" lon="2.22934">
        <ele>815</ele>
        <time>2019-05-18T15:37:52Z</time>
      </trkpt>
      <trkpt lat="45.60013" lon="2.22932">
        <ele>815</ele>
        <time>2019-05-18T15:37:53Z</time>
      </trkpt>
      <trkpt lat="45.60011" lon="2.22929">
        <ele>815</ele>
        <time>2019-05-18T15:37:54Z</time>
      </trkpt>
      <trkpt lat="45.6001" lon="2.22925">
        <ele>815</ele>
        <time>2019-05-18T15:37:55Z</time>
      </trkpt>
      <trkpt lat="45.6001" lon="2.2292">
        <ele>815</ele>
        <time>2019-05-18T15:37:56Z</time>
      </trkpt>
      <trkpt lat="45.60009" lon="2.22915">
        <ele>814</ele>
        <time>2019-05-18T15:37:57Z</time>
      </trkpt>
      <trkpt lat="45.60009" lon="2.22908">
        <ele>814</ele>
        <time>2019-05-18T15:37:58Z</time>
      </trkpt>
      <trkpt lat="45.60009" lon="2.22902">
        <ele>814</ele>
        <time>2019-05-18T15:37:59Z</time>
      </trkpt>
      <trkpt lat="45.60008" lon="2.22896">
        <ele>813</ele>
        <time>2019-05-18T15:38:00Z</time>
      </trkpt>
      <trkpt lat="45.60007" lon="2.22889">
        <ele>813</ele>
        <time>2019-05-18T15:38:01Z</time>
      </trkpt>
      <trkpt lat="45.60007" lon="2.22883">
        <ele>812</ele>
        <time>2019-05-18T15:38:02Z</time>
      </trkpt>
      <trkpt lat="45.60006" lon="2.22878">
        <ele>812</ele>
        <time>2019-05-18T15:38:03Z</time>
      </trkpt>
      <trkpt lat="45.60005" lon="2.22871">
        <ele>812</ele>
        <time>2019-05-18T15:38:04Z</time>
      </trkpt>
      <trkpt lat="45.60004" lon="2.22864">
        <ele>812</ele>
        <time>2019-05-18T15:38:05Z</time>
      </trkpt>
      <trkpt lat="45.60004" lon="2.2286">
        <ele>812</ele>
        <time>2019-05-18T15:38:06Z</time>
      </trkpt>
      <trkpt lat="45.60004" lon="2.22855">
        <ele>811</ele>
        <time>2019-05-18T15:38:07Z</time>
      </trkpt>
      <trkpt lat="45.60003" lon="2.22848">
        <ele>811</ele>
        <time>2019-05-18T15:38:08Z</time>
      </trkpt>
      <trkpt lat="45.60002" lon="2.22842">
        <ele>811</ele>
        <time>2019-05-18T15:38:09Z</time>
      </trkpt>
      <trkpt lat="45.60001" lon="2.22836">
        <ele>811</ele>
        <time>2019-05-18T15:38:10Z</time>
      </trkpt>
      <trkpt lat="45.6" lon="2.22831">
        <ele>810</ele>
        <time>2019-05-18T15:38:11Z</time>
      </trkpt>
      <trkpt lat="45.59999" lon="2.22826">
        <ele>810</ele>
        <time>2019-05-18T15:38:12Z</time>
      </trkpt>
      <trkpt lat="45.59999" lon="2.22819">
        <ele>810</ele>
        <time>2019-05-18T15:38:13Z</time>
      </trkpt>
      <trkpt lat="45.59999" lon="2.22813">
        <ele>810</ele>
        <time>2019-05-18T15:38:14Z</time>
      </trkpt>
      <trkpt lat="45.59999" lon="2.2281">
        <ele>810</ele>
        <time>2019-05-18T15:38:15Z</time>
      </trkpt>
      <trkpt lat="45.59999" lon="2.22807">
        <ele>810</ele>
        <time>2019-05-18T15:38:16Z</time>
      </trkpt>
      <trkpt lat="45.59998" lon="2.22804">
        <ele>810</ele>
        <time>2019-05-18T15:38:17Z</time>
      </trkpt>
      <trkpt lat="45.59998" lon="2.22799">
        <ele>809</ele>
        <time>2019-05-18T15:38:18Z</time>
      </trkpt>
      <trkpt lat="45.59998" lon="2.22795">
        <ele>809</ele>
        <time>2019-05-18T15:38:19Z</time>
      </trkpt>
      <trkpt lat="45.59997" lon="2.22789">
        <ele>809</ele>
        <time>2019-05-18T15:38:20Z</time>
      </trkpt>
      <trkpt lat="45.59997" lon="2.22784">
        <ele>809</ele>
        <time>2019-05-18T15:38:21Z</time>
      </trkpt>
      <trkpt lat="45.59996" lon="2.22779">
        <ele>809</ele>
        <time>2019-05-18T15:38:22Z</time>
      </trkpt>
      <trkpt lat="45.59995" lon="2.22775">
        <ele>809</ele>
        <time>2019-05-18T15:38:23Z</time>
      </trkpt>
      <trkpt lat="45.59995" lon="2.2277">
        <ele>810</ele>
        <time>2019-05-18T15:38:24Z</time>
      </trkpt>
      <trkpt lat="45.59994" lon="2.22765">
        <ele>810</ele>
        <time>2019-05-18T15:38:25Z</time>
      </trkpt>
      <trkpt lat="45.59993" lon="2.22759">
        <ele>810</ele>
        <time>2019-05-18T15:38:26Z</time>
      </trkpt>
      <trkpt lat="45.59992" lon="2.22754">
        <ele>810</ele>
        <time>2019-05-18T15:38:27Z</time>
      </trkpt>
      <trkpt lat="45.5999" lon="2.2275">
        <ele>809</ele>
        <time>2019-05-18T15:38:28Z</time>
      </trkpt>
      <trkpt lat="45.59989" lon="2.22745">
        <ele>809</ele>
        <time>2019-05-18T15:38:29Z</time>
      </trkpt>
      <trkpt lat="45.59988" lon="2.22741">
        <ele>809</ele>
        <time>2019-05-18T15:38:30Z</time>
      </trkpt>
      <trkpt lat="45.59987" lon="2.22735">
        <ele>809</ele>
        <time>2019-05-18T15:38:31Z</time>
      </trkpt>
      <trkpt lat="45.59986" lon="2.22731">
        <ele>809</ele>
        <time>2019-05-18T15:38:32Z</time>
      </trkpt>
      <trkpt lat="45.59985" lon="2.22726">
        <ele>809</ele>
        <time>2019-05-18T15:38:33Z</time>
      </trkpt>
      <trkpt lat="45.59984" lon="2.22723">
        <ele>809</ele>
        <time>2019-05-18T15:38:34Z</time>
      </trkpt>
      <trkpt lat="45.59983" lon="2.22719">
        <ele>809</ele>
        <time>2019-05-18T15:38:35Z</time>
      </trkpt>
      <trkpt lat="45.59983" lon="2.22714">
        <ele>809</ele>
        <time>2019-05-18T15:38:36Z</time>
      </trkpt>
      <trkpt lat="45.59982" lon="2.22708">
        <ele>808</ele>
        <time>2019-05-18T15:38:37Z</time>
      </trkpt>
      <trkpt lat="45.59982" lon="2.22704">
        <ele>808</ele>
        <time>2019-05-18T15:38:38Z</time>
      </trkpt>
      <trkpt lat="45.59981" lon="2.22699">
        <ele>808</ele>
        <time>2019-05-18T15:38:39Z</time>
      </trkpt>
      <trkpt lat="45.59979" lon="2.22695">
        <ele>808</ele>
        <time>2019-05-18T15:38:40Z</time>
      </trkpt>
      <trkpt lat="45.59978" lon="2.2269">
        <ele>807</ele>
        <time>2019-05-18T15:38:41Z</time>
      </trkpt>
      <trkpt lat="45.59978" lon="2.22686">
        <ele>807</ele>
        <time>2019-05-18T15:38:42Z</time>
      </trkpt>
      <trkpt lat="45.59977" lon="2.22683">
        <ele>806</ele>
        <time>2019-05-18T15:38:43Z</time>
      </trkpt>
      <trkpt lat="45.59977" lon="2.22677">
        <ele>806</ele>
        <time>2019-05-18T15:38:44Z</time>
      </trkpt>
      <trkpt lat="45.59976" lon="2.22671">
        <ele>806</ele>
        <time>2019-05-18T15:38:45Z</time>
      </trkpt>
      <trkpt lat="45.59977" lon="2.22666">
        <ele>805</ele>
        <time>2019-05-18T15:38:46Z</time>
      </trkpt>
      <trkpt lat="45.59976" lon="2.22658">
        <ele>805</ele>
        <time>2019-05-18T15:38:47Z</time>
      </trkpt>
      <trkpt lat="45.59975" lon="2.22652">
        <ele>804</ele>
        <time>2019-05-18T15:38:48Z</time>
      </trkpt>
      <trkpt lat="45.59974" lon="2.22644">
        <ele>804</ele>
        <time>2019-05-18T15:38:49Z</time>
      </trkpt>
      <trkpt lat="45.59975" lon="2.22637">
        <ele>803</ele>
        <time>2019-05-18T15:38:50Z</time>
      </trkpt>
      <trkpt lat="45.59975" lon="2.22631">
        <ele>802</ele>
        <time>2019-05-18T15:38:51Z</time>
      </trkpt>
      <trkpt lat="45.59975" lon="2.22626">
        <ele>802</ele>
        <time>2019-05-18T15:38:52Z</time>
      </trkpt>
      <trkpt lat="45.59975" lon="2.22621">
        <ele>801</ele>
        <time>2019-05-18T15:38:53Z</time>
      </trkpt>
      <trkpt lat="45.59975" lon="2.22617">
        <ele>800</ele>
        <time>2019-05-18T15:38:54Z</time>
      </trkpt>
      <trkpt lat="45.59974" lon="2.22611">
        <ele>799</ele>
        <time>2019-05-18T15:38:55Z</time>
      </trkpt>
      <trkpt lat="45.59971" lon="2.22606">
        <ele>799</ele>
        <time>2019-05-18T15:38:56Z</time>
      </trkpt>
      <trkpt lat="45.59968" lon="2.22601">
        <ele>798</ele>
        <time>2019-05-18T15:38:57Z</time>
      </trkpt>
      <trkpt lat="45.59964" lon="2.22597">
        <ele>798</ele>
        <time>2019-05-18T15:38:58Z</time>
      </trkpt>
      <trkpt lat="45.5996" lon="2.22593">
        <ele>797</ele>
        <time>2019-05-18T15:38:59Z</time>
      </trkpt>
      <trkpt lat="45.59956" lon="2.22591">
        <ele>797</ele>
        <time>2019-05-18T15:39:00Z</time>
      </trkpt>
      <trkpt lat="45.59952" lon="2.22588">
        <ele>797</ele>
        <time>2019-05-18T15:39:01Z</time>
      </trkpt>
      <trkpt lat="45.59949" lon="2.22584">
        <ele>797</ele>
        <time>2019-05-18T15:39:02Z</time>
      </trkpt>
      <trkpt lat="45.59946" lon="2.2258">
        <ele>797</ele>
        <time>2019-05-18T15:39:03Z</time>
      </trkpt>
      <trkpt lat="45.59944" lon="2.22576">
        <ele>797</ele>
        <time>2019-05-18T15:39:04Z</time>
      </trkpt>
      <trkpt lat="45.59943" lon="2.22573">
        <ele>798</ele>
        <time>2019-05-18T15:39:05Z</time>
      </trkpt>
      <trkpt lat="45.59941" lon="2.22572">
        <ele>798</ele>
        <time>2019-05-18T15:39:06Z</time>
      </trkpt>
      <trkpt lat="45.59939" lon="2.2257">
        <ele>798</ele>
        <time>2019-05-18T15:39:07Z</time>
      </trkpt>
      <trkpt lat="45.59937" lon="2.22568">
        <ele>798</ele>
        <time>2019-05-18T15:39:08Z</time>
      </trkpt>
      <trkpt lat="45.59936" lon="2.22565">
        <ele>798</ele>
        <time>2019-05-18T15:39:09Z</time>
      </trkpt>
      <trkpt lat="45.59934" lon="2.22562">
        <ele>798</ele>
        <time>2019-05-18T15:39:10Z</time>
      </trkpt>
      <trkpt lat="45.59931" lon="2.22559">
        <ele>799</ele>
        <time>2019-05-18T15:39:11Z</time>
      </trkpt>
      <trkpt lat="45.59929" lon="2.22556">
        <ele>799</ele>
        <time>2019-05-18T15:39:12Z</time>
      </trkpt>
      <trkpt lat="45.59927" lon="2.22554">
        <ele>799</ele>
        <time>2019-05-18T15:39:13Z</time>
      </trkpt>
      <trkpt lat="45.59924" lon="2.22552">
        <ele>799</ele>
        <time>2019-05-18T15:39:14Z</time>
      </trkpt>
      <trkpt lat="45.59922" lon="2.22551">
        <ele>799</ele>
        <time>2019-05-18T15:39:15Z</time>
      </trkpt>
      <trkpt lat="45.5992" lon="2.2255">
        <ele>799</ele>
        <time>2019-05-18T15:39:16Z</time>
      </trkpt>
      <trkpt lat="45.59918" lon="2.22547">
        <ele>799</ele>
        <time>2019-05-18T15:39:17Z</time>
      </trkpt>
      <trkpt lat="45.59917" lon="2.22544">
        <ele>800</ele>
        <time>2019-05-18T15:39:18Z</time>
      </trkpt>
      <trkpt lat="45.59915" lon="2.22541">
        <ele>800</ele>
        <time>2019-05-18T15:39:19Z</time>
      </trkpt>
      <trkpt lat="45.59913" lon="2.22538">
        <ele>800</ele>
        <time>2019-05-18T15:39:20Z</time>
      </trkpt>
      <trkpt lat="45.59912" lon="2.22536">
        <ele>800</ele>
        <time>2019-05-18T15:39:21Z</time>
      </trkpt>
      <trkpt lat="45.59911" lon="2.22533">
        <ele>800</ele>
        <time>2019-05-18T15:39:22Z</time>
      </trkpt>
      <trkpt lat="45.59909" lon="2.22531">
        <ele>800</ele>
        <time>2019-05-18T15:39:23Z</time>
      </trkpt>
      <trkpt lat="45.59908" lon="2.22529">
        <ele>800</ele>
        <time>2019-05-18T15:39:24Z</time>
      </trkpt>
      <trkpt lat="45.59906" lon="2.22527">
        <ele>800</ele>
        <time>2019-05-18T15:39:25Z</time>
      </trkpt>
      <trkpt lat="45.59905" lon="2.22525">
        <ele>800</ele>
        <time>2019-05-18T15:39:26Z</time>
      </trkpt>
      <trkpt lat="45.59903" lon="2.22522">
        <ele>800</ele>
        <time>2019-05-18T15:39:27Z</time>
      </trkpt>
      <trkpt lat="45.59902" lon="2.22519">
        <ele>800</ele>
        <time>2019-05-18T15:39:28Z</time>
      </trkpt>
      <trkpt lat="45.59902" lon="2.22517">
        <ele>800</ele>
        <time>2019-05-18T15:39:29Z</time>
      </trkpt>
      <trkpt lat="45.59901" lon="2.22515">
        <ele>800</ele>
        <time>2019-05-18T15:39:30Z</time>
      </trkpt>
      <trkpt lat="45.59901" lon="2.22512">
        <ele>800</ele>
        <time>2019-05-18T15:39:31Z</time>
      </trkpt>
      <trkpt lat="45.599" lon="2.2251">
        <ele>800</ele>
        <time>2019-05-18T15:39:32Z</time>
      </trkpt>
      <trkpt lat="45.59899" lon="2.22508">
        <ele>801</ele>
        <time>2019-05-18T15:39:33Z</time>
      </trkpt>
      <trkpt lat="45.59899" lon="2.22505">
        <ele>801</ele>
        <time>2019-05-18T15:39:34Z</time>
      </trkpt>
      <trkpt lat="45.59898" lon="2.22502">
        <ele>801</ele>
        <time>2019-05-18T15:39:35Z</time>
      </trkpt>
      <trkpt lat="45.59898" lon="2.22499">
        <ele>801</ele>
        <time>2019-05-18T15:39:36Z</time>
      </trkpt>
      <trkpt lat="45.59897" lon="2.22497">
        <ele>801</ele>
        <time>2019-05-18T15:39:37Z</time>
      </trkpt>
      <trkpt lat="45.59896" lon="2.22494">
        <ele>801</ele>
        <time>2019-05-18T15:39:38Z</time>
      </trkpt>
      <trkpt lat="45.59895" lon="2.2249">
        <ele>802</ele>
        <time>2019-05-18T15:39:39Z</time>
      </trkpt>
      <trkpt lat="45.59894" lon="2.22486">
        <ele>802</ele>
        <time>2019-05-18T15:39:40Z</time>
      </trkpt>
      <trkpt lat="45.59892" lon="2.22481">
        <ele>802</ele>
        <time>2019-05-18T15:39:41Z</time>
      </trkpt>
      <trkpt lat="45.59891" lon="2.22477">
        <ele>802</ele>
        <time>2019-05-18T15:39:42Z</time>
      </trkpt>
      <trkpt lat="45.59891" lon="2.22475">
        <ele>803</ele>
        <time>2019-05-18T15:39:43Z</time>
      </trkpt>
      <trkpt lat="45.5989" lon="2.22472">
        <ele>803</ele>
        <time>2019-05-18T15:39:44Z</time>
      </trkpt>
      <trkpt lat="45.59891" lon="2.2247">
        <ele>803</ele>
        <time>2019-05-18T15:39:45Z</time>
      </trkpt>
      <trkpt lat="45.59891" lon="2.22469">
        <ele>803</ele>
        <time>2019-05-18T15:39:46Z</time>
      </trkpt>
      <trkpt lat="45.59891" lon="2.22466">
        <ele>804</ele>
        <time>2019-05-18T15:39:47Z</time>
      </trkpt>
      <trkpt lat="45.5989" lon="2.22464">
        <ele>804</ele>
        <time>2019-05-18T15:39:48Z</time>
      </trkpt>
      <trkpt lat="45.5989" lon="2.22462">
        <ele>804</ele>
        <time>2019-05-18T15:39:49Z</time>
      </trkpt>
      <trkpt lat="45.59889" lon="2.2246">
        <ele>804</ele>
        <time>2019-05-18T15:39:50Z</time>
      </trkpt>
      <trkpt lat="45.5989" lon="2.22459">
        <ele>804</ele>
        <time>2019-05-18T15:39:51Z</time>
      </trkpt>
      <trkpt lat="45.5989" lon="2.22458">
        <ele>805</ele>
        <time>2019-05-18T15:39:52Z</time>
      </trkpt>
      <trkpt lat="45.5989" lon="2.22456">
        <ele>805</ele>
        <time>2019-05-18T15:39:53Z</time>
      </trkpt>
      <trkpt lat="45.5989" lon="2.22454">
        <ele>805</ele>
        <time>2019-05-18T15:39:54Z</time>
      </trkpt>
      <trkpt lat="45.5989" lon="2.22453">
        <ele>805</ele>
        <time>2019-05-18T15:39:55Z</time>
      </trkpt>
      <trkpt lat="45.59889" lon="2.22451">
        <ele>805</ele>
        <time>2019-05-18T15:39:56Z</time>
      </trkpt>
      <trkpt lat="45.5989" lon="2.2245">
        <ele>806</ele>
        <time>2019-05-18T15:39:57Z</time>
      </trkpt>
      <trkpt lat="45.59889" lon="2.22449">
        <ele>806</ele>
        <time>2019-05-18T15:39:58Z</time>
      </trkpt>
      <trkpt lat="45.59888" lon="2.22447">
        <ele>806</ele>
        <time>2019-05-18T15:39:59Z</time>
      </trkpt>
      <trkpt lat="45.59888" lon="2.22445">
        <ele>806</ele>
        <time>2019-05-18T15:40:00Z</time>
      </trkpt>
      <trkpt lat="45.59888" lon="2.22444">
        <ele>806</ele>
        <time>2019-05-18T15:40:01Z</time>
      </trkpt>
      <trkpt lat="45.59888" lon="2.22443">
        <ele>806</ele>
        <time>2019-05-18T15:40:02Z</time>
      </trkpt>
      <trkpt lat="45.59888" lon="2.22441">
        <ele>807</ele>
        <time>2019-05-18T15:40:03Z</time>
      </trkpt>
      <trkpt lat="45.59891" lon="2.22376">
        <ele>812</ele>
        <time>2019-05-18T15:40:35Z</time>
      </trkpt>
      <trkpt lat="45.59892" lon="2.22373">
        <ele>812</ele>
        <time>2019-05-18T15:40:36Z</time>
      </trkpt>
      <trkpt lat="45.59893" lon="2.22371">
        <ele>812</ele>
        <time>2019-05-18T15:40:37Z</time>
      </trkpt>
      <trkpt lat="45.59894" lon="2.22369">
        <ele>812</ele>
        <time>2019-05-18T15:40:38Z</time>
      </trkpt>
      <trkpt lat="45.59895" lon="2.22368">
        <ele>812</ele>
        <time>2019-05-18T15:40:39Z</time>
      </trkpt>
      <trkpt lat="45.59896" lon="2.22366">
        <ele>812</ele>
        <time>2019-05-18T15:40:40Z</time>
      </trkpt>
      <trkpt lat="45.59896" lon="2.22365">
        <ele>812</ele>
        <time>2019-05-18T15:40:41Z</time>
      </trkpt>
      <trkpt lat="45.59897" lon="2.22363">
        <ele>812</ele>
        <time>2019-05-18T15:40:42Z</time>
      </trkpt>
      <trkpt lat="45.59897" lon="2.22361">
        <ele>812</ele>
        <time>2019-05-18T15:40:43Z</time>
      </trkpt>
      <trkpt lat="45.59899" lon="2.2236">
        <ele>812</ele>
        <time>2019-05-18T15:40:44Z</time>
      </trkpt>
      <trkpt lat="45.59901" lon="2.22359">
        <ele>812</ele>
        <time>2019-05-18T15:40:45Z</time>
      </trkpt>
      <trkpt lat="45.59902" lon="2.22358">
        <ele>811</ele>
        <time>2019-05-18T15:40:46Z</time>
      </trkpt>
      <trkpt lat="45.59904" lon="2.22356">
        <ele>811</ele>
        <time>2019-05-18T15:40:47Z</time>
      </trkpt>
      <trkpt lat="45.59906" lon="2.22353">
        <ele>811</ele>
        <time>2019-05-18T15:40:48Z</time>
      </trkpt>
      <trkpt lat="45.59909" lon="2.2235">
        <ele>810</ele>
        <time>2019-05-18T15:40:49Z</time>
      </trkpt>
      <trkpt lat="45.59911" lon="2.22348">
        <ele>810</ele>
        <time>2019-05-18T15:40:50Z</time>
      </trkpt>
      <trkpt lat="45.59914" lon="2.22346">
        <ele>809</ele>
        <time>2019-05-18T15:40:51Z</time>
      </trkpt>
      <trkpt lat="45.59917" lon="2.22344">
        <ele>809</ele>
        <time>2019-05-18T15:40:52Z</time>
      </trkpt>
      <trkpt lat="45.59919" lon="2.2234">
        <ele>808</ele>
        <time>2019-05-18T15:40:53Z</time>
      </trkpt>
      <trkpt lat="45.59922" lon="2.22339">
        <ele>807</ele>
        <time>2019-05-18T15:40:54Z</time>
      </trkpt>
      <trkpt lat="45.59927" lon="2.22338">
        <ele>806</ele>
        <time>2019-05-18T15:40:55Z</time>
      </trkpt>
      <trkpt lat="45.59931" lon="2.22336">
        <ele>805</ele>
        <time>2019-05-18T15:40:56Z</time>
      </trkpt>
      <trkpt lat="45.59936" lon="2.22335">
        <ele>804</ele>
        <time>2019-05-18T15:40:57Z</time>
      </trkpt>
      <trkpt lat="45.59941" lon="2.22333">
        <ele>803</ele>
        <time>2019-05-18T15:40:58Z</time>
      </trkpt>
      <trkpt lat="45.59945" lon="2.22331">
        <ele>802</ele>
        <time>2019-05-18T15:40:59Z</time>
      </trkpt>
      <trkpt lat="45.5995" lon="2.22328">
        <ele>801</ele>
        <time>2019-05-18T15:41:00Z</time>
      </trkpt>
      <trkpt lat="45.59954" lon="2.22325">
        <ele>799</ele>
        <time>2019-05-18T15:41:01Z</time>
      </trkpt>
      <trkpt lat="45.59958" lon="2.22323">
        <ele>799</ele>
        <time>2019-05-18T15:41:02Z</time>
      </trkpt>
      <trkpt lat="45.59962" lon="2.22318">
        <ele>798</ele>
        <time>2019-05-18T15:41:03Z</time>
      </trkpt>
      <trkpt lat="45.59966" lon="2.22316">
        <ele>798</ele>
        <time>2019-05-18T15:41:04Z</time>
      </trkpt>
      <trkpt lat="45.5997" lon="2.22311">
        <ele>798</ele>
        <time>2019-05-18T15:41:05Z</time>
      </trkpt>
      <trkpt lat="45.59974" lon="2.22307">
        <ele>798</ele>
        <time>2019-05-18T15:41:06Z</time>
      </trkpt>
      <trkpt lat="45.59978" lon="2.22301">
        <ele>798</ele>
        <time>2019-05-18T15:41:07Z</time>
      </trkpt>
      <trkpt lat="45.59981" lon="2.22296">
        <ele>797</ele>
        <time>2019-05-18T15:41:08Z</time>
      </trkpt>
      <trkpt lat="45.59984" lon="2.2229">
        <ele>797</ele>
        <time>2019-05-18T15:41:09Z</time>
      </trkpt>
      <trkpt lat="45.59987" lon="2.22286">
        <ele>797</ele>
        <time>2019-05-18T15:41:10Z</time>
      </trkpt>
      <trkpt lat="45.59989" lon="2.22282">
        <ele>797</ele>
        <time>2019-05-18T15:41:11Z</time>
      </trkpt>
      <trkpt lat="45.59991" lon="2.22279">
        <ele>797</ele>
        <time>2019-05-18T15:41:12Z</time>
      </trkpt>
      <trkpt lat="45.59993" lon="2.22275">
        <ele>797</ele>
        <time>2019-05-18T15:41:13Z</time>
      </trkpt>
      <trkpt lat="45.59993" lon="2.22272">
        <ele>798</ele>
        <time>2019-05-18T15:41:14Z</time>
      </trkpt>
      <trkpt lat="45.59994" lon="2.22269">
        <ele>798</ele>
        <time>2019-05-18T15:41:15Z</time>
      </trkpt>
      <trkpt lat="45.59995" lon="2.22267">
        <ele>798</ele>
        <time>2019-05-18T15:41:16Z</time>
      </trkpt>
      <trkpt lat="45.59997" lon="2.22265">
        <ele>798</ele>
        <time>2019-05-18T15:41:17Z</time>
      </trkpt>
      <trkpt lat="45.59998" lon="2.22264">
        <ele>799</ele>
        <time>2019-05-18T15:41:18Z</time>
      </trkpt>
      <trkpt lat="45.59999" lon="2.22262">
        <ele>799</ele>
        <time>2019-05-18T15:41:19Z</time>
      </trkpt>
      <trkpt lat="45.60001" lon="2.2226">
        <ele>799</ele>
        <time>2019-05-18T15:41:20Z</time>
      </trkpt>
      <trkpt lat="45.60001" lon="2.22257">
        <ele>799</ele>
        <time>2019-05-18T15:41:21Z</time>
      </trkpt>
      <trkpt lat="45.60003" lon="2.22255">
        <ele>800</ele>
        <time>2019-05-18T15:41:22Z</time>
      </trkpt>
      <trkpt lat="45.60004" lon="2.22253">
        <ele>800</ele>
        <time>2019-05-18T15:41:23Z</time>
      </trkpt>
      <trkpt lat="45.60005" lon="2.22252">
        <ele>800</ele>
        <time>2019-05-18T15:41:24Z</time>
      </trkpt>
      <trkpt lat="45.60007" lon="2.2225">
        <ele>800</ele>
        <time>2019-05-18T15:41:25Z</time>
      </trkpt>
      <trkpt lat="45.60008" lon="2.22247">
        <ele>800</ele>
        <time>2019-05-18T15:41:26Z</time>
      </trkpt>
      <trkpt lat="45.60009" lon="2.22245">
        <ele>800</ele>
        <time>2019-05-18T15:41:27Z</time>
      </trkpt>
      <trkpt lat="45.6001" lon="2.22244">
        <ele>800</ele>
        <time>2019-05-18T15:41:28Z</time>
      </trkpt>
      <trkpt lat="45.60011" lon="2.22243">
        <ele>800</ele>
        <time>2019-05-18T15:41:29Z</time>
      </trkpt>
      <trkpt lat="45.60013" lon="2.22241">
        <ele>800</ele>
        <time>2019-05-18T15:41:30Z</time>
      </trkpt>
      <trkpt lat="45.60014" lon="2.22239">
        <ele>800</ele>
        <time>2019-05-18T15:41:31Z</time>
      </trkpt>
      <trkpt lat="45.60015" lon="2.22238">
        <ele>800</ele>
        <time>2019-05-18T15:41:32Z</time>
      </trkpt>
      <trkpt lat="45.60017" lon="2.22236">
        <ele>800</ele>
        <time>2019-05-18T15:41:33Z</time>
      </trkpt>
      <trkpt lat="45.60019" lon="2.22235">
        <ele>800</ele>
        <time>2019-05-18T15:41:34Z</time>
      </trkpt>
      <trkpt lat="45.6002" lon="2.22234">
        <ele>800</ele>
        <time>2019-05-18T15:41:35Z</time>
      </trkpt>
      <trkpt lat="45.60021" lon="2.22234">
        <ele>800</ele>
        <time>2019-05-18T15:41:36Z</time>
      </trkpt>
      <trkpt lat="45.60022" lon="2.22234">
        <ele>801</ele>
        <time>2019-05-18T15:41:37Z</time>
      </trkpt>
      <trkpt lat="45.60023" lon="2.22233">
        <ele>801</ele>
        <time>2019-05-18T15:41:38Z</time>
      </trkpt>
      <trkpt lat="45.60024" lon="2.22233">
        <ele>801</ele>
        <time>2019-05-18T15:41:39Z</time>
      </trkpt>
      <trkpt lat="45.60025" lon="2.22233">
        <ele>801</ele>
        <time>2019-05-18T15:41:40Z</time>
      </trkpt>
      <trkpt lat="45.60026" lon="2.22234">
        <ele>801</ele>
        <time>2019-05-18T15:41:41Z</time>
      </trkpt>
      <trkpt lat="45.60028" lon="2.22234">
        <ele>801</ele>
        <time>2019-05-18T15:41:42Z</time>
      </trkpt>
      <trkpt lat="45.60029" lon="2.22234">
        <ele>802</ele>
        <time>2019-05-18T15:41:43Z</time>
      </trkpt>
      <trkpt lat="45.6003" lon="2.22235">
        <ele>802</ele>
        <time>2019-05-18T15:41:44Z</time>
      </trkpt>
      <trkpt lat="45.60031" lon="2.22236">
        <ele>802</ele>
        <time>2019-05-18T15:41:45Z</time>
      </trkpt>
      <trkpt lat="45.60032" lon="2.22236">
        <ele>802</ele>
        <time>2019-05-18T15:41:46Z</time>
      </trkpt>
      <trkpt lat="45.60034" lon="2.22237">
        <ele>803</ele>
        <time>2019-05-18T15:41:47Z</time>
      </trkpt>
      <trkpt lat="45.60035" lon="2.22238">
        <ele>803</ele>
        <time>2019-05-18T15:41:48Z</time>
      </trkpt>
      <trkpt lat="45.60036" lon="2.22238">
        <ele>803</ele>
        <time>2019-05-18T15:41:49Z</time>
      </trkpt>
      <trkpt lat="45.60038" lon="2.22239">
        <ele>803</ele>
        <time>2019-05-18T15:41:50Z</time>
      </trkpt>
      <trkpt lat="45.60039" lon="2.2224">
        <ele>804</ele>
        <time>2019-05-18T15:41:51Z</time>
      </trkpt>
      <trkpt lat="45.6004" lon="2.2224">
        <ele>804</ele>
        <time>2019-05-18T15:41:52Z</time>
      </trkpt>
      <trkpt lat="45.60041" lon="2.22241">
        <ele>804</ele>
        <time>2019-05-18T15:41:53Z</time>
      </trkpt>
      <trkpt lat="45.60043" lon="2.22241">
        <ele>804</ele>
        <time>2019-05-18T15:41:54Z</time>
      </trkpt>
      <trkpt lat="45.60045" lon="2.22242">
        <ele>804</ele>
        <time>2019-05-18T15:41:55Z</time>
      </trkpt>
      <trkpt lat="45.60046" lon="2.22242">
        <ele>804</ele>
        <time>2019-05-18T15:41:56Z</time>
      </trkpt>
      <trkpt lat="45.60047" lon="2.22242">
        <ele>805</ele>
        <time>2019-05-18T15:41:57Z</time>
      </trkpt>
      <trkpt lat="45.60049" lon="2.22241">
        <ele>805</ele>
        <time>2019-05-18T15:41:58Z</time>
      </trkpt>
      <trkpt lat="45.60051" lon="2.22242">
        <ele>805</ele>
        <time>2019-05-18T15:41:59Z</time>
      </trkpt>
      <trkpt lat="45.60053" lon="2.22242">
        <ele>805</ele>
        <time>2019-05-18T15:42:00Z</time>
      </trkpt>
      <trkpt lat="45.60055" lon="2.22242">
        <ele>805</ele>
        <time>2019-05-18T15:42:01Z</time>
      </trkpt>
      <trkpt lat="45.60056" lon="2.22242">
        <ele>805</ele>
        <time>2019-05-18T15:42:02Z</time>
      </trkpt>
      <trkpt lat="45.60058" lon="2.22242">
        <ele>805</ele>
        <time>2019-05-18T15:42:03Z</time>
      </trkpt>
      <trkpt lat="45.60061" lon="2.22242">
        <ele>805</ele>
        <time>2019-05-18T15:42:04Z</time>
      </trkpt>
      <trkpt lat="45.60062" lon="2.22242">
        <ele>805</ele>
        <time>2019-05-18T15:42:05Z</time>
      </trkpt>
      <trkpt lat="45.60064" lon="2.22242">
        <ele>805</ele>
        <time>2019-05-18T15:42:06Z</time>
      </trkpt>
      <trkpt lat="45.60065" lon="2.22241">
        <ele>805</ele>
        <time>2019-05-18T15:42:07Z</time>
      </trkpt>
      <trkpt lat="45.60067" lon="2.2224">
        <ele>805</ele>
        <time>2019-05-18T15:42:08Z</time>
      </trkpt>
      <trkpt lat="45.60069" lon="2.22239">
        <ele>805</ele>
        <time>2019-05-18T15:42:09Z</time>
      </trkpt>
      <trkpt lat="45.60071" lon="2.22239">
        <ele>805</ele>
        <time>2019-05-18T15:42:10Z</time>
      </trkpt>
      <trkpt lat="45.60073" lon="2.22239">
        <ele>805</ele>
        <time>2019-05-18T15:42:11Z</time>
      </trkpt>
      <trkpt lat="45.60075" lon="2.22239">
        <ele>805</ele>
        <time>2019-05-18T15:42:12Z</time>
      </trkpt>
      <trkpt lat="45.60077" lon="2.22239">
        <ele>805</ele>
        <time>2019-05-18T15:42:13Z</time>
      </trkpt>
      <trkpt lat="45.60078" lon="2.2224">
        <ele>805</ele>
        <time>2019-05-18T15:42:14Z</time>
      </trkpt>
      <trkpt lat="45.60079" lon="2.22241">
        <ele>805</ele>
        <time>2019-05-18T15:42:15Z</time>
      </trkpt>
      <trkpt lat="45.60081" lon="2.22242">
        <ele>805</ele>
        <time>2019-05-18T15:42:16Z</time>
      </trkpt>
      <trkpt lat="45.60082" lon="2.22243">
        <ele>805</ele>
        <time>2019-05-18T15:42:17Z</time>
      </trkpt>
      <trkpt lat="45.60084" lon="2.22243">
        <ele>805</ele>
        <time>2019-05-18T15:42:18Z</time>
      </trkpt>
      <trkpt lat="45.60087" lon="2.22244">
        <ele>805</ele>
        <time>2019-05-18T15:42:19Z</time>
      </trkpt>
      <trkpt lat="45.6009" lon="2.22245">
        <ele>805</ele>
        <time>2019-05-18T15:42:20Z</time>
      </trkpt>
      <trkpt lat="45.60092" lon="2.22245">
        <ele>805</ele>
        <time>2019-05-18T15:42:21Z</time>
      </trkpt>
      <trkpt lat="45.60094" lon="2.22246">
        <ele>806</ele>
        <time>2019-05-18T15:42:22Z</time>
      </trkpt>
      <trkpt lat="45.60095" lon="2.22247">
        <ele>806</ele>
        <time>2019-05-18T15:42:23Z</time>
      </trkpt>
      <trkpt lat="45.60097" lon="2.22247">
        <ele>806</ele>
        <time>2019-05-18T15:42:24Z</time>
      </trkpt>
      <trkpt lat="45.60099" lon="2.22247">
        <ele>806</ele>
        <time>2019-05-18T15:42:25Z</time>
      </trkpt>
      <trkpt lat="45.60101" lon="2.22248">
        <ele>806</ele>
        <time>2019-05-18T15:42:26Z</time>
      </trkpt>
      <trkpt lat="45.60102" lon="2.22248">
        <ele>806</ele>
        <time>2019-05-18T15:42:27Z</time>
      </trkpt>
      <trkpt lat="45.60104" lon="2.22249">
        <ele>806</ele>
        <time>2019-05-18T15:42:28Z</time>
      </trkpt>
      <trkpt lat="45.60105" lon="2.2225">
        <ele>806</ele>
        <time>2019-05-18T15:42:29Z</time>
      </trkpt>
      <trkpt lat="45.60107" lon="2.22252">
        <ele>806</ele>
        <time>2019-05-18T15:42:30Z</time>
      </trkpt>
      <trkpt lat="45.6011" lon="2.22253">
        <ele>806</ele>
        <time>2019-05-18T15:42:31Z</time>
      </trkpt>
      <trkpt lat="45.60112" lon="2.22254">
        <ele>806</ele>
        <time>2019-05-18T15:42:32Z</time>
      </trkpt>
      <trkpt lat="45.60116" lon="2.22255">
        <ele>805</ele>
        <time>2019-05-18T15:42:33Z</time>
      </trkpt>
      <trkpt lat="45.6012" lon="2.22257">
        <ele>805</ele>
        <time>2019-05-18T15:42:34Z</time>
      </trkpt>
      <trkpt lat="45.60124" lon="2.2226">
        <ele>805</ele>
        <time>2019-05-18T15:42:35Z</time>
      </trkpt>
      <trkpt lat="45.60127" lon="2.22264">
        <ele>804</ele>
        <time>2019-05-18T15:42:36Z</time>
      </trkpt>
      <trkpt lat="45.60129" lon="2.22267">
        <ele>804</ele>
        <time>2019-05-18T15:42:37Z</time>
      </trkpt>
      <trkpt lat="45.60131" lon="2.2227">
        <ele>804</ele>
        <time>2019-05-18T15:42:38Z</time>
      </trkpt>
      <trkpt lat="45.60133" lon="2.22272">
        <ele>803</ele>
        <time>2019-05-18T15:42:39Z</time>
      </trkpt>
      <trkpt lat="45.60135" lon="2.22276">
        <ele>803</ele>
        <time>2019-05-18T15:42:40Z</time>
      </trkpt>
      <trkpt lat="45.60137" lon="2.2228">
        <ele>802</ele>
        <time>2019-05-18T15:42:41Z</time>
      </trkpt>
      <trkpt lat="45.60139" lon="2.22283">
        <ele>802</ele>
        <time>2019-05-18T15:42:42Z</time>
      </trkpt>
      <trkpt lat="45.60141" lon="2.22288">
        <ele>801</ele>
        <time>2019-05-18T15:42:43Z</time>
      </trkpt>
      <trkpt lat="45.60145" lon="2.22291">
        <ele>801</ele>
        <time>2019-05-18T15:42:44Z</time>
      </trkpt>
      <trkpt lat="45.60148" lon="2.22293">
        <ele>800</ele>
        <time>2019-05-18T15:42:45Z</time>
      </trkpt>
      <trkpt lat="45.60151" lon="2.22294">
        <ele>799</ele>
        <time>2019-05-18T15:42:46Z</time>
      </trkpt>
      <trkpt lat="45.60153" lon="2.22295">
        <ele>799</ele>
        <time>2019-05-18T15:42:47Z</time>
      </trkpt>
      <trkpt lat="45.60156" lon="2.22295">
        <ele>798</ele>
        <time>2019-05-18T15:42:48Z</time>
      </trkpt>
      <trkpt lat="45.60159" lon="2.22294">
        <ele>797</ele>
        <time>2019-05-18T15:42:49Z</time>
      </trkpt>
      <trkpt lat="45.60164" lon="2.22294">
        <ele>797</ele>
        <time>2019-05-18T15:42:50Z</time>
      </trkpt>
      <trkpt lat="45.60169" lon="2.22293">
        <ele>796</ele>
        <time>2019-05-18T15:42:51Z</time>
      </trkpt>
      <trkpt lat="45.60174" lon="2.2229">
        <ele>795</ele>
        <time>2019-05-18T15:42:52Z</time>
      </trkpt>
      <trkpt lat="45.60179" lon="2.22286">
        <ele>795</ele>
        <time>2019-05-18T15:42:53Z</time>
      </trkpt>
      <trkpt lat="45.60183" lon="2.22282">
        <ele>794</ele>
        <time>2019-05-18T15:42:54Z</time>
      </trkpt>
      <trkpt lat="45.60187" lon="2.22277">
        <ele>794</ele>
        <time>2019-05-18T15:42:55Z</time>
      </trkpt>
      <trkpt lat="45.60191" lon="2.22272">
        <ele>793</ele>
        <time>2019-05-18T15:42:56Z</time>
      </trkpt>
      <trkpt lat="45.60195" lon="2.22266">
        <ele>793</ele>
        <time>2019-05-18T15:42:57Z</time>
      </trkpt>
      <trkpt lat="45.60199" lon="2.22259">
        <ele>792</ele>
        <time>2019-05-18T15:42:58Z</time>
      </trkpt>
      <trkpt lat="45.60203" lon="2.22253">
        <ele>792</ele>
        <time>2019-05-18T15:42:59Z</time>
      </trkpt>
      <trkpt lat="45.60206" lon="2.22247">
        <ele>791</ele>
        <time>2019-05-18T15:43:00Z</time>
      </trkpt>
      <trkpt lat="45.6021" lon="2.2224">
        <ele>791</ele>
        <time>2019-05-18T15:43:01Z</time>
      </trkpt>
      <trkpt lat="45.60215" lon="2.22232">
        <ele>790</ele>
        <time>2019-05-18T15:43:02Z</time>
      </trkpt>
      <trkpt lat="45.6022" lon="2.22225">
        <ele>790</ele>
        <time>2019-05-18T15:43:03Z</time>
      </trkpt>
      <trkpt lat="45.60224" lon="2.22219">
        <ele>789</ele>
        <time>2019-05-18T15:43:04Z</time>
      </trkpt>
      <trkpt lat="45.60229" lon="2.22212">
        <ele>789</ele>
        <time>2019-05-18T15:43:05Z</time>
      </trkpt>
      <trkpt lat="45.60233" lon="2.22208">
        <ele>788</ele>
        <time>2019-05-18T15:43:06Z</time>
      </trkpt>
      <trkpt lat="45.60238" lon="2.22202">
        <ele>788</ele>
        <time>2019-05-18T15:43:07Z</time>
      </trkpt>
      <trkpt lat="45.60243" lon="2.22196">
        <ele>788</ele>
        <time>2019-05-18T15:43:08Z</time>
      </trkpt>
      <trkpt lat="45.60247" lon="2.22192">
        <ele>787</ele>
        <time>2019-05-18T15:43:09Z</time>
      </trkpt>
      <trkpt lat="45.60249" lon="2.22186">
        <ele>786</ele>
        <time>2019-05-18T15:43:10Z</time>
      </trkpt>
      <trkpt lat="45.60251" lon="2.22182">
        <ele>786</ele>
        <time>2019-05-18T15:43:11Z</time>
      </trkpt>
      <trkpt lat="45.60253" lon="2.22179">
        <ele>786</ele>
        <time>2019-05-18T15:43:12Z</time>
      </trkpt>
      <trkpt lat="45.60255" lon="2.22177">
        <ele>786</ele>
        <time>2019-05-18T15:43:13Z</time>
      </trkpt>
      <trkpt lat="45.60258" lon="2.22175">
        <ele>786</ele>
        <time>2019-05-18T15:43:14Z</time>
      </trkpt>
      <trkpt lat="45.60262" lon="2.22173">
        <ele>786</ele>
        <time>2019-05-18T15:43:15Z</time>
      </trkpt>
      <trkpt lat="45.60266" lon="2.22171">
        <ele>785</ele>
        <time>2019-05-18T15:43:16Z</time>
      </trkpt>
      <trkpt lat="45.60269" lon="2.2217">
        <ele>785</ele>
        <time>2019-05-18T15:43:17Z</time>
      </trkpt>
      <trkpt lat="45.60272" lon="2.22167">
        <ele>784</ele>
        <time>2019-05-18T15:43:18Z</time>
      </trkpt>
      <trkpt lat="45.60275" lon="2.22166">
        <ele>784</ele>
        <time>2019-05-18T15:43:19Z</time>
      </trkpt>
      <trkpt lat="45.60278" lon="2.22165">
        <ele>783</ele>
        <time>2019-05-18T15:43:20Z</time>
      </trkpt>
      <trkpt lat="45.60282" lon="2.22164">
        <ele>782</ele>
        <time>2019-05-18T15:43:21Z</time>
      </trkpt>
      <trkpt lat="45.60285" lon="2.22163">
        <ele>782</ele>
        <time>2019-05-18T15:43:22Z</time>
      </trkpt>
      <trkpt lat="45.60288" lon="2.22162">
        <ele>781</ele>
        <time>2019-05-18T15:43:23Z</time>
      </trkpt>
      <trkpt lat="45.6029" lon="2.22159">
        <ele>781</ele>
        <time>2019-05-18T15:43:24Z</time>
      </trkpt>
      <trkpt lat="45.60293" lon="2.22158">
        <ele>780</ele>
        <time>2019-05-18T15:43:25Z</time>
      </trkpt>
      <trkpt lat="45.60295" lon="2.22158">
        <ele>780</ele>
        <time>2019-05-18T15:43:26Z</time>
      </trkpt>
      <trkpt lat="45.60297" lon="2.22157">
        <ele>780</ele>
        <time>2019-05-18T15:43:27Z</time>
      </trkpt>
      <trkpt lat="45.60299" lon="2.22157">
        <ele>779</ele>
        <time>2019-05-18T15:43:28Z</time>
      </trkpt>
      <trkpt lat="45.60301" lon="2.22157">
        <ele>779</ele>
        <time>2019-05-18T15:43:29Z</time>
      </trkpt>
      <trkpt lat="45.60302" lon="2.22157">
        <ele>779</ele>
        <time>2019-05-18T15:43:30Z</time>
      </trkpt>
      <trkpt lat="45.60303" lon="2.22157">
        <ele>779</ele>
        <time>2019-05-18T15:43:31Z</time>
      </trkpt>
      <trkpt lat="45.60304" lon="2.22156">
        <ele>779</ele>
        <time>2019-05-18T15:43:32Z</time>
      </trkpt>
      <trkpt lat="45.60305" lon="2.22154">
        <ele>779</ele>
        <time>2019-05-18T15:43:33Z</time>
      </trkpt>
      <trkpt lat="45.60305" lon="2.22151">
        <ele>779</ele>
        <time>2019-05-18T15:43:34Z</time>
      </trkpt>
      <trkpt lat="45.60306" lon="2.22148">
        <ele>779</ele>
        <time>2019-05-18T15:43:35Z</time>
      </trkpt>
      <trkpt lat="45.60307" lon="2.22145">
        <ele>778</ele>
        <time>2019-05-18T15:43:36Z</time>
      </trkpt>
      <trkpt lat="45.60308" lon="2.22143">
        <ele>778</ele>
        <time>2019-05-18T15:43:37Z</time>
      </trkpt>
      <trkpt lat="45.60309" lon="2.2214">
        <ele>778</ele>
        <time>2019-05-18T15:43:38Z</time>
      </trkpt>
      <trkpt lat="45.6031" lon="2.22137">
        <ele>778</ele>
        <time>2019-05-18T15:43:39Z</time>
      </trkpt>
      <trkpt lat="45.6031" lon="2.22134">
        <ele>778</ele>
        <time>2019-05-18T15:43:40Z</time>
      </trkpt>
      <trkpt lat="45.6031" lon="2.22131">
        <ele>778</ele>
        <time>2019-05-18T15:43:41Z</time>
      </trkpt>
      <trkpt lat="45.6031" lon="2.22127">
        <ele>778</ele>
        <time>2019-05-18T15:43:42Z</time>
      </trkpt>
      <trkpt lat="45.60309" lon="2.22124">
        <ele>779</ele>
        <time>2019-05-18T15:43:43Z</time>
      </trkpt>
      <trkpt lat="45.60309" lon="2.22121">
        <ele>779</ele>
        <time>2019-05-18T15:43:44Z</time>
      </trkpt>
      <trkpt lat="45.60308" lon="2.22119">
        <ele>779</ele>
        <time>2019-05-18T15:43:45Z</time>
      </trkpt>
      <trkpt lat="45.60307" lon="2.22116">
        <ele>778</ele>
        <time>2019-05-18T15:43:46Z</time>
      </trkpt>
      <trkpt lat="45.60306" lon="2.22113">
        <ele>779</ele>
        <time>2019-05-18T15:43:47Z</time>
      </trkpt>
      <trkpt lat="45.60306" lon="2.2211">
        <ele>779</ele>
        <time>2019-05-18T15:43:48Z</time>
      </trkpt>
      <trkpt lat="45.60305" lon="2.22107">
        <ele>779</ele>
        <time>2019-05-18T15:43:49Z</time>
      </trkpt>
      <trkpt lat="45.60305" lon="2.22104">
        <ele>779</ele>
        <time>2019-05-18T15:43:50Z</time>
      </trkpt>
      <trkpt lat="45.60304" lon="2.22101">
        <ele>778</ele>
        <time>2019-05-18T15:43:51Z</time>
      </trkpt>
      <trkpt lat="45.60304" lon="2.22098">
        <ele>778</ele>
        <time>2019-05-18T15:43:52Z</time>
      </trkpt>
      <trkpt lat="45.60303" lon="2.22096">
        <ele>778</ele>
        <time>2019-05-18T15:43:53Z</time>
      </trkpt>
      <trkpt lat="45.60302" lon="2.22093">
        <ele>778</ele>
        <time>2019-05-18T15:43:54Z</time>
      </trkpt>
      <trkpt lat="45.60302" lon="2.2209">
        <ele>778</ele>
        <time>2019-05-18T15:43:55Z</time>
      </trkpt>
      <trkpt lat="45.60301" lon="2.22087">
        <ele>778</ele>
        <time>2019-05-18T15:43:56Z</time>
      </trkpt>
      <trkpt lat="45.60301" lon="2.22084">
        <ele>778</ele>
        <time>2019-05-18T15:43:57Z</time>
      </trkpt>
      <trkpt lat="45.603" lon="2.22081">
        <ele>779</ele>
        <time>2019-05-18T15:43:58Z</time>
      </trkpt>
      <trkpt lat="45.603" lon="2.22078">
        <ele>779</ele>
        <time>2019-05-18T15:43:59Z</time>
      </trkpt>
      <trkpt lat="45.60299" lon="2.22075">
        <ele>779</ele>
        <time>2019-05-18T15:44:00Z</time>
      </trkpt>
      <trkpt lat="45.60299" lon="2.22072">
        <ele>779</ele>
        <time>2019-05-18T15:44:01Z</time>
      </trkpt>
      <trkpt lat="45.60298" lon="2.22069">
        <ele>779</ele>
        <time>2019-05-18T15:44:02Z</time>
      </trkpt>
      <trkpt lat="45.60296" lon="2.22066">
        <ele>779</ele>
        <time>2019-05-18T15:44:03Z</time>
      </trkpt>
      <trkpt lat="45.60295" lon="2.22064">
        <ele>779</ele>
        <time>2019-05-18T15:44:04Z</time>
      </trkpt>
      <trkpt lat="45.60294" lon="2.22062">
        <ele>779</ele>
        <time>2019-05-18T15:44:05Z</time>
      </trkpt>
      <trkpt lat="45.60292" lon="2.2206">
        <ele>779</ele>
        <time>2019-05-18T15:44:06Z</time>
      </trkpt>
      <trkpt lat="45.60291" lon="2.22058">
        <ele>780</ele>
        <time>2019-05-18T15:44:07Z</time>
      </trkpt>
      <trkpt lat="45.60289" lon="2.22056">
        <ele>780</ele>
        <time>2019-05-18T15:44:08Z</time>
      </trkpt>
      <trkpt lat="45.60289" lon="2.22054">
        <ele>780</ele>
        <time>2019-05-18T15:44:09Z</time>
      </trkpt>
      <trkpt lat="45.60288" lon="2.22052">
        <ele>781</ele>
        <time>2019-05-18T15:44:10Z</time>
      </trkpt>
      <trkpt lat="45.60287" lon="2.2205">
        <ele>781</ele>
        <time>2019-05-18T15:44:11Z</time>
      </trkpt>
      <trkpt lat="45.60285" lon="2.22047">
        <ele>781</ele>
        <time>2019-05-18T15:44:12Z</time>
      </trkpt>
      <trkpt lat="45.60284" lon="2.22045">
        <ele>781</ele>
        <time>2019-05-18T15:44:13Z</time>
      </trkpt>
      <trkpt lat="45.60283" lon="2.22042">
        <ele>781</ele>
        <time>2019-05-18T15:44:14Z</time>
      </trkpt>
      <trkpt lat="45.60282" lon="2.22039">
        <ele>781</ele>
        <time>2019-05-18T15:44:15Z</time>
      </trkpt>
      <trkpt lat="45.60281" lon="2.22036">
        <ele>781</ele>
        <time>2019-05-18T15:44:16Z</time>
      </trkpt>
      <trkpt lat="45.6028" lon="2.22033">
        <ele>781</ele>
        <time>2019-05-18T15:44:17Z</time>
      </trkpt>
      <trkpt lat="45.60279" lon="2.22031">
        <ele>781</ele>
        <time>2019-05-18T15:44:18Z</time>
      </trkpt>
      <trkpt lat="45.60279" lon="2.22028">
        <ele>781</ele>
        <time>2019-05-18T15:44:19Z</time>
      </trkpt>
      <trkpt lat="45.60278" lon="2.22025">
        <ele>781</ele>
        <time>2019-05-18T15:44:20Z</time>
      </trkpt>
      <trkpt lat="45.60278" lon="2.22023">
        <ele>781</ele>
        <time>2019-05-18T15:44:21Z</time>
      </trkpt>
      <trkpt lat="45.60278" lon="2.2202">
        <ele>781</ele>
        <time>2019-05-18T15:44:22Z</time>
      </trkpt>
      <trkpt lat="45.60277" lon="2.22017">
        <ele>782</ele>
        <time>2019-05-18T15:44:23Z</time>
      </trkpt>
      <trkpt lat="45.60277" lon="2.22015">
        <ele>782</ele>
        <time>2019-05-18T15:44:24Z</time>
      </trkpt>
      <trkpt lat="45.60277" lon="2.22014">
        <ele>782</ele>
        <time>2019-05-18T15:44:25Z</time>
      </trkpt>
      <trkpt lat="45.60277" lon="2.22011">
        <ele>782</ele>
        <time>2019-05-18T15:44:26Z</time>
      </trkpt>
      <trkpt lat="45.60277" lon="2.22008">
        <ele>782</ele>
        <time>2019-05-18T15:44:27Z</time>
      </trkpt>
      <trkpt lat="45.60277" lon="2.22005">
        <ele>782</ele>
        <time>2019-05-18T15:44:28Z</time>
      </trkpt>
      <trkpt lat="45.60277" lon="2.22002">
        <ele>782</ele>
        <time>2019-05-18T15:44:29Z</time>
      </trkpt>
      <trkpt lat="45.60278" lon="2.22">
        <ele>782</ele>
        <time>2019-05-18T15:44:30Z</time>
      </trkpt>
      <trkpt lat="45.60278" lon="2.21997">
        <ele>782</ele>
        <time>2019-05-18T15:44:31Z</time>
      </trkpt>
      <trkpt lat="45.60278" lon="2.21995">
        <ele>782</ele>
        <time>2019-05-18T15:44:32Z</time>
      </trkpt>
      <trkpt lat="45.60278" lon="2.21993">
        <ele>782</ele>
        <time>2019-05-18T15:44:33Z</time>
      </trkpt>
      <trkpt lat="45.60278" lon="2.2199">
        <ele>782</ele>
        <time>2019-05-18T15:44:34Z</time>
      </trkpt>
      <trkpt lat="45.60278" lon="2.21987">
        <ele>783</ele>
        <time>2019-05-18T15:44:35Z</time>
      </trkpt>
      <trkpt lat="45.60278" lon="2.21984">
        <ele>783</ele>
        <time>2019-05-18T15:44:36Z</time>
      </trkpt>
      <trkpt lat="45.60278" lon="2.21981">
        <ele>783</ele>
        <time>2019-05-18T15:44:37Z</time>
      </trkpt>
      <trkpt lat="45.60278" lon="2.21979">
        <ele>783</ele>
        <time>2019-05-18T15:44:38Z</time>
      </trkpt>
      <trkpt lat="45.60278" lon="2.21978">
        <ele>783</ele>
        <time>2019-05-18T15:44:39Z</time>
      </trkpt>
      <trkpt lat="45.60278" lon="2.21976">
        <ele>783</ele>
        <time>2019-05-18T15:44:40Z</time>
      </trkpt>
      <trkpt lat="45.60278" lon="2.21973">
        <ele>783</ele>
        <time>2019-05-18T15:44:41Z</time>
      </trkpt>
      <trkpt lat="45.60278" lon="2.2197">
        <ele>783</ele>
        <time>2019-05-18T15:44:42Z</time>
      </trkpt>
      <trkpt lat="45.60277" lon="2.21967">
        <ele>783</ele>
        <time>2019-05-18T15:44:43Z</time>
      </trkpt>
      <trkpt lat="45.60277" lon="2.21964">
        <ele>783</ele>
        <time>2019-05-18T15:44:44Z</time>
      </trkpt>
      <trkpt lat="45.60277" lon="2.21962">
        <ele>783</ele>
        <time>2019-05-18T15:44:45Z</time>
      </trkpt>
      <trkpt lat="45.60277" lon="2.21959">
        <ele>783</ele>
        <time>2019-05-18T15:44:46Z</time>
      </trkpt>
      <trkpt lat="45.60276" lon="2.21957">
        <ele>783</ele>
        <time>2019-05-18T15:44:47Z</time>
      </trkpt>
      <trkpt lat="45.60276" lon="2.21954">
        <ele>783</ele>
        <time>2019-05-18T15:44:48Z</time>
      </trkpt>
      <trkpt lat="45.60275" lon="2.21951">
        <ele>783</ele>
        <time>2019-05-18T15:44:49Z</time>
      </trkpt>
      <trkpt lat="45.60275" lon="2.21949">
        <ele>783</ele>
        <time>2019-05-18T15:44:50Z</time>
      </trkpt>
      <trkpt lat="45.60274" lon="2.21946">
        <ele>783</ele>
        <time>2019-05-18T15:44:51Z</time>
      </trkpt>
      <trkpt lat="45.60274" lon="2.21943">
        <ele>783</ele>
        <time>2019-05-18T15:44:52Z</time>
      </trkpt>
      <trkpt lat="45.60273" lon="2.2194">
        <ele>783</ele>
        <time>2019-05-18T15:44:53Z</time>
      </trkpt>
      <trkpt lat="45.60272" lon="2.21937">
        <ele>783</ele>
        <time>2019-05-18T15:44:54Z</time>
      </trkpt>
      <trkpt lat="45.60272" lon="2.21935">
        <ele>783</ele>
        <time>2019-05-18T15:44:55Z</time>
      </trkpt>
      <trkpt lat="45.60271" lon="2.21932">
        <ele>783</ele>
        <time>2019-05-18T15:44:56Z</time>
      </trkpt>
      <trkpt lat="45.6027" lon="2.21929">
        <ele>783</ele>
        <time>2019-05-18T15:44:57Z</time>
      </trkpt>
      <trkpt lat="45.60269" lon="2.21926">
        <ele>783</ele>
        <time>2019-05-18T15:44:58Z</time>
      </trkpt>
      <trkpt lat="45.60267" lon="2.21924">
        <ele>783</ele>
        <time>2019-05-18T15:44:59Z</time>
      </trkpt>
      <trkpt lat="45.60266" lon="2.21923">
        <ele>784</ele>
        <time>2019-05-18T15:45:00Z</time>
      </trkpt>
      <trkpt lat="45.60265" lon="2.21921">
        <ele>784</ele>
        <time>2019-05-18T15:45:01Z</time>
      </trkpt>
      <trkpt lat="45.60264" lon="2.2192">
        <ele>784</ele>
        <time>2019-05-18T15:45:02Z</time>
      </trkpt>
      <trkpt lat="45.60263" lon="2.21918">
        <ele>784</ele>
        <time>2019-05-18T15:45:03Z</time>
      </trkpt>
      <trkpt lat="45.60262" lon="2.21917">
        <ele>785</ele>
        <time>2019-05-18T15:45:04Z</time>
      </trkpt>
      <trkpt lat="45.60261" lon="2.21916">
        <ele>785</ele>
        <time>2019-05-18T15:45:05Z</time>
      </trkpt>
      <trkpt lat="45.6026" lon="2.21916">
        <ele>785</ele>
        <time>2019-05-18T15:45:06Z</time>
      </trkpt>
      <trkpt lat="45.60259" lon="2.21915">
        <ele>786</ele>
        <time>2019-05-18T15:45:07Z</time>
      </trkpt>
      <trkpt lat="45.60257" lon="2.21915">
        <ele>786</ele>
        <time>2019-05-18T15:45:08Z</time>
      </trkpt>
      <trkpt lat="45.60256" lon="2.21914">
        <ele>786</ele>
        <time>2019-05-18T15:45:09Z</time>
      </trkpt>
      <trkpt lat="45.60255" lon="2.21915">
        <ele>786</ele>
        <time>2019-05-18T15:45:10Z</time>
      </trkpt>
      <trkpt lat="45.60254" lon="2.21915">
        <ele>787</ele>
        <time>2019-05-18T15:45:11Z</time>
      </trkpt>
      <trkpt lat="45.60253" lon="2.21916">
        <ele>787</ele>
        <time>2019-05-18T15:45:12Z</time>
      </trkpt>
      <trkpt lat="45.60253" lon="2.21918">
        <ele>787</ele>
        <time>2019-05-18T15:45:13Z</time>
      </trkpt>
      <trkpt lat="45.60253" lon="2.21919">
        <ele>787</ele>
        <time>2019-05-18T15:45:14Z</time>
      </trkpt>
      <trkpt lat="45.60251" lon="2.2192">
        <ele>788</ele>
        <time>2019-05-18T15:45:15Z</time>
      </trkpt>
      <trkpt lat="45.60251" lon="2.21921">
        <ele>788</ele>
        <time>2019-05-18T15:45:16Z</time>
      </trkpt>
      <trkpt lat="45.60251" lon="2.21922">
        <ele>788</ele>
        <time>2019-05-18T15:45:17Z</time>
      </trkpt>
      <trkpt lat="45.60251" lon="2.21923">
        <ele>788</ele>
        <time>2019-05-18T15:45:18Z</time>
      </trkpt>
      <trkpt lat="45.60251" lon="2.21924">
        <ele>789</ele>
        <time>2019-05-18T15:45:19Z</time>
      </trkpt>
      <trkpt lat="45.60251" lon="2.21925">
        <ele>789</ele>
        <time>2019-05-18T15:45:20Z</time>
      </trkpt>
      <trkpt lat="45.6025" lon="2.21927">
        <ele>789</ele>
        <time>2019-05-18T15:45:21Z</time>
      </trkpt>
      <trkpt lat="45.6025" lon="2.21928">
        <ele>789</ele>
        <time>2019-05-18T15:45:22Z</time>
      </trkpt>
      <trkpt lat="45.6025" lon="2.2193">
        <ele>789</ele>
        <time>2019-05-18T15:45:23Z</time>
      </trkpt>
      <trkpt lat="45.6025" lon="2.21931">
        <ele>790</ele>
        <time>2019-05-18T15:45:24Z</time>
      </trkpt>
      <trkpt lat="45.6025" lon="2.21933">
        <ele>790</ele>
        <time>2019-05-18T15:45:25Z</time>
      </trkpt>
      <trkpt lat="45.6025" lon="2.21934">
        <ele>790</ele>
        <time>2019-05-18T15:45:26Z</time>
      </trkpt>
      <trkpt lat="45.6025" lon="2.21935">
        <ele>790</ele>
        <time>2019-05-18T15:45:27Z</time>
      </trkpt>
      <trkpt lat="45.6025" lon="2.21937">
        <ele>790</ele>
        <time>2019-05-18T15:45:28Z</time>
      </trkpt>
      <trkpt lat="45.6025" lon="2.21939">
        <ele>790</ele>
        <time>2019-05-18T15:45:29Z</time>
      </trkpt>
      <trkpt lat="45.6025" lon="2.2194">
        <ele>791</ele>
        <time>2019-05-18T15:45:30Z</time>
      </trkpt>
      <trkpt lat="45.6025" lon="2.21942">
        <ele>791</ele>
        <time>2019-05-18T15:45:31Z</time>
      </trkpt>
      <trkpt lat="45.6025" lon="2.21943">
        <ele>791</ele>
        <time>2019-05-18T15:45:32Z</time>
      </trkpt>
      <trkpt lat="45.6025" lon="2.21945">
        <ele>791</ele>
        <time>2019-05-18T15:45:33Z</time>
      </trkpt>
      <trkpt lat="45.60249" lon="2.21947">
        <ele>791</ele>
        <time>2019-05-18T15:45:34Z</time>
      </trkpt>
      <trkpt lat="45.60249" lon="2.21948">
        <ele>791</ele>
        <time>2019-05-18T15:45:35Z</time>
      </trkpt>
      <trkpt lat="45.60249" lon="2.2195">
        <ele>791</ele>
        <time>2019-05-18T15:45:36Z</time>
      </trkpt>
      <trkpt lat="45.60249" lon="2.21952">
        <ele>791</ele>
        <time>2019-05-18T15:45:37Z</time>
      </trkpt>
      <trkpt lat="45.60248" lon="2.21953">
        <ele>792</ele>
        <time>2019-05-18T15:45:38Z</time>
      </trkpt>
      <trkpt lat="45.60248" lon="2.21954">
        <ele>792</ele>
        <time>2019-05-18T15:45:39Z</time>
      </trkpt>
      <trkpt lat="45.60248" lon="2.21955">
        <ele>792</ele>
        <time>2019-05-18T15:45:40Z</time>
      </trkpt>
      <trkpt lat="45.60248" lon="2.21957">
        <ele>792</ele>
        <time>2019-05-18T15:45:41Z</time>
      </trkpt>
      <trkpt lat="45.60247" lon="2.21958">
        <ele>793</ele>
        <time>2019-05-18T15:45:42Z</time>
      </trkpt>
      <trkpt lat="45.60247" lon="2.21959">
        <ele>793</ele>
        <time>2019-05-18T15:45:43Z</time>
      </trkpt>
      <trkpt lat="45.60247" lon="2.2196">
        <ele>793</ele>
        <time>2019-05-18T15:45:44Z</time>
      </trkpt>
      <trkpt lat="45.60246" lon="2.21961">
        <ele>793</ele>
        <time>2019-05-18T15:45:45Z</time>
      </trkpt>
      <trkpt lat="45.60246" lon="2.21962">
        <ele>794</ele>
        <time>2019-05-18T15:45:46Z</time>
      </trkpt>
      <trkpt lat="45.60245" lon="2.21964">
        <ele>794</ele>
        <time>2019-05-18T15:45:47Z</time>
      </trkpt>
      <trkpt lat="45.60245" lon="2.21965">
        <ele>794</ele>
        <time>2019-05-18T15:45:48Z</time>
      </trkpt>
      <trkpt lat="45.60245" lon="2.21966">
        <ele>794</ele>
        <time>2019-05-18T15:45:49Z</time>
      </trkpt>
      <trkpt lat="45.60244" lon="2.21967">
        <ele>794</ele>
        <time>2019-05-18T15:45:50Z</time>
      </trkpt>
      <trkpt lat="45.60244" lon="2.21967">
        <ele>795</ele>
        <time>2019-05-18T15:45:51Z</time>
      </trkpt>
      <trkpt lat="45.60243" lon="2.21968">
        <ele>795</ele>
        <time>2019-05-18T15:45:52Z</time>
      </trkpt>
      <trkpt lat="45.60243" lon="2.21969">
        <ele>795</ele>
        <time>2019-05-18T15:45:53Z</time>
      </trkpt>
      <trkpt lat="45.60242" lon="2.21971">
        <ele>795</ele>
        <time>2019-05-18T15:45:54Z</time>
      </trkpt>
      <trkpt lat="45.60242" lon="2.21972">
        <ele>795</ele>
        <time>2019-05-18T15:45:55Z</time>
      </trkpt>
      <trkpt lat="45.60241" lon="2.21973">
        <ele>795</ele>
        <time>2019-05-18T15:45:56Z</time>
      </trkpt>
      <trkpt lat="45.6024" lon="2.21974">
        <ele>796</ele>
        <time>2019-05-18T15:45:57Z</time>
      </trkpt>
      <trkpt lat="45.6024" lon="2.21975">
        <ele>796</ele>
        <time>2019-05-18T15:45:58Z</time>
      </trkpt>
      <trkpt lat="45.6024" lon="2.21976">
        <ele>796</ele>
        <time>2019-05-18T15:45:59Z</time>
      </trkpt>
      <trkpt lat="45.6024" lon="2.21978">
        <ele>796</ele>
        <time>2019-05-18T15:46:00Z</time>
      </trkpt>
      <trkpt lat="45.6024" lon="2.21979">
        <ele>796</ele>
        <time>2019-05-18T15:46:01Z</time>
      </trkpt>
      <trkpt lat="45.60239" lon="2.21981">
        <ele>796</ele>
        <time>2019-05-18T15:46:02Z</time>
      </trkpt>
      <trkpt lat="45.60239" lon="2.21982">
        <ele>797</ele>
        <time>2019-05-18T15:46:03Z</time>
      </trkpt>
      <trkpt lat="45.60238" lon="2.21984">
        <ele>797</ele>
        <time>2019-05-18T15:46:04Z</time>
      </trkpt>
      <trkpt lat="45.60238" lon="2.21986">
        <ele>797</ele>
        <time>2019-05-18T15:46:05Z</time>
      </trkpt>
      <trkpt lat="45.60238" lon="2.21988">
        <ele>797</ele>
        <time>2019-05-18T15:46:06Z</time>
      </trkpt>
      <trkpt lat="45.60238" lon="2.2199">
        <ele>797</ele>
        <time>2019-05-18T15:46:07Z</time>
      </trkpt>
      <trkpt lat="45.60238" lon="2.21992">
        <ele>797</ele>
        <time>2019-05-18T15:46:08Z</time>
      </trkpt>
      <trkpt lat="45.60238" lon="2.21993">
        <ele>797</ele>
        <time>2019-05-18T15:46:09Z</time>
      </trkpt>
      <trkpt lat="45.60237" lon="2.21994">
        <ele>797</ele>
        <time>2019-05-18T15:46:10Z</time>
      </trkpt>
      <trkpt lat="45.60237" lon="2.21995">
        <ele>797</ele>
        <time>2019-05-18T15:46:11Z</time>
      </trkpt>
      <trkpt lat="45.60237" lon="2.21997">
        <ele>798</ele>
        <time>2019-05-18T15:46:12Z</time>
      </trkpt>
      <trkpt lat="45.60236" lon="2.21998">
        <ele>798</ele>
        <time>2019-05-18T15:46:13Z</time>
      </trkpt>
      <trkpt lat="45.60237" lon="2.21999">
        <ele>798</ele>
        <time>2019-05-18T15:46:14Z</time>
      </trkpt>
      <trkpt lat="45.60237" lon="2.22001">
        <ele>798</ele>
        <time>2019-05-18T15:46:15Z</time>
      </trkpt>
      <trkpt lat="45.60237" lon="2.22002">
        <ele>798</ele>
        <time>2019-05-18T15:46:16Z</time>
      </trkpt>
      <trkpt lat="45.60237" lon="2.22004">
        <ele>798</ele>
        <time>2019-05-18T15:46:17Z</time>
      </trkpt>
      <trkpt lat="45.60236" lon="2.22006">
        <ele>798</ele>
        <time>2019-05-18T15:46:18Z</time>
      </trkpt>
      <trkpt lat="45.60236" lon="2.22007">
        <ele>799</ele>
        <time>2019-05-18T15:46:19Z</time>
      </trkpt>
      <trkpt lat="45.60236" lon="2.22009">
        <ele>799</ele>
        <time>2019-05-18T15:46:20Z</time>
      </trkpt>
      <trkpt lat="45.60236" lon="2.22011">
        <ele>799</ele>
        <time>2019-05-18T15:46:21Z</time>
      </trkpt>
      <trkpt lat="45.60237" lon="2.22013">
        <ele>799</ele>
        <time>2019-05-18T15:46:22Z</time>
      </trkpt>
      <trkpt lat="45.60237" lon="2.22015">
        <ele>799</ele>
        <time>2019-05-18T15:46:23Z</time>
      </trkpt>
      <trkpt lat="45.60237" lon="2.22017">
        <ele>799</ele>
        <time>2019-05-18T15:46:24Z</time>
      </trkpt>
      <trkpt lat="45.60237" lon="2.22019">
        <ele>799</ele>
        <time>2019-05-18T15:46:25Z</time>
      </trkpt>
      <trkpt lat="45.60237" lon="2.2202">
        <ele>799</ele>
        <time>2019-05-18T15:46:26Z</time>
      </trkpt>
      <trkpt lat="45.60237" lon="2.22022">
        <ele>800</ele>
        <time>2019-05-18T15:46:27Z</time>
      </trkpt>
      <trkpt lat="45.60237" lon="2.22023">
        <ele>800</ele>
        <time>2019-05-18T15:46:28Z</time>
      </trkpt>
      <trkpt lat="45.60237" lon="2.22025">
        <ele>800</ele>
        <time>2019-05-18T15:46:29Z</time>
      </trkpt>
      <trkpt lat="45.60237" lon="2.22026">
        <ele>800</ele>
        <time>2019-05-18T15:46:30Z</time>
      </trkpt>
      <trkpt lat="45.60238" lon="2.22028">
        <ele>800</ele>
        <time>2019-05-18T15:46:31Z</time>
      </trkpt>
      <trkpt lat="45.60238" lon="2.2203">
        <ele>800</ele>
        <time>2019-05-18T15:46:32Z</time>
      </trkpt>
      <trkpt lat="45.60239" lon="2.22032">
        <ele>800</ele>
        <time>2019-05-18T15:46:33Z</time>
      </trkpt>
      <trkpt lat="45.60239" lon="2.22033">
        <ele>800</ele>
        <time>2019-05-18T15:46:34Z</time>
      </trkpt>
      <trkpt lat="45.6024" lon="2.22035">
        <ele>800</ele>
        <time>2019-05-18T15:46:35Z</time>
      </trkpt>
      <trkpt lat="45.6024" lon="2.22036">
        <ele>800</ele>
        <time>2019-05-18T15:46:36Z</time>
      </trkpt>
      <trkpt lat="45.60239" lon="2.22038">
        <ele>800</ele>
        <time>2019-05-18T15:46:37Z</time>
      </trkpt>
      <trkpt lat="45.60239" lon="2.22038">
        <ele>800</ele>
        <time>2019-05-18T15:46:38Z</time>
      </trkpt>
      <trkpt lat="45.60239" lon="2.22039">
        <ele>800</ele>
        <time>2019-05-18T15:46:39Z</time>
      </trkpt>
      <trkpt lat="45.60239" lon="2.22041">
        <ele>801</ele>
        <time>2019-05-18T15:46:40Z</time>
      </trkpt>
      <trkpt lat="45.6024" lon="2.22042">
        <ele>801</ele>
        <time>2019-05-18T15:46:41Z</time>
      </trkpt>
      <trkpt lat="45.6024" lon="2.22044">
        <ele>801</ele>
        <time>2019-05-18T15:46:42Z</time>
      </trkpt>
      <trkpt lat="45.60239" lon="2.22045">
        <ele>801</ele>
        <time>2019-05-18T15:46:43Z</time>
      </trkpt>
      <trkpt lat="45.6024" lon="2.22047">
        <ele>801</ele>
        <time>2019-05-18T15:46:44Z</time>
      </trkpt>
      <trkpt lat="45.6024" lon="2.22049">
        <ele>801</ele>
        <time>2019-05-18T15:46:45Z</time>
      </trkpt>
      <trkpt lat="45.6024" lon="2.2205">
        <ele>801</ele>
        <time>2019-05-18T15:46:46Z</time>
      </trkpt>
      <trkpt lat="45.60239" lon="2.22052">
        <ele>801</ele>
        <time>2019-05-18T15:46:47Z</time>
      </trkpt>
      <trkpt lat="45.60239" lon="2.22054">
        <ele>801</ele>
        <time>2019-05-18T15:46:48Z</time>
      </trkpt>
      <trkpt lat="45.60238" lon="2.22055">
        <ele>802</ele>
        <time>2019-05-18T15:46:49Z</time>
      </trkpt>
      <trkpt lat="45.60238" lon="2.22055">
        <ele>802</ele>
        <time>2019-05-18T15:46:50Z</time>
      </trkpt>
      <trkpt lat="45.60237" lon="2.22056">
        <ele>802</ele>
        <time>2019-05-18T15:46:51Z</time>
      </trkpt>
      <trkpt lat="45.60237" lon="2.22058">
        <ele>802</ele>
        <time>2019-05-18T15:46:52Z</time>
      </trkpt>
      <trkpt lat="45.60236" lon="2.22059">
        <ele>802</ele>
        <time>2019-05-18T15:46:53Z</time>
      </trkpt>
      <trkpt lat="45.60235" lon="2.2206">
        <ele>802</ele>
        <time>2019-05-18T15:46:54Z</time>
      </trkpt>
      <trkpt lat="45.60235" lon="2.22061">
        <ele>803</ele>
        <time>2019-05-18T15:46:55Z</time>
      </trkpt>
      <trkpt lat="45.60234" lon="2.22063">
        <ele>803</ele>
        <time>2019-05-18T15:46:56Z</time>
      </trkpt>
      <trkpt lat="45.60233" lon="2.22064">
        <ele>803</ele>
        <time>2019-05-18T15:46:57Z</time>
      </trkpt>
      <trkpt lat="45.60233" lon="2.22064">
        <ele>803</ele>
        <time>2019-05-18T15:46:58Z</time>
      </trkpt>
      <trkpt lat="45.60232" lon="2.22065">
        <ele>803</ele>
        <time>2019-05-18T15:46:59Z</time>
      </trkpt>
      <trkpt lat="45.60231" lon="2.22067">
        <ele>803</ele>
        <time>2019-05-18T15:47:00Z</time>
      </trkpt>
      <trkpt lat="45.60231" lon="2.22068">
        <ele>804</ele>
        <time>2019-05-18T15:47:01Z</time>
      </trkpt>
      <trkpt lat="45.6023" lon="2.2207">
        <ele>804</ele>
        <time>2019-05-18T15:47:02Z</time>
      </trkpt>
      <trkpt lat="45.60229" lon="2.22072">
        <ele>804</ele>
        <time>2019-05-18T15:47:03Z</time>
      </trkpt>
      <trkpt lat="45.60228" lon="2.22073">
        <ele>804</ele>
        <time>2019-05-18T15:47:04Z</time>
      </trkpt>
      <trkpt lat="45.60228" lon="2.22074">
        <ele>804</ele>
        <time>2019-05-18T15:47:05Z</time>
      </trkpt>
      <trkpt lat="45.60227" lon="2.22075">
        <ele>804</ele>
        <time>2019-05-18T15:47:06Z</time>
      </trkpt>
      <trkpt lat="45.60227" lon="2.22076">
        <ele>805</ele>
        <time>2019-05-18T15:47:07Z</time>
      </trkpt>
      <trkpt lat="45.60226" lon="2.22077">
        <ele>805</ele>
        <time>2019-05-18T15:47:08Z</time>
      </trkpt>
      <trkpt lat="45.60225" lon="2.22078">
        <ele>805</ele>
        <time>2019-05-18T15:47:09Z</time>
      </trkpt>
      <trkpt lat="45.60224" lon="2.22079">
        <ele>805</ele>
        <time>2019-05-18T15:47:10Z</time>
      </trkpt>
      <trkpt lat="45.60223" lon="2.22079">
        <ele>805</ele>
        <time>2019-05-18T15:47:11Z</time>
      </trkpt>
      <trkpt lat="45.60222" lon="2.22081">
        <ele>806</ele>
        <time>2019-05-18T15:47:12Z</time>
      </trkpt>
      <trkpt lat="45.60221" lon="2.22082">
        <ele>806</ele>
        <time>2019-05-18T15:47:13Z</time>
      </trkpt>
      <trkpt lat="45.60219" lon="2.22083">
        <ele>806</ele>
        <time>2019-05-18T15:47:14Z</time>
      </trkpt>
      <trkpt lat="45.60218" lon="2.22084">
        <ele>806</ele>
        <time>2019-05-18T15:47:15Z</time>
      </trkpt>
      <trkpt lat="45.60217" lon="2.22086">
        <ele>806</ele>
        <time>2019-05-18T15:47:16Z</time>
      </trkpt>
      <trkpt lat="45.60216" lon="2.22087">
        <ele>806</ele>
        <time>2019-05-18T15:47:17Z</time>
      </trkpt>
      <trkpt lat="45.60215" lon="2.22088">
        <ele>807</ele>
        <time>2019-05-18T15:47:18Z</time>
      </trkpt>
      <trkpt lat="45.60214" lon="2.2209">
        <ele>807</ele>
        <time>2019-05-18T15:47:19Z</time>
      </trkpt>
      <trkpt lat="45.60213" lon="2.22091">
        <ele>807</ele>
        <time>2019-05-18T15:47:20Z</time>
      </trkpt>
      <trkpt lat="45.60212" lon="2.22093">
        <ele>807</ele>
        <time>2019-05-18T15:47:21Z</time>
      </trkpt>
      <trkpt lat="45.6021" lon="2.22093">
        <ele>807</ele>
        <time>2019-05-18T15:47:22Z</time>
      </trkpt>
      <trkpt lat="45.60209" lon="2.22094">
        <ele>807</ele>
        <time>2019-05-18T15:47:23Z</time>
      </trkpt>
      <trkpt lat="45.60208" lon="2.22095">
        <ele>807</ele>
        <time>2019-05-18T15:47:24Z</time>
      </trkpt>
      <trkpt lat="45.60207" lon="2.22096">
        <ele>807</ele>
        <time>2019-05-18T15:47:25Z</time>
      </trkpt>
      <trkpt lat="45.60206" lon="2.22097">
        <ele>808</ele>
        <time>2019-05-18T15:47:26Z</time>
      </trkpt>
      <trkpt lat="45.60205" lon="2.22098">
        <ele>808</ele>
        <time>2019-05-18T15:47:27Z</time>
      </trkpt>
      <trkpt lat="45.60204" lon="2.22099">
        <ele>808</ele>
        <time>2019-05-18T15:47:28Z</time>
      </trkpt>
      <trkpt lat="45.60202" lon="2.22099">
        <ele>808</ele>
        <time>2019-05-18T15:47:29Z</time>
      </trkpt>
      <trkpt lat="45.60201" lon="2.221">
        <ele>808</ele>
        <time>2019-05-18T15:47:30Z</time>
      </trkpt>
      <trkpt lat="45.602" lon="2.22099">
        <ele>808</ele>
        <time>2019-05-18T15:47:31Z</time>
      </trkpt>
      <trkpt lat="45.60199" lon="2.22098">
        <ele>809</ele>
        <time>2019-05-18T15:47:32Z</time>
      </trkpt>
      <trkpt lat="45.60197" lon="2.22097">
        <ele>809</ele>
        <time>2019-05-18T15:47:33Z</time>
      </trkpt>
      <trkpt lat="45.60196" lon="2.22097">
        <ele>809</ele>
        <time>2019-05-18T15:47:34Z</time>
      </trkpt>
      <trkpt lat="45.60195" lon="2.22097">
        <ele>809</ele>
        <time>2019-05-18T15:47:35Z</time>
      </trkpt>
      <trkpt lat="45.60194" lon="2.22097">
        <ele>809</ele>
        <time>2019-05-18T15:47:36Z</time>
      </trkpt>
      <trkpt lat="45.60192" lon="2.22096">
        <ele>809</ele>
        <time>2019-05-18T15:47:37Z</time>
      </trkpt>
      <trkpt lat="45.60191" lon="2.22096">
        <ele>810</ele>
        <time>2019-05-18T15:47:38Z</time>
      </trkpt>
      <trkpt lat="45.60189" lon="2.22096">
        <ele>810</ele>
        <time>2019-05-18T15:47:39Z</time>
      </trkpt>
      <trkpt lat="45.60188" lon="2.22095">
        <ele>810</ele>
        <time>2019-05-18T15:47:40Z</time>
      </trkpt>
      <trkpt lat="45.60187" lon="2.22095">
        <ele>810</ele>
        <time>2019-05-18T15:47:41Z</time>
      </trkpt>
      <trkpt lat="45.60185" lon="2.22094">
        <ele>810</ele>
        <time>2019-05-18T15:47:42Z</time>
      </trkpt>
      <trkpt lat="45.60184" lon="2.22093">
        <ele>810</ele>
        <time>2019-05-18T15:47:43Z</time>
      </trkpt>
      <trkpt lat="45.60183" lon="2.22092">
        <ele>810</ele>
        <time>2019-05-18T15:47:44Z</time>
      </trkpt>
      <trkpt lat="45.60183" lon="2.22091">
        <ele>811</ele>
        <time>2019-05-18T15:47:45Z</time>
      </trkpt>
      <trkpt lat="45.60182" lon="2.2209">
        <ele>811</ele>
        <time>2019-05-18T15:47:46Z</time>
      </trkpt>
      <trkpt lat="45.60181" lon="2.2209">
        <ele>811</ele>
        <time>2019-05-18T15:47:47Z</time>
      </trkpt>
      <trkpt lat="45.6018" lon="2.22089">
        <ele>811</ele>
        <time>2019-05-18T15:47:48Z</time>
      </trkpt>
      <trkpt lat="45.60179" lon="2.22088">
        <ele>811</ele>
        <time>2019-05-18T15:47:49Z</time>
      </trkpt>
      <trkpt lat="45.60178" lon="2.22087">
        <ele>811</ele>
        <time>2019-05-18T15:47:50Z</time>
      </trkpt>
      <trkpt lat="45.60176" lon="2.22086">
        <ele>811</ele>
        <time>2019-05-18T15:47:51Z</time>
      </trkpt>
      <trkpt lat="45.60176" lon="2.22085">
        <ele>812</ele>
        <time>2019-05-18T15:47:52Z</time>
      </trkpt>
      <trkpt lat="45.60174" lon="2.22084">
        <ele>812</ele>
        <time>2019-05-18T15:47:53Z</time>
      </trkpt>
      <trkpt lat="45.60173" lon="2.22084">
        <ele>812</ele>
        <time>2019-05-18T15:47:54Z</time>
      </trkpt>
      <trkpt lat="45.60172" lon="2.22083">
        <ele>812</ele>
        <time>2019-05-18T15:47:55Z</time>
      </trkpt>
      <trkpt lat="45.60171" lon="2.22082">
        <ele>812</ele>
        <time>2019-05-18T15:47:56Z</time>
      </trkpt>
      <trkpt lat="45.60169" lon="2.22081">
        <ele>812</ele>
        <time>2019-05-18T15:47:57Z</time>
      </trkpt>
      <trkpt lat="45.60168" lon="2.22079">
        <ele>812</ele>
        <time>2019-05-18T15:47:58Z</time>
      </trkpt>
      <trkpt lat="45.60167" lon="2.22078">
        <ele>812</ele>
        <time>2019-05-18T15:47:59Z</time>
      </trkpt>
      <trkpt lat="45.60166" lon="2.22077">
        <ele>812</ele>
        <time>2019-05-18T15:48:00Z</time>
      </trkpt>
      <trkpt lat="45.60165" lon="2.22076">
        <ele>813</ele>
        <time>2019-05-18T15:48:01Z</time>
      </trkpt>
      <trkpt lat="45.60164" lon="2.22075">
        <ele>813</ele>
        <time>2019-05-18T15:48:02Z</time>
      </trkpt>
      <trkpt lat="45.60162" lon="2.22075">
        <ele>813</ele>
        <time>2019-05-18T15:48:03Z</time>
      </trkpt>
      <trkpt lat="45.60161" lon="2.22074">
        <ele>813</ele>
        <time>2019-05-18T15:48:04Z</time>
      </trkpt>
      <trkpt lat="45.6016" lon="2.22073">
        <ele>813</ele>
        <time>2019-05-18T15:48:05Z</time>
      </trkpt>
      <trkpt lat="45.60159" lon="2.22072">
        <ele>813</ele>
        <time>2019-05-18T15:48:06Z</time>
      </trkpt>
      <trkpt lat="45.60157" lon="2.22071">
        <ele>813</ele>
        <time>2019-05-18T15:48:07Z</time>
      </trkpt>
      <trkpt lat="45.60156" lon="2.2207">
        <ele>813</ele>
        <time>2019-05-18T15:48:08Z</time>
      </trkpt>
      <trkpt lat="45.60155" lon="2.2207">
        <ele>814</ele>
        <time>2019-05-18T15:48:09Z</time>
      </trkpt>
      <trkpt lat="45.60154" lon="2.22069">
        <ele>814</ele>
        <time>2019-05-18T15:48:10Z</time>
      </trkpt>
      <trkpt lat="45.60153" lon="2.22067">
        <ele>814</ele>
        <time>2019-05-18T15:48:11Z</time>
      </trkpt>
      <trkpt lat="45.60152" lon="2.22066">
        <ele>814</ele>
        <time>2019-05-18T15:48:12Z</time>
      </trkpt>
      <trkpt lat="45.60152" lon="2.22064">
        <ele>814</ele>
        <time>2019-05-18T15:48:13Z</time>
      </trkpt>
      <trkpt lat="45.60151" lon="2.22063">
        <ele>814</ele>
        <time>2019-05-18T15:48:14Z</time>
      </trkpt>
      <trkpt lat="45.60149" lon="2.22062">
        <ele>814</ele>
        <time>2019-05-18T15:48:15Z</time>
      </trkpt>
      <trkpt lat="45.60147" lon="2.2206">
        <ele>814</ele>
        <time>2019-05-18T15:48:16Z</time>
      </trkpt>
      <trkpt lat="45.60146" lon="2.22059">
        <ele>815</ele>
        <time>2019-05-18T15:48:17Z</time>
      </trkpt>
      <trkpt lat="45.60145" lon="2.22058">
        <ele>815</ele>
        <time>2019-05-18T15:48:18Z</time>
      </trkpt>
      <trkpt lat="45.60143" lon="2.22058">
        <ele>815</ele>
        <time>2019-05-18T15:48:19Z</time>
      </trkpt>
      <trkpt lat="45.60142" lon="2.22057">
        <ele>815</ele>
        <time>2019-05-18T15:48:20Z</time>
      </trkpt>
      <trkpt lat="45.60141" lon="2.22056">
        <ele>815</ele>
        <time>2019-05-18T15:48:21Z</time>
      </trkpt>
      <trkpt lat="45.60139" lon="2.22055">
        <ele>815</ele>
        <time>2019-05-18T15:48:22Z</time>
      </trkpt>
      <trkpt lat="45.60138" lon="2.22053">
        <ele>815</ele>
        <time>2019-05-18T15:48:23Z</time>
      </trkpt>
      <trkpt lat="45.60138" lon="2.22052">
        <ele>815</ele>
        <time>2019-05-18T15:48:24Z</time>
      </trkpt>
      <trkpt lat="45.60137" lon="2.2205">
        <ele>815</ele>
        <time>2019-05-18T15:48:25Z</time>
      </trkpt>
      <trkpt lat="45.60135" lon="2.2205">
        <ele>815</ele>
        <time>2019-05-18T15:48:26Z</time>
      </trkpt>
      <trkpt lat="45.60133" lon="2.22049">
        <ele>815</ele>
        <time>2019-05-18T15:48:27Z</time>
      </trkpt>
      <trkpt lat="45.60131" lon="2.22048">
        <ele>816</ele>
        <time>2019-05-18T15:48:28Z</time>
      </trkpt>
      <trkpt lat="45.6013" lon="2.22048">
        <ele>816</ele>
        <time>2019-05-18T15:48:29Z</time>
      </trkpt>
      <trkpt lat="45.60128" lon="2.22047">
        <ele>816</ele>
        <time>2019-05-18T15:48:30Z</time>
      </trkpt>
      <trkpt lat="45.60127" lon="2.22046">
        <ele>816</ele>
        <time>2019-05-18T15:48:31Z</time>
      </trkpt>
      <trkpt lat="45.60125" lon="2.22045">
        <ele>816</ele>
        <time>2019-05-18T15:48:32Z</time>
      </trkpt>
      <trkpt lat="45.60124" lon="2.22043">
        <ele>816</ele>
        <time>2019-05-18T15:48:33Z</time>
      </trkpt>
      <trkpt lat="45.60123" lon="2.22042">
        <ele>816</ele>
        <time>2019-05-18T15:48:34Z</time>
      </trkpt>
      <trkpt lat="45.60121" lon="2.22042">
        <ele>816</ele>
        <time>2019-05-18T15:48:35Z</time>
      </trkpt>
      <trkpt lat="45.6012" lon="2.22041">
        <ele>816</ele>
        <time>2019-05-18T15:48:36Z</time>
      </trkpt>
      <trkpt lat="45.60118" lon="2.2204">
        <ele>817</ele>
        <time>2019-05-18T15:48:37Z</time>
      </trkpt>
      <trkpt lat="45.60118" lon="2.2204">
        <ele>817</ele>
        <time>2019-05-18T15:48:38Z</time>
      </trkpt>
      <trkpt lat="45.60117" lon="2.22039">
        <ele>817</ele>
        <time>2019-05-18T15:48:39Z</time>
      </trkpt>
      <trkpt lat="45.60116" lon="2.22039">
        <ele>817</ele>
        <time>2019-05-18T15:48:40Z</time>
      </trkpt>
      <trkpt lat="45.60116" lon="2.22038">
        <ele>817</ele>
        <time>2019-05-18T15:48:41Z</time>
      </trkpt>
      <trkpt lat="45.60115" lon="2.22038">
        <ele>817</ele>
        <time>2019-05-18T15:48:42Z</time>
      </trkpt>
      <trkpt lat="45.60114" lon="2.22037">
        <ele>818</ele>
        <time>2019-05-18T15:48:43Z</time>
      </trkpt>
      <trkpt lat="45.60114" lon="2.22036">
        <ele>818</ele>
        <time>2019-05-18T15:48:44Z</time>
      </trkpt>
      <trkpt lat="45.60113" lon="2.22035">
        <ele>818</ele>
        <time>2019-05-18T15:48:45Z</time>
      </trkpt>
      <trkpt lat="45.60113" lon="2.22035">
        <ele>818</ele>
        <time>2019-05-18T15:48:46Z</time>
      </trkpt>
      <trkpt lat="45.60112" lon="2.22033">
        <ele>818</ele>
        <time>2019-05-18T15:48:47Z</time>
      </trkpt>
      <trkpt lat="45.60112" lon="2.22031">
        <ele>818</ele>
        <time>2019-05-18T15:48:48Z</time>
      </trkpt>
      <trkpt lat="45.60112" lon="2.22029">
        <ele>819</ele>
        <time>2019-05-18T15:48:49Z</time>
      </trkpt>
      <trkpt lat="45.60111" lon="2.22027">
        <ele>819</ele>
        <time>2019-05-18T15:48:50Z</time>
      </trkpt>
      <trkpt lat="45.60111" lon="2.22026">
        <ele>819</ele>
        <time>2019-05-18T15:48:51Z</time>
      </trkpt>
      <trkpt lat="45.6011" lon="2.22025">
        <ele>819</ele>
        <time>2019-05-18T15:48:52Z</time>
      </trkpt>
      <trkpt lat="45.6011" lon="2.22023">
        <ele>819</ele>
        <time>2019-05-18T15:48:53Z</time>
      </trkpt>
      <trkpt lat="45.6011" lon="2.22022">
        <ele>819</ele>
        <time>2019-05-18T15:48:54Z</time>
      </trkpt>
      <trkpt lat="45.60109" lon="2.2202">
        <ele>819</ele>
        <time>2019-05-18T15:48:55Z</time>
      </trkpt>
      <trkpt lat="45.60109" lon="2.22018">
        <ele>819</ele>
        <time>2019-05-18T15:48:56Z</time>
      </trkpt>
      <trkpt lat="45.60108" lon="2.22016">
        <ele>820</ele>
        <time>2019-05-18T15:48:57Z</time>
      </trkpt>
      <trkpt lat="45.60108" lon="2.22013">
        <ele>820</ele>
        <time>2019-05-18T15:48:58Z</time>
      </trkpt>
      <trkpt lat="45.60107" lon="2.22011">
        <ele>820</ele>
        <time>2019-05-18T15:48:59Z</time>
      </trkpt>
      <trkpt lat="45.60107" lon="2.22009">
        <ele>820</ele>
        <time>2019-05-18T15:49:00Z</time>
      </trkpt>
      <trkpt lat="45.60107" lon="2.22007">
        <ele>820</ele>
        <time>2019-05-18T15:49:01Z</time>
      </trkpt>
      <trkpt lat="45.60107" lon="2.22005">
        <ele>820</ele>
        <time>2019-05-18T15:49:02Z</time>
      </trkpt>
      <trkpt lat="45.60107" lon="2.22003">
        <ele>820</ele>
        <time>2019-05-18T15:49:03Z</time>
      </trkpt>
      <trkpt lat="45.60107" lon="2.22">
        <ele>820</ele>
        <time>2019-05-18T15:49:04Z</time>
      </trkpt>
      <trkpt lat="45.60107" lon="2.21997">
        <ele>820</ele>
        <time>2019-05-18T15:49:05Z</time>
      </trkpt>
      <trkpt lat="45.60108" lon="2.21995">
        <ele>820</ele>
        <time>2019-05-18T15:49:06Z</time>
      </trkpt>
      <trkpt lat="45.60109" lon="2.21993">
        <ele>820</ele>
        <time>2019-05-18T15:49:07Z</time>
      </trkpt>
      <trkpt lat="45.60109" lon="2.2199">
        <ele>820</ele>
        <time>2019-05-18T15:49:08Z</time>
      </trkpt>
      <trkpt lat="45.60108" lon="2.21987">
        <ele>819</ele>
        <time>2019-05-18T15:49:09Z</time>
      </trkpt>
      <trkpt lat="45.60109" lon="2.21983">
        <ele>819</ele>
        <time>2019-05-18T15:49:10Z</time>
      </trkpt>
      <trkpt lat="45.60108" lon="2.21979">
        <ele>819</ele>
        <time>2019-05-18T15:49:11Z</time>
      </trkpt>
      <trkpt lat="45.60109" lon="2.21976">
        <ele>819</ele>
        <time>2019-05-18T15:49:12Z</time>
      </trkpt>
      <trkpt lat="45.60109" lon="2.21974">
        <ele>819</ele>
        <time>2019-05-18T15:49:13Z</time>
      </trkpt>
      <trkpt lat="45.60109" lon="2.21971">
        <ele>819</ele>
        <time>2019-05-18T15:49:14Z</time>
      </trkpt>
      <trkpt lat="45.60109" lon="2.21968">
        <ele>819</ele>
        <time>2019-05-18T15:49:15Z</time>
      </trkpt>
      <trkpt lat="45.60109" lon="2.21966">
        <ele>819</ele>
        <time>2019-05-18T15:49:16Z</time>
      </trkpt>
      <trkpt lat="45.60108" lon="2.21963">
        <ele>819</ele>
        <time>2019-05-18T15:49:17Z</time>
      </trkpt>
      <trkpt lat="45.60108" lon="2.2196">
        <ele>819</ele>
        <time>2019-05-18T15:49:18Z</time>
      </trkpt>
      <trkpt lat="45.60108" lon="2.21958">
        <ele>819</ele>
        <time>2019-05-18T15:49:19Z</time>
      </trkpt>
      <trkpt lat="45.60107" lon="2.21955">
        <ele>819</ele>
        <time>2019-05-18T15:49:20Z</time>
      </trkpt>
      <trkpt lat="45.60107" lon="2.21952">
        <ele>819</ele>
        <time>2019-05-18T15:49:21Z</time>
      </trkpt>
      <trkpt lat="45.60107" lon="2.21949">
        <ele>818</ele>
        <time>2019-05-18T15:49:22Z</time>
      </trkpt>
      <trkpt lat="45.60107" lon="2.21946">
        <ele>818</ele>
        <time>2019-05-18T15:49:23Z</time>
      </trkpt>
      <trkpt lat="45.60107" lon="2.21944">
        <ele>818</ele>
        <time>2019-05-18T15:49:24Z</time>
      </trkpt>
      <trkpt lat="45.60107" lon="2.21942">
        <ele>818</ele>
        <time>2019-05-18T15:49:25Z</time>
      </trkpt>
      <trkpt lat="45.60108" lon="2.2194">
        <ele>818</ele>
        <time>2019-05-18T15:49:26Z</time>
      </trkpt>
      <trkpt lat="45.60109" lon="2.21939">
        <ele>818</ele>
        <time>2019-05-18T15:49:27Z</time>
      </trkpt>
      <trkpt lat="45.60109" lon="2.21937">
        <ele>818</ele>
        <time>2019-05-18T15:49:28Z</time>
      </trkpt>
      <trkpt lat="45.6011" lon="2.21934">
        <ele>817</ele>
        <time>2019-05-18T15:49:29Z</time>
      </trkpt>
      <trkpt lat="45.60109" lon="2.21931">
        <ele>817</ele>
        <time>2019-05-18T15:49:30Z</time>
      </trkpt>
      <trkpt lat="45.60109" lon="2.21929">
        <ele>817</ele>
        <time>2019-05-18T15:49:31Z</time>
      </trkpt>
      <trkpt lat="45.60109" lon="2.21927">
        <ele>817</ele>
        <time>2019-05-18T15:49:32Z</time>
      </trkpt>
      <trkpt lat="45.60109" lon="2.21925">
        <ele>816</ele>
        <time>2019-05-18T15:49:33Z</time>
      </trkpt>
      <trkpt lat="45.60108" lon="2.21923">
        <ele>816</ele>
        <time>2019-05-18T15:49:34Z</time>
      </trkpt>
      <trkpt lat="45.60108" lon="2.2192">
        <ele>816</ele>
        <time>2019-05-18T15:49:35Z</time>
      </trkpt>
      <trkpt lat="45.60107" lon="2.21917">
        <ele>816</ele>
        <time>2019-05-18T15:49:36Z</time>
      </trkpt>
      <trkpt lat="45.60105" lon="2.21915">
        <ele>816</ele>
        <time>2019-05-18T15:49:37Z</time>
      </trkpt>
      <trkpt lat="45.60104" lon="2.21913">
        <ele>816</ele>
        <time>2019-05-18T15:49:38Z</time>
      </trkpt>
      <trkpt lat="45.60103" lon="2.21911">
        <ele>816</ele>
        <time>2019-05-18T15:49:39Z</time>
      </trkpt>
      <trkpt lat="45.60102" lon="2.21909">
        <ele>816</ele>
        <time>2019-05-18T15:49:40Z</time>
      </trkpt>
      <trkpt lat="45.60101" lon="2.21906">
        <ele>816</ele>
        <time>2019-05-18T15:49:41Z</time>
      </trkpt>
      <trkpt lat="45.601" lon="2.21905">
        <ele>816</ele>
        <time>2019-05-18T15:49:42Z</time>
      </trkpt>
      <trkpt lat="45.601" lon="2.21901">
        <ele>816</ele>
        <time>2019-05-18T15:49:43Z</time>
      </trkpt>
      <trkpt lat="45.60099" lon="2.21899">
        <ele>815</ele>
        <time>2019-05-18T15:49:44Z</time>
      </trkpt>
      <trkpt lat="45.60098" lon="2.21896">
        <ele>815</ele>
        <time>2019-05-18T15:49:45Z</time>
      </trkpt>
      <trkpt lat="45.60097" lon="2.21895">
        <ele>815</ele>
        <time>2019-05-18T15:49:46Z</time>
      </trkpt>
      <trkpt lat="45.60096" lon="2.21893">
        <ele>815</ele>
        <time>2019-05-18T15:49:47Z</time>
      </trkpt>
      <trkpt lat="45.60095" lon="2.21891">
        <ele>815</ele>
        <time>2019-05-18T15:49:48Z</time>
      </trkpt>
      <trkpt lat="45.60095" lon="2.2189">
        <ele>815</ele>
        <time>2019-05-18T15:49:49Z</time>
      </trkpt>
      <trkpt lat="45.60094" lon="2.21889">
        <ele>815</ele>
        <time>2019-05-18T15:49:50Z</time>
      </trkpt>
      <trkpt lat="45.60094" lon="2.21888">
        <ele>815</ele>
        <time>2019-05-18T15:49:51Z</time>
      </trkpt>
      <trkpt lat="45.60094" lon="2.21887">
        <ele>815</ele>
        <time>2019-05-18T15:49:52Z</time>
      </trkpt>
      <trkpt lat="45.60094" lon="2.21886">
        <ele>815</ele>
        <time>2019-05-18T15:49:53Z</time>
      </trkpt>
      <trkpt lat="45.60093" lon="2.21886">
        <ele>815</ele>
        <time>2019-05-18T15:49:54Z</time>
      </trkpt>
      <trkpt lat="45.60092" lon="2.21883">
        <ele>815</ele>
        <time>2019-05-18T15:49:55Z</time>
      </trkpt>
      <trkpt lat="45.60092" lon="2.21882">
        <ele>815</ele>
        <time>2019-05-18T15:49:56Z</time>
      </trkpt>
      <trkpt lat="45.60093" lon="2.21858">
        <ele>812</ele>
        <time>2019-05-18T15:50:46Z</time>
      </trkpt>
      <trkpt lat="45.60096" lon="2.21857">
        <ele>812</ele>
        <time>2019-05-18T15:50:47Z</time>
      </trkpt>
      <trkpt lat="45.60098" lon="2.21856">
        <ele>811</ele>
        <time>2019-05-18T15:50:48Z</time>
      </trkpt>
      <trkpt lat="45.60101" lon="2.21854">
        <ele>811</ele>
        <time>2019-05-18T15:50:49Z</time>
      </trkpt>
      <trkpt lat="45.60103" lon="2.21852">
        <ele>810</ele>
        <time>2019-05-18T15:50:50Z</time>
      </trkpt>
      <trkpt lat="45.60106" lon="2.21849">
        <ele>810</ele>
        <time>2019-05-18T15:50:51Z</time>
      </trkpt>
      <trkpt lat="45.60108" lon="2.21847">
        <ele>809</ele>
        <time>2019-05-18T15:50:52Z</time>
      </trkpt>
      <trkpt lat="45.6011" lon="2.21846">
        <ele>809</ele>
        <time>2019-05-18T15:50:53Z</time>
      </trkpt>
      <trkpt lat="45.60112" lon="2.21846">
        <ele>808</ele>
        <time>2019-05-18T15:50:54Z</time>
      </trkpt>
      <trkpt lat="45.60114" lon="2.21847">
        <ele>808</ele>
        <time>2019-05-18T15:50:55Z</time>
      </trkpt>
      <trkpt lat="45.60116" lon="2.21847">
        <ele>808</ele>
        <time>2019-05-18T15:50:56Z</time>
      </trkpt>
      <trkpt lat="45.60118" lon="2.21845">
        <ele>808</ele>
        <time>2019-05-18T15:50:57Z</time>
      </trkpt>
      <trkpt lat="45.6012" lon="2.21844">
        <ele>808</ele>
        <time>2019-05-18T15:50:58Z</time>
      </trkpt>
      <trkpt lat="45.60121" lon="2.21843">
        <ele>808</ele>
        <time>2019-05-18T15:50:59Z</time>
      </trkpt>
      <trkpt lat="45.60122" lon="2.21843">
        <ele>808</ele>
        <time>2019-05-18T15:51:00Z</time>
      </trkpt>
      <trkpt lat="45.60123" lon="2.21844">
        <ele>808</ele>
        <time>2019-05-18T15:51:01Z</time>
      </trkpt>
      <trkpt lat="45.60125" lon="2.21843">
        <ele>808</ele>
        <time>2019-05-18T15:51:02Z</time>
      </trkpt>
      <trkpt lat="45.60127" lon="2.21842">
        <ele>808</ele>
        <time>2019-05-18T15:51:03Z</time>
      </trkpt>
      <trkpt lat="45.60128" lon="2.21842">
        <ele>808</ele>
        <time>2019-05-18T15:51:04Z</time>
      </trkpt>
      <trkpt lat="45.60129" lon="2.21841">
        <ele>807</ele>
        <time>2019-05-18T15:51:05Z</time>
      </trkpt>
      <trkpt lat="45.60131" lon="2.21841">
        <ele>807</ele>
        <time>2019-05-18T15:51:06Z</time>
      </trkpt>
      <trkpt lat="45.60133" lon="2.2184">
        <ele>807</ele>
        <time>2019-05-18T15:51:07Z</time>
      </trkpt>
      <trkpt lat="45.60134" lon="2.21841">
        <ele>807</ele>
        <time>2019-05-18T15:51:08Z</time>
      </trkpt>
      <trkpt lat="45.60137" lon="2.21842">
        <ele>807</ele>
        <time>2019-05-18T15:51:09Z</time>
      </trkpt>
      <trkpt lat="45.60139" lon="2.21843">
        <ele>807</ele>
        <time>2019-05-18T15:51:10Z</time>
      </trkpt>
      <trkpt lat="45.6014" lon="2.21845">
        <ele>808</ele>
        <time>2019-05-18T15:51:11Z</time>
      </trkpt>
      <trkpt lat="45.60141" lon="2.21847">
        <ele>808</ele>
        <time>2019-05-18T15:51:12Z</time>
      </trkpt>
      <trkpt lat="45.60143" lon="2.21848">
        <ele>808</ele>
        <time>2019-05-18T15:51:13Z</time>
      </trkpt>
      <trkpt lat="45.60144" lon="2.21848">
        <ele>808</ele>
        <time>2019-05-18T15:51:14Z</time>
      </trkpt>
      <trkpt lat="45.60146" lon="2.21849">
        <ele>808</ele>
        <time>2019-05-18T15:51:15Z</time>
      </trkpt>
      <trkpt lat="45.60147" lon="2.2185">
        <ele>808</ele>
        <time>2019-05-18T15:51:16Z</time>
      </trkpt>
      <trkpt lat="45.60148" lon="2.2185">
        <ele>808</ele>
        <time>2019-05-18T15:51:17Z</time>
      </trkpt>
      <trkpt lat="45.60149" lon="2.21851">
        <ele>808</ele>
        <time>2019-05-18T15:51:18Z</time>
      </trkpt>
      <trkpt lat="45.6015" lon="2.21852">
        <ele>808</ele>
        <time>2019-05-18T15:51:19Z</time>
      </trkpt>
      <trkpt lat="45.60152" lon="2.21853">
        <ele>808</ele>
        <time>2019-05-18T15:51:20Z</time>
      </trkpt>
      <trkpt lat="45.60154" lon="2.21855">
        <ele>808</ele>
        <time>2019-05-18T15:51:21Z</time>
      </trkpt>
      <trkpt lat="45.60156" lon="2.21855">
        <ele>808</ele>
        <time>2019-05-18T15:51:22Z</time>
      </trkpt>
      <trkpt lat="45.60157" lon="2.21857">
        <ele>808</ele>
        <time>2019-05-18T15:51:23Z</time>
      </trkpt>
      <trkpt lat="45.60159" lon="2.21858">
        <ele>808</ele>
        <time>2019-05-18T15:51:24Z</time>
      </trkpt>
      <trkpt lat="45.60162" lon="2.21861">
        <ele>808</ele>
        <time>2019-05-18T15:51:25Z</time>
      </trkpt>
      <trkpt lat="45.60164" lon="2.21863">
        <ele>808</ele>
        <time>2019-05-18T15:51:26Z</time>
      </trkpt>
      <trkpt lat="45.60165" lon="2.21864">
        <ele>808</ele>
        <time>2019-05-18T15:51:27Z</time>
      </trkpt>
      <trkpt lat="45.60166" lon="2.21865">
        <ele>808</ele>
        <time>2019-05-18T15:51:28Z</time>
      </trkpt>
      <trkpt lat="45.60167" lon="2.21865">
        <ele>808</ele>
        <time>2019-05-18T15:51:29Z</time>
      </trkpt>
      <trkpt lat="45.60169" lon="2.21867">
        <ele>808</ele>
        <time>2019-05-18T15:51:30Z</time>
      </trkpt>
      <trkpt lat="45.6017" lon="2.21866">
        <ele>807</ele>
        <time>2019-05-18T15:51:31Z</time>
      </trkpt>
      <trkpt lat="45.60172" lon="2.21866">
        <ele>807</ele>
        <time>2019-05-18T15:51:32Z</time>
      </trkpt>
      <trkpt lat="45.60174" lon="2.21866">
        <ele>806</ele>
        <time>2019-05-18T15:51:33Z</time>
      </trkpt>
      <trkpt lat="45.60175" lon="2.21866">
        <ele>806</ele>
        <time>2019-05-18T15:51:34Z</time>
      </trkpt>
      <trkpt lat="45.60176" lon="2.21866">
        <ele>806</ele>
        <time>2019-05-18T15:51:35Z</time>
      </trkpt>
      <trkpt lat="45.60177" lon="2.21866">
        <ele>805</ele>
        <time>2019-05-18T15:51:36Z</time>
      </trkpt>
      <trkpt lat="45.60178" lon="2.21865">
        <ele>805</ele>
        <time>2019-05-18T15:51:37Z</time>
      </trkpt>
      <trkpt lat="45.60179" lon="2.21864">
        <ele>804</ele>
        <time>2019-05-18T15:51:38Z</time>
      </trkpt>
      <trkpt lat="45.60182" lon="2.21862">
        <ele>804</ele>
        <time>2019-05-18T15:51:39Z</time>
      </trkpt>
      <trkpt lat="45.60184" lon="2.2186">
        <ele>803</ele>
        <time>2019-05-18T15:51:40Z</time>
      </trkpt>
      <trkpt lat="45.60187" lon="2.21857">
        <ele>803</ele>
        <time>2019-05-18T15:51:41Z</time>
      </trkpt>
      <trkpt lat="45.6019" lon="2.21855">
        <ele>802</ele>
        <time>2019-05-18T15:51:42Z</time>
      </trkpt>
      <trkpt lat="45.60193" lon="2.21852">
        <ele>801</ele>
        <time>2019-05-18T15:51:43Z</time>
      </trkpt>
      <trkpt lat="45.60195" lon="2.21849">
        <ele>801</ele>
        <time>2019-05-18T15:51:44Z</time>
      </trkpt>
      <trkpt lat="45.60196" lon="2.21846">
        <ele>800</ele>
        <time>2019-05-18T15:51:45Z</time>
      </trkpt>
      <trkpt lat="45.60198" lon="2.21844">
        <ele>799</ele>
        <time>2019-05-18T15:51:46Z</time>
      </trkpt>
      <trkpt lat="45.60199" lon="2.21843">
        <ele>799</ele>
        <time>2019-05-18T15:51:47Z</time>
      </trkpt>
      <trkpt lat="45.60201" lon="2.21843">
        <ele>798</ele>
        <time>2019-05-18T15:51:48Z</time>
      </trkpt>
      <trkpt lat="45.60202" lon="2.21845">
        <ele>798</ele>
        <time>2019-05-18T15:51:49Z</time>
      </trkpt>
      <trkpt lat="45.60204" lon="2.21846">
        <ele>797</ele>
        <time>2019-05-18T15:51:50Z</time>
      </trkpt>
      <trkpt lat="45.60205" lon="2.21847">
        <ele>796</ele>
        <time>2019-05-18T15:51:51Z</time>
      </trkpt>
      <trkpt lat="45.60206" lon="2.21848">
        <ele>796</ele>
        <time>2019-05-18T15:51:52Z</time>
      </trkpt>
      <trkpt lat="45.60207" lon="2.2185">
        <ele>795</ele>
        <time>2019-05-18T15:51:53Z</time>
      </trkpt>
      <trkpt lat="45.60207" lon="2.21851">
        <ele>795</ele>
        <time>2019-05-18T15:51:54Z</time>
      </trkpt>
      <trkpt lat="45.60208" lon="2.21853">
        <ele>795</ele>
        <time>2019-05-18T15:51:55Z</time>
      </trkpt>
      <trkpt lat="45.60209" lon="2.21855">
        <ele>795</ele>
        <time>2019-05-18T15:51:56Z</time>
      </trkpt>
      <trkpt lat="45.6021" lon="2.21858">
        <ele>795</ele>
        <time>2019-05-18T15:51:57Z</time>
      </trkpt>
      <trkpt lat="45.6021" lon="2.21861">
        <ele>795</ele>
        <time>2019-05-18T15:51:58Z</time>
      </trkpt>
      <trkpt lat="45.60211" lon="2.21864">
        <ele>794</ele>
        <time>2019-05-18T15:51:59Z</time>
      </trkpt>
      <trkpt lat="45.60213" lon="2.21868">
        <ele>794</ele>
        <time>2019-05-18T15:52:00Z</time>
      </trkpt>
      <trkpt lat="45.60214" lon="2.21872">
        <ele>793</ele>
        <time>2019-05-18T15:52:01Z</time>
      </trkpt>
      <trkpt lat="45.60214" lon="2.21875">
        <ele>793</ele>
        <time>2019-05-18T15:52:02Z</time>
      </trkpt>
      <trkpt lat="45.60216" lon="2.21878">
        <ele>793</ele>
        <time>2019-05-18T15:52:03Z</time>
      </trkpt>
      <trkpt lat="45.60217" lon="2.21881">
        <ele>793</ele>
        <time>2019-05-18T15:52:04Z</time>
      </trkpt>
      <trkpt lat="45.60217" lon="2.21883">
        <ele>793</ele>
        <time>2019-05-18T15:52:05Z</time>
      </trkpt>
      <trkpt lat="45.60218" lon="2.21885">
        <ele>793</ele>
        <time>2019-05-18T15:52:06Z</time>
      </trkpt>
      <trkpt lat="45.60218" lon="2.21887">
        <ele>793</ele>
        <time>2019-05-18T15:52:07Z</time>
      </trkpt>
      <trkpt lat="45.6022" lon="2.21889">
        <ele>793</ele>
        <time>2019-05-18T15:52:08Z</time>
      </trkpt>
      <trkpt lat="45.60221" lon="2.21892">
        <ele>792</ele>
        <time>2019-05-18T15:52:09Z</time>
      </trkpt>
      <trkpt lat="45.60221" lon="2.21894">
        <ele>792</ele>
        <time>2019-05-18T15:52:10Z</time>
      </trkpt>
      <trkpt lat="45.60222" lon="2.21895">
        <ele>792</ele>
        <time>2019-05-18T15:52:11Z</time>
      </trkpt>
      <trkpt lat="45.60223" lon="2.21895">
        <ele>792</ele>
        <time>2019-05-18T15:52:12Z</time>
      </trkpt>
      <trkpt lat="45.60226" lon="2.21895">
        <ele>791</ele>
        <time>2019-05-18T15:52:13Z</time>
      </trkpt>
      <trkpt lat="45.60228" lon="2.21895">
        <ele>791</ele>
        <time>2019-05-18T15:52:14Z</time>
      </trkpt>
      <trkpt lat="45.60228" lon="2.21894">
        <ele>791</ele>
        <time>2019-05-18T15:52:15Z</time>
      </trkpt>
      <trkpt lat="45.60229" lon="2.21894">
        <ele>790</ele>
        <time>2019-05-18T15:52:16Z</time>
      </trkpt>
      <trkpt lat="45.60229" lon="2.21893">
        <ele>790</ele>
        <time>2019-05-18T15:52:17Z</time>
      </trkpt>
      <trkpt lat="45.60229" lon="2.21893">
        <ele>791</ele>
        <time>2019-05-18T15:52:18Z</time>
      </trkpt>
      <trkpt lat="45.60229" lon="2.21892">
        <ele>791</ele>
        <time>2019-05-18T15:52:19Z</time>
      </trkpt>
      <trkpt lat="45.60229" lon="2.21892">
        <ele>791</ele>
        <time>2019-05-18T15:52:20Z</time>
      </trkpt>
      <trkpt lat="45.60229" lon="2.21892">
        <ele>791</ele>
        <time>2019-05-18T15:52:21Z</time>
      </trkpt>
      <trkpt lat="45.60229" lon="2.21891">
        <ele>791</ele>
        <time>2019-05-18T15:52:22Z</time>
      </trkpt>
      <trkpt lat="45.60229" lon="2.21891">
        <ele>790</ele>
        <time>2019-05-18T15:52:23Z</time>
      </trkpt>
      <trkpt lat="45.6023" lon="2.21889">
        <ele>790</ele>
        <time>2019-05-18T15:52:24Z</time>
      </trkpt>
      <trkpt lat="45.6023" lon="2.21888">
        <ele>790</ele>
        <time>2019-05-18T15:52:25Z</time>
      </trkpt>
      <trkpt lat="45.6023" lon="2.21886">
        <ele>789</ele>
        <time>2019-05-18T15:52:26Z</time>
      </trkpt>
      <trkpt lat="45.60231" lon="2.21884">
        <ele>789</ele>
        <time>2019-05-18T15:52:27Z</time>
      </trkpt>
      <trkpt lat="45.6023" lon="2.21882">
        <ele>788</ele>
        <time>2019-05-18T15:52:28Z</time>
      </trkpt>
      <trkpt lat="45.6023" lon="2.2188">
        <ele>788</ele>
        <time>2019-05-18T15:52:29Z</time>
      </trkpt>
      <trkpt lat="45.60229" lon="2.21879">
        <ele>788</ele>
        <time>2019-05-18T15:52:30Z</time>
      </trkpt>
      <trkpt lat="45.6023" lon="2.21877">
        <ele>788</ele>
        <time>2019-05-18T15:52:31Z</time>
      </trkpt>
      <trkpt lat="45.6023" lon="2.21876">
        <ele>788</ele>
        <time>2019-05-18T15:52:32Z</time>
      </trkpt>
      <trkpt lat="45.6023" lon="2.21875">
        <ele>788</ele>
        <time>2019-05-18T15:52:33Z</time>
      </trkpt>
      <trkpt lat="45.6023" lon="2.21873">
        <ele>788</ele>
        <time>2019-05-18T15:52:34Z</time>
      </trkpt>
      <trkpt lat="45.60231" lon="2.21871">
        <ele>788</ele>
        <time>2019-05-18T15:52:35Z</time>
      </trkpt>
      <trkpt lat="45.60232" lon="2.2187">
        <ele>788</ele>
        <time>2019-05-18T15:52:36Z</time>
      </trkpt>
      <trkpt lat="45.60232" lon="2.21871">
        <ele>787</ele>
        <time>2019-05-18T15:52:37Z</time>
      </trkpt>
      <trkpt lat="45.60233" lon="2.21869">
        <ele>787</ele>
        <time>2019-05-18T15:52:38Z</time>
      </trkpt>
      <trkpt lat="45.60233" lon="2.21869">
        <ele>787</ele>
        <time>2019-05-18T15:52:39Z</time>
      </trkpt>
      <trkpt lat="45.60233" lon="2.21869">
        <ele>787</ele>
        <time>2019-05-18T15:52:40Z</time>
      </trkpt>
      <trkpt lat="45.60233" lon="2.2187">
        <ele>786</ele>
        <time>2019-05-18T15:52:41Z</time>
      </trkpt>
      <trkpt lat="45.60234" lon="2.2187">
        <ele>786</ele>
        <time>2019-05-18T15:52:42Z</time>
      </trkpt>
      <trkpt lat="45.60235" lon="2.2187">
        <ele>786</ele>
        <time>2019-05-18T15:52:43Z</time>
      </trkpt>
      <trkpt lat="45.60235" lon="2.21871">
        <ele>786</ele>
        <time>2019-05-18T15:52:44Z</time>
      </trkpt>
      <trkpt lat="45.60236" lon="2.21872">
        <ele>786</ele>
        <time>2019-05-18T15:52:45Z</time>
      </trkpt>
      <trkpt lat="45.60236" lon="2.21873">
        <ele>786</ele>
        <time>2019-05-18T15:52:46Z</time>
      </trkpt>
      <trkpt lat="45.60237" lon="2.21873">
        <ele>786</ele>
        <time>2019-05-18T15:52:47Z</time>
      </trkpt>
      <trkpt lat="45.60238" lon="2.21873">
        <ele>785</ele>
        <time>2019-05-18T15:52:48Z</time>
      </trkpt>
      <trkpt lat="45.6024" lon="2.21874">
        <ele>785</ele>
        <time>2019-05-18T15:52:49Z</time>
      </trkpt>
      <trkpt lat="45.60242" lon="2.21876">
        <ele>784</ele>
        <time>2019-05-18T15:52:50Z</time>
      </trkpt>
      <trkpt lat="45.60243" lon="2.21877">
        <ele>784</ele>
        <time>2019-05-18T15:52:51Z</time>
      </trkpt>
      <trkpt lat="45.60245" lon="2.21879">
        <ele>784</ele>
        <time>2019-05-18T15:52:52Z</time>
      </trkpt>
      <trkpt lat="45.60245" lon="2.21881">
        <ele>784</ele>
        <time>2019-05-18T15:52:53Z</time>
      </trkpt>
      <trkpt lat="45.60246" lon="2.21884">
        <ele>784</ele>
        <time>2019-05-18T15:52:54Z</time>
      </trkpt>
      <trkpt lat="45.60247" lon="2.21885">
        <ele>784</ele>
        <time>2019-05-18T15:52:55Z</time>
      </trkpt>
      <trkpt lat="45.60248" lon="2.21884">
        <ele>783</ele>
        <time>2019-05-18T15:52:56Z</time>
      </trkpt>
      <trkpt lat="45.6025" lon="2.21884">
        <ele>783</ele>
        <time>2019-05-18T15:52:57Z</time>
      </trkpt>
      <trkpt lat="45.60252" lon="2.21883">
        <ele>783</ele>
        <time>2019-05-18T15:52:58Z</time>
      </trkpt>
      <trkpt lat="45.60254" lon="2.21884">
        <ele>782</ele>
        <time>2019-05-18T15:52:59Z</time>
      </trkpt>
      <trkpt lat="45.60256" lon="2.21886">
        <ele>782</ele>
        <time>2019-05-18T15:53:00Z</time>
      </trkpt>
      <trkpt lat="45.60257" lon="2.21889">
        <ele>782</ele>
        <time>2019-05-18T15:53:01Z</time>
      </trkpt>
      <trkpt lat="45.60258" lon="2.21892">
        <ele>781</ele>
        <time>2019-05-18T15:53:02Z</time>
      </trkpt>
      <trkpt lat="45.60259" lon="2.21893">
        <ele>781</ele>
        <time>2019-05-18T15:53:03Z</time>
      </trkpt>
      <trkpt lat="45.60259" lon="2.21894">
        <ele>781</ele>
        <time>2019-05-18T15:53:04Z</time>
      </trkpt>
      <trkpt lat="45.6026" lon="2.21894">
        <ele>781</ele>
        <time>2019-05-18T15:53:05Z</time>
      </trkpt>
      <trkpt lat="45.60261" lon="2.21894">
        <ele>781</ele>
        <time>2019-05-18T15:53:06Z</time>
      </trkpt>
      <trkpt lat="45.60262" lon="2.21893">
        <ele>781</ele>
        <time>2019-05-18T15:53:07Z</time>
      </trkpt>
      <trkpt lat="45.60265" lon="2.21892">
        <ele>781</ele>
        <time>2019-05-18T15:53:08Z</time>
      </trkpt>
      <trkpt lat="45.60268" lon="2.21892">
        <ele>781</ele>
        <time>2019-05-18T15:53:09Z</time>
      </trkpt>
      <trkpt lat="45.6027" lon="2.21893">
        <ele>780</ele>
        <time>2019-05-18T15:53:10Z</time>
      </trkpt>
      <trkpt lat="45.60271" lon="2.21894">
        <ele>780</ele>
        <time>2019-05-18T15:53:11Z</time>
      </trkpt>
      <trkpt lat="45.60273" lon="2.21894">
        <ele>780</ele>
        <time>2019-05-18T15:53:12Z</time>
      </trkpt>
      <trkpt lat="45.60274" lon="2.21895">
        <ele>779</ele>
        <time>2019-05-18T15:53:13Z</time>
      </trkpt>
      <trkpt lat="45.60275" lon="2.21895">
        <ele>779</ele>
        <time>2019-05-18T15:53:14Z</time>
      </trkpt>
      <trkpt lat="45.60276" lon="2.21895">
        <ele>779</ele>
        <time>2019-05-18T15:53:15Z</time>
      </trkpt>
      <trkpt lat="45.60276" lon="2.21895">
        <ele>779</ele>
        <time>2019-05-18T15:53:16Z</time>
      </trkpt>
      <trkpt lat="45.60277" lon="2.21896">
        <ele>779</ele>
        <time>2019-05-18T15:53:17Z</time>
      </trkpt>
      <trkpt lat="45.60277" lon="2.21896">
        <ele>779</ele>
        <time>2019-05-18T15:53:18Z</time>
      </trkpt>
      <trkpt lat="45.60278" lon="2.21896">
        <ele>779</ele>
        <time>2019-05-18T15:53:19Z</time>
      </trkpt>
      <trkpt lat="45.60279" lon="2.21897">
        <ele>779</ele>
        <time>2019-05-18T15:53:20Z</time>
      </trkpt>
      <trkpt lat="45.60341" lon="2.21887">
        <ele>787</ele>
        <time>2019-05-18T15:55:45Z</time>
      </trkpt>
      <trkpt lat="45.60342" lon="2.21886">
        <ele>787</ele>
        <time>2019-05-18T15:55:46Z</time>
      </trkpt>
      <trkpt lat="45.60342" lon="2.21885">
        <ele>787</ele>
        <time>2019-05-18T15:55:47Z</time>
      </trkpt>
      <trkpt lat="45.60343" lon="2.21884">
        <ele>787</ele>
        <time>2019-05-18T15:55:48Z</time>
      </trkpt>
      <trkpt lat="45.60344" lon="2.21885">
        <ele>787</ele>
        <time>2019-05-18T15:55:49Z</time>
      </trkpt>
      <trkpt lat="45.60345" lon="2.21886">
        <ele>787</ele>
        <time>2019-05-18T15:55:50Z</time>
      </trkpt>
      <trkpt lat="45.60346" lon="2.21889">
        <ele>786</ele>
        <time>2019-05-18T15:55:51Z</time>
      </trkpt>
      <trkpt lat="45.60348" lon="2.21891">
        <ele>786</ele>
        <time>2019-05-18T15:55:52Z</time>
      </trkpt>
      <trkpt lat="45.6035" lon="2.21894">
        <ele>786</ele>
        <time>2019-05-18T15:55:54Z</time>
      </trkpt>
      <trkpt lat="45.60352" lon="2.21897">
        <ele>785</ele>
        <time>2019-05-18T15:55:55Z</time>
      </trkpt>
      <trkpt lat="45.60354" lon="2.21901">
        <ele>784</ele>
        <time>2019-05-18T15:55:56Z</time>
      </trkpt>
      <trkpt lat="45.60359" lon="2.21907">
        <ele>783</ele>
        <time>2019-05-18T15:55:57Z</time>
      </trkpt>
      <trkpt lat="45.60362" lon="2.21909">
        <ele>782</ele>
        <time>2019-05-18T15:55:58Z</time>
      </trkpt>
      <trkpt lat="45.60364" lon="2.21912">
        <ele>781</ele>
        <time>2019-05-18T15:55:59Z</time>
      </trkpt>
      <trkpt lat="45.60366" lon="2.21914">
        <ele>780</ele>
        <time>2019-05-18T15:56:00Z</time>
      </trkpt>
      <trkpt lat="45.60369" lon="2.21919">
        <ele>779</ele>
        <time>2019-05-18T15:56:01Z</time>
      </trkpt>
      <trkpt lat="45.60372" lon="2.21922">
        <ele>778</ele>
        <time>2019-05-18T15:56:02Z</time>
      </trkpt>
      <trkpt lat="45.60374" lon="2.21927">
        <ele>777</ele>
        <time>2019-05-18T15:56:03Z</time>
      </trkpt>
      <trkpt lat="45.60377" lon="2.21931">
        <ele>776</ele>
        <time>2019-05-18T15:56:04Z</time>
      </trkpt>
      <trkpt lat="45.60379" lon="2.21937">
        <ele>775</ele>
        <time>2019-05-18T15:56:05Z</time>
      </trkpt>
      <trkpt lat="45.60381" lon="2.21941">
        <ele>774</ele>
        <time>2019-05-18T15:56:06Z</time>
      </trkpt>
      <trkpt lat="45.60384" lon="2.21945">
        <ele>773</ele>
        <time>2019-05-18T15:56:07Z</time>
      </trkpt>
      <trkpt lat="45.60386" lon="2.21948">
        <ele>772</ele>
        <time>2019-05-18T15:56:09Z</time>
      </trkpt>
      <trkpt lat="45.60389" lon="2.21952">
        <ele>772</ele>
        <time>2019-05-18T15:56:10Z</time>
      </trkpt>
      <trkpt lat="45.60391" lon="2.21954">
        <ele>771</ele>
        <time>2019-05-18T15:56:11Z</time>
      </trkpt>
      <trkpt lat="45.60393" lon="2.21958">
        <ele>770</ele>
        <time>2019-05-18T15:56:12Z</time>
      </trkpt>
      <trkpt lat="45.60399" lon="2.21968">
        <ele>769</ele>
        <time>2019-05-18T15:56:13Z</time>
      </trkpt>
      <trkpt lat="45.60401" lon="2.21975">
        <ele>768</ele>
        <time>2019-05-18T15:56:14Z</time>
      </trkpt>
      <trkpt lat="45.60402" lon="2.21981">
        <ele>767</ele>
        <time>2019-05-18T15:56:15Z</time>
      </trkpt>
      <trkpt lat="45.60405" lon="2.21986">
        <ele>766</ele>
        <time>2019-05-18T15:56:16Z</time>
      </trkpt>
      <trkpt lat="45.60409" lon="2.21992">
        <ele>765</ele>
        <time>2019-05-18T15:56:17Z</time>
      </trkpt>
      <trkpt lat="45.60414" lon="2.21996">
        <ele>765</ele>
        <time>2019-05-18T15:56:18Z</time>
      </trkpt>
      <trkpt lat="45.60418" lon="2.21999">
        <ele>764</ele>
        <time>2019-05-18T15:56:19Z</time>
      </trkpt>
      <trkpt lat="45.60425" lon="2.22001">
        <ele>764</ele>
        <time>2019-05-18T15:56:20Z</time>
      </trkpt>
      <trkpt lat="45.6043" lon="2.22002">
        <ele>764</ele>
        <time>2019-05-18T15:56:21Z</time>
      </trkpt>
      <trkpt lat="45.60434" lon="2.22002">
        <ele>764</ele>
        <time>2019-05-18T15:56:22Z</time>
      </trkpt>
      <trkpt lat="45.60438" lon="2.22001">
        <ele>763</ele>
        <time>2019-05-18T15:56:23Z</time>
      </trkpt>
      <trkpt lat="45.60442" lon="2.22">
        <ele>763</ele>
        <time>2019-05-18T15:56:24Z</time>
      </trkpt>
      <trkpt lat="45.60448" lon="2.22002">
        <ele>763</ele>
        <time>2019-05-18T15:56:26Z</time>
      </trkpt>
      <trkpt lat="45.60453" lon="2.22003">
        <ele>763</ele>
        <time>2019-05-18T15:56:27Z</time>
      </trkpt>
      <trkpt lat="45.60458" lon="2.22006">
        <ele>763</ele>
        <time>2019-05-18T15:56:28Z</time>
      </trkpt>
      <trkpt lat="45.60462" lon="2.22006">
        <ele>763</ele>
        <time>2019-05-18T15:56:29Z</time>
      </trkpt>
      <trkpt lat="45.60467" lon="2.22008">
        <ele>762</ele>
        <time>2019-05-18T15:56:30Z</time>
      </trkpt>
      <trkpt lat="45.60476" lon="2.22017">
        <ele>762</ele>
        <time>2019-05-18T15:56:31Z</time>
      </trkpt>
      <trkpt lat="45.6048" lon="2.2202">
        <ele>761</ele>
        <time>2019-05-18T15:56:32Z</time>
      </trkpt>
      <trkpt lat="45.60485" lon="2.22022">
        <ele>761</ele>
        <time>2019-05-18T15:56:33Z</time>
      </trkpt>
      <trkpt lat="45.60488" lon="2.22023">
        <ele>760</ele>
        <time>2019-05-18T15:56:34Z</time>
      </trkpt>
      <trkpt lat="45.60493" lon="2.22026">
        <ele>759</ele>
        <time>2019-05-18T15:56:35Z</time>
      </trkpt>
      <trkpt lat="45.60497" lon="2.22028">
        <ele>758</ele>
        <time>2019-05-18T15:56:36Z</time>
      </trkpt>
      <trkpt lat="45.605" lon="2.22031">
        <ele>758</ele>
        <time>2019-05-18T15:56:37Z</time>
      </trkpt>
      <trkpt lat="45.60504" lon="2.22033">
        <ele>757</ele>
        <time>2019-05-18T15:56:38Z</time>
      </trkpt>
      <trkpt lat="45.60509" lon="2.22032">
        <ele>756</ele>
        <time>2019-05-18T15:56:39Z</time>
      </trkpt>
      <trkpt lat="45.60513" lon="2.2203">
        <ele>755</ele>
        <time>2019-05-18T15:56:40Z</time>
      </trkpt>
      <trkpt lat="45.60518" lon="2.22027">
        <ele>755</ele>
        <time>2019-05-18T15:56:41Z</time>
      </trkpt>
      <trkpt lat="45.60526" lon="2.22025">
        <ele>754</ele>
        <time>2019-05-18T15:56:43Z</time>
      </trkpt>
      <trkpt lat="45.60533" lon="2.22025">
        <ele>753</ele>
        <time>2019-05-18T15:56:44Z</time>
      </trkpt>
      <trkpt lat="45.60539" lon="2.22025">
        <ele>753</ele>
        <time>2019-05-18T15:56:45Z</time>
      </trkpt>
      <trkpt lat="45.60545" lon="2.22027">
        <ele>752</ele>
        <time>2019-05-18T15:56:46Z</time>
      </trkpt>
      <trkpt lat="45.60551" lon="2.22028">
        <ele>752</ele>
        <time>2019-05-18T15:56:47Z</time>
      </trkpt>
      <trkpt lat="45.60558" lon="2.22028">
        <ele>751</ele>
        <time>2019-05-18T15:56:48Z</time>
      </trkpt>
      <trkpt lat="45.60566" lon="2.22028">
        <ele>749</ele>
        <time>2019-05-18T15:56:49Z</time>
      </trkpt>
      <trkpt lat="45.60572" lon="2.22031">
        <ele>749</ele>
        <time>2019-05-18T15:56:50Z</time>
      </trkpt>
      <trkpt lat="45.60577" lon="2.22032">
        <ele>748</ele>
        <time>2019-05-18T15:56:51Z</time>
      </trkpt>
      <trkpt lat="45.60581" lon="2.22034">
        <ele>747</ele>
        <time>2019-05-18T15:56:52Z</time>
      </trkpt>
      <trkpt lat="45.60586" lon="2.22036">
        <ele>747</ele>
        <time>2019-05-18T15:56:53Z</time>
      </trkpt>
      <trkpt lat="45.60591" lon="2.22039">
        <ele>747</ele>
        <time>2019-05-18T15:56:54Z</time>
      </trkpt>
      <trkpt lat="45.60598" lon="2.22039">
        <ele>748</ele>
        <time>2019-05-18T15:56:55Z</time>
      </trkpt>
      <trkpt lat="45.60602" lon="2.22038">
        <ele>748</ele>
        <time>2019-05-18T15:56:56Z</time>
      </trkpt>
      <trkpt lat="45.60608" lon="2.22038">
        <ele>748</ele>
        <time>2019-05-18T15:56:57Z</time>
      </trkpt>
      <trkpt lat="45.60613" lon="2.22039">
        <ele>748</ele>
        <time>2019-05-18T15:56:58Z</time>
      </trkpt>
      <trkpt lat="45.60621" lon="2.22038">
        <ele>748</ele>
        <time>2019-05-18T15:56:59Z</time>
      </trkpt>
      <trkpt lat="45.60629" lon="2.22037">
        <ele>748</ele>
        <time>2019-05-18T15:57:00Z</time>
      </trkpt>
      <trkpt lat="45.60635" lon="2.22034">
        <ele>747</ele>
        <time>2019-05-18T15:57:01Z</time>
      </trkpt>
      <trkpt lat="45.60642" lon="2.22031">
        <ele>747</ele>
        <time>2019-05-18T15:57:03Z</time>
      </trkpt>
      <trkpt lat="45.60648" lon="2.22027">
        <ele>747</ele>
        <time>2019-05-18T15:57:04Z</time>
      </trkpt>
      <trkpt lat="45.60653" lon="2.22022">
        <ele>746</ele>
        <time>2019-05-18T15:57:05Z</time>
      </trkpt>
      <trkpt lat="45.60658" lon="2.22019">
        <ele>746</ele>
        <time>2019-05-18T15:57:06Z</time>
      </trkpt>
      <trkpt lat="45.60664" lon="2.22015">
        <ele>746</ele>
        <time>2019-05-18T15:57:07Z</time>
      </trkpt>
      <trkpt lat="45.6067" lon="2.22011">
        <ele>745</ele>
        <time>2019-05-18T15:57:08Z</time>
      </trkpt>
      <trkpt lat="45.60677" lon="2.22008">
        <ele>745</ele>
        <time>2019-05-18T15:57:09Z</time>
      </trkpt>
      <trkpt lat="45.60685" lon="2.22004">
        <ele>745</ele>
        <time>2019-05-18T15:57:10Z</time>
      </trkpt>
      <trkpt lat="45.60692" lon="2.22">
        <ele>744</ele>
        <time>2019-05-18T15:57:11Z</time>
      </trkpt>
      <trkpt lat="45.607" lon="2.21997">
        <ele>744</ele>
        <time>2019-05-18T15:57:12Z</time>
      </trkpt>
      <trkpt lat="45.60709" lon="2.21994">
        <ele>743</ele>
        <time>2019-05-18T15:57:13Z</time>
      </trkpt>
      <trkpt lat="45.60716" lon="2.2199">
        <ele>742</ele>
        <time>2019-05-18T15:57:14Z</time>
      </trkpt>
      <trkpt lat="45.60723" lon="2.21987">
        <ele>742</ele>
        <time>2019-05-18T15:57:15Z</time>
      </trkpt>
      <trkpt lat="45.60729" lon="2.21984">
        <ele>741</ele>
        <time>2019-05-18T15:57:16Z</time>
      </trkpt>
      <trkpt lat="45.60733" lon="2.21982">
        <ele>741</ele>
        <time>2019-05-18T15:57:17Z</time>
      </trkpt>
      <trkpt lat="45.60737" lon="2.21982">
        <ele>741</ele>
        <time>2019-05-18T15:57:18Z</time>
      </trkpt>
      <trkpt lat="45.60743" lon="2.21986">
        <ele>741</ele>
        <time>2019-05-18T15:57:19Z</time>
      </trkpt>
      <trkpt lat="45.60746" lon="2.21987">
        <ele>741</ele>
        <time>2019-05-18T15:57:20Z</time>
      </trkpt>
      <trkpt lat="45.60748" lon="2.21986">
        <ele>741</ele>
        <time>2019-05-18T15:57:21Z</time>
      </trkpt>
      <trkpt lat="45.60751" lon="2.21986">
        <ele>740</ele>
        <time>2019-05-18T15:57:22Z</time>
      </trkpt>
      <trkpt lat="45.60754" lon="2.21989">
        <ele>740</ele>
        <time>2019-05-18T15:57:23Z</time>
      </trkpt>
      <trkpt lat="45.60757" lon="2.2199">
        <ele>740</ele>
        <time>2019-05-18T15:57:24Z</time>
      </trkpt>
      <trkpt lat="45.6076" lon="2.21991">
        <ele>740</ele>
        <time>2019-05-18T15:57:25Z</time>
      </trkpt>
      <trkpt lat="45.60762" lon="2.21992">
        <ele>740</ele>
        <time>2019-05-18T15:57:27Z</time>
      </trkpt>
      <trkpt lat="45.60764" lon="2.21994">
        <ele>741</ele>
        <time>2019-05-18T15:57:28Z</time>
      </trkpt>
      <trkpt lat="45.60766" lon="2.21995">
        <ele>741</ele>
        <time>2019-05-18T15:57:29Z</time>
      </trkpt>
      <trkpt lat="45.60767" lon="2.21996">
        <ele>741</ele>
        <time>2019-05-18T15:57:30Z</time>
      </trkpt>
      <trkpt lat="45.6077" lon="2.21996">
        <ele>741</ele>
        <time>2019-05-18T15:57:31Z</time>
      </trkpt>
      <trkpt lat="45.60772" lon="2.21997">
        <ele>741</ele>
        <time>2019-05-18T15:57:32Z</time>
      </trkpt>
      <trkpt lat="45.60775" lon="2.21998">
        <ele>741</ele>
        <time>2019-05-18T15:57:33Z</time>
      </trkpt>
      <trkpt lat="45.60778" lon="2.21999">
        <ele>741</ele>
        <time>2019-05-18T15:57:34Z</time>
      </trkpt>
      <trkpt lat="45.6078" lon="2.22001">
        <ele>741</ele>
        <time>2019-05-18T15:57:35Z</time>
      </trkpt>
      <trkpt lat="45.60782" lon="2.22003">
        <ele>741</ele>
        <time>2019-05-18T15:57:36Z</time>
      </trkpt>
      <trkpt lat="45.60784" lon="2.22005">
        <ele>741</ele>
        <time>2019-05-18T15:57:37Z</time>
      </trkpt>
      <trkpt lat="45.60785" lon="2.22006">
        <ele>741</ele>
        <time>2019-05-18T15:57:38Z</time>
      </trkpt>
      <trkpt lat="45.60787" lon="2.22009">
        <ele>741</ele>
        <time>2019-05-18T15:57:39Z</time>
      </trkpt>
      <trkpt lat="45.60789" lon="2.22011">
        <ele>741</ele>
        <time>2019-05-18T15:57:40Z</time>
      </trkpt>
      <trkpt lat="45.60791" lon="2.22013">
        <ele>741</ele>
        <time>2019-05-18T15:57:41Z</time>
      </trkpt>
      <trkpt lat="45.60792" lon="2.22015">
        <ele>741</ele>
        <time>2019-05-18T15:57:42Z</time>
      </trkpt>
      <trkpt lat="45.60794" lon="2.22017">
        <ele>741</ele>
        <time>2019-05-18T15:57:44Z</time>
      </trkpt>
      <trkpt lat="45.60796" lon="2.22019">
        <ele>741</ele>
        <time>2019-05-18T15:57:45Z</time>
      </trkpt>
      <trkpt lat="45.60797" lon="2.2202">
        <ele>741</ele>
        <time>2019-05-18T15:57:46Z</time>
      </trkpt>
      <trkpt lat="45.608" lon="2.22023">
        <ele>741</ele>
        <time>2019-05-18T15:57:47Z</time>
      </trkpt>
      <trkpt lat="45.60801" lon="2.22026">
        <ele>741</ele>
        <time>2019-05-18T15:57:48Z</time>
      </trkpt>
      <trkpt lat="45.60802" lon="2.22029">
        <ele>741</ele>
        <time>2019-05-18T15:57:49Z</time>
      </trkpt>
      <trkpt lat="45.60804" lon="2.22032">
        <ele>741</ele>
        <time>2019-05-18T15:57:50Z</time>
      </trkpt>
      <trkpt lat="45.60806" lon="2.22034">
        <ele>741</ele>
        <time>2019-05-18T15:57:51Z</time>
      </trkpt>
      <trkpt lat="45.60808" lon="2.22036">
        <ele>741</ele>
        <time>2019-05-18T15:57:52Z</time>
      </trkpt>
      <trkpt lat="45.6081" lon="2.22039">
        <ele>741</ele>
        <time>2019-05-18T15:57:53Z</time>
      </trkpt>
      <trkpt lat="45.60813" lon="2.22041">
        <ele>741</ele>
        <time>2019-05-18T15:57:54Z</time>
      </trkpt>
      <trkpt lat="45.60815" lon="2.22043">
        <ele>741</ele>
        <time>2019-05-18T15:57:55Z</time>
      </trkpt>
      <trkpt lat="45.60817" lon="2.22044">
        <ele>741</ele>
        <time>2019-05-18T15:57:56Z</time>
      </trkpt>
      <trkpt lat="45.60818" lon="2.22046">
        <ele>741</ele>
        <time>2019-05-18T15:57:57Z</time>
      </trkpt>
      <trkpt lat="45.60819" lon="2.22048">
        <ele>741</ele>
        <time>2019-05-18T15:57:58Z</time>
      </trkpt>
      <trkpt lat="45.6082" lon="2.22049">
        <ele>741</ele>
        <time>2019-05-18T15:57:59Z</time>
      </trkpt>
      <trkpt lat="45.60821" lon="2.22052">
        <ele>741</ele>
        <time>2019-05-18T15:58:00Z</time>
      </trkpt>
      <trkpt lat="45.60822" lon="2.22056">
        <ele>741</ele>
        <time>2019-05-18T15:58:01Z</time>
      </trkpt>
      <trkpt lat="45.60822" lon="2.22058">
        <ele>741</ele>
        <time>2019-05-18T15:58:02Z</time>
      </trkpt>
      <trkpt lat="45.60824" lon="2.2206">
        <ele>741</ele>
        <time>2019-05-18T15:58:03Z</time>
      </trkpt>
      <trkpt lat="45.60826" lon="2.22062">
        <ele>741</ele>
        <time>2019-05-18T15:58:04Z</time>
      </trkpt>
      <trkpt lat="45.60829" lon="2.22066">
        <ele>742</ele>
        <time>2019-05-18T15:58:05Z</time>
      </trkpt>
      <trkpt lat="45.6083" lon="2.22067">
        <ele>742</ele>
        <time>2019-05-18T15:58:06Z</time>
      </trkpt>
      <trkpt lat="45.60831" lon="2.22069">
        <ele>742</ele>
        <time>2019-05-18T15:58:07Z</time>
      </trkpt>
      <trkpt lat="45.60833" lon="2.22072">
        <ele>742</ele>
        <time>2019-05-18T15:58:08Z</time>
      </trkpt>
      <trkpt lat="45.60834" lon="2.22074">
        <ele>742</ele>
        <time>2019-05-18T15:58:09Z</time>
      </trkpt>
      <trkpt lat="45.60835" lon="2.22077">
        <ele>742</ele>
        <time>2019-05-18T15:58:10Z</time>
      </trkpt>
      <trkpt lat="45.60835" lon="2.22081">
        <ele>742</ele>
        <time>2019-05-18T15:58:11Z</time>
      </trkpt>
      <trkpt lat="45.60836" lon="2.22085">
        <ele>742</ele>
        <time>2019-05-18T15:58:12Z</time>
      </trkpt>
      <trkpt lat="45.60838" lon="2.22089">
        <ele>742</ele>
        <time>2019-05-18T15:58:13Z</time>
      </trkpt>
      <trkpt lat="45.60839" lon="2.22092">
        <ele>743</ele>
        <time>2019-05-18T15:58:14Z</time>
      </trkpt>
      <trkpt lat="45.60841" lon="2.22094">
        <ele>743</ele>
        <time>2019-05-18T15:58:15Z</time>
      </trkpt>
      <trkpt lat="45.60841" lon="2.22096">
        <ele>743</ele>
        <time>2019-05-18T15:58:16Z</time>
      </trkpt>
      <trkpt lat="45.60842" lon="2.22099">
        <ele>743</ele>
        <time>2019-05-18T15:58:17Z</time>
      </trkpt>
      <trkpt lat="45.60843" lon="2.22102">
        <ele>743</ele>
        <time>2019-05-18T15:58:18Z</time>
      </trkpt>
      <trkpt lat="45.60844" lon="2.22104">
        <ele>743</ele>
        <time>2019-05-18T15:58:20Z</time>
      </trkpt>
      <trkpt lat="45.60846" lon="2.22108">
        <ele>744</ele>
        <time>2019-05-18T15:58:21Z</time>
      </trkpt>
      <trkpt lat="45.60846" lon="2.2211">
        <ele>744</ele>
        <time>2019-05-18T15:58:22Z</time>
      </trkpt>
      <trkpt lat="45.60848" lon="2.22113">
        <ele>744</ele>
        <time>2019-05-18T15:58:23Z</time>
      </trkpt>
      <trkpt lat="45.60849" lon="2.22117">
        <ele>744</ele>
        <time>2019-05-18T15:58:24Z</time>
      </trkpt>
      <trkpt lat="45.60851" lon="2.22122">
        <ele>743</ele>
        <time>2019-05-18T15:58:25Z</time>
      </trkpt>
      <trkpt lat="45.60852" lon="2.22126">
        <ele>743</ele>
        <time>2019-05-18T15:58:26Z</time>
      </trkpt>
      <trkpt lat="45.60853" lon="2.22129">
        <ele>743</ele>
        <time>2019-05-18T15:58:27Z</time>
      </trkpt>
      <trkpt lat="45.60854" lon="2.22132">
        <ele>744</ele>
        <time>2019-05-18T15:58:28Z</time>
      </trkpt>
      <trkpt lat="45.60855" lon="2.22134">
        <ele>744</ele>
        <time>2019-05-18T15:58:29Z</time>
      </trkpt>
      <trkpt lat="45.60857" lon="2.22136">
        <ele>744</ele>
        <time>2019-05-18T15:58:30Z</time>
      </trkpt>
      <trkpt lat="45.60861" lon="2.2214">
        <ele>744</ele>
        <time>2019-05-18T15:58:31Z</time>
      </trkpt>
      <trkpt lat="45.60863" lon="2.22142">
        <ele>744</ele>
        <time>2019-05-18T15:58:32Z</time>
      </trkpt>
      <trkpt lat="45.60865" lon="2.22143">
        <ele>744</ele>
        <time>2019-05-18T15:58:33Z</time>
      </trkpt>
      <trkpt lat="45.60866" lon="2.22144">
        <ele>744</ele>
        <time>2019-05-18T15:58:34Z</time>
      </trkpt>
      <trkpt lat="45.60867" lon="2.22146">
        <ele>744</ele>
        <time>2019-05-18T15:58:35Z</time>
      </trkpt>
      <trkpt lat="45.60869" lon="2.22148">
        <ele>743</ele>
        <time>2019-05-18T15:58:36Z</time>
      </trkpt>
      <trkpt lat="45.60871" lon="2.22151">
        <ele>743</ele>
        <time>2019-05-18T15:58:37Z</time>
      </trkpt>
      <trkpt lat="45.60873" lon="2.22154">
        <ele>743</ele>
        <time>2019-05-18T15:58:38Z</time>
      </trkpt>
      <trkpt lat="45.60874" lon="2.22156">
        <ele>743</ele>
        <time>2019-05-18T15:58:39Z</time>
      </trkpt>
      <trkpt lat="45.60876" lon="2.22156">
        <ele>743</ele>
        <time>2019-05-18T15:58:40Z</time>
      </trkpt>
      <trkpt lat="45.60879" lon="2.22157">
        <ele>743</ele>
        <time>2019-05-18T15:58:41Z</time>
      </trkpt>
      <trkpt lat="45.60881" lon="2.22158">
        <ele>743</ele>
        <time>2019-05-18T15:58:42Z</time>
      </trkpt>
      <trkpt lat="45.60882" lon="2.2216">
        <ele>743</ele>
        <time>2019-05-18T15:58:43Z</time>
      </trkpt>
      <trkpt lat="45.60884" lon="2.22161">
        <ele>743</ele>
        <time>2019-05-18T15:58:44Z</time>
      </trkpt>
      <trkpt lat="45.60889" lon="2.22165">
        <ele>743</ele>
        <time>2019-05-18T15:58:45Z</time>
      </trkpt>
      <trkpt lat="45.60891" lon="2.22165">
        <ele>743</ele>
        <time>2019-05-18T15:58:46Z</time>
      </trkpt>
      <trkpt lat="45.60892" lon="2.22165">
        <ele>743</ele>
        <time>2019-05-18T15:58:47Z</time>
      </trkpt>
      <trkpt lat="45.60894" lon="2.22168">
        <ele>743</ele>
        <time>2019-05-18T15:58:48Z</time>
      </trkpt>
      <trkpt lat="45.60896" lon="2.22167">
        <ele>743</ele>
        <time>2019-05-18T15:58:49Z</time>
      </trkpt>
      <trkpt lat="45.60897" lon="2.22167">
        <ele>744</ele>
        <time>2019-05-18T15:58:50Z</time>
      </trkpt>
      <trkpt lat="45.60898" lon="2.22167">
        <ele>744</ele>
        <time>2019-05-18T15:58:51Z</time>
      </trkpt>
      <trkpt lat="45.609" lon="2.22168">
        <ele>744</ele>
        <time>2019-05-18T15:58:52Z</time>
      </trkpt>
      <trkpt lat="45.60901" lon="2.22168">
        <ele>744</ele>
        <time>2019-05-18T15:58:53Z</time>
      </trkpt>
      <trkpt lat="45.60904" lon="2.2217">
        <ele>744</ele>
        <time>2019-05-18T15:58:54Z</time>
      </trkpt>
      <trkpt lat="45.60906" lon="2.22171">
        <ele>744</ele>
        <time>2019-05-18T15:58:55Z</time>
      </trkpt>
      <trkpt lat="45.60909" lon="2.22172">
        <ele>744</ele>
        <time>2019-05-18T15:58:56Z</time>
      </trkpt>
      <trkpt lat="45.60912" lon="2.22173">
        <ele>744</ele>
        <time>2019-05-18T15:58:57Z</time>
      </trkpt>
      <trkpt lat="45.60914" lon="2.22175">
        <ele>744</ele>
        <time>2019-05-18T15:58:58Z</time>
      </trkpt>
      <trkpt lat="45.60919" lon="2.22176">
        <ele>744</ele>
        <time>2019-05-18T15:58:59Z</time>
      </trkpt>
      <trkpt lat="45.60923" lon="2.22179">
        <ele>744</ele>
        <time>2019-05-18T15:59:00Z</time>
      </trkpt>
      <trkpt lat="45.60926" lon="2.22182">
        <ele>744</ele>
        <time>2019-05-18T15:59:01Z</time>
      </trkpt>
      <trkpt lat="45.60928" lon="2.22186">
        <ele>743</ele>
        <time>2019-05-18T15:59:03Z</time>
      </trkpt>
      <trkpt lat="45.60932" lon="2.2219">
        <ele>743</ele>
        <time>2019-05-18T15:59:04Z</time>
      </trkpt>
      <trkpt lat="45.60936" lon="2.22195">
        <ele>743</ele>
        <time>2019-05-18T15:59:05Z</time>
      </trkpt>
      <trkpt lat="45.60938" lon="2.22201">
        <ele>743</ele>
        <time>2019-05-18T15:59:06Z</time>
      </trkpt>
      <trkpt lat="45.60941" lon="2.2221">
        <ele>743</ele>
        <time>2019-05-18T15:59:07Z</time>
      </trkpt>
      <trkpt lat="45.60942" lon="2.22216">
        <ele>743</ele>
        <time>2019-05-18T15:59:08Z</time>
      </trkpt>
      <trkpt lat="45.60945" lon="2.22219">
        <ele>743</ele>
        <time>2019-05-18T15:59:09Z</time>
      </trkpt>
      <trkpt lat="45.60947" lon="2.22224">
        <ele>743</ele>
        <time>2019-05-18T15:59:10Z</time>
      </trkpt>
      <trkpt lat="45.60949" lon="2.22226">
        <ele>743</ele>
        <time>2019-05-18T15:59:11Z</time>
      </trkpt>
      <trkpt lat="45.60952" lon="2.22228">
        <ele>743</ele>
        <time>2019-05-18T15:59:12Z</time>
      </trkpt>
      <trkpt lat="45.60954" lon="2.22235">
        <ele>744</ele>
        <time>2019-05-18T15:59:13Z</time>
      </trkpt>
      <trkpt lat="45.60955" lon="2.2224">
        <ele>744</ele>
        <time>2019-05-18T15:59:14Z</time>
      </trkpt>
      <trkpt lat="45.60955" lon="2.22243">
        <ele>744</ele>
        <time>2019-05-18T15:59:15Z</time>
      </trkpt>
      <trkpt lat="45.60955" lon="2.22246">
        <ele>744</ele>
        <time>2019-05-18T15:59:16Z</time>
      </trkpt>
      <trkpt lat="45.60956" lon="2.22249">
        <ele>745</ele>
        <time>2019-05-18T15:59:17Z</time>
      </trkpt>
      <trkpt lat="45.60957" lon="2.22252">
        <ele>744</ele>
        <time>2019-05-18T15:59:18Z</time>
      </trkpt>
      <trkpt lat="45.60958" lon="2.22255">
        <ele>744</ele>
        <time>2019-05-18T15:59:19Z</time>
      </trkpt>
      <trkpt lat="45.60959" lon="2.22256">
        <ele>744</ele>
        <time>2019-05-18T15:59:20Z</time>
      </trkpt>
      <trkpt lat="45.6096" lon="2.22259">
        <ele>744</ele>
        <time>2019-05-18T15:59:21Z</time>
      </trkpt>
      <trkpt lat="45.60963" lon="2.22262">
        <ele>744</ele>
        <time>2019-05-18T15:59:22Z</time>
      </trkpt>
      <trkpt lat="45.60966" lon="2.22265">
        <ele>743</ele>
        <time>2019-05-18T15:59:23Z</time>
      </trkpt>
      <trkpt lat="45.60968" lon="2.22267">
        <ele>743</ele>
        <time>2019-05-18T15:59:24Z</time>
      </trkpt>
      <trkpt lat="45.60972" lon="2.2227">
        <ele>743</ele>
        <time>2019-05-18T15:59:25Z</time>
      </trkpt>
      <trkpt lat="45.60977" lon="2.22271">
        <ele>742</ele>
        <time>2019-05-18T15:59:26Z</time>
      </trkpt>
      <trkpt lat="45.60981" lon="2.22275">
        <ele>742</ele>
        <time>2019-05-18T15:59:27Z</time>
      </trkpt>
      <trkpt lat="45.60986" lon="2.2228">
        <ele>742</ele>
        <time>2019-05-18T15:59:28Z</time>
      </trkpt>
      <trkpt lat="45.60989" lon="2.22288">
        <ele>742</ele>
        <time>2019-05-18T15:59:29Z</time>
      </trkpt>
      <trkpt lat="45.60993" lon="2.22293">
        <ele>741</ele>
        <time>2019-05-18T15:59:31Z</time>
      </trkpt>
      <trkpt lat="45.60996" lon="2.22299">
        <ele>741</ele>
        <time>2019-05-18T15:59:32Z</time>
      </trkpt>
      <trkpt lat="45.61001" lon="2.22305">
        <ele>741</ele>
        <time>2019-05-18T15:59:33Z</time>
      </trkpt>
      <trkpt lat="45.61004" lon="2.22314">
        <ele>740</ele>
        <time>2019-05-18T15:59:34Z</time>
      </trkpt>
      <trkpt lat="45.61008" lon="2.22321">
        <ele>740</ele>
        <time>2019-05-18T15:59:35Z</time>
      </trkpt>
      <trkpt lat="45.61013" lon="2.22333">
        <ele>740</ele>
        <time>2019-05-18T15:59:36Z</time>
      </trkpt>
      <trkpt lat="45.61017" lon="2.22339">
        <ele>739</ele>
        <time>2019-05-18T15:59:37Z</time>
      </trkpt>
      <trkpt lat="45.61019" lon="2.22349">
        <ele>739</ele>
        <time>2019-05-18T15:59:38Z</time>
      </trkpt>
      <trkpt lat="45.6102" lon="2.22357">
        <ele>739</ele>
        <time>2019-05-18T15:59:39Z</time>
      </trkpt>
      <trkpt lat="45.6102" lon="2.22366">
        <ele>739</ele>
        <time>2019-05-18T15:59:40Z</time>
      </trkpt>
      <trkpt lat="45.6102" lon="2.22374">
        <ele>739</ele>
        <time>2019-05-18T15:59:41Z</time>
      </trkpt>
      <trkpt lat="45.6102" lon="2.22381">
        <ele>739</ele>
        <time>2019-05-18T15:59:42Z</time>
      </trkpt>
      <trkpt lat="45.61019" lon="2.22387">
        <ele>739</ele>
        <time>2019-05-18T15:59:43Z</time>
      </trkpt>
      <trkpt lat="45.61018" lon="2.22394">
        <ele>739</ele>
        <time>2019-05-18T15:59:44Z</time>
      </trkpt>
      <trkpt lat="45.61016" lon="2.224">
        <ele>739</ele>
        <time>2019-05-18T15:59:45Z</time>
      </trkpt>
      <trkpt lat="45.61015" lon="2.22407">
        <ele>738</ele>
        <time>2019-05-18T15:59:46Z</time>
      </trkpt>
      <trkpt lat="45.61015" lon="2.22412">
        <ele>738</ele>
        <time>2019-05-18T15:59:47Z</time>
      </trkpt>
      <trkpt lat="45.61014" lon="2.22417">
        <ele>738</ele>
        <time>2019-05-18T15:59:48Z</time>
      </trkpt>
      <trkpt lat="45.61012" lon="2.22429">
        <ele>738</ele>
        <time>2019-05-18T15:59:49Z</time>
      </trkpt>
      <trkpt lat="45.6101" lon="2.22433">
        <ele>738</ele>
        <time>2019-05-18T15:59:50Z</time>
      </trkpt>
      <trkpt lat="45.61009" lon="2.22438">
        <ele>738</ele>
        <time>2019-05-18T15:59:51Z</time>
      </trkpt>
      <trkpt lat="45.61008" lon="2.22442">
        <ele>738</ele>
        <time>2019-05-18T15:59:53Z</time>
      </trkpt>
      <trkpt lat="45.61007" lon="2.22446">
        <ele>738</ele>
        <time>2019-05-18T15:59:54Z</time>
      </trkpt>
      <trkpt lat="45.61005" lon="2.2245">
        <ele>738</ele>
        <time>2019-05-18T15:59:55Z</time>
      </trkpt>
      <trkpt lat="45.61004" lon="2.22453">
        <ele>738</ele>
        <time>2019-05-18T15:59:56Z</time>
      </trkpt>
      <trkpt lat="45.61002" lon="2.22457">
        <ele>738</ele>
        <time>2019-05-18T15:59:57Z</time>
      </trkpt>
      <trkpt lat="45.61" lon="2.2246">
        <ele>738</ele>
        <time>2019-05-18T15:59:58Z</time>
      </trkpt>
      <trkpt lat="45.60998" lon="2.22463">
        <ele>738</ele>
        <time>2019-05-18T15:59:59Z</time>
      </trkpt>
      <trkpt lat="45.60996" lon="2.22466">
        <ele>738</ele>
        <time>2019-05-18T16:00:00Z</time>
      </trkpt>
      <trkpt lat="45.60994" lon="2.2247">
        <ele>738</ele>
        <time>2019-05-18T16:00:01Z</time>
      </trkpt>
      <trkpt lat="45.60992" lon="2.22473">
        <ele>738</ele>
        <time>2019-05-18T16:00:02Z</time>
      </trkpt>
      <trkpt lat="45.60991" lon="2.22476">
        <ele>739</ele>
        <time>2019-05-18T16:00:03Z</time>
      </trkpt>
      <trkpt lat="45.60988" lon="2.22479">
        <ele>739</ele>
        <time>2019-05-18T16:00:04Z</time>
      </trkpt>
      <trkpt lat="45.60986" lon="2.22482">
        <ele>739</ele>
        <time>2019-05-18T16:00:05Z</time>
      </trkpt>
      <trkpt lat="45.60984" lon="2.22485">
        <ele>739</ele>
        <time>2019-05-18T16:00:06Z</time>
      </trkpt>
      <trkpt lat="45.60981" lon="2.22488">
        <ele>739</ele>
        <time>2019-05-18T16:00:07Z</time>
      </trkpt>
      <trkpt lat="45.60979" lon="2.2249">
        <ele>739</ele>
        <time>2019-05-18T16:00:08Z</time>
      </trkpt>
      <trkpt lat="45.60976" lon="2.22493">
        <ele>739</ele>
        <time>2019-05-18T16:00:09Z</time>
      </trkpt>
      <trkpt lat="45.60973" lon="2.22495">
        <ele>739</ele>
        <time>2019-05-18T16:00:10Z</time>
      </trkpt>
      <trkpt lat="45.60971" lon="2.22497">
        <ele>740</ele>
        <time>2019-05-18T16:00:11Z</time>
      </trkpt>
      <trkpt lat="45.60966" lon="2.22503">
        <ele>740</ele>
        <time>2019-05-18T16:00:13Z</time>
      </trkpt>
      <trkpt lat="45.60964" lon="2.22505">
        <ele>740</ele>
        <time>2019-05-18T16:00:14Z</time>
      </trkpt>
      <trkpt lat="45.60962" lon="2.22508">
        <ele>740</ele>
        <time>2019-05-18T16:00:15Z</time>
      </trkpt>
      <trkpt lat="45.6096" lon="2.2251">
        <ele>740</ele>
        <time>2019-05-18T16:00:16Z</time>
      </trkpt>
      <trkpt lat="45.60958" lon="2.22513">
        <ele>740</ele>
        <time>2019-05-18T16:00:17Z</time>
      </trkpt>
      <trkpt lat="45.60956" lon="2.22515">
        <ele>740</ele>
        <time>2019-05-18T16:00:18Z</time>
      </trkpt>
      <trkpt lat="45.60954" lon="2.22518">
        <ele>740</ele>
        <time>2019-05-18T16:00:19Z</time>
      </trkpt>
      <trkpt lat="45.60952" lon="2.22521">
        <ele>740</ele>
        <time>2019-05-18T16:00:20Z</time>
      </trkpt>
      <trkpt lat="45.6095" lon="2.22524">
        <ele>740</ele>
        <time>2019-05-18T16:00:21Z</time>
      </trkpt>
      <trkpt lat="45.60948" lon="2.22528">
        <ele>740</ele>
        <time>2019-05-18T16:00:22Z</time>
      </trkpt>
      <trkpt lat="45.60943" lon="2.22533">
        <ele>740</ele>
        <time>2019-05-18T16:00:23Z</time>
      </trkpt>
      <trkpt lat="45.60941" lon="2.22537">
        <ele>740</ele>
        <time>2019-05-18T16:00:24Z</time>
      </trkpt>
      <trkpt lat="45.60938" lon="2.2254">
        <ele>740</ele>
        <time>2019-05-18T16:00:25Z</time>
      </trkpt>
      <trkpt lat="45.60936" lon="2.22543">
        <ele>740</ele>
        <time>2019-05-18T16:00:26Z</time>
      </trkpt>
      <trkpt lat="45.60933" lon="2.22547">
        <ele>740</ele>
        <time>2019-05-18T16:00:27Z</time>
      </trkpt>
      <trkpt lat="45.6093" lon="2.2255">
        <ele>740</ele>
        <time>2019-05-18T16:00:28Z</time>
      </trkpt>
      <trkpt lat="45.60928" lon="2.22553">
        <ele>740</ele>
        <time>2019-05-18T16:00:29Z</time>
      </trkpt>
      <trkpt lat="45.60925" lon="2.22556">
        <ele>740</ele>
        <time>2019-05-18T16:00:31Z</time>
      </trkpt>
      <trkpt lat="45.60922" lon="2.22559">
        <ele>739</ele>
        <time>2019-05-18T16:00:32Z</time>
      </trkpt>
      <trkpt lat="45.60919" lon="2.22561">
        <ele>739</ele>
        <time>2019-05-18T16:00:33Z</time>
      </trkpt>
      <trkpt lat="45.60917" lon="2.22562">
        <ele>739</ele>
        <time>2019-05-18T16:00:34Z</time>
      </trkpt>
      <trkpt lat="45.60914" lon="2.22564">
        <ele>739</ele>
        <time>2019-05-18T16:00:35Z</time>
      </trkpt>
      <trkpt lat="45.60911" lon="2.22566">
        <ele>739</ele>
        <time>2019-05-18T16:00:36Z</time>
      </trkpt>
      <trkpt lat="45.60908" lon="2.22568">
        <ele>739</ele>
        <time>2019-05-18T16:00:37Z</time>
      </trkpt>
      <trkpt lat="45.60905" lon="2.2257">
        <ele>738</ele>
        <time>2019-05-18T16:00:38Z</time>
      </trkpt>
      <trkpt lat="45.60902" lon="2.22571">
        <ele>738</ele>
        <time>2019-05-18T16:00:39Z</time>
      </trkpt>
      <trkpt lat="45.609" lon="2.22571">
        <ele>739</ele>
        <time>2019-05-18T16:00:40Z</time>
      </trkpt>
      <trkpt lat="45.60897" lon="2.22573">
        <ele>739</ele>
        <time>2019-05-18T16:00:41Z</time>
      </trkpt>
      <trkpt lat="45.60894" lon="2.22574">
        <ele>738</ele>
        <time>2019-05-18T16:00:42Z</time>
      </trkpt>
      <trkpt lat="45.60892" lon="2.22576">
        <ele>738</ele>
        <time>2019-05-18T16:00:43Z</time>
      </trkpt>
      <trkpt lat="45.60889" lon="2.22579">
        <ele>738</ele>
        <time>2019-05-18T16:00:44Z</time>
      </trkpt>
      <trkpt lat="45.60886" lon="2.22582">
        <ele>739</ele>
        <time>2019-05-18T16:00:45Z</time>
      </trkpt>
      <trkpt lat="45.60885" lon="2.22584">
        <ele>739</ele>
        <time>2019-05-18T16:00:46Z</time>
      </trkpt>
      <trkpt lat="45.60883" lon="2.22587">
        <ele>739</ele>
        <time>2019-05-18T16:00:47Z</time>
      </trkpt>
      <trkpt lat="45.60882" lon="2.22592">
        <ele>739</ele>
        <time>2019-05-18T16:00:48Z</time>
      </trkpt>
      <trkpt lat="45.60881" lon="2.22595">
        <ele>739</ele>
        <time>2019-05-18T16:00:49Z</time>
      </trkpt>
      <trkpt lat="45.60881" lon="2.22597">
        <ele>740</ele>
        <time>2019-05-18T16:00:51Z</time>
      </trkpt>
      <trkpt lat="45.6088" lon="2.22599">
        <ele>740</ele>
        <time>2019-05-18T16:00:52Z</time>
      </trkpt>
      <trkpt lat="45.6088" lon="2.22602">
        <ele>740</ele>
        <time>2019-05-18T16:00:53Z</time>
      </trkpt>
      <trkpt lat="45.60879" lon="2.22605">
        <ele>740</ele>
        <time>2019-05-18T16:00:54Z</time>
      </trkpt>
      <trkpt lat="45.60879" lon="2.22607">
        <ele>740</ele>
        <time>2019-05-18T16:00:55Z</time>
      </trkpt>
      <trkpt lat="45.60878" lon="2.22611">
        <ele>740</ele>
        <time>2019-05-18T16:00:56Z</time>
      </trkpt>
      <trkpt lat="45.60879" lon="2.22615">
        <ele>740</ele>
        <time>2019-05-18T16:00:57Z</time>
      </trkpt>
      <trkpt lat="45.60879" lon="2.22618">
        <ele>740</ele>
        <time>2019-05-18T16:00:58Z</time>
      </trkpt>
      <trkpt lat="45.6088" lon="2.22621">
        <ele>741</ele>
        <time>2019-05-18T16:00:59Z</time>
      </trkpt>
      <trkpt lat="45.60881" lon="2.22623">
        <ele>741</ele>
        <time>2019-05-18T16:01:00Z</time>
      </trkpt>
      <trkpt lat="45.60882" lon="2.22625">
        <ele>741</ele>
        <time>2019-05-18T16:01:01Z</time>
      </trkpt>
      <trkpt lat="45.60883" lon="2.22628">
        <ele>741</ele>
        <time>2019-05-18T16:01:02Z</time>
      </trkpt>
      <trkpt lat="45.60883" lon="2.2263">
        <ele>741</ele>
        <time>2019-05-18T16:01:03Z</time>
      </trkpt>
      <trkpt lat="45.60884" lon="2.22633">
        <ele>742</ele>
        <time>2019-05-18T16:01:04Z</time>
      </trkpt>
      <trkpt lat="45.60884" lon="2.22635">
        <ele>742</ele>
        <time>2019-05-18T16:01:05Z</time>
      </trkpt>
      <trkpt lat="45.60885" lon="2.22636">
        <ele>742</ele>
        <time>2019-05-18T16:01:06Z</time>
      </trkpt>
      <trkpt lat="45.60885" lon="2.22639">
        <ele>742</ele>
        <time>2019-05-18T16:01:07Z</time>
      </trkpt>
      <trkpt lat="45.60886" lon="2.22641">
        <ele>742</ele>
        <time>2019-05-18T16:01:08Z</time>
      </trkpt>
      <trkpt lat="45.60886" lon="2.22643">
        <ele>742</ele>
        <time>2019-05-18T16:01:09Z</time>
      </trkpt>
      <trkpt lat="45.60887" lon="2.22644">
        <ele>742</ele>
        <time>2019-05-18T16:01:10Z</time>
      </trkpt>
      <trkpt lat="45.60888" lon="2.22648">
        <ele>743</ele>
        <time>2019-05-18T16:01:11Z</time>
      </trkpt>
      <trkpt lat="45.60888" lon="2.2265">
        <ele>743</ele>
        <time>2019-05-18T16:01:12Z</time>
      </trkpt>
      <trkpt lat="45.60889" lon="2.22652">
        <ele>743</ele>
        <time>2019-05-18T16:01:14Z</time>
      </trkpt>
      <trkpt lat="45.60889" lon="2.22654">
        <ele>743</ele>
        <time>2019-05-18T16:01:15Z</time>
      </trkpt>
      <trkpt lat="45.60891" lon="2.22657">
        <ele>743</ele>
        <time>2019-05-18T16:01:16Z</time>
      </trkpt>
      <trkpt lat="45.60891" lon="2.22659">
        <ele>744</ele>
        <time>2019-05-18T16:01:17Z</time>
      </trkpt>
      <trkpt lat="45.60892" lon="2.22662">
        <ele>744</ele>
        <time>2019-05-18T16:01:18Z</time>
      </trkpt>
      <trkpt lat="45.60893" lon="2.22665">
        <ele>744</ele>
        <time>2019-05-18T16:01:19Z</time>
      </trkpt>
      <trkpt lat="45.60894" lon="2.22667">
        <ele>744</ele>
        <time>2019-05-18T16:01:20Z</time>
      </trkpt>
      <trkpt lat="45.60895" lon="2.22669">
        <ele>744</ele>
        <time>2019-05-18T16:01:21Z</time>
      </trkpt>
      <trkpt lat="45.60896" lon="2.22672">
        <ele>744</ele>
        <time>2019-05-18T16:01:22Z</time>
      </trkpt>
      <trkpt lat="45.60897" lon="2.22675">
        <ele>745</ele>
        <time>2019-05-18T16:01:23Z</time>
      </trkpt>
      <trkpt lat="45.60898" lon="2.22676">
        <ele>745</ele>
        <time>2019-05-18T16:01:24Z</time>
      </trkpt>
      <trkpt lat="45.60899" lon="2.22679">
        <ele>745</ele>
        <time>2019-05-18T16:01:25Z</time>
      </trkpt>
      <trkpt lat="45.609" lon="2.22681">
        <ele>745</ele>
        <time>2019-05-18T16:01:26Z</time>
      </trkpt>
      <trkpt lat="45.60901" lon="2.22682">
        <ele>745</ele>
        <time>2019-05-18T16:01:27Z</time>
      </trkpt>
      <trkpt lat="45.60901" lon="2.22684">
        <ele>745</ele>
        <time>2019-05-18T16:01:28Z</time>
      </trkpt>
      <trkpt lat="45.60901" lon="2.22686">
        <ele>745</ele>
        <time>2019-05-18T16:01:29Z</time>
      </trkpt>
      <trkpt lat="45.60902" lon="2.22689">
        <ele>746</ele>
        <time>2019-05-18T16:01:30Z</time>
      </trkpt>
      <trkpt lat="45.60903" lon="2.2269">
        <ele>746</ele>
        <time>2019-05-18T16:01:31Z</time>
      </trkpt>
      <trkpt lat="45.60903" lon="2.22691">
        <ele>746</ele>
        <time>2019-05-18T16:01:32Z</time>
      </trkpt>
      <trkpt lat="45.60904" lon="2.22693">
        <ele>746</ele>
        <time>2019-05-18T16:01:33Z</time>
      </trkpt>
      <trkpt lat="45.60903" lon="2.22695">
        <ele>746</ele>
        <time>2019-05-18T16:01:34Z</time>
      </trkpt>
      <trkpt lat="45.60903" lon="2.22697">
        <ele>746</ele>
        <time>2019-05-18T16:01:35Z</time>
      </trkpt>
      <trkpt lat="45.60903" lon="2.22698">
        <ele>747</ele>
        <time>2019-05-18T16:01:36Z</time>
      </trkpt>
      <trkpt lat="45.60904" lon="2.227">
        <ele>747</ele>
        <time>2019-05-18T16:01:37Z</time>
      </trkpt>
      <trkpt lat="45.60905" lon="2.22702">
        <ele>747</ele>
        <time>2019-05-18T16:01:38Z</time>
      </trkpt>
      <trkpt lat="45.60905" lon="2.22705">
        <ele>747</ele>
        <time>2019-05-18T16:01:39Z</time>
      </trkpt>
      <trkpt lat="45.60906" lon="2.22706">
        <ele>747</ele>
        <time>2019-05-18T16:01:40Z</time>
      </trkpt>
      <trkpt lat="45.60906" lon="2.22707">
        <ele>748</ele>
        <time>2019-05-18T16:01:41Z</time>
      </trkpt>
      <trkpt lat="45.60905" lon="2.22711">
        <ele>748</ele>
        <time>2019-05-18T16:01:42Z</time>
      </trkpt>
      <trkpt lat="45.60905" lon="2.22713">
        <ele>748</ele>
        <time>2019-05-18T16:01:43Z</time>
      </trkpt>
      <trkpt lat="45.60905" lon="2.22714">
        <ele>748</ele>
        <time>2019-05-18T16:01:44Z</time>
      </trkpt>
      <trkpt lat="45.60905" lon="2.22716">
        <ele>748</ele>
        <time>2019-05-18T16:01:45Z</time>
      </trkpt>
      <trkpt lat="45.60906" lon="2.22717">
        <ele>749</ele>
        <time>2019-05-18T16:01:46Z</time>
      </trkpt>
      <trkpt lat="45.60906" lon="2.22719">
        <ele>749</ele>
        <time>2019-05-18T16:01:47Z</time>
      </trkpt>
      <trkpt lat="45.60906" lon="2.2272">
        <ele>749</ele>
        <time>2019-05-18T16:01:48Z</time>
      </trkpt>
      <trkpt lat="45.60906" lon="2.22722">
        <ele>749</ele>
        <time>2019-05-18T16:01:49Z</time>
      </trkpt>
      <trkpt lat="45.60906" lon="2.22723">
        <ele>749</ele>
        <time>2019-05-18T16:01:50Z</time>
      </trkpt>
      <trkpt lat="45.60907" lon="2.22724">
        <ele>749</ele>
        <time>2019-05-18T16:01:51Z</time>
      </trkpt>
      <trkpt lat="45.60907" lon="2.22725">
        <ele>750</ele>
        <time>2019-05-18T16:01:52Z</time>
      </trkpt>
      <trkpt lat="45.60908" lon="2.22727">
        <ele>750</ele>
        <time>2019-05-18T16:01:53Z</time>
      </trkpt>
      <trkpt lat="45.60909" lon="2.22728">
        <ele>750</ele>
        <time>2019-05-18T16:01:54Z</time>
      </trkpt>
      <trkpt lat="45.60909" lon="2.2273">
        <ele>750</ele>
        <time>2019-05-18T16:01:55Z</time>
      </trkpt>
      <trkpt lat="45.6091" lon="2.22733">
        <ele>750</ele>
        <time>2019-05-18T16:01:56Z</time>
      </trkpt>
      <trkpt lat="45.6091" lon="2.22735">
        <ele>750</ele>
        <time>2019-05-18T16:01:57Z</time>
      </trkpt>
      <trkpt lat="45.60911" lon="2.22737">
        <ele>751</ele>
        <time>2019-05-18T16:01:58Z</time>
      </trkpt>
      <trkpt lat="45.60911" lon="2.22739">
        <ele>751</ele>
        <time>2019-05-18T16:01:59Z</time>
      </trkpt>
      <trkpt lat="45.60911" lon="2.2274">
        <ele>751</ele>
        <time>2019-05-18T16:02:00Z</time>
      </trkpt>
      <trkpt lat="45.60911" lon="2.22741">
        <ele>751</ele>
        <time>2019-05-18T16:02:01Z</time>
      </trkpt>
      <trkpt lat="45.60911" lon="2.22742">
        <ele>752</ele>
        <time>2019-05-18T16:02:02Z</time>
      </trkpt>
      <trkpt lat="45.60912" lon="2.22744">
        <ele>752</ele>
        <time>2019-05-18T16:02:03Z</time>
      </trkpt>
      <trkpt lat="45.60913" lon="2.22746">
        <ele>752</ele>
        <time>2019-05-18T16:02:04Z</time>
      </trkpt>
      <trkpt lat="45.60912" lon="2.22747">
        <ele>752</ele>
        <time>2019-05-18T16:02:05Z</time>
      </trkpt>
      <trkpt lat="45.60912" lon="2.22749">
        <ele>752</ele>
        <time>2019-05-18T16:02:06Z</time>
      </trkpt>
      <trkpt lat="45.60913" lon="2.22752">
        <ele>752</ele>
        <time>2019-05-18T16:02:07Z</time>
      </trkpt>
      <trkpt lat="45.60914" lon="2.22754">
        <ele>753</ele>
        <time>2019-05-18T16:02:08Z</time>
      </trkpt>
      <trkpt lat="45.60914" lon="2.22755">
        <ele>753</ele>
        <time>2019-05-18T16:02:09Z</time>
      </trkpt>
      <trkpt lat="45.60915" lon="2.22757">
        <ele>753</ele>
        <time>2019-05-18T16:02:10Z</time>
      </trkpt>
      <trkpt lat="45.60916" lon="2.22759">
        <ele>753</ele>
        <time>2019-05-18T16:02:11Z</time>
      </trkpt>
      <trkpt lat="45.60916" lon="2.22761">
        <ele>753</ele>
        <time>2019-05-18T16:02:12Z</time>
      </trkpt>
      <trkpt lat="45.60916" lon="2.22762">
        <ele>753</ele>
        <time>2019-05-18T16:02:13Z</time>
      </trkpt>
      <trkpt lat="45.60916" lon="2.22765">
        <ele>753</ele>
        <time>2019-05-18T16:02:14Z</time>
      </trkpt>
      <trkpt lat="45.60916" lon="2.22767">
        <ele>754</ele>
        <time>2019-05-18T16:02:15Z</time>
      </trkpt>
      <trkpt lat="45.60916" lon="2.22769">
        <ele>754</ele>
        <time>2019-05-18T16:02:16Z</time>
      </trkpt>
      <trkpt lat="45.60917" lon="2.2277">
        <ele>754</ele>
        <time>2019-05-18T16:02:17Z</time>
      </trkpt>
      <trkpt lat="45.60917" lon="2.22772">
        <ele>754</ele>
        <time>2019-05-18T16:02:18Z</time>
      </trkpt>
      <trkpt lat="45.60918" lon="2.22773">
        <ele>754</ele>
        <time>2019-05-18T16:02:19Z</time>
      </trkpt>
      <trkpt lat="45.60918" lon="2.22775">
        <ele>755</ele>
        <time>2019-05-18T16:02:20Z</time>
      </trkpt>
      <trkpt lat="45.60919" lon="2.22777">
        <ele>755</ele>
        <time>2019-05-18T16:02:21Z</time>
      </trkpt>
      <trkpt lat="45.60919" lon="2.22778">
        <ele>755</ele>
        <time>2019-05-18T16:02:22Z</time>
      </trkpt>
      <trkpt lat="45.6092" lon="2.2278">
        <ele>755</ele>
        <time>2019-05-18T16:02:23Z</time>
      </trkpt>
      <trkpt lat="45.6092" lon="2.22783">
        <ele>755</ele>
        <time>2019-05-18T16:02:24Z</time>
      </trkpt>
      <trkpt lat="45.6092" lon="2.22785">
        <ele>755</ele>
        <time>2019-05-18T16:02:25Z</time>
      </trkpt>
      <trkpt lat="45.60919" lon="2.22787">
        <ele>756</ele>
        <time>2019-05-18T16:02:26Z</time>
      </trkpt>
      <trkpt lat="45.6092" lon="2.22789">
        <ele>756</ele>
        <time>2019-05-18T16:02:27Z</time>
      </trkpt>
      <trkpt lat="45.60921" lon="2.22792">
        <ele>756</ele>
        <time>2019-05-18T16:02:28Z</time>
      </trkpt>
      <trkpt lat="45.60921" lon="2.22795">
        <ele>756</ele>
        <time>2019-05-18T16:02:29Z</time>
      </trkpt>
      <trkpt lat="45.60921" lon="2.22797">
        <ele>756</ele>
        <time>2019-05-18T16:02:30Z</time>
      </trkpt>
      <trkpt lat="45.60923" lon="2.22799">
        <ele>756</ele>
        <time>2019-05-18T16:02:31Z</time>
      </trkpt>
      <trkpt lat="45.60923" lon="2.22801">
        <ele>757</ele>
        <time>2019-05-18T16:02:32Z</time>
      </trkpt>
      <trkpt lat="45.60923" lon="2.22803">
        <ele>757</ele>
        <time>2019-05-18T16:02:33Z</time>
      </trkpt>
      <trkpt lat="45.60923" lon="2.22805">
        <ele>757</ele>
        <time>2019-05-18T16:02:34Z</time>
      </trkpt>
      <trkpt lat="45.60923" lon="2.22807">
        <ele>757</ele>
        <time>2019-05-18T16:02:35Z</time>
      </trkpt>
      <trkpt lat="45.60923" lon="2.22808">
        <ele>757</ele>
        <time>2019-05-18T16:02:36Z</time>
      </trkpt>
      <trkpt lat="45.60923" lon="2.2281">
        <ele>757</ele>
        <time>2019-05-18T16:02:37Z</time>
      </trkpt>
      <trkpt lat="45.60923" lon="2.22812">
        <ele>758</ele>
        <time>2019-05-18T16:02:38Z</time>
      </trkpt>
      <trkpt lat="45.60923" lon="2.22814">
        <ele>758</ele>
        <time>2019-05-18T16:02:39Z</time>
      </trkpt>
      <trkpt lat="45.60923" lon="2.22815">
        <ele>758</ele>
        <time>2019-05-18T16:02:40Z</time>
      </trkpt>
      <trkpt lat="45.60923" lon="2.22816">
        <ele>758</ele>
        <time>2019-05-18T16:02:41Z</time>
      </trkpt>
      <trkpt lat="45.60922" lon="2.22818">
        <ele>759</ele>
        <time>2019-05-18T16:02:42Z</time>
      </trkpt>
      <trkpt lat="45.60922" lon="2.2282">
        <ele>759</ele>
        <time>2019-05-18T16:02:43Z</time>
      </trkpt>
      <trkpt lat="45.60922" lon="2.22822">
        <ele>759</ele>
        <time>2019-05-18T16:02:44Z</time>
      </trkpt>
      <trkpt lat="45.60922" lon="2.22824">
        <ele>759</ele>
        <time>2019-05-18T16:02:45Z</time>
      </trkpt>
      <trkpt lat="45.60921" lon="2.22825">
        <ele>759</ele>
        <time>2019-05-18T16:02:46Z</time>
      </trkpt>
      <trkpt lat="45.60922" lon="2.22826">
        <ele>759</ele>
        <time>2019-05-18T16:02:47Z</time>
      </trkpt>
      <trkpt lat="45.60922" lon="2.22827">
        <ele>760</ele>
        <time>2019-05-18T16:02:48Z</time>
      </trkpt>
      <trkpt lat="45.60921" lon="2.22829">
        <ele>760</ele>
        <time>2019-05-18T16:02:49Z</time>
      </trkpt>
      <trkpt lat="45.60921" lon="2.22831">
        <ele>760</ele>
        <time>2019-05-18T16:02:50Z</time>
      </trkpt>
      <trkpt lat="45.60921" lon="2.22832">
        <ele>760</ele>
        <time>2019-05-18T16:02:51Z</time>
      </trkpt>
      <trkpt lat="45.60921" lon="2.22835">
        <ele>760</ele>
        <time>2019-05-18T16:02:52Z</time>
      </trkpt>
      <trkpt lat="45.60921" lon="2.22836">
        <ele>761</ele>
        <time>2019-05-18T16:02:53Z</time>
      </trkpt>
      <trkpt lat="45.60921" lon="2.22837">
        <ele>761</ele>
        <time>2019-05-18T16:02:54Z</time>
      </trkpt>
      <trkpt lat="45.60921" lon="2.22839">
        <ele>761</ele>
        <time>2019-05-18T16:02:55Z</time>
      </trkpt>
      <trkpt lat="45.60921" lon="2.2284">
        <ele>761</ele>
        <time>2019-05-18T16:02:56Z</time>
      </trkpt>
      <trkpt lat="45.60921" lon="2.22842">
        <ele>761</ele>
        <time>2019-05-18T16:02:57Z</time>
      </trkpt>
      <trkpt lat="45.60921" lon="2.22844">
        <ele>761</ele>
        <time>2019-05-18T16:02:58Z</time>
      </trkpt>
      <trkpt lat="45.6092" lon="2.22845">
        <ele>762</ele>
        <time>2019-05-18T16:02:59Z</time>
      </trkpt>
      <trkpt lat="45.6092" lon="2.22847">
        <ele>762</ele>
        <time>2019-05-18T16:03:00Z</time>
      </trkpt>
      <trkpt lat="45.6092" lon="2.22849">
        <ele>762</ele>
        <time>2019-05-18T16:03:01Z</time>
      </trkpt>
      <trkpt lat="45.6092" lon="2.22851">
        <ele>762</ele>
        <time>2019-05-18T16:03:02Z</time>
      </trkpt>
      <trkpt lat="45.60919" lon="2.22854">
        <ele>762</ele>
        <time>2019-05-18T16:03:03Z</time>
      </trkpt>
      <trkpt lat="45.60919" lon="2.22856">
        <ele>762</ele>
        <time>2019-05-18T16:03:04Z</time>
      </trkpt>
      <trkpt lat="45.60918" lon="2.22856">
        <ele>763</ele>
        <time>2019-05-18T16:03:05Z</time>
      </trkpt>
      <trkpt lat="45.60918" lon="2.22858">
        <ele>763</ele>
        <time>2019-05-18T16:03:06Z</time>
      </trkpt>
      <trkpt lat="45.60918" lon="2.2286">
        <ele>763</ele>
        <time>2019-05-18T16:03:07Z</time>
      </trkpt>
      <trkpt lat="45.60918" lon="2.22862">
        <ele>763</ele>
        <time>2019-05-18T16:03:08Z</time>
      </trkpt>
      <trkpt lat="45.60917" lon="2.22864">
        <ele>763</ele>
        <time>2019-05-18T16:03:09Z</time>
      </trkpt>
      <trkpt lat="45.60917" lon="2.22866">
        <ele>763</ele>
        <time>2019-05-18T16:03:10Z</time>
      </trkpt>
      <trkpt lat="45.60917" lon="2.22867">
        <ele>763</ele>
        <time>2019-05-18T16:03:11Z</time>
      </trkpt>
      <trkpt lat="45.60916" lon="2.22869">
        <ele>764</ele>
        <time>2019-05-18T16:03:12Z</time>
      </trkpt>
      <trkpt lat="45.60915" lon="2.22871">
        <ele>764</ele>
        <time>2019-05-18T16:03:13Z</time>
      </trkpt>
      <trkpt lat="45.60915" lon="2.22873">
        <ele>764</ele>
        <time>2019-05-18T16:03:14Z</time>
      </trkpt>
      <trkpt lat="45.60914" lon="2.22874">
        <ele>764</ele>
        <time>2019-05-18T16:03:15Z</time>
      </trkpt>
      <trkpt lat="45.60914" lon="2.22876">
        <ele>764</ele>
        <time>2019-05-18T16:03:16Z</time>
      </trkpt>
      <trkpt lat="45.60913" lon="2.22877">
        <ele>764</ele>
        <time>2019-05-18T16:03:17Z</time>
      </trkpt>
      <trkpt lat="45.60913" lon="2.22879">
        <ele>765</ele>
        <time>2019-05-18T16:03:18Z</time>
      </trkpt>
      <trkpt lat="45.60912" lon="2.22881">
        <ele>765</ele>
        <time>2019-05-18T16:03:19Z</time>
      </trkpt>
      <trkpt lat="45.60912" lon="2.22882">
        <ele>765</ele>
        <time>2019-05-18T16:03:20Z</time>
      </trkpt>
      <trkpt lat="45.60912" lon="2.22885">
        <ele>765</ele>
        <time>2019-05-18T16:03:21Z</time>
      </trkpt>
      <trkpt lat="45.60911" lon="2.22887">
        <ele>765</ele>
        <time>2019-05-18T16:03:22Z</time>
      </trkpt>
      <trkpt lat="45.60911" lon="2.22889">
        <ele>766</ele>
        <time>2019-05-18T16:03:23Z</time>
      </trkpt>
      <trkpt lat="45.6091" lon="2.22891">
        <ele>766</ele>
        <time>2019-05-18T16:03:24Z</time>
      </trkpt>
      <trkpt lat="45.60909" lon="2.22893">
        <ele>766</ele>
        <time>2019-05-18T16:03:25Z</time>
      </trkpt>
      <trkpt lat="45.60909" lon="2.22894">
        <ele>766</ele>
        <time>2019-05-18T16:03:26Z</time>
      </trkpt>
      <trkpt lat="45.60908" lon="2.22895">
        <ele>766</ele>
        <time>2019-05-18T16:03:27Z</time>
      </trkpt>
      <trkpt lat="45.60908" lon="2.22897">
        <ele>767</ele>
        <time>2019-05-18T16:03:28Z</time>
      </trkpt>
      <trkpt lat="45.60907" lon="2.22899">
        <ele>767</ele>
        <time>2019-05-18T16:03:29Z</time>
      </trkpt>
      <trkpt lat="45.60907" lon="2.229">
        <ele>767</ele>
        <time>2019-05-18T16:03:30Z</time>
      </trkpt>
      <trkpt lat="45.60906" lon="2.22902">
        <ele>767</ele>
        <time>2019-05-18T16:03:31Z</time>
      </trkpt>
      <trkpt lat="45.60905" lon="2.22903">
        <ele>767</ele>
        <time>2019-05-18T16:03:32Z</time>
      </trkpt>
      <trkpt lat="45.60904" lon="2.22905">
        <ele>768</ele>
        <time>2019-05-18T16:03:33Z</time>
      </trkpt>
      <trkpt lat="45.60904" lon="2.22906">
        <ele>768</ele>
        <time>2019-05-18T16:03:34Z</time>
      </trkpt>
      <trkpt lat="45.60903" lon="2.22907">
        <ele>768</ele>
        <time>2019-05-18T16:03:35Z</time>
      </trkpt>
      <trkpt lat="45.60902" lon="2.22908">
        <ele>768</ele>
        <time>2019-05-18T16:03:36Z</time>
      </trkpt>
      <trkpt lat="45.60901" lon="2.2291">
        <ele>768</ele>
        <time>2019-05-18T16:03:37Z</time>
      </trkpt>
      <trkpt lat="45.609" lon="2.22912">
        <ele>768</ele>
        <time>2019-05-18T16:03:38Z</time>
      </trkpt>
      <trkpt lat="45.609" lon="2.22912">
        <ele>769</ele>
        <time>2019-05-18T16:03:39Z</time>
      </trkpt>
      <trkpt lat="45.60899" lon="2.22914">
        <ele>769</ele>
        <time>2019-05-18T16:03:40Z</time>
      </trkpt>
      <trkpt lat="45.60898" lon="2.22916">
        <ele>769</ele>
        <time>2019-05-18T16:03:41Z</time>
      </trkpt>
      <trkpt lat="45.60897" lon="2.22918">
        <ele>769</ele>
        <time>2019-05-18T16:03:42Z</time>
      </trkpt>
      <trkpt lat="45.60896" lon="2.2292">
        <ele>769</ele>
        <time>2019-05-18T16:03:43Z</time>
      </trkpt>
      <trkpt lat="45.60895" lon="2.22921">
        <ele>769</ele>
        <time>2019-05-18T16:03:44Z</time>
      </trkpt>
      <trkpt lat="45.60894" lon="2.22922">
        <ele>770</ele>
        <time>2019-05-18T16:03:45Z</time>
      </trkpt>
      <trkpt lat="45.60894" lon="2.22924">
        <ele>770</ele>
        <time>2019-05-18T16:03:46Z</time>
      </trkpt>
      <trkpt lat="45.60893" lon="2.22925">
        <ele>770</ele>
        <time>2019-05-18T16:03:47Z</time>
      </trkpt>
      <trkpt lat="45.60892" lon="2.22927">
        <ele>770</ele>
        <time>2019-05-18T16:03:48Z</time>
      </trkpt>
      <trkpt lat="45.60891" lon="2.22928">
        <ele>770</ele>
        <time>2019-05-18T16:03:49Z</time>
      </trkpt>
      <trkpt lat="45.6089" lon="2.22929">
        <ele>771</ele>
        <time>2019-05-18T16:03:50Z</time>
      </trkpt>
      <trkpt lat="45.60889" lon="2.2293">
        <ele>771</ele>
        <time>2019-05-18T16:03:51Z</time>
      </trkpt>
      <trkpt lat="45.60888" lon="2.22931">
        <ele>771</ele>
        <time>2019-05-18T16:03:52Z</time>
      </trkpt>
      <trkpt lat="45.60887" lon="2.22933">
        <ele>771</ele>
        <time>2019-05-18T16:03:53Z</time>
      </trkpt>
      <trkpt lat="45.60886" lon="2.22934">
        <ele>771</ele>
        <time>2019-05-18T16:03:54Z</time>
      </trkpt>
      <trkpt lat="45.60886" lon="2.22935">
        <ele>772</ele>
        <time>2019-05-18T16:03:55Z</time>
      </trkpt>
      <trkpt lat="45.60885" lon="2.22937">
        <ele>772</ele>
        <time>2019-05-18T16:03:56Z</time>
      </trkpt>
      <trkpt lat="45.60884" lon="2.22939">
        <ele>772</ele>
        <time>2019-05-18T16:03:57Z</time>
      </trkpt>
      <trkpt lat="45.60883" lon="2.22941">
        <ele>772</ele>
        <time>2019-05-18T16:03:58Z</time>
      </trkpt>
      <trkpt lat="45.60882" lon="2.22943">
        <ele>772</ele>
        <time>2019-05-18T16:03:59Z</time>
      </trkpt>
      <trkpt lat="45.60882" lon="2.22944">
        <ele>772</ele>
        <time>2019-05-18T16:04:00Z</time>
      </trkpt>
      <trkpt lat="45.60881" lon="2.22946">
        <ele>772</ele>
        <time>2019-05-18T16:04:01Z</time>
      </trkpt>
      <trkpt lat="45.6088" lon="2.22947">
        <ele>773</ele>
        <time>2019-05-18T16:04:02Z</time>
      </trkpt>
      <trkpt lat="45.60879" lon="2.2295">
        <ele>773</ele>
        <time>2019-05-18T16:04:03Z</time>
      </trkpt>
      <trkpt lat="45.60877" lon="2.22952">
        <ele>773</ele>
        <time>2019-05-18T16:04:04Z</time>
      </trkpt>
      <trkpt lat="45.60876" lon="2.22953">
        <ele>773</ele>
        <time>2019-05-18T16:04:05Z</time>
      </trkpt>
      <trkpt lat="45.60875" lon="2.22955">
        <ele>773</ele>
        <time>2019-05-18T16:04:06Z</time>
      </trkpt>
      <trkpt lat="45.60874" lon="2.22956">
        <ele>773</ele>
        <time>2019-05-18T16:04:07Z</time>
      </trkpt>
      <trkpt lat="45.60873" lon="2.22957">
        <ele>773</ele>
        <time>2019-05-18T16:04:08Z</time>
      </trkpt>
      <trkpt lat="45.60872" lon="2.22958">
        <ele>774</ele>
        <time>2019-05-18T16:04:09Z</time>
      </trkpt>
      <trkpt lat="45.60871" lon="2.2296">
        <ele>774</ele>
        <time>2019-05-18T16:04:10Z</time>
      </trkpt>
      <trkpt lat="45.60871" lon="2.22961">
        <ele>774</ele>
        <time>2019-05-18T16:04:11Z</time>
      </trkpt>
      <trkpt lat="45.6087" lon="2.22963">
        <ele>774</ele>
        <time>2019-05-18T16:04:12Z</time>
      </trkpt>
      <trkpt lat="45.60869" lon="2.22964">
        <ele>774</ele>
        <time>2019-05-18T16:04:13Z</time>
      </trkpt>
      <trkpt lat="45.60868" lon="2.22965">
        <ele>774</ele>
        <time>2019-05-18T16:04:14Z</time>
      </trkpt>
      <trkpt lat="45.60867" lon="2.22967">
        <ele>774</ele>
        <time>2019-05-18T16:04:15Z</time>
      </trkpt>
      <trkpt lat="45.60866" lon="2.22968">
        <ele>775</ele>
        <time>2019-05-18T16:04:16Z</time>
      </trkpt>
      <trkpt lat="45.60865" lon="2.22969">
        <ele>775</ele>
        <time>2019-05-18T16:04:17Z</time>
      </trkpt>
      <trkpt lat="45.60863" lon="2.2297">
        <ele>775</ele>
        <time>2019-05-18T16:04:18Z</time>
      </trkpt>
      <trkpt lat="45.60862" lon="2.2297">
        <ele>775</ele>
        <time>2019-05-18T16:04:19Z</time>
      </trkpt>
      <trkpt lat="45.60861" lon="2.2297">
        <ele>775</ele>
        <time>2019-05-18T16:04:20Z</time>
      </trkpt>
      <trkpt lat="45.6086" lon="2.22971">
        <ele>775</ele>
        <time>2019-05-18T16:04:21Z</time>
      </trkpt>
      <trkpt lat="45.60859" lon="2.22971">
        <ele>776</ele>
        <time>2019-05-18T16:04:22Z</time>
      </trkpt>
      <trkpt lat="45.60858" lon="2.22973">
        <ele>776</ele>
        <time>2019-05-18T16:04:23Z</time>
      </trkpt>
      <trkpt lat="45.60857" lon="2.22974">
        <ele>776</ele>
        <time>2019-05-18T16:04:24Z</time>
      </trkpt>
      <trkpt lat="45.60856" lon="2.22975">
        <ele>776</ele>
        <time>2019-05-18T16:04:25Z</time>
      </trkpt>
      <trkpt lat="45.60855" lon="2.22977">
        <ele>776</ele>
        <time>2019-05-18T16:04:26Z</time>
      </trkpt>
      <trkpt lat="45.60853" lon="2.22978">
        <ele>776</ele>
        <time>2019-05-18T16:04:27Z</time>
      </trkpt>
      <trkpt lat="45.60852" lon="2.22979">
        <ele>776</ele>
        <time>2019-05-18T16:04:28Z</time>
      </trkpt>
      <trkpt lat="45.60851" lon="2.2298">
        <ele>777</ele>
        <time>2019-05-18T16:04:29Z</time>
      </trkpt>
      <trkpt lat="45.60849" lon="2.2298">
        <ele>777</ele>
        <time>2019-05-18T16:04:30Z</time>
      </trkpt>
      <trkpt lat="45.60848" lon="2.2298">
        <ele>777</ele>
        <time>2019-05-18T16:04:31Z</time>
      </trkpt>
      <trkpt lat="45.60847" lon="2.22982">
        <ele>777</ele>
        <time>2019-05-18T16:04:32Z</time>
      </trkpt>
      <trkpt lat="45.60845" lon="2.22984">
        <ele>777</ele>
        <time>2019-05-18T16:04:33Z</time>
      </trkpt>
      <trkpt lat="45.60844" lon="2.22985">
        <ele>777</ele>
        <time>2019-05-18T16:04:34Z</time>
      </trkpt>
      <trkpt lat="45.60843" lon="2.22986">
        <ele>777</ele>
        <time>2019-05-18T16:04:35Z</time>
      </trkpt>
      <trkpt lat="45.60841" lon="2.22986">
        <ele>778</ele>
        <time>2019-05-18T16:04:36Z</time>
      </trkpt>
      <trkpt lat="45.6084" lon="2.22988">
        <ele>778</ele>
        <time>2019-05-18T16:04:37Z</time>
      </trkpt>
      <trkpt lat="45.6084" lon="2.22988">
        <ele>778</ele>
        <time>2019-05-18T16:04:38Z</time>
      </trkpt>
      <trkpt lat="45.60839" lon="2.22989">
        <ele>778</ele>
        <time>2019-05-18T16:04:39Z</time>
      </trkpt>
      <trkpt lat="45.60838" lon="2.2299">
        <ele>778</ele>
        <time>2019-05-18T16:04:40Z</time>
      </trkpt>
      <trkpt lat="45.60837" lon="2.2299">
        <ele>778</ele>
        <time>2019-05-18T16:04:41Z</time>
      </trkpt>
      <trkpt lat="45.60836" lon="2.22991">
        <ele>779</ele>
        <time>2019-05-18T16:04:42Z</time>
      </trkpt>
      <trkpt lat="45.60835" lon="2.22992">
        <ele>779</ele>
        <time>2019-05-18T16:04:43Z</time>
      </trkpt>
      <trkpt lat="45.60833" lon="2.22993">
        <ele>779</ele>
        <time>2019-05-18T16:04:44Z</time>
      </trkpt>
      <trkpt lat="45.60832" lon="2.22994">
        <ele>779</ele>
        <time>2019-05-18T16:04:45Z</time>
      </trkpt>
      <trkpt lat="45.60831" lon="2.22995">
        <ele>779</ele>
        <time>2019-05-18T16:04:46Z</time>
      </trkpt>
      <trkpt lat="45.60829" lon="2.22995">
        <ele>779</ele>
        <time>2019-05-18T16:04:47Z</time>
      </trkpt>
      <trkpt lat="45.60828" lon="2.22996">
        <ele>779</ele>
        <time>2019-05-18T16:04:48Z</time>
      </trkpt>
      <trkpt lat="45.60827" lon="2.22997">
        <ele>780</ele>
        <time>2019-05-18T16:04:49Z</time>
      </trkpt>
      <trkpt lat="45.60826" lon="2.22997">
        <ele>780</ele>
        <time>2019-05-18T16:04:50Z</time>
      </trkpt>
      <trkpt lat="45.60824" lon="2.22999">
        <ele>780</ele>
        <time>2019-05-18T16:04:51Z</time>
      </trkpt>
      <trkpt lat="45.60823" lon="2.23">
        <ele>780</ele>
        <time>2019-05-18T16:04:52Z</time>
      </trkpt>
      <trkpt lat="45.60822" lon="2.23">
        <ele>780</ele>
        <time>2019-05-18T16:04:53Z</time>
      </trkpt>
      <trkpt lat="45.60821" lon="2.23">
        <ele>780</ele>
        <time>2019-05-18T16:04:54Z</time>
      </trkpt>
      <trkpt lat="45.6082" lon="2.23001">
        <ele>780</ele>
        <time>2019-05-18T16:04:55Z</time>
      </trkpt>
      <trkpt lat="45.60818" lon="2.23001">
        <ele>780</ele>
        <time>2019-05-18T16:04:56Z</time>
      </trkpt>
      <trkpt lat="45.60817" lon="2.23002">
        <ele>781</ele>
        <time>2019-05-18T16:04:57Z</time>
      </trkpt>
      <trkpt lat="45.60817" lon="2.23003">
        <ele>781</ele>
        <time>2019-05-18T16:04:58Z</time>
      </trkpt>
      <trkpt lat="45.60816" lon="2.23002">
        <ele>781</ele>
        <time>2019-05-18T16:04:59Z</time>
      </trkpt>
      <trkpt lat="45.60815" lon="2.23003">
        <ele>781</ele>
        <time>2019-05-18T16:05:00Z</time>
      </trkpt>
      <trkpt lat="45.60812" lon="2.23004">
        <ele>781</ele>
        <time>2019-05-18T16:05:01Z</time>
      </trkpt>
      <trkpt lat="45.60811" lon="2.23005">
        <ele>781</ele>
        <time>2019-05-18T16:05:02Z</time>
      </trkpt>
      <trkpt lat="45.60809" lon="2.23006">
        <ele>781</ele>
        <time>2019-05-18T16:05:03Z</time>
      </trkpt>
      <trkpt lat="45.60808" lon="2.23007">
        <ele>782</ele>
        <time>2019-05-18T16:05:04Z</time>
      </trkpt>
      <trkpt lat="45.60806" lon="2.23008">
        <ele>782</ele>
        <time>2019-05-18T16:05:05Z</time>
      </trkpt>
      <trkpt lat="45.60805" lon="2.2301">
        <ele>782</ele>
        <time>2019-05-18T16:05:06Z</time>
      </trkpt>
      <trkpt lat="45.60803" lon="2.23011">
        <ele>782</ele>
        <time>2019-05-18T16:05:07Z</time>
      </trkpt>
      <trkpt lat="45.60802" lon="2.23012">
        <ele>782</ele>
        <time>2019-05-18T16:05:08Z</time>
      </trkpt>
      <trkpt lat="45.60801" lon="2.23013">
        <ele>782</ele>
        <time>2019-05-18T16:05:09Z</time>
      </trkpt>
      <trkpt lat="45.608" lon="2.23015">
        <ele>782</ele>
        <time>2019-05-18T16:05:10Z</time>
      </trkpt>
      <trkpt lat="45.608" lon="2.23016">
        <ele>782</ele>
        <time>2019-05-18T16:05:11Z</time>
      </trkpt>
      <trkpt lat="45.60798" lon="2.23016">
        <ele>783</ele>
        <time>2019-05-18T16:05:12Z</time>
      </trkpt>
      <trkpt lat="45.60796" lon="2.23017">
        <ele>783</ele>
        <time>2019-05-18T16:05:13Z</time>
      </trkpt>
      <trkpt lat="45.60795" lon="2.23017">
        <ele>783</ele>
        <time>2019-05-18T16:05:14Z</time>
      </trkpt>
      <trkpt lat="45.60793" lon="2.23019">
        <ele>783</ele>
        <time>2019-05-18T16:05:15Z</time>
      </trkpt>
      <trkpt lat="45.60792" lon="2.2302">
        <ele>783</ele>
        <time>2019-05-18T16:05:16Z</time>
      </trkpt>
      <trkpt lat="45.60791" lon="2.23021">
        <ele>783</ele>
        <time>2019-05-18T16:05:17Z</time>
      </trkpt>
      <trkpt lat="45.60789" lon="2.23023">
        <ele>783</ele>
        <time>2019-05-18T16:05:18Z</time>
      </trkpt>
      <trkpt lat="45.60787" lon="2.23024">
        <ele>783</ele>
        <time>2019-05-18T16:05:19Z</time>
      </trkpt>
      <trkpt lat="45.60786" lon="2.23025">
        <ele>783</ele>
        <time>2019-05-18T16:05:20Z</time>
      </trkpt>
      <trkpt lat="45.60785" lon="2.23027">
        <ele>783</ele>
        <time>2019-05-18T16:05:21Z</time>
      </trkpt>
      <trkpt lat="45.60784" lon="2.23028">
        <ele>784</ele>
        <time>2019-05-18T16:05:22Z</time>
      </trkpt>
      <trkpt lat="45.60783" lon="2.23029">
        <ele>784</ele>
        <time>2019-05-18T16:05:23Z</time>
      </trkpt>
      <trkpt lat="45.60781" lon="2.2303">
        <ele>784</ele>
        <time>2019-05-18T16:05:24Z</time>
      </trkpt>
      <trkpt lat="45.60779" lon="2.23032">
        <ele>784</ele>
        <time>2019-05-18T16:05:25Z</time>
      </trkpt>
      <trkpt lat="45.60778" lon="2.23034">
        <ele>784</ele>
        <time>2019-05-18T16:05:26Z</time>
      </trkpt>
      <trkpt lat="45.60777" lon="2.23035">
        <ele>784</ele>
        <time>2019-05-18T16:05:27Z</time>
      </trkpt>
      <trkpt lat="45.60776" lon="2.23038">
        <ele>784</ele>
        <time>2019-05-18T16:05:28Z</time>
      </trkpt>
      <trkpt lat="45.60775" lon="2.23039">
        <ele>784</ele>
        <time>2019-05-18T16:05:29Z</time>
      </trkpt>
      <trkpt lat="45.60773" lon="2.23042">
        <ele>784</ele>
        <time>2019-05-18T16:05:30Z</time>
      </trkpt>
      <trkpt lat="45.60772" lon="2.23044">
        <ele>784</ele>
        <time>2019-05-18T16:05:31Z</time>
      </trkpt>
      <trkpt lat="45.60771" lon="2.23046">
        <ele>785</ele>
        <time>2019-05-18T16:05:32Z</time>
      </trkpt>
      <trkpt lat="45.60771" lon="2.23048">
        <ele>785</ele>
        <time>2019-05-18T16:05:33Z</time>
      </trkpt>
      <trkpt lat="45.60771" lon="2.2305">
        <ele>785</ele>
        <time>2019-05-18T16:05:34Z</time>
      </trkpt>
      <trkpt lat="45.60771" lon="2.23052">
        <ele>785</ele>
        <time>2019-05-18T16:05:35Z</time>
      </trkpt>
      <trkpt lat="45.6077" lon="2.23053">
        <ele>786</ele>
        <time>2019-05-18T16:05:36Z</time>
      </trkpt>
      <trkpt lat="45.6077" lon="2.23055">
        <ele>786</ele>
        <time>2019-05-18T16:05:37Z</time>
      </trkpt>
      <trkpt lat="45.6077" lon="2.23057">
        <ele>786</ele>
        <time>2019-05-18T16:05:38Z</time>
      </trkpt>
      <trkpt lat="45.6077" lon="2.23059">
        <ele>786</ele>
        <time>2019-05-18T16:05:39Z</time>
      </trkpt>
      <trkpt lat="45.60771" lon="2.2306">
        <ele>786</ele>
        <time>2019-05-18T16:05:40Z</time>
      </trkpt>
      <trkpt lat="45.60771" lon="2.23062">
        <ele>787</ele>
        <time>2019-05-18T16:05:41Z</time>
      </trkpt>
      <trkpt lat="45.6077" lon="2.23063">
        <ele>787</ele>
        <time>2019-05-18T16:05:42Z</time>
      </trkpt>
      <trkpt lat="45.6077" lon="2.23065">
        <ele>787</ele>
        <time>2019-05-18T16:05:43Z</time>
      </trkpt>
      <trkpt lat="45.60768" lon="2.23065">
        <ele>787</ele>
        <time>2019-05-18T16:05:44Z</time>
      </trkpt>
      <trkpt lat="45.60767" lon="2.23067">
        <ele>787</ele>
        <time>2019-05-18T16:05:45Z</time>
      </trkpt>
      <trkpt lat="45.60767" lon="2.2307">
        <ele>787</ele>
        <time>2019-05-18T16:05:46Z</time>
      </trkpt>
      <trkpt lat="45.60766" lon="2.23072">
        <ele>788</ele>
        <time>2019-05-18T16:05:47Z</time>
      </trkpt>
      <trkpt lat="45.60766" lon="2.23075">
        <ele>788</ele>
        <time>2019-05-18T16:05:48Z</time>
      </trkpt>
      <trkpt lat="45.60765" lon="2.23077">
        <ele>788</ele>
        <time>2019-05-18T16:05:49Z</time>
      </trkpt>
      <trkpt lat="45.60764" lon="2.2308">
        <ele>788</ele>
        <time>2019-05-18T16:05:50Z</time>
      </trkpt>
      <trkpt lat="45.60764" lon="2.23081">
        <ele>788</ele>
        <time>2019-05-18T16:05:51Z</time>
      </trkpt>
      <trkpt lat="45.60764" lon="2.23084">
        <ele>788</ele>
        <time>2019-05-18T16:05:52Z</time>
      </trkpt>
      <trkpt lat="45.60764" lon="2.23086">
        <ele>788</ele>
        <time>2019-05-18T16:05:53Z</time>
      </trkpt>
      <trkpt lat="45.60764" lon="2.23088">
        <ele>788</ele>
        <time>2019-05-18T16:05:54Z</time>
      </trkpt>
      <trkpt lat="45.60764" lon="2.23092">
        <ele>788</ele>
        <time>2019-05-18T16:05:55Z</time>
      </trkpt>
      <trkpt lat="45.60763" lon="2.23094">
        <ele>789</ele>
        <time>2019-05-18T16:05:56Z</time>
      </trkpt>
      <trkpt lat="45.60763" lon="2.23097">
        <ele>789</ele>
        <time>2019-05-18T16:05:57Z</time>
      </trkpt>
      <trkpt lat="45.60762" lon="2.23099">
        <ele>789</ele>
        <time>2019-05-18T16:05:58Z</time>
      </trkpt>
      <trkpt lat="45.60762" lon="2.23102">
        <ele>789</ele>
        <time>2019-05-18T16:05:59Z</time>
      </trkpt>
      <trkpt lat="45.60762" lon="2.23104">
        <ele>789</ele>
        <time>2019-05-18T16:06:00Z</time>
      </trkpt>
      <trkpt lat="45.60761" lon="2.23107">
        <ele>789</ele>
        <time>2019-05-18T16:06:01Z</time>
      </trkpt>
      <trkpt lat="45.60761" lon="2.2311">
        <ele>789</ele>
        <time>2019-05-18T16:06:02Z</time>
      </trkpt>
      <trkpt lat="45.60761" lon="2.23112">
        <ele>789</ele>
        <time>2019-05-18T16:06:03Z</time>
      </trkpt>
      <trkpt lat="45.6076" lon="2.23115">
        <ele>789</ele>
        <time>2019-05-18T16:06:04Z</time>
      </trkpt>
      <trkpt lat="45.60759" lon="2.23118">
        <ele>790</ele>
        <time>2019-05-18T16:06:05Z</time>
      </trkpt>
      <trkpt lat="45.60758" lon="2.2312">
        <ele>790</ele>
        <time>2019-05-18T16:06:06Z</time>
      </trkpt>
      <trkpt lat="45.60758" lon="2.23123">
        <ele>790</ele>
        <time>2019-05-18T16:06:07Z</time>
      </trkpt>
      <trkpt lat="45.60757" lon="2.23125">
        <ele>790</ele>
        <time>2019-05-18T16:06:08Z</time>
      </trkpt>
      <trkpt lat="45.60756" lon="2.23127">
        <ele>790</ele>
        <time>2019-05-18T16:06:09Z</time>
      </trkpt>
      <trkpt lat="45.60755" lon="2.23129">
        <ele>790</ele>
        <time>2019-05-18T16:06:10Z</time>
      </trkpt>
      <trkpt lat="45.60754" lon="2.23131">
        <ele>790</ele>
        <time>2019-05-18T16:06:11Z</time>
      </trkpt>
      <trkpt lat="45.60754" lon="2.23133">
        <ele>790</ele>
        <time>2019-05-18T16:06:12Z</time>
      </trkpt>
      <trkpt lat="45.60753" lon="2.23135">
        <ele>790</ele>
        <time>2019-05-18T16:06:13Z</time>
      </trkpt>
      <trkpt lat="45.60753" lon="2.23137">
        <ele>791</ele>
        <time>2019-05-18T16:06:14Z</time>
      </trkpt>
      <trkpt lat="45.60752" lon="2.2314">
        <ele>791</ele>
        <time>2019-05-18T16:06:15Z</time>
      </trkpt>
      <trkpt lat="45.60752" lon="2.23142">
        <ele>791</ele>
        <time>2019-05-18T16:06:16Z</time>
      </trkpt>
      <trkpt lat="45.60751" lon="2.23145">
        <ele>791</ele>
        <time>2019-05-18T16:06:17Z</time>
      </trkpt>
      <trkpt lat="45.60751" lon="2.23148">
        <ele>791</ele>
        <time>2019-05-18T16:06:18Z</time>
      </trkpt>
      <trkpt lat="45.6075" lon="2.2315">
        <ele>791</ele>
        <time>2019-05-18T16:06:19Z</time>
      </trkpt>
      <trkpt lat="45.60749" lon="2.23153">
        <ele>791</ele>
        <time>2019-05-18T16:06:20Z</time>
      </trkpt>
      <trkpt lat="45.60749" lon="2.23155">
        <ele>791</ele>
        <time>2019-05-18T16:06:21Z</time>
      </trkpt>
      <trkpt lat="45.60748" lon="2.23158">
        <ele>791</ele>
        <time>2019-05-18T16:06:22Z</time>
      </trkpt>
      <trkpt lat="45.60748" lon="2.2316">
        <ele>792</ele>
        <time>2019-05-18T16:06:23Z</time>
      </trkpt>
      <trkpt lat="45.60747" lon="2.23162">
        <ele>792</ele>
        <time>2019-05-18T16:06:24Z</time>
      </trkpt>
      <trkpt lat="45.60746" lon="2.23165">
        <ele>792</ele>
        <time>2019-05-18T16:06:25Z</time>
      </trkpt>
      <trkpt lat="45.60745" lon="2.23167">
        <ele>792</ele>
        <time>2019-05-18T16:06:26Z</time>
      </trkpt>
      <trkpt lat="45.60744" lon="2.23168">
        <ele>792</ele>
        <time>2019-05-18T16:06:27Z</time>
      </trkpt>
      <trkpt lat="45.60744" lon="2.2317">
        <ele>792</ele>
        <time>2019-05-18T16:06:28Z</time>
      </trkpt>
      <trkpt lat="45.60743" lon="2.23172">
        <ele>792</ele>
        <time>2019-05-18T16:06:29Z</time>
      </trkpt>
      <trkpt lat="45.60742" lon="2.23174">
        <ele>792</ele>
        <time>2019-05-18T16:06:30Z</time>
      </trkpt>
      <trkpt lat="45.60741" lon="2.23176">
        <ele>792</ele>
        <time>2019-05-18T16:06:31Z</time>
      </trkpt>
      <trkpt lat="45.6074" lon="2.23178">
        <ele>792</ele>
        <time>2019-05-18T16:06:32Z</time>
      </trkpt>
      <trkpt lat="45.60739" lon="2.2318">
        <ele>793</ele>
        <time>2019-05-18T16:06:33Z</time>
      </trkpt>
      <trkpt lat="45.60738" lon="2.23182">
        <ele>793</ele>
        <time>2019-05-18T16:06:34Z</time>
      </trkpt>
      <trkpt lat="45.60737" lon="2.23184">
        <ele>793</ele>
        <time>2019-05-18T16:06:35Z</time>
      </trkpt>
      <trkpt lat="45.60736" lon="2.23186">
        <ele>793</ele>
        <time>2019-05-18T16:06:36Z</time>
      </trkpt>
      <trkpt lat="45.60734" lon="2.23188">
        <ele>793</ele>
        <time>2019-05-18T16:06:37Z</time>
      </trkpt>
      <trkpt lat="45.60733" lon="2.2319">
        <ele>793</ele>
        <time>2019-05-18T16:06:38Z</time>
      </trkpt>
      <trkpt lat="45.60732" lon="2.23192">
        <ele>793</ele>
        <time>2019-05-18T16:06:39Z</time>
      </trkpt>
      <trkpt lat="45.60731" lon="2.23194">
        <ele>793</ele>
        <time>2019-05-18T16:06:40Z</time>
      </trkpt>
      <trkpt lat="45.6073" lon="2.23196">
        <ele>793</ele>
        <time>2019-05-18T16:06:41Z</time>
      </trkpt>
      <trkpt lat="45.6073" lon="2.23198">
        <ele>794</ele>
        <time>2019-05-18T16:06:42Z</time>
      </trkpt>
      <trkpt lat="45.60729" lon="2.23201">
        <ele>794</ele>
        <time>2019-05-18T16:06:43Z</time>
      </trkpt>
      <trkpt lat="45.60728" lon="2.23203">
        <ele>794</ele>
        <time>2019-05-18T16:06:44Z</time>
      </trkpt>
      <trkpt lat="45.60727" lon="2.23205">
        <ele>794</ele>
        <time>2019-05-18T16:06:45Z</time>
      </trkpt>
      <trkpt lat="45.60726" lon="2.23207">
        <ele>794</ele>
        <time>2019-05-18T16:06:46Z</time>
      </trkpt>
      <trkpt lat="45.60725" lon="2.23209">
        <ele>794</ele>
        <time>2019-05-18T16:06:47Z</time>
      </trkpt>
      <trkpt lat="45.60724" lon="2.23211">
        <ele>794</ele>
        <time>2019-05-18T16:06:48Z</time>
      </trkpt>
      <trkpt lat="45.60723" lon="2.23213">
        <ele>794</ele>
        <time>2019-05-18T16:06:49Z</time>
      </trkpt>
      <trkpt lat="45.60722" lon="2.23214">
        <ele>795</ele>
        <time>2019-05-18T16:06:50Z</time>
      </trkpt>
      <trkpt lat="45.60721" lon="2.23215">
        <ele>795</ele>
        <time>2019-05-18T16:06:51Z</time>
      </trkpt>
      <trkpt lat="45.6072" lon="2.23216">
        <ele>795</ele>
        <time>2019-05-18T16:06:52Z</time>
      </trkpt>
      <trkpt lat="45.6072" lon="2.23217">
        <ele>795</ele>
        <time>2019-05-18T16:06:53Z</time>
      </trkpt>
      <trkpt lat="45.60719" lon="2.23218">
        <ele>795</ele>
        <time>2019-05-18T16:06:54Z</time>
      </trkpt>
      <trkpt lat="45.60718" lon="2.23219">
        <ele>795</ele>
        <time>2019-05-18T16:06:55Z</time>
      </trkpt>
      <trkpt lat="45.60717" lon="2.23221">
        <ele>795</ele>
        <time>2019-05-18T16:06:56Z</time>
      </trkpt>
      <trkpt lat="45.60716" lon="2.23222">
        <ele>795</ele>
        <time>2019-05-18T16:06:57Z</time>
      </trkpt>
      <trkpt lat="45.60715" lon="2.23225">
        <ele>795</ele>
        <time>2019-05-18T16:06:58Z</time>
      </trkpt>
      <trkpt lat="45.60714" lon="2.23227">
        <ele>796</ele>
        <time>2019-05-18T16:06:59Z</time>
      </trkpt>
      <trkpt lat="45.60713" lon="2.23229">
        <ele>796</ele>
        <time>2019-05-18T16:07:00Z</time>
      </trkpt>
      <trkpt lat="45.60712" lon="2.23231">
        <ele>796</ele>
        <time>2019-05-18T16:07:01Z</time>
      </trkpt>
      <trkpt lat="45.60711" lon="2.23234">
        <ele>796</ele>
        <time>2019-05-18T16:07:02Z</time>
      </trkpt>
      <trkpt lat="45.6071" lon="2.23237">
        <ele>796</ele>
        <time>2019-05-18T16:07:03Z</time>
      </trkpt>
      <trkpt lat="45.60709" lon="2.23239">
        <ele>796</ele>
        <time>2019-05-18T16:07:04Z</time>
      </trkpt>
      <trkpt lat="45.60708" lon="2.23241">
        <ele>796</ele>
        <time>2019-05-18T16:07:05Z</time>
      </trkpt>
      <trkpt lat="45.60707" lon="2.23243">
        <ele>796</ele>
        <time>2019-05-18T16:07:06Z</time>
      </trkpt>
      <trkpt lat="45.60707" lon="2.23246">
        <ele>796</ele>
        <time>2019-05-18T16:07:07Z</time>
      </trkpt>
      <trkpt lat="45.60706" lon="2.23249">
        <ele>796</ele>
        <time>2019-05-18T16:07:08Z</time>
      </trkpt>
      <trkpt lat="45.60705" lon="2.23251">
        <ele>796</ele>
        <time>2019-05-18T16:07:09Z</time>
      </trkpt>
      <trkpt lat="45.60704" lon="2.23253">
        <ele>796</ele>
        <time>2019-05-18T16:07:10Z</time>
      </trkpt>
      <trkpt lat="45.60703" lon="2.23255">
        <ele>796</ele>
        <time>2019-05-18T16:07:11Z</time>
      </trkpt>
      <trkpt lat="45.60702" lon="2.23258">
        <ele>796</ele>
        <time>2019-05-18T16:07:12Z</time>
      </trkpt>
      <trkpt lat="45.60702" lon="2.2326">
        <ele>796</ele>
        <time>2019-05-18T16:07:13Z</time>
      </trkpt>
      <trkpt lat="45.60702" lon="2.23263">
        <ele>796</ele>
        <time>2019-05-18T16:07:14Z</time>
      </trkpt>
      <trkpt lat="45.60702" lon="2.23267">
        <ele>796</ele>
        <time>2019-05-18T16:07:15Z</time>
      </trkpt>
      <trkpt lat="45.60701" lon="2.2327">
        <ele>796</ele>
        <time>2019-05-18T16:07:16Z</time>
      </trkpt>
      <trkpt lat="45.60701" lon="2.23273">
        <ele>796</ele>
        <time>2019-05-18T16:07:17Z</time>
      </trkpt>
      <trkpt lat="45.60701" lon="2.23277">
        <ele>796</ele>
        <time>2019-05-18T16:07:18Z</time>
      </trkpt>
      <trkpt lat="45.60701" lon="2.23281">
        <ele>796</ele>
        <time>2019-05-18T16:07:19Z</time>
      </trkpt>
      <trkpt lat="45.60702" lon="2.23284">
        <ele>796</ele>
        <time>2019-05-18T16:07:20Z</time>
      </trkpt>
      <trkpt lat="45.60702" lon="2.23288">
        <ele>796</ele>
        <time>2019-05-18T16:07:21Z</time>
      </trkpt>
      <trkpt lat="45.60703" lon="2.23292">
        <ele>796</ele>
        <time>2019-05-18T16:07:22Z</time>
      </trkpt>
      <trkpt lat="45.60703" lon="2.23295">
        <ele>796</ele>
        <time>2019-05-18T16:07:23Z</time>
      </trkpt>
      <trkpt lat="45.60703" lon="2.23299">
        <ele>796</ele>
        <time>2019-05-18T16:07:24Z</time>
      </trkpt>
      <trkpt lat="45.60704" lon="2.23303">
        <ele>796</ele>
        <time>2019-05-18T16:07:25Z</time>
      </trkpt>
      <trkpt lat="45.60704" lon="2.23307">
        <ele>796</ele>
        <time>2019-05-18T16:07:26Z</time>
      </trkpt>
      <trkpt lat="45.60704" lon="2.23311">
        <ele>796</ele>
        <time>2019-05-18T16:07:27Z</time>
      </trkpt>
      <trkpt lat="45.60704" lon="2.23315">
        <ele>795</ele>
        <time>2019-05-18T16:07:28Z</time>
      </trkpt>
      <trkpt lat="45.60704" lon="2.2332">
        <ele>795</ele>
        <time>2019-05-18T16:07:29Z</time>
      </trkpt>
      <trkpt lat="45.60704" lon="2.23324">
        <ele>795</ele>
        <time>2019-05-18T16:07:30Z</time>
      </trkpt>
      <trkpt lat="45.60704" lon="2.23329">
        <ele>795</ele>
        <time>2019-05-18T16:07:31Z</time>
      </trkpt>
      <trkpt lat="45.60704" lon="2.23334">
        <ele>795</ele>
        <time>2019-05-18T16:07:32Z</time>
      </trkpt>
      <trkpt lat="45.60703" lon="2.23338">
        <ele>795</ele>
        <time>2019-05-18T16:07:33Z</time>
      </trkpt>
      <trkpt lat="45.60703" lon="2.23342">
        <ele>795</ele>
        <time>2019-05-18T16:07:34Z</time>
      </trkpt>
      <trkpt lat="45.60702" lon="2.23347">
        <ele>795</ele>
        <time>2019-05-18T16:07:35Z</time>
      </trkpt>
      <trkpt lat="45.60702" lon="2.2335">
        <ele>795</ele>
        <time>2019-05-18T16:07:36Z</time>
      </trkpt>
      <trkpt lat="45.60701" lon="2.23354">
        <ele>795</ele>
        <time>2019-05-18T16:07:37Z</time>
      </trkpt>
      <trkpt lat="45.60701" lon="2.23357">
        <ele>795</ele>
        <time>2019-05-18T16:07:38Z</time>
      </trkpt>
      <trkpt lat="45.60701" lon="2.23362">
        <ele>795</ele>
        <time>2019-05-18T16:07:39Z</time>
      </trkpt>
      <trkpt lat="45.607" lon="2.23365">
        <ele>795</ele>
        <time>2019-05-18T16:07:40Z</time>
      </trkpt>
      <trkpt lat="45.607" lon="2.23369">
        <ele>795</ele>
        <time>2019-05-18T16:07:41Z</time>
      </trkpt>
      <trkpt lat="45.607" lon="2.23373">
        <ele>795</ele>
        <time>2019-05-18T16:07:42Z</time>
      </trkpt>
      <trkpt lat="45.607" lon="2.23377">
        <ele>795</ele>
        <time>2019-05-18T16:07:43Z</time>
      </trkpt>
      <trkpt lat="45.607" lon="2.23381">
        <ele>795</ele>
        <time>2019-05-18T16:07:44Z</time>
      </trkpt>
      <trkpt lat="45.60699" lon="2.23385">
        <ele>795</ele>
        <time>2019-05-18T16:07:45Z</time>
      </trkpt>
      <trkpt lat="45.60699" lon="2.23388">
        <ele>795</ele>
        <time>2019-05-18T16:07:46Z</time>
      </trkpt>
      <trkpt lat="45.60699" lon="2.23392">
        <ele>795</ele>
        <time>2019-05-18T16:07:47Z</time>
      </trkpt>
      <trkpt lat="45.607" lon="2.23397">
        <ele>795</ele>
        <time>2019-05-18T16:07:48Z</time>
      </trkpt>
      <trkpt lat="45.607" lon="2.23401">
        <ele>795</ele>
        <time>2019-05-18T16:07:49Z</time>
      </trkpt>
      <trkpt lat="45.60699" lon="2.23406">
        <ele>795</ele>
        <time>2019-05-18T16:07:50Z</time>
      </trkpt>
      <trkpt lat="45.60699" lon="2.23411">
        <ele>795</ele>
        <time>2019-05-18T16:07:51Z</time>
      </trkpt>
      <trkpt lat="45.60699" lon="2.23416">
        <ele>795</ele>
        <time>2019-05-18T16:07:52Z</time>
      </trkpt>
      <trkpt lat="45.607" lon="2.23422">
        <ele>795</ele>
        <time>2019-05-18T16:07:53Z</time>
      </trkpt>
      <trkpt lat="45.607" lon="2.23427">
        <ele>795</ele>
        <time>2019-05-18T16:07:54Z</time>
      </trkpt>
      <trkpt lat="45.607" lon="2.23433">
        <ele>795</ele>
        <time>2019-05-18T16:07:55Z</time>
      </trkpt>
      <trkpt lat="45.60699" lon="2.23438">
        <ele>795</ele>
        <time>2019-05-18T16:07:56Z</time>
      </trkpt>
      <trkpt lat="45.60699" lon="2.23444">
        <ele>795</ele>
        <time>2019-05-18T16:07:57Z</time>
      </trkpt>
      <trkpt lat="45.60699" lon="2.2345">
        <ele>795</ele>
        <time>2019-05-18T16:07:58Z</time>
      </trkpt>
      <trkpt lat="45.60698" lon="2.23456">
        <ele>795</ele>
        <time>2019-05-18T16:07:59Z</time>
      </trkpt>
      <trkpt lat="45.60697" lon="2.23462">
        <ele>795</ele>
        <time>2019-05-18T16:08:00Z</time>
      </trkpt>
      <trkpt lat="45.60697" lon="2.23468">
        <ele>795</ele>
        <time>2019-05-18T16:08:01Z</time>
      </trkpt>
      <trkpt lat="45.60696" lon="2.23473">
        <ele>795</ele>
        <time>2019-05-18T16:08:02Z</time>
      </trkpt>
      <trkpt lat="45.60696" lon="2.23479">
        <ele>795</ele>
        <time>2019-05-18T16:08:03Z</time>
      </trkpt>
      <trkpt lat="45.60696" lon="2.23486">
        <ele>795</ele>
        <time>2019-05-18T16:08:04Z</time>
      </trkpt>
      <trkpt lat="45.60695" lon="2.23492">
        <ele>795</ele>
        <time>2019-05-18T16:08:05Z</time>
      </trkpt>
      <trkpt lat="45.60696" lon="2.23499">
        <ele>794</ele>
        <time>2019-05-18T16:08:06Z</time>
      </trkpt>
      <trkpt lat="45.60695" lon="2.23505">
        <ele>794</ele>
        <time>2019-05-18T16:08:07Z</time>
      </trkpt>
      <trkpt lat="45.60695" lon="2.2351">
        <ele>794</ele>
        <time>2019-05-18T16:08:08Z</time>
      </trkpt>
      <trkpt lat="45.60694" lon="2.23517">
        <ele>794</ele>
        <time>2019-05-18T16:08:09Z</time>
      </trkpt>
      <trkpt lat="45.60693" lon="2.23522">
        <ele>794</ele>
        <time>2019-05-18T16:08:10Z</time>
      </trkpt>
      <trkpt lat="45.60692" lon="2.23528">
        <ele>794</ele>
        <time>2019-05-18T16:08:11Z</time>
      </trkpt>
      <trkpt lat="45.60692" lon="2.23533">
        <ele>794</ele>
        <time>2019-05-18T16:08:12Z</time>
      </trkpt>
      <trkpt lat="45.60692" lon="2.23536">
        <ele>794</ele>
        <time>2019-05-18T16:08:13Z</time>
      </trkpt>
      <trkpt lat="45.60692" lon="2.23541">
        <ele>794</ele>
        <time>2019-05-18T16:08:14Z</time>
      </trkpt>
      <trkpt lat="45.60691" lon="2.23545">
        <ele>794</ele>
        <time>2019-05-18T16:08:15Z</time>
      </trkpt>
      <trkpt lat="45.6069" lon="2.23548">
        <ele>794</ele>
        <time>2019-05-18T16:08:16Z</time>
      </trkpt>
      <trkpt lat="45.6069" lon="2.23552">
        <ele>794</ele>
        <time>2019-05-18T16:08:17Z</time>
      </trkpt>
      <trkpt lat="45.60689" lon="2.23556">
        <ele>794</ele>
        <time>2019-05-18T16:08:18Z</time>
      </trkpt>
      <trkpt lat="45.60688" lon="2.2356">
        <ele>794</ele>
        <time>2019-05-18T16:08:19Z</time>
      </trkpt>
      <trkpt lat="45.60688" lon="2.23563">
        <ele>794</ele>
        <time>2019-05-18T16:08:20Z</time>
      </trkpt>
      <trkpt lat="45.60687" lon="2.23568">
        <ele>794</ele>
        <time>2019-05-18T16:08:21Z</time>
      </trkpt>
      <trkpt lat="45.60686" lon="2.23574">
        <ele>794</ele>
        <time>2019-05-18T16:08:22Z</time>
      </trkpt>
      <trkpt lat="45.60686" lon="2.23579">
        <ele>794</ele>
        <time>2019-05-18T16:08:23Z</time>
      </trkpt>
      <trkpt lat="45.60685" lon="2.23581">
        <ele>794</ele>
        <time>2019-05-18T16:08:24Z</time>
      </trkpt>
      <trkpt lat="45.60684" lon="2.23586">
        <ele>794</ele>
        <time>2019-05-18T16:08:25Z</time>
      </trkpt>
      <trkpt lat="45.60683" lon="2.23592">
        <ele>794</ele>
        <time>2019-05-18T16:08:26Z</time>
      </trkpt>
      <trkpt lat="45.60683" lon="2.23598">
        <ele>794</ele>
        <time>2019-05-18T16:08:27Z</time>
      </trkpt>
      <trkpt lat="45.60683" lon="2.23602">
        <ele>794</ele>
        <time>2019-05-18T16:08:28Z</time>
      </trkpt>
      <trkpt lat="45.60682" lon="2.23606">
        <ele>795</ele>
        <time>2019-05-18T16:08:29Z</time>
      </trkpt>
      <trkpt lat="45.60682" lon="2.23612">
        <ele>795</ele>
        <time>2019-05-18T16:08:30Z</time>
      </trkpt>
      <trkpt lat="45.6068" lon="2.23617">
        <ele>795</ele>
        <time>2019-05-18T16:08:31Z</time>
      </trkpt>
      <trkpt lat="45.60679" lon="2.23621">
        <ele>795</ele>
        <time>2019-05-18T16:08:32Z</time>
      </trkpt>
      <trkpt lat="45.60678" lon="2.23627">
        <ele>795</ele>
        <time>2019-05-18T16:08:33Z</time>
      </trkpt>
      <trkpt lat="45.60676" lon="2.23632">
        <ele>795</ele>
        <time>2019-05-18T16:08:34Z</time>
      </trkpt>
      <trkpt lat="45.60676" lon="2.23638">
        <ele>795</ele>
        <time>2019-05-18T16:08:35Z</time>
      </trkpt>
      <trkpt lat="45.60674" lon="2.23643">
        <ele>795</ele>
        <time>2019-05-18T16:08:36Z</time>
      </trkpt>
      <trkpt lat="45.60673" lon="2.23649">
        <ele>795</ele>
        <time>2019-05-18T16:08:37Z</time>
      </trkpt>
      <trkpt lat="45.60671" lon="2.23655">
        <ele>795</ele>
        <time>2019-05-18T16:08:38Z</time>
      </trkpt>
      <trkpt lat="45.60669" lon="2.2366">
        <ele>795</ele>
        <time>2019-05-18T16:08:39Z</time>
      </trkpt>
      <trkpt lat="45.60668" lon="2.23665">
        <ele>795</ele>
        <time>2019-05-18T16:08:40Z</time>
      </trkpt>
      <trkpt lat="45.60667" lon="2.2367">
        <ele>795</ele>
        <time>2019-05-18T16:08:41Z</time>
      </trkpt>
      <trkpt lat="45.60665" lon="2.23675">
        <ele>795</ele>
        <time>2019-05-18T16:08:42Z</time>
      </trkpt>
      <trkpt lat="45.60664" lon="2.2368">
        <ele>795</ele>
        <time>2019-05-18T16:08:43Z</time>
      </trkpt>
      <trkpt lat="45.60663" lon="2.23684">
        <ele>795</ele>
        <time>2019-05-18T16:08:44Z</time>
      </trkpt>
      <trkpt lat="45.60661" lon="2.23689">
        <ele>795</ele>
        <time>2019-05-18T16:08:45Z</time>
      </trkpt>
      <trkpt lat="45.60659" lon="2.23695">
        <ele>795</ele>
        <time>2019-05-18T16:08:46Z</time>
      </trkpt>
      <trkpt lat="45.60658" lon="2.237">
        <ele>795</ele>
        <time>2019-05-18T16:08:47Z</time>
      </trkpt>
      <trkpt lat="45.60657" lon="2.23705">
        <ele>795</ele>
        <time>2019-05-18T16:08:48Z</time>
      </trkpt>
      <trkpt lat="45.60656" lon="2.23709">
        <ele>795</ele>
        <time>2019-05-18T16:08:49Z</time>
      </trkpt>
      <trkpt lat="45.60655" lon="2.23712">
        <ele>795</ele>
        <time>2019-05-18T16:08:50Z</time>
      </trkpt>
      <trkpt lat="45.60654" lon="2.23717">
        <ele>795</ele>
        <time>2019-05-18T16:08:51Z</time>
      </trkpt>
      <trkpt lat="45.60652" lon="2.23722">
        <ele>795</ele>
        <time>2019-05-18T16:08:52Z</time>
      </trkpt>
      <trkpt lat="45.6065" lon="2.23728">
        <ele>795</ele>
        <time>2019-05-18T16:08:53Z</time>
      </trkpt>
      <trkpt lat="45.60649" lon="2.23733">
        <ele>794</ele>
        <time>2019-05-18T16:08:54Z</time>
      </trkpt>
      <trkpt lat="45.60647" lon="2.23738">
        <ele>794</ele>
        <time>2019-05-18T16:08:55Z</time>
      </trkpt>
      <trkpt lat="45.60646" lon="2.23744">
        <ele>794</ele>
        <time>2019-05-18T16:08:56Z</time>
      </trkpt>
      <trkpt lat="45.60646" lon="2.2375">
        <ele>794</ele>
        <time>2019-05-18T16:08:57Z</time>
      </trkpt>
      <trkpt lat="45.60645" lon="2.23755">
        <ele>794</ele>
        <time>2019-05-18T16:08:58Z</time>
      </trkpt>
      <trkpt lat="45.60644" lon="2.23759">
        <ele>794</ele>
        <time>2019-05-18T16:08:59Z</time>
      </trkpt>
      <trkpt lat="45.60642" lon="2.23762">
        <ele>794</ele>
        <time>2019-05-18T16:09:00Z</time>
      </trkpt>
      <trkpt lat="45.60641" lon="2.23767">
        <ele>794</ele>
        <time>2019-05-18T16:09:01Z</time>
      </trkpt>
      <trkpt lat="45.60639" lon="2.2377">
        <ele>794</ele>
        <time>2019-05-18T16:09:02Z</time>
      </trkpt>
      <trkpt lat="45.60638" lon="2.23775">
        <ele>794</ele>
        <time>2019-05-18T16:09:03Z</time>
      </trkpt>
      <trkpt lat="45.60635" lon="2.23778">
        <ele>794</ele>
        <time>2019-05-18T16:09:04Z</time>
      </trkpt>
      <trkpt lat="45.60634" lon="2.2378">
        <ele>794</ele>
        <time>2019-05-18T16:09:05Z</time>
      </trkpt>
      <trkpt lat="45.60632" lon="2.23784">
        <ele>794</ele>
        <time>2019-05-18T16:09:06Z</time>
      </trkpt>
      <trkpt lat="45.60632" lon="2.23788">
        <ele>794</ele>
        <time>2019-05-18T16:09:07Z</time>
      </trkpt>
      <trkpt lat="45.60631" lon="2.23793">
        <ele>794</ele>
        <time>2019-05-18T16:09:08Z</time>
      </trkpt>
      <trkpt lat="45.60631" lon="2.23796">
        <ele>794</ele>
        <time>2019-05-18T16:09:09Z</time>
      </trkpt>
      <trkpt lat="45.6063" lon="2.238">
        <ele>794</ele>
        <time>2019-05-18T16:09:10Z</time>
      </trkpt>
      <trkpt lat="45.6063" lon="2.23803">
        <ele>794</ele>
        <time>2019-05-18T16:09:11Z</time>
      </trkpt>
      <trkpt lat="45.6063" lon="2.23806">
        <ele>794</ele>
        <time>2019-05-18T16:09:12Z</time>
      </trkpt>
      <trkpt lat="45.6063" lon="2.23809">
        <ele>794</ele>
        <time>2019-05-18T16:09:13Z</time>
      </trkpt>
      <trkpt lat="45.6063" lon="2.2381">
        <ele>794</ele>
        <time>2019-05-18T16:09:14Z</time>
      </trkpt>
      <trkpt lat="45.6063" lon="2.23812">
        <ele>794</ele>
        <time>2019-05-18T16:09:15Z</time>
      </trkpt>
      <trkpt lat="45.60628" lon="2.23815">
        <ele>794</ele>
        <time>2019-05-18T16:09:16Z</time>
      </trkpt>
      <trkpt lat="45.60628" lon="2.23818">
        <ele>794</ele>
        <time>2019-05-18T16:09:17Z</time>
      </trkpt>
      <trkpt lat="45.60627" lon="2.2382">
        <ele>794</ele>
        <time>2019-05-18T16:09:18Z</time>
      </trkpt>
      <trkpt lat="45.60625" lon="2.23837">
        <ele>794</ele>
        <time>2019-05-18T16:09:24Z</time>
      </trkpt>
      <trkpt lat="45.60625" lon="2.23838">
        <ele>794</ele>
        <time>2019-05-18T16:09:25Z</time>
      </trkpt>
      <trkpt lat="45.60624" lon="2.2384">
        <ele>794</ele>
        <time>2019-05-18T16:09:26Z</time>
      </trkpt>
      <trkpt lat="45.60624" lon="2.23841">
        <ele>794</ele>
        <time>2019-05-18T16:09:27Z</time>
      </trkpt>
      <trkpt lat="45.60623" lon="2.23843">
        <ele>794</ele>
        <time>2019-05-18T16:09:28Z</time>
      </trkpt>
      <trkpt lat="45.60623" lon="2.23845">
        <ele>794</ele>
        <time>2019-05-18T16:09:29Z</time>
      </trkpt>
      <trkpt lat="45.60622" lon="2.23847">
        <ele>794</ele>
        <time>2019-05-18T16:09:30Z</time>
      </trkpt>
      <trkpt lat="45.60621" lon="2.23849">
        <ele>794</ele>
        <time>2019-05-18T16:09:31Z</time>
      </trkpt>
      <trkpt lat="45.60621" lon="2.2385">
        <ele>794</ele>
        <time>2019-05-18T16:09:32Z</time>
      </trkpt>
      <trkpt lat="45.6062" lon="2.23851">
        <ele>794</ele>
        <time>2019-05-18T16:09:33Z</time>
      </trkpt>
      <trkpt lat="45.60619" lon="2.23851">
        <ele>794</ele>
        <time>2019-05-18T16:09:34Z</time>
      </trkpt>
      <trkpt lat="45.60619" lon="2.23851">
        <ele>794</ele>
        <time>2019-05-18T16:09:35Z</time>
      </trkpt>
      <trkpt lat="45.60619" lon="2.23851">
        <ele>794</ele>
        <time>2019-05-18T16:09:36Z</time>
      </trkpt>
      <trkpt lat="45.60619" lon="2.23852">
        <ele>794</ele>
        <time>2019-05-18T16:09:37Z</time>
      </trkpt>
      <trkpt lat="45.60618" lon="2.23852">
        <ele>794</ele>
        <time>2019-05-18T16:09:38Z</time>
      </trkpt>
      <trkpt lat="45.60618" lon="2.23852">
        <ele>794</ele>
        <time>2019-05-18T16:09:39Z</time>
      </trkpt>
      <trkpt lat="45.60614" lon="2.23881">
        <ele>793</ele>
        <time>2019-05-18T16:09:52Z</time>
      </trkpt>
      <trkpt lat="45.60613" lon="2.23885">
        <ele>793</ele>
        <time>2019-05-18T16:09:53Z</time>
      </trkpt>
      <trkpt lat="45.60612" lon="2.23891">
        <ele>792</ele>
        <time>2019-05-18T16:09:54Z</time>
      </trkpt>
      <trkpt lat="45.60612" lon="2.23895">
        <ele>792</ele>
        <time>2019-05-18T16:09:55Z</time>
      </trkpt>
      <trkpt lat="45.60612" lon="2.23897">
        <ele>792</ele>
        <time>2019-05-18T16:09:56Z</time>
      </trkpt>
      <trkpt lat="45.60611" lon="2.23902">
        <ele>792</ele>
        <time>2019-05-18T16:09:57Z</time>
      </trkpt>
      <trkpt lat="45.6061" lon="2.23905">
        <ele>792</ele>
        <time>2019-05-18T16:09:58Z</time>
      </trkpt>
      <trkpt lat="45.60607" lon="2.23909">
        <ele>792</ele>
        <time>2019-05-18T16:09:59Z</time>
      </trkpt>
      <trkpt lat="45.60604" lon="2.23912">
        <ele>791</ele>
        <time>2019-05-18T16:10:00Z</time>
      </trkpt>
      <trkpt lat="45.606" lon="2.23916">
        <ele>791</ele>
        <time>2019-05-18T16:10:01Z</time>
      </trkpt>
      <trkpt lat="45.60597" lon="2.23918">
        <ele>791</ele>
        <time>2019-05-18T16:10:02Z</time>
      </trkpt>
      <trkpt lat="45.60593" lon="2.23921">
        <ele>790</ele>
        <time>2019-05-18T16:10:03Z</time>
      </trkpt>
      <trkpt lat="45.60589" lon="2.23923">
        <ele>790</ele>
        <time>2019-05-18T16:10:04Z</time>
      </trkpt>
      <trkpt lat="45.60585" lon="2.23926">
        <ele>790</ele>
        <time>2019-05-18T16:10:05Z</time>
      </trkpt>
      <trkpt lat="45.60581" lon="2.2393">
        <ele>789</ele>
        <time>2019-05-18T16:10:06Z</time>
      </trkpt>
      <trkpt lat="45.60578" lon="2.23937">
        <ele>789</ele>
        <time>2019-05-18T16:10:07Z</time>
      </trkpt>
      <trkpt lat="45.60576" lon="2.23945">
        <ele>788</ele>
        <time>2019-05-18T16:10:08Z</time>
      </trkpt>
      <trkpt lat="45.60573" lon="2.23952">
        <ele>788</ele>
        <time>2019-05-18T16:10:09Z</time>
      </trkpt>
      <trkpt lat="45.60571" lon="2.23955">
        <ele>788</ele>
        <time>2019-05-18T16:10:10Z</time>
      </trkpt>
      <trkpt lat="45.60566" lon="2.2396">
        <ele>787</ele>
        <time>2019-05-18T16:10:11Z</time>
      </trkpt>
      <trkpt lat="45.60562" lon="2.23966">
        <ele>787</ele>
        <time>2019-05-18T16:10:12Z</time>
      </trkpt>
      <trkpt lat="45.60558" lon="2.23972">
        <ele>787</ele>
        <time>2019-05-18T16:10:13Z</time>
      </trkpt>
      <trkpt lat="45.60553" lon="2.23978">
        <ele>786</ele>
        <time>2019-05-18T16:10:14Z</time>
      </trkpt>
      <trkpt lat="45.60549" lon="2.23985">
        <ele>786</ele>
        <time>2019-05-18T16:10:15Z</time>
      </trkpt>
      <trkpt lat="45.60543" lon="2.23993">
        <ele>786</ele>
        <time>2019-05-18T16:10:16Z</time>
      </trkpt>
      <trkpt lat="45.6054" lon="2.23999">
        <ele>786</ele>
        <time>2019-05-18T16:10:17Z</time>
      </trkpt>
      <trkpt lat="45.60537" lon="2.24004">
        <ele>786</ele>
        <time>2019-05-18T16:10:18Z</time>
      </trkpt>
      <trkpt lat="45.60535" lon="2.24011">
        <ele>786</ele>
        <time>2019-05-18T16:10:19Z</time>
      </trkpt>
      <trkpt lat="45.60533" lon="2.24015">
        <ele>786</ele>
        <time>2019-05-18T16:10:20Z</time>
      </trkpt>
      <trkpt lat="45.60531" lon="2.2402">
        <ele>786</ele>
        <time>2019-05-18T16:10:21Z</time>
      </trkpt>
      <trkpt lat="45.60528" lon="2.24024">
        <ele>786</ele>
        <time>2019-05-18T16:10:22Z</time>
      </trkpt>
      <trkpt lat="45.60524" lon="2.24028">
        <ele>786</ele>
        <time>2019-05-18T16:10:23Z</time>
      </trkpt>
      <trkpt lat="45.60521" lon="2.24032">
        <ele>786</ele>
        <time>2019-05-18T16:10:24Z</time>
      </trkpt>
      <trkpt lat="45.60519" lon="2.24034">
        <ele>786</ele>
        <time>2019-05-18T16:10:25Z</time>
      </trkpt>
      <trkpt lat="45.60516" lon="2.24039">
        <ele>787</ele>
        <time>2019-05-18T16:10:26Z</time>
      </trkpt>
      <trkpt lat="45.60513" lon="2.24043">
        <ele>787</ele>
        <time>2019-05-18T16:10:27Z</time>
      </trkpt>
      <trkpt lat="45.6051" lon="2.24048">
        <ele>787</ele>
        <time>2019-05-18T16:10:28Z</time>
      </trkpt>
      <trkpt lat="45.60507" lon="2.24053">
        <ele>787</ele>
        <time>2019-05-18T16:10:29Z</time>
      </trkpt>
      <trkpt lat="45.60503" lon="2.24058">
        <ele>787</ele>
        <time>2019-05-18T16:10:30Z</time>
      </trkpt>
      <trkpt lat="45.60501" lon="2.24062">
        <ele>787</ele>
        <time>2019-05-18T16:10:31Z</time>
      </trkpt>
      <trkpt lat="45.60497" lon="2.24066">
        <ele>787</ele>
        <time>2019-05-18T16:10:32Z</time>
      </trkpt>
      <trkpt lat="45.60494" lon="2.2407">
        <ele>787</ele>
        <time>2019-05-18T16:10:33Z</time>
      </trkpt>
      <trkpt lat="45.60492" lon="2.24075">
        <ele>787</ele>
        <time>2019-05-18T16:10:34Z</time>
      </trkpt>
      <trkpt lat="45.60489" lon="2.24081">
        <ele>787</ele>
        <time>2019-05-18T16:10:35Z</time>
      </trkpt>
      <trkpt lat="45.60487" lon="2.24087">
        <ele>787</ele>
        <time>2019-05-18T16:10:36Z</time>
      </trkpt>
      <trkpt lat="45.60485" lon="2.24091">
        <ele>787</ele>
        <time>2019-05-18T16:10:37Z</time>
      </trkpt>
      <trkpt lat="45.60483" lon="2.24097">
        <ele>787</ele>
        <time>2019-05-18T16:10:38Z</time>
      </trkpt>
      <trkpt lat="45.60481" lon="2.24102">
        <ele>787</ele>
        <time>2019-05-18T16:10:39Z</time>
      </trkpt>
      <trkpt lat="45.60479" lon="2.24107">
        <ele>787</ele>
        <time>2019-05-18T16:10:40Z</time>
      </trkpt>
      <trkpt lat="45.60477" lon="2.24109">
        <ele>787</ele>
        <time>2019-05-18T16:10:41Z</time>
      </trkpt>
      <trkpt lat="45.60475" lon="2.24114">
        <ele>787</ele>
        <time>2019-05-18T16:10:42Z</time>
      </trkpt>
      <trkpt lat="45.60473" lon="2.24119">
        <ele>786</ele>
        <time>2019-05-18T16:10:43Z</time>
      </trkpt>
      <trkpt lat="45.6047" lon="2.24126">
        <ele>786</ele>
        <time>2019-05-18T16:10:44Z</time>
      </trkpt>
      <trkpt lat="45.60467" lon="2.24132">
        <ele>786</ele>
        <time>2019-05-18T16:10:45Z</time>
      </trkpt>
      <trkpt lat="45.60463" lon="2.24139">
        <ele>786</ele>
        <time>2019-05-18T16:10:46Z</time>
      </trkpt>
      <trkpt lat="45.60459" lon="2.24146">
        <ele>786</ele>
        <time>2019-05-18T16:10:47Z</time>
      </trkpt>
      <trkpt lat="45.60456" lon="2.24153">
        <ele>785</ele>
        <time>2019-05-18T16:10:48Z</time>
      </trkpt>
      <trkpt lat="45.60453" lon="2.24161">
        <ele>785</ele>
        <time>2019-05-18T16:10:49Z</time>
      </trkpt>
      <trkpt lat="45.60449" lon="2.2417">
        <ele>785</ele>
        <time>2019-05-18T16:10:50Z</time>
      </trkpt>
      <trkpt lat="45.60445" lon="2.24177">
        <ele>784</ele>
        <time>2019-05-18T16:10:51Z</time>
      </trkpt>
      <trkpt lat="45.60441" lon="2.24183">
        <ele>784</ele>
        <time>2019-05-18T16:10:52Z</time>
      </trkpt>
      <trkpt lat="45.60437" lon="2.2419">
        <ele>783</ele>
        <time>2019-05-18T16:10:53Z</time>
      </trkpt>
      <trkpt lat="45.60433" lon="2.24199">
        <ele>783</ele>
        <time>2019-05-18T16:10:54Z</time>
      </trkpt>
      <trkpt lat="45.60429" lon="2.24207">
        <ele>782</ele>
        <time>2019-05-18T16:10:55Z</time>
      </trkpt>
      <trkpt lat="45.60424" lon="2.24214">
        <ele>782</ele>
        <time>2019-05-18T16:10:56Z</time>
      </trkpt>
      <trkpt lat="45.60419" lon="2.24222">
        <ele>782</ele>
        <time>2019-05-18T16:10:57Z</time>
      </trkpt>
      <trkpt lat="45.60415" lon="2.24229">
        <ele>781</ele>
        <time>2019-05-18T16:10:58Z</time>
      </trkpt>
      <trkpt lat="45.6041" lon="2.24237">
        <ele>780</ele>
        <time>2019-05-18T16:10:59Z</time>
      </trkpt>
      <trkpt lat="45.60406" lon="2.24244">
        <ele>780</ele>
        <time>2019-05-18T16:11:00Z</time>
      </trkpt>
      <trkpt lat="45.60402" lon="2.24251">
        <ele>780</ele>
        <time>2019-05-18T16:11:01Z</time>
      </trkpt>
      <trkpt lat="45.60398" lon="2.2426">
        <ele>779</ele>
        <time>2019-05-18T16:11:02Z</time>
      </trkpt>
      <trkpt lat="45.60393" lon="2.2427">
        <ele>779</ele>
        <time>2019-05-18T16:11:03Z</time>
      </trkpt>
      <trkpt lat="45.60389" lon="2.24279">
        <ele>779</ele>
        <time>2019-05-18T16:11:04Z</time>
      </trkpt>
      <trkpt lat="45.60385" lon="2.24287">
        <ele>779</ele>
        <time>2019-05-18T16:11:05Z</time>
      </trkpt>
      <trkpt lat="45.60382" lon="2.24295">
        <ele>779</ele>
        <time>2019-05-18T16:11:06Z</time>
      </trkpt>
      <trkpt lat="45.60378" lon="2.24302">
        <ele>778</ele>
        <time>2019-05-18T16:11:07Z</time>
      </trkpt>
      <trkpt lat="45.60375" lon="2.24309">
        <ele>778</ele>
        <time>2019-05-18T16:11:08Z</time>
      </trkpt>
      <trkpt lat="45.60371" lon="2.24318">
        <ele>778</ele>
        <time>2019-05-18T16:11:09Z</time>
      </trkpt>
      <trkpt lat="45.60368" lon="2.24324">
        <ele>778</ele>
        <time>2019-05-18T16:11:10Z</time>
      </trkpt>
      <trkpt lat="45.60365" lon="2.24331">
        <ele>778</ele>
        <time>2019-05-18T16:11:11Z</time>
      </trkpt>
      <trkpt lat="45.60363" lon="2.24338">
        <ele>778</ele>
        <time>2019-05-18T16:11:12Z</time>
      </trkpt>
      <trkpt lat="45.60361" lon="2.24346">
        <ele>778</ele>
        <time>2019-05-18T16:11:13Z</time>
      </trkpt>
      <trkpt lat="45.6036" lon="2.24353">
        <ele>778</ele>
        <time>2019-05-18T16:11:14Z</time>
      </trkpt>
      <trkpt lat="45.60359" lon="2.24361">
        <ele>777</ele>
        <time>2019-05-18T16:11:15Z</time>
      </trkpt>
      <trkpt lat="45.60358" lon="2.24368">
        <ele>777</ele>
        <time>2019-05-18T16:11:16Z</time>
      </trkpt>
      <trkpt lat="45.60356" lon="2.24373">
        <ele>777</ele>
        <time>2019-05-18T16:11:17Z</time>
      </trkpt>
      <trkpt lat="45.60355" lon="2.2438">
        <ele>777</ele>
        <time>2019-05-18T16:11:18Z</time>
      </trkpt>
      <trkpt lat="45.60354" lon="2.24386">
        <ele>776</ele>
        <time>2019-05-18T16:11:19Z</time>
      </trkpt>
      <trkpt lat="45.60353" lon="2.24395">
        <ele>776</ele>
        <time>2019-05-18T16:11:20Z</time>
      </trkpt>
      <trkpt lat="45.60351" lon="2.24401">
        <ele>775</ele>
        <time>2019-05-18T16:11:21Z</time>
      </trkpt>
      <trkpt lat="45.6035" lon="2.24407">
        <ele>775</ele>
        <time>2019-05-18T16:11:22Z</time>
      </trkpt>
      <trkpt lat="45.60349" lon="2.24416">
        <ele>774</ele>
        <time>2019-05-18T16:11:23Z</time>
      </trkpt>
      <trkpt lat="45.60348" lon="2.24425">
        <ele>774</ele>
        <time>2019-05-18T16:11:24Z</time>
      </trkpt>
      <trkpt lat="45.60347" lon="2.24435">
        <ele>774</ele>
        <time>2019-05-18T16:11:25Z</time>
      </trkpt>
      <trkpt lat="45.60345" lon="2.24444">
        <ele>774</ele>
        <time>2019-05-18T16:11:26Z</time>
      </trkpt>
      <trkpt lat="45.60342" lon="2.24454">
        <ele>773</ele>
        <time>2019-05-18T16:11:27Z</time>
      </trkpt>
      <trkpt lat="45.6034" lon="2.24465">
        <ele>773</ele>
        <time>2019-05-18T16:11:28Z</time>
      </trkpt>
      <trkpt lat="45.60338" lon="2.24476">
        <ele>772</ele>
        <time>2019-05-18T16:11:29Z</time>
      </trkpt>
      <trkpt lat="45.60335" lon="2.24488">
        <ele>771</ele>
        <time>2019-05-18T16:11:30Z</time>
      </trkpt>
      <trkpt lat="45.60332" lon="2.24499">
        <ele>770</ele>
        <time>2019-05-18T16:11:31Z</time>
      </trkpt>
      <trkpt lat="45.60329" lon="2.24508">
        <ele>770</ele>
        <time>2019-05-18T16:11:32Z</time>
      </trkpt>
      <trkpt lat="45.60325" lon="2.24519">
        <ele>769</ele>
        <time>2019-05-18T16:11:33Z</time>
      </trkpt>
      <trkpt lat="45.60321" lon="2.2453">
        <ele>769</ele>
        <time>2019-05-18T16:11:34Z</time>
      </trkpt>
      <trkpt lat="45.60317" lon="2.24539">
        <ele>768</ele>
        <time>2019-05-18T16:11:35Z</time>
      </trkpt>
      <trkpt lat="45.60312" lon="2.24547">
        <ele>768</ele>
        <time>2019-05-18T16:11:36Z</time>
      </trkpt>
      <trkpt lat="45.60307" lon="2.24555">
        <ele>768</ele>
        <time>2019-05-18T16:11:37Z</time>
      </trkpt>
      <trkpt lat="45.60304" lon="2.24562">
        <ele>767</ele>
        <time>2019-05-18T16:11:38Z</time>
      </trkpt>
      <trkpt lat="45.603" lon="2.2457">
        <ele>767</ele>
        <time>2019-05-18T16:11:39Z</time>
      </trkpt>
      <trkpt lat="45.60296" lon="2.24577">
        <ele>767</ele>
        <time>2019-05-18T16:11:40Z</time>
      </trkpt>
      <trkpt lat="45.60293" lon="2.24584">
        <ele>767</ele>
        <time>2019-05-18T16:11:41Z</time>
      </trkpt>
      <trkpt lat="45.6029" lon="2.24592">
        <ele>767</ele>
        <time>2019-05-18T16:11:42Z</time>
      </trkpt>
      <trkpt lat="45.60288" lon="2.24599">
        <ele>767</ele>
        <time>2019-05-18T16:11:43Z</time>
      </trkpt>
      <trkpt lat="45.60285" lon="2.24606">
        <ele>766</ele>
        <time>2019-05-18T16:11:44Z</time>
      </trkpt>
      <trkpt lat="45.60282" lon="2.24613">
        <ele>766</ele>
        <time>2019-05-18T16:11:45Z</time>
      </trkpt>
      <trkpt lat="45.6028" lon="2.2462">
        <ele>766</ele>
        <time>2019-05-18T16:11:46Z</time>
      </trkpt>
      <trkpt lat="45.60278" lon="2.24628">
        <ele>765</ele>
        <time>2019-05-18T16:11:47Z</time>
      </trkpt>
      <trkpt lat="45.60275" lon="2.24636">
        <ele>765</ele>
        <time>2019-05-18T16:11:48Z</time>
      </trkpt>
      <trkpt lat="45.60271" lon="2.24644">
        <ele>765</ele>
        <time>2019-05-18T16:11:49Z</time>
      </trkpt>
      <trkpt lat="45.60268" lon="2.24651">
        <ele>764</ele>
        <time>2019-05-18T16:11:50Z</time>
      </trkpt>
      <trkpt lat="45.60264" lon="2.2466">
        <ele>764</ele>
        <time>2019-05-18T16:11:51Z</time>
      </trkpt>
      <trkpt lat="45.6026" lon="2.24668">
        <ele>763</ele>
        <time>2019-05-18T16:11:52Z</time>
      </trkpt>
      <trkpt lat="45.60257" lon="2.24676">
        <ele>763</ele>
        <time>2019-05-18T16:11:53Z</time>
      </trkpt>
      <trkpt lat="45.60253" lon="2.24684">
        <ele>762</ele>
        <time>2019-05-18T16:11:54Z</time>
      </trkpt>
      <trkpt lat="45.60251" lon="2.24692">
        <ele>762</ele>
        <time>2019-05-18T16:11:55Z</time>
      </trkpt>
      <trkpt lat="45.60249" lon="2.24701">
        <ele>762</ele>
        <time>2019-05-18T16:11:56Z</time>
      </trkpt>
      <trkpt lat="45.60247" lon="2.2471">
        <ele>761</ele>
        <time>2019-05-18T16:11:57Z</time>
      </trkpt>
      <trkpt lat="45.60244" lon="2.24718">
        <ele>761</ele>
        <time>2019-05-18T16:11:58Z</time>
      </trkpt>
      <trkpt lat="45.6024" lon="2.24727">
        <ele>760</ele>
        <time>2019-05-18T16:11:59Z</time>
      </trkpt>
      <trkpt lat="45.60236" lon="2.24735">
        <ele>760</ele>
        <time>2019-05-18T16:12:00Z</time>
      </trkpt>
      <trkpt lat="45.60234" lon="2.24742">
        <ele>760</ele>
        <time>2019-05-18T16:12:01Z</time>
      </trkpt>
      <trkpt lat="45.60231" lon="2.2475">
        <ele>760</ele>
        <time>2019-05-18T16:12:02Z</time>
      </trkpt>
      <trkpt lat="45.60228" lon="2.24756">
        <ele>759</ele>
        <time>2019-05-18T16:12:03Z</time>
      </trkpt>
      <trkpt lat="45.60224" lon="2.24762">
        <ele>759</ele>
        <time>2019-05-18T16:12:04Z</time>
      </trkpt>
      <trkpt lat="45.60221" lon="2.24767">
        <ele>759</ele>
        <time>2019-05-18T16:12:05Z</time>
      </trkpt>
      <trkpt lat="45.60219" lon="2.24772">
        <ele>759</ele>
        <time>2019-05-18T16:12:06Z</time>
      </trkpt>
      <trkpt lat="45.60217" lon="2.2478">
        <ele>759</ele>
        <time>2019-05-18T16:12:07Z</time>
      </trkpt>
      <trkpt lat="45.60215" lon="2.24788">
        <ele>758</ele>
        <time>2019-05-18T16:12:08Z</time>
      </trkpt>
      <trkpt lat="45.60212" lon="2.24794">
        <ele>758</ele>
        <time>2019-05-18T16:12:09Z</time>
      </trkpt>
      <trkpt lat="45.60209" lon="2.24799">
        <ele>758</ele>
        <time>2019-05-18T16:12:10Z</time>
      </trkpt>
      <trkpt lat="45.60205" lon="2.24804">
        <ele>758</ele>
        <time>2019-05-18T16:12:11Z</time>
      </trkpt>
      <trkpt lat="45.60202" lon="2.24808">
        <ele>758</ele>
        <time>2019-05-18T16:12:12Z</time>
      </trkpt>
      <trkpt lat="45.60199" lon="2.24812">
        <ele>758</ele>
        <time>2019-05-18T16:12:13Z</time>
      </trkpt>
      <trkpt lat="45.60196" lon="2.24815">
        <ele>758</ele>
        <time>2019-05-18T16:12:14Z</time>
      </trkpt>
      <trkpt lat="45.60193" lon="2.24819">
        <ele>758</ele>
        <time>2019-05-18T16:12:15Z</time>
      </trkpt>
      <trkpt lat="45.6019" lon="2.24823">
        <ele>758</ele>
        <time>2019-05-18T16:12:16Z</time>
      </trkpt>
      <trkpt lat="45.60186" lon="2.24827">
        <ele>758</ele>
        <time>2019-05-18T16:12:17Z</time>
      </trkpt>
      <trkpt lat="45.60182" lon="2.24831">
        <ele>758</ele>
        <time>2019-05-18T16:12:18Z</time>
      </trkpt>
      <trkpt lat="45.60178" lon="2.24836">
        <ele>758</ele>
        <time>2019-05-18T16:12:19Z</time>
      </trkpt>
      <trkpt lat="45.60175" lon="2.2484">
        <ele>758</ele>
        <time>2019-05-18T16:12:20Z</time>
      </trkpt>
      <trkpt lat="45.60171" lon="2.24843">
        <ele>757</ele>
        <time>2019-05-18T16:12:21Z</time>
      </trkpt>
      <trkpt lat="45.60168" lon="2.24846">
        <ele>757</ele>
        <time>2019-05-18T16:12:22Z</time>
      </trkpt>
      <trkpt lat="45.60165" lon="2.2485">
        <ele>757</ele>
        <time>2019-05-18T16:12:23Z</time>
      </trkpt>
      <trkpt lat="45.60163" lon="2.24854">
        <ele>757</ele>
        <time>2019-05-18T16:12:24Z</time>
      </trkpt>
      <trkpt lat="45.60159" lon="2.24858">
        <ele>757</ele>
        <time>2019-05-18T16:12:25Z</time>
      </trkpt>
      <trkpt lat="45.60156" lon="2.24863">
        <ele>757</ele>
        <time>2019-05-18T16:12:26Z</time>
      </trkpt>
      <trkpt lat="45.60152" lon="2.24866">
        <ele>757</ele>
        <time>2019-05-18T16:12:27Z</time>
      </trkpt>
      <trkpt lat="45.60149" lon="2.24871">
        <ele>757</ele>
        <time>2019-05-18T16:12:28Z</time>
      </trkpt>
      <trkpt lat="45.60146" lon="2.24875">
        <ele>757</ele>
        <time>2019-05-18T16:12:29Z</time>
      </trkpt>
      <trkpt lat="45.60143" lon="2.2488">
        <ele>757</ele>
        <time>2019-05-18T16:12:30Z</time>
      </trkpt>
      <trkpt lat="45.6014" lon="2.24885">
        <ele>757</ele>
        <time>2019-05-18T16:12:31Z</time>
      </trkpt>
      <trkpt lat="45.60136" lon="2.24889">
        <ele>757</ele>
        <time>2019-05-18T16:12:32Z</time>
      </trkpt>
      <trkpt lat="45.60133" lon="2.24893">
        <ele>757</ele>
        <time>2019-05-18T16:12:33Z</time>
      </trkpt>
      <trkpt lat="45.6013" lon="2.24897">
        <ele>757</ele>
        <time>2019-05-18T16:12:34Z</time>
      </trkpt>
      <trkpt lat="45.60128" lon="2.24901">
        <ele>757</ele>
        <time>2019-05-18T16:12:35Z</time>
      </trkpt>
      <trkpt lat="45.60125" lon="2.24904">
        <ele>757</ele>
        <time>2019-05-18T16:12:36Z</time>
      </trkpt>
      <trkpt lat="45.60123" lon="2.24907">
        <ele>757</ele>
        <time>2019-05-18T16:12:37Z</time>
      </trkpt>
      <trkpt lat="45.60121" lon="2.24909">
        <ele>757</ele>
        <time>2019-05-18T16:12:38Z</time>
      </trkpt>
      <trkpt lat="45.60118" lon="2.24911">
        <ele>757</ele>
        <time>2019-05-18T16:12:39Z</time>
      </trkpt>
      <trkpt lat="45.60116" lon="2.24915">
        <ele>757</ele>
        <time>2019-05-18T16:12:40Z</time>
      </trkpt>
      <trkpt lat="45.60114" lon="2.24919">
        <ele>757</ele>
        <time>2019-05-18T16:12:41Z</time>
      </trkpt>
      <trkpt lat="45.60112" lon="2.24921">
        <ele>757</ele>
        <time>2019-05-18T16:12:42Z</time>
      </trkpt>
      <trkpt lat="45.6011" lon="2.24924">
        <ele>757</ele>
        <time>2019-05-18T16:12:43Z</time>
      </trkpt>
      <trkpt lat="45.60109" lon="2.24927">
        <ele>756</ele>
        <time>2019-05-18T16:12:44Z</time>
      </trkpt>
      <trkpt lat="45.60106" lon="2.24931">
        <ele>756</ele>
        <time>2019-05-18T16:12:45Z</time>
      </trkpt>
      <trkpt lat="45.60104" lon="2.24933">
        <ele>756</ele>
        <time>2019-05-18T16:12:46Z</time>
      </trkpt>
      <trkpt lat="45.60101" lon="2.24937">
        <ele>756</ele>
        <time>2019-05-18T16:12:47Z</time>
      </trkpt>
      <trkpt lat="45.60098" lon="2.24942">
        <ele>756</ele>
        <time>2019-05-18T16:12:48Z</time>
      </trkpt>
      <trkpt lat="45.60096" lon="2.24945">
        <ele>756</ele>
        <time>2019-05-18T16:12:49Z</time>
      </trkpt>
      <trkpt lat="45.60093" lon="2.24949">
        <ele>756</ele>
        <time>2019-05-18T16:12:50Z</time>
      </trkpt>
      <trkpt lat="45.60089" lon="2.24952">
        <ele>756</ele>
        <time>2019-05-18T16:12:51Z</time>
      </trkpt>
      <trkpt lat="45.60088" lon="2.24958">
        <ele>755</ele>
        <time>2019-05-18T16:12:52Z</time>
      </trkpt>
      <trkpt lat="45.60086" lon="2.2496">
        <ele>755</ele>
        <time>2019-05-18T16:12:53Z</time>
      </trkpt>
      <trkpt lat="45.60083" lon="2.24962">
        <ele>755</ele>
        <time>2019-05-18T16:12:54Z</time>
      </trkpt>
      <trkpt lat="45.60079" lon="2.24964">
        <ele>755</ele>
        <time>2019-05-18T16:12:55Z</time>
      </trkpt>
      <trkpt lat="45.60077" lon="2.24967">
        <ele>754</ele>
        <time>2019-05-18T16:12:56Z</time>
      </trkpt>
      <trkpt lat="45.60074" lon="2.24969">
        <ele>754</ele>
        <time>2019-05-18T16:12:57Z</time>
      </trkpt>
      <trkpt lat="45.60072" lon="2.24971">
        <ele>753</ele>
        <time>2019-05-18T16:12:58Z</time>
      </trkpt>
      <trkpt lat="45.60067" lon="2.24972">
        <ele>753</ele>
        <time>2019-05-18T16:12:59Z</time>
      </trkpt>
      <trkpt lat="45.60064" lon="2.24973">
        <ele>751</ele>
        <time>2019-05-18T16:13:00Z</time>
      </trkpt>
      <trkpt lat="45.6006" lon="2.24974">
        <ele>750</ele>
        <time>2019-05-18T16:13:01Z</time>
      </trkpt>
      <trkpt lat="45.60056" lon="2.24976">
        <ele>750</ele>
        <time>2019-05-18T16:13:02Z</time>
      </trkpt>
      <trkpt lat="45.60052" lon="2.24978">
        <ele>749</ele>
        <time>2019-05-18T16:13:03Z</time>
      </trkpt>
      <trkpt lat="45.60049" lon="2.24981">
        <ele>749</ele>
        <time>2019-05-18T16:13:04Z</time>
      </trkpt>
      <trkpt lat="45.60045" lon="2.24983">
        <ele>748</ele>
        <time>2019-05-18T16:13:05Z</time>
      </trkpt>
      <trkpt lat="45.6004" lon="2.24989">
        <ele>747</ele>
        <time>2019-05-18T16:13:06Z</time>
      </trkpt>
      <trkpt lat="45.60036" lon="2.24996">
        <ele>747</ele>
        <time>2019-05-18T16:13:07Z</time>
      </trkpt>
      <trkpt lat="45.60033" lon="2.25002">
        <ele>747</ele>
        <time>2019-05-18T16:13:08Z</time>
      </trkpt>
      <trkpt lat="45.60029" lon="2.25009">
        <ele>747</ele>
        <time>2019-05-18T16:13:09Z</time>
      </trkpt>
      <trkpt lat="45.60026" lon="2.25016">
        <ele>746</ele>
        <time>2019-05-18T16:13:10Z</time>
      </trkpt>
      <trkpt lat="45.60024" lon="2.25021">
        <ele>746</ele>
        <time>2019-05-18T16:13:11Z</time>
      </trkpt>
      <trkpt lat="45.60022" lon="2.25029">
        <ele>746</ele>
        <time>2019-05-18T16:13:12Z</time>
      </trkpt>
      <trkpt lat="45.60021" lon="2.25036">
        <ele>746</ele>
        <time>2019-05-18T16:13:13Z</time>
      </trkpt>
      <trkpt lat="45.60019" lon="2.25044">
        <ele>745</ele>
        <time>2019-05-18T16:13:14Z</time>
      </trkpt>
      <trkpt lat="45.60018" lon="2.25051">
        <ele>745</ele>
        <time>2019-05-18T16:13:15Z</time>
      </trkpt>
      <trkpt lat="45.60013" lon="2.25062">
        <ele>745</ele>
        <time>2019-05-18T16:13:16Z</time>
      </trkpt>
      <trkpt lat="45.60013" lon="2.25069">
        <ele>745</ele>
        <time>2019-05-18T16:13:17Z</time>
      </trkpt>
      <trkpt lat="45.60013" lon="2.25076">
        <ele>744</ele>
        <time>2019-05-18T16:13:18Z</time>
      </trkpt>
      <trkpt lat="45.60014" lon="2.25082">
        <ele>744</ele>
        <time>2019-05-18T16:13:19Z</time>
      </trkpt>
      <trkpt lat="45.60014" lon="2.25091">
        <ele>743</ele>
        <time>2019-05-18T16:13:20Z</time>
      </trkpt>
      <trkpt lat="45.60015" lon="2.25098">
        <ele>742</ele>
        <time>2019-05-18T16:13:21Z</time>
      </trkpt>
      <trkpt lat="45.60015" lon="2.25106">
        <ele>741</ele>
        <time>2019-05-18T16:13:22Z</time>
      </trkpt>
      <trkpt lat="45.60014" lon="2.25113">
        <ele>741</ele>
        <time>2019-05-18T16:13:23Z</time>
      </trkpt>
      <trkpt lat="45.60013" lon="2.25121">
        <ele>740</ele>
        <time>2019-05-18T16:13:24Z</time>
      </trkpt>
      <trkpt lat="45.60013" lon="2.25128">
        <ele>739</ele>
        <time>2019-05-18T16:13:25Z</time>
      </trkpt>
      <trkpt lat="45.60014" lon="2.25136">
        <ele>739</ele>
        <time>2019-05-18T16:13:26Z</time>
      </trkpt>
      <trkpt lat="45.60015" lon="2.25143">
        <ele>738</ele>
        <time>2019-05-18T16:13:27Z</time>
      </trkpt>
      <trkpt lat="45.60016" lon="2.25152">
        <ele>738</ele>
        <time>2019-05-18T16:13:28Z</time>
      </trkpt>
      <trkpt lat="45.60015" lon="2.25161">
        <ele>737</ele>
        <time>2019-05-18T16:13:29Z</time>
      </trkpt>
      <trkpt lat="45.60014" lon="2.2517">
        <ele>736</ele>
        <time>2019-05-18T16:13:30Z</time>
      </trkpt>
      <trkpt lat="45.60014" lon="2.2518">
        <ele>736</ele>
        <time>2019-05-18T16:13:31Z</time>
      </trkpt>
      <trkpt lat="45.60013" lon="2.25188">
        <ele>735</ele>
        <time>2019-05-18T16:13:32Z</time>
      </trkpt>
      <trkpt lat="45.6001" lon="2.25198">
        <ele>735</ele>
        <time>2019-05-18T16:13:33Z</time>
      </trkpt>
      <trkpt lat="45.60008" lon="2.25208">
        <ele>734</ele>
        <time>2019-05-18T16:13:34Z</time>
      </trkpt>
      <trkpt lat="45.60008" lon="2.25216">
        <ele>733</ele>
        <time>2019-05-18T16:13:35Z</time>
      </trkpt>
      <trkpt lat="45.60006" lon="2.25226">
        <ele>732</ele>
        <time>2019-05-18T16:13:36Z</time>
      </trkpt>
      <trkpt lat="45.60005" lon="2.25234">
        <ele>732</ele>
        <time>2019-05-18T16:13:37Z</time>
      </trkpt>
      <trkpt lat="45.60004" lon="2.25239">
        <ele>731</ele>
        <time>2019-05-18T16:13:38Z</time>
      </trkpt>
      <trkpt lat="45.60003" lon="2.25242">
        <ele>731</ele>
        <time>2019-05-18T16:13:39Z</time>
      </trkpt>
      <trkpt lat="45.60001" lon="2.25245">
        <ele>730</ele>
        <time>2019-05-18T16:13:40Z</time>
      </trkpt>
      <trkpt lat="45.59999" lon="2.25246">
        <ele>730</ele>
        <time>2019-05-18T16:13:41Z</time>
      </trkpt>
      <trkpt lat="45.59998" lon="2.25247">
        <ele>730</ele>
        <time>2019-05-18T16:13:42Z</time>
      </trkpt>
      <trkpt lat="45.59997" lon="2.25246">
        <ele>729</ele>
        <time>2019-05-18T16:13:43Z</time>
      </trkpt>
      <trkpt lat="45.59997" lon="2.25244">
        <ele>729</ele>
        <time>2019-05-18T16:13:44Z</time>
      </trkpt>
      <trkpt lat="45.59997" lon="2.25241">
        <ele>729</ele>
        <time>2019-05-18T16:13:45Z</time>
      </trkpt>
      <trkpt lat="45.59996" lon="2.25238">
        <ele>729</ele>
        <time>2019-05-18T16:13:46Z</time>
      </trkpt>
      <trkpt lat="45.59996" lon="2.25233">
        <ele>728</ele>
        <time>2019-05-18T16:13:47Z</time>
      </trkpt>
      <trkpt lat="45.59996" lon="2.2523">
        <ele>728</ele>
        <time>2019-05-18T16:13:48Z</time>
      </trkpt>
      <trkpt lat="45.59996" lon="2.25227">
        <ele>728</ele>
        <time>2019-05-18T16:13:49Z</time>
      </trkpt>
      <trkpt lat="45.59996" lon="2.25223">
        <ele>727</ele>
        <time>2019-05-18T16:13:50Z</time>
      </trkpt>
      <trkpt lat="45.59995" lon="2.25221">
        <ele>727</ele>
        <time>2019-05-18T16:13:51Z</time>
      </trkpt>
      <trkpt lat="45.59994" lon="2.25214">
        <ele>726</ele>
        <time>2019-05-18T16:13:52Z</time>
      </trkpt>
      <trkpt lat="45.59993" lon="2.25207">
        <ele>726</ele>
        <time>2019-05-18T16:13:53Z</time>
      </trkpt>
      <trkpt lat="45.59993" lon="2.25202">
        <ele>725</ele>
        <time>2019-05-18T16:13:54Z</time>
      </trkpt>
      <trkpt lat="45.59994" lon="2.25195">
        <ele>725</ele>
        <time>2019-05-18T16:13:55Z</time>
      </trkpt>
      <trkpt lat="45.59993" lon="2.25188">
        <ele>724</ele>
        <time>2019-05-18T16:13:56Z</time>
      </trkpt>
      <trkpt lat="45.59992" lon="2.25183">
        <ele>724</ele>
        <time>2019-05-18T16:13:57Z</time>
      </trkpt>
      <trkpt lat="45.59991" lon="2.25177">
        <ele>724</ele>
        <time>2019-05-18T16:13:58Z</time>
      </trkpt>
      <trkpt lat="45.59991" lon="2.2517">
        <ele>723</ele>
        <time>2019-05-18T16:13:59Z</time>
      </trkpt>
      <trkpt lat="45.59989" lon="2.25163">
        <ele>723</ele>
        <time>2019-05-18T16:14:00Z</time>
      </trkpt>
      <trkpt lat="45.59986" lon="2.25158">
        <ele>722</ele>
        <time>2019-05-18T16:14:01Z</time>
      </trkpt>
      <trkpt lat="45.59985" lon="2.25154">
        <ele>722</ele>
        <time>2019-05-18T16:14:02Z</time>
      </trkpt>
      <trkpt lat="45.59982" lon="2.25148">
        <ele>721</ele>
        <time>2019-05-18T16:14:03Z</time>
      </trkpt>
      <trkpt lat="45.59979" lon="2.25142">
        <ele>721</ele>
        <time>2019-05-18T16:14:04Z</time>
      </trkpt>
      <trkpt lat="45.59978" lon="2.25136">
        <ele>721</ele>
        <time>2019-05-18T16:14:05Z</time>
      </trkpt>
      <trkpt lat="45.59976" lon="2.2513">
        <ele>720</ele>
        <time>2019-05-18T16:14:06Z</time>
      </trkpt>
      <trkpt lat="45.59973" lon="2.25122">
        <ele>720</ele>
        <time>2019-05-18T16:14:07Z</time>
      </trkpt>
      <trkpt lat="45.59971" lon="2.25113">
        <ele>719</ele>
        <time>2019-05-18T16:14:08Z</time>
      </trkpt>
      <trkpt lat="45.59969" lon="2.25103">
        <ele>719</ele>
        <time>2019-05-18T16:14:09Z</time>
      </trkpt>
      <trkpt lat="45.59966" lon="2.25095">
        <ele>718</ele>
        <time>2019-05-18T16:14:10Z</time>
      </trkpt>
      <trkpt lat="45.59962" lon="2.25083">
        <ele>718</ele>
        <time>2019-05-18T16:14:11Z</time>
      </trkpt>
      <trkpt lat="45.59959" lon="2.25073">
        <ele>717</ele>
        <time>2019-05-18T16:14:12Z</time>
      </trkpt>
      <trkpt lat="45.59956" lon="2.25064">
        <ele>717</ele>
        <time>2019-05-18T16:14:13Z</time>
      </trkpt>
      <trkpt lat="45.59952" lon="2.25054">
        <ele>716</ele>
        <time>2019-05-18T16:14:14Z</time>
      </trkpt>
      <trkpt lat="45.59947" lon="2.25045">
        <ele>715</ele>
        <time>2019-05-18T16:14:15Z</time>
      </trkpt>
      <trkpt lat="45.59943" lon="2.25033">
        <ele>714</ele>
        <time>2019-05-18T16:14:16Z</time>
      </trkpt>
      <trkpt lat="45.59942" lon="2.25021">
        <ele>713</ele>
        <time>2019-05-18T16:14:17Z</time>
      </trkpt>
      <trkpt lat="45.59941" lon="2.25008">
        <ele>713</ele>
        <time>2019-05-18T16:14:18Z</time>
      </trkpt>
      <trkpt lat="45.59942" lon="2.24996">
        <ele>712</ele>
        <time>2019-05-18T16:14:19Z</time>
      </trkpt>
      <trkpt lat="45.59944" lon="2.24983">
        <ele>712</ele>
        <time>2019-05-18T16:14:20Z</time>
      </trkpt>
      <trkpt lat="45.59946" lon="2.24971">
        <ele>711</ele>
        <time>2019-05-18T16:14:21Z</time>
      </trkpt>
      <trkpt lat="45.59947" lon="2.2496">
        <ele>710</ele>
        <time>2019-05-18T16:14:22Z</time>
      </trkpt>
      <trkpt lat="45.59948" lon="2.2495">
        <ele>710</ele>
        <time>2019-05-18T16:14:23Z</time>
      </trkpt>
      <trkpt lat="45.59947" lon="2.24942">
        <ele>709</ele>
        <time>2019-05-18T16:14:24Z</time>
      </trkpt>
      <trkpt lat="45.59946" lon="2.24937">
        <ele>708</ele>
        <time>2019-05-18T16:14:25Z</time>
      </trkpt>
      <trkpt lat="45.59943" lon="2.24932">
        <ele>707</ele>
        <time>2019-05-18T16:14:26Z</time>
      </trkpt>
      <trkpt lat="45.5994" lon="2.2493">
        <ele>707</ele>
        <time>2019-05-18T16:14:27Z</time>
      </trkpt>
      <trkpt lat="45.59937" lon="2.24931">
        <ele>707</ele>
        <time>2019-05-18T16:14:28Z</time>
      </trkpt>
      <trkpt lat="45.59934" lon="2.24934">
        <ele>706</ele>
        <time>2019-05-18T16:14:29Z</time>
      </trkpt>
      <trkpt lat="45.5993" lon="2.24937">
        <ele>706</ele>
        <time>2019-05-18T16:14:30Z</time>
      </trkpt>
      <trkpt lat="45.59925" lon="2.2494">
        <ele>706</ele>
        <time>2019-05-18T16:14:31Z</time>
      </trkpt>
      <trkpt lat="45.5992" lon="2.24945">
        <ele>705</ele>
        <time>2019-05-18T16:14:32Z</time>
      </trkpt>
      <trkpt lat="45.59915" lon="2.24949">
        <ele>705</ele>
        <time>2019-05-18T16:14:33Z</time>
      </trkpt>
      <trkpt lat="45.5991" lon="2.24953">
        <ele>704</ele>
        <time>2019-05-18T16:14:34Z</time>
      </trkpt>
      <trkpt lat="45.59907" lon="2.24958">
        <ele>704</ele>
        <time>2019-05-18T16:14:35Z</time>
      </trkpt>
      <trkpt lat="45.59902" lon="2.24965">
        <ele>703</ele>
        <time>2019-05-18T16:14:36Z</time>
      </trkpt>
      <trkpt lat="45.59896" lon="2.24971">
        <ele>702</ele>
        <time>2019-05-18T16:14:37Z</time>
      </trkpt>
      <trkpt lat="45.59889" lon="2.24978">
        <ele>701</ele>
        <time>2019-05-18T16:14:38Z</time>
      </trkpt>
      <trkpt lat="45.59882" lon="2.24986">
        <ele>701</ele>
        <time>2019-05-18T16:14:39Z</time>
      </trkpt>
      <trkpt lat="45.59875" lon="2.24992">
        <ele>700</ele>
        <time>2019-05-18T16:14:40Z</time>
      </trkpt>
      <trkpt lat="45.59866" lon="2.24998">
        <ele>699</ele>
        <time>2019-05-18T16:14:41Z</time>
      </trkpt>
      <trkpt lat="45.59858" lon="2.25005">
        <ele>698</ele>
        <time>2019-05-18T16:14:42Z</time>
      </trkpt>
      <trkpt lat="45.59852" lon="2.25013">
        <ele>698</ele>
        <time>2019-05-18T16:14:43Z</time>
      </trkpt>
      <trkpt lat="45.59845" lon="2.25023">
        <ele>698</ele>
        <time>2019-05-18T16:14:44Z</time>
      </trkpt>
      <trkpt lat="45.59838" lon="2.25035">
        <ele>698</ele>
        <time>2019-05-18T16:14:45Z</time>
      </trkpt>
      <trkpt lat="45.59833" lon="2.25047">
        <ele>697</ele>
        <time>2019-05-18T16:14:46Z</time>
      </trkpt>
      <trkpt lat="45.59829" lon="2.25057">
        <ele>697</ele>
        <time>2019-05-18T16:14:47Z</time>
      </trkpt>
      <trkpt lat="45.59824" lon="2.25067">
        <ele>697</ele>
        <time>2019-05-18T16:14:48Z</time>
      </trkpt>
      <trkpt lat="45.5982" lon="2.25077">
        <ele>697</ele>
        <time>2019-05-18T16:14:49Z</time>
      </trkpt>
      <trkpt lat="45.59817" lon="2.25084">
        <ele>698</ele>
        <time>2019-05-18T16:14:50Z</time>
      </trkpt>
      <trkpt lat="45.59815" lon="2.25091">
        <ele>698</ele>
        <time>2019-05-18T16:14:51Z</time>
      </trkpt>
      <trkpt lat="45.59814" lon="2.25096">
        <ele>698</ele>
        <time>2019-05-18T16:14:52Z</time>
      </trkpt>
      <trkpt lat="45.59814" lon="2.25102">
        <ele>698</ele>
        <time>2019-05-18T16:14:53Z</time>
      </trkpt>
      <trkpt lat="45.59814" lon="2.25109">
        <ele>697</ele>
        <time>2019-05-18T16:14:54Z</time>
      </trkpt>
      <trkpt lat="45.59814" lon="2.25114">
        <ele>697</ele>
        <time>2019-05-18T16:14:55Z</time>
      </trkpt>
      <trkpt lat="45.59814" lon="2.25117">
        <ele>697</ele>
        <time>2019-05-18T16:14:56Z</time>
      </trkpt>
      <trkpt lat="45.59813" lon="2.2512">
        <ele>698</ele>
        <time>2019-05-18T16:14:57Z</time>
      </trkpt>
      <trkpt lat="45.59812" lon="2.25123">
        <ele>698</ele>
        <time>2019-05-18T16:14:58Z</time>
      </trkpt>
      <trkpt lat="45.59812" lon="2.25125">
        <ele>698</ele>
        <time>2019-05-18T16:14:59Z</time>
      </trkpt>
      <trkpt lat="45.59812" lon="2.25127">
        <ele>698</ele>
        <time>2019-05-18T16:15:00Z</time>
      </trkpt>
      <trkpt lat="45.5981" lon="2.2513">
        <ele>699</ele>
        <time>2019-05-18T16:15:01Z</time>
      </trkpt>
      <trkpt lat="45.5981" lon="2.25132">
        <ele>699</ele>
        <time>2019-05-18T16:15:02Z</time>
      </trkpt>
      <trkpt lat="45.59809" lon="2.25135">
        <ele>699</ele>
        <time>2019-05-18T16:15:03Z</time>
      </trkpt>
      <trkpt lat="45.59808" lon="2.25138">
        <ele>699</ele>
        <time>2019-05-18T16:15:04Z</time>
      </trkpt>
      <trkpt lat="45.59807" lon="2.2514">
        <ele>700</ele>
        <time>2019-05-18T16:15:05Z</time>
      </trkpt>
      <trkpt lat="45.59807" lon="2.25143">
        <ele>700</ele>
        <time>2019-05-18T16:15:06Z</time>
      </trkpt>
      <trkpt lat="45.59806" lon="2.25145">
        <ele>700</ele>
        <time>2019-05-18T16:15:07Z</time>
      </trkpt>
      <trkpt lat="45.59806" lon="2.25146">
        <ele>700</ele>
        <time>2019-05-18T16:15:08Z</time>
      </trkpt>
      <trkpt lat="45.59806" lon="2.25148">
        <ele>700</ele>
        <time>2019-05-18T16:15:09Z</time>
      </trkpt>
      <trkpt lat="45.59805" lon="2.25149">
        <ele>700</ele>
        <time>2019-05-18T16:15:10Z</time>
      </trkpt>
      <trkpt lat="45.59804" lon="2.25151">
        <ele>701</ele>
        <time>2019-05-18T16:15:11Z</time>
      </trkpt>
      <trkpt lat="45.59804" lon="2.25152">
        <ele>701</ele>
        <time>2019-05-18T16:15:12Z</time>
      </trkpt>
      <trkpt lat="45.59803" lon="2.25155">
        <ele>701</ele>
        <time>2019-05-18T16:15:13Z</time>
      </trkpt>
      <trkpt lat="45.59802" lon="2.25156">
        <ele>701</ele>
        <time>2019-05-18T16:15:14Z</time>
      </trkpt>
      <trkpt lat="45.59802" lon="2.25157">
        <ele>701</ele>
        <time>2019-05-18T16:15:15Z</time>
      </trkpt>
      <trkpt lat="45.59801" lon="2.25159">
        <ele>702</ele>
        <time>2019-05-18T16:15:16Z</time>
      </trkpt>
      <trkpt lat="45.598" lon="2.2516">
        <ele>702</ele>
        <time>2019-05-18T16:15:17Z</time>
      </trkpt>
      <trkpt lat="45.598" lon="2.25161">
        <ele>702</ele>
        <time>2019-05-18T16:15:18Z</time>
      </trkpt>
      <trkpt lat="45.59799" lon="2.25163">
        <ele>702</ele>
        <time>2019-05-18T16:15:19Z</time>
      </trkpt>
      <trkpt lat="45.59798" lon="2.25166">
        <ele>703</ele>
        <time>2019-05-18T16:15:20Z</time>
      </trkpt>
      <trkpt lat="45.59797" lon="2.25168">
        <ele>703</ele>
        <time>2019-05-18T16:15:21Z</time>
      </trkpt>
      <trkpt lat="45.59796" lon="2.25169">
        <ele>703</ele>
        <time>2019-05-18T16:15:22Z</time>
      </trkpt>
      <trkpt lat="45.59796" lon="2.2517">
        <ele>703</ele>
        <time>2019-05-18T16:15:23Z</time>
      </trkpt>
      <trkpt lat="45.59795" lon="2.25172">
        <ele>704</ele>
        <time>2019-05-18T16:15:24Z</time>
      </trkpt>
      <trkpt lat="45.59795" lon="2.25173">
        <ele>704</ele>
        <time>2019-05-18T16:15:25Z</time>
      </trkpt>
      <trkpt lat="45.59794" lon="2.25175">
        <ele>704</ele>
        <time>2019-05-18T16:15:26Z</time>
      </trkpt>
      <trkpt lat="45.59793" lon="2.25175">
        <ele>704</ele>
        <time>2019-05-18T16:15:27Z</time>
      </trkpt>
      <trkpt lat="45.59792" lon="2.25177">
        <ele>704</ele>
        <time>2019-05-18T16:15:28Z</time>
      </trkpt>
      <trkpt lat="45.59792" lon="2.25178">
        <ele>704</ele>
        <time>2019-05-18T16:15:29Z</time>
      </trkpt>
      <trkpt lat="45.59791" lon="2.25179">
        <ele>705</ele>
        <time>2019-05-18T16:15:30Z</time>
      </trkpt>
      <trkpt lat="45.5979" lon="2.25181">
        <ele>705</ele>
        <time>2019-05-18T16:15:31Z</time>
      </trkpt>
      <trkpt lat="45.59789" lon="2.25182">
        <ele>705</ele>
        <time>2019-05-18T16:15:32Z</time>
      </trkpt>
      <trkpt lat="45.59789" lon="2.25183">
        <ele>705</ele>
        <time>2019-05-18T16:15:33Z</time>
      </trkpt>
      <trkpt lat="45.59788" lon="2.25185">
        <ele>705</ele>
        <time>2019-05-18T16:15:34Z</time>
      </trkpt>
      <trkpt lat="45.59787" lon="2.25187">
        <ele>705</ele>
        <time>2019-05-18T16:15:35Z</time>
      </trkpt>
      <trkpt lat="45.59786" lon="2.25189">
        <ele>705</ele>
        <time>2019-05-18T16:15:36Z</time>
      </trkpt>
      <trkpt lat="45.59786" lon="2.2519">
        <ele>705</ele>
        <time>2019-05-18T16:15:37Z</time>
      </trkpt>
      <trkpt lat="45.59786" lon="2.25192">
        <ele>705</ele>
        <time>2019-05-18T16:15:38Z</time>
      </trkpt>
      <trkpt lat="45.59785" lon="2.25194">
        <ele>705</ele>
        <time>2019-05-18T16:15:39Z</time>
      </trkpt>
      <trkpt lat="45.59785" lon="2.25196">
        <ele>706</ele>
        <time>2019-05-18T16:15:40Z</time>
      </trkpt>
      <trkpt lat="45.59784" lon="2.25197">
        <ele>706</ele>
        <time>2019-05-18T16:15:41Z</time>
      </trkpt>
      <trkpt lat="45.59783" lon="2.25198">
        <ele>706</ele>
        <time>2019-05-18T16:15:42Z</time>
      </trkpt>
      <trkpt lat="45.59783" lon="2.25198">
        <ele>706</ele>
        <time>2019-05-18T16:15:43Z</time>
      </trkpt>
      <trkpt lat="45.59782" lon="2.25199">
        <ele>706</ele>
        <time>2019-05-18T16:15:44Z</time>
      </trkpt>
      <trkpt lat="45.59782" lon="2.252">
        <ele>706</ele>
        <time>2019-05-18T16:15:45Z</time>
      </trkpt>
      <trkpt lat="45.59781" lon="2.25201">
        <ele>706</ele>
        <time>2019-05-18T16:15:46Z</time>
      </trkpt>
      <trkpt lat="45.59781" lon="2.25202">
        <ele>706</ele>
        <time>2019-05-18T16:15:47Z</time>
      </trkpt>
      <trkpt lat="45.59781" lon="2.25204">
        <ele>706</ele>
        <time>2019-05-18T16:15:48Z</time>
      </trkpt>
      <trkpt lat="45.59781" lon="2.25206">
        <ele>707</ele>
        <time>2019-05-18T16:15:49Z</time>
      </trkpt>
      <trkpt lat="45.59781" lon="2.25209">
        <ele>707</ele>
        <time>2019-05-18T16:15:50Z</time>
      </trkpt>
      <trkpt lat="45.5978" lon="2.25213">
        <ele>707</ele>
        <time>2019-05-18T16:15:51Z</time>
      </trkpt>
      <trkpt lat="45.5978" lon="2.25216">
        <ele>707</ele>
        <time>2019-05-18T16:15:52Z</time>
      </trkpt>
      <trkpt lat="45.5978" lon="2.25218">
        <ele>707</ele>
        <time>2019-05-18T16:15:53Z</time>
      </trkpt>
      <trkpt lat="45.5978" lon="2.25221">
        <ele>708</ele>
        <time>2019-05-18T16:15:54Z</time>
      </trkpt>
      <trkpt lat="45.5978" lon="2.25224">
        <ele>708</ele>
        <time>2019-05-18T16:15:55Z</time>
      </trkpt>
      <trkpt lat="45.59781" lon="2.25227">
        <ele>708</ele>
        <time>2019-05-18T16:15:56Z</time>
      </trkpt>
      <trkpt lat="45.59781" lon="2.2523">
        <ele>708</ele>
        <time>2019-05-18T16:15:57Z</time>
      </trkpt>
      <trkpt lat="45.59781" lon="2.25233">
        <ele>708</ele>
        <time>2019-05-18T16:15:58Z</time>
      </trkpt>
      <trkpt lat="45.59781" lon="2.25235">
        <ele>708</ele>
        <time>2019-05-18T16:15:59Z</time>
      </trkpt>
      <trkpt lat="45.59781" lon="2.25238">
        <ele>708</ele>
        <time>2019-05-18T16:16:00Z</time>
      </trkpt>
      <trkpt lat="45.59782" lon="2.25239">
        <ele>708</ele>
        <time>2019-05-18T16:16:01Z</time>
      </trkpt>
      <trkpt lat="45.59782" lon="2.25241">
        <ele>709</ele>
        <time>2019-05-18T16:16:02Z</time>
      </trkpt>
      <trkpt lat="45.59782" lon="2.25242">
        <ele>709</ele>
        <time>2019-05-18T16:16:03Z</time>
      </trkpt>
      <trkpt lat="45.59782" lon="2.25244">
        <ele>709</ele>
        <time>2019-05-18T16:16:04Z</time>
      </trkpt>
      <trkpt lat="45.59783" lon="2.25246">
        <ele>709</ele>
        <time>2019-05-18T16:16:05Z</time>
      </trkpt>
      <trkpt lat="45.59784" lon="2.25247">
        <ele>709</ele>
        <time>2019-05-18T16:16:06Z</time>
      </trkpt>
      <trkpt lat="45.59784" lon="2.25249">
        <ele>709</ele>
        <time>2019-05-18T16:16:07Z</time>
      </trkpt>
      <trkpt lat="45.59784" lon="2.2525">
        <ele>709</ele>
        <time>2019-05-18T16:16:08Z</time>
      </trkpt>
      <trkpt lat="45.59784" lon="2.25251">
        <ele>709</ele>
        <time>2019-05-18T16:16:09Z</time>
      </trkpt>
      <trkpt lat="45.59784" lon="2.25253">
        <ele>710</ele>
        <time>2019-05-18T16:16:10Z</time>
      </trkpt>
      <trkpt lat="45.59785" lon="2.25255">
        <ele>710</ele>
        <time>2019-05-18T16:16:11Z</time>
      </trkpt>
      <trkpt lat="45.59785" lon="2.25256">
        <ele>710</ele>
        <time>2019-05-18T16:16:12Z</time>
      </trkpt>
      <trkpt lat="45.59786" lon="2.25258">
        <ele>710</ele>
        <time>2019-05-18T16:16:13Z</time>
      </trkpt>
      <trkpt lat="45.59786" lon="2.2526">
        <ele>710</ele>
        <time>2019-05-18T16:16:14Z</time>
      </trkpt>
      <trkpt lat="45.59787" lon="2.25261">
        <ele>710</ele>
        <time>2019-05-18T16:16:15Z</time>
      </trkpt>
      <trkpt lat="45.59787" lon="2.25262">
        <ele>710</ele>
        <time>2019-05-18T16:16:16Z</time>
      </trkpt>
      <trkpt lat="45.59788" lon="2.25264">
        <ele>710</ele>
        <time>2019-05-18T16:16:17Z</time>
      </trkpt>
      <trkpt lat="45.59788" lon="2.25266">
        <ele>710</ele>
        <time>2019-05-18T16:16:18Z</time>
      </trkpt>
      <trkpt lat="45.59788" lon="2.25267">
        <ele>710</ele>
        <time>2019-05-18T16:16:19Z</time>
      </trkpt>
      <trkpt lat="45.59788" lon="2.25268">
        <ele>711</ele>
        <time>2019-05-18T16:16:20Z</time>
      </trkpt>
      <trkpt lat="45.59788" lon="2.2527">
        <ele>711</ele>
        <time>2019-05-18T16:16:21Z</time>
      </trkpt>
      <trkpt lat="45.59789" lon="2.25273">
        <ele>711</ele>
        <time>2019-05-18T16:16:22Z</time>
      </trkpt>
      <trkpt lat="45.59789" lon="2.25274">
        <ele>711</ele>
        <time>2019-05-18T16:16:23Z</time>
      </trkpt>
      <trkpt lat="45.59789" lon="2.25275">
        <ele>711</ele>
        <time>2019-05-18T16:16:24Z</time>
      </trkpt>
      <trkpt lat="45.5979" lon="2.25278">
        <ele>711</ele>
        <time>2019-05-18T16:16:25Z</time>
      </trkpt>
      <trkpt lat="45.59791" lon="2.2528">
        <ele>711</ele>
        <time>2019-05-18T16:16:26Z</time>
      </trkpt>
      <trkpt lat="45.59792" lon="2.25283">
        <ele>711</ele>
        <time>2019-05-18T16:16:27Z</time>
      </trkpt>
      <trkpt lat="45.59793" lon="2.25285">
        <ele>712</ele>
        <time>2019-05-18T16:16:28Z</time>
      </trkpt>
      <trkpt lat="45.59793" lon="2.25287">
        <ele>712</ele>
        <time>2019-05-18T16:16:29Z</time>
      </trkpt>
      <trkpt lat="45.59794" lon="2.25289">
        <ele>712</ele>
        <time>2019-05-18T16:16:30Z</time>
      </trkpt>
      <trkpt lat="45.59794" lon="2.25292">
        <ele>712</ele>
        <time>2019-05-18T16:16:31Z</time>
      </trkpt>
      <trkpt lat="45.59795" lon="2.25294">
        <ele>712</ele>
        <time>2019-05-18T16:16:32Z</time>
      </trkpt>
      <trkpt lat="45.59795" lon="2.25296">
        <ele>712</ele>
        <time>2019-05-18T16:16:33Z</time>
      </trkpt>
      <trkpt lat="45.59796" lon="2.25297">
        <ele>712</ele>
        <time>2019-05-18T16:16:34Z</time>
      </trkpt>
      <trkpt lat="45.59796" lon="2.253">
        <ele>712</ele>
        <time>2019-05-18T16:16:35Z</time>
      </trkpt>
      <trkpt lat="45.59796" lon="2.25303">
        <ele>712</ele>
        <time>2019-05-18T16:16:36Z</time>
      </trkpt>
      <trkpt lat="45.59797" lon="2.25305">
        <ele>712</ele>
        <time>2019-05-18T16:16:37Z</time>
      </trkpt>
      <trkpt lat="45.59797" lon="2.25308">
        <ele>713</ele>
        <time>2019-05-18T16:16:38Z</time>
      </trkpt>
      <trkpt lat="45.59798" lon="2.25311">
        <ele>713</ele>
        <time>2019-05-18T16:16:39Z</time>
      </trkpt>
      <trkpt lat="45.59798" lon="2.25313">
        <ele>713</ele>
        <time>2019-05-18T16:16:40Z</time>
      </trkpt>
      <trkpt lat="45.59798" lon="2.25315">
        <ele>713</ele>
        <time>2019-05-18T16:16:41Z</time>
      </trkpt>
      <trkpt lat="45.59799" lon="2.25317">
        <ele>713</ele>
        <time>2019-05-18T16:16:42Z</time>
      </trkpt>
      <trkpt lat="45.59799" lon="2.2532">
        <ele>713</ele>
        <time>2019-05-18T16:16:43Z</time>
      </trkpt>
      <trkpt lat="45.598" lon="2.25321">
        <ele>713</ele>
        <time>2019-05-18T16:16:44Z</time>
      </trkpt>
      <trkpt lat="45.598" lon="2.25322">
        <ele>713</ele>
        <time>2019-05-18T16:16:45Z</time>
      </trkpt>
      <trkpt lat="45.59799" lon="2.25324">
        <ele>713</ele>
        <time>2019-05-18T16:16:46Z</time>
      </trkpt>
      <trkpt lat="45.59798" lon="2.25325">
        <ele>713</ele>
        <time>2019-05-18T16:16:47Z</time>
      </trkpt>
      <trkpt lat="45.59798" lon="2.25327">
        <ele>714</ele>
        <time>2019-05-18T16:16:48Z</time>
      </trkpt>
      <trkpt lat="45.59798" lon="2.25329">
        <ele>714</ele>
        <time>2019-05-18T16:16:49Z</time>
      </trkpt>
      <trkpt lat="45.59798" lon="2.25331">
        <ele>714</ele>
        <time>2019-05-18T16:16:50Z</time>
      </trkpt>
      <trkpt lat="45.59799" lon="2.25333">
        <ele>714</ele>
        <time>2019-05-18T16:16:51Z</time>
      </trkpt>
      <trkpt lat="45.59799" lon="2.25335">
        <ele>714</ele>
        <time>2019-05-18T16:16:52Z</time>
      </trkpt>
      <trkpt lat="45.59799" lon="2.25337">
        <ele>714</ele>
        <time>2019-05-18T16:16:53Z</time>
      </trkpt>
      <trkpt lat="45.59799" lon="2.25338">
        <ele>714</ele>
        <time>2019-05-18T16:16:54Z</time>
      </trkpt>
      <trkpt lat="45.59799" lon="2.25339">
        <ele>715</ele>
        <time>2019-05-18T16:16:55Z</time>
      </trkpt>
      <trkpt lat="45.59799" lon="2.2534">
        <ele>715</ele>
        <time>2019-05-18T16:16:56Z</time>
      </trkpt>
      <trkpt lat="45.59799" lon="2.25341">
        <ele>715</ele>
        <time>2019-05-18T16:16:57Z</time>
      </trkpt>
      <trkpt lat="45.59799" lon="2.25343">
        <ele>715</ele>
        <time>2019-05-18T16:16:58Z</time>
      </trkpt>
      <trkpt lat="45.59799" lon="2.25345">
        <ele>715</ele>
        <time>2019-05-18T16:16:59Z</time>
      </trkpt>
      <trkpt lat="45.59799" lon="2.25347">
        <ele>715</ele>
        <time>2019-05-18T16:17:00Z</time>
      </trkpt>
      <trkpt lat="45.59798" lon="2.2536">
        <ele>716</ele>
        <time>2019-05-18T16:17:06Z</time>
      </trkpt>
      <trkpt lat="45.59799" lon="2.25363">
        <ele>716</ele>
        <time>2019-05-18T16:17:07Z</time>
      </trkpt>
      <trkpt lat="45.59798" lon="2.25366">
        <ele>716</ele>
        <time>2019-05-18T16:17:08Z</time>
      </trkpt>
      <trkpt lat="45.59799" lon="2.25368">
        <ele>716</ele>
        <time>2019-05-18T16:17:09Z</time>
      </trkpt>
      <trkpt lat="45.59799" lon="2.25371">
        <ele>716</ele>
        <time>2019-05-18T16:17:10Z</time>
      </trkpt>
      <trkpt lat="45.59799" lon="2.25373">
        <ele>716</ele>
        <time>2019-05-18T16:17:11Z</time>
      </trkpt>
      <trkpt lat="45.59799" lon="2.25374">
        <ele>716</ele>
        <time>2019-05-18T16:17:12Z</time>
      </trkpt>
      <trkpt lat="45.59799" lon="2.25376">
        <ele>717</ele>
        <time>2019-05-18T16:17:13Z</time>
      </trkpt>
      <trkpt lat="45.59799" lon="2.25379">
        <ele>717</ele>
        <time>2019-05-18T16:17:14Z</time>
      </trkpt>
      <trkpt lat="45.59799" lon="2.25382">
        <ele>717</ele>
        <time>2019-05-18T16:17:15Z</time>
      </trkpt>
      <trkpt lat="45.598" lon="2.25385">
        <ele>717</ele>
        <time>2019-05-18T16:17:16Z</time>
      </trkpt>
      <trkpt lat="45.598" lon="2.25388">
        <ele>717</ele>
        <time>2019-05-18T16:17:17Z</time>
      </trkpt>
      <trkpt lat="45.59801" lon="2.2539">
        <ele>717</ele>
        <time>2019-05-18T16:17:18Z</time>
      </trkpt>
      <trkpt lat="45.59801" lon="2.25392">
        <ele>718</ele>
        <time>2019-05-18T16:17:19Z</time>
      </trkpt>
      <trkpt lat="45.59801" lon="2.25395">
        <ele>718</ele>
        <time>2019-05-18T16:17:20Z</time>
      </trkpt>
      <trkpt lat="45.59801" lon="2.25397">
        <ele>719</ele>
        <time>2019-05-18T16:17:21Z</time>
      </trkpt>
      <trkpt lat="45.59802" lon="2.25399">
        <ele>719</ele>
        <time>2019-05-18T16:17:22Z</time>
      </trkpt>
      <trkpt lat="45.59801" lon="2.25401">
        <ele>720</ele>
        <time>2019-05-18T16:17:23Z</time>
      </trkpt>
      <trkpt lat="45.598" lon="2.25405">
        <ele>720</ele>
        <time>2019-05-18T16:17:24Z</time>
      </trkpt>
      <trkpt lat="45.598" lon="2.25408">
        <ele>721</ele>
        <time>2019-05-18T16:17:25Z</time>
      </trkpt>
      <trkpt lat="45.598" lon="2.2541">
        <ele>721</ele>
        <time>2019-05-18T16:17:26Z</time>
      </trkpt>
      <trkpt lat="45.598" lon="2.25412">
        <ele>722</ele>
        <time>2019-05-18T16:17:27Z</time>
      </trkpt>
      <trkpt lat="45.598" lon="2.25414">
        <ele>722</ele>
        <time>2019-05-18T16:17:28Z</time>
      </trkpt>
      <trkpt lat="45.598" lon="2.25418">
        <ele>722</ele>
        <time>2019-05-18T16:17:29Z</time>
      </trkpt>
      <trkpt lat="45.59801" lon="2.2542">
        <ele>723</ele>
        <time>2019-05-18T16:17:30Z</time>
      </trkpt>
      <trkpt lat="45.59801" lon="2.25422">
        <ele>723</ele>
        <time>2019-05-18T16:17:31Z</time>
      </trkpt>
      <trkpt lat="45.59801" lon="2.25424">
        <ele>724</ele>
        <time>2019-05-18T16:17:32Z</time>
      </trkpt>
      <trkpt lat="45.59801" lon="2.25426">
        <ele>724</ele>
        <time>2019-05-18T16:17:33Z</time>
      </trkpt>
      <trkpt lat="45.59801" lon="2.25428">
        <ele>725</ele>
        <time>2019-05-18T16:17:34Z</time>
      </trkpt>
      <trkpt lat="45.59801" lon="2.25428">
        <ele>725</ele>
        <time>2019-05-18T16:17:35Z</time>
      </trkpt>
      <trkpt lat="45.59801" lon="2.2543">
        <ele>726</ele>
        <time>2019-05-18T16:17:36Z</time>
      </trkpt>
      <trkpt lat="45.59801" lon="2.25431">
        <ele>726</ele>
        <time>2019-05-18T16:17:37Z</time>
      </trkpt>
      <trkpt lat="45.59801" lon="2.25433">
        <ele>727</ele>
        <time>2019-05-18T16:17:38Z</time>
      </trkpt>
      <trkpt lat="45.59801" lon="2.25434">
        <ele>727</ele>
        <time>2019-05-18T16:17:39Z</time>
      </trkpt>
      <trkpt lat="45.59801" lon="2.25436">
        <ele>727</ele>
        <time>2019-05-18T16:17:40Z</time>
      </trkpt>
      <trkpt lat="45.59802" lon="2.25438">
        <ele>727</ele>
        <time>2019-05-18T16:17:41Z</time>
      </trkpt>
      <trkpt lat="45.59803" lon="2.2544">
        <ele>728</ele>
        <time>2019-05-18T16:17:42Z</time>
      </trkpt>
      <trkpt lat="45.59803" lon="2.25441">
        <ele>728</ele>
        <time>2019-05-18T16:17:43Z</time>
      </trkpt>
      <trkpt lat="45.59804" lon="2.25443">
        <ele>728</ele>
        <time>2019-05-18T16:17:44Z</time>
      </trkpt>
      <trkpt lat="45.59804" lon="2.25445">
        <ele>728</ele>
        <time>2019-05-18T16:17:45Z</time>
      </trkpt>
      <trkpt lat="45.59805" lon="2.25446">
        <ele>728</ele>
        <time>2019-05-18T16:17:46Z</time>
      </trkpt>
      <trkpt lat="45.59805" lon="2.25448">
        <ele>729</ele>
        <time>2019-05-18T16:17:47Z</time>
      </trkpt>
      <trkpt lat="45.59806" lon="2.25449">
        <ele>729</ele>
        <time>2019-05-18T16:17:48Z</time>
      </trkpt>
      <trkpt lat="45.59807" lon="2.25452">
        <ele>729</ele>
        <time>2019-05-18T16:17:49Z</time>
      </trkpt>
      <trkpt lat="45.59808" lon="2.25453">
        <ele>729</ele>
        <time>2019-05-18T16:17:50Z</time>
      </trkpt>
      <trkpt lat="45.59808" lon="2.25455">
        <ele>729</ele>
        <time>2019-05-18T16:17:51Z</time>
      </trkpt>
      <trkpt lat="45.59808" lon="2.25456">
        <ele>729</ele>
        <time>2019-05-18T16:17:52Z</time>
      </trkpt>
      <trkpt lat="45.59809" lon="2.25457">
        <ele>729</ele>
        <time>2019-05-18T16:17:53Z</time>
      </trkpt>
      <trkpt lat="45.59809" lon="2.25459">
        <ele>729</ele>
        <time>2019-05-18T16:17:54Z</time>
      </trkpt>
      <trkpt lat="45.59808" lon="2.25461">
        <ele>729</ele>
        <time>2019-05-18T16:17:55Z</time>
      </trkpt>
      <trkpt lat="45.59808" lon="2.25462">
        <ele>729</ele>
        <time>2019-05-18T16:17:56Z</time>
      </trkpt>
      <trkpt lat="45.5981" lon="2.25465">
        <ele>729</ele>
        <time>2019-05-18T16:17:57Z</time>
      </trkpt>
      <trkpt lat="45.59811" lon="2.25466">
        <ele>729</ele>
        <time>2019-05-18T16:17:58Z</time>
      </trkpt>
      <trkpt lat="45.59812" lon="2.2547">
        <ele>729</ele>
        <time>2019-05-18T16:17:59Z</time>
      </trkpt>
      <trkpt lat="45.59813" lon="2.25472">
        <ele>729</ele>
        <time>2019-05-18T16:18:00Z</time>
      </trkpt>
      <trkpt lat="45.59814" lon="2.25475">
        <ele>729</ele>
        <time>2019-05-18T16:18:01Z</time>
      </trkpt>
      <trkpt lat="45.59814" lon="2.25479">
        <ele>729</ele>
        <time>2019-05-18T16:18:02Z</time>
      </trkpt>
      <trkpt lat="45.59815" lon="2.25483">
        <ele>729</ele>
        <time>2019-05-18T16:18:03Z</time>
      </trkpt>
      <trkpt lat="45.59816" lon="2.25486">
        <ele>729</ele>
        <time>2019-05-18T16:18:04Z</time>
      </trkpt>
      <trkpt lat="45.59816" lon="2.2549">
        <ele>729</ele>
        <time>2019-05-18T16:18:05Z</time>
      </trkpt>
      <trkpt lat="45.59816" lon="2.25494">
        <ele>729</ele>
        <time>2019-05-18T16:18:06Z</time>
      </trkpt>
      <trkpt lat="45.59816" lon="2.25497">
        <ele>729</ele>
        <time>2019-05-18T16:18:07Z</time>
      </trkpt>
      <trkpt lat="45.59817" lon="2.25499">
        <ele>729</ele>
        <time>2019-05-18T16:18:08Z</time>
      </trkpt>
      <trkpt lat="45.59818" lon="2.25501">
        <ele>729</ele>
        <time>2019-05-18T16:18:09Z</time>
      </trkpt>
      <trkpt lat="45.59818" lon="2.25503">
        <ele>729</ele>
        <time>2019-05-18T16:18:10Z</time>
      </trkpt>
      <trkpt lat="45.59819" lon="2.25505">
        <ele>729</ele>
        <time>2019-05-18T16:18:11Z</time>
      </trkpt>
      <trkpt lat="45.5982" lon="2.25508">
        <ele>728</ele>
        <time>2019-05-18T16:18:12Z</time>
      </trkpt>
      <trkpt lat="45.5982" lon="2.25511">
        <ele>728</ele>
        <time>2019-05-18T16:18:13Z</time>
      </trkpt>
      <trkpt lat="45.59821" lon="2.25516">
        <ele>728</ele>
        <time>2019-05-18T16:18:14Z</time>
      </trkpt>
      <trkpt lat="45.59821" lon="2.25518">
        <ele>728</ele>
        <time>2019-05-18T16:18:15Z</time>
      </trkpt>
      <trkpt lat="45.59822" lon="2.25521">
        <ele>728</ele>
        <time>2019-05-18T16:18:16Z</time>
      </trkpt>
      <trkpt lat="45.59822" lon="2.25525">
        <ele>728</ele>
        <time>2019-05-18T16:18:17Z</time>
      </trkpt>
      <trkpt lat="45.59823" lon="2.25528">
        <ele>728</ele>
        <time>2019-05-18T16:18:18Z</time>
      </trkpt>
      <trkpt lat="45.59823" lon="2.2553">
        <ele>728</ele>
        <time>2019-05-18T16:18:19Z</time>
      </trkpt>
      <trkpt lat="45.59823" lon="2.25533">
        <ele>728</ele>
        <time>2019-05-18T16:18:20Z</time>
      </trkpt>
      <trkpt lat="45.59823" lon="2.25535">
        <ele>728</ele>
        <time>2019-05-18T16:18:21Z</time>
      </trkpt>
      <trkpt lat="45.59823" lon="2.25537">
        <ele>728</ele>
        <time>2019-05-18T16:18:22Z</time>
      </trkpt>
      <trkpt lat="45.59824" lon="2.25539">
        <ele>728</ele>
        <time>2019-05-18T16:18:23Z</time>
      </trkpt>
      <trkpt lat="45.59823" lon="2.25541">
        <ele>728</ele>
        <time>2019-05-18T16:18:24Z</time>
      </trkpt>
      <trkpt lat="45.59823" lon="2.25544">
        <ele>728</ele>
        <time>2019-05-18T16:18:25Z</time>
      </trkpt>
      <trkpt lat="45.59823" lon="2.25547">
        <ele>728</ele>
        <time>2019-05-18T16:18:26Z</time>
      </trkpt>
      <trkpt lat="45.59824" lon="2.25549">
        <ele>728</ele>
        <time>2019-05-18T16:18:27Z</time>
      </trkpt>
      <trkpt lat="45.59824" lon="2.25551">
        <ele>728</ele>
        <time>2019-05-18T16:18:28Z</time>
      </trkpt>
      <trkpt lat="45.59823" lon="2.25553">
        <ele>728</ele>
        <time>2019-05-18T16:18:29Z</time>
      </trkpt>
      <trkpt lat="45.59823" lon="2.25554">
        <ele>728</ele>
        <time>2019-05-18T16:18:30Z</time>
      </trkpt>
      <trkpt lat="45.59824" lon="2.25556">
        <ele>728</ele>
        <time>2019-05-18T16:18:31Z</time>
      </trkpt>
      <trkpt lat="45.59824" lon="2.25558">
        <ele>728</ele>
        <time>2019-05-18T16:18:32Z</time>
      </trkpt>
      <trkpt lat="45.59824" lon="2.2556">
        <ele>728</ele>
        <time>2019-05-18T16:18:33Z</time>
      </trkpt>
      <trkpt lat="45.59825" lon="2.25562">
        <ele>728</ele>
        <time>2019-05-18T16:18:34Z</time>
      </trkpt>
      <trkpt lat="45.59824" lon="2.25564">
        <ele>728</ele>
        <time>2019-05-18T16:18:35Z</time>
      </trkpt>
      <trkpt lat="45.59824" lon="2.25567">
        <ele>728</ele>
        <time>2019-05-18T16:18:36Z</time>
      </trkpt>
      <trkpt lat="45.59824" lon="2.25569">
        <ele>728</ele>
        <time>2019-05-18T16:18:37Z</time>
      </trkpt>
      <trkpt lat="45.59825" lon="2.25571">
        <ele>728</ele>
        <time>2019-05-18T16:18:38Z</time>
      </trkpt>
      <trkpt lat="45.59825" lon="2.25574">
        <ele>728</ele>
        <time>2019-05-18T16:18:39Z</time>
      </trkpt>
      <trkpt lat="45.59825" lon="2.25575">
        <ele>728</ele>
        <time>2019-05-18T16:18:40Z</time>
      </trkpt>
      <trkpt lat="45.59825" lon="2.25578">
        <ele>728</ele>
        <time>2019-05-18T16:18:41Z</time>
      </trkpt>
      <trkpt lat="45.59825" lon="2.2558">
        <ele>729</ele>
        <time>2019-05-18T16:18:42Z</time>
      </trkpt>
      <trkpt lat="45.59825" lon="2.25582">
        <ele>729</ele>
        <time>2019-05-18T16:18:43Z</time>
      </trkpt>
      <trkpt lat="45.59825" lon="2.25584">
        <ele>729</ele>
        <time>2019-05-18T16:18:44Z</time>
      </trkpt>
      <trkpt lat="45.59825" lon="2.25585">
        <ele>729</ele>
        <time>2019-05-18T16:18:45Z</time>
      </trkpt>
      <trkpt lat="45.59825" lon="2.25586">
        <ele>729</ele>
        <time>2019-05-18T16:18:46Z</time>
      </trkpt>
      <trkpt lat="45.59826" lon="2.25588">
        <ele>729</ele>
        <time>2019-05-18T16:18:47Z</time>
      </trkpt>
      <trkpt lat="45.59827" lon="2.2559">
        <ele>729</ele>
        <time>2019-05-18T16:18:48Z</time>
      </trkpt>
      <trkpt lat="45.59828" lon="2.25592">
        <ele>730</ele>
        <time>2019-05-18T16:18:49Z</time>
      </trkpt>
      <trkpt lat="45.59828" lon="2.25595">
        <ele>730</ele>
        <time>2019-05-18T16:18:50Z</time>
      </trkpt>
      <trkpt lat="45.59829" lon="2.25597">
        <ele>730</ele>
        <time>2019-05-18T16:18:51Z</time>
      </trkpt>
      <trkpt lat="45.59829" lon="2.25599">
        <ele>730</ele>
        <time>2019-05-18T16:18:52Z</time>
      </trkpt>
      <trkpt lat="45.5983" lon="2.25601">
        <ele>730</ele>
        <time>2019-05-18T16:18:53Z</time>
      </trkpt>
      <trkpt lat="45.59831" lon="2.25603">
        <ele>731</ele>
        <time>2019-05-18T16:18:54Z</time>
      </trkpt>
      <trkpt lat="45.59831" lon="2.25605">
        <ele>731</ele>
        <time>2019-05-18T16:18:55Z</time>
      </trkpt>
      <trkpt lat="45.59831" lon="2.25607">
        <ele>731</ele>
        <time>2019-05-18T16:18:56Z</time>
      </trkpt>
      <trkpt lat="45.59832" lon="2.25609">
        <ele>731</ele>
        <time>2019-05-18T16:18:57Z</time>
      </trkpt>
      <trkpt lat="45.59834" lon="2.25611">
        <ele>732</ele>
        <time>2019-05-18T16:18:58Z</time>
      </trkpt>
      <trkpt lat="45.59836" lon="2.25613">
        <ele>732</ele>
        <time>2019-05-18T16:18:59Z</time>
      </trkpt>
      <trkpt lat="45.59837" lon="2.25615">
        <ele>732</ele>
        <time>2019-05-18T16:19:00Z</time>
      </trkpt>
      <trkpt lat="45.59838" lon="2.25617">
        <ele>732</ele>
        <time>2019-05-18T16:19:01Z</time>
      </trkpt>
      <trkpt lat="45.59838" lon="2.25618">
        <ele>732</ele>
        <time>2019-05-18T16:19:02Z</time>
      </trkpt>
      <trkpt lat="45.59839" lon="2.2562">
        <ele>732</ele>
        <time>2019-05-18T16:19:03Z</time>
      </trkpt>
      <trkpt lat="45.59839" lon="2.25622">
        <ele>732</ele>
        <time>2019-05-18T16:19:04Z</time>
      </trkpt>
      <trkpt lat="45.59839" lon="2.25624">
        <ele>731</ele>
        <time>2019-05-18T16:19:05Z</time>
      </trkpt>
      <trkpt lat="45.59838" lon="2.25625">
        <ele>731</ele>
        <time>2019-05-18T16:19:06Z</time>
      </trkpt>
      <trkpt lat="45.59839" lon="2.25629">
        <ele>730</ele>
        <time>2019-05-18T16:19:07Z</time>
      </trkpt>
      <trkpt lat="45.5984" lon="2.25633">
        <ele>729</ele>
        <time>2019-05-18T16:19:08Z</time>
      </trkpt>
      <trkpt lat="45.5984" lon="2.2564">
        <ele>729</ele>
        <time>2019-05-18T16:19:09Z</time>
      </trkpt>
      <trkpt lat="45.59843" lon="2.25643">
        <ele>729</ele>
        <time>2019-05-18T16:19:10Z</time>
      </trkpt>
      <trkpt lat="45.59846" lon="2.25646">
        <ele>729</ele>
        <time>2019-05-18T16:19:11Z</time>
      </trkpt>
      <trkpt lat="45.59849" lon="2.25649">
        <ele>729</ele>
        <time>2019-05-18T16:19:12Z</time>
      </trkpt>
      <trkpt lat="45.59852" lon="2.25651">
        <ele>729</ele>
        <time>2019-05-18T16:19:13Z</time>
      </trkpt>
      <trkpt lat="45.59856" lon="2.25654">
        <ele>729</ele>
        <time>2019-05-18T16:19:14Z</time>
      </trkpt>
      <trkpt lat="45.5986" lon="2.25659">
        <ele>729</ele>
        <time>2019-05-18T16:19:15Z</time>
      </trkpt>
      <trkpt lat="45.59864" lon="2.25662">
        <ele>729</ele>
        <time>2019-05-18T16:19:16Z</time>
      </trkpt>
      <trkpt lat="45.59869" lon="2.25665">
        <ele>728</ele>
        <time>2019-05-18T16:19:17Z</time>
      </trkpt>
      <trkpt lat="45.59872" lon="2.2567">
        <ele>728</ele>
        <time>2019-05-18T16:19:18Z</time>
      </trkpt>
      <trkpt lat="45.59876" lon="2.25676">
        <ele>728</ele>
        <time>2019-05-18T16:19:19Z</time>
      </trkpt>
      <trkpt lat="45.59879" lon="2.25679">
        <ele>728</ele>
        <time>2019-05-18T16:19:20Z</time>
      </trkpt>
      <trkpt lat="45.59881" lon="2.25682">
        <ele>729</ele>
        <time>2019-05-18T16:19:21Z</time>
      </trkpt>
      <trkpt lat="45.59883" lon="2.25686">
        <ele>729</ele>
        <time>2019-05-18T16:19:22Z</time>
      </trkpt>
      <trkpt lat="45.59884" lon="2.25688">
        <ele>729</ele>
        <time>2019-05-18T16:19:23Z</time>
      </trkpt>
      <trkpt lat="45.59885" lon="2.2569">
        <ele>729</ele>
        <time>2019-05-18T16:19:24Z</time>
      </trkpt>
      <trkpt lat="45.59887" lon="2.25693">
        <ele>729</ele>
        <time>2019-05-18T16:19:25Z</time>
      </trkpt>
      <trkpt lat="45.59889" lon="2.25697">
        <ele>729</ele>
        <time>2019-05-18T16:19:26Z</time>
      </trkpt>
      <trkpt lat="45.59889" lon="2.25699">
        <ele>730</ele>
        <time>2019-05-18T16:19:27Z</time>
      </trkpt>
      <trkpt lat="45.59891" lon="2.25702">
        <ele>730</ele>
        <time>2019-05-18T16:19:28Z</time>
      </trkpt>
      <trkpt lat="45.59893" lon="2.25704">
        <ele>730</ele>
        <time>2019-05-18T16:19:29Z</time>
      </trkpt>
      <trkpt lat="45.59895" lon="2.25706">
        <ele>730</ele>
        <time>2019-05-18T16:19:30Z</time>
      </trkpt>
      <trkpt lat="45.59896" lon="2.25709">
        <ele>730</ele>
        <time>2019-05-18T16:19:31Z</time>
      </trkpt>
      <trkpt lat="45.59898" lon="2.25711">
        <ele>730</ele>
        <time>2019-05-18T16:19:32Z</time>
      </trkpt>
      <trkpt lat="45.599" lon="2.25713">
        <ele>730</ele>
        <time>2019-05-18T16:19:33Z</time>
      </trkpt>
      <trkpt lat="45.59902" lon="2.25713">
        <ele>730</ele>
        <time>2019-05-18T16:19:34Z</time>
      </trkpt>
      <trkpt lat="45.59904" lon="2.25715">
        <ele>730</ele>
        <time>2019-05-18T16:19:35Z</time>
      </trkpt>
      <trkpt lat="45.59905" lon="2.25716">
        <ele>731</ele>
        <time>2019-05-18T16:19:36Z</time>
      </trkpt>
      <trkpt lat="45.59907" lon="2.25718">
        <ele>731</ele>
        <time>2019-05-18T16:19:37Z</time>
      </trkpt>
      <trkpt lat="45.59908" lon="2.2572">
        <ele>731</ele>
        <time>2019-05-18T16:19:38Z</time>
      </trkpt>
      <trkpt lat="45.5991" lon="2.25721">
        <ele>731</ele>
        <time>2019-05-18T16:19:39Z</time>
      </trkpt>
      <trkpt lat="45.59912" lon="2.2572">
        <ele>731</ele>
        <time>2019-05-18T16:19:40Z</time>
      </trkpt>
      <trkpt lat="45.59915" lon="2.25721">
        <ele>731</ele>
        <time>2019-05-18T16:19:41Z</time>
      </trkpt>
      <trkpt lat="45.59919" lon="2.25721">
        <ele>731</ele>
        <time>2019-05-18T16:19:42Z</time>
      </trkpt>
      <trkpt lat="45.59921" lon="2.25721">
        <ele>731</ele>
        <time>2019-05-18T16:19:43Z</time>
      </trkpt>
      <trkpt lat="45.59923" lon="2.25723">
        <ele>731</ele>
        <time>2019-05-18T16:19:44Z</time>
      </trkpt>
      <trkpt lat="45.59925" lon="2.25723">
        <ele>731</ele>
        <time>2019-05-18T16:19:45Z</time>
      </trkpt>
      <trkpt lat="45.59927" lon="2.25726">
        <ele>731</ele>
        <time>2019-05-18T16:19:46Z</time>
      </trkpt>
      <trkpt lat="45.59929" lon="2.25727">
        <ele>731</ele>
        <time>2019-05-18T16:19:47Z</time>
      </trkpt>
      <trkpt lat="45.59931" lon="2.25728">
        <ele>731</ele>
        <time>2019-05-18T16:19:48Z</time>
      </trkpt>
      <trkpt lat="45.59933" lon="2.25729">
        <ele>731</ele>
        <time>2019-05-18T16:19:49Z</time>
      </trkpt>
      <trkpt lat="45.59934" lon="2.25731">
        <ele>731</ele>
        <time>2019-05-18T16:19:50Z</time>
      </trkpt>
      <trkpt lat="45.59936" lon="2.25732">
        <ele>731</ele>
        <time>2019-05-18T16:19:51Z</time>
      </trkpt>
      <trkpt lat="45.59938" lon="2.25733">
        <ele>732</ele>
        <time>2019-05-18T16:19:52Z</time>
      </trkpt>
      <trkpt lat="45.5994" lon="2.25734">
        <ele>732</ele>
        <time>2019-05-18T16:19:53Z</time>
      </trkpt>
      <trkpt lat="45.59942" lon="2.25735">
        <ele>732</ele>
        <time>2019-05-18T16:19:54Z</time>
      </trkpt>
      <trkpt lat="45.59944" lon="2.25735">
        <ele>732</ele>
        <time>2019-05-18T16:19:55Z</time>
      </trkpt>
      <trkpt lat="45.59945" lon="2.25735">
        <ele>732</ele>
        <time>2019-05-18T16:19:56Z</time>
      </trkpt>
      <trkpt lat="45.59947" lon="2.25738">
        <ele>732</ele>
        <time>2019-05-18T16:19:57Z</time>
      </trkpt>
      <trkpt lat="45.59947" lon="2.25739">
        <ele>732</ele>
        <time>2019-05-18T16:19:58Z</time>
      </trkpt>
      <trkpt lat="45.59948" lon="2.2574">
        <ele>732</ele>
        <time>2019-05-18T16:19:59Z</time>
      </trkpt>
      <trkpt lat="45.59951" lon="2.25741">
        <ele>733</ele>
        <time>2019-05-18T16:20:00Z</time>
      </trkpt>
      <trkpt lat="45.59952" lon="2.25741">
        <ele>733</ele>
        <time>2019-05-18T16:20:01Z</time>
      </trkpt>
      <trkpt lat="45.59954" lon="2.25741">
        <ele>733</ele>
        <time>2019-05-18T16:20:02Z</time>
      </trkpt>
      <trkpt lat="45.59956" lon="2.25742">
        <ele>733</ele>
        <time>2019-05-18T16:20:03Z</time>
      </trkpt>
      <trkpt lat="45.59957" lon="2.25744">
        <ele>733</ele>
        <time>2019-05-18T16:20:04Z</time>
      </trkpt>
      <trkpt lat="45.59959" lon="2.25745">
        <ele>733</ele>
        <time>2019-05-18T16:20:05Z</time>
      </trkpt>
      <trkpt lat="45.59961" lon="2.25746">
        <ele>733</ele>
        <time>2019-05-18T16:20:06Z</time>
      </trkpt>
      <trkpt lat="45.59963" lon="2.25748">
        <ele>733</ele>
        <time>2019-05-18T16:20:07Z</time>
      </trkpt>
      <trkpt lat="45.59965" lon="2.25749">
        <ele>733</ele>
        <time>2019-05-18T16:20:08Z</time>
      </trkpt>
      <trkpt lat="45.59967" lon="2.2575">
        <ele>733</ele>
        <time>2019-05-18T16:20:09Z</time>
      </trkpt>
      <trkpt lat="45.59969" lon="2.25751">
        <ele>733</ele>
        <time>2019-05-18T16:20:10Z</time>
      </trkpt>
      <trkpt lat="45.59971" lon="2.25752">
        <ele>733</ele>
        <time>2019-05-18T16:20:11Z</time>
      </trkpt>
      <trkpt lat="45.59974" lon="2.25751">
        <ele>733</ele>
        <time>2019-05-18T16:20:12Z</time>
      </trkpt>
      <trkpt lat="45.59976" lon="2.25752">
        <ele>733</ele>
        <time>2019-05-18T16:20:13Z</time>
      </trkpt>
      <trkpt lat="45.59978" lon="2.25753">
        <ele>734</ele>
        <time>2019-05-18T16:20:14Z</time>
      </trkpt>
      <trkpt lat="45.59979" lon="2.25755">
        <ele>734</ele>
        <time>2019-05-18T16:20:15Z</time>
      </trkpt>
      <trkpt lat="45.59981" lon="2.25756">
        <ele>734</ele>
        <time>2019-05-18T16:20:16Z</time>
      </trkpt>
      <trkpt lat="45.59984" lon="2.25757">
        <ele>734</ele>
        <time>2019-05-18T16:20:17Z</time>
      </trkpt>
      <trkpt lat="45.59985" lon="2.25758">
        <ele>734</ele>
        <time>2019-05-18T16:20:18Z</time>
      </trkpt>
      <trkpt lat="45.59987" lon="2.25759">
        <ele>734</ele>
        <time>2019-05-18T16:20:19Z</time>
      </trkpt>
      <trkpt lat="45.59989" lon="2.2576">
        <ele>734</ele>
        <time>2019-05-18T16:20:20Z</time>
      </trkpt>
      <trkpt lat="45.5999" lon="2.25761">
        <ele>734</ele>
        <time>2019-05-18T16:20:21Z</time>
      </trkpt>
      <trkpt lat="45.59992" lon="2.25764">
        <ele>734</ele>
        <time>2019-05-18T16:20:22Z</time>
      </trkpt>
      <trkpt lat="45.59994" lon="2.25764">
        <ele>734</ele>
        <time>2019-05-18T16:20:23Z</time>
      </trkpt>
      <trkpt lat="45.59996" lon="2.25765">
        <ele>734</ele>
        <time>2019-05-18T16:20:24Z</time>
      </trkpt>
      <trkpt lat="45.59998" lon="2.25765">
        <ele>734</ele>
        <time>2019-05-18T16:20:25Z</time>
      </trkpt>
      <trkpt lat="45.6" lon="2.25766">
        <ele>735</ele>
        <time>2019-05-18T16:20:26Z</time>
      </trkpt>
      <trkpt lat="45.60002" lon="2.25768">
        <ele>735</ele>
        <time>2019-05-18T16:20:27Z</time>
      </trkpt>
      <trkpt lat="45.60004" lon="2.2577">
        <ele>735</ele>
        <time>2019-05-18T16:20:28Z</time>
      </trkpt>
      <trkpt lat="45.60006" lon="2.25771">
        <ele>735</ele>
        <time>2019-05-18T16:20:29Z</time>
      </trkpt>
      <trkpt lat="45.60008" lon="2.25772">
        <ele>735</ele>
        <time>2019-05-18T16:20:30Z</time>
      </trkpt>
      <trkpt lat="45.60009" lon="2.25773">
        <ele>735</ele>
        <time>2019-05-18T16:20:31Z</time>
      </trkpt>
      <trkpt lat="45.60011" lon="2.25775">
        <ele>735</ele>
        <time>2019-05-18T16:20:32Z</time>
      </trkpt>
      <trkpt lat="45.60013" lon="2.25777">
        <ele>734</ele>
        <time>2019-05-18T16:20:33Z</time>
      </trkpt>
      <trkpt lat="45.60015" lon="2.25778">
        <ele>734</ele>
        <time>2019-05-18T16:20:34Z</time>
      </trkpt>
      <trkpt lat="45.60018" lon="2.2578">
        <ele>734</ele>
        <time>2019-05-18T16:20:35Z</time>
      </trkpt>
      <trkpt lat="45.60021" lon="2.25779">
        <ele>734</ele>
        <time>2019-05-18T16:20:36Z</time>
      </trkpt>
      <trkpt lat="45.60023" lon="2.25778">
        <ele>734</ele>
        <time>2019-05-18T16:20:37Z</time>
      </trkpt>
      <trkpt lat="45.60026" lon="2.25777">
        <ele>734</ele>
        <time>2019-05-18T16:20:38Z</time>
      </trkpt>
      <trkpt lat="45.60029" lon="2.25776">
        <ele>733</ele>
        <time>2019-05-18T16:20:39Z</time>
      </trkpt>
      <trkpt lat="45.60031" lon="2.25776">
        <ele>733</ele>
        <time>2019-05-18T16:20:40Z</time>
      </trkpt>
      <trkpt lat="45.60033" lon="2.25772">
        <ele>733</ele>
        <time>2019-05-18T16:20:41Z</time>
      </trkpt>
      <trkpt lat="45.60035" lon="2.25767">
        <ele>732</ele>
        <time>2019-05-18T16:20:42Z</time>
      </trkpt>
      <trkpt lat="45.60036" lon="2.25763">
        <ele>732</ele>
        <time>2019-05-18T16:20:43Z</time>
      </trkpt>
      <trkpt lat="45.60037" lon="2.2576">
        <ele>731</ele>
        <time>2019-05-18T16:20:44Z</time>
      </trkpt>
      <trkpt lat="45.60039" lon="2.25754">
        <ele>731</ele>
        <time>2019-05-18T16:20:45Z</time>
      </trkpt>
      <trkpt lat="45.6004" lon="2.25749">
        <ele>731</ele>
        <time>2019-05-18T16:20:46Z</time>
      </trkpt>
      <trkpt lat="45.60042" lon="2.25745">
        <ele>731</ele>
        <time>2019-05-18T16:20:47Z</time>
      </trkpt>
      <trkpt lat="45.60043" lon="2.25741">
        <ele>731</ele>
        <time>2019-05-18T16:20:48Z</time>
      </trkpt>
      <trkpt lat="45.60044" lon="2.25735">
        <ele>731</ele>
        <time>2019-05-18T16:20:49Z</time>
      </trkpt>
      <trkpt lat="45.60045" lon="2.25731">
        <ele>731</ele>
        <time>2019-05-18T16:20:50Z</time>
      </trkpt>
      <trkpt lat="45.60044" lon="2.25727">
        <ele>731</ele>
        <time>2019-05-18T16:20:51Z</time>
      </trkpt>
      <trkpt lat="45.60045" lon="2.25724">
        <ele>731</ele>
        <time>2019-05-18T16:20:52Z</time>
      </trkpt>
      <trkpt lat="45.60046" lon="2.25721">
        <ele>731</ele>
        <time>2019-05-18T16:20:53Z</time>
      </trkpt>
      <trkpt lat="45.60048" lon="2.25719">
        <ele>731</ele>
        <time>2019-05-18T16:20:54Z</time>
      </trkpt>
      <trkpt lat="45.60049" lon="2.25715">
        <ele>731</ele>
        <time>2019-05-18T16:20:55Z</time>
      </trkpt>
      <trkpt lat="45.6005" lon="2.25714">
        <ele>731</ele>
        <time>2019-05-18T16:20:56Z</time>
      </trkpt>
      <trkpt lat="45.60052" lon="2.25711">
        <ele>730</ele>
        <time>2019-05-18T16:20:57Z</time>
      </trkpt>
      <trkpt lat="45.60053" lon="2.25707">
        <ele>730</ele>
        <time>2019-05-18T16:20:58Z</time>
      </trkpt>
      <trkpt lat="45.60055" lon="2.25702">
        <ele>730</ele>
        <time>2019-05-18T16:20:59Z</time>
      </trkpt>
      <trkpt lat="45.60057" lon="2.25697">
        <ele>730</ele>
        <time>2019-05-18T16:21:00Z</time>
      </trkpt>
      <trkpt lat="45.60057" lon="2.25692">
        <ele>730</ele>
        <time>2019-05-18T16:21:01Z</time>
      </trkpt>
      <trkpt lat="45.60058" lon="2.25686">
        <ele>729</ele>
        <time>2019-05-18T16:21:02Z</time>
      </trkpt>
      <trkpt lat="45.6006" lon="2.25681">
        <ele>729</ele>
        <time>2019-05-18T16:21:03Z</time>
      </trkpt>
      <trkpt lat="45.60062" lon="2.25676">
        <ele>729</ele>
        <time>2019-05-18T16:21:04Z</time>
      </trkpt>
      <trkpt lat="45.60063" lon="2.25671">
        <ele>729</ele>
        <time>2019-05-18T16:21:05Z</time>
      </trkpt>
      <trkpt lat="45.60064" lon="2.25666">
        <ele>729</ele>
        <time>2019-05-18T16:21:06Z</time>
      </trkpt>
      <trkpt lat="45.60064" lon="2.25663">
        <ele>729</ele>
        <time>2019-05-18T16:21:07Z</time>
      </trkpt>
      <trkpt lat="45.60065" lon="2.25659">
        <ele>729</ele>
        <time>2019-05-18T16:21:08Z</time>
      </trkpt>
      <trkpt lat="45.60067" lon="2.25656">
        <ele>729</ele>
        <time>2019-05-18T16:21:09Z</time>
      </trkpt>
      <trkpt lat="45.60068" lon="2.25652">
        <ele>729</ele>
        <time>2019-05-18T16:21:10Z</time>
      </trkpt>
      <trkpt lat="45.6007" lon="2.25649">
        <ele>729</ele>
        <time>2019-05-18T16:21:11Z</time>
      </trkpt>
      <trkpt lat="45.60071" lon="2.25646">
        <ele>729</ele>
        <time>2019-05-18T16:21:12Z</time>
      </trkpt>
      <trkpt lat="45.60072" lon="2.25642">
        <ele>729</ele>
        <time>2019-05-18T16:21:13Z</time>
      </trkpt>
      <trkpt lat="45.60074" lon="2.25638">
        <ele>729</ele>
        <time>2019-05-18T16:21:14Z</time>
      </trkpt>
      <trkpt lat="45.60076" lon="2.25636">
        <ele>730</ele>
        <time>2019-05-18T16:21:15Z</time>
      </trkpt>
      <trkpt lat="45.60077" lon="2.25631">
        <ele>730</ele>
        <time>2019-05-18T16:21:16Z</time>
      </trkpt>
      <trkpt lat="45.60078" lon="2.25627">
        <ele>730</ele>
        <time>2019-05-18T16:21:17Z</time>
      </trkpt>
      <trkpt lat="45.6008" lon="2.25626">
        <ele>730</ele>
        <time>2019-05-18T16:21:18Z</time>
      </trkpt>
      <trkpt lat="45.60081" lon="2.25624">
        <ele>730</ele>
        <time>2019-05-18T16:21:19Z</time>
      </trkpt>
      <trkpt lat="45.60083" lon="2.25621">
        <ele>730</ele>
        <time>2019-05-18T16:21:20Z</time>
      </trkpt>
      <trkpt lat="45.60084" lon="2.25619">
        <ele>730</ele>
        <time>2019-05-18T16:21:21Z</time>
      </trkpt>
      <trkpt lat="45.60085" lon="2.25619">
        <ele>731</ele>
        <time>2019-05-18T16:21:22Z</time>
      </trkpt>
      <trkpt lat="45.60085" lon="2.2562">
        <ele>731</ele>
        <time>2019-05-18T16:21:23Z</time>
      </trkpt>
      <trkpt lat="45.60085" lon="2.25621">
        <ele>731</ele>
        <time>2019-05-18T16:21:24Z</time>
      </trkpt>
      <trkpt lat="45.60085" lon="2.25621">
        <ele>731</ele>
        <time>2019-05-18T16:21:25Z</time>
      </trkpt>
      <trkpt lat="45.60085" lon="2.25622">
        <ele>731</ele>
        <time>2019-05-18T16:21:26Z</time>
      </trkpt>
      <trkpt lat="45.60085" lon="2.25622">
        <ele>732</ele>
        <time>2019-05-18T16:21:27Z</time>
      </trkpt>
      <trkpt lat="45.60085" lon="2.25621">
        <ele>731</ele>
        <time>2019-05-18T16:21:28Z</time>
      </trkpt>
      <trkpt lat="45.60086" lon="2.2562">
        <ele>732</ele>
        <time>2019-05-18T16:21:29Z</time>
      </trkpt>
      <trkpt lat="45.60086" lon="2.25619">
        <ele>732</ele>
        <time>2019-05-18T16:21:30Z</time>
      </trkpt>
      <trkpt lat="45.60087" lon="2.2562">
        <ele>732</ele>
        <time>2019-05-18T16:21:31Z</time>
      </trkpt>
      <trkpt lat="45.60087" lon="2.25619">
        <ele>731</ele>
        <time>2019-05-18T16:21:32Z</time>
      </trkpt>
      <trkpt lat="45.60087" lon="2.25618">
        <ele>731</ele>
        <time>2019-05-18T16:21:33Z</time>
      </trkpt>
      <trkpt lat="45.60077" lon="2.25675">
        <ele>737</ele>
        <time>2019-05-18T16:22:17Z</time>
      </trkpt>
      <trkpt lat="45.60077" lon="2.25677">
        <ele>738</ele>
        <time>2019-05-18T16:22:18Z</time>
      </trkpt>
      <trkpt lat="45.60077" lon="2.25679">
        <ele>738</ele>
        <time>2019-05-18T16:22:19Z</time>
      </trkpt>
      <trkpt lat="45.60077" lon="2.25681">
        <ele>738</ele>
        <time>2019-05-18T16:22:20Z</time>
      </trkpt>
      <trkpt lat="45.60076" lon="2.25683">
        <ele>738</ele>
        <time>2019-05-18T16:22:21Z</time>
      </trkpt>
      <trkpt lat="45.60076" lon="2.25684">
        <ele>738</ele>
        <time>2019-05-18T16:22:22Z</time>
      </trkpt>
      <trkpt lat="45.60076" lon="2.25685">
        <ele>738</ele>
        <time>2019-05-18T16:22:23Z</time>
      </trkpt>
      <trkpt lat="45.60076" lon="2.25687">
        <ele>739</ele>
        <time>2019-05-18T16:22:24Z</time>
      </trkpt>
      <trkpt lat="45.60076" lon="2.25689">
        <ele>739</ele>
        <time>2019-05-18T16:22:25Z</time>
      </trkpt>
      <trkpt lat="45.60076" lon="2.25691">
        <ele>739</ele>
        <time>2019-05-18T16:22:26Z</time>
      </trkpt>
      <trkpt lat="45.60076" lon="2.25693">
        <ele>739</ele>
        <time>2019-05-18T16:22:27Z</time>
      </trkpt>
      <trkpt lat="45.60077" lon="2.25695">
        <ele>739</ele>
        <time>2019-05-18T16:22:28Z</time>
      </trkpt>
      <trkpt lat="45.60077" lon="2.25697">
        <ele>740</ele>
        <time>2019-05-18T16:22:29Z</time>
      </trkpt>
      <trkpt lat="45.60077" lon="2.257">
        <ele>740</ele>
        <time>2019-05-18T16:22:30Z</time>
      </trkpt>
      <trkpt lat="45.60077" lon="2.25703">
        <ele>740</ele>
        <time>2019-05-18T16:22:31Z</time>
      </trkpt>
      <trkpt lat="45.60077" lon="2.25705">
        <ele>740</ele>
        <time>2019-05-18T16:22:32Z</time>
      </trkpt>
      <trkpt lat="45.60077" lon="2.25707">
        <ele>740</ele>
        <time>2019-05-18T16:22:33Z</time>
      </trkpt>
      <trkpt lat="45.60078" lon="2.25709">
        <ele>740</ele>
        <time>2019-05-18T16:22:34Z</time>
      </trkpt>
      <trkpt lat="45.60077" lon="2.2571">
        <ele>741</ele>
        <time>2019-05-18T16:22:35Z</time>
      </trkpt>
      <trkpt lat="45.60077" lon="2.25712">
        <ele>741</ele>
        <time>2019-05-18T16:22:36Z</time>
      </trkpt>
      <trkpt lat="45.60077" lon="2.25714">
        <ele>741</ele>
        <time>2019-05-18T16:22:37Z</time>
      </trkpt>
      <trkpt lat="45.60077" lon="2.25715">
        <ele>741</ele>
        <time>2019-05-18T16:22:38Z</time>
      </trkpt>
      <trkpt lat="45.60076" lon="2.25718">
        <ele>741</ele>
        <time>2019-05-18T16:22:39Z</time>
      </trkpt>
      <trkpt lat="45.60075" lon="2.25721">
        <ele>741</ele>
        <time>2019-05-18T16:22:40Z</time>
      </trkpt>
      <trkpt lat="45.60075" lon="2.25724">
        <ele>742</ele>
        <time>2019-05-18T16:22:41Z</time>
      </trkpt>
      <trkpt lat="45.60075" lon="2.25726">
        <ele>742</ele>
        <time>2019-05-18T16:22:42Z</time>
      </trkpt>
      <trkpt lat="45.60075" lon="2.25728">
        <ele>742</ele>
        <time>2019-05-18T16:22:43Z</time>
      </trkpt>
      <trkpt lat="45.60074" lon="2.2573">
        <ele>742</ele>
        <time>2019-05-18T16:22:44Z</time>
      </trkpt>
      <trkpt lat="45.60074" lon="2.25732">
        <ele>742</ele>
        <time>2019-05-18T16:22:45Z</time>
      </trkpt>
      <trkpt lat="45.60074" lon="2.25733">
        <ele>742</ele>
        <time>2019-05-18T16:22:46Z</time>
      </trkpt>
      <trkpt lat="45.60074" lon="2.25735">
        <ele>743</ele>
        <time>2019-05-18T16:22:47Z</time>
      </trkpt>
      <trkpt lat="45.60074" lon="2.25736">
        <ele>743</ele>
        <time>2019-05-18T16:22:48Z</time>
      </trkpt>
      <trkpt lat="45.60074" lon="2.25739">
        <ele>743</ele>
        <time>2019-05-18T16:22:49Z</time>
      </trkpt>
      <trkpt lat="45.60074" lon="2.2574">
        <ele>743</ele>
        <time>2019-05-18T16:22:50Z</time>
      </trkpt>
      <trkpt lat="45.60074" lon="2.25742">
        <ele>743</ele>
        <time>2019-05-18T16:22:51Z</time>
      </trkpt>
      <trkpt lat="45.60074" lon="2.25744">
        <ele>744</ele>
        <time>2019-05-18T16:22:52Z</time>
      </trkpt>
      <trkpt lat="45.60074" lon="2.25746">
        <ele>744</ele>
        <time>2019-05-18T16:22:53Z</time>
      </trkpt>
      <trkpt lat="45.60074" lon="2.25748">
        <ele>744</ele>
        <time>2019-05-18T16:22:54Z</time>
      </trkpt>
      <trkpt lat="45.60075" lon="2.25752">
        <ele>744</ele>
        <time>2019-05-18T16:22:55Z</time>
      </trkpt>
      <trkpt lat="45.60076" lon="2.25756">
        <ele>744</ele>
        <time>2019-05-18T16:22:56Z</time>
      </trkpt>
      <trkpt lat="45.60076" lon="2.25758">
        <ele>744</ele>
        <time>2019-05-18T16:22:57Z</time>
      </trkpt>
      <trkpt lat="45.60076" lon="2.2576">
        <ele>745</ele>
        <time>2019-05-18T16:22:58Z</time>
      </trkpt>
      <trkpt lat="45.60076" lon="2.25763">
        <ele>745</ele>
        <time>2019-05-18T16:22:59Z</time>
      </trkpt>
      <trkpt lat="45.60075" lon="2.25764">
        <ele>745</ele>
        <time>2019-05-18T16:23:00Z</time>
      </trkpt>
      <trkpt lat="45.60076" lon="2.25767">
        <ele>745</ele>
        <time>2019-05-18T16:23:01Z</time>
      </trkpt>
      <trkpt lat="45.60076" lon="2.25768">
        <ele>745</ele>
        <time>2019-05-18T16:23:02Z</time>
      </trkpt>
      <trkpt lat="45.60076" lon="2.2577">
        <ele>745</ele>
        <time>2019-05-18T16:23:03Z</time>
      </trkpt>
      <trkpt lat="45.60076" lon="2.25773">
        <ele>746</ele>
        <time>2019-05-18T16:23:04Z</time>
      </trkpt>
      <trkpt lat="45.60076" lon="2.25775">
        <ele>746</ele>
        <time>2019-05-18T16:23:05Z</time>
      </trkpt>
      <trkpt lat="45.60075" lon="2.25777">
        <ele>746</ele>
        <time>2019-05-18T16:23:06Z</time>
      </trkpt>
      <trkpt lat="45.60075" lon="2.2578">
        <ele>746</ele>
        <time>2019-05-18T16:23:07Z</time>
      </trkpt>
      <trkpt lat="45.60075" lon="2.25783">
        <ele>746</ele>
        <time>2019-05-18T16:23:08Z</time>
      </trkpt>
      <trkpt lat="45.60074" lon="2.25784">
        <ele>746</ele>
        <time>2019-05-18T16:23:09Z</time>
      </trkpt>
      <trkpt lat="45.60074" lon="2.25784">
        <ele>746</ele>
        <time>2019-05-18T16:23:10Z</time>
      </trkpt>
      <trkpt lat="45.60074" lon="2.25784">
        <ele>746</ele>
        <time>2019-05-18T16:23:11Z</time>
      </trkpt>
      <trkpt lat="45.60074" lon="2.25785">
        <ele>746</ele>
        <time>2019-05-18T16:23:12Z</time>
      </trkpt>
      <trkpt lat="45.60073" lon="2.25787">
        <ele>746</ele>
        <time>2019-05-18T16:23:13Z</time>
      </trkpt>
      <trkpt lat="45.60072" lon="2.25789">
        <ele>747</ele>
        <time>2019-05-18T16:23:14Z</time>
      </trkpt>
      <trkpt lat="45.60072" lon="2.25791">
        <ele>747</ele>
        <time>2019-05-18T16:23:15Z</time>
      </trkpt>
      <trkpt lat="45.60071" lon="2.25792">
        <ele>747</ele>
        <time>2019-05-18T16:23:16Z</time>
      </trkpt>
      <trkpt lat="45.60071" lon="2.25795">
        <ele>747</ele>
        <time>2019-05-18T16:23:17Z</time>
      </trkpt>
      <trkpt lat="45.60071" lon="2.25794">
        <ele>747</ele>
        <time>2019-05-18T16:23:18Z</time>
      </trkpt>
      <trkpt lat="45.6007" lon="2.25796">
        <ele>747</ele>
        <time>2019-05-18T16:23:19Z</time>
      </trkpt>
      <trkpt lat="45.60069" lon="2.25797">
        <ele>748</ele>
        <time>2019-05-18T16:23:20Z</time>
      </trkpt>
      <trkpt lat="45.60069" lon="2.25798">
        <ele>748</ele>
        <time>2019-05-18T16:23:21Z</time>
      </trkpt>
      <trkpt lat="45.60068" lon="2.25799">
        <ele>748</ele>
        <time>2019-05-18T16:23:22Z</time>
      </trkpt>
      <trkpt lat="45.60067" lon="2.25799">
        <ele>748</ele>
        <time>2019-05-18T16:23:23Z</time>
      </trkpt>
      <trkpt lat="45.60066" lon="2.25801">
        <ele>748</ele>
        <time>2019-05-18T16:23:24Z</time>
      </trkpt>
      <trkpt lat="45.60066" lon="2.25802">
        <ele>748</ele>
        <time>2019-05-18T16:23:25Z</time>
      </trkpt>
      <trkpt lat="45.60065" lon="2.25804">
        <ele>748</ele>
        <time>2019-05-18T16:23:26Z</time>
      </trkpt>
      <trkpt lat="45.60064" lon="2.25805">
        <ele>748</ele>
        <time>2019-05-18T16:23:27Z</time>
      </trkpt>
      <trkpt lat="45.60063" lon="2.25806">
        <ele>748</ele>
        <time>2019-05-18T16:23:28Z</time>
      </trkpt>
      <trkpt lat="45.60062" lon="2.25807">
        <ele>749</ele>
        <time>2019-05-18T16:23:29Z</time>
      </trkpt>
      <trkpt lat="45.60062" lon="2.25807">
        <ele>749</ele>
        <time>2019-05-18T16:23:30Z</time>
      </trkpt>
      <trkpt lat="45.6006" lon="2.25808">
        <ele>749</ele>
        <time>2019-05-18T16:23:31Z</time>
      </trkpt>
      <trkpt lat="45.60059" lon="2.2581">
        <ele>749</ele>
        <time>2019-05-18T16:23:32Z</time>
      </trkpt>
      <trkpt lat="45.60059" lon="2.25811">
        <ele>749</ele>
        <time>2019-05-18T16:23:33Z</time>
      </trkpt>
      <trkpt lat="45.60058" lon="2.25813">
        <ele>749</ele>
        <time>2019-05-18T16:23:34Z</time>
      </trkpt>
      <trkpt lat="45.60059" lon="2.25815">
        <ele>750</ele>
        <time>2019-05-18T16:23:35Z</time>
      </trkpt>
      <trkpt lat="45.60059" lon="2.25817">
        <ele>750</ele>
        <time>2019-05-18T16:23:36Z</time>
      </trkpt>
      <trkpt lat="45.60057" lon="2.25818">
        <ele>750</ele>
        <time>2019-05-18T16:23:37Z</time>
      </trkpt>
      <trkpt lat="45.60056" lon="2.25819">
        <ele>750</ele>
        <time>2019-05-18T16:23:38Z</time>
      </trkpt>
      <trkpt lat="45.60055" lon="2.25821">
        <ele>750</ele>
        <time>2019-05-18T16:23:39Z</time>
      </trkpt>
      <trkpt lat="45.60054" lon="2.25822">
        <ele>750</ele>
        <time>2019-05-18T16:23:40Z</time>
      </trkpt>
      <trkpt lat="45.60052" lon="2.25824">
        <ele>751</ele>
        <time>2019-05-18T16:23:41Z</time>
      </trkpt>
      <trkpt lat="45.6005" lon="2.25826">
        <ele>751</ele>
        <time>2019-05-18T16:23:42Z</time>
      </trkpt>
      <trkpt lat="45.60049" lon="2.25826">
        <ele>751</ele>
        <time>2019-05-18T16:23:43Z</time>
      </trkpt>
      <trkpt lat="45.60048" lon="2.25828">
        <ele>751</ele>
        <time>2019-05-18T16:23:44Z</time>
      </trkpt>
      <trkpt lat="45.60047" lon="2.2583">
        <ele>751</ele>
        <time>2019-05-18T16:23:45Z</time>
      </trkpt>
      <trkpt lat="45.60046" lon="2.25831">
        <ele>751</ele>
        <time>2019-05-18T16:23:46Z</time>
      </trkpt>
      <trkpt lat="45.60044" lon="2.25834">
        <ele>751</ele>
        <time>2019-05-18T16:23:47Z</time>
      </trkpt>
      <trkpt lat="45.60043" lon="2.25836">
        <ele>751</ele>
        <time>2019-05-18T16:23:48Z</time>
      </trkpt>
      <trkpt lat="45.60041" lon="2.25839">
        <ele>751</ele>
        <time>2019-05-18T16:23:49Z</time>
      </trkpt>
      <trkpt lat="45.6004" lon="2.25842">
        <ele>752</ele>
        <time>2019-05-18T16:23:50Z</time>
      </trkpt>
      <trkpt lat="45.6004" lon="2.25844">
        <ele>752</ele>
        <time>2019-05-18T16:23:51Z</time>
      </trkpt>
      <trkpt lat="45.60038" lon="2.25847">
        <ele>752</ele>
        <time>2019-05-18T16:23:52Z</time>
      </trkpt>
      <trkpt lat="45.60037" lon="2.25849">
        <ele>752</ele>
        <time>2019-05-18T16:23:53Z</time>
      </trkpt>
      <trkpt lat="45.60036" lon="2.2585">
        <ele>752</ele>
        <time>2019-05-18T16:23:54Z</time>
      </trkpt>
      <trkpt lat="45.60034" lon="2.25853">
        <ele>752</ele>
        <time>2019-05-18T16:23:55Z</time>
      </trkpt>
      <trkpt lat="45.60034" lon="2.25855">
        <ele>752</ele>
        <time>2019-05-18T16:23:56Z</time>
      </trkpt>
      <trkpt lat="45.60032" lon="2.25858">
        <ele>752</ele>
        <time>2019-05-18T16:23:57Z</time>
      </trkpt>
      <trkpt lat="45.60031" lon="2.2586">
        <ele>752</ele>
        <time>2019-05-18T16:23:58Z</time>
      </trkpt>
      <trkpt lat="45.60029" lon="2.25863">
        <ele>752</ele>
        <time>2019-05-18T16:23:59Z</time>
      </trkpt>
      <trkpt lat="45.60029" lon="2.25865">
        <ele>753</ele>
        <time>2019-05-18T16:24:00Z</time>
      </trkpt>
      <trkpt lat="45.6003" lon="2.25864">
        <ele>753</ele>
        <time>2019-05-18T16:24:01Z</time>
      </trkpt>
      <trkpt lat="45.6003" lon="2.25866">
        <ele>753</ele>
        <time>2019-05-18T16:24:02Z</time>
      </trkpt>
      <trkpt lat="45.60029" lon="2.25869">
        <ele>753</ele>
        <time>2019-05-18T16:24:03Z</time>
      </trkpt>
      <trkpt lat="45.60028" lon="2.25871">
        <ele>753</ele>
        <time>2019-05-18T16:24:04Z</time>
      </trkpt>
      <trkpt lat="45.60028" lon="2.25872">
        <ele>753</ele>
        <time>2019-05-18T16:24:05Z</time>
      </trkpt>
      <trkpt lat="45.60027" lon="2.25874">
        <ele>753</ele>
        <time>2019-05-18T16:24:06Z</time>
      </trkpt>
      <trkpt lat="45.60026" lon="2.25876">
        <ele>753</ele>
        <time>2019-05-18T16:24:07Z</time>
      </trkpt>
      <trkpt lat="45.60025" lon="2.25878">
        <ele>753</ele>
        <time>2019-05-18T16:24:08Z</time>
      </trkpt>
      <trkpt lat="45.60024" lon="2.2588">
        <ele>753</ele>
        <time>2019-05-18T16:24:09Z</time>
      </trkpt>
      <trkpt lat="45.60023" lon="2.25883">
        <ele>753</ele>
        <time>2019-05-18T16:24:10Z</time>
      </trkpt>
      <trkpt lat="45.60023" lon="2.25884">
        <ele>753</ele>
        <time>2019-05-18T16:24:11Z</time>
      </trkpt>
      <trkpt lat="45.60022" lon="2.25886">
        <ele>753</ele>
        <time>2019-05-18T16:24:12Z</time>
      </trkpt>
      <trkpt lat="45.60021" lon="2.2589">
        <ele>754</ele>
        <time>2019-05-18T16:24:13Z</time>
      </trkpt>
      <trkpt lat="45.6002" lon="2.25892">
        <ele>754</ele>
        <time>2019-05-18T16:24:14Z</time>
      </trkpt>
      <trkpt lat="45.60018" lon="2.25894">
        <ele>754</ele>
        <time>2019-05-18T16:24:15Z</time>
      </trkpt>
      <trkpt lat="45.60018" lon="2.25896">
        <ele>754</ele>
        <time>2019-05-18T16:24:16Z</time>
      </trkpt>
      <trkpt lat="45.60018" lon="2.25897">
        <ele>754</ele>
        <time>2019-05-18T16:24:17Z</time>
      </trkpt>
      <trkpt lat="45.60017" lon="2.25899">
        <ele>755</ele>
        <time>2019-05-18T16:24:18Z</time>
      </trkpt>
      <trkpt lat="45.60016" lon="2.25901">
        <ele>755</ele>
        <time>2019-05-18T16:24:19Z</time>
      </trkpt>
      <trkpt lat="45.60015" lon="2.25903">
        <ele>755</ele>
        <time>2019-05-18T16:24:20Z</time>
      </trkpt>
      <trkpt lat="45.60014" lon="2.25905">
        <ele>755</ele>
        <time>2019-05-18T16:24:21Z</time>
      </trkpt>
      <trkpt lat="45.60013" lon="2.25907">
        <ele>755</ele>
        <time>2019-05-18T16:24:22Z</time>
      </trkpt>
      <trkpt lat="45.60013" lon="2.2591">
        <ele>755</ele>
        <time>2019-05-18T16:24:23Z</time>
      </trkpt>
      <trkpt lat="45.60012" lon="2.25913">
        <ele>756</ele>
        <time>2019-05-18T16:24:24Z</time>
      </trkpt>
      <trkpt lat="45.60012" lon="2.25916">
        <ele>756</ele>
        <time>2019-05-18T16:24:25Z</time>
      </trkpt>
      <trkpt lat="45.6001" lon="2.2592">
        <ele>756</ele>
        <time>2019-05-18T16:24:26Z</time>
      </trkpt>
      <trkpt lat="45.60009" lon="2.25923">
        <ele>756</ele>
        <time>2019-05-18T16:24:27Z</time>
      </trkpt>
      <trkpt lat="45.60008" lon="2.25925">
        <ele>757</ele>
        <time>2019-05-18T16:24:28Z</time>
      </trkpt>
      <trkpt lat="45.60007" lon="2.25928">
        <ele>757</ele>
        <time>2019-05-18T16:24:29Z</time>
      </trkpt>
      <trkpt lat="45.60007" lon="2.25928">
        <ele>757</ele>
        <time>2019-05-18T16:24:30Z</time>
      </trkpt>
      <trkpt lat="45.60006" lon="2.2593">
        <ele>757</ele>
        <time>2019-05-18T16:24:31Z</time>
      </trkpt>
      <trkpt lat="45.60004" lon="2.25932">
        <ele>757</ele>
        <time>2019-05-18T16:24:32Z</time>
      </trkpt>
      <trkpt lat="45.60003" lon="2.25933">
        <ele>757</ele>
        <time>2019-05-18T16:24:33Z</time>
      </trkpt>
      <trkpt lat="45.60002" lon="2.25935">
        <ele>758</ele>
        <time>2019-05-18T16:24:34Z</time>
      </trkpt>
      <trkpt lat="45.59999" lon="2.25936">
        <ele>758</ele>
        <time>2019-05-18T16:24:35Z</time>
      </trkpt>
      <trkpt lat="45.59997" lon="2.25936">
        <ele>758</ele>
        <time>2019-05-18T16:24:36Z</time>
      </trkpt>
      <trkpt lat="45.59996" lon="2.25937">
        <ele>758</ele>
        <time>2019-05-18T16:24:37Z</time>
      </trkpt>
      <trkpt lat="45.59994" lon="2.25938">
        <ele>758</ele>
        <time>2019-05-18T16:24:38Z</time>
      </trkpt>
      <trkpt lat="45.59993" lon="2.25939">
        <ele>758</ele>
        <time>2019-05-18T16:24:39Z</time>
      </trkpt>
      <trkpt lat="45.59991" lon="2.2594">
        <ele>758</ele>
        <time>2019-05-18T16:24:40Z</time>
      </trkpt>
      <trkpt lat="45.59989" lon="2.2594">
        <ele>759</ele>
        <time>2019-05-18T16:24:41Z</time>
      </trkpt>
      <trkpt lat="45.59988" lon="2.25942">
        <ele>759</ele>
        <time>2019-05-18T16:24:42Z</time>
      </trkpt>
      <trkpt lat="45.59986" lon="2.25942">
        <ele>759</ele>
        <time>2019-05-18T16:24:43Z</time>
      </trkpt>
      <trkpt lat="45.59985" lon="2.25943">
        <ele>759</ele>
        <time>2019-05-18T16:24:44Z</time>
      </trkpt>
      <trkpt lat="45.59982" lon="2.25944">
        <ele>759</ele>
        <time>2019-05-18T16:24:45Z</time>
      </trkpt>
      <trkpt lat="45.5998" lon="2.25946">
        <ele>759</ele>
        <time>2019-05-18T16:24:46Z</time>
      </trkpt>
      <trkpt lat="45.59979" lon="2.25949">
        <ele>760</ele>
        <time>2019-05-18T16:24:47Z</time>
      </trkpt>
      <trkpt lat="45.59977" lon="2.2595">
        <ele>760</ele>
        <time>2019-05-18T16:24:48Z</time>
      </trkpt>
      <trkpt lat="45.59976" lon="2.2595">
        <ele>760</ele>
        <time>2019-05-18T16:24:49Z</time>
      </trkpt>
      <trkpt lat="45.59975" lon="2.25951">
        <ele>760</ele>
        <time>2019-05-18T16:24:50Z</time>
      </trkpt>
      <trkpt lat="45.59974" lon="2.25952">
        <ele>760</ele>
        <time>2019-05-18T16:24:51Z</time>
      </trkpt>
      <trkpt lat="45.59973" lon="2.25953">
        <ele>760</ele>
        <time>2019-05-18T16:24:52Z</time>
      </trkpt>
      <trkpt lat="45.59972" lon="2.25953">
        <ele>760</ele>
        <time>2019-05-18T16:24:53Z</time>
      </trkpt>
      <trkpt lat="45.59971" lon="2.25954">
        <ele>761</ele>
        <time>2019-05-18T16:24:54Z</time>
      </trkpt>
      <trkpt lat="45.59969" lon="2.25955">
        <ele>761</ele>
        <time>2019-05-18T16:24:55Z</time>
      </trkpt>
      <trkpt lat="45.59968" lon="2.25956">
        <ele>761</ele>
        <time>2019-05-18T16:24:56Z</time>
      </trkpt>
      <trkpt lat="45.59967" lon="2.25957">
        <ele>761</ele>
        <time>2019-05-18T16:24:57Z</time>
      </trkpt>
      <trkpt lat="45.59965" lon="2.25958">
        <ele>761</ele>
        <time>2019-05-18T16:24:58Z</time>
      </trkpt>
      <trkpt lat="45.59962" lon="2.2596">
        <ele>761</ele>
        <time>2019-05-18T16:24:59Z</time>
      </trkpt>
      <trkpt lat="45.59959" lon="2.25962">
        <ele>761</ele>
        <time>2019-05-18T16:25:00Z</time>
      </trkpt>
      <trkpt lat="45.59957" lon="2.25963">
        <ele>762</ele>
        <time>2019-05-18T16:25:01Z</time>
      </trkpt>
      <trkpt lat="45.59956" lon="2.25964">
        <ele>762</ele>
        <time>2019-05-18T16:25:02Z</time>
      </trkpt>
      <trkpt lat="45.59954" lon="2.25965">
        <ele>762</ele>
        <time>2019-05-18T16:25:03Z</time>
      </trkpt>
      <trkpt lat="45.59953" lon="2.25966">
        <ele>762</ele>
        <time>2019-05-18T16:25:04Z</time>
      </trkpt>
      <trkpt lat="45.59952" lon="2.25967">
        <ele>762</ele>
        <time>2019-05-18T16:25:05Z</time>
      </trkpt>
      <trkpt lat="45.59951" lon="2.25969">
        <ele>762</ele>
        <time>2019-05-18T16:25:06Z</time>
      </trkpt>
      <trkpt lat="45.5995" lon="2.2597">
        <ele>762</ele>
        <time>2019-05-18T16:25:07Z</time>
      </trkpt>
      <trkpt lat="45.59948" lon="2.25971">
        <ele>762</ele>
        <time>2019-05-18T16:25:08Z</time>
      </trkpt>
      <trkpt lat="45.59947" lon="2.25971">
        <ele>762</ele>
        <time>2019-05-18T16:25:09Z</time>
      </trkpt>
      <trkpt lat="45.59944" lon="2.25973">
        <ele>762</ele>
        <time>2019-05-18T16:25:10Z</time>
      </trkpt>
      <trkpt lat="45.59942" lon="2.25975">
        <ele>762</ele>
        <time>2019-05-18T16:25:11Z</time>
      </trkpt>
      <trkpt lat="45.5994" lon="2.25975">
        <ele>762</ele>
        <time>2019-05-18T16:25:12Z</time>
      </trkpt>
      <trkpt lat="45.59939" lon="2.25976">
        <ele>763</ele>
        <time>2019-05-18T16:25:13Z</time>
      </trkpt>
      <trkpt lat="45.59936" lon="2.25977">
        <ele>763</ele>
        <time>2019-05-18T16:25:14Z</time>
      </trkpt>
      <trkpt lat="45.59935" lon="2.2598">
        <ele>763</ele>
        <time>2019-05-18T16:25:15Z</time>
      </trkpt>
      <trkpt lat="45.59934" lon="2.2598">
        <ele>763</ele>
        <time>2019-05-18T16:25:16Z</time>
      </trkpt>
      <trkpt lat="45.59932" lon="2.25981">
        <ele>763</ele>
        <time>2019-05-18T16:25:17Z</time>
      </trkpt>
      <trkpt lat="45.5993" lon="2.25982">
        <ele>763</ele>
        <time>2019-05-18T16:25:18Z</time>
      </trkpt>
      <trkpt lat="45.59929" lon="2.25983">
        <ele>763</ele>
        <time>2019-05-18T16:25:19Z</time>
      </trkpt>
      <trkpt lat="45.59928" lon="2.25984">
        <ele>763</ele>
        <time>2019-05-18T16:25:20Z</time>
      </trkpt>
      <trkpt lat="45.59926" lon="2.25986">
        <ele>763</ele>
        <time>2019-05-18T16:25:21Z</time>
      </trkpt>
      <trkpt lat="45.59925" lon="2.25988">
        <ele>763</ele>
        <time>2019-05-18T16:25:22Z</time>
      </trkpt>
      <trkpt lat="45.59923" lon="2.25989">
        <ele>763</ele>
        <time>2019-05-18T16:25:23Z</time>
      </trkpt>
      <trkpt lat="45.59921" lon="2.25991">
        <ele>763</ele>
        <time>2019-05-18T16:25:24Z</time>
      </trkpt>
      <trkpt lat="45.5992" lon="2.25992">
        <ele>763</ele>
        <time>2019-05-18T16:25:25Z</time>
      </trkpt>
      <trkpt lat="45.59918" lon="2.25995">
        <ele>763</ele>
        <time>2019-05-18T16:25:26Z</time>
      </trkpt>
      <trkpt lat="45.59916" lon="2.25996">
        <ele>763</ele>
        <time>2019-05-18T16:25:27Z</time>
      </trkpt>
      <trkpt lat="45.59914" lon="2.25998">
        <ele>763</ele>
        <time>2019-05-18T16:25:28Z</time>
      </trkpt>
      <trkpt lat="45.59912" lon="2.26002">
        <ele>763</ele>
        <time>2019-05-18T16:25:29Z</time>
      </trkpt>
      <trkpt lat="45.59909" lon="2.26005">
        <ele>764</ele>
        <time>2019-05-18T16:25:30Z</time>
      </trkpt>
      <trkpt lat="45.59907" lon="2.26009">
        <ele>764</ele>
        <time>2019-05-18T16:25:31Z</time>
      </trkpt>
      <trkpt lat="45.59905" lon="2.2601">
        <ele>764</ele>
        <time>2019-05-18T16:25:32Z</time>
      </trkpt>
      <trkpt lat="45.59905" lon="2.26011">
        <ele>764</ele>
        <time>2019-05-18T16:25:33Z</time>
      </trkpt>
      <trkpt lat="45.59903" lon="2.26012">
        <ele>764</ele>
        <time>2019-05-18T16:25:34Z</time>
      </trkpt>
      <trkpt lat="45.59901" lon="2.26013">
        <ele>764</ele>
        <time>2019-05-18T16:25:35Z</time>
      </trkpt>
      <trkpt lat="45.59898" lon="2.26014">
        <ele>764</ele>
        <time>2019-05-18T16:25:36Z</time>
      </trkpt>
      <trkpt lat="45.59897" lon="2.26015">
        <ele>764</ele>
        <time>2019-05-18T16:25:37Z</time>
      </trkpt>
      <trkpt lat="45.59894" lon="2.26016">
        <ele>764</ele>
        <time>2019-05-18T16:25:38Z</time>
      </trkpt>
      <trkpt lat="45.59892" lon="2.26018">
        <ele>764</ele>
        <time>2019-05-18T16:25:39Z</time>
      </trkpt>
      <trkpt lat="45.59889" lon="2.2602">
        <ele>765</ele>
        <time>2019-05-18T16:25:40Z</time>
      </trkpt>
      <trkpt lat="45.59886" lon="2.26024">
        <ele>765</ele>
        <time>2019-05-18T16:25:41Z</time>
      </trkpt>
      <trkpt lat="45.59883" lon="2.26027">
        <ele>765</ele>
        <time>2019-05-18T16:25:42Z</time>
      </trkpt>
      <trkpt lat="45.59879" lon="2.26033">
        <ele>764</ele>
        <time>2019-05-18T16:25:43Z</time>
      </trkpt>
      <trkpt lat="45.59876" lon="2.26036">
        <ele>764</ele>
        <time>2019-05-18T16:25:44Z</time>
      </trkpt>
      <trkpt lat="45.59873" lon="2.26039">
        <ele>764</ele>
        <time>2019-05-18T16:25:45Z</time>
      </trkpt>
      <trkpt lat="45.5987" lon="2.26043">
        <ele>764</ele>
        <time>2019-05-18T16:25:46Z</time>
      </trkpt>
      <trkpt lat="45.59867" lon="2.26046">
        <ele>765</ele>
        <time>2019-05-18T16:25:47Z</time>
      </trkpt>
      <trkpt lat="45.59865" lon="2.26049">
        <ele>765</ele>
        <time>2019-05-18T16:25:48Z</time>
      </trkpt>
      <trkpt lat="45.59863" lon="2.26051">
        <ele>765</ele>
        <time>2019-05-18T16:25:49Z</time>
      </trkpt>
      <trkpt lat="45.5986" lon="2.26054">
        <ele>765</ele>
        <time>2019-05-18T16:25:50Z</time>
      </trkpt>
      <trkpt lat="45.59857" lon="2.26058">
        <ele>765</ele>
        <time>2019-05-18T16:25:51Z</time>
      </trkpt>
      <trkpt lat="45.59855" lon="2.26061">
        <ele>765</ele>
        <time>2019-05-18T16:25:52Z</time>
      </trkpt>
      <trkpt lat="45.59852" lon="2.26065">
        <ele>765</ele>
        <time>2019-05-18T16:25:53Z</time>
      </trkpt>
      <trkpt lat="45.5985" lon="2.26069">
        <ele>765</ele>
        <time>2019-05-18T16:25:54Z</time>
      </trkpt>
      <trkpt lat="45.59848" lon="2.26072">
        <ele>765</ele>
        <time>2019-05-18T16:25:55Z</time>
      </trkpt>
      <trkpt lat="45.59846" lon="2.26075">
        <ele>765</ele>
        <time>2019-05-18T16:25:56Z</time>
      </trkpt>
      <trkpt lat="45.59844" lon="2.26077">
        <ele>765</ele>
        <time>2019-05-18T16:25:57Z</time>
      </trkpt>
      <trkpt lat="45.59842" lon="2.26081">
        <ele>765</ele>
        <time>2019-05-18T16:25:58Z</time>
      </trkpt>
      <trkpt lat="45.5984" lon="2.26083">
        <ele>765</ele>
        <time>2019-05-18T16:25:59Z</time>
      </trkpt>
      <trkpt lat="45.59838" lon="2.26086">
        <ele>765</ele>
        <time>2019-05-18T16:26:00Z</time>
      </trkpt>
      <trkpt lat="45.59836" lon="2.26089">
        <ele>765</ele>
        <time>2019-05-18T16:26:01Z</time>
      </trkpt>
      <trkpt lat="45.59834" lon="2.26092">
        <ele>765</ele>
        <time>2019-05-18T16:26:02Z</time>
      </trkpt>
      <trkpt lat="45.59832" lon="2.26096">
        <ele>765</ele>
        <time>2019-05-18T16:26:03Z</time>
      </trkpt>
      <trkpt lat="45.5983" lon="2.26099">
        <ele>765</ele>
        <time>2019-05-18T16:26:04Z</time>
      </trkpt>
      <trkpt lat="45.59827" lon="2.26103">
        <ele>765</ele>
        <time>2019-05-18T16:26:05Z</time>
      </trkpt>
      <trkpt lat="45.59825" lon="2.26106">
        <ele>765</ele>
        <time>2019-05-18T16:26:06Z</time>
      </trkpt>
      <trkpt lat="45.59822" lon="2.26108">
        <ele>765</ele>
        <time>2019-05-18T16:26:07Z</time>
      </trkpt>
      <trkpt lat="45.5982" lon="2.26111">
        <ele>765</ele>
        <time>2019-05-18T16:26:08Z</time>
      </trkpt>
      <trkpt lat="45.59817" lon="2.26115">
        <ele>765</ele>
        <time>2019-05-18T16:26:09Z</time>
      </trkpt>
      <trkpt lat="45.59815" lon="2.26119">
        <ele>764</ele>
        <time>2019-05-18T16:26:10Z</time>
      </trkpt>
      <trkpt lat="45.59812" lon="2.26123">
        <ele>764</ele>
        <time>2019-05-18T16:26:11Z</time>
      </trkpt>
      <trkpt lat="45.59809" lon="2.26127">
        <ele>764</ele>
        <time>2019-05-18T16:26:12Z</time>
      </trkpt>
      <trkpt lat="45.59806" lon="2.26131">
        <ele>764</ele>
        <time>2019-05-18T16:26:13Z</time>
      </trkpt>
      <trkpt lat="45.59804" lon="2.26135">
        <ele>764</ele>
        <time>2019-05-18T16:26:14Z</time>
      </trkpt>
      <trkpt lat="45.59801" lon="2.26138">
        <ele>764</ele>
        <time>2019-05-18T16:26:15Z</time>
      </trkpt>
      <trkpt lat="45.59799" lon="2.26143">
        <ele>764</ele>
        <time>2019-05-18T16:26:16Z</time>
      </trkpt>
      <trkpt lat="45.59796" lon="2.26147">
        <ele>764</ele>
        <time>2019-05-18T16:26:17Z</time>
      </trkpt>
      <trkpt lat="45.59794" lon="2.26151">
        <ele>764</ele>
        <time>2019-05-18T16:26:18Z</time>
      </trkpt>
      <trkpt lat="45.59793" lon="2.26153">
        <ele>764</ele>
        <time>2019-05-18T16:26:19Z</time>
      </trkpt>
      <trkpt lat="45.5979" lon="2.26155">
        <ele>764</ele>
        <time>2019-05-18T16:26:20Z</time>
      </trkpt>
      <trkpt lat="45.59787" lon="2.26158">
        <ele>764</ele>
        <time>2019-05-18T16:26:21Z</time>
      </trkpt>
      <trkpt lat="45.59785" lon="2.2616">
        <ele>764</ele>
        <time>2019-05-18T16:26:22Z</time>
      </trkpt>
      <trkpt lat="45.59782" lon="2.26161">
        <ele>763</ele>
        <time>2019-05-18T16:26:23Z</time>
      </trkpt>
      <trkpt lat="45.59779" lon="2.26163">
        <ele>763</ele>
        <time>2019-05-18T16:26:24Z</time>
      </trkpt>
      <trkpt lat="45.59776" lon="2.26165">
        <ele>763</ele>
        <time>2019-05-18T16:26:25Z</time>
      </trkpt>
      <trkpt lat="45.59774" lon="2.26165">
        <ele>763</ele>
        <time>2019-05-18T16:26:26Z</time>
      </trkpt>
      <trkpt lat="45.59771" lon="2.26164">
        <ele>763</ele>
        <time>2019-05-18T16:26:27Z</time>
      </trkpt>
      <trkpt lat="45.5977" lon="2.26166">
        <ele>763</ele>
        <time>2019-05-18T16:26:28Z</time>
      </trkpt>
      <trkpt lat="45.59768" lon="2.26166">
        <ele>763</ele>
        <time>2019-05-18T16:26:29Z</time>
      </trkpt>
      <trkpt lat="45.59766" lon="2.26167">
        <ele>763</ele>
        <time>2019-05-18T16:26:30Z</time>
      </trkpt>
      <trkpt lat="45.59762" lon="2.26168">
        <ele>763</ele>
        <time>2019-05-18T16:26:31Z</time>
      </trkpt>
      <trkpt lat="45.5976" lon="2.26169">
        <ele>763</ele>
        <time>2019-05-18T16:26:32Z</time>
      </trkpt>
      <trkpt lat="45.59759" lon="2.26172">
        <ele>763</ele>
        <time>2019-05-18T16:26:33Z</time>
      </trkpt>
      <trkpt lat="45.59756" lon="2.26173">
        <ele>763</ele>
        <time>2019-05-18T16:26:34Z</time>
      </trkpt>
      <trkpt lat="45.59753" lon="2.26174">
        <ele>763</ele>
        <time>2019-05-18T16:26:35Z</time>
      </trkpt>
      <trkpt lat="45.59752" lon="2.26174">
        <ele>763</ele>
        <time>2019-05-18T16:26:36Z</time>
      </trkpt>
      <trkpt lat="45.5975" lon="2.26175">
        <ele>763</ele>
        <time>2019-05-18T16:26:37Z</time>
      </trkpt>
      <trkpt lat="45.59746" lon="2.26178">
        <ele>763</ele>
        <time>2019-05-18T16:26:38Z</time>
      </trkpt>
      <trkpt lat="45.59744" lon="2.26179">
        <ele>763</ele>
        <time>2019-05-18T16:26:39Z</time>
      </trkpt>
      <trkpt lat="45.5974" lon="2.2618">
        <ele>762</ele>
        <time>2019-05-18T16:26:40Z</time>
      </trkpt>
      <trkpt lat="45.59739" lon="2.2618">
        <ele>762</ele>
        <time>2019-05-18T16:26:41Z</time>
      </trkpt>
      <trkpt lat="45.59738" lon="2.2618">
        <ele>762</ele>
        <time>2019-05-18T16:26:42Z</time>
      </trkpt>
      <trkpt lat="45.59735" lon="2.26181">
        <ele>762</ele>
        <time>2019-05-18T16:26:43Z</time>
      </trkpt>
      <trkpt lat="45.59733" lon="2.26183">
        <ele>762</ele>
        <time>2019-05-18T16:26:44Z</time>
      </trkpt>
      <trkpt lat="45.5973" lon="2.26186">
        <ele>762</ele>
        <time>2019-05-18T16:26:45Z</time>
      </trkpt>
      <trkpt lat="45.59726" lon="2.26189">
        <ele>762</ele>
        <time>2019-05-18T16:26:46Z</time>
      </trkpt>
      <trkpt lat="45.59723" lon="2.2619">
        <ele>762</ele>
        <time>2019-05-18T16:26:47Z</time>
      </trkpt>
      <trkpt lat="45.5972" lon="2.26191">
        <ele>762</ele>
        <time>2019-05-18T16:26:48Z</time>
      </trkpt>
      <trkpt lat="45.59717" lon="2.26191">
        <ele>762</ele>
        <time>2019-05-18T16:26:49Z</time>
      </trkpt>
      <trkpt lat="45.59715" lon="2.26192">
        <ele>762</ele>
        <time>2019-05-18T16:26:50Z</time>
      </trkpt>
      <trkpt lat="45.59711" lon="2.26193">
        <ele>762</ele>
        <time>2019-05-18T16:26:51Z</time>
      </trkpt>
      <trkpt lat="45.59706" lon="2.26195">
        <ele>762</ele>
        <time>2019-05-18T16:26:52Z</time>
      </trkpt>
      <trkpt lat="45.59705" lon="2.26196">
        <ele>762</ele>
        <time>2019-05-18T16:26:53Z</time>
      </trkpt>
      <trkpt lat="45.59702" lon="2.26197">
        <ele>762</ele>
        <time>2019-05-18T16:26:54Z</time>
      </trkpt>
      <trkpt lat="45.59698" lon="2.26203">
        <ele>762</ele>
        <time>2019-05-18T16:26:55Z</time>
      </trkpt>
      <trkpt lat="45.59696" lon="2.26204">
        <ele>762</ele>
        <time>2019-05-18T16:26:56Z</time>
      </trkpt>
      <trkpt lat="45.59691" lon="2.26207">
        <ele>762</ele>
        <time>2019-05-18T16:26:57Z</time>
      </trkpt>
      <trkpt lat="45.59688" lon="2.2621">
        <ele>762</ele>
        <time>2019-05-18T16:26:58Z</time>
      </trkpt>
      <trkpt lat="45.59685" lon="2.26212">
        <ele>762</ele>
        <time>2019-05-18T16:26:59Z</time>
      </trkpt>
      <trkpt lat="45.59682" lon="2.26214">
        <ele>762</ele>
        <time>2019-05-18T16:27:00Z</time>
      </trkpt>
      <trkpt lat="45.59679" lon="2.26219">
        <ele>762</ele>
        <time>2019-05-18T16:27:01Z</time>
      </trkpt>
      <trkpt lat="45.59676" lon="2.26223">
        <ele>762</ele>
        <time>2019-05-18T16:27:02Z</time>
      </trkpt>
      <trkpt lat="45.59672" lon="2.26225">
        <ele>761</ele>
        <time>2019-05-18T16:27:03Z</time>
      </trkpt>
      <trkpt lat="45.59668" lon="2.26228">
        <ele>761</ele>
        <time>2019-05-18T16:27:04Z</time>
      </trkpt>
      <trkpt lat="45.59664" lon="2.2623">
        <ele>761</ele>
        <time>2019-05-18T16:27:05Z</time>
      </trkpt>
      <trkpt lat="45.59661" lon="2.26233">
        <ele>760</ele>
        <time>2019-05-18T16:27:06Z</time>
      </trkpt>
      <trkpt lat="45.59659" lon="2.26237">
        <ele>760</ele>
        <time>2019-05-18T16:27:07Z</time>
      </trkpt>
      <trkpt lat="45.59655" lon="2.26238">
        <ele>760</ele>
        <time>2019-05-18T16:27:08Z</time>
      </trkpt>
      <trkpt lat="45.5965" lon="2.26243">
        <ele>760</ele>
        <time>2019-05-18T16:27:09Z</time>
      </trkpt>
      <trkpt lat="45.59648" lon="2.26247">
        <ele>759</ele>
        <time>2019-05-18T16:27:10Z</time>
      </trkpt>
      <trkpt lat="45.59645" lon="2.26251">
        <ele>759</ele>
        <time>2019-05-18T16:27:11Z</time>
      </trkpt>
      <trkpt lat="45.59642" lon="2.26256">
        <ele>759</ele>
        <time>2019-05-18T16:27:12Z</time>
      </trkpt>
      <trkpt lat="45.59638" lon="2.26264">
        <ele>759</ele>
        <time>2019-05-18T16:27:13Z</time>
      </trkpt>
      <trkpt lat="45.59636" lon="2.2627">
        <ele>758</ele>
        <time>2019-05-18T16:27:14Z</time>
      </trkpt>
      <trkpt lat="45.59632" lon="2.26278">
        <ele>758</ele>
        <time>2019-05-18T16:27:15Z</time>
      </trkpt>
      <trkpt lat="45.59629" lon="2.26286">
        <ele>758</ele>
        <time>2019-05-18T16:27:16Z</time>
      </trkpt>
      <trkpt lat="45.59625" lon="2.2629">
        <ele>758</ele>
        <time>2019-05-18T16:27:17Z</time>
      </trkpt>
      <trkpt lat="45.5962" lon="2.26294">
        <ele>758</ele>
        <time>2019-05-18T16:27:18Z</time>
      </trkpt>
      <trkpt lat="45.59614" lon="2.263">
        <ele>758</ele>
        <time>2019-05-18T16:27:19Z</time>
      </trkpt>
      <trkpt lat="45.5961" lon="2.26304">
        <ele>758</ele>
        <time>2019-05-18T16:27:20Z</time>
      </trkpt>
      <trkpt lat="45.59607" lon="2.26307">
        <ele>758</ele>
        <time>2019-05-18T16:27:21Z</time>
      </trkpt>
      <trkpt lat="45.59603" lon="2.2631">
        <ele>758</ele>
        <time>2019-05-18T16:27:22Z</time>
      </trkpt>
      <trkpt lat="45.596" lon="2.26311">
        <ele>758</ele>
        <time>2019-05-18T16:27:23Z</time>
      </trkpt>
      <trkpt lat="45.59598" lon="2.26313">
        <ele>758</ele>
        <time>2019-05-18T16:27:24Z</time>
      </trkpt>
      <trkpt lat="45.59596" lon="2.26318">
        <ele>758</ele>
        <time>2019-05-18T16:27:25Z</time>
      </trkpt>
      <trkpt lat="45.59592" lon="2.26323">
        <ele>759</ele>
        <time>2019-05-18T16:27:26Z</time>
      </trkpt>
      <trkpt lat="45.59589" lon="2.26327">
        <ele>759</ele>
        <time>2019-05-18T16:27:27Z</time>
      </trkpt>
      <trkpt lat="45.59587" lon="2.26328">
        <ele>759</ele>
        <time>2019-05-18T16:27:28Z</time>
      </trkpt>
      <trkpt lat="45.59584" lon="2.26331">
        <ele>759</ele>
        <time>2019-05-18T16:27:29Z</time>
      </trkpt>
      <trkpt lat="45.59582" lon="2.26333">
        <ele>759</ele>
        <time>2019-05-18T16:27:30Z</time>
      </trkpt>
      <trkpt lat="45.5958" lon="2.26336">
        <ele>759</ele>
        <time>2019-05-18T16:27:31Z</time>
      </trkpt>
      <trkpt lat="45.59578" lon="2.26337">
        <ele>759</ele>
        <time>2019-05-18T16:27:32Z</time>
      </trkpt>
      <trkpt lat="45.59575" lon="2.2634">
        <ele>759</ele>
        <time>2019-05-18T16:27:33Z</time>
      </trkpt>
      <trkpt lat="45.59573" lon="2.26342">
        <ele>759</ele>
        <time>2019-05-18T16:27:34Z</time>
      </trkpt>
      <trkpt lat="45.59571" lon="2.26346">
        <ele>759</ele>
        <time>2019-05-18T16:27:35Z</time>
      </trkpt>
      <trkpt lat="45.59569" lon="2.26348">
        <ele>759</ele>
        <time>2019-05-18T16:27:36Z</time>
      </trkpt>
      <trkpt lat="45.59568" lon="2.2635">
        <ele>759</ele>
        <time>2019-05-18T16:27:37Z</time>
      </trkpt>
      <trkpt lat="45.59566" lon="2.26352">
        <ele>760</ele>
        <time>2019-05-18T16:27:38Z</time>
      </trkpt>
      <trkpt lat="45.59565" lon="2.26354">
        <ele>760</ele>
        <time>2019-05-18T16:27:39Z</time>
      </trkpt>
      <trkpt lat="45.59564" lon="2.26355">
        <ele>760</ele>
        <time>2019-05-18T16:27:40Z</time>
      </trkpt>
      <trkpt lat="45.59562" lon="2.26359">
        <ele>760</ele>
        <time>2019-05-18T16:27:41Z</time>
      </trkpt>
      <trkpt lat="45.59559" lon="2.26362">
        <ele>760</ele>
        <time>2019-05-18T16:27:42Z</time>
      </trkpt>
      <trkpt lat="45.59556" lon="2.26365">
        <ele>760</ele>
        <time>2019-05-18T16:27:43Z</time>
      </trkpt>
      <trkpt lat="45.59553" lon="2.26367">
        <ele>760</ele>
        <time>2019-05-18T16:27:44Z</time>
      </trkpt>
      <trkpt lat="45.5955" lon="2.26371">
        <ele>760</ele>
        <time>2019-05-18T16:27:45Z</time>
      </trkpt>
      <trkpt lat="45.59546" lon="2.26374">
        <ele>760</ele>
        <time>2019-05-18T16:27:46Z</time>
      </trkpt>
      <trkpt lat="45.59545" lon="2.26377">
        <ele>761</ele>
        <time>2019-05-18T16:27:47Z</time>
      </trkpt>
      <trkpt lat="45.59543" lon="2.26378">
        <ele>761</ele>
        <time>2019-05-18T16:27:48Z</time>
      </trkpt>
      <trkpt lat="45.59539" lon="2.26383">
        <ele>761</ele>
        <time>2019-05-18T16:27:49Z</time>
      </trkpt>
      <trkpt lat="45.59536" lon="2.26385">
        <ele>761</ele>
        <time>2019-05-18T16:27:50Z</time>
      </trkpt>
      <trkpt lat="45.59534" lon="2.26388">
        <ele>761</ele>
        <time>2019-05-18T16:27:51Z</time>
      </trkpt>
      <trkpt lat="45.59532" lon="2.26391">
        <ele>761</ele>
        <time>2019-05-18T16:27:52Z</time>
      </trkpt>
      <trkpt lat="45.59529" lon="2.26394">
        <ele>761</ele>
        <time>2019-05-18T16:27:53Z</time>
      </trkpt>
      <trkpt lat="45.59526" lon="2.26398">
        <ele>761</ele>
        <time>2019-05-18T16:27:54Z</time>
      </trkpt>
      <trkpt lat="45.59525" lon="2.264">
        <ele>761</ele>
        <time>2019-05-18T16:27:55Z</time>
      </trkpt>
      <trkpt lat="45.59522" lon="2.26403">
        <ele>761</ele>
        <time>2019-05-18T16:27:56Z</time>
      </trkpt>
      <trkpt lat="45.59519" lon="2.26408">
        <ele>762</ele>
        <time>2019-05-18T16:27:57Z</time>
      </trkpt>
      <trkpt lat="45.59516" lon="2.2641">
        <ele>762</ele>
        <time>2019-05-18T16:27:58Z</time>
      </trkpt>
      <trkpt lat="45.59513" lon="2.26417">
        <ele>762</ele>
        <time>2019-05-18T16:27:59Z</time>
      </trkpt>
      <trkpt lat="45.59509" lon="2.26422">
        <ele>762</ele>
        <time>2019-05-18T16:28:00Z</time>
      </trkpt>
      <trkpt lat="45.59506" lon="2.26425">
        <ele>762</ele>
        <time>2019-05-18T16:28:01Z</time>
      </trkpt>
      <trkpt lat="45.59503" lon="2.26429">
        <ele>762</ele>
        <time>2019-05-18T16:28:02Z</time>
      </trkpt>
      <trkpt lat="45.595" lon="2.26432">
        <ele>762</ele>
        <time>2019-05-18T16:28:03Z</time>
      </trkpt>
      <trkpt lat="45.59497" lon="2.26435">
        <ele>762</ele>
        <time>2019-05-18T16:28:04Z</time>
      </trkpt>
      <trkpt lat="45.59494" lon="2.26439">
        <ele>762</ele>
        <time>2019-05-18T16:28:05Z</time>
      </trkpt>
      <trkpt lat="45.59492" lon="2.26442">
        <ele>763</ele>
        <time>2019-05-18T16:28:06Z</time>
      </trkpt>
      <trkpt lat="45.5949" lon="2.26443">
        <ele>763</ele>
        <time>2019-05-18T16:28:07Z</time>
      </trkpt>
      <trkpt lat="45.59487" lon="2.26446">
        <ele>763</ele>
        <time>2019-05-18T16:28:08Z</time>
      </trkpt>
      <trkpt lat="45.59485" lon="2.26449">
        <ele>763</ele>
        <time>2019-05-18T16:28:09Z</time>
      </trkpt>
      <trkpt lat="45.59483" lon="2.26451">
        <ele>763</ele>
        <time>2019-05-18T16:28:10Z</time>
      </trkpt>
      <trkpt lat="45.59481" lon="2.26454">
        <ele>763</ele>
        <time>2019-05-18T16:28:11Z</time>
      </trkpt>
      <trkpt lat="45.59479" lon="2.26458">
        <ele>763</ele>
        <time>2019-05-18T16:28:12Z</time>
      </trkpt>
      <trkpt lat="45.59476" lon="2.2646">
        <ele>764</ele>
        <time>2019-05-18T16:28:13Z</time>
      </trkpt>
      <trkpt lat="45.59473" lon="2.26463">
        <ele>764</ele>
        <time>2019-05-18T16:28:14Z</time>
      </trkpt>
      <trkpt lat="45.59471" lon="2.26466">
        <ele>764</ele>
        <time>2019-05-18T16:28:15Z</time>
      </trkpt>
      <trkpt lat="45.59469" lon="2.26468">
        <ele>764</ele>
        <time>2019-05-18T16:28:16Z</time>
      </trkpt>
      <trkpt lat="45.59466" lon="2.26473">
        <ele>764</ele>
        <time>2019-05-18T16:28:17Z</time>
      </trkpt>
      <trkpt lat="45.59464" lon="2.26475">
        <ele>764</ele>
        <time>2019-05-18T16:28:18Z</time>
      </trkpt>
      <trkpt lat="45.59462" lon="2.26477">
        <ele>764</ele>
        <time>2019-05-18T16:28:19Z</time>
      </trkpt>
      <trkpt lat="45.5946" lon="2.26479">
        <ele>764</ele>
        <time>2019-05-18T16:28:20Z</time>
      </trkpt>
      <trkpt lat="45.59457" lon="2.26481">
        <ele>764</ele>
        <time>2019-05-18T16:28:21Z</time>
      </trkpt>
      <trkpt lat="45.59455" lon="2.26486">
        <ele>764</ele>
        <time>2019-05-18T16:28:22Z</time>
      </trkpt>
      <trkpt lat="45.59452" lon="2.2649">
        <ele>764</ele>
        <time>2019-05-18T16:28:23Z</time>
      </trkpt>
      <trkpt lat="45.59449" lon="2.26493">
        <ele>764</ele>
        <time>2019-05-18T16:28:24Z</time>
      </trkpt>
      <trkpt lat="45.59446" lon="2.26497">
        <ele>764</ele>
        <time>2019-05-18T16:28:25Z</time>
      </trkpt>
      <trkpt lat="45.59442" lon="2.26502">
        <ele>764</ele>
        <time>2019-05-18T16:28:26Z</time>
      </trkpt>
      <trkpt lat="45.59439" lon="2.26504">
        <ele>764</ele>
        <time>2019-05-18T16:28:27Z</time>
      </trkpt>
      <trkpt lat="45.59436" lon="2.26508">
        <ele>764</ele>
        <time>2019-05-18T16:28:28Z</time>
      </trkpt>
      <trkpt lat="45.59434" lon="2.26512">
        <ele>764</ele>
        <time>2019-05-18T16:28:29Z</time>
      </trkpt>
      <trkpt lat="45.59432" lon="2.26517">
        <ele>764</ele>
        <time>2019-05-18T16:28:30Z</time>
      </trkpt>
      <trkpt lat="45.5943" lon="2.26521">
        <ele>765</ele>
        <time>2019-05-18T16:28:31Z</time>
      </trkpt>
      <trkpt lat="45.59428" lon="2.26527">
        <ele>765</ele>
        <time>2019-05-18T16:28:32Z</time>
      </trkpt>
      <trkpt lat="45.59427" lon="2.26531">
        <ele>765</ele>
        <time>2019-05-18T16:28:33Z</time>
      </trkpt>
      <trkpt lat="45.59426" lon="2.26536">
        <ele>765</ele>
        <time>2019-05-18T16:28:34Z</time>
      </trkpt>
      <trkpt lat="45.59425" lon="2.26541">
        <ele>765</ele>
        <time>2019-05-18T16:28:35Z</time>
      </trkpt>
      <trkpt lat="45.59425" lon="2.26545">
        <ele>765</ele>
        <time>2019-05-18T16:28:36Z</time>
      </trkpt>
      <trkpt lat="45.59425" lon="2.26551">
        <ele>765</ele>
        <time>2019-05-18T16:28:37Z</time>
      </trkpt>
      <trkpt lat="45.59425" lon="2.26555">
        <ele>765</ele>
        <time>2019-05-18T16:28:38Z</time>
      </trkpt>
      <trkpt lat="45.59427" lon="2.26558">
        <ele>765</ele>
        <time>2019-05-18T16:28:39Z</time>
      </trkpt>
      <trkpt lat="45.59429" lon="2.2656">
        <ele>765</ele>
        <time>2019-05-18T16:28:40Z</time>
      </trkpt>
      <trkpt lat="45.5943" lon="2.26562">
        <ele>766</ele>
        <time>2019-05-18T16:28:41Z</time>
      </trkpt>
      <trkpt lat="45.59432" lon="2.26564">
        <ele>766</ele>
        <time>2019-05-18T16:28:42Z</time>
      </trkpt>
      <trkpt lat="45.59434" lon="2.26565">
        <ele>766</ele>
        <time>2019-05-18T16:28:43Z</time>
      </trkpt>
      <trkpt lat="45.59436" lon="2.26566">
        <ele>766</ele>
        <time>2019-05-18T16:28:44Z</time>
      </trkpt>
      <trkpt lat="45.59437" lon="2.26568">
        <ele>766</ele>
        <time>2019-05-18T16:28:45Z</time>
      </trkpt>
      <trkpt lat="45.59439" lon="2.2657">
        <ele>767</ele>
        <time>2019-05-18T16:28:46Z</time>
      </trkpt>
      <trkpt lat="45.59442" lon="2.2657">
        <ele>767</ele>
        <time>2019-05-18T16:28:47Z</time>
      </trkpt>
      <trkpt lat="45.59444" lon="2.26571">
        <ele>767</ele>
        <time>2019-05-18T16:28:48Z</time>
      </trkpt>
      <trkpt lat="45.59445" lon="2.26573">
        <ele>767</ele>
        <time>2019-05-18T16:28:49Z</time>
      </trkpt>
      <trkpt lat="45.59447" lon="2.26574">
        <ele>767</ele>
        <time>2019-05-18T16:28:50Z</time>
      </trkpt>
      <trkpt lat="45.59449" lon="2.26574">
        <ele>767</ele>
        <time>2019-05-18T16:28:51Z</time>
      </trkpt>
      <trkpt lat="45.5945" lon="2.26574">
        <ele>767</ele>
        <time>2019-05-18T16:28:52Z</time>
      </trkpt>
      <trkpt lat="45.59452" lon="2.26573">
        <ele>768</ele>
        <time>2019-05-18T16:28:53Z</time>
      </trkpt>
      <trkpt lat="45.59454" lon="2.26574">
        <ele>768</ele>
        <time>2019-05-18T16:28:54Z</time>
      </trkpt>
      <trkpt lat="45.59455" lon="2.26575">
        <ele>768</ele>
        <time>2019-05-18T16:28:55Z</time>
      </trkpt>
      <trkpt lat="45.59458" lon="2.26576">
        <ele>768</ele>
        <time>2019-05-18T16:28:56Z</time>
      </trkpt>
      <trkpt lat="45.5946" lon="2.26576">
        <ele>768</ele>
        <time>2019-05-18T16:28:57Z</time>
      </trkpt>
      <trkpt lat="45.59461" lon="2.26576">
        <ele>768</ele>
        <time>2019-05-18T16:28:58Z</time>
      </trkpt>
      <trkpt lat="45.59462" lon="2.26577">
        <ele>768</ele>
        <time>2019-05-18T16:28:59Z</time>
      </trkpt>
      <trkpt lat="45.59464" lon="2.26577">
        <ele>768</ele>
        <time>2019-05-18T16:29:00Z</time>
      </trkpt>
      <trkpt lat="45.59465" lon="2.26578">
        <ele>769</ele>
        <time>2019-05-18T16:29:01Z</time>
      </trkpt>
      <trkpt lat="45.59466" lon="2.26579">
        <ele>769</ele>
        <time>2019-05-18T16:29:02Z</time>
      </trkpt>
      <trkpt lat="45.59468" lon="2.26579">
        <ele>769</ele>
        <time>2019-05-18T16:29:03Z</time>
      </trkpt>
      <trkpt lat="45.59469" lon="2.2658">
        <ele>769</ele>
        <time>2019-05-18T16:29:04Z</time>
      </trkpt>
      <trkpt lat="45.59471" lon="2.26581">
        <ele>769</ele>
        <time>2019-05-18T16:29:05Z</time>
      </trkpt>
      <trkpt lat="45.59472" lon="2.26581">
        <ele>769</ele>
        <time>2019-05-18T16:29:06Z</time>
      </trkpt>
      <trkpt lat="45.59475" lon="2.26581">
        <ele>769</ele>
        <time>2019-05-18T16:29:07Z</time>
      </trkpt>
      <trkpt lat="45.59477" lon="2.26582">
        <ele>770</ele>
        <time>2019-05-18T16:29:08Z</time>
      </trkpt>
      <trkpt lat="45.59478" lon="2.26582">
        <ele>770</ele>
        <time>2019-05-18T16:29:09Z</time>
      </trkpt>
      <trkpt lat="45.5948" lon="2.26582">
        <ele>770</ele>
        <time>2019-05-18T16:29:10Z</time>
      </trkpt>
      <trkpt lat="45.59482" lon="2.26582">
        <ele>770</ele>
        <time>2019-05-18T16:29:11Z</time>
      </trkpt>
      <trkpt lat="45.59484" lon="2.26581">
        <ele>770</ele>
        <time>2019-05-18T16:29:12Z</time>
      </trkpt>
      <trkpt lat="45.59486" lon="2.26582">
        <ele>770</ele>
        <time>2019-05-18T16:29:13Z</time>
      </trkpt>
      <trkpt lat="45.59487" lon="2.26582">
        <ele>770</ele>
        <time>2019-05-18T16:29:14Z</time>
      </trkpt>
      <trkpt lat="45.59489" lon="2.26581">
        <ele>771</ele>
        <time>2019-05-18T16:29:15Z</time>
      </trkpt>
      <trkpt lat="45.59491" lon="2.26581">
        <ele>771</ele>
        <time>2019-05-18T16:29:16Z</time>
      </trkpt>
      <trkpt lat="45.59492" lon="2.26581">
        <ele>771</ele>
        <time>2019-05-18T16:29:17Z</time>
      </trkpt>
      <trkpt lat="45.59494" lon="2.26581">
        <ele>771</ele>
        <time>2019-05-18T16:29:18Z</time>
      </trkpt>
      <trkpt lat="45.59495" lon="2.26581">
        <ele>771</ele>
        <time>2019-05-18T16:29:19Z</time>
      </trkpt>
      <trkpt lat="45.59497" lon="2.26581">
        <ele>771</ele>
        <time>2019-05-18T16:29:20Z</time>
      </trkpt>
      <trkpt lat="45.59498" lon="2.26581">
        <ele>771</ele>
        <time>2019-05-18T16:29:21Z</time>
      </trkpt>
      <trkpt lat="45.595" lon="2.2658">
        <ele>771</ele>
        <time>2019-05-18T16:29:22Z</time>
      </trkpt>
      <trkpt lat="45.595" lon="2.26581">
        <ele>772</ele>
        <time>2019-05-18T16:29:23Z</time>
      </trkpt>
      <trkpt lat="45.59501" lon="2.26581">
        <ele>772</ele>
        <time>2019-05-18T16:29:24Z</time>
      </trkpt>
      <trkpt lat="45.59503" lon="2.26581">
        <ele>772</ele>
        <time>2019-05-18T16:29:25Z</time>
      </trkpt>
      <trkpt lat="45.59505" lon="2.2658">
        <ele>772</ele>
        <time>2019-05-18T16:29:26Z</time>
      </trkpt>
      <trkpt lat="45.59506" lon="2.2658">
        <ele>772</ele>
        <time>2019-05-18T16:29:27Z</time>
      </trkpt>
      <trkpt lat="45.59508" lon="2.2658">
        <ele>772</ele>
        <time>2019-05-18T16:29:28Z</time>
      </trkpt>
      <trkpt lat="45.5951" lon="2.26581">
        <ele>772</ele>
        <time>2019-05-18T16:29:29Z</time>
      </trkpt>
      <trkpt lat="45.59511" lon="2.26581">
        <ele>773</ele>
        <time>2019-05-18T16:29:30Z</time>
      </trkpt>
      <trkpt lat="45.59512" lon="2.26582">
        <ele>773</ele>
        <time>2019-05-18T16:29:31Z</time>
      </trkpt>
      <trkpt lat="45.59514" lon="2.26581">
        <ele>773</ele>
        <time>2019-05-18T16:29:32Z</time>
      </trkpt>
      <trkpt lat="45.59516" lon="2.2658">
        <ele>773</ele>
        <time>2019-05-18T16:29:33Z</time>
      </trkpt>
      <trkpt lat="45.59518" lon="2.26579">
        <ele>773</ele>
        <time>2019-05-18T16:29:34Z</time>
      </trkpt>
      <trkpt lat="45.5952" lon="2.26578">
        <ele>773</ele>
        <time>2019-05-18T16:29:35Z</time>
      </trkpt>
      <trkpt lat="45.59523" lon="2.26577">
        <ele>774</ele>
        <time>2019-05-18T16:29:36Z</time>
      </trkpt>
      <trkpt lat="45.59525" lon="2.26576">
        <ele>774</ele>
        <time>2019-05-18T16:29:37Z</time>
      </trkpt>
      <trkpt lat="45.59526" lon="2.26576">
        <ele>774</ele>
        <time>2019-05-18T16:29:38Z</time>
      </trkpt>
      <trkpt lat="45.59527" lon="2.26576">
        <ele>774</ele>
        <time>2019-05-18T16:29:39Z</time>
      </trkpt>
      <trkpt lat="45.59529" lon="2.26576">
        <ele>774</ele>
        <time>2019-05-18T16:29:40Z</time>
      </trkpt>
      <trkpt lat="45.5953" lon="2.26576">
        <ele>774</ele>
        <time>2019-05-18T16:29:41Z</time>
      </trkpt>
      <trkpt lat="45.59531" lon="2.26575">
        <ele>775</ele>
        <time>2019-05-18T16:29:42Z</time>
      </trkpt>
      <trkpt lat="45.59533" lon="2.26575">
        <ele>775</ele>
        <time>2019-05-18T16:29:43Z</time>
      </trkpt>
      <trkpt lat="45.59534" lon="2.26574">
        <ele>775</ele>
        <time>2019-05-18T16:29:44Z</time>
      </trkpt>
      <trkpt lat="45.59536" lon="2.26574">
        <ele>775</ele>
        <time>2019-05-18T16:29:45Z</time>
      </trkpt>
      <trkpt lat="45.59538" lon="2.26572">
        <ele>775</ele>
        <time>2019-05-18T16:29:46Z</time>
      </trkpt>
      <trkpt lat="45.59541" lon="2.26571">
        <ele>775</ele>
        <time>2019-05-18T16:29:47Z</time>
      </trkpt>
      <trkpt lat="45.59543" lon="2.2657">
        <ele>775</ele>
        <time>2019-05-18T16:29:48Z</time>
      </trkpt>
      <trkpt lat="45.59545" lon="2.2657">
        <ele>776</ele>
        <time>2019-05-18T16:29:49Z</time>
      </trkpt>
      <trkpt lat="45.59547" lon="2.2657">
        <ele>776</ele>
        <time>2019-05-18T16:29:50Z</time>
      </trkpt>
      <trkpt lat="45.59549" lon="2.26569">
        <ele>776</ele>
        <time>2019-05-18T16:29:51Z</time>
      </trkpt>
      <trkpt lat="45.59552" lon="2.26567">
        <ele>776</ele>
        <time>2019-05-18T16:29:52Z</time>
      </trkpt>
      <trkpt lat="45.59554" lon="2.26567">
        <ele>776</ele>
        <time>2019-05-18T16:29:53Z</time>
      </trkpt>
      <trkpt lat="45.59556" lon="2.26565">
        <ele>776</ele>
        <time>2019-05-18T16:29:54Z</time>
      </trkpt>
      <trkpt lat="45.59557" lon="2.26565">
        <ele>777</ele>
        <time>2019-05-18T16:29:55Z</time>
      </trkpt>
      <trkpt lat="45.59558" lon="2.26565">
        <ele>777</ele>
        <time>2019-05-18T16:29:56Z</time>
      </trkpt>
      <trkpt lat="45.5956" lon="2.26565">
        <ele>777</ele>
        <time>2019-05-18T16:29:57Z</time>
      </trkpt>
      <trkpt lat="45.59562" lon="2.26564">
        <ele>777</ele>
        <time>2019-05-18T16:29:58Z</time>
      </trkpt>
      <trkpt lat="45.59564" lon="2.26564">
        <ele>777</ele>
        <time>2019-05-18T16:29:59Z</time>
      </trkpt>
      <trkpt lat="45.59565" lon="2.26564">
        <ele>777</ele>
        <time>2019-05-18T16:30:00Z</time>
      </trkpt>
      <trkpt lat="45.59566" lon="2.26564">
        <ele>777</ele>
        <time>2019-05-18T16:30:01Z</time>
      </trkpt>
      <trkpt lat="45.59568" lon="2.26564">
        <ele>778</ele>
        <time>2019-05-18T16:30:02Z</time>
      </trkpt>
      <trkpt lat="45.5957" lon="2.26564">
        <ele>778</ele>
        <time>2019-05-18T16:30:03Z</time>
      </trkpt>
      <trkpt lat="45.59572" lon="2.26564">
        <ele>778</ele>
        <time>2019-05-18T16:30:04Z</time>
      </trkpt>
      <trkpt lat="45.59574" lon="2.26564">
        <ele>778</ele>
        <time>2019-05-18T16:30:05Z</time>
      </trkpt>
      <trkpt lat="45.59575" lon="2.26564">
        <ele>778</ele>
        <time>2019-05-18T16:30:06Z</time>
      </trkpt>
      <trkpt lat="45.59577" lon="2.26564">
        <ele>778</ele>
        <time>2019-05-18T16:30:07Z</time>
      </trkpt>
      <trkpt lat="45.59577" lon="2.26564">
        <ele>778</ele>
        <time>2019-05-18T16:30:08Z</time>
      </trkpt>
      <trkpt lat="45.59578" lon="2.26564">
        <ele>779</ele>
        <time>2019-05-18T16:30:09Z</time>
      </trkpt>
      <trkpt lat="45.5958" lon="2.26563">
        <ele>779</ele>
        <time>2019-05-18T16:30:10Z</time>
      </trkpt>
      <trkpt lat="45.59581" lon="2.26563">
        <ele>779</ele>
        <time>2019-05-18T16:30:11Z</time>
      </trkpt>
      <trkpt lat="45.59583" lon="2.26562">
        <ele>779</ele>
        <time>2019-05-18T16:30:12Z</time>
      </trkpt>
      <trkpt lat="45.59585" lon="2.26563">
        <ele>779</ele>
        <time>2019-05-18T16:30:13Z</time>
      </trkpt>
      <trkpt lat="45.59586" lon="2.26563">
        <ele>779</ele>
        <time>2019-05-18T16:30:14Z</time>
      </trkpt>
      <trkpt lat="45.59587" lon="2.26562">
        <ele>779</ele>
        <time>2019-05-18T16:30:15Z</time>
      </trkpt>
      <trkpt lat="45.5959" lon="2.26562">
        <ele>780</ele>
        <time>2019-05-18T16:30:16Z</time>
      </trkpt>
      <trkpt lat="45.59592" lon="2.26563">
        <ele>780</ele>
        <time>2019-05-18T16:30:17Z</time>
      </trkpt>
      <trkpt lat="45.59593" lon="2.26563">
        <ele>780</ele>
        <time>2019-05-18T16:30:18Z</time>
      </trkpt>
      <trkpt lat="45.59596" lon="2.26564">
        <ele>780</ele>
        <time>2019-05-18T16:30:19Z</time>
      </trkpt>
      <trkpt lat="45.59597" lon="2.26564">
        <ele>780</ele>
        <time>2019-05-18T16:30:20Z</time>
      </trkpt>
      <trkpt lat="45.59599" lon="2.26563">
        <ele>780</ele>
        <time>2019-05-18T16:30:21Z</time>
      </trkpt>
      <trkpt lat="45.59601" lon="2.26562">
        <ele>780</ele>
        <time>2019-05-18T16:30:22Z</time>
      </trkpt>
      <trkpt lat="45.59603" lon="2.26562">
        <ele>780</ele>
        <time>2019-05-18T16:30:23Z</time>
      </trkpt>
      <trkpt lat="45.59604" lon="2.26562">
        <ele>781</ele>
        <time>2019-05-18T16:30:24Z</time>
      </trkpt>
      <trkpt lat="45.59606" lon="2.26563">
        <ele>781</ele>
        <time>2019-05-18T16:30:25Z</time>
      </trkpt>
      <trkpt lat="45.59607" lon="2.26564">
        <ele>781</ele>
        <time>2019-05-18T16:30:26Z</time>
      </trkpt>
      <trkpt lat="45.59608" lon="2.26565">
        <ele>781</ele>
        <time>2019-05-18T16:30:27Z</time>
      </trkpt>
      <trkpt lat="45.5961" lon="2.26566">
        <ele>781</ele>
        <time>2019-05-18T16:30:28Z</time>
      </trkpt>
      <trkpt lat="45.59611" lon="2.26567">
        <ele>781</ele>
        <time>2019-05-18T16:30:29Z</time>
      </trkpt>
      <trkpt lat="45.59613" lon="2.26568">
        <ele>781</ele>
        <time>2019-05-18T16:30:30Z</time>
      </trkpt>
      <trkpt lat="45.59615" lon="2.26568">
        <ele>781</ele>
        <time>2019-05-18T16:30:31Z</time>
      </trkpt>
      <trkpt lat="45.59617" lon="2.26569">
        <ele>781</ele>
        <time>2019-05-18T16:30:32Z</time>
      </trkpt>
      <trkpt lat="45.59619" lon="2.2657">
        <ele>782</ele>
        <time>2019-05-18T16:30:33Z</time>
      </trkpt>
      <trkpt lat="45.5962" lon="2.2657">
        <ele>782</ele>
        <time>2019-05-18T16:30:34Z</time>
      </trkpt>
      <trkpt lat="45.59622" lon="2.2657">
        <ele>782</ele>
        <time>2019-05-18T16:30:35Z</time>
      </trkpt>
      <trkpt lat="45.59625" lon="2.26569">
        <ele>782</ele>
        <time>2019-05-18T16:30:36Z</time>
      </trkpt>
      <trkpt lat="45.59627" lon="2.26569">
        <ele>782</ele>
        <time>2019-05-18T16:30:37Z</time>
      </trkpt>
      <trkpt lat="45.59629" lon="2.26569">
        <ele>782</ele>
        <time>2019-05-18T16:30:38Z</time>
      </trkpt>
      <trkpt lat="45.5963" lon="2.26569">
        <ele>782</ele>
        <time>2019-05-18T16:30:39Z</time>
      </trkpt>
      <trkpt lat="45.59633" lon="2.26569">
        <ele>782</ele>
        <time>2019-05-18T16:30:40Z</time>
      </trkpt>
      <trkpt lat="45.59635" lon="2.26569">
        <ele>782</ele>
        <time>2019-05-18T16:30:41Z</time>
      </trkpt>
      <trkpt lat="45.59639" lon="2.26569">
        <ele>782</ele>
        <time>2019-05-18T16:30:42Z</time>
      </trkpt>
      <trkpt lat="45.59641" lon="2.2657">
        <ele>783</ele>
        <time>2019-05-18T16:30:43Z</time>
      </trkpt>
      <trkpt lat="45.59641" lon="2.26572">
        <ele>783</ele>
        <time>2019-05-18T16:30:44Z</time>
      </trkpt>
      <trkpt lat="45.59643" lon="2.26573">
        <ele>783</ele>
        <time>2019-05-18T16:30:45Z</time>
      </trkpt>
      <trkpt lat="45.59643" lon="2.26574">
        <ele>783</ele>
        <time>2019-05-18T16:30:46Z</time>
      </trkpt>
      <trkpt lat="45.59645" lon="2.26576">
        <ele>783</ele>
        <time>2019-05-18T16:30:47Z</time>
      </trkpt>
      <trkpt lat="45.59647" lon="2.26579">
        <ele>783</ele>
        <time>2019-05-18T16:30:48Z</time>
      </trkpt>
      <trkpt lat="45.59648" lon="2.26579">
        <ele>783</ele>
        <time>2019-05-18T16:30:49Z</time>
      </trkpt>
      <trkpt lat="45.59648" lon="2.2658">
        <ele>783</ele>
        <time>2019-05-18T16:30:50Z</time>
      </trkpt>
      <trkpt lat="45.59649" lon="2.26581">
        <ele>783</ele>
        <time>2019-05-18T16:30:51Z</time>
      </trkpt>
      <trkpt lat="45.59651" lon="2.26582">
        <ele>783</ele>
        <time>2019-05-18T16:30:52Z</time>
      </trkpt>
      <trkpt lat="45.59652" lon="2.26584">
        <ele>784</ele>
        <time>2019-05-18T16:30:53Z</time>
      </trkpt>
      <trkpt lat="45.59653" lon="2.26586">
        <ele>784</ele>
        <time>2019-05-18T16:30:54Z</time>
      </trkpt>
      <trkpt lat="45.59654" lon="2.26587">
        <ele>784</ele>
        <time>2019-05-18T16:30:55Z</time>
      </trkpt>
      <trkpt lat="45.59655" lon="2.26589">
        <ele>784</ele>
        <time>2019-05-18T16:30:56Z</time>
      </trkpt>
      <trkpt lat="45.59657" lon="2.2659">
        <ele>784</ele>
        <time>2019-05-18T16:30:57Z</time>
      </trkpt>
      <trkpt lat="45.59658" lon="2.26591">
        <ele>784</ele>
        <time>2019-05-18T16:30:58Z</time>
      </trkpt>
      <trkpt lat="45.5966" lon="2.26593">
        <ele>784</ele>
        <time>2019-05-18T16:30:59Z</time>
      </trkpt>
      <trkpt lat="45.59663" lon="2.26593">
        <ele>784</ele>
        <time>2019-05-18T16:31:00Z</time>
      </trkpt>
      <trkpt lat="45.59666" lon="2.26594">
        <ele>784</ele>
        <time>2019-05-18T16:31:01Z</time>
      </trkpt>
      <trkpt lat="45.59669" lon="2.26596">
        <ele>784</ele>
        <time>2019-05-18T16:31:02Z</time>
      </trkpt>
      <trkpt lat="45.59671" lon="2.26597">
        <ele>785</ele>
        <time>2019-05-18T16:31:03Z</time>
      </trkpt>
      <trkpt lat="45.59674" lon="2.26598">
        <ele>785</ele>
        <time>2019-05-18T16:31:04Z</time>
      </trkpt>
      <trkpt lat="45.59677" lon="2.26598">
        <ele>785</ele>
        <time>2019-05-18T16:31:05Z</time>
      </trkpt>
      <trkpt lat="45.59679" lon="2.266">
        <ele>785</ele>
        <time>2019-05-18T16:31:06Z</time>
      </trkpt>
      <trkpt lat="45.5968" lon="2.26601">
        <ele>785</ele>
        <time>2019-05-18T16:31:07Z</time>
      </trkpt>
      <trkpt lat="45.59681" lon="2.26602">
        <ele>785</ele>
        <time>2019-05-18T16:31:08Z</time>
      </trkpt>
      <trkpt lat="45.59682" lon="2.26602">
        <ele>785</ele>
        <time>2019-05-18T16:31:09Z</time>
      </trkpt>
      <trkpt lat="45.59683" lon="2.26602">
        <ele>785</ele>
        <time>2019-05-18T16:31:10Z</time>
      </trkpt>
      <trkpt lat="45.59686" lon="2.26602">
        <ele>785</ele>
        <time>2019-05-18T16:31:11Z</time>
      </trkpt>
      <trkpt lat="45.59689" lon="2.26602">
        <ele>785</ele>
        <time>2019-05-18T16:31:12Z</time>
      </trkpt>
      <trkpt lat="45.59691" lon="2.26603">
        <ele>785</ele>
        <time>2019-05-18T16:31:13Z</time>
      </trkpt>
      <trkpt lat="45.59694" lon="2.26603">
        <ele>785</ele>
        <time>2019-05-18T16:31:14Z</time>
      </trkpt>
      <trkpt lat="45.59696" lon="2.26603">
        <ele>786</ele>
        <time>2019-05-18T16:31:15Z</time>
      </trkpt>
      <trkpt lat="45.59698" lon="2.26603">
        <ele>786</ele>
        <time>2019-05-18T16:31:16Z</time>
      </trkpt>
      <trkpt lat="45.59701" lon="2.26603">
        <ele>786</ele>
        <time>2019-05-18T16:31:17Z</time>
      </trkpt>
      <trkpt lat="45.59703" lon="2.26603">
        <ele>786</ele>
        <time>2019-05-18T16:31:18Z</time>
      </trkpt>
      <trkpt lat="45.59706" lon="2.26604">
        <ele>786</ele>
        <time>2019-05-18T16:31:19Z</time>
      </trkpt>
      <trkpt lat="45.59708" lon="2.26604">
        <ele>786</ele>
        <time>2019-05-18T16:31:20Z</time>
      </trkpt>
      <trkpt lat="45.59711" lon="2.26605">
        <ele>786</ele>
        <time>2019-05-18T16:31:21Z</time>
      </trkpt>
      <trkpt lat="45.59713" lon="2.26606">
        <ele>786</ele>
        <time>2019-05-18T16:31:22Z</time>
      </trkpt>
      <trkpt lat="45.59715" lon="2.26607">
        <ele>786</ele>
        <time>2019-05-18T16:31:23Z</time>
      </trkpt>
      <trkpt lat="45.59717" lon="2.26607">
        <ele>786</ele>
        <time>2019-05-18T16:31:24Z</time>
      </trkpt>
      <trkpt lat="45.59718" lon="2.26607">
        <ele>786</ele>
        <time>2019-05-18T16:31:25Z</time>
      </trkpt>
      <trkpt lat="45.59721" lon="2.26607">
        <ele>786</ele>
        <time>2019-05-18T16:31:26Z</time>
      </trkpt>
      <trkpt lat="45.59722" lon="2.26607">
        <ele>786</ele>
        <time>2019-05-18T16:31:27Z</time>
      </trkpt>
      <trkpt lat="45.59723" lon="2.26607">
        <ele>786</ele>
        <time>2019-05-18T16:31:28Z</time>
      </trkpt>
      <trkpt lat="45.59726" lon="2.26609">
        <ele>786</ele>
        <time>2019-05-18T16:31:29Z</time>
      </trkpt>
      <trkpt lat="45.59727" lon="2.2661">
        <ele>786</ele>
        <time>2019-05-18T16:31:30Z</time>
      </trkpt>
      <trkpt lat="45.59729" lon="2.26612">
        <ele>786</ele>
        <time>2019-05-18T16:31:31Z</time>
      </trkpt>
      <trkpt lat="45.59731" lon="2.26614">
        <ele>786</ele>
        <time>2019-05-18T16:31:32Z</time>
      </trkpt>
      <trkpt lat="45.59733" lon="2.26616">
        <ele>786</ele>
        <time>2019-05-18T16:31:33Z</time>
      </trkpt>
      <trkpt lat="45.59735" lon="2.26617">
        <ele>786</ele>
        <time>2019-05-18T16:31:34Z</time>
      </trkpt>
      <trkpt lat="45.59736" lon="2.26618">
        <ele>786</ele>
        <time>2019-05-18T16:31:35Z</time>
      </trkpt>
      <trkpt lat="45.59738" lon="2.26619">
        <ele>786</ele>
        <time>2019-05-18T16:31:36Z</time>
      </trkpt>
      <trkpt lat="45.5974" lon="2.2662">
        <ele>787</ele>
        <time>2019-05-18T16:31:37Z</time>
      </trkpt>
      <trkpt lat="45.5974" lon="2.26621">
        <ele>787</ele>
        <time>2019-05-18T16:31:38Z</time>
      </trkpt>
      <trkpt lat="45.59742" lon="2.26623">
        <ele>786</ele>
        <time>2019-05-18T16:31:39Z</time>
      </trkpt>
      <trkpt lat="45.59745" lon="2.26623">
        <ele>786</ele>
        <time>2019-05-18T16:31:40Z</time>
      </trkpt>
      <trkpt lat="45.59748" lon="2.26625">
        <ele>786</ele>
        <time>2019-05-18T16:31:41Z</time>
      </trkpt>
      <trkpt lat="45.59751" lon="2.26625">
        <ele>786</ele>
        <time>2019-05-18T16:31:42Z</time>
      </trkpt>
      <trkpt lat="45.59754" lon="2.26626">
        <ele>786</ele>
        <time>2019-05-18T16:31:43Z</time>
      </trkpt>
      <trkpt lat="45.59757" lon="2.26627">
        <ele>786</ele>
        <time>2019-05-18T16:31:44Z</time>
      </trkpt>
      <trkpt lat="45.5976" lon="2.26627">
        <ele>786</ele>
        <time>2019-05-18T16:31:45Z</time>
      </trkpt>
      <trkpt lat="45.59762" lon="2.26627">
        <ele>786</ele>
        <time>2019-05-18T16:31:46Z</time>
      </trkpt>
      <trkpt lat="45.59764" lon="2.26628">
        <ele>786</ele>
        <time>2019-05-18T16:31:47Z</time>
      </trkpt>
      <trkpt lat="45.59766" lon="2.2663">
        <ele>786</ele>
        <time>2019-05-18T16:31:48Z</time>
      </trkpt>
      <trkpt lat="45.59769" lon="2.2663">
        <ele>785</ele>
        <time>2019-05-18T16:31:49Z</time>
      </trkpt>
      <trkpt lat="45.59772" lon="2.26632">
        <ele>785</ele>
        <time>2019-05-18T16:31:50Z</time>
      </trkpt>
      <trkpt lat="45.59775" lon="2.26634">
        <ele>785</ele>
        <time>2019-05-18T16:31:51Z</time>
      </trkpt>
      <trkpt lat="45.59778" lon="2.26634">
        <ele>785</ele>
        <time>2019-05-18T16:31:52Z</time>
      </trkpt>
      <trkpt lat="45.59783" lon="2.26636">
        <ele>785</ele>
        <time>2019-05-18T16:31:53Z</time>
      </trkpt>
      <trkpt lat="45.59788" lon="2.26637">
        <ele>785</ele>
        <time>2019-05-18T16:31:54Z</time>
      </trkpt>
      <trkpt lat="45.59792" lon="2.26638">
        <ele>785</ele>
        <time>2019-05-18T16:31:55Z</time>
      </trkpt>
      <trkpt lat="45.59796" lon="2.26638">
        <ele>785</ele>
        <time>2019-05-18T16:31:56Z</time>
      </trkpt>
      <trkpt lat="45.59799" lon="2.26638">
        <ele>785</ele>
        <time>2019-05-18T16:31:57Z</time>
      </trkpt>
      <trkpt lat="45.59802" lon="2.2664">
        <ele>784</ele>
        <time>2019-05-18T16:31:58Z</time>
      </trkpt>
      <trkpt lat="45.59805" lon="2.26641">
        <ele>784</ele>
        <time>2019-05-18T16:31:59Z</time>
      </trkpt>
      <trkpt lat="45.59809" lon="2.26642">
        <ele>784</ele>
        <time>2019-05-18T16:32:00Z</time>
      </trkpt>
      <trkpt lat="45.59811" lon="2.26642">
        <ele>784</ele>
        <time>2019-05-18T16:32:01Z</time>
      </trkpt>
      <trkpt lat="45.59814" lon="2.26644">
        <ele>784</ele>
        <time>2019-05-18T16:32:02Z</time>
      </trkpt>
      <trkpt lat="45.59818" lon="2.26644">
        <ele>784</ele>
        <time>2019-05-18T16:32:03Z</time>
      </trkpt>
      <trkpt lat="45.59822" lon="2.26644">
        <ele>783</ele>
        <time>2019-05-18T16:32:04Z</time>
      </trkpt>
      <trkpt lat="45.59826" lon="2.26645">
        <ele>783</ele>
        <time>2019-05-18T16:32:05Z</time>
      </trkpt>
      <trkpt lat="45.59831" lon="2.26645">
        <ele>783</ele>
        <time>2019-05-18T16:32:06Z</time>
      </trkpt>
      <trkpt lat="45.59836" lon="2.26647">
        <ele>783</ele>
        <time>2019-05-18T16:32:07Z</time>
      </trkpt>
      <trkpt lat="45.59841" lon="2.26647">
        <ele>782</ele>
        <time>2019-05-18T16:32:08Z</time>
      </trkpt>
      <trkpt lat="45.59847" lon="2.26648">
        <ele>782</ele>
        <time>2019-05-18T16:32:09Z</time>
      </trkpt>
      <trkpt lat="45.59851" lon="2.2665">
        <ele>782</ele>
        <time>2019-05-18T16:32:10Z</time>
      </trkpt>
      <trkpt lat="45.59855" lon="2.26651">
        <ele>782</ele>
        <time>2019-05-18T16:32:11Z</time>
      </trkpt>
      <trkpt lat="45.59859" lon="2.26651">
        <ele>782</ele>
        <time>2019-05-18T16:32:12Z</time>
      </trkpt>
      <trkpt lat="45.59863" lon="2.26652">
        <ele>783</ele>
        <time>2019-05-18T16:32:13Z</time>
      </trkpt>
      <trkpt lat="45.59867" lon="2.26652">
        <ele>783</ele>
        <time>2019-05-18T16:32:14Z</time>
      </trkpt>
      <trkpt lat="45.59871" lon="2.26653">
        <ele>783</ele>
        <time>2019-05-18T16:32:15Z</time>
      </trkpt>
      <trkpt lat="45.59875" lon="2.26654">
        <ele>783</ele>
        <time>2019-05-18T16:32:16Z</time>
      </trkpt>
      <trkpt lat="45.59878" lon="2.26656">
        <ele>783</ele>
        <time>2019-05-18T16:32:17Z</time>
      </trkpt>
      <trkpt lat="45.59881" lon="2.26657">
        <ele>783</ele>
        <time>2019-05-18T16:32:18Z</time>
      </trkpt>
      <trkpt lat="45.59885" lon="2.26659">
        <ele>783</ele>
        <time>2019-05-18T16:32:19Z</time>
      </trkpt>
      <trkpt lat="45.59889" lon="2.26662">
        <ele>783</ele>
        <time>2019-05-18T16:32:20Z</time>
      </trkpt>
      <trkpt lat="45.59892" lon="2.26665">
        <ele>783</ele>
        <time>2019-05-18T16:32:21Z</time>
      </trkpt>
      <trkpt lat="45.59894" lon="2.26667">
        <ele>783</ele>
        <time>2019-05-18T16:32:22Z</time>
      </trkpt>
      <trkpt lat="45.59897" lon="2.26668">
        <ele>783</ele>
        <time>2019-05-18T16:32:23Z</time>
      </trkpt>
      <trkpt lat="45.599" lon="2.26669">
        <ele>783</ele>
        <time>2019-05-18T16:32:24Z</time>
      </trkpt>
      <trkpt lat="45.59903" lon="2.2667">
        <ele>783</ele>
        <time>2019-05-18T16:32:25Z</time>
      </trkpt>
      <trkpt lat="45.59905" lon="2.26669">
        <ele>783</ele>
        <time>2019-05-18T16:32:26Z</time>
      </trkpt>
      <trkpt lat="45.59909" lon="2.26668">
        <ele>783</ele>
        <time>2019-05-18T16:32:27Z</time>
      </trkpt>
      <trkpt lat="45.59912" lon="2.26667">
        <ele>783</ele>
        <time>2019-05-18T16:32:28Z</time>
      </trkpt>
      <trkpt lat="45.59915" lon="2.26666">
        <ele>782</ele>
        <time>2019-05-18T16:32:29Z</time>
      </trkpt>
      <trkpt lat="45.59918" lon="2.26666">
        <ele>782</ele>
        <time>2019-05-18T16:32:30Z</time>
      </trkpt>
      <trkpt lat="45.59922" lon="2.26665">
        <ele>782</ele>
        <time>2019-05-18T16:32:31Z</time>
      </trkpt>
      <trkpt lat="45.59926" lon="2.26665">
        <ele>782</ele>
        <time>2019-05-18T16:32:32Z</time>
      </trkpt>
      <trkpt lat="45.59929" lon="2.26665">
        <ele>782</ele>
        <time>2019-05-18T16:32:33Z</time>
      </trkpt>
      <trkpt lat="45.59933" lon="2.26665">
        <ele>782</ele>
        <time>2019-05-18T16:32:34Z</time>
      </trkpt>
      <trkpt lat="45.59936" lon="2.26665">
        <ele>781</ele>
        <time>2019-05-18T16:32:35Z</time>
      </trkpt>
      <trkpt lat="45.5994" lon="2.26664">
        <ele>781</ele>
        <time>2019-05-18T16:32:36Z</time>
      </trkpt>
      <trkpt lat="45.59945" lon="2.26664">
        <ele>781</ele>
        <time>2019-05-18T16:32:37Z</time>
      </trkpt>
      <trkpt lat="45.59949" lon="2.26664">
        <ele>781</ele>
        <time>2019-05-18T16:32:38Z</time>
      </trkpt>
      <trkpt lat="45.59954" lon="2.26664">
        <ele>781</ele>
        <time>2019-05-18T16:32:39Z</time>
      </trkpt>
      <trkpt lat="45.59958" lon="2.26664">
        <ele>781</ele>
        <time>2019-05-18T16:32:40Z</time>
      </trkpt>
      <trkpt lat="45.59962" lon="2.26664">
        <ele>780</ele>
        <time>2019-05-18T16:32:41Z</time>
      </trkpt>
      <trkpt lat="45.59967" lon="2.26664">
        <ele>780</ele>
        <time>2019-05-18T16:32:42Z</time>
      </trkpt>
      <trkpt lat="45.59971" lon="2.26664">
        <ele>780</ele>
        <time>2019-05-18T16:32:43Z</time>
      </trkpt>
      <trkpt lat="45.59976" lon="2.26664">
        <ele>780</ele>
        <time>2019-05-18T16:32:44Z</time>
      </trkpt>
      <trkpt lat="45.5998" lon="2.26663">
        <ele>780</ele>
        <time>2019-05-18T16:32:45Z</time>
      </trkpt>
      <trkpt lat="45.59984" lon="2.26662">
        <ele>780</ele>
        <time>2019-05-18T16:32:46Z</time>
      </trkpt>
      <trkpt lat="45.59988" lon="2.26662">
        <ele>779</ele>
        <time>2019-05-18T16:32:47Z</time>
      </trkpt>
      <trkpt lat="45.59992" lon="2.26661">
        <ele>779</ele>
        <time>2019-05-18T16:32:48Z</time>
      </trkpt>
      <trkpt lat="45.59996" lon="2.26661">
        <ele>779</ele>
        <time>2019-05-18T16:32:49Z</time>
      </trkpt>
      <trkpt lat="45.6" lon="2.2666">
        <ele>779</ele>
        <time>2019-05-18T16:32:50Z</time>
      </trkpt>
      <trkpt lat="45.60004" lon="2.26661">
        <ele>779</ele>
        <time>2019-05-18T16:32:51Z</time>
      </trkpt>
      <trkpt lat="45.60009" lon="2.26661">
        <ele>778</ele>
        <time>2019-05-18T16:32:52Z</time>
      </trkpt>
      <trkpt lat="45.60013" lon="2.26661">
        <ele>778</ele>
        <time>2019-05-18T16:32:53Z</time>
      </trkpt>
      <trkpt lat="45.60018" lon="2.26661">
        <ele>778</ele>
        <time>2019-05-18T16:32:54Z</time>
      </trkpt>
      <trkpt lat="45.60022" lon="2.26661">
        <ele>778</ele>
        <time>2019-05-18T16:32:55Z</time>
      </trkpt>
      <trkpt lat="45.60026" lon="2.26662">
        <ele>778</ele>
        <time>2019-05-18T16:32:56Z</time>
      </trkpt>
      <trkpt lat="45.6003" lon="2.26661">
        <ele>777</ele>
        <time>2019-05-18T16:32:57Z</time>
      </trkpt>
      <trkpt lat="45.60033" lon="2.2666">
        <ele>777</ele>
        <time>2019-05-18T16:32:58Z</time>
      </trkpt>
      <trkpt lat="45.60034" lon="2.26657">
        <ele>777</ele>
        <time>2019-05-18T16:32:59Z</time>
      </trkpt>
      <trkpt lat="45.60035" lon="2.26655">
        <ele>776</ele>
        <time>2019-05-18T16:33:00Z</time>
      </trkpt>
      <trkpt lat="45.60036" lon="2.26654">
        <ele>776</ele>
        <time>2019-05-18T16:33:01Z</time>
      </trkpt>
      <trkpt lat="45.60037" lon="2.26652">
        <ele>775</ele>
        <time>2019-05-18T16:33:02Z</time>
      </trkpt>
      <trkpt lat="45.6004" lon="2.26649">
        <ele>775</ele>
        <time>2019-05-18T16:33:03Z</time>
      </trkpt>
      <trkpt lat="45.60042" lon="2.26647">
        <ele>774</ele>
        <time>2019-05-18T16:33:04Z</time>
      </trkpt>
      <trkpt lat="45.60043" lon="2.26645">
        <ele>774</ele>
        <time>2019-05-18T16:33:05Z</time>
      </trkpt>
      <trkpt lat="45.60044" lon="2.26643">
        <ele>773</ele>
        <time>2019-05-18T16:33:06Z</time>
      </trkpt>
      <trkpt lat="45.60047" lon="2.2664">
        <ele>773</ele>
        <time>2019-05-18T16:33:07Z</time>
      </trkpt>
      <trkpt lat="45.60049" lon="2.26639">
        <ele>772</ele>
        <time>2019-05-18T16:33:08Z</time>
      </trkpt>
      <trkpt lat="45.6005" lon="2.26638">
        <ele>772</ele>
        <time>2019-05-18T16:33:09Z</time>
      </trkpt>
      <trkpt lat="45.60052" lon="2.26635">
        <ele>772</ele>
        <time>2019-05-18T16:33:10Z</time>
      </trkpt>
      <trkpt lat="45.60053" lon="2.26631">
        <ele>771</ele>
        <time>2019-05-18T16:33:11Z</time>
      </trkpt>
      <trkpt lat="45.60054" lon="2.26629">
        <ele>771</ele>
        <time>2019-05-18T16:33:12Z</time>
      </trkpt>
      <trkpt lat="45.60054" lon="2.26626">
        <ele>771</ele>
        <time>2019-05-18T16:33:13Z</time>
      </trkpt>
      <trkpt lat="45.60055" lon="2.26623">
        <ele>771</ele>
        <time>2019-05-18T16:33:14Z</time>
      </trkpt>
      <trkpt lat="45.60057" lon="2.26621">
        <ele>770</ele>
        <time>2019-05-18T16:33:15Z</time>
      </trkpt>
      <trkpt lat="45.60058" lon="2.26619">
        <ele>770</ele>
        <time>2019-05-18T16:33:16Z</time>
      </trkpt>
      <trkpt lat="45.6006" lon="2.26617">
        <ele>770</ele>
        <time>2019-05-18T16:33:17Z</time>
      </trkpt>
      <trkpt lat="45.60061" lon="2.26617">
        <ele>770</ele>
        <time>2019-05-18T16:33:18Z</time>
      </trkpt>
      <trkpt lat="45.60063" lon="2.26614">
        <ele>770</ele>
        <time>2019-05-18T16:33:19Z</time>
      </trkpt>
      <trkpt lat="45.60064" lon="2.26611">
        <ele>769</ele>
        <time>2019-05-18T16:33:20Z</time>
      </trkpt>
      <trkpt lat="45.60066" lon="2.26608">
        <ele>769</ele>
        <time>2019-05-18T16:33:21Z</time>
      </trkpt>
      <trkpt lat="45.60068" lon="2.26604">
        <ele>769</ele>
        <time>2019-05-18T16:33:22Z</time>
      </trkpt>
      <trkpt lat="45.60071" lon="2.26601">
        <ele>769</ele>
        <time>2019-05-18T16:33:23Z</time>
      </trkpt>
      <trkpt lat="45.60073" lon="2.26598">
        <ele>769</ele>
        <time>2019-05-18T16:33:24Z</time>
      </trkpt>
      <trkpt lat="45.60075" lon="2.26594">
        <ele>769</ele>
        <time>2019-05-18T16:33:25Z</time>
      </trkpt>
      <trkpt lat="45.60078" lon="2.26591">
        <ele>769</ele>
        <time>2019-05-18T16:33:26Z</time>
      </trkpt>
      <trkpt lat="45.6008" lon="2.26589">
        <ele>769</ele>
        <time>2019-05-18T16:33:27Z</time>
      </trkpt>
      <trkpt lat="45.60082" lon="2.26586">
        <ele>769</ele>
        <time>2019-05-18T16:33:28Z</time>
      </trkpt>
      <trkpt lat="45.60083" lon="2.26583">
        <ele>769</ele>
        <time>2019-05-18T16:33:29Z</time>
      </trkpt>
      <trkpt lat="45.60085" lon="2.2658">
        <ele>769</ele>
        <time>2019-05-18T16:33:30Z</time>
      </trkpt>
      <trkpt lat="45.60087" lon="2.26577">
        <ele>768</ele>
        <time>2019-05-18T16:33:31Z</time>
      </trkpt>
      <trkpt lat="45.6009" lon="2.26574">
        <ele>768</ele>
        <time>2019-05-18T16:33:32Z</time>
      </trkpt>
      <trkpt lat="45.60093" lon="2.2657">
        <ele>768</ele>
        <time>2019-05-18T16:33:33Z</time>
      </trkpt>
      <trkpt lat="45.60095" lon="2.26567">
        <ele>767</ele>
        <time>2019-05-18T16:33:34Z</time>
      </trkpt>
      <trkpt lat="45.60098" lon="2.26564">
        <ele>767</ele>
        <time>2019-05-18T16:33:35Z</time>
      </trkpt>
      <trkpt lat="45.60101" lon="2.2656">
        <ele>766</ele>
        <time>2019-05-18T16:33:36Z</time>
      </trkpt>
      <trkpt lat="45.60103" lon="2.26555">
        <ele>766</ele>
        <time>2019-05-18T16:33:37Z</time>
      </trkpt>
      <trkpt lat="45.60104" lon="2.26551">
        <ele>765</ele>
        <time>2019-05-18T16:33:38Z</time>
      </trkpt>
      <trkpt lat="45.60106" lon="2.26547">
        <ele>765</ele>
        <time>2019-05-18T16:33:39Z</time>
      </trkpt>
      <trkpt lat="45.60107" lon="2.26542">
        <ele>765</ele>
        <time>2019-05-18T16:33:40Z</time>
      </trkpt>
      <trkpt lat="45.60108" lon="2.26539">
        <ele>765</ele>
        <time>2019-05-18T16:33:41Z</time>
      </trkpt>
      <trkpt lat="45.60109" lon="2.26537">
        <ele>765</ele>
        <time>2019-05-18T16:33:42Z</time>
      </trkpt>
      <trkpt lat="45.60111" lon="2.26535">
        <ele>765</ele>
        <time>2019-05-18T16:33:43Z</time>
      </trkpt>
      <trkpt lat="45.60112" lon="2.26532">
        <ele>765</ele>
        <time>2019-05-18T16:33:44Z</time>
      </trkpt>
      <trkpt lat="45.60113" lon="2.26528">
        <ele>765</ele>
        <time>2019-05-18T16:33:45Z</time>
      </trkpt>
      <trkpt lat="45.60114" lon="2.26526">
        <ele>765</ele>
        <time>2019-05-18T16:33:46Z</time>
      </trkpt>
      <trkpt lat="45.60114" lon="2.26523">
        <ele>765</ele>
        <time>2019-05-18T16:33:47Z</time>
      </trkpt>
      <trkpt lat="45.60116" lon="2.26519">
        <ele>765</ele>
        <time>2019-05-18T16:33:48Z</time>
      </trkpt>
      <trkpt lat="45.60116" lon="2.26517">
        <ele>765</ele>
        <time>2019-05-18T16:33:49Z</time>
      </trkpt>
      <trkpt lat="45.60118" lon="2.26515">
        <ele>764</ele>
        <time>2019-05-18T16:33:50Z</time>
      </trkpt>
      <trkpt lat="45.6012" lon="2.26513">
        <ele>763</ele>
        <time>2019-05-18T16:33:51Z</time>
      </trkpt>
      <trkpt lat="45.60122" lon="2.2651">
        <ele>763</ele>
        <time>2019-05-18T16:33:52Z</time>
      </trkpt>
      <trkpt lat="45.60123" lon="2.26505">
        <ele>762</ele>
        <time>2019-05-18T16:33:53Z</time>
      </trkpt>
      <trkpt lat="45.60125" lon="2.265">
        <ele>762</ele>
        <time>2019-05-18T16:33:54Z</time>
      </trkpt>
      <trkpt lat="45.60127" lon="2.26495">
        <ele>761</ele>
        <time>2019-05-18T16:33:55Z</time>
      </trkpt>
      <trkpt lat="45.60129" lon="2.2649">
        <ele>760</ele>
        <time>2019-05-18T16:33:56Z</time>
      </trkpt>
      <trkpt lat="45.60132" lon="2.2649">
        <ele>760</ele>
        <time>2019-05-18T16:33:57Z</time>
      </trkpt>
      <trkpt lat="45.60133" lon="2.26488">
        <ele>759</ele>
        <time>2019-05-18T16:33:58Z</time>
      </trkpt>
      <trkpt lat="45.60134" lon="2.26486">
        <ele>759</ele>
        <time>2019-05-18T16:33:59Z</time>
      </trkpt>
      <trkpt lat="45.60136" lon="2.26481">
        <ele>758</ele>
        <time>2019-05-18T16:34:00Z</time>
      </trkpt>
      <trkpt lat="45.60136" lon="2.26477">
        <ele>757</ele>
        <time>2019-05-18T16:34:01Z</time>
      </trkpt>
      <trkpt lat="45.60137" lon="2.26474">
        <ele>756</ele>
        <time>2019-05-18T16:34:02Z</time>
      </trkpt>
      <trkpt lat="45.60139" lon="2.26471">
        <ele>756</ele>
        <time>2019-05-18T16:34:03Z</time>
      </trkpt>
      <trkpt lat="45.6014" lon="2.26469">
        <ele>755</ele>
        <time>2019-05-18T16:34:04Z</time>
      </trkpt>
      <trkpt lat="45.60141" lon="2.26467">
        <ele>754</ele>
        <time>2019-05-18T16:34:05Z</time>
      </trkpt>
      <trkpt lat="45.60143" lon="2.26464">
        <ele>753</ele>
        <time>2019-05-18T16:34:06Z</time>
      </trkpt>
      <trkpt lat="45.60144" lon="2.2646">
        <ele>753</ele>
        <time>2019-05-18T16:34:07Z</time>
      </trkpt>
      <trkpt lat="45.60145" lon="2.26458">
        <ele>753</ele>
        <time>2019-05-18T16:34:08Z</time>
      </trkpt>
      <trkpt lat="45.60144" lon="2.26455">
        <ele>752</ele>
        <time>2019-05-18T16:34:09Z</time>
      </trkpt>
      <trkpt lat="45.60144" lon="2.26452">
        <ele>752</ele>
        <time>2019-05-18T16:34:10Z</time>
      </trkpt>
      <trkpt lat="45.60143" lon="2.26449">
        <ele>752</ele>
        <time>2019-05-18T16:34:11Z</time>
      </trkpt>
      <trkpt lat="45.60143" lon="2.26448">
        <ele>752</ele>
        <time>2019-05-18T16:34:12Z</time>
      </trkpt>
      <trkpt lat="45.60143" lon="2.26445">
        <ele>751</ele>
        <time>2019-05-18T16:34:13Z</time>
      </trkpt>
      <trkpt lat="45.60143" lon="2.26442">
        <ele>750</ele>
        <time>2019-05-18T16:34:14Z</time>
      </trkpt>
      <trkpt lat="45.60143" lon="2.26439">
        <ele>750</ele>
        <time>2019-05-18T16:34:15Z</time>
      </trkpt>
      <trkpt lat="45.60143" lon="2.26437">
        <ele>750</ele>
        <time>2019-05-18T16:34:16Z</time>
      </trkpt>
      <trkpt lat="45.60149" lon="2.26413">
        <ele>748</ele>
        <time>2019-05-18T16:34:26Z</time>
      </trkpt>
      <trkpt lat="45.60151" lon="2.26409">
        <ele>748</ele>
        <time>2019-05-18T16:34:27Z</time>
      </trkpt>
      <trkpt lat="45.60152" lon="2.26408">
        <ele>748</ele>
        <time>2019-05-18T16:34:28Z</time>
      </trkpt>
      <trkpt lat="45.60153" lon="2.26405">
        <ele>748</ele>
        <time>2019-05-18T16:34:29Z</time>
      </trkpt>
      <trkpt lat="45.60154" lon="2.26401">
        <ele>747</ele>
        <time>2019-05-18T16:34:30Z</time>
      </trkpt>
      <trkpt lat="45.60156" lon="2.26397">
        <ele>747</ele>
        <time>2019-05-18T16:34:31Z</time>
      </trkpt>
      <trkpt lat="45.60159" lon="2.26393">
        <ele>747</ele>
        <time>2019-05-18T16:34:32Z</time>
      </trkpt>
      <trkpt lat="45.60162" lon="2.2639">
        <ele>747</ele>
        <time>2019-05-18T16:34:33Z</time>
      </trkpt>
      <trkpt lat="45.60164" lon="2.26386">
        <ele>747</ele>
        <time>2019-05-18T16:34:34Z</time>
      </trkpt>
      <trkpt lat="45.60166" lon="2.26385">
        <ele>746</ele>
        <time>2019-05-18T16:34:35Z</time>
      </trkpt>
      <trkpt lat="45.60169" lon="2.26384">
        <ele>745</ele>
        <time>2019-05-18T16:34:36Z</time>
      </trkpt>
      <trkpt lat="45.6017" lon="2.26382">
        <ele>745</ele>
        <time>2019-05-18T16:34:37Z</time>
      </trkpt>
      <trkpt lat="45.60172" lon="2.26377">
        <ele>744</ele>
        <time>2019-05-18T16:34:38Z</time>
      </trkpt>
      <trkpt lat="45.60175" lon="2.26372">
        <ele>743</ele>
        <time>2019-05-18T16:34:39Z</time>
      </trkpt>
      <trkpt lat="45.60178" lon="2.26368">
        <ele>743</ele>
        <time>2019-05-18T16:34:40Z</time>
      </trkpt>
      <trkpt lat="45.6018" lon="2.26363">
        <ele>742</ele>
        <time>2019-05-18T16:34:41Z</time>
      </trkpt>
      <trkpt lat="45.60183" lon="2.26356">
        <ele>742</ele>
        <time>2019-05-18T16:34:42Z</time>
      </trkpt>
      <trkpt lat="45.60185" lon="2.26352">
        <ele>742</ele>
        <time>2019-05-18T16:34:43Z</time>
      </trkpt>
      <trkpt lat="45.60186" lon="2.26348">
        <ele>741</ele>
        <time>2019-05-18T16:34:44Z</time>
      </trkpt>
      <trkpt lat="45.60187" lon="2.26344">
        <ele>741</ele>
        <time>2019-05-18T16:34:45Z</time>
      </trkpt>
      <trkpt lat="45.60188" lon="2.26341">
        <ele>741</ele>
        <time>2019-05-18T16:34:46Z</time>
      </trkpt>
      <trkpt lat="45.60188" lon="2.26339">
        <ele>741</ele>
        <time>2019-05-18T16:34:47Z</time>
      </trkpt>
      <trkpt lat="45.60189" lon="2.26336">
        <ele>741</ele>
        <time>2019-05-18T16:34:48Z</time>
      </trkpt>
      <trkpt lat="45.60189" lon="2.26332">
        <ele>741</ele>
        <time>2019-05-18T16:34:49Z</time>
      </trkpt>
      <trkpt lat="45.60189" lon="2.26329">
        <ele>741</ele>
        <time>2019-05-18T16:34:50Z</time>
      </trkpt>
      <trkpt lat="45.60191" lon="2.26323">
        <ele>741</ele>
        <time>2019-05-18T16:34:51Z</time>
      </trkpt>
      <trkpt lat="45.60194" lon="2.26317">
        <ele>741</ele>
        <time>2019-05-18T16:34:52Z</time>
      </trkpt>
      <trkpt lat="45.60197" lon="2.26311">
        <ele>741</ele>
        <time>2019-05-18T16:34:53Z</time>
      </trkpt>
      <trkpt lat="45.60199" lon="2.26305">
        <ele>741</ele>
        <time>2019-05-18T16:34:54Z</time>
      </trkpt>
      <trkpt lat="45.602" lon="2.263">
        <ele>741</ele>
        <time>2019-05-18T16:34:55Z</time>
      </trkpt>
      <trkpt lat="45.60202" lon="2.26296">
        <ele>741</ele>
        <time>2019-05-18T16:34:56Z</time>
      </trkpt>
      <trkpt lat="45.60206" lon="2.26295">
        <ele>741</ele>
        <time>2019-05-18T16:34:57Z</time>
      </trkpt>
      <trkpt lat="45.60209" lon="2.26295">
        <ele>740</ele>
        <time>2019-05-18T16:34:59Z</time>
      </trkpt>
      <trkpt lat="45.60211" lon="2.26294">
        <ele>740</ele>
        <time>2019-05-18T16:35:00Z</time>
      </trkpt>
      <trkpt lat="45.60212" lon="2.26293">
        <ele>740</ele>
        <time>2019-05-18T16:35:01Z</time>
      </trkpt>
      <trkpt lat="45.60214" lon="2.26291">
        <ele>740</ele>
        <time>2019-05-18T16:35:02Z</time>
      </trkpt>
      <trkpt lat="45.60215" lon="2.2629">
        <ele>740</ele>
        <time>2019-05-18T16:35:03Z</time>
      </trkpt>
      <trkpt lat="45.60216" lon="2.2629">
        <ele>740</ele>
        <time>2019-05-18T16:35:04Z</time>
      </trkpt>
      <trkpt lat="45.60217" lon="2.26291">
        <ele>739</ele>
        <time>2019-05-18T16:35:05Z</time>
      </trkpt>
      <trkpt lat="45.6022" lon="2.26289">
        <ele>738</ele>
        <time>2019-05-18T16:35:06Z</time>
      </trkpt>
      <trkpt lat="45.60222" lon="2.26284">
        <ele>737</ele>
        <time>2019-05-18T16:35:07Z</time>
      </trkpt>
      <trkpt lat="45.60224" lon="2.26281">
        <ele>737</ele>
        <time>2019-05-18T16:35:08Z</time>
      </trkpt>
      <trkpt lat="45.60225" lon="2.2628">
        <ele>736</ele>
        <time>2019-05-18T16:35:09Z</time>
      </trkpt>
      <trkpt lat="45.60226" lon="2.2628">
        <ele>735</ele>
        <time>2019-05-18T16:35:10Z</time>
      </trkpt>
      <trkpt lat="45.60228" lon="2.26283">
        <ele>735</ele>
        <time>2019-05-18T16:35:11Z</time>
      </trkpt>
      <trkpt lat="45.6023" lon="2.26282">
        <ele>734</ele>
        <time>2019-05-18T16:35:12Z</time>
      </trkpt>
      <trkpt lat="45.60232" lon="2.2628">
        <ele>734</ele>
        <time>2019-05-18T16:35:13Z</time>
      </trkpt>
      <trkpt lat="45.60235" lon="2.26277">
        <ele>734</ele>
        <time>2019-05-18T16:35:14Z</time>
      </trkpt>
      <trkpt lat="45.60237" lon="2.26274">
        <ele>734</ele>
        <time>2019-05-18T16:35:15Z</time>
      </trkpt>
      <trkpt lat="45.60241" lon="2.26269">
        <ele>733</ele>
        <time>2019-05-18T16:35:16Z</time>
      </trkpt>
      <trkpt lat="45.60242" lon="2.26264">
        <ele>733</ele>
        <time>2019-05-18T16:35:17Z</time>
      </trkpt>
      <trkpt lat="45.60244" lon="2.2626">
        <ele>732</ele>
        <time>2019-05-18T16:35:18Z</time>
      </trkpt>
      <trkpt lat="45.60247" lon="2.26255">
        <ele>732</ele>
        <time>2019-05-18T16:35:19Z</time>
      </trkpt>
      <trkpt lat="45.60249" lon="2.26248">
        <ele>732</ele>
        <time>2019-05-18T16:35:20Z</time>
      </trkpt>
      <trkpt lat="45.60251" lon="2.26245">
        <ele>732</ele>
        <time>2019-05-18T16:35:21Z</time>
      </trkpt>
      <trkpt lat="45.60253" lon="2.26242">
        <ele>733</ele>
        <time>2019-05-18T16:35:22Z</time>
      </trkpt>
      <trkpt lat="45.60255" lon="2.2624">
        <ele>733</ele>
        <time>2019-05-18T16:35:23Z</time>
      </trkpt>
      <trkpt lat="45.60256" lon="2.26238">
        <ele>732</ele>
        <time>2019-05-18T16:35:24Z</time>
      </trkpt>
      <trkpt lat="45.60259" lon="2.26235">
        <ele>732</ele>
        <time>2019-05-18T16:35:25Z</time>
      </trkpt>
      <trkpt lat="45.6026" lon="2.26232">
        <ele>731</ele>
        <time>2019-05-18T16:35:26Z</time>
      </trkpt>
      <trkpt lat="45.60261" lon="2.2623">
        <ele>731</ele>
        <time>2019-05-18T16:35:27Z</time>
      </trkpt>
      <trkpt lat="45.60262" lon="2.26229">
        <ele>731</ele>
        <time>2019-05-18T16:35:28Z</time>
      </trkpt>
      <trkpt lat="45.60262" lon="2.26227">
        <ele>731</ele>
        <time>2019-05-18T16:35:29Z</time>
      </trkpt>
      <trkpt lat="45.60263" lon="2.26223">
        <ele>731</ele>
        <time>2019-05-18T16:35:30Z</time>
      </trkpt>
      <trkpt lat="45.60266" lon="2.26219">
        <ele>731</ele>
        <time>2019-05-18T16:35:31Z</time>
      </trkpt>
      <trkpt lat="45.60267" lon="2.26215">
        <ele>732</ele>
        <time>2019-05-18T16:35:32Z</time>
      </trkpt>
      <trkpt lat="45.60268" lon="2.26212">
        <ele>732</ele>
        <time>2019-05-18T16:35:33Z</time>
      </trkpt>
      <trkpt lat="45.6027" lon="2.26208">
        <ele>732</ele>
        <time>2019-05-18T16:35:34Z</time>
      </trkpt>
      <trkpt lat="45.60273" lon="2.26205">
        <ele>732</ele>
        <time>2019-05-18T16:35:35Z</time>
      </trkpt>
      <trkpt lat="45.60273" lon="2.26201">
        <ele>731</ele>
        <time>2019-05-18T16:35:36Z</time>
      </trkpt>
      <trkpt lat="45.60275" lon="2.26198">
        <ele>731</ele>
        <time>2019-05-18T16:35:37Z</time>
      </trkpt>
      <trkpt lat="45.60277" lon="2.26194">
        <ele>731</ele>
        <time>2019-05-18T16:35:38Z</time>
      </trkpt>
      <trkpt lat="45.60278" lon="2.2619">
        <ele>731</ele>
        <time>2019-05-18T16:35:39Z</time>
      </trkpt>
      <trkpt lat="45.60279" lon="2.26187">
        <ele>731</ele>
        <time>2019-05-18T16:35:40Z</time>
      </trkpt>
      <trkpt lat="45.60284" lon="2.2618">
        <ele>731</ele>
        <time>2019-05-18T16:35:41Z</time>
      </trkpt>
      <trkpt lat="45.60288" lon="2.26171">
        <ele>730</ele>
        <time>2019-05-18T16:35:43Z</time>
      </trkpt>
      <trkpt lat="45.60293" lon="2.26161">
        <ele>730</ele>
        <time>2019-05-18T16:35:45Z</time>
      </trkpt>
      <trkpt lat="45.60297" lon="2.26151">
        <ele>729</ele>
        <time>2019-05-18T16:35:47Z</time>
      </trkpt>
      <trkpt lat="45.603" lon="2.26147">
        <ele>729</ele>
        <time>2019-05-18T16:35:49Z</time>
      </trkpt>
      <trkpt lat="45.60303" lon="2.26141">
        <ele>729</ele>
        <time>2019-05-18T16:35:50Z</time>
      </trkpt>
      <trkpt lat="45.60304" lon="2.26136">
        <ele>728</ele>
        <time>2019-05-18T16:35:51Z</time>
      </trkpt>
      <trkpt lat="45.60306" lon="2.26131">
        <ele>728</ele>
        <time>2019-05-18T16:35:52Z</time>
      </trkpt>
      <trkpt lat="45.60308" lon="2.26126">
        <ele>728</ele>
        <time>2019-05-18T16:35:53Z</time>
      </trkpt>
      <trkpt lat="45.60309" lon="2.26122">
        <ele>728</ele>
        <time>2019-05-18T16:35:54Z</time>
      </trkpt>
      <trkpt lat="45.60311" lon="2.26118">
        <ele>727</ele>
        <time>2019-05-18T16:35:55Z</time>
      </trkpt>
      <trkpt lat="45.60313" lon="2.26113">
        <ele>727</ele>
        <time>2019-05-18T16:35:56Z</time>
      </trkpt>
      <trkpt lat="45.60317" lon="2.26106">
        <ele>727</ele>
        <time>2019-05-18T16:35:57Z</time>
      </trkpt>
      <trkpt lat="45.6032" lon="2.26102">
        <ele>727</ele>
        <time>2019-05-18T16:35:58Z</time>
      </trkpt>
      <trkpt lat="45.60322" lon="2.26099">
        <ele>726</ele>
        <time>2019-05-18T16:36:00Z</time>
      </trkpt>
      <trkpt lat="45.60324" lon="2.26095">
        <ele>726</ele>
        <time>2019-05-18T16:36:01Z</time>
      </trkpt>
      <trkpt lat="45.60325" lon="2.2609">
        <ele>726</ele>
        <time>2019-05-18T16:36:02Z</time>
      </trkpt>
      <trkpt lat="45.60327" lon="2.26086">
        <ele>726</ele>
        <time>2019-05-18T16:36:03Z</time>
      </trkpt>
      <trkpt lat="45.60327" lon="2.26084">
        <ele>726</ele>
        <time>2019-05-18T16:36:04Z</time>
      </trkpt>
      <trkpt lat="45.60329" lon="2.2608">
        <ele>726</ele>
        <time>2019-05-18T16:36:05Z</time>
      </trkpt>
      <trkpt lat="45.60331" lon="2.26076">
        <ele>726</ele>
        <time>2019-05-18T16:36:06Z</time>
      </trkpt>
      <trkpt lat="45.60333" lon="2.26071">
        <ele>726</ele>
        <time>2019-05-18T16:36:07Z</time>
      </trkpt>
      <trkpt lat="45.60335" lon="2.26067">
        <ele>725</ele>
        <time>2019-05-18T16:36:08Z</time>
      </trkpt>
      <trkpt lat="45.60336" lon="2.26063">
        <ele>725</ele>
        <time>2019-05-18T16:36:09Z</time>
      </trkpt>
      <trkpt lat="45.60339" lon="2.26053">
        <ele>725</ele>
        <time>2019-05-18T16:36:10Z</time>
      </trkpt>
      <trkpt lat="45.60343" lon="2.26045">
        <ele>725</ele>
        <time>2019-05-18T16:36:12Z</time>
      </trkpt>
      <trkpt lat="45.60346" lon="2.26037">
        <ele>724</ele>
        <time>2019-05-18T16:36:14Z</time>
      </trkpt>
      <trkpt lat="45.60347" lon="2.26034">
        <ele>724</ele>
        <time>2019-05-18T16:36:15Z</time>
      </trkpt>
      <trkpt lat="45.60351" lon="2.26031">
        <ele>724</ele>
        <time>2019-05-18T16:36:17Z</time>
      </trkpt>
      <trkpt lat="45.60353" lon="2.26027">
        <ele>724</ele>
        <time>2019-05-18T16:36:18Z</time>
      </trkpt>
      <trkpt lat="45.60355" lon="2.26022">
        <ele>724</ele>
        <time>2019-05-18T16:36:19Z</time>
      </trkpt>
      <trkpt lat="45.60358" lon="2.26018">
        <ele>724</ele>
        <time>2019-05-18T16:36:20Z</time>
      </trkpt>
      <trkpt lat="45.6036" lon="2.26013">
        <ele>724</ele>
        <time>2019-05-18T16:36:21Z</time>
      </trkpt>
      <trkpt lat="45.60362" lon="2.26007">
        <ele>723</ele>
        <time>2019-05-18T16:36:22Z</time>
      </trkpt>
      <trkpt lat="45.60365" lon="2.26002">
        <ele>723</ele>
        <time>2019-05-18T16:36:23Z</time>
      </trkpt>
      <trkpt lat="45.60368" lon="2.25997">
        <ele>723</ele>
        <time>2019-05-18T16:36:24Z</time>
      </trkpt>
      <trkpt lat="45.60371" lon="2.25992">
        <ele>722</ele>
        <time>2019-05-18T16:36:25Z</time>
      </trkpt>
      <trkpt lat="45.60374" lon="2.25989">
        <ele>722</ele>
        <time>2019-05-18T16:36:26Z</time>
      </trkpt>
      <trkpt lat="45.60375" lon="2.25985">
        <ele>722</ele>
        <time>2019-05-18T16:36:27Z</time>
      </trkpt>
      <trkpt lat="45.60377" lon="2.25979">
        <ele>722</ele>
        <time>2019-05-18T16:36:28Z</time>
      </trkpt>
      <trkpt lat="45.6038" lon="2.25976">
        <ele>721</ele>
        <time>2019-05-18T16:36:29Z</time>
      </trkpt>
      <trkpt lat="45.60383" lon="2.25972">
        <ele>721</ele>
        <time>2019-05-18T16:36:30Z</time>
      </trkpt>
      <trkpt lat="45.60386" lon="2.25966">
        <ele>721</ele>
        <time>2019-05-18T16:36:31Z</time>
      </trkpt>
      <trkpt lat="45.60389" lon="2.2596">
        <ele>721</ele>
        <time>2019-05-18T16:36:32Z</time>
      </trkpt>
      <trkpt lat="45.6039" lon="2.25953">
        <ele>721</ele>
        <time>2019-05-18T16:36:33Z</time>
      </trkpt>
      <trkpt lat="45.60391" lon="2.25947">
        <ele>721</ele>
        <time>2019-05-18T16:36:34Z</time>
      </trkpt>
      <trkpt lat="45.60393" lon="2.2594">
        <ele>721</ele>
        <time>2019-05-18T16:36:35Z</time>
      </trkpt>
      <trkpt lat="45.60394" lon="2.25936">
        <ele>721</ele>
        <time>2019-05-18T16:36:36Z</time>
      </trkpt>
      <trkpt lat="45.60397" lon="2.25926">
        <ele>720</ele>
        <time>2019-05-18T16:36:38Z</time>
      </trkpt>
      <trkpt lat="45.604" lon="2.25918">
        <ele>720</ele>
        <time>2019-05-18T16:36:40Z</time>
      </trkpt>
      <trkpt lat="45.604" lon="2.25909">
        <ele>720</ele>
        <time>2019-05-18T16:36:42Z</time>
      </trkpt>
      <trkpt lat="45.604" lon="2.25904">
        <ele>720</ele>
        <time>2019-05-18T16:36:43Z</time>
      </trkpt>
      <trkpt lat="45.60401" lon="2.25899">
        <ele>719</ele>
        <time>2019-05-18T16:36:44Z</time>
      </trkpt>
      <trkpt lat="45.60402" lon="2.25895">
        <ele>719</ele>
        <time>2019-05-18T16:36:45Z</time>
      </trkpt>
      <trkpt lat="45.60403" lon="2.2589">
        <ele>718</ele>
        <time>2019-05-18T16:36:47Z</time>
      </trkpt>
      <trkpt lat="45.60405" lon="2.25887">
        <ele>718</ele>
        <time>2019-05-18T16:36:48Z</time>
      </trkpt>
      <trkpt lat="45.60407" lon="2.25883">
        <ele>717</ele>
        <time>2019-05-18T16:36:49Z</time>
      </trkpt>
      <trkpt lat="45.60408" lon="2.25881">
        <ele>716</ele>
        <time>2019-05-18T16:36:50Z</time>
      </trkpt>
      <trkpt lat="45.6041" lon="2.25879">
        <ele>715</ele>
        <time>2019-05-18T16:36:51Z</time>
      </trkpt>
      <trkpt lat="45.60411" lon="2.25875">
        <ele>714</ele>
        <time>2019-05-18T16:36:52Z</time>
      </trkpt>
      <trkpt lat="45.60411" lon="2.25869">
        <ele>714</ele>
        <time>2019-05-18T16:36:53Z</time>
      </trkpt>
      <trkpt lat="45.60412" lon="2.25863">
        <ele>714</ele>
        <time>2019-05-18T16:36:54Z</time>
      </trkpt>
      <trkpt lat="45.60412" lon="2.25859">
        <ele>713</ele>
        <time>2019-05-18T16:36:55Z</time>
      </trkpt>
      <trkpt lat="45.60411" lon="2.25855">
        <ele>713</ele>
        <time>2019-05-18T16:36:56Z</time>
      </trkpt>
      <trkpt lat="45.60411" lon="2.25848">
        <ele>711</ele>
        <time>2019-05-18T16:36:57Z</time>
      </trkpt>
      <trkpt lat="45.60409" lon="2.25836">
        <ele>711</ele>
        <time>2019-05-18T16:36:58Z</time>
      </trkpt>
      <trkpt lat="45.60409" lon="2.25823">
        <ele>709</ele>
        <time>2019-05-18T16:37:00Z</time>
      </trkpt>
      <trkpt lat="45.60409" lon="2.25809">
        <ele>707</ele>
        <time>2019-05-18T16:37:02Z</time>
      </trkpt>
      <trkpt lat="45.6041" lon="2.25805">
        <ele>706</ele>
        <time>2019-05-18T16:37:03Z</time>
      </trkpt>
      <trkpt lat="45.60411" lon="2.25801">
        <ele>706</ele>
        <time>2019-05-18T16:37:04Z</time>
      </trkpt>
      <trkpt lat="45.60413" lon="2.25798">
        <ele>705</ele>
        <time>2019-05-18T16:37:06Z</time>
      </trkpt>
      <trkpt lat="45.60413" lon="2.25796">
        <ele>704</ele>
        <time>2019-05-18T16:37:07Z</time>
      </trkpt>
      <trkpt lat="45.60414" lon="2.25795">
        <ele>704</ele>
        <time>2019-05-18T16:37:08Z</time>
      </trkpt>
      <trkpt lat="45.60414" lon="2.25794">
        <ele>704</ele>
        <time>2019-05-18T16:37:09Z</time>
      </trkpt>
      <trkpt lat="45.60414" lon="2.25794">
        <ele>705</ele>
        <time>2019-05-18T16:37:10Z</time>
      </trkpt>
      <trkpt lat="45.60413" lon="2.25792">
        <ele>705</ele>
        <time>2019-05-18T16:37:11Z</time>
      </trkpt>
      <trkpt lat="45.60413" lon="2.25792">
        <ele>705</ele>
        <time>2019-05-18T16:37:12Z</time>
      </trkpt>
      <trkpt lat="45.60413" lon="2.25791">
        <ele>705</ele>
        <time>2019-05-18T16:37:13Z</time>
      </trkpt>
      <trkpt lat="45.60414" lon="2.25792">
        <ele>705</ele>
        <time>2019-05-18T16:37:14Z</time>
      </trkpt>
      <trkpt lat="45.60414" lon="2.25792">
        <ele>705</ele>
        <time>2019-05-18T16:37:15Z</time>
      </trkpt>
      <trkpt lat="45.60415" lon="2.25793">
        <ele>705</ele>
        <time>2019-05-18T16:37:16Z</time>
      </trkpt>
      <trkpt lat="45.60415" lon="2.25793">
        <ele>705</ele>
        <time>2019-05-18T16:37:17Z</time>
      </trkpt>
      <trkpt lat="45.60416" lon="2.25793">
        <ele>705</ele>
        <time>2019-05-18T16:37:18Z</time>
      </trkpt>
      <trkpt lat="45.60417" lon="2.25794">
        <ele>705</ele>
        <time>2019-05-18T16:37:19Z</time>
      </trkpt>
      <trkpt lat="45.60419" lon="2.25795">
        <ele>706</ele>
        <time>2019-05-18T16:37:20Z</time>
      </trkpt>
      <trkpt lat="45.60421" lon="2.25797">
        <ele>706</ele>
        <time>2019-05-18T16:37:21Z</time>
      </trkpt>
      <trkpt lat="45.60422" lon="2.25798">
        <ele>706</ele>
        <time>2019-05-18T16:37:22Z</time>
      </trkpt>
      <trkpt lat="45.60422" lon="2.25799">
        <ele>706</ele>
        <time>2019-05-18T16:37:23Z</time>
      </trkpt>
      <trkpt lat="45.60423" lon="2.25799">
        <ele>706</ele>
        <time>2019-05-18T16:37:24Z</time>
      </trkpt>
      <trkpt lat="45.60424" lon="2.258">
        <ele>706</ele>
        <time>2019-05-18T16:37:25Z</time>
      </trkpt>
      <trkpt lat="45.60426" lon="2.25801">
        <ele>706</ele>
        <time>2019-05-18T16:37:26Z</time>
      </trkpt>
      <trkpt lat="45.60427" lon="2.25803">
        <ele>706</ele>
        <time>2019-05-18T16:37:27Z</time>
      </trkpt>
      <trkpt lat="45.60428" lon="2.25804">
        <ele>706</ele>
        <time>2019-05-18T16:37:28Z</time>
      </trkpt>
      <trkpt lat="45.60429" lon="2.25806">
        <ele>706</ele>
        <time>2019-05-18T16:37:30Z</time>
      </trkpt>
      <trkpt lat="45.60429" lon="2.25808">
        <ele>706</ele>
        <time>2019-05-18T16:37:31Z</time>
      </trkpt>
      <trkpt lat="45.60429" lon="2.2581">
        <ele>706</ele>
        <time>2019-05-18T16:37:32Z</time>
      </trkpt>
      <trkpt lat="45.6043" lon="2.25812">
        <ele>706</ele>
        <time>2019-05-18T16:37:33Z</time>
      </trkpt>
      <trkpt lat="45.60431" lon="2.25814">
        <ele>706</ele>
        <time>2019-05-18T16:37:34Z</time>
      </trkpt>
      <trkpt lat="45.60432" lon="2.25818">
        <ele>706</ele>
        <time>2019-05-18T16:37:35Z</time>
      </trkpt>
      <trkpt lat="45.60433" lon="2.2582">
        <ele>706</ele>
        <time>2019-05-18T16:37:36Z</time>
      </trkpt>
      <trkpt lat="45.60434" lon="2.25821">
        <ele>706</ele>
        <time>2019-05-18T16:37:37Z</time>
      </trkpt>
      <trkpt lat="45.60436" lon="2.25822">
        <ele>706</ele>
        <time>2019-05-18T16:37:38Z</time>
      </trkpt>
      <trkpt lat="45.60439" lon="2.25826">
        <ele>707</ele>
        <time>2019-05-18T16:37:40Z</time>
      </trkpt>
      <trkpt lat="45.6044" lon="2.25829">
        <ele>707</ele>
        <time>2019-05-18T16:37:41Z</time>
      </trkpt>
      <trkpt lat="45.60441" lon="2.25832">
        <ele>707</ele>
        <time>2019-05-18T16:37:42Z</time>
      </trkpt>
      <trkpt lat="45.60442" lon="2.25834">
        <ele>707</ele>
        <time>2019-05-18T16:37:43Z</time>
      </trkpt>
      <trkpt lat="45.60442" lon="2.25836">
        <ele>708</ele>
        <time>2019-05-18T16:37:44Z</time>
      </trkpt>
      <trkpt lat="45.60443" lon="2.25838">
        <ele>708</ele>
        <time>2019-05-18T16:37:45Z</time>
      </trkpt>
      <trkpt lat="45.60443" lon="2.2584">
        <ele>709</ele>
        <time>2019-05-18T16:37:46Z</time>
      </trkpt>
      <trkpt lat="45.60444" lon="2.25842">
        <ele>709</ele>
        <time>2019-05-18T16:37:47Z</time>
      </trkpt>
      <trkpt lat="45.60444" lon="2.25844">
        <ele>710</ele>
        <time>2019-05-18T16:37:48Z</time>
      </trkpt>
      <trkpt lat="45.60445" lon="2.25845">
        <ele>710</ele>
        <time>2019-05-18T16:37:50Z</time>
      </trkpt>
      <trkpt lat="45.60446" lon="2.25847">
        <ele>711</ele>
        <time>2019-05-18T16:37:51Z</time>
      </trkpt>
      <trkpt lat="45.60447" lon="2.25847">
        <ele>711</ele>
        <time>2019-05-18T16:37:52Z</time>
      </trkpt>
      <trkpt lat="45.60448" lon="2.25847">
        <ele>711</ele>
        <time>2019-05-18T16:37:53Z</time>
      </trkpt>
      <trkpt lat="45.60449" lon="2.25848">
        <ele>712</ele>
        <time>2019-05-18T16:37:54Z</time>
      </trkpt>
      <trkpt lat="45.60451" lon="2.25849">
        <ele>712</ele>
        <time>2019-05-18T16:37:55Z</time>
      </trkpt>
      <trkpt lat="45.60454" lon="2.25852">
        <ele>712</ele>
        <time>2019-05-18T16:37:56Z</time>
      </trkpt>
      <trkpt lat="45.60457" lon="2.25854">
        <ele>713</ele>
        <time>2019-05-18T16:37:58Z</time>
      </trkpt>
      <trkpt lat="45.60459" lon="2.25855">
        <ele>713</ele>
        <time>2019-05-18T16:38:00Z</time>
      </trkpt>
      <trkpt lat="45.60462" lon="2.25856">
        <ele>713</ele>
        <time>2019-05-18T16:38:01Z</time>
      </trkpt>
      <trkpt lat="45.60464" lon="2.25857">
        <ele>713</ele>
        <time>2019-05-18T16:38:02Z</time>
      </trkpt>
      <trkpt lat="45.60466" lon="2.25858">
        <ele>713</ele>
        <time>2019-05-18T16:38:03Z</time>
      </trkpt>
      <trkpt lat="45.60467" lon="2.25859">
        <ele>714</ele>
        <time>2019-05-18T16:38:04Z</time>
      </trkpt>
      <trkpt lat="45.60469" lon="2.25859">
        <ele>714</ele>
        <time>2019-05-18T16:38:05Z</time>
      </trkpt>
      <trkpt lat="45.60471" lon="2.2586">
        <ele>714</ele>
        <time>2019-05-18T16:38:06Z</time>
      </trkpt>
      <trkpt lat="45.60472" lon="2.25861">
        <ele>714</ele>
        <time>2019-05-18T16:38:07Z</time>
      </trkpt>
      <trkpt lat="45.60473" lon="2.25862">
        <ele>714</ele>
        <time>2019-05-18T16:38:09Z</time>
      </trkpt>
      <trkpt lat="45.60474" lon="2.25863">
        <ele>714</ele>
        <time>2019-05-18T16:38:10Z</time>
      </trkpt>
      <trkpt lat="45.60475" lon="2.25863">
        <ele>715</ele>
        <time>2019-05-18T16:38:11Z</time>
      </trkpt>
      <trkpt lat="45.60477" lon="2.25864">
        <ele>715</ele>
        <time>2019-05-18T16:38:12Z</time>
      </trkpt>
      <trkpt lat="45.60478" lon="2.25864">
        <ele>715</ele>
        <time>2019-05-18T16:38:13Z</time>
      </trkpt>
      <trkpt lat="45.6048" lon="2.25864">
        <ele>715</ele>
        <time>2019-05-18T16:38:14Z</time>
      </trkpt>
      <trkpt lat="45.60481" lon="2.25865">
        <ele>715</ele>
        <time>2019-05-18T16:38:15Z</time>
      </trkpt>
      <trkpt lat="45.60483" lon="2.25865">
        <ele>715</ele>
        <time>2019-05-18T16:38:16Z</time>
      </trkpt>
      <trkpt lat="45.60486" lon="2.25866">
        <ele>715</ele>
        <time>2019-05-18T16:38:17Z</time>
      </trkpt>
      <trkpt lat="45.60487" lon="2.25867">
        <ele>715</ele>
        <time>2019-05-18T16:38:18Z</time>
      </trkpt>
      <trkpt lat="45.60489" lon="2.25867">
        <ele>715</ele>
        <time>2019-05-18T16:38:19Z</time>
      </trkpt>
      <trkpt lat="45.6049" lon="2.25868">
        <ele>716</ele>
        <time>2019-05-18T16:38:20Z</time>
      </trkpt>
      <trkpt lat="45.60491" lon="2.25868">
        <ele>716</ele>
        <time>2019-05-18T16:38:21Z</time>
      </trkpt>
      <trkpt lat="45.60492" lon="2.25869">
        <ele>716</ele>
        <time>2019-05-18T16:38:22Z</time>
      </trkpt>
      <trkpt lat="45.60493" lon="2.2587">
        <ele>716</ele>
        <time>2019-05-18T16:38:23Z</time>
      </trkpt>
      <trkpt lat="45.60494" lon="2.25871">
        <ele>716</ele>
        <time>2019-05-18T16:38:24Z</time>
      </trkpt>
      <trkpt lat="45.60495" lon="2.25872">
        <ele>717</ele>
        <time>2019-05-18T16:38:25Z</time>
      </trkpt>
      <trkpt lat="45.60495" lon="2.25873">
        <ele>717</ele>
        <time>2019-05-18T16:38:26Z</time>
      </trkpt>
      <trkpt lat="45.60496" lon="2.25873">
        <ele>717</ele>
        <time>2019-05-18T16:38:27Z</time>
      </trkpt>
      <trkpt lat="45.60498" lon="2.25874">
        <ele>717</ele>
        <time>2019-05-18T16:38:28Z</time>
      </trkpt>
      <trkpt lat="45.60499" lon="2.25875">
        <ele>717</ele>
        <time>2019-05-18T16:38:30Z</time>
      </trkpt>
      <trkpt lat="45.60501" lon="2.25877">
        <ele>717</ele>
        <time>2019-05-18T16:38:31Z</time>
      </trkpt>
      <trkpt lat="45.60502" lon="2.25877">
        <ele>718</ele>
        <time>2019-05-18T16:38:32Z</time>
      </trkpt>
      <trkpt lat="45.60503" lon="2.25878">
        <ele>718</ele>
        <time>2019-05-18T16:38:33Z</time>
      </trkpt>
      <trkpt lat="45.60504" lon="2.2588">
        <ele>718</ele>
        <time>2019-05-18T16:38:34Z</time>
      </trkpt>
      <trkpt lat="45.60505" lon="2.25881">
        <ele>718</ele>
        <time>2019-05-18T16:38:35Z</time>
      </trkpt>
      <trkpt lat="45.60505" lon="2.25883">
        <ele>718</ele>
        <time>2019-05-18T16:38:36Z</time>
      </trkpt>
      <trkpt lat="45.60506" lon="2.25884">
        <ele>718</ele>
        <time>2019-05-18T16:38:37Z</time>
      </trkpt>
      <trkpt lat="45.60507" lon="2.25886">
        <ele>718</ele>
        <time>2019-05-18T16:38:38Z</time>
      </trkpt>
      <trkpt lat="45.60508" lon="2.25887">
        <ele>719</ele>
        <time>2019-05-18T16:38:39Z</time>
      </trkpt>
      <trkpt lat="45.60509" lon="2.25889">
        <ele>719</ele>
        <time>2019-05-18T16:38:40Z</time>
      </trkpt>
      <trkpt lat="45.6051" lon="2.2589">
        <ele>719</ele>
        <time>2019-05-18T16:38:41Z</time>
      </trkpt>
      <trkpt lat="45.60512" lon="2.25893">
        <ele>719</ele>
        <time>2019-05-18T16:38:42Z</time>
      </trkpt>
      <trkpt lat="45.60514" lon="2.25895">
        <ele>719</ele>
        <time>2019-05-18T16:38:44Z</time>
      </trkpt>
      <trkpt lat="45.60515" lon="2.25898">
        <ele>720</ele>
        <time>2019-05-18T16:38:46Z</time>
      </trkpt>
      <trkpt lat="45.60516" lon="2.25899">
        <ele>720</ele>
        <time>2019-05-18T16:38:47Z</time>
      </trkpt>
      <trkpt lat="45.60516" lon="2.259">
        <ele>720</ele>
        <time>2019-05-18T16:38:48Z</time>
      </trkpt>
      <trkpt lat="45.60517" lon="2.25902">
        <ele>720</ele>
        <time>2019-05-18T16:38:49Z</time>
      </trkpt>
      <trkpt lat="45.60518" lon="2.25903">
        <ele>720</ele>
        <time>2019-05-18T16:38:50Z</time>
      </trkpt>
      <trkpt lat="45.6052" lon="2.25905">
        <ele>721</ele>
        <time>2019-05-18T16:38:51Z</time>
      </trkpt>
      <trkpt lat="45.60521" lon="2.25906">
        <ele>721</ele>
        <time>2019-05-18T16:38:52Z</time>
      </trkpt>
      <trkpt lat="45.60522" lon="2.25908">
        <ele>721</ele>
        <time>2019-05-18T16:38:53Z</time>
      </trkpt>
      <trkpt lat="45.60523" lon="2.2591">
        <ele>721</ele>
        <time>2019-05-18T16:38:54Z</time>
      </trkpt>
      <trkpt lat="45.60524" lon="2.25911">
        <ele>721</ele>
        <time>2019-05-18T16:38:55Z</time>
      </trkpt>
      <trkpt lat="45.60525" lon="2.25912">
        <ele>722</ele>
        <time>2019-05-18T16:38:56Z</time>
      </trkpt>
      <trkpt lat="45.60526" lon="2.25914">
        <ele>722</ele>
        <time>2019-05-18T16:38:57Z</time>
      </trkpt>
      <trkpt lat="45.60526" lon="2.25915">
        <ele>722</ele>
        <time>2019-05-18T16:38:59Z</time>
      </trkpt>
      <trkpt lat="45.60527" lon="2.25915">
        <ele>722</ele>
        <time>2019-05-18T16:39:00Z</time>
      </trkpt>
      <trkpt lat="45.60528" lon="2.25916">
        <ele>722</ele>
        <time>2019-05-18T16:39:01Z</time>
      </trkpt>
      <trkpt lat="45.60529" lon="2.25917">
        <ele>723</ele>
        <time>2019-05-18T16:39:02Z</time>
      </trkpt>
      <trkpt lat="45.60531" lon="2.2592">
        <ele>723</ele>
        <time>2019-05-18T16:39:03Z</time>
      </trkpt>
      <trkpt lat="45.60532" lon="2.25921">
        <ele>723</ele>
        <time>2019-05-18T16:39:05Z</time>
      </trkpt>
      <trkpt lat="45.60532" lon="2.25922">
        <ele>723</ele>
        <time>2019-05-18T16:39:06Z</time>
      </trkpt>
      <trkpt lat="45.60533" lon="2.25923">
        <ele>723</ele>
        <time>2019-05-18T16:39:07Z</time>
      </trkpt>
      <trkpt lat="45.60535" lon="2.25925">
        <ele>724</ele>
        <time>2019-05-18T16:39:08Z</time>
      </trkpt>
      <trkpt lat="45.60536" lon="2.25927">
        <ele>724</ele>
        <time>2019-05-18T16:39:10Z</time>
      </trkpt>
      <trkpt lat="45.60538" lon="2.2593">
        <ele>724</ele>
        <time>2019-05-18T16:39:11Z</time>
      </trkpt>
      <trkpt lat="45.60539" lon="2.25931">
        <ele>724</ele>
        <time>2019-05-18T16:39:12Z</time>
      </trkpt>
      <trkpt lat="45.6054" lon="2.25932">
        <ele>724</ele>
        <time>2019-05-18T16:39:13Z</time>
      </trkpt>
      <trkpt lat="45.6054" lon="2.25933">
        <ele>725</ele>
        <time>2019-05-18T16:39:14Z</time>
      </trkpt>
      <trkpt lat="45.60541" lon="2.25934">
        <ele>725</ele>
        <time>2019-05-18T16:39:15Z</time>
      </trkpt>
      <trkpt lat="45.60542" lon="2.25935">
        <ele>725</ele>
        <time>2019-05-18T16:39:16Z</time>
      </trkpt>
      <trkpt lat="45.60543" lon="2.25936">
        <ele>725</ele>
        <time>2019-05-18T16:39:17Z</time>
      </trkpt>
      <trkpt lat="45.60545" lon="2.25937">
        <ele>725</ele>
        <time>2019-05-18T16:39:18Z</time>
      </trkpt>
      <trkpt lat="45.60546" lon="2.25937">
        <ele>726</ele>
        <time>2019-05-18T16:39:19Z</time>
      </trkpt>
      <trkpt lat="45.60547" lon="2.25938">
        <ele>726</ele>
        <time>2019-05-18T16:39:20Z</time>
      </trkpt>
      <trkpt lat="45.60549" lon="2.25939">
        <ele>726</ele>
        <time>2019-05-18T16:39:21Z</time>
      </trkpt>
      <trkpt lat="45.6055" lon="2.2594">
        <ele>726</ele>
        <time>2019-05-18T16:39:22Z</time>
      </trkpt>
      <trkpt lat="45.60551" lon="2.25942">
        <ele>726</ele>
        <time>2019-05-18T16:39:23Z</time>
      </trkpt>
      <trkpt lat="45.60552" lon="2.25943">
        <ele>726</ele>
        <time>2019-05-18T16:39:24Z</time>
      </trkpt>
      <trkpt lat="45.60553" lon="2.25945">
        <ele>727</ele>
        <time>2019-05-18T16:39:25Z</time>
      </trkpt>
      <trkpt lat="45.60554" lon="2.25946">
        <ele>727</ele>
        <time>2019-05-18T16:39:26Z</time>
      </trkpt>
      <trkpt lat="45.60555" lon="2.25947">
        <ele>727</ele>
        <time>2019-05-18T16:39:28Z</time>
      </trkpt>
      <trkpt lat="45.60556" lon="2.25948">
        <ele>727</ele>
        <time>2019-05-18T16:39:29Z</time>
      </trkpt>
      <trkpt lat="45.60557" lon="2.25949">
        <ele>727</ele>
        <time>2019-05-18T16:39:30Z</time>
      </trkpt>
      <trkpt lat="45.60558" lon="2.2595">
        <ele>728</ele>
        <time>2019-05-18T16:39:31Z</time>
      </trkpt>
      <trkpt lat="45.60561" lon="2.25952">
        <ele>728</ele>
        <time>2019-05-18T16:39:32Z</time>
      </trkpt>
      <trkpt lat="45.60564" lon="2.25954">
        <ele>728</ele>
        <time>2019-05-18T16:39:34Z</time>
      </trkpt>
      <trkpt lat="45.60566" lon="2.25956">
        <ele>728</ele>
        <time>2019-05-18T16:39:36Z</time>
      </trkpt>
      <trkpt lat="45.60568" lon="2.25958">
        <ele>728</ele>
        <time>2019-05-18T16:39:38Z</time>
      </trkpt>
      <trkpt lat="45.60568" lon="2.25959">
        <ele>729</ele>
        <time>2019-05-18T16:39:40Z</time>
      </trkpt>
      <trkpt lat="45.60569" lon="2.2596">
        <ele>729</ele>
        <time>2019-05-18T16:39:41Z</time>
      </trkpt>
      <trkpt lat="45.6057" lon="2.25961">
        <ele>729</ele>
        <time>2019-05-18T16:39:42Z</time>
      </trkpt>
      <trkpt lat="45.60572" lon="2.25963">
        <ele>729</ele>
        <time>2019-05-18T16:39:43Z</time>
      </trkpt>
      <trkpt lat="45.60575" lon="2.25965">
        <ele>729</ele>
        <time>2019-05-18T16:39:45Z</time>
      </trkpt>
      <trkpt lat="45.60576" lon="2.25965">
        <ele>730</ele>
        <time>2019-05-18T16:39:46Z</time>
      </trkpt>
      <trkpt lat="45.60577" lon="2.25966">
        <ele>730</ele>
        <time>2019-05-18T16:39:47Z</time>
      </trkpt>
      <trkpt lat="45.60578" lon="2.25967">
        <ele>730</ele>
        <time>2019-05-18T16:39:48Z</time>
      </trkpt>
      <trkpt lat="45.6058" lon="2.25968">
        <ele>730</ele>
        <time>2019-05-18T16:39:49Z</time>
      </trkpt>
      <trkpt lat="45.60581" lon="2.25969">
        <ele>730</ele>
        <time>2019-05-18T16:39:50Z</time>
      </trkpt>
      <trkpt lat="45.60582" lon="2.2597">
        <ele>730</ele>
        <time>2019-05-18T16:39:51Z</time>
      </trkpt>
      <trkpt lat="45.60583" lon="2.25971">
        <ele>730</ele>
        <time>2019-05-18T16:39:52Z</time>
      </trkpt>
      <trkpt lat="45.60583" lon="2.25973">
        <ele>731</ele>
        <time>2019-05-18T16:39:53Z</time>
      </trkpt>
      <trkpt lat="45.60585" lon="2.25974">
        <ele>731</ele>
        <time>2019-05-18T16:39:54Z</time>
      </trkpt>
      <trkpt lat="45.60585" lon="2.25974">
        <ele>731</ele>
        <time>2019-05-18T16:39:55Z</time>
      </trkpt>
      <trkpt lat="45.60586" lon="2.25975">
        <ele>731</ele>
        <time>2019-05-18T16:39:56Z</time>
      </trkpt>
      <trkpt lat="45.60587" lon="2.25977">
        <ele>731</ele>
        <time>2019-05-18T16:39:57Z</time>
      </trkpt>
      <trkpt lat="45.60588" lon="2.25978">
        <ele>731</ele>
        <time>2019-05-18T16:39:58Z</time>
      </trkpt>
      <trkpt lat="45.60589" lon="2.25979">
        <ele>731</ele>
        <time>2019-05-18T16:40:00Z</time>
      </trkpt>
      <trkpt lat="45.6059" lon="2.2598">
        <ele>732</ele>
        <time>2019-05-18T16:40:01Z</time>
      </trkpt>
      <trkpt lat="45.60592" lon="2.25984">
        <ele>732</ele>
        <time>2019-05-18T16:40:02Z</time>
      </trkpt>
      <trkpt lat="45.60593" lon="2.25985">
        <ele>732</ele>
        <time>2019-05-18T16:40:03Z</time>
      </trkpt>
      <trkpt lat="45.60594" lon="2.25987">
        <ele>732</ele>
        <time>2019-05-18T16:40:04Z</time>
      </trkpt>
      <trkpt lat="45.60596" lon="2.25988">
        <ele>732</ele>
        <time>2019-05-18T16:40:05Z</time>
      </trkpt>
      <trkpt lat="45.60597" lon="2.2599">
        <ele>733</ele>
        <time>2019-05-18T16:40:06Z</time>
      </trkpt>
      <trkpt lat="45.60598" lon="2.25991">
        <ele>733</ele>
        <time>2019-05-18T16:40:07Z</time>
      </trkpt>
      <trkpt lat="45.60598" lon="2.25993">
        <ele>733</ele>
        <time>2019-05-18T16:40:08Z</time>
      </trkpt>
      <trkpt lat="45.60599" lon="2.25994">
        <ele>733</ele>
        <time>2019-05-18T16:40:09Z</time>
      </trkpt>
      <trkpt lat="45.60601" lon="2.25996">
        <ele>733</ele>
        <time>2019-05-18T16:40:10Z</time>
      </trkpt>
      <trkpt lat="45.606" lon="2.25998">
        <ele>733</ele>
        <time>2019-05-18T16:40:11Z</time>
      </trkpt>
      <trkpt lat="45.606" lon="2.26">
        <ele>733</ele>
        <time>2019-05-18T16:40:12Z</time>
      </trkpt>
      <trkpt lat="45.60601" lon="2.26002">
        <ele>733</ele>
        <time>2019-05-18T16:40:13Z</time>
      </trkpt>
      <trkpt lat="45.60602" lon="2.26003">
        <ele>734</ele>
        <time>2019-05-18T16:40:14Z</time>
      </trkpt>
      <trkpt lat="45.60603" lon="2.26005">
        <ele>734</ele>
        <time>2019-05-18T16:40:15Z</time>
      </trkpt>
      <trkpt lat="45.60604" lon="2.26007">
        <ele>734</ele>
        <time>2019-05-18T16:40:16Z</time>
      </trkpt>
      <trkpt lat="45.60605" lon="2.26009">
        <ele>734</ele>
        <time>2019-05-18T16:40:17Z</time>
      </trkpt>
      <trkpt lat="45.60606" lon="2.26011">
        <ele>734</ele>
        <time>2019-05-18T16:40:18Z</time>
      </trkpt>
      <trkpt lat="45.60608" lon="2.26013">
        <ele>734</ele>
        <time>2019-05-18T16:40:20Z</time>
      </trkpt>
      <trkpt lat="45.6061" lon="2.26014">
        <ele>734</ele>
        <time>2019-05-18T16:40:22Z</time>
      </trkpt>
      <trkpt lat="45.60611" lon="2.26015">
        <ele>735</ele>
        <time>2019-05-18T16:40:23Z</time>
      </trkpt>
      <trkpt lat="45.60612" lon="2.26018">
        <ele>735</ele>
        <time>2019-05-18T16:40:24Z</time>
      </trkpt>
      <trkpt lat="45.60613" lon="2.26019">
        <ele>735</ele>
        <time>2019-05-18T16:40:25Z</time>
      </trkpt>
      <trkpt lat="45.60614" lon="2.26021">
        <ele>735</ele>
        <time>2019-05-18T16:40:26Z</time>
      </trkpt>
      <trkpt lat="45.60615" lon="2.26022">
        <ele>735</ele>
        <time>2019-05-18T16:40:27Z</time>
      </trkpt>
      <trkpt lat="45.60614" lon="2.26024">
        <ele>735</ele>
        <time>2019-05-18T16:40:28Z</time>
      </trkpt>
      <trkpt lat="45.60615" lon="2.26026">
        <ele>735</ele>
        <time>2019-05-18T16:40:29Z</time>
      </trkpt>
      <trkpt lat="45.60617" lon="2.26027">
        <ele>735</ele>
        <time>2019-05-18T16:40:30Z</time>
      </trkpt>
      <trkpt lat="45.60618" lon="2.26029">
        <ele>735</ele>
        <time>2019-05-18T16:40:31Z</time>
      </trkpt>
      <trkpt lat="45.6062" lon="2.26031">
        <ele>735</ele>
        <time>2019-05-18T16:40:32Z</time>
      </trkpt>
      <trkpt lat="45.60621" lon="2.26033">
        <ele>736</ele>
        <time>2019-05-18T16:40:33Z</time>
      </trkpt>
      <trkpt lat="45.60622" lon="2.26035">
        <ele>736</ele>
        <time>2019-05-18T16:40:34Z</time>
      </trkpt>
      <trkpt lat="45.60622" lon="2.26037">
        <ele>736</ele>
        <time>2019-05-18T16:40:35Z</time>
      </trkpt>
      <trkpt lat="45.60623" lon="2.26038">
        <ele>736</ele>
        <time>2019-05-18T16:40:36Z</time>
      </trkpt>
      <trkpt lat="45.60624" lon="2.2604">
        <ele>736</ele>
        <time>2019-05-18T16:40:37Z</time>
      </trkpt>
      <trkpt lat="45.60625" lon="2.26042">
        <ele>736</ele>
        <time>2019-05-18T16:40:38Z</time>
      </trkpt>
      <trkpt lat="45.60626" lon="2.26044">
        <ele>736</ele>
        <time>2019-05-18T16:40:39Z</time>
      </trkpt>
      <trkpt lat="45.60628" lon="2.26046">
        <ele>736</ele>
        <time>2019-05-18T16:40:40Z</time>
      </trkpt>
      <trkpt lat="45.60629" lon="2.26049">
        <ele>736</ele>
        <time>2019-05-18T16:40:41Z</time>
      </trkpt>
      <trkpt lat="45.60631" lon="2.26051">
        <ele>736</ele>
        <time>2019-05-18T16:40:42Z</time>
      </trkpt>
      <trkpt lat="45.60632" lon="2.26053">
        <ele>736</ele>
        <time>2019-05-18T16:40:43Z</time>
      </trkpt>
      <trkpt lat="45.60633" lon="2.26055">
        <ele>736</ele>
        <time>2019-05-18T16:40:44Z</time>
      </trkpt>
      <trkpt lat="45.60635" lon="2.26057">
        <ele>736</ele>
        <time>2019-05-18T16:40:45Z</time>
      </trkpt>
      <trkpt lat="45.60636" lon="2.2606">
        <ele>736</ele>
        <time>2019-05-18T16:40:46Z</time>
      </trkpt>
      <trkpt lat="45.60638" lon="2.26062">
        <ele>736</ele>
        <time>2019-05-18T16:40:47Z</time>
      </trkpt>
      <trkpt lat="45.60639" lon="2.26065">
        <ele>736</ele>
        <time>2019-05-18T16:40:48Z</time>
      </trkpt>
      <trkpt lat="45.60641" lon="2.26067">
        <ele>736</ele>
        <time>2019-05-18T16:40:49Z</time>
      </trkpt>
      <trkpt lat="45.60642" lon="2.26069">
        <ele>737</ele>
        <time>2019-05-18T16:40:50Z</time>
      </trkpt>
      <trkpt lat="45.60643" lon="2.26072">
        <ele>737</ele>
        <time>2019-05-18T16:40:51Z</time>
      </trkpt>
      <trkpt lat="45.60645" lon="2.26074">
        <ele>737</ele>
        <time>2019-05-18T16:40:52Z</time>
      </trkpt>
      <trkpt lat="45.60646" lon="2.26076">
        <ele>737</ele>
        <time>2019-05-18T16:40:54Z</time>
      </trkpt>
      <trkpt lat="45.60647" lon="2.26082">
        <ele>737</ele>
        <time>2019-05-18T16:40:55Z</time>
      </trkpt>
      <trkpt lat="45.60648" lon="2.26087">
        <ele>737</ele>
        <time>2019-05-18T16:40:57Z</time>
      </trkpt>
      <trkpt lat="45.6065" lon="2.26092">
        <ele>737</ele>
        <time>2019-05-18T16:40:59Z</time>
      </trkpt>
      <trkpt lat="45.60652" lon="2.26098">
        <ele>737</ele>
        <time>2019-05-18T16:41:01Z</time>
      </trkpt>
      <trkpt lat="45.60653" lon="2.26105">
        <ele>737</ele>
        <time>2019-05-18T16:41:03Z</time>
      </trkpt>
      <trkpt lat="45.60653" lon="2.26108">
        <ele>737</ele>
        <time>2019-05-18T16:41:04Z</time>
      </trkpt>
      <trkpt lat="45.60654" lon="2.26111">
        <ele>737</ele>
        <time>2019-05-18T16:41:05Z</time>
      </trkpt>
      <trkpt lat="45.60655" lon="2.26115">
        <ele>737</ele>
        <time>2019-05-18T16:41:06Z</time>
      </trkpt>
      <trkpt lat="45.60655" lon="2.26119">
        <ele>737</ele>
        <time>2019-05-18T16:41:07Z</time>
      </trkpt>
      <trkpt lat="45.60656" lon="2.26123">
        <ele>736</ele>
        <time>2019-05-18T16:41:08Z</time>
      </trkpt>
      <trkpt lat="45.60656" lon="2.26127">
        <ele>736</ele>
        <time>2019-05-18T16:41:09Z</time>
      </trkpt>
      <trkpt lat="45.60657" lon="2.26131">
        <ele>736</ele>
        <time>2019-05-18T16:41:10Z</time>
      </trkpt>
      <trkpt lat="45.60656" lon="2.26135">
        <ele>736</ele>
        <time>2019-05-18T16:41:11Z</time>
      </trkpt>
      <trkpt lat="45.60657" lon="2.2614">
        <ele>736</ele>
        <time>2019-05-18T16:41:12Z</time>
      </trkpt>
      <trkpt lat="45.60656" lon="2.26144">
        <ele>736</ele>
        <time>2019-05-18T16:41:13Z</time>
      </trkpt>
      <trkpt lat="45.60656" lon="2.26149">
        <ele>735</ele>
        <time>2019-05-18T16:41:14Z</time>
      </trkpt>
      <trkpt lat="45.60657" lon="2.26154">
        <ele>735</ele>
        <time>2019-05-18T16:41:15Z</time>
      </trkpt>
      <trkpt lat="45.60657" lon="2.26158">
        <ele>735</ele>
        <time>2019-05-18T16:41:16Z</time>
      </trkpt>
      <trkpt lat="45.60658" lon="2.26162">
        <ele>735</ele>
        <time>2019-05-18T16:41:17Z</time>
      </trkpt>
      <trkpt lat="45.60659" lon="2.26165">
        <ele>735</ele>
        <time>2019-05-18T16:41:18Z</time>
      </trkpt>
      <trkpt lat="45.60659" lon="2.2617">
        <ele>735</ele>
        <time>2019-05-18T16:41:19Z</time>
      </trkpt>
      <trkpt lat="45.60659" lon="2.26174">
        <ele>735</ele>
        <time>2019-05-18T16:41:20Z</time>
      </trkpt>
      <trkpt lat="45.60659" lon="2.26179">
        <ele>735</ele>
        <time>2019-05-18T16:41:21Z</time>
      </trkpt>
      <trkpt lat="45.60659" lon="2.26185">
        <ele>735</ele>
        <time>2019-05-18T16:41:22Z</time>
      </trkpt>
      <trkpt lat="45.6066" lon="2.2619">
        <ele>734</ele>
        <time>2019-05-18T16:41:23Z</time>
      </trkpt>
      <trkpt lat="45.6066" lon="2.26195">
        <ele>734</ele>
        <time>2019-05-18T16:41:24Z</time>
      </trkpt>
      <trkpt lat="45.6066" lon="2.262">
        <ele>734</ele>
        <time>2019-05-18T16:41:25Z</time>
      </trkpt>
      <trkpt lat="45.6066" lon="2.26205">
        <ele>734</ele>
        <time>2019-05-18T16:41:26Z</time>
      </trkpt>
      <trkpt lat="45.6066" lon="2.2621">
        <ele>734</ele>
        <time>2019-05-18T16:41:27Z</time>
      </trkpt>
      <trkpt lat="45.6066" lon="2.26215">
        <ele>734</ele>
        <time>2019-05-18T16:41:28Z</time>
      </trkpt>
      <trkpt lat="45.60661" lon="2.26218">
        <ele>734</ele>
        <time>2019-05-18T16:41:29Z</time>
      </trkpt>
      <trkpt lat="45.60662" lon="2.26221">
        <ele>734</ele>
        <time>2019-05-18T16:41:30Z</time>
      </trkpt>
      <trkpt lat="45.60663" lon="2.26227">
        <ele>734</ele>
        <time>2019-05-18T16:41:32Z</time>
      </trkpt>
      <trkpt lat="45.60664" lon="2.26235">
        <ele>734</ele>
        <time>2019-05-18T16:41:34Z</time>
      </trkpt>
      <trkpt lat="45.60664" lon="2.2624">
        <ele>734</ele>
        <time>2019-05-18T16:41:36Z</time>
      </trkpt>
      <trkpt lat="45.60664" lon="2.26243">
        <ele>735</ele>
        <time>2019-05-18T16:41:37Z</time>
      </trkpt>
      <trkpt lat="45.60664" lon="2.26247">
        <ele>735</ele>
        <time>2019-05-18T16:41:38Z</time>
      </trkpt>
      <trkpt lat="45.60665" lon="2.26249">
        <ele>735</ele>
        <time>2019-05-18T16:41:39Z</time>
      </trkpt>
      <trkpt lat="45.60665" lon="2.26252">
        <ele>735</ele>
        <time>2019-05-18T16:41:40Z</time>
      </trkpt>
      <trkpt lat="45.60664" lon="2.26256">
        <ele>735</ele>
        <time>2019-05-18T16:41:41Z</time>
      </trkpt>
      <trkpt lat="45.60663" lon="2.26259">
        <ele>735</ele>
        <time>2019-05-18T16:41:42Z</time>
      </trkpt>
      <trkpt lat="45.60663" lon="2.26262">
        <ele>735</ele>
        <time>2019-05-18T16:41:43Z</time>
      </trkpt>
      <trkpt lat="45.60662" lon="2.26265">
        <ele>735</ele>
        <time>2019-05-18T16:41:44Z</time>
      </trkpt>
      <trkpt lat="45.60662" lon="2.26269">
        <ele>735</ele>
        <time>2019-05-18T16:41:45Z</time>
      </trkpt>
      <trkpt lat="45.60662" lon="2.26273">
        <ele>735</ele>
        <time>2019-05-18T16:41:46Z</time>
      </trkpt>
      <trkpt lat="45.60662" lon="2.26275">
        <ele>736</ele>
        <time>2019-05-18T16:41:47Z</time>
      </trkpt>
      <trkpt lat="45.60661" lon="2.26279">
        <ele>736</ele>
        <time>2019-05-18T16:41:48Z</time>
      </trkpt>
      <trkpt lat="45.60659" lon="2.26281">
        <ele>736</ele>
        <time>2019-05-18T16:41:49Z</time>
      </trkpt>
      <trkpt lat="45.60657" lon="2.26284">
        <ele>736</ele>
        <time>2019-05-18T16:41:50Z</time>
      </trkpt>
      <trkpt lat="45.60656" lon="2.2629">
        <ele>736</ele>
        <time>2019-05-18T16:41:52Z</time>
      </trkpt>
      <trkpt lat="45.60657" lon="2.26294">
        <ele>736</ele>
        <time>2019-05-18T16:41:53Z</time>
      </trkpt>
      <trkpt lat="45.60657" lon="2.26296">
        <ele>736</ele>
        <time>2019-05-18T16:41:54Z</time>
      </trkpt>
      <trkpt lat="45.60658" lon="2.26298">
        <ele>736</ele>
        <time>2019-05-18T16:41:55Z</time>
      </trkpt>
      <trkpt lat="45.60658" lon="2.26302">
        <ele>736</ele>
        <time>2019-05-18T16:41:56Z</time>
      </trkpt>
      <trkpt lat="45.60658" lon="2.26305">
        <ele>736</ele>
        <time>2019-05-18T16:41:57Z</time>
      </trkpt>
      <trkpt lat="45.60657" lon="2.26308">
        <ele>736</ele>
        <time>2019-05-18T16:41:58Z</time>
      </trkpt>
      <trkpt lat="45.60658" lon="2.26312">
        <ele>736</ele>
        <time>2019-05-18T16:41:59Z</time>
      </trkpt>
      <trkpt lat="45.60659" lon="2.26315">
        <ele>736</ele>
        <time>2019-05-18T16:42:00Z</time>
      </trkpt>
      <trkpt lat="45.60659" lon="2.26318">
        <ele>736</ele>
        <time>2019-05-18T16:42:01Z</time>
      </trkpt>
      <trkpt lat="45.6066" lon="2.2632">
        <ele>736</ele>
        <time>2019-05-18T16:42:02Z</time>
      </trkpt>
      <trkpt lat="45.60661" lon="2.26323">
        <ele>736</ele>
        <time>2019-05-18T16:42:03Z</time>
      </trkpt>
      <trkpt lat="45.60663" lon="2.26326">
        <ele>737</ele>
        <time>2019-05-18T16:42:04Z</time>
      </trkpt>
      <trkpt lat="45.60664" lon="2.2633">
        <ele>737</ele>
        <time>2019-05-18T16:42:05Z</time>
      </trkpt>
      <trkpt lat="45.60664" lon="2.26333">
        <ele>737</ele>
        <time>2019-05-18T16:42:06Z</time>
      </trkpt>
      <trkpt lat="45.60665" lon="2.26337">
        <ele>737</ele>
        <time>2019-05-18T16:42:07Z</time>
      </trkpt>
      <trkpt lat="45.60666" lon="2.26341">
        <ele>737</ele>
        <time>2019-05-18T16:42:08Z</time>
      </trkpt>
      <trkpt lat="45.60666" lon="2.26345">
        <ele>737</ele>
        <time>2019-05-18T16:42:09Z</time>
      </trkpt>
      <trkpt lat="45.60667" lon="2.26349">
        <ele>738</ele>
        <time>2019-05-18T16:42:10Z</time>
      </trkpt>
      <trkpt lat="45.60667" lon="2.26351">
        <ele>738</ele>
        <time>2019-05-18T16:42:11Z</time>
      </trkpt>
      <trkpt lat="45.60668" lon="2.26354">
        <ele>738</ele>
        <time>2019-05-18T16:42:12Z</time>
      </trkpt>
      <trkpt lat="45.60669" lon="2.26357">
        <ele>738</ele>
        <time>2019-05-18T16:42:13Z</time>
      </trkpt>
      <trkpt lat="45.6067" lon="2.2636">
        <ele>738</ele>
        <time>2019-05-18T16:42:14Z</time>
      </trkpt>
      <trkpt lat="45.6067" lon="2.26363">
        <ele>738</ele>
        <time>2019-05-18T16:42:15Z</time>
      </trkpt>
      <trkpt lat="45.60671" lon="2.26365">
        <ele>739</ele>
        <time>2019-05-18T16:42:16Z</time>
      </trkpt>
      <trkpt lat="45.60672" lon="2.26367">
        <ele>739</ele>
        <time>2019-05-18T16:42:17Z</time>
      </trkpt>
      <trkpt lat="45.60672" lon="2.2637">
        <ele>739</ele>
        <time>2019-05-18T16:42:18Z</time>
      </trkpt>
      <trkpt lat="45.60672" lon="2.26374">
        <ele>739</ele>
        <time>2019-05-18T16:42:19Z</time>
      </trkpt>
      <trkpt lat="45.60672" lon="2.26379">
        <ele>739</ele>
        <time>2019-05-18T16:42:20Z</time>
      </trkpt>
      <trkpt lat="45.60672" lon="2.26382">
        <ele>739</ele>
        <time>2019-05-18T16:42:21Z</time>
      </trkpt>
      <trkpt lat="45.60672" lon="2.26385">
        <ele>739</ele>
        <time>2019-05-18T16:42:22Z</time>
      </trkpt>
      <trkpt lat="45.60672" lon="2.26389">
        <ele>739</ele>
        <time>2019-05-18T16:42:23Z</time>
      </trkpt>
      <trkpt lat="45.60672" lon="2.26392">
        <ele>739</ele>
        <time>2019-05-18T16:42:24Z</time>
      </trkpt>
      <trkpt lat="45.60672" lon="2.26396">
        <ele>740</ele>
        <time>2019-05-18T16:42:25Z</time>
      </trkpt>
      <trkpt lat="45.60672" lon="2.26399">
        <ele>740</ele>
        <time>2019-05-18T16:42:26Z</time>
      </trkpt>
      <trkpt lat="45.60672" lon="2.26402">
        <ele>740</ele>
        <time>2019-05-18T16:42:27Z</time>
      </trkpt>
      <trkpt lat="45.60672" lon="2.26404">
        <ele>740</ele>
        <time>2019-05-18T16:42:28Z</time>
      </trkpt>
      <trkpt lat="45.60672" lon="2.26407">
        <ele>740</ele>
        <time>2019-05-18T16:42:29Z</time>
      </trkpt>
      <trkpt lat="45.60672" lon="2.2641">
        <ele>740</ele>
        <time>2019-05-18T16:42:30Z</time>
      </trkpt>
      <trkpt lat="45.60672" lon="2.26413">
        <ele>740</ele>
        <time>2019-05-18T16:42:31Z</time>
      </trkpt>
      <trkpt lat="45.60672" lon="2.26416">
        <ele>741</ele>
        <time>2019-05-18T16:42:32Z</time>
      </trkpt>
      <trkpt lat="45.60672" lon="2.26419">
        <ele>741</ele>
        <time>2019-05-18T16:42:33Z</time>
      </trkpt>
      <trkpt lat="45.60672" lon="2.26421">
        <ele>741</ele>
        <time>2019-05-18T16:42:34Z</time>
      </trkpt>
      <trkpt lat="45.60671" lon="2.26425">
        <ele>741</ele>
        <time>2019-05-18T16:42:35Z</time>
      </trkpt>
      <trkpt lat="45.6067" lon="2.26427">
        <ele>741</ele>
        <time>2019-05-18T16:42:36Z</time>
      </trkpt>
      <trkpt lat="45.6067" lon="2.2643">
        <ele>741</ele>
        <time>2019-05-18T16:42:37Z</time>
      </trkpt>
      <trkpt lat="45.6067" lon="2.26433">
        <ele>742</ele>
        <time>2019-05-18T16:42:38Z</time>
      </trkpt>
      <trkpt lat="45.60669" lon="2.26436">
        <ele>742</ele>
        <time>2019-05-18T16:42:39Z</time>
      </trkpt>
      <trkpt lat="45.60669" lon="2.26439">
        <ele>742</ele>
        <time>2019-05-18T16:42:40Z</time>
      </trkpt>
      <trkpt lat="45.60669" lon="2.26441">
        <ele>742</ele>
        <time>2019-05-18T16:42:41Z</time>
      </trkpt>
      <trkpt lat="45.60668" lon="2.26445">
        <ele>742</ele>
        <time>2019-05-18T16:42:42Z</time>
      </trkpt>
      <trkpt lat="45.60667" lon="2.26448">
        <ele>742</ele>
        <time>2019-05-18T16:42:43Z</time>
      </trkpt>
      <trkpt lat="45.60667" lon="2.26452">
        <ele>742</ele>
        <time>2019-05-18T16:42:44Z</time>
      </trkpt>
      <trkpt lat="45.60667" lon="2.26455">
        <ele>742</ele>
        <time>2019-05-18T16:42:45Z</time>
      </trkpt>
      <trkpt lat="45.60666" lon="2.26458">
        <ele>742</ele>
        <time>2019-05-18T16:42:46Z</time>
      </trkpt>
      <trkpt lat="45.60665" lon="2.26462">
        <ele>741</ele>
        <time>2019-05-18T16:42:47Z</time>
      </trkpt>
      <trkpt lat="45.60664" lon="2.26467">
        <ele>741</ele>
        <time>2019-05-18T16:42:48Z</time>
      </trkpt>
      <trkpt lat="45.60663" lon="2.26472">
        <ele>741</ele>
        <time>2019-05-18T16:42:49Z</time>
      </trkpt>
      <trkpt lat="45.60662" lon="2.26476">
        <ele>741</ele>
        <time>2019-05-18T16:42:50Z</time>
      </trkpt>
      <trkpt lat="45.60661" lon="2.26481">
        <ele>740</ele>
        <time>2019-05-18T16:42:51Z</time>
      </trkpt>
      <trkpt lat="45.60659" lon="2.26486">
        <ele>740</ele>
        <time>2019-05-18T16:42:52Z</time>
      </trkpt>
      <trkpt lat="45.60658" lon="2.26494">
        <ele>740</ele>
        <time>2019-05-18T16:42:53Z</time>
      </trkpt>
      <trkpt lat="45.60656" lon="2.26502">
        <ele>739</ele>
        <time>2019-05-18T16:42:54Z</time>
      </trkpt>
      <trkpt lat="45.60655" lon="2.26511">
        <ele>738</ele>
        <time>2019-05-18T16:42:55Z</time>
      </trkpt>
      <trkpt lat="45.60654" lon="2.26519">
        <ele>738</ele>
        <time>2019-05-18T16:42:56Z</time>
      </trkpt>
      <trkpt lat="45.60653" lon="2.2653">
        <ele>737</ele>
        <time>2019-05-18T16:42:57Z</time>
      </trkpt>
      <trkpt lat="45.60652" lon="2.26539">
        <ele>737</ele>
        <time>2019-05-18T16:42:58Z</time>
      </trkpt>
      <trkpt lat="45.60652" lon="2.26548">
        <ele>737</ele>
        <time>2019-05-18T16:42:59Z</time>
      </trkpt>
      <trkpt lat="45.60651" lon="2.26557">
        <ele>737</ele>
        <time>2019-05-18T16:43:00Z</time>
      </trkpt>
      <trkpt lat="45.6065" lon="2.26564">
        <ele>736</ele>
        <time>2019-05-18T16:43:01Z</time>
      </trkpt>
      <trkpt lat="45.6065" lon="2.26571">
        <ele>736</ele>
        <time>2019-05-18T16:43:02Z</time>
      </trkpt>
      <trkpt lat="45.60646" lon="2.26581">
        <ele>736</ele>
        <time>2019-05-18T16:43:03Z</time>
      </trkpt>
      <trkpt lat="45.60642" lon="2.26589">
        <ele>735</ele>
        <time>2019-05-18T16:43:04Z</time>
      </trkpt>
      <trkpt lat="45.60639" lon="2.26596">
        <ele>735</ele>
        <time>2019-05-18T16:43:05Z</time>
      </trkpt>
      <trkpt lat="45.60637" lon="2.26605">
        <ele>735</ele>
        <time>2019-05-18T16:43:06Z</time>
      </trkpt>
      <trkpt lat="45.60633" lon="2.26614">
        <ele>735</ele>
        <time>2019-05-18T16:43:07Z</time>
      </trkpt>
      <trkpt lat="45.6063" lon="2.26623">
        <ele>735</ele>
        <time>2019-05-18T16:43:08Z</time>
      </trkpt>
      <trkpt lat="45.60628" lon="2.2663">
        <ele>734</ele>
        <time>2019-05-18T16:43:09Z</time>
      </trkpt>
      <trkpt lat="45.60627" lon="2.26637">
        <ele>734</ele>
        <time>2019-05-18T16:43:10Z</time>
      </trkpt>
      <trkpt lat="45.60627" lon="2.26643">
        <ele>734</ele>
        <time>2019-05-18T16:43:11Z</time>
      </trkpt>
      <trkpt lat="45.60628" lon="2.26649">
        <ele>734</ele>
        <time>2019-05-18T16:43:12Z</time>
      </trkpt>
      <trkpt lat="45.60628" lon="2.26653">
        <ele>735</ele>
        <time>2019-05-18T16:43:13Z</time>
      </trkpt>
      <trkpt lat="45.60628" lon="2.26656">
        <ele>735</ele>
        <time>2019-05-18T16:43:14Z</time>
      </trkpt>
      <trkpt lat="45.60628" lon="2.26659">
        <ele>735</ele>
        <time>2019-05-18T16:43:15Z</time>
      </trkpt>
      <trkpt lat="45.60628" lon="2.26663">
        <ele>735</ele>
        <time>2019-05-18T16:43:16Z</time>
      </trkpt>
      <trkpt lat="45.60629" lon="2.26668">
        <ele>735</ele>
        <time>2019-05-18T16:43:17Z</time>
      </trkpt>
      <trkpt lat="45.6063" lon="2.26673">
        <ele>735</ele>
        <time>2019-05-18T16:43:18Z</time>
      </trkpt>
      <trkpt lat="45.60631" lon="2.26676">
        <ele>735</ele>
        <time>2019-05-18T16:43:19Z</time>
      </trkpt>
      <trkpt lat="45.60632" lon="2.2668">
        <ele>735</ele>
        <time>2019-05-18T16:43:20Z</time>
      </trkpt>
      <trkpt lat="45.60632" lon="2.26684">
        <ele>735</ele>
        <time>2019-05-18T16:43:21Z</time>
      </trkpt>
      <trkpt lat="45.60632" lon="2.26688">
        <ele>736</ele>
        <time>2019-05-18T16:43:22Z</time>
      </trkpt>
      <trkpt lat="45.60632" lon="2.26691">
        <ele>736</ele>
        <time>2019-05-18T16:43:23Z</time>
      </trkpt>
      <trkpt lat="45.60632" lon="2.26695">
        <ele>736</ele>
        <time>2019-05-18T16:43:24Z</time>
      </trkpt>
      <trkpt lat="45.60631" lon="2.26699">
        <ele>736</ele>
        <time>2019-05-18T16:43:25Z</time>
      </trkpt>
      <trkpt lat="45.60632" lon="2.26703">
        <ele>736</ele>
        <time>2019-05-18T16:43:26Z</time>
      </trkpt>
      <trkpt lat="45.60633" lon="2.26707">
        <ele>736</ele>
        <time>2019-05-18T16:43:27Z</time>
      </trkpt>
      <trkpt lat="45.60633" lon="2.26712">
        <ele>736</ele>
        <time>2019-05-18T16:43:28Z</time>
      </trkpt>
      <trkpt lat="45.60632" lon="2.26717">
        <ele>736</ele>
        <time>2019-05-18T16:43:29Z</time>
      </trkpt>
      <trkpt lat="45.60632" lon="2.26721">
        <ele>736</ele>
        <time>2019-05-18T16:43:30Z</time>
      </trkpt>
      <trkpt lat="45.60631" lon="2.26724">
        <ele>736</ele>
        <time>2019-05-18T16:43:31Z</time>
      </trkpt>
      <trkpt lat="45.60629" lon="2.26728">
        <ele>736</ele>
        <time>2019-05-18T16:43:32Z</time>
      </trkpt>
      <trkpt lat="45.60627" lon="2.26733">
        <ele>736</ele>
        <time>2019-05-18T16:43:33Z</time>
      </trkpt>
      <trkpt lat="45.60625" lon="2.26738">
        <ele>736</ele>
        <time>2019-05-18T16:43:34Z</time>
      </trkpt>
      <trkpt lat="45.60622" lon="2.26742">
        <ele>736</ele>
        <time>2019-05-18T16:43:35Z</time>
      </trkpt>
      <trkpt lat="45.60621" lon="2.26746">
        <ele>736</ele>
        <time>2019-05-18T16:43:36Z</time>
      </trkpt>
      <trkpt lat="45.60619" lon="2.26751">
        <ele>736</ele>
        <time>2019-05-18T16:43:37Z</time>
      </trkpt>
      <trkpt lat="45.60617" lon="2.26755">
        <ele>736</ele>
        <time>2019-05-18T16:43:38Z</time>
      </trkpt>
      <trkpt lat="45.60614" lon="2.2676">
        <ele>736</ele>
        <time>2019-05-18T16:43:39Z</time>
      </trkpt>
      <trkpt lat="45.60613" lon="2.26763">
        <ele>736</ele>
        <time>2019-05-18T16:43:40Z</time>
      </trkpt>
      <trkpt lat="45.60614" lon="2.26765">
        <ele>736</ele>
        <time>2019-05-18T16:43:41Z</time>
      </trkpt>
      <trkpt lat="45.6061" lon="2.26768">
        <ele>736</ele>
        <time>2019-05-18T16:43:42Z</time>
      </trkpt>
      <trkpt lat="45.60609" lon="2.26771">
        <ele>736</ele>
        <time>2019-05-18T16:43:43Z</time>
      </trkpt>
      <trkpt lat="45.60609" lon="2.26773">
        <ele>736</ele>
        <time>2019-05-18T16:43:44Z</time>
      </trkpt>
      <trkpt lat="45.60608" lon="2.26776">
        <ele>736</ele>
        <time>2019-05-18T16:43:45Z</time>
      </trkpt>
      <trkpt lat="45.60607" lon="2.26777">
        <ele>736</ele>
        <time>2019-05-18T16:43:46Z</time>
      </trkpt>
      <trkpt lat="45.60605" lon="2.26781">
        <ele>736</ele>
        <time>2019-05-18T16:43:47Z</time>
      </trkpt>
      <trkpt lat="45.60603" lon="2.26785">
        <ele>736</ele>
        <time>2019-05-18T16:43:48Z</time>
      </trkpt>
      <trkpt lat="45.60603" lon="2.26787">
        <ele>736</ele>
        <time>2019-05-18T16:43:49Z</time>
      </trkpt>
      <trkpt lat="45.60604" lon="2.26789">
        <ele>736</ele>
        <time>2019-05-18T16:43:50Z</time>
      </trkpt>
      <trkpt lat="45.60605" lon="2.2679">
        <ele>736</ele>
        <time>2019-05-18T16:43:51Z</time>
      </trkpt>
      <trkpt lat="45.60605" lon="2.26794">
        <ele>736</ele>
        <time>2019-05-18T16:43:52Z</time>
      </trkpt>
      <trkpt lat="45.60605" lon="2.26799">
        <ele>736</ele>
        <time>2019-05-18T16:43:53Z</time>
      </trkpt>
      <trkpt lat="45.60604" lon="2.26802">
        <ele>736</ele>
        <time>2019-05-18T16:43:54Z</time>
      </trkpt>
      <trkpt lat="45.60602" lon="2.26805">
        <ele>736</ele>
        <time>2019-05-18T16:43:55Z</time>
      </trkpt>
      <trkpt lat="45.60601" lon="2.2681">
        <ele>736</ele>
        <time>2019-05-18T16:43:56Z</time>
      </trkpt>
      <trkpt lat="45.60602" lon="2.26815">
        <ele>736</ele>
        <time>2019-05-18T16:43:57Z</time>
      </trkpt>
      <trkpt lat="45.60601" lon="2.26818">
        <ele>736</ele>
        <time>2019-05-18T16:43:58Z</time>
      </trkpt>
      <trkpt lat="45.60603" lon="2.2682">
        <ele>736</ele>
        <time>2019-05-18T16:43:59Z</time>
      </trkpt>
      <trkpt lat="45.60604" lon="2.26823">
        <ele>736</ele>
        <time>2019-05-18T16:44:00Z</time>
      </trkpt>
      <trkpt lat="45.60604" lon="2.26829">
        <ele>736</ele>
        <time>2019-05-18T16:44:01Z</time>
      </trkpt>
      <trkpt lat="45.60604" lon="2.26836">
        <ele>737</ele>
        <time>2019-05-18T16:44:02Z</time>
      </trkpt>
      <trkpt lat="45.60602" lon="2.26843">
        <ele>737</ele>
        <time>2019-05-18T16:44:03Z</time>
      </trkpt>
      <trkpt lat="45.60602" lon="2.26848">
        <ele>737</ele>
        <time>2019-05-18T16:44:04Z</time>
      </trkpt>
      <trkpt lat="45.60602" lon="2.26854">
        <ele>737</ele>
        <time>2019-05-18T16:44:05Z</time>
      </trkpt>
      <trkpt lat="45.60603" lon="2.26858">
        <ele>738</ele>
        <time>2019-05-18T16:44:06Z</time>
      </trkpt>
      <trkpt lat="45.60603" lon="2.26862">
        <ele>738</ele>
        <time>2019-05-18T16:44:07Z</time>
      </trkpt>
      <trkpt lat="45.60602" lon="2.26867">
        <ele>738</ele>
        <time>2019-05-18T16:44:08Z</time>
      </trkpt>
      <trkpt lat="45.60603" lon="2.26871">
        <ele>738</ele>
        <time>2019-05-18T16:44:09Z</time>
      </trkpt>
      <trkpt lat="45.60603" lon="2.26874">
        <ele>739</ele>
        <time>2019-05-18T16:44:10Z</time>
      </trkpt>
      <trkpt lat="45.60604" lon="2.26877">
        <ele>739</ele>
        <time>2019-05-18T16:44:11Z</time>
      </trkpt>
      <trkpt lat="45.60605" lon="2.26881">
        <ele>739</ele>
        <time>2019-05-18T16:44:12Z</time>
      </trkpt>
      <trkpt lat="45.60605" lon="2.26883">
        <ele>739</ele>
        <time>2019-05-18T16:44:13Z</time>
      </trkpt>
      <trkpt lat="45.60606" lon="2.26886">
        <ele>740</ele>
        <time>2019-05-18T16:44:14Z</time>
      </trkpt>
      <trkpt lat="45.60607" lon="2.26888">
        <ele>740</ele>
        <time>2019-05-18T16:44:15Z</time>
      </trkpt>
      <trkpt lat="45.60608" lon="2.26891">
        <ele>740</ele>
        <time>2019-05-18T16:44:16Z</time>
      </trkpt>
      <trkpt lat="45.60608" lon="2.26894">
        <ele>740</ele>
        <time>2019-05-18T16:44:17Z</time>
      </trkpt>
      <trkpt lat="45.60609" lon="2.26897">
        <ele>741</ele>
        <time>2019-05-18T16:44:18Z</time>
      </trkpt>
      <trkpt lat="45.60609" lon="2.26901">
        <ele>741</ele>
        <time>2019-05-18T16:44:19Z</time>
      </trkpt>
      <trkpt lat="45.60609" lon="2.26905">
        <ele>741</ele>
        <time>2019-05-18T16:44:20Z</time>
      </trkpt>
      <trkpt lat="45.60608" lon="2.26908">
        <ele>741</ele>
        <time>2019-05-18T16:44:21Z</time>
      </trkpt>
      <trkpt lat="45.60608" lon="2.2691">
        <ele>742</ele>
        <time>2019-05-18T16:44:22Z</time>
      </trkpt>
      <trkpt lat="45.60608" lon="2.26913">
        <ele>742</ele>
        <time>2019-05-18T16:44:23Z</time>
      </trkpt>
      <trkpt lat="45.60608" lon="2.26917">
        <ele>742</ele>
        <time>2019-05-18T16:44:24Z</time>
      </trkpt>
      <trkpt lat="45.60608" lon="2.2692">
        <ele>742</ele>
        <time>2019-05-18T16:44:25Z</time>
      </trkpt>
      <trkpt lat="45.60608" lon="2.26922">
        <ele>743</ele>
        <time>2019-05-18T16:44:26Z</time>
      </trkpt>
      <trkpt lat="45.60608" lon="2.26925">
        <ele>743</ele>
        <time>2019-05-18T16:44:27Z</time>
      </trkpt>
      <trkpt lat="45.60608" lon="2.26928">
        <ele>743</ele>
        <time>2019-05-18T16:44:28Z</time>
      </trkpt>
      <trkpt lat="45.60609" lon="2.26931">
        <ele>743</ele>
        <time>2019-05-18T16:44:29Z</time>
      </trkpt>
      <trkpt lat="45.60609" lon="2.26933">
        <ele>743</ele>
        <time>2019-05-18T16:44:30Z</time>
      </trkpt>
      <trkpt lat="45.6061" lon="2.26935">
        <ele>744</ele>
        <time>2019-05-18T16:44:31Z</time>
      </trkpt>
      <trkpt lat="45.6061" lon="2.26938">
        <ele>744</ele>
        <time>2019-05-18T16:44:32Z</time>
      </trkpt>
      <trkpt lat="45.60609" lon="2.2694">
        <ele>744</ele>
        <time>2019-05-18T16:44:33Z</time>
      </trkpt>
      <trkpt lat="45.60608" lon="2.26943">
        <ele>744</ele>
        <time>2019-05-18T16:44:34Z</time>
      </trkpt>
      <trkpt lat="45.60607" lon="2.26946">
        <ele>744</ele>
        <time>2019-05-18T16:44:35Z</time>
      </trkpt>
      <trkpt lat="45.60606" lon="2.26948">
        <ele>745</ele>
        <time>2019-05-18T16:44:36Z</time>
      </trkpt>
      <trkpt lat="45.60605" lon="2.26951">
        <ele>745</ele>
        <time>2019-05-18T16:44:37Z</time>
      </trkpt>
      <trkpt lat="45.60605" lon="2.26954">
        <ele>745</ele>
        <time>2019-05-18T16:44:38Z</time>
      </trkpt>
      <trkpt lat="45.60603" lon="2.26954">
        <ele>745</ele>
        <time>2019-05-18T16:44:39Z</time>
      </trkpt>
      <trkpt lat="45.60602" lon="2.26956">
        <ele>745</ele>
        <time>2019-05-18T16:44:40Z</time>
      </trkpt>
      <trkpt lat="45.606" lon="2.26959">
        <ele>745</ele>
        <time>2019-05-18T16:44:41Z</time>
      </trkpt>
      <trkpt lat="45.60599" lon="2.26962">
        <ele>745</ele>
        <time>2019-05-18T16:44:42Z</time>
      </trkpt>
      <trkpt lat="45.60598" lon="2.26965">
        <ele>745</ele>
        <time>2019-05-18T16:44:43Z</time>
      </trkpt>
      <trkpt lat="45.60597" lon="2.26968">
        <ele>745</ele>
        <time>2019-05-18T16:44:44Z</time>
      </trkpt>
      <trkpt lat="45.60596" lon="2.2697">
        <ele>745</ele>
        <time>2019-05-18T16:44:45Z</time>
      </trkpt>
      <trkpt lat="45.60594" lon="2.26972">
        <ele>745</ele>
        <time>2019-05-18T16:44:46Z</time>
      </trkpt>
      <trkpt lat="45.60593" lon="2.26975">
        <ele>745</ele>
        <time>2019-05-18T16:44:47Z</time>
      </trkpt>
      <trkpt lat="45.60591" lon="2.26978">
        <ele>745</ele>
        <time>2019-05-18T16:44:48Z</time>
      </trkpt>
      <trkpt lat="45.60589" lon="2.26982">
        <ele>745</ele>
        <time>2019-05-18T16:44:49Z</time>
      </trkpt>
      <trkpt lat="45.60588" lon="2.26986">
        <ele>745</ele>
        <time>2019-05-18T16:44:50Z</time>
      </trkpt>
      <trkpt lat="45.60586" lon="2.26989">
        <ele>745</ele>
        <time>2019-05-18T16:44:51Z</time>
      </trkpt>
      <trkpt lat="45.60584" lon="2.26993">
        <ele>745</ele>
        <time>2019-05-18T16:44:52Z</time>
      </trkpt>
      <trkpt lat="45.60582" lon="2.26998">
        <ele>744</ele>
        <time>2019-05-18T16:44:53Z</time>
      </trkpt>
      <trkpt lat="45.6058" lon="2.27005">
        <ele>744</ele>
        <time>2019-05-18T16:44:54Z</time>
      </trkpt>
      <trkpt lat="45.60577" lon="2.2701">
        <ele>744</ele>
        <time>2019-05-18T16:44:55Z</time>
      </trkpt>
      <trkpt lat="45.60574" lon="2.27015">
        <ele>744</ele>
        <time>2019-05-18T16:44:56Z</time>
      </trkpt>
      <trkpt lat="45.60571" lon="2.2702">
        <ele>744</ele>
        <time>2019-05-18T16:44:57Z</time>
      </trkpt>
      <trkpt lat="45.60567" lon="2.27024">
        <ele>744</ele>
        <time>2019-05-18T16:44:58Z</time>
      </trkpt>
      <trkpt lat="45.60564" lon="2.27028">
        <ele>743</ele>
        <time>2019-05-18T16:44:59Z</time>
      </trkpt>
      <trkpt lat="45.6056" lon="2.2703">
        <ele>743</ele>
        <time>2019-05-18T16:45:00Z</time>
      </trkpt>
      <trkpt lat="45.60557" lon="2.27033">
        <ele>743</ele>
        <time>2019-05-18T16:45:01Z</time>
      </trkpt>
      <trkpt lat="45.60554" lon="2.27036">
        <ele>743</ele>
        <time>2019-05-18T16:45:02Z</time>
      </trkpt>
      <trkpt lat="45.60551" lon="2.27038">
        <ele>743</ele>
        <time>2019-05-18T16:45:03Z</time>
      </trkpt>
      <trkpt lat="45.60548" lon="2.2704">
        <ele>743</ele>
        <time>2019-05-18T16:45:04Z</time>
      </trkpt>
      <trkpt lat="45.60545" lon="2.27042">
        <ele>743</ele>
        <time>2019-05-18T16:45:05Z</time>
      </trkpt>
      <trkpt lat="45.60542" lon="2.27044">
        <ele>743</ele>
        <time>2019-05-18T16:45:06Z</time>
      </trkpt>
      <trkpt lat="45.60539" lon="2.27047">
        <ele>743</ele>
        <time>2019-05-18T16:45:07Z</time>
      </trkpt>
      <trkpt lat="45.60536" lon="2.27049">
        <ele>743</ele>
        <time>2019-05-18T16:45:08Z</time>
      </trkpt>
      <trkpt lat="45.60532" lon="2.27051">
        <ele>743</ele>
        <time>2019-05-18T16:45:09Z</time>
      </trkpt>
      <trkpt lat="45.60529" lon="2.27054">
        <ele>743</ele>
        <time>2019-05-18T16:45:10Z</time>
      </trkpt>
      <trkpt lat="45.60526" lon="2.27057">
        <ele>743</ele>
        <time>2019-05-18T16:45:11Z</time>
      </trkpt>
      <trkpt lat="45.60524" lon="2.2706">
        <ele>743</ele>
        <time>2019-05-18T16:45:12Z</time>
      </trkpt>
      <trkpt lat="45.60521" lon="2.27063">
        <ele>743</ele>
        <time>2019-05-18T16:45:13Z</time>
      </trkpt>
      <trkpt lat="45.60518" lon="2.27066">
        <ele>743</ele>
        <time>2019-05-18T16:45:14Z</time>
      </trkpt>
      <trkpt lat="45.60516" lon="2.2707">
        <ele>743</ele>
        <time>2019-05-18T16:45:15Z</time>
      </trkpt>
      <trkpt lat="45.60514" lon="2.27074">
        <ele>743</ele>
        <time>2019-05-18T16:45:16Z</time>
      </trkpt>
      <trkpt lat="45.60513" lon="2.27078">
        <ele>743</ele>
        <time>2019-05-18T16:45:17Z</time>
      </trkpt>
      <trkpt lat="45.60511" lon="2.27082">
        <ele>743</ele>
        <time>2019-05-18T16:45:18Z</time>
      </trkpt>
      <trkpt lat="45.60509" lon="2.27086">
        <ele>743</ele>
        <time>2019-05-18T16:45:19Z</time>
      </trkpt>
      <trkpt lat="45.60508" lon="2.2709">
        <ele>743</ele>
        <time>2019-05-18T16:45:20Z</time>
      </trkpt>
      <trkpt lat="45.60506" lon="2.27095">
        <ele>743</ele>
        <time>2019-05-18T16:45:21Z</time>
      </trkpt>
      <trkpt lat="45.60504" lon="2.27099">
        <ele>743</ele>
        <time>2019-05-18T16:45:22Z</time>
      </trkpt>
      <trkpt lat="45.60502" lon="2.27103">
        <ele>743</ele>
        <time>2019-05-18T16:45:23Z</time>
      </trkpt>
      <trkpt lat="45.60501" lon="2.27107">
        <ele>743</ele>
        <time>2019-05-18T16:45:24Z</time>
      </trkpt>
      <trkpt lat="45.60499" lon="2.27111">
        <ele>743</ele>
        <time>2019-05-18T16:45:25Z</time>
      </trkpt>
      <trkpt lat="45.60497" lon="2.27115">
        <ele>743</ele>
        <time>2019-05-18T16:45:26Z</time>
      </trkpt>
      <trkpt lat="45.60495" lon="2.27119">
        <ele>743</ele>
        <time>2019-05-18T16:45:27Z</time>
      </trkpt>
      <trkpt lat="45.60492" lon="2.27123">
        <ele>743</ele>
        <time>2019-05-18T16:45:28Z</time>
      </trkpt>
      <trkpt lat="45.6049" lon="2.27127">
        <ele>743</ele>
        <time>2019-05-18T16:45:29Z</time>
      </trkpt>
      <trkpt lat="45.60488" lon="2.2713">
        <ele>743</ele>
        <time>2019-05-18T16:45:30Z</time>
      </trkpt>
      <trkpt lat="45.60486" lon="2.27134">
        <ele>743</ele>
        <time>2019-05-18T16:45:31Z</time>
      </trkpt>
      <trkpt lat="45.60484" lon="2.27138">
        <ele>743</ele>
        <time>2019-05-18T16:45:32Z</time>
      </trkpt>
      <trkpt lat="45.60481" lon="2.27142">
        <ele>743</ele>
        <time>2019-05-18T16:45:33Z</time>
      </trkpt>
      <trkpt lat="45.60479" lon="2.27146">
        <ele>743</ele>
        <time>2019-05-18T16:45:34Z</time>
      </trkpt>
      <trkpt lat="45.60477" lon="2.2715">
        <ele>743</ele>
        <time>2019-05-18T16:45:35Z</time>
      </trkpt>
      <trkpt lat="45.60475" lon="2.27153">
        <ele>743</ele>
        <time>2019-05-18T16:45:36Z</time>
      </trkpt>
      <trkpt lat="45.60474" lon="2.27157">
        <ele>743</ele>
        <time>2019-05-18T16:45:37Z</time>
      </trkpt>
      <trkpt lat="45.60472" lon="2.27161">
        <ele>743</ele>
        <time>2019-05-18T16:45:38Z</time>
      </trkpt>
      <trkpt lat="45.60471" lon="2.27165">
        <ele>743</ele>
        <time>2019-05-18T16:45:39Z</time>
      </trkpt>
      <trkpt lat="45.60469" lon="2.2717">
        <ele>743</ele>
        <time>2019-05-18T16:45:40Z</time>
      </trkpt>
      <trkpt lat="45.60468" lon="2.27174">
        <ele>743</ele>
        <time>2019-05-18T16:45:41Z</time>
      </trkpt>
      <trkpt lat="45.60466" lon="2.27177">
        <ele>743</ele>
        <time>2019-05-18T16:45:42Z</time>
      </trkpt>
      <trkpt lat="45.60466" lon="2.2718">
        <ele>743</ele>
        <time>2019-05-18T16:45:43Z</time>
      </trkpt>
      <trkpt lat="45.60465" lon="2.27183">
        <ele>744</ele>
        <time>2019-05-18T16:45:44Z</time>
      </trkpt>
      <trkpt lat="45.60464" lon="2.27186">
        <ele>744</ele>
        <time>2019-05-18T16:45:45Z</time>
      </trkpt>
      <trkpt lat="45.60463" lon="2.2719">
        <ele>744</ele>
        <time>2019-05-18T16:45:46Z</time>
      </trkpt>
      <trkpt lat="45.60462" lon="2.27194">
        <ele>744</ele>
        <time>2019-05-18T16:45:47Z</time>
      </trkpt>
      <trkpt lat="45.60462" lon="2.27199">
        <ele>744</ele>
        <time>2019-05-18T16:45:48Z</time>
      </trkpt>
      <trkpt lat="45.60461" lon="2.27203">
        <ele>744</ele>
        <time>2019-05-18T16:45:49Z</time>
      </trkpt>
      <trkpt lat="45.60461" lon="2.27207">
        <ele>745</ele>
        <time>2019-05-18T16:45:50Z</time>
      </trkpt>
      <trkpt lat="45.60461" lon="2.27211">
        <ele>745</ele>
        <time>2019-05-18T16:45:51Z</time>
      </trkpt>
      <trkpt lat="45.60461" lon="2.27215">
        <ele>745</ele>
        <time>2019-05-18T16:45:52Z</time>
      </trkpt>
      <trkpt lat="45.60461" lon="2.27219">
        <ele>744</ele>
        <time>2019-05-18T16:45:53Z</time>
      </trkpt>
      <trkpt lat="45.60461" lon="2.27223">
        <ele>745</ele>
        <time>2019-05-18T16:45:54Z</time>
      </trkpt>
      <trkpt lat="45.60462" lon="2.27228">
        <ele>745</ele>
        <time>2019-05-18T16:45:55Z</time>
      </trkpt>
      <trkpt lat="45.60462" lon="2.27233">
        <ele>745</ele>
        <time>2019-05-18T16:45:56Z</time>
      </trkpt>
      <trkpt lat="45.60464" lon="2.27238">
        <ele>745</ele>
        <time>2019-05-18T16:45:57Z</time>
      </trkpt>
      <trkpt lat="45.60465" lon="2.27243">
        <ele>745</ele>
        <time>2019-05-18T16:45:58Z</time>
      </trkpt>
      <trkpt lat="45.60466" lon="2.27249">
        <ele>745</ele>
        <time>2019-05-18T16:45:59Z</time>
      </trkpt>
      <trkpt lat="45.60467" lon="2.27254">
        <ele>744</ele>
        <time>2019-05-18T16:46:00Z</time>
      </trkpt>
      <trkpt lat="45.60469" lon="2.27258">
        <ele>744</ele>
        <time>2019-05-18T16:46:01Z</time>
      </trkpt>
      <trkpt lat="45.6047" lon="2.27263">
        <ele>744</ele>
        <time>2019-05-18T16:46:02Z</time>
      </trkpt>
      <trkpt lat="45.60472" lon="2.27267">
        <ele>744</ele>
        <time>2019-05-18T16:46:03Z</time>
      </trkpt>
      <trkpt lat="45.60474" lon="2.27271">
        <ele>744</ele>
        <time>2019-05-18T16:46:04Z</time>
      </trkpt>
      <trkpt lat="45.60477" lon="2.27274">
        <ele>743</ele>
        <time>2019-05-18T16:46:05Z</time>
      </trkpt>
      <trkpt lat="45.60479" lon="2.27278">
        <ele>743</ele>
        <time>2019-05-18T16:46:06Z</time>
      </trkpt>
      <trkpt lat="45.60482" lon="2.27282">
        <ele>743</ele>
        <time>2019-05-18T16:46:07Z</time>
      </trkpt>
      <trkpt lat="45.60484" lon="2.27286">
        <ele>743</ele>
        <time>2019-05-18T16:46:08Z</time>
      </trkpt>
      <trkpt lat="45.60486" lon="2.2729">
        <ele>743</ele>
        <time>2019-05-18T16:46:09Z</time>
      </trkpt>
      <trkpt lat="45.60489" lon="2.27294">
        <ele>743</ele>
        <time>2019-05-18T16:46:10Z</time>
      </trkpt>
      <trkpt lat="45.60491" lon="2.27298">
        <ele>743</ele>
        <time>2019-05-18T16:46:11Z</time>
      </trkpt>
      <trkpt lat="45.60494" lon="2.27302">
        <ele>743</ele>
        <time>2019-05-18T16:46:12Z</time>
      </trkpt>
      <trkpt lat="45.60497" lon="2.27305">
        <ele>743</ele>
        <time>2019-05-18T16:46:13Z</time>
      </trkpt>
      <trkpt lat="45.605" lon="2.27309">
        <ele>743</ele>
        <time>2019-05-18T16:46:14Z</time>
      </trkpt>
      <trkpt lat="45.60503" lon="2.27313">
        <ele>743</ele>
        <time>2019-05-18T16:46:15Z</time>
      </trkpt>
      <trkpt lat="45.60507" lon="2.27316">
        <ele>743</ele>
        <time>2019-05-18T16:46:16Z</time>
      </trkpt>
      <trkpt lat="45.6051" lon="2.2732">
        <ele>743</ele>
        <time>2019-05-18T16:46:17Z</time>
      </trkpt>
      <trkpt lat="45.60514" lon="2.27323">
        <ele>743</ele>
        <time>2019-05-18T16:46:18Z</time>
      </trkpt>
      <trkpt lat="45.60518" lon="2.27326">
        <ele>743</ele>
        <time>2019-05-18T16:46:19Z</time>
      </trkpt>
      <trkpt lat="45.60522" lon="2.27328">
        <ele>743</ele>
        <time>2019-05-18T16:46:20Z</time>
      </trkpt>
      <trkpt lat="45.60526" lon="2.27331">
        <ele>743</ele>
        <time>2019-05-18T16:46:21Z</time>
      </trkpt>
      <trkpt lat="45.6053" lon="2.27333">
        <ele>743</ele>
        <time>2019-05-18T16:46:22Z</time>
      </trkpt>
      <trkpt lat="45.60534" lon="2.27335">
        <ele>743</ele>
        <time>2019-05-18T16:46:23Z</time>
      </trkpt>
      <trkpt lat="45.60538" lon="2.27337">
        <ele>743</ele>
        <time>2019-05-18T16:46:24Z</time>
      </trkpt>
      <trkpt lat="45.60542" lon="2.27339">
        <ele>743</ele>
        <time>2019-05-18T16:46:25Z</time>
      </trkpt>
      <trkpt lat="45.60546" lon="2.2734">
        <ele>743</ele>
        <time>2019-05-18T16:46:26Z</time>
      </trkpt>
      <trkpt lat="45.6055" lon="2.27342">
        <ele>743</ele>
        <time>2019-05-18T16:46:27Z</time>
      </trkpt>
      <trkpt lat="45.60554" lon="2.27343">
        <ele>743</ele>
        <time>2019-05-18T16:46:28Z</time>
      </trkpt>
      <trkpt lat="45.60558" lon="2.27345">
        <ele>743</ele>
        <time>2019-05-18T16:46:29Z</time>
      </trkpt>
      <trkpt lat="45.60562" lon="2.27347">
        <ele>743</ele>
        <time>2019-05-18T16:46:30Z</time>
      </trkpt>
      <trkpt lat="45.60565" lon="2.27348">
        <ele>743</ele>
        <time>2019-05-18T16:46:31Z</time>
      </trkpt>
      <trkpt lat="45.60569" lon="2.27349">
        <ele>743</ele>
        <time>2019-05-18T16:46:32Z</time>
      </trkpt>
      <trkpt lat="45.60572" lon="2.27351">
        <ele>743</ele>
        <time>2019-05-18T16:46:33Z</time>
      </trkpt>
      <trkpt lat="45.60575" lon="2.27352">
        <ele>743</ele>
        <time>2019-05-18T16:46:34Z</time>
      </trkpt>
      <trkpt lat="45.60579" lon="2.27353">
        <ele>744</ele>
        <time>2019-05-18T16:46:35Z</time>
      </trkpt>
      <trkpt lat="45.60582" lon="2.27355">
        <ele>744</ele>
        <time>2019-05-18T16:46:36Z</time>
      </trkpt>
      <trkpt lat="45.60585" lon="2.27356">
        <ele>744</ele>
        <time>2019-05-18T16:46:37Z</time>
      </trkpt>
      <trkpt lat="45.60588" lon="2.27357">
        <ele>744</ele>
        <time>2019-05-18T16:46:38Z</time>
      </trkpt>
      <trkpt lat="45.60591" lon="2.27359">
        <ele>744</ele>
        <time>2019-05-18T16:46:39Z</time>
      </trkpt>
      <trkpt lat="45.60594" lon="2.2736">
        <ele>744</ele>
        <time>2019-05-18T16:46:40Z</time>
      </trkpt>
      <trkpt lat="45.60598" lon="2.27361">
        <ele>744</ele>
        <time>2019-05-18T16:46:41Z</time>
      </trkpt>
      <trkpt lat="45.60601" lon="2.27363">
        <ele>745</ele>
        <time>2019-05-18T16:46:42Z</time>
      </trkpt>
      <trkpt lat="45.60604" lon="2.27364">
        <ele>745</ele>
        <time>2019-05-18T16:46:43Z</time>
      </trkpt>
      <trkpt lat="45.60607" lon="2.27365">
        <ele>745</ele>
        <time>2019-05-18T16:46:44Z</time>
      </trkpt>
      <trkpt lat="45.6061" lon="2.27366">
        <ele>745</ele>
        <time>2019-05-18T16:46:45Z</time>
      </trkpt>
      <trkpt lat="45.60612" lon="2.27365">
        <ele>745</ele>
        <time>2019-05-18T16:46:46Z</time>
      </trkpt>
      <trkpt lat="45.60615" lon="2.27365">
        <ele>745</ele>
        <time>2019-05-18T16:46:47Z</time>
      </trkpt>
      <trkpt lat="45.60617" lon="2.27365">
        <ele>746</ele>
        <time>2019-05-18T16:46:48Z</time>
      </trkpt>
      <trkpt lat="45.60619" lon="2.27365">
        <ele>746</ele>
        <time>2019-05-18T16:46:49Z</time>
      </trkpt>
      <trkpt lat="45.60622" lon="2.27365">
        <ele>746</ele>
        <time>2019-05-18T16:46:50Z</time>
      </trkpt>
      <trkpt lat="45.60625" lon="2.27365">
        <ele>746</ele>
        <time>2019-05-18T16:46:51Z</time>
      </trkpt>
      <trkpt lat="45.60627" lon="2.27364">
        <ele>746</ele>
        <time>2019-05-18T16:46:52Z</time>
      </trkpt>
      <trkpt lat="45.6063" lon="2.27364">
        <ele>746</ele>
        <time>2019-05-18T16:46:53Z</time>
      </trkpt>
      <trkpt lat="45.60632" lon="2.27363">
        <ele>747</ele>
        <time>2019-05-18T16:46:54Z</time>
      </trkpt>
      <trkpt lat="45.60635" lon="2.27363">
        <ele>747</ele>
        <time>2019-05-18T16:46:55Z</time>
      </trkpt>
      <trkpt lat="45.60638" lon="2.27363">
        <ele>747</ele>
        <time>2019-05-18T16:46:56Z</time>
      </trkpt>
      <trkpt lat="45.60641" lon="2.27363">
        <ele>747</ele>
        <time>2019-05-18T16:46:57Z</time>
      </trkpt>
      <trkpt lat="45.60643" lon="2.27363">
        <ele>748</ele>
        <time>2019-05-18T16:46:58Z</time>
      </trkpt>
      <trkpt lat="45.60646" lon="2.27364">
        <ele>748</ele>
        <time>2019-05-18T16:46:59Z</time>
      </trkpt>
      <trkpt lat="45.60649" lon="2.27364">
        <ele>748</ele>
        <time>2019-05-18T16:47:00Z</time>
      </trkpt>
      <trkpt lat="45.60651" lon="2.27365">
        <ele>748</ele>
        <time>2019-05-18T16:47:01Z</time>
      </trkpt>
      <trkpt lat="45.60654" lon="2.27366">
        <ele>749</ele>
        <time>2019-05-18T16:47:02Z</time>
      </trkpt>
      <trkpt lat="45.60656" lon="2.27368">
        <ele>749</ele>
        <time>2019-05-18T16:47:03Z</time>
      </trkpt>
      <trkpt lat="45.60658" lon="2.27369">
        <ele>749</ele>
        <time>2019-05-18T16:47:04Z</time>
      </trkpt>
      <trkpt lat="45.6066" lon="2.27371">
        <ele>750</ele>
        <time>2019-05-18T16:47:05Z</time>
      </trkpt>
      <trkpt lat="45.60661" lon="2.27374">
        <ele>750</ele>
        <time>2019-05-18T16:47:06Z</time>
      </trkpt>
      <trkpt lat="45.60663" lon="2.27377">
        <ele>750</ele>
        <time>2019-05-18T16:47:07Z</time>
      </trkpt>
      <trkpt lat="45.60664" lon="2.27381">
        <ele>750</ele>
        <time>2019-05-18T16:47:08Z</time>
      </trkpt>
      <trkpt lat="45.60664" lon="2.27384">
        <ele>750</ele>
        <time>2019-05-18T16:47:09Z</time>
      </trkpt>
      <trkpt lat="45.60665" lon="2.27388">
        <ele>750</ele>
        <time>2019-05-18T16:47:10Z</time>
      </trkpt>
      <trkpt lat="45.60664" lon="2.27392">
        <ele>750</ele>
        <time>2019-05-18T16:47:11Z</time>
      </trkpt>
      <trkpt lat="45.60664" lon="2.27394">
        <ele>750</ele>
        <time>2019-05-18T16:47:12Z</time>
      </trkpt>
      <trkpt lat="45.60664" lon="2.27398">
        <ele>750</ele>
        <time>2019-05-18T16:47:13Z</time>
      </trkpt>
      <trkpt lat="45.60664" lon="2.27403">
        <ele>750</ele>
        <time>2019-05-18T16:47:14Z</time>
      </trkpt>
      <trkpt lat="45.60663" lon="2.27409">
        <ele>750</ele>
        <time>2019-05-18T16:47:15Z</time>
      </trkpt>
      <trkpt lat="45.60661" lon="2.27415">
        <ele>749</ele>
        <time>2019-05-18T16:47:16Z</time>
      </trkpt>
      <trkpt lat="45.6066" lon="2.27422">
        <ele>749</ele>
        <time>2019-05-18T16:47:17Z</time>
      </trkpt>
      <trkpt lat="45.60658" lon="2.27428">
        <ele>749</ele>
        <time>2019-05-18T16:47:18Z</time>
      </trkpt>
      <trkpt lat="45.60657" lon="2.27435">
        <ele>749</ele>
        <time>2019-05-18T16:47:19Z</time>
      </trkpt>
      <trkpt lat="45.60656" lon="2.27442">
        <ele>748</ele>
        <time>2019-05-18T16:47:20Z</time>
      </trkpt>
      <trkpt lat="45.60655" lon="2.27449">
        <ele>748</ele>
        <time>2019-05-18T16:47:21Z</time>
      </trkpt>
      <trkpt lat="45.60653" lon="2.27457">
        <ele>748</ele>
        <time>2019-05-18T16:47:22Z</time>
      </trkpt>
      <trkpt lat="45.60652" lon="2.27465">
        <ele>748</ele>
        <time>2019-05-18T16:47:23Z</time>
      </trkpt>
      <trkpt lat="45.6065" lon="2.27472">
        <ele>748</ele>
        <time>2019-05-18T16:47:24Z</time>
      </trkpt>
      <trkpt lat="45.60649" lon="2.27478">
        <ele>748</ele>
        <time>2019-05-18T16:47:25Z</time>
      </trkpt>
      <trkpt lat="45.60647" lon="2.27484">
        <ele>748</ele>
        <time>2019-05-18T16:47:26Z</time>
      </trkpt>
      <trkpt lat="45.60646" lon="2.2749">
        <ele>748</ele>
        <time>2019-05-18T16:47:27Z</time>
      </trkpt>
      <trkpt lat="45.60645" lon="2.27494">
        <ele>749</ele>
        <time>2019-05-18T16:47:28Z</time>
      </trkpt>
      <trkpt lat="45.60643" lon="2.27499">
        <ele>749</ele>
        <time>2019-05-18T16:47:29Z</time>
      </trkpt>
      <trkpt lat="45.60642" lon="2.27503">
        <ele>749</ele>
        <time>2019-05-18T16:47:30Z</time>
      </trkpt>
      <trkpt lat="45.60641" lon="2.27507">
        <ele>749</ele>
        <time>2019-05-18T16:47:31Z</time>
      </trkpt>
      <trkpt lat="45.6064" lon="2.27512">
        <ele>749</ele>
        <time>2019-05-18T16:47:32Z</time>
      </trkpt>
      <trkpt lat="45.60639" lon="2.27516">
        <ele>749</ele>
        <time>2019-05-18T16:47:33Z</time>
      </trkpt>
      <trkpt lat="45.60638" lon="2.2752">
        <ele>750</ele>
        <time>2019-05-18T16:47:34Z</time>
      </trkpt>
      <trkpt lat="45.60637" lon="2.27524">
        <ele>750</ele>
        <time>2019-05-18T16:47:35Z</time>
      </trkpt>
      <trkpt lat="45.60636" lon="2.27528">
        <ele>750</ele>
        <time>2019-05-18T16:47:36Z</time>
      </trkpt>
      <trkpt lat="45.60635" lon="2.27533">
        <ele>750</ele>
        <time>2019-05-18T16:47:37Z</time>
      </trkpt>
      <trkpt lat="45.60635" lon="2.27537">
        <ele>750</ele>
        <time>2019-05-18T16:47:38Z</time>
      </trkpt>
      <trkpt lat="45.60634" lon="2.27541">
        <ele>751</ele>
        <time>2019-05-18T16:47:39Z</time>
      </trkpt>
      <trkpt lat="45.60633" lon="2.27545">
        <ele>751</ele>
        <time>2019-05-18T16:47:40Z</time>
      </trkpt>
      <trkpt lat="45.60632" lon="2.27549">
        <ele>751</ele>
        <time>2019-05-18T16:47:41Z</time>
      </trkpt>
      <trkpt lat="45.60631" lon="2.27553">
        <ele>751</ele>
        <time>2019-05-18T16:47:42Z</time>
      </trkpt>
      <trkpt lat="45.6063" lon="2.27557">
        <ele>751</ele>
        <time>2019-05-18T16:47:43Z</time>
      </trkpt>
      <trkpt lat="45.60629" lon="2.2756">
        <ele>752</ele>
        <time>2019-05-18T16:47:44Z</time>
      </trkpt>
      <trkpt lat="45.60629" lon="2.27564">
        <ele>752</ele>
        <time>2019-05-18T16:47:45Z</time>
      </trkpt>
      <trkpt lat="45.60628" lon="2.27568">
        <ele>752</ele>
        <time>2019-05-18T16:47:46Z</time>
      </trkpt>
      <trkpt lat="45.60627" lon="2.27571">
        <ele>752</ele>
        <time>2019-05-18T16:47:47Z</time>
      </trkpt>
      <trkpt lat="45.60626" lon="2.27575">
        <ele>753</ele>
        <time>2019-05-18T16:47:48Z</time>
      </trkpt>
      <trkpt lat="45.60626" lon="2.27579">
        <ele>753</ele>
        <time>2019-05-18T16:47:49Z</time>
      </trkpt>
      <trkpt lat="45.60625" lon="2.27582">
        <ele>753</ele>
        <time>2019-05-18T16:47:50Z</time>
      </trkpt>
      <trkpt lat="45.60626" lon="2.27586">
        <ele>753</ele>
        <time>2019-05-18T16:47:51Z</time>
      </trkpt>
      <trkpt lat="45.60627" lon="2.27589">
        <ele>753</ele>
        <time>2019-05-18T16:47:52Z</time>
      </trkpt>
      <trkpt lat="45.60629" lon="2.27591">
        <ele>753</ele>
        <time>2019-05-18T16:47:53Z</time>
      </trkpt>
      <trkpt lat="45.60631" lon="2.27593">
        <ele>753</ele>
        <time>2019-05-18T16:47:54Z</time>
      </trkpt>
      <trkpt lat="45.60634" lon="2.27594">
        <ele>753</ele>
        <time>2019-05-18T16:47:55Z</time>
      </trkpt>
      <trkpt lat="45.60637" lon="2.27596">
        <ele>753</ele>
        <time>2019-05-18T16:47:56Z</time>
      </trkpt>
      <trkpt lat="45.60639" lon="2.27597">
        <ele>753</ele>
        <time>2019-05-18T16:47:57Z</time>
      </trkpt>
      <trkpt lat="45.60643" lon="2.27597">
        <ele>753</ele>
        <time>2019-05-18T16:47:58Z</time>
      </trkpt>
      <trkpt lat="45.60646" lon="2.27598">
        <ele>753</ele>
        <time>2019-05-18T16:47:59Z</time>
      </trkpt>
      <trkpt lat="45.60648" lon="2.27598">
        <ele>753</ele>
        <time>2019-05-18T16:48:00Z</time>
      </trkpt>
      <trkpt lat="45.60651" lon="2.27599">
        <ele>753</ele>
        <time>2019-05-18T16:48:01Z</time>
      </trkpt>
      <trkpt lat="45.60654" lon="2.276">
        <ele>753</ele>
        <time>2019-05-18T16:48:02Z</time>
      </trkpt>
      <trkpt lat="45.60657" lon="2.276">
        <ele>753</ele>
        <time>2019-05-18T16:48:03Z</time>
      </trkpt>
      <trkpt lat="45.60659" lon="2.27601">
        <ele>753</ele>
        <time>2019-05-18T16:48:04Z</time>
      </trkpt>
      <trkpt lat="45.60662" lon="2.27601">
        <ele>753</ele>
        <time>2019-05-18T16:48:05Z</time>
      </trkpt>
      <trkpt lat="45.60665" lon="2.27602">
        <ele>753</ele>
        <time>2019-05-18T16:48:06Z</time>
      </trkpt>
      <trkpt lat="45.60668" lon="2.27602">
        <ele>753</ele>
        <time>2019-05-18T16:48:07Z</time>
      </trkpt>
      <trkpt lat="45.60671" lon="2.27602">
        <ele>753</ele>
        <time>2019-05-18T16:48:08Z</time>
      </trkpt>
      <trkpt lat="45.60674" lon="2.27602">
        <ele>753</ele>
        <time>2019-05-18T16:48:09Z</time>
      </trkpt>
      <trkpt lat="45.60676" lon="2.27602">
        <ele>753</ele>
        <time>2019-05-18T16:48:10Z</time>
      </trkpt>
      <trkpt lat="45.60679" lon="2.27603">
        <ele>753</ele>
        <time>2019-05-18T16:48:11Z</time>
      </trkpt>
      <trkpt lat="45.60682" lon="2.27603">
        <ele>753</ele>
        <time>2019-05-18T16:48:12Z</time>
      </trkpt>
      <trkpt lat="45.60685" lon="2.27603">
        <ele>753</ele>
        <time>2019-05-18T16:48:13Z</time>
      </trkpt>
      <trkpt lat="45.60688" lon="2.27603">
        <ele>753</ele>
        <time>2019-05-18T16:48:14Z</time>
      </trkpt>
      <trkpt lat="45.60691" lon="2.27603">
        <ele>753</ele>
        <time>2019-05-18T16:48:15Z</time>
      </trkpt>
      <trkpt lat="45.60694" lon="2.27603">
        <ele>754</ele>
        <time>2019-05-18T16:48:16Z</time>
      </trkpt>
      <trkpt lat="45.60697" lon="2.27602">
        <ele>754</ele>
        <time>2019-05-18T16:48:17Z</time>
      </trkpt>
      <trkpt lat="45.607" lon="2.27602">
        <ele>754</ele>
        <time>2019-05-18T16:48:18Z</time>
      </trkpt>
      <trkpt lat="45.60703" lon="2.27601">
        <ele>754</ele>
        <time>2019-05-18T16:48:19Z</time>
      </trkpt>
      <trkpt lat="45.60706" lon="2.276">
        <ele>754</ele>
        <time>2019-05-18T16:48:20Z</time>
      </trkpt>
      <trkpt lat="45.60708" lon="2.276">
        <ele>754</ele>
        <time>2019-05-18T16:48:21Z</time>
      </trkpt>
      <trkpt lat="45.60711" lon="2.27599">
        <ele>754</ele>
        <time>2019-05-18T16:48:22Z</time>
      </trkpt>
      <trkpt lat="45.60714" lon="2.27599">
        <ele>754</ele>
        <time>2019-05-18T16:48:23Z</time>
      </trkpt>
      <trkpt lat="45.60717" lon="2.27598">
        <ele>754</ele>
        <time>2019-05-18T16:48:24Z</time>
      </trkpt>
      <trkpt lat="45.6072" lon="2.27597">
        <ele>754</ele>
        <time>2019-05-18T16:48:25Z</time>
      </trkpt>
      <trkpt lat="45.60723" lon="2.27596">
        <ele>755</ele>
        <time>2019-05-18T16:48:26Z</time>
      </trkpt>
      <trkpt lat="45.60725" lon="2.27595">
        <ele>755</ele>
        <time>2019-05-18T16:48:27Z</time>
      </trkpt>
      <trkpt lat="45.60728" lon="2.27594">
        <ele>755</ele>
        <time>2019-05-18T16:48:28Z</time>
      </trkpt>
      <trkpt lat="45.60731" lon="2.27593">
        <ele>755</ele>
        <time>2019-05-18T16:48:29Z</time>
      </trkpt>
      <trkpt lat="45.60734" lon="2.27593">
        <ele>755</ele>
        <time>2019-05-18T16:48:30Z</time>
      </trkpt>
      <trkpt lat="45.60736" lon="2.27592">
        <ele>755</ele>
        <time>2019-05-18T16:48:31Z</time>
      </trkpt>
      <trkpt lat="45.60739" lon="2.27591">
        <ele>755</ele>
        <time>2019-05-18T16:48:32Z</time>
      </trkpt>
      <trkpt lat="45.60742" lon="2.27589">
        <ele>755</ele>
        <time>2019-05-18T16:48:33Z</time>
      </trkpt>
      <trkpt lat="45.60744" lon="2.27588">
        <ele>756</ele>
        <time>2019-05-18T16:48:34Z</time>
      </trkpt>
      <trkpt lat="45.60747" lon="2.27587">
        <ele>756</ele>
        <time>2019-05-18T16:48:35Z</time>
      </trkpt>
      <trkpt lat="45.60749" lon="2.27586">
        <ele>756</ele>
        <time>2019-05-18T16:48:36Z</time>
      </trkpt>
      <trkpt lat="45.60752" lon="2.27584">
        <ele>756</ele>
        <time>2019-05-18T16:48:37Z</time>
      </trkpt>
      <trkpt lat="45.60755" lon="2.27583">
        <ele>756</ele>
        <time>2019-05-18T16:48:38Z</time>
      </trkpt>
      <trkpt lat="45.60757" lon="2.27581">
        <ele>756</ele>
        <time>2019-05-18T16:48:39Z</time>
      </trkpt>
      <trkpt lat="45.6076" lon="2.27579">
        <ele>756</ele>
        <time>2019-05-18T16:48:40Z</time>
      </trkpt>
      <trkpt lat="45.60762" lon="2.27577">
        <ele>756</ele>
        <time>2019-05-18T16:48:41Z</time>
      </trkpt>
      <trkpt lat="45.60765" lon="2.27575">
        <ele>756</ele>
        <time>2019-05-18T16:48:42Z</time>
      </trkpt>
      <trkpt lat="45.60768" lon="2.27573">
        <ele>757</ele>
        <time>2019-05-18T16:48:43Z</time>
      </trkpt>
      <trkpt lat="45.6077" lon="2.27571">
        <ele>757</ele>
        <time>2019-05-18T16:48:44Z</time>
      </trkpt>
      <trkpt lat="45.60773" lon="2.27568">
        <ele>757</ele>
        <time>2019-05-18T16:48:45Z</time>
      </trkpt>
      <trkpt lat="45.60775" lon="2.27566">
        <ele>757</ele>
        <time>2019-05-18T16:48:46Z</time>
      </trkpt>
      <trkpt lat="45.60778" lon="2.27565">
        <ele>757</ele>
        <time>2019-05-18T16:48:47Z</time>
      </trkpt>
      <trkpt lat="45.60781" lon="2.27566">
        <ele>757</ele>
        <time>2019-05-18T16:48:48Z</time>
      </trkpt>
      <trkpt lat="45.60783" lon="2.27566">
        <ele>757</ele>
        <time>2019-05-18T16:48:49Z</time>
      </trkpt>
      <trkpt lat="45.60786" lon="2.27567">
        <ele>757</ele>
        <time>2019-05-18T16:48:50Z</time>
      </trkpt>
      <trkpt lat="45.60788" lon="2.27569">
        <ele>757</ele>
        <time>2019-05-18T16:48:51Z</time>
      </trkpt>
      <trkpt lat="45.60791" lon="2.2757">
        <ele>758</ele>
        <time>2019-05-18T16:48:52Z</time>
      </trkpt>
      <trkpt lat="45.60793" lon="2.27571">
        <ele>758</ele>
        <time>2019-05-18T16:48:53Z</time>
      </trkpt>
      <trkpt lat="45.60796" lon="2.27572">
        <ele>758</ele>
        <time>2019-05-18T16:48:54Z</time>
      </trkpt>
      <trkpt lat="45.60798" lon="2.27572">
        <ele>758</ele>
        <time>2019-05-18T16:48:55Z</time>
      </trkpt>
      <trkpt lat="45.608" lon="2.27573">
        <ele>758</ele>
        <time>2019-05-18T16:48:56Z</time>
      </trkpt>
      <trkpt lat="45.60802" lon="2.27575">
        <ele>758</ele>
        <time>2019-05-18T16:48:57Z</time>
      </trkpt>
      <trkpt lat="45.60804" lon="2.27576">
        <ele>759</ele>
        <time>2019-05-18T16:48:58Z</time>
      </trkpt>
      <trkpt lat="45.60806" lon="2.27577">
        <ele>759</ele>
        <time>2019-05-18T16:48:59Z</time>
      </trkpt>
      <trkpt lat="45.60808" lon="2.27577">
        <ele>759</ele>
        <time>2019-05-18T16:49:00Z</time>
      </trkpt>
      <trkpt lat="45.6081" lon="2.27578">
        <ele>759</ele>
        <time>2019-05-18T16:49:01Z</time>
      </trkpt>
      <trkpt lat="45.60813" lon="2.27579">
        <ele>759</ele>
        <time>2019-05-18T16:49:02Z</time>
      </trkpt>
      <trkpt lat="45.60815" lon="2.2758">
        <ele>760</ele>
        <time>2019-05-18T16:49:03Z</time>
      </trkpt>
      <trkpt lat="45.60817" lon="2.27581">
        <ele>760</ele>
        <time>2019-05-18T16:49:04Z</time>
      </trkpt>
      <trkpt lat="45.60819" lon="2.27582">
        <ele>760</ele>
        <time>2019-05-18T16:49:05Z</time>
      </trkpt>
      <trkpt lat="45.60822" lon="2.27582">
        <ele>760</ele>
        <time>2019-05-18T16:49:06Z</time>
      </trkpt>
      <trkpt lat="45.60824" lon="2.27583">
        <ele>760</ele>
        <time>2019-05-18T16:49:07Z</time>
      </trkpt>
      <trkpt lat="45.60826" lon="2.27583">
        <ele>760</ele>
        <time>2019-05-18T16:49:08Z</time>
      </trkpt>
      <trkpt lat="45.60828" lon="2.27583">
        <ele>761</ele>
        <time>2019-05-18T16:49:09Z</time>
      </trkpt>
      <trkpt lat="45.6083" lon="2.27583">
        <ele>761</ele>
        <time>2019-05-18T16:49:10Z</time>
      </trkpt>
      <trkpt lat="45.60832" lon="2.27584">
        <ele>761</ele>
        <time>2019-05-18T16:49:11Z</time>
      </trkpt>
      <trkpt lat="45.60834" lon="2.27585">
        <ele>761</ele>
        <time>2019-05-18T16:49:12Z</time>
      </trkpt>
      <trkpt lat="45.60837" lon="2.27585">
        <ele>761</ele>
        <time>2019-05-18T16:49:13Z</time>
      </trkpt>
      <trkpt lat="45.60839" lon="2.27585">
        <ele>761</ele>
        <time>2019-05-18T16:49:14Z</time>
      </trkpt>
      <trkpt lat="45.6084" lon="2.27586">
        <ele>761</ele>
        <time>2019-05-18T16:49:15Z</time>
      </trkpt>
      <trkpt lat="45.60841" lon="2.27587">
        <ele>761</ele>
        <time>2019-05-18T16:49:16Z</time>
      </trkpt>
      <trkpt lat="45.60843" lon="2.27588">
        <ele>762</ele>
        <time>2019-05-18T16:49:17Z</time>
      </trkpt>
      <trkpt lat="45.60845" lon="2.2759">
        <ele>762</ele>
        <time>2019-05-18T16:49:18Z</time>
      </trkpt>
      <trkpt lat="45.60846" lon="2.27592">
        <ele>762</ele>
        <time>2019-05-18T16:49:19Z</time>
      </trkpt>
      <trkpt lat="45.60847" lon="2.27594">
        <ele>762</ele>
        <time>2019-05-18T16:49:20Z</time>
      </trkpt>
      <trkpt lat="45.60848" lon="2.27596">
        <ele>762</ele>
        <time>2019-05-18T16:49:21Z</time>
      </trkpt>
      <trkpt lat="45.60849" lon="2.27597">
        <ele>763</ele>
        <time>2019-05-18T16:49:22Z</time>
      </trkpt>
      <trkpt lat="45.60849" lon="2.27598">
        <ele>763</ele>
        <time>2019-05-18T16:49:23Z</time>
      </trkpt>
      <trkpt lat="45.60851" lon="2.27601">
        <ele>763</ele>
        <time>2019-05-18T16:49:24Z</time>
      </trkpt>
      <trkpt lat="45.60852" lon="2.27604">
        <ele>763</ele>
        <time>2019-05-18T16:49:25Z</time>
      </trkpt>
      <trkpt lat="45.60853" lon="2.27606">
        <ele>763</ele>
        <time>2019-05-18T16:49:26Z</time>
      </trkpt>
      <trkpt lat="45.60854" lon="2.27608">
        <ele>763</ele>
        <time>2019-05-18T16:49:27Z</time>
      </trkpt>
      <trkpt lat="45.60855" lon="2.27611">
        <ele>763</ele>
        <time>2019-05-18T16:49:28Z</time>
      </trkpt>
      <trkpt lat="45.60856" lon="2.27614">
        <ele>763</ele>
        <time>2019-05-18T16:49:29Z</time>
      </trkpt>
      <trkpt lat="45.60857" lon="2.27617">
        <ele>763</ele>
        <time>2019-05-18T16:49:30Z</time>
      </trkpt>
      <trkpt lat="45.60858" lon="2.27619">
        <ele>763</ele>
        <time>2019-05-18T16:49:31Z</time>
      </trkpt>
      <trkpt lat="45.60859" lon="2.27622">
        <ele>763</ele>
        <time>2019-05-18T16:49:32Z</time>
      </trkpt>
      <trkpt lat="45.60861" lon="2.27625">
        <ele>763</ele>
        <time>2019-05-18T16:49:33Z</time>
      </trkpt>
      <trkpt lat="45.60862" lon="2.27629">
        <ele>763</ele>
        <time>2019-05-18T16:49:34Z</time>
      </trkpt>
      <trkpt lat="45.60863" lon="2.27632">
        <ele>763</ele>
        <time>2019-05-18T16:49:35Z</time>
      </trkpt>
      <trkpt lat="45.60864" lon="2.27635">
        <ele>763</ele>
        <time>2019-05-18T16:49:36Z</time>
      </trkpt>
      <trkpt lat="45.60865" lon="2.27639">
        <ele>763</ele>
        <time>2019-05-18T16:49:37Z</time>
      </trkpt>
      <trkpt lat="45.60866" lon="2.27642">
        <ele>763</ele>
        <time>2019-05-18T16:49:38Z</time>
      </trkpt>
      <trkpt lat="45.60867" lon="2.27645">
        <ele>763</ele>
        <time>2019-05-18T16:49:39Z</time>
      </trkpt>
      <trkpt lat="45.60868" lon="2.27649">
        <ele>763</ele>
        <time>2019-05-18T16:49:40Z</time>
      </trkpt>
      <trkpt lat="45.60869" lon="2.27653">
        <ele>762</ele>
        <time>2019-05-18T16:49:41Z</time>
      </trkpt>
      <trkpt lat="45.60871" lon="2.27657">
        <ele>762</ele>
        <time>2019-05-18T16:49:42Z</time>
      </trkpt>
      <trkpt lat="45.60873" lon="2.2766">
        <ele>762</ele>
        <time>2019-05-18T16:49:43Z</time>
      </trkpt>
      <trkpt lat="45.60877" lon="2.27663">
        <ele>762</ele>
        <time>2019-05-18T16:49:44Z</time>
      </trkpt>
      <trkpt lat="45.6088" lon="2.27667">
        <ele>761</ele>
        <time>2019-05-18T16:49:45Z</time>
      </trkpt>
      <trkpt lat="45.60881" lon="2.27673">
        <ele>761</ele>
        <time>2019-05-18T16:49:46Z</time>
      </trkpt>
      <trkpt lat="45.60882" lon="2.2768">
        <ele>761</ele>
        <time>2019-05-18T16:49:47Z</time>
      </trkpt>
      <trkpt lat="45.60883" lon="2.27687">
        <ele>761</ele>
        <time>2019-05-18T16:49:48Z</time>
      </trkpt>
      <trkpt lat="45.60886" lon="2.27694">
        <ele>760</ele>
        <time>2019-05-18T16:49:49Z</time>
      </trkpt>
      <trkpt lat="45.60889" lon="2.27702">
        <ele>760</ele>
        <time>2019-05-18T16:49:50Z</time>
      </trkpt>
      <trkpt lat="45.60891" lon="2.2771">
        <ele>759</ele>
        <time>2019-05-18T16:49:51Z</time>
      </trkpt>
      <trkpt lat="45.60893" lon="2.27719">
        <ele>759</ele>
        <time>2019-05-18T16:49:52Z</time>
      </trkpt>
      <trkpt lat="45.60895" lon="2.27728">
        <ele>758</ele>
        <time>2019-05-18T16:49:53Z</time>
      </trkpt>
      <trkpt lat="45.60897" lon="2.27737">
        <ele>757</ele>
        <time>2019-05-18T16:49:54Z</time>
      </trkpt>
      <trkpt lat="45.60899" lon="2.27748">
        <ele>756</ele>
        <time>2019-05-18T16:49:55Z</time>
      </trkpt>
      <trkpt lat="45.60901" lon="2.27758">
        <ele>756</ele>
        <time>2019-05-18T16:49:56Z</time>
      </trkpt>
      <trkpt lat="45.60902" lon="2.27769">
        <ele>756</ele>
        <time>2019-05-18T16:49:57Z</time>
      </trkpt>
      <trkpt lat="45.60904" lon="2.27779">
        <ele>755</ele>
        <time>2019-05-18T16:49:58Z</time>
      </trkpt>
      <trkpt lat="45.60907" lon="2.27789">
        <ele>755</ele>
        <time>2019-05-18T16:49:59Z</time>
      </trkpt>
      <trkpt lat="45.60909" lon="2.27799">
        <ele>754</ele>
        <time>2019-05-18T16:50:00Z</time>
      </trkpt>
      <trkpt lat="45.60912" lon="2.27809">
        <ele>754</ele>
        <time>2019-05-18T16:50:01Z</time>
      </trkpt>
      <trkpt lat="45.60914" lon="2.2782">
        <ele>754</ele>
        <time>2019-05-18T16:50:02Z</time>
      </trkpt>
      <trkpt lat="45.60916" lon="2.27831">
        <ele>753</ele>
        <time>2019-05-18T16:50:03Z</time>
      </trkpt>
      <trkpt lat="45.60919" lon="2.2784">
        <ele>753</ele>
        <time>2019-05-18T16:50:04Z</time>
      </trkpt>
      <trkpt lat="45.60921" lon="2.27849">
        <ele>753</ele>
        <time>2019-05-18T16:50:05Z</time>
      </trkpt>
      <trkpt lat="45.60924" lon="2.27856">
        <ele>753</ele>
        <time>2019-05-18T16:50:06Z</time>
      </trkpt>
      <trkpt lat="45.60928" lon="2.27862">
        <ele>753</ele>
        <time>2019-05-18T16:50:07Z</time>
      </trkpt>
      <trkpt lat="45.6093" lon="2.27867">
        <ele>754</ele>
        <time>2019-05-18T16:50:08Z</time>
      </trkpt>
      <trkpt lat="45.60932" lon="2.2787">
        <ele>754</ele>
        <time>2019-05-18T16:50:09Z</time>
      </trkpt>
      <trkpt lat="45.60933" lon="2.27873">
        <ele>754</ele>
        <time>2019-05-18T16:50:10Z</time>
      </trkpt>
      <trkpt lat="45.60935" lon="2.27876">
        <ele>754</ele>
        <time>2019-05-18T16:50:11Z</time>
      </trkpt>
      <trkpt lat="45.60936" lon="2.27879">
        <ele>754</ele>
        <time>2019-05-18T16:50:12Z</time>
      </trkpt>
      <trkpt lat="45.60938" lon="2.27882">
        <ele>755</ele>
        <time>2019-05-18T16:50:13Z</time>
      </trkpt>
      <trkpt lat="45.60939" lon="2.27886">
        <ele>755</ele>
        <time>2019-05-18T16:50:14Z</time>
      </trkpt>
      <trkpt lat="45.60939" lon="2.2789">
        <ele>755</ele>
        <time>2019-05-18T16:50:15Z</time>
      </trkpt>
      <trkpt lat="45.6094" lon="2.27893">
        <ele>755</ele>
        <time>2019-05-18T16:50:16Z</time>
      </trkpt>
      <trkpt lat="45.6094" lon="2.27896">
        <ele>755</ele>
        <time>2019-05-18T16:50:17Z</time>
      </trkpt>
      <trkpt lat="45.6094" lon="2.279">
        <ele>755</ele>
        <time>2019-05-18T16:50:18Z</time>
      </trkpt>
      <trkpt lat="45.6094" lon="2.27903">
        <ele>755</ele>
        <time>2019-05-18T16:50:19Z</time>
      </trkpt>
      <trkpt lat="45.6094" lon="2.27906">
        <ele>755</ele>
        <time>2019-05-18T16:50:20Z</time>
      </trkpt>
      <trkpt lat="45.6094" lon="2.2791">
        <ele>755</ele>
        <time>2019-05-18T16:50:21Z</time>
      </trkpt>
      <trkpt lat="45.6094" lon="2.27914">
        <ele>755</ele>
        <time>2019-05-18T16:50:22Z</time>
      </trkpt>
      <trkpt lat="45.6094" lon="2.27918">
        <ele>755</ele>
        <time>2019-05-18T16:50:23Z</time>
      </trkpt>
      <trkpt lat="45.6094" lon="2.27921">
        <ele>755</ele>
        <time>2019-05-18T16:50:24Z</time>
      </trkpt>
      <trkpt lat="45.6094" lon="2.27925">
        <ele>755</ele>
        <time>2019-05-18T16:50:25Z</time>
      </trkpt>
      <trkpt lat="45.60941" lon="2.27929">
        <ele>755</ele>
        <time>2019-05-18T16:50:26Z</time>
      </trkpt>
      <trkpt lat="45.60941" lon="2.27933">
        <ele>756</ele>
        <time>2019-05-18T16:50:27Z</time>
      </trkpt>
      <trkpt lat="45.6094" lon="2.27937">
        <ele>756</ele>
        <time>2019-05-18T16:50:28Z</time>
      </trkpt>
      <trkpt lat="45.6094" lon="2.27941">
        <ele>756</ele>
        <time>2019-05-18T16:50:29Z</time>
      </trkpt>
      <trkpt lat="45.6094" lon="2.27944">
        <ele>756</ele>
        <time>2019-05-18T16:50:30Z</time>
      </trkpt>
      <trkpt lat="45.6094" lon="2.27949">
        <ele>756</ele>
        <time>2019-05-18T16:50:31Z</time>
      </trkpt>
      <trkpt lat="45.6094" lon="2.27953">
        <ele>756</ele>
        <time>2019-05-18T16:50:32Z</time>
      </trkpt>
      <trkpt lat="45.6094" lon="2.27958">
        <ele>756</ele>
        <time>2019-05-18T16:50:33Z</time>
      </trkpt>
      <trkpt lat="45.60941" lon="2.27963">
        <ele>756</ele>
        <time>2019-05-18T16:50:34Z</time>
      </trkpt>
      <trkpt lat="45.60941" lon="2.27967">
        <ele>756</ele>
        <time>2019-05-18T16:50:35Z</time>
      </trkpt>
      <trkpt lat="45.60941" lon="2.27971">
        <ele>756</ele>
        <time>2019-05-18T16:50:36Z</time>
      </trkpt>
      <trkpt lat="45.6094" lon="2.27975">
        <ele>756</ele>
        <time>2019-05-18T16:50:37Z</time>
      </trkpt>
      <trkpt lat="45.6094" lon="2.27979">
        <ele>756</ele>
        <time>2019-05-18T16:50:38Z</time>
      </trkpt>
      <trkpt lat="45.60939" lon="2.27983">
        <ele>756</ele>
        <time>2019-05-18T16:50:39Z</time>
      </trkpt>
      <trkpt lat="45.60938" lon="2.27987">
        <ele>757</ele>
        <time>2019-05-18T16:50:40Z</time>
      </trkpt>
      <trkpt lat="45.60937" lon="2.2799">
        <ele>757</ele>
        <time>2019-05-18T16:50:41Z</time>
      </trkpt>
      <trkpt lat="45.60936" lon="2.27994">
        <ele>757</ele>
        <time>2019-05-18T16:50:42Z</time>
      </trkpt>
      <trkpt lat="45.60936" lon="2.27997">
        <ele>757</ele>
        <time>2019-05-18T16:50:43Z</time>
      </trkpt>
      <trkpt lat="45.60934" lon="2.28001">
        <ele>757</ele>
        <time>2019-05-18T16:50:44Z</time>
      </trkpt>
      <trkpt lat="45.60934" lon="2.28005">
        <ele>757</ele>
        <time>2019-05-18T16:50:45Z</time>
      </trkpt>
      <trkpt lat="45.60933" lon="2.28009">
        <ele>757</ele>
        <time>2019-05-18T16:50:46Z</time>
      </trkpt>
      <trkpt lat="45.60931" lon="2.28013">
        <ele>757</ele>
        <time>2019-05-18T16:50:47Z</time>
      </trkpt>
      <trkpt lat="45.6093" lon="2.28016">
        <ele>757</ele>
        <time>2019-05-18T16:50:48Z</time>
      </trkpt>
      <trkpt lat="45.60929" lon="2.28019">
        <ele>757</ele>
        <time>2019-05-18T16:50:49Z</time>
      </trkpt>
      <trkpt lat="45.60928" lon="2.28022">
        <ele>757</ele>
        <time>2019-05-18T16:50:50Z</time>
      </trkpt>
      <trkpt lat="45.60927" lon="2.28026">
        <ele>757</ele>
        <time>2019-05-18T16:50:51Z</time>
      </trkpt>
      <trkpt lat="45.60925" lon="2.28029">
        <ele>758</ele>
        <time>2019-05-18T16:50:52Z</time>
      </trkpt>
      <trkpt lat="45.60924" lon="2.28033">
        <ele>758</ele>
        <time>2019-05-18T16:50:53Z</time>
      </trkpt>
      <trkpt lat="45.60923" lon="2.28037">
        <ele>758</ele>
        <time>2019-05-18T16:50:54Z</time>
      </trkpt>
      <trkpt lat="45.60922" lon="2.28039">
        <ele>758</ele>
        <time>2019-05-18T16:50:55Z</time>
      </trkpt>
      <trkpt lat="45.6092" lon="2.28042">
        <ele>758</ele>
        <time>2019-05-18T16:50:56Z</time>
      </trkpt>
      <trkpt lat="45.60919" lon="2.28045">
        <ele>758</ele>
        <time>2019-05-18T16:50:57Z</time>
      </trkpt>
      <trkpt lat="45.60919" lon="2.28047">
        <ele>758</ele>
        <time>2019-05-18T16:50:58Z</time>
      </trkpt>
      <trkpt lat="45.60918" lon="2.2805">
        <ele>758</ele>
        <time>2019-05-18T16:50:59Z</time>
      </trkpt>
      <trkpt lat="45.60917" lon="2.28053">
        <ele>758</ele>
        <time>2019-05-18T16:51:00Z</time>
      </trkpt>
      <trkpt lat="45.60917" lon="2.28057">
        <ele>758</ele>
        <time>2019-05-18T16:51:01Z</time>
      </trkpt>
      <trkpt lat="45.60916" lon="2.2806">
        <ele>758</ele>
        <time>2019-05-18T16:51:02Z</time>
      </trkpt>
      <trkpt lat="45.60917" lon="2.28063">
        <ele>758</ele>
        <time>2019-05-18T16:51:03Z</time>
      </trkpt>
      <trkpt lat="45.60917" lon="2.28066">
        <ele>758</ele>
        <time>2019-05-18T16:51:04Z</time>
      </trkpt>
      <trkpt lat="45.60917" lon="2.28068">
        <ele>759</ele>
        <time>2019-05-18T16:51:05Z</time>
      </trkpt>
      <trkpt lat="45.60918" lon="2.28072">
        <ele>759</ele>
        <time>2019-05-18T16:51:06Z</time>
      </trkpt>
      <trkpt lat="45.60919" lon="2.28074">
        <ele>759</ele>
        <time>2019-05-18T16:51:07Z</time>
      </trkpt>
      <trkpt lat="45.60919" lon="2.28079">
        <ele>759</ele>
        <time>2019-05-18T16:51:08Z</time>
      </trkpt>
      <trkpt lat="45.6092" lon="2.28083">
        <ele>759</ele>
        <time>2019-05-18T16:51:09Z</time>
      </trkpt>
      <trkpt lat="45.60922" lon="2.28086">
        <ele>759</ele>
        <time>2019-05-18T16:51:10Z</time>
      </trkpt>
      <trkpt lat="45.60923" lon="2.2809">
        <ele>759</ele>
        <time>2019-05-18T16:51:11Z</time>
      </trkpt>
      <trkpt lat="45.60924" lon="2.28092">
        <ele>759</ele>
        <time>2019-05-18T16:51:12Z</time>
      </trkpt>
      <trkpt lat="45.60925" lon="2.28096">
        <ele>759</ele>
        <time>2019-05-18T16:51:13Z</time>
      </trkpt>
      <trkpt lat="45.60926" lon="2.28099">
        <ele>759</ele>
        <time>2019-05-18T16:51:14Z</time>
      </trkpt>
      <trkpt lat="45.60928" lon="2.28102">
        <ele>759</ele>
        <time>2019-05-18T16:51:15Z</time>
      </trkpt>
      <trkpt lat="45.60929" lon="2.28104">
        <ele>759</ele>
        <time>2019-05-18T16:51:16Z</time>
      </trkpt>
      <trkpt lat="45.60931" lon="2.28107">
        <ele>760</ele>
        <time>2019-05-18T16:51:17Z</time>
      </trkpt>
      <trkpt lat="45.60932" lon="2.28111">
        <ele>760</ele>
        <time>2019-05-18T16:51:18Z</time>
      </trkpt>
      <trkpt lat="45.60933" lon="2.28114">
        <ele>760</ele>
        <time>2019-05-18T16:51:19Z</time>
      </trkpt>
      <trkpt lat="45.60934" lon="2.28117">
        <ele>760</ele>
        <time>2019-05-18T16:51:20Z</time>
      </trkpt>
      <trkpt lat="45.60935" lon="2.2812">
        <ele>761</ele>
        <time>2019-05-18T16:51:21Z</time>
      </trkpt>
      <trkpt lat="45.60935" lon="2.28123">
        <ele>761</ele>
        <time>2019-05-18T16:51:22Z</time>
      </trkpt>
      <trkpt lat="45.60936" lon="2.28126">
        <ele>761</ele>
        <time>2019-05-18T16:51:23Z</time>
      </trkpt>
      <trkpt lat="45.60937" lon="2.2813">
        <ele>762</ele>
        <time>2019-05-18T16:51:24Z</time>
      </trkpt>
      <trkpt lat="45.60937" lon="2.28134">
        <ele>762</ele>
        <time>2019-05-18T16:51:25Z</time>
      </trkpt>
      <trkpt lat="45.60938" lon="2.28137">
        <ele>762</ele>
        <time>2019-05-18T16:51:26Z</time>
      </trkpt>
      <trkpt lat="45.60938" lon="2.28141">
        <ele>762</ele>
        <time>2019-05-18T16:51:27Z</time>
      </trkpt>
      <trkpt lat="45.60938" lon="2.28145">
        <ele>762</ele>
        <time>2019-05-18T16:51:28Z</time>
      </trkpt>
      <trkpt lat="45.60939" lon="2.28147">
        <ele>763</ele>
        <time>2019-05-18T16:51:29Z</time>
      </trkpt>
      <trkpt lat="45.60939" lon="2.28149">
        <ele>763</ele>
        <time>2019-05-18T16:51:30Z</time>
      </trkpt>
      <trkpt lat="45.60939" lon="2.2815">
        <ele>763</ele>
        <time>2019-05-18T16:51:31Z</time>
      </trkpt>
      <trkpt lat="45.60939" lon="2.28152">
        <ele>763</ele>
        <time>2019-05-18T16:51:32Z</time>
      </trkpt>
      <trkpt lat="45.60939" lon="2.28154">
        <ele>764</ele>
        <time>2019-05-18T16:51:33Z</time>
      </trkpt>
      <trkpt lat="45.60938" lon="2.28156">
        <ele>764</ele>
        <time>2019-05-18T16:51:34Z</time>
      </trkpt>
      <trkpt lat="45.60937" lon="2.28158">
        <ele>764</ele>
        <time>2019-05-18T16:51:35Z</time>
      </trkpt>
      <trkpt lat="45.60937" lon="2.28161">
        <ele>764</ele>
        <time>2019-05-18T16:51:36Z</time>
      </trkpt>
      <trkpt lat="45.60936" lon="2.28163">
        <ele>764</ele>
        <time>2019-05-18T16:51:37Z</time>
      </trkpt>
      <trkpt lat="45.60936" lon="2.28166">
        <ele>764</ele>
        <time>2019-05-18T16:51:38Z</time>
      </trkpt>
      <trkpt lat="45.60934" lon="2.2817">
        <ele>764</ele>
        <time>2019-05-18T16:51:39Z</time>
      </trkpt>
      <trkpt lat="45.60933" lon="2.28174">
        <ele>764</ele>
        <time>2019-05-18T16:51:40Z</time>
      </trkpt>
      <trkpt lat="45.60931" lon="2.28178">
        <ele>764</ele>
        <time>2019-05-18T16:51:41Z</time>
      </trkpt>
      <trkpt lat="45.60929" lon="2.2818">
        <ele>764</ele>
        <time>2019-05-18T16:51:42Z</time>
      </trkpt>
      <trkpt lat="45.60928" lon="2.28183">
        <ele>764</ele>
        <time>2019-05-18T16:51:43Z</time>
      </trkpt>
      <trkpt lat="45.60926" lon="2.28186">
        <ele>763</ele>
        <time>2019-05-18T16:51:44Z</time>
      </trkpt>
      <trkpt lat="45.60924" lon="2.28189">
        <ele>763</ele>
        <time>2019-05-18T16:51:45Z</time>
      </trkpt>
      <trkpt lat="45.60923" lon="2.28192">
        <ele>763</ele>
        <time>2019-05-18T16:51:46Z</time>
      </trkpt>
      <trkpt lat="45.60921" lon="2.28193">
        <ele>763</ele>
        <time>2019-05-18T16:51:47Z</time>
      </trkpt>
      <trkpt lat="45.60919" lon="2.28195">
        <ele>763</ele>
        <time>2019-05-18T16:51:48Z</time>
      </trkpt>
      <trkpt lat="45.60916" lon="2.28196">
        <ele>763</ele>
        <time>2019-05-18T16:51:49Z</time>
      </trkpt>
      <trkpt lat="45.60915" lon="2.28197">
        <ele>763</ele>
        <time>2019-05-18T16:51:50Z</time>
      </trkpt>
      <trkpt lat="45.60912" lon="2.28199">
        <ele>763</ele>
        <time>2019-05-18T16:51:51Z</time>
      </trkpt>
      <trkpt lat="45.6091" lon="2.282">
        <ele>764</ele>
        <time>2019-05-18T16:51:52Z</time>
      </trkpt>
      <trkpt lat="45.60908" lon="2.28202">
        <ele>764</ele>
        <time>2019-05-18T16:51:53Z</time>
      </trkpt>
      <trkpt lat="45.60906" lon="2.28206">
        <ele>764</ele>
        <time>2019-05-18T16:51:54Z</time>
      </trkpt>
      <trkpt lat="45.60903" lon="2.2821">
        <ele>764</ele>
        <time>2019-05-18T16:51:55Z</time>
      </trkpt>
      <trkpt lat="45.60902" lon="2.28213">
        <ele>764</ele>
        <time>2019-05-18T16:51:56Z</time>
      </trkpt>
      <trkpt lat="45.60901" lon="2.28217">
        <ele>764</ele>
        <time>2019-05-18T16:51:57Z</time>
      </trkpt>
      <trkpt lat="45.60899" lon="2.28223">
        <ele>764</ele>
        <time>2019-05-18T16:51:58Z</time>
      </trkpt>
      <trkpt lat="45.60897" lon="2.28228">
        <ele>764</ele>
        <time>2019-05-18T16:51:59Z</time>
      </trkpt>
      <trkpt lat="45.60895" lon="2.28232">
        <ele>764</ele>
        <time>2019-05-18T16:52:00Z</time>
      </trkpt>
      <trkpt lat="45.60892" lon="2.28238">
        <ele>763</ele>
        <time>2019-05-18T16:52:01Z</time>
      </trkpt>
      <trkpt lat="45.6089" lon="2.28244">
        <ele>763</ele>
        <time>2019-05-18T16:52:02Z</time>
      </trkpt>
      <trkpt lat="45.60888" lon="2.2825">
        <ele>763</ele>
        <time>2019-05-18T16:52:03Z</time>
      </trkpt>
      <trkpt lat="45.60887" lon="2.28256">
        <ele>763</ele>
        <time>2019-05-18T16:52:04Z</time>
      </trkpt>
      <trkpt lat="45.60885" lon="2.28261">
        <ele>763</ele>
        <time>2019-05-18T16:52:05Z</time>
      </trkpt>
      <trkpt lat="45.60884" lon="2.28266">
        <ele>763</ele>
        <time>2019-05-18T16:52:06Z</time>
      </trkpt>
      <trkpt lat="45.60883" lon="2.2827">
        <ele>763</ele>
        <time>2019-05-18T16:52:07Z</time>
      </trkpt>
      <trkpt lat="45.60882" lon="2.28276">
        <ele>763</ele>
        <time>2019-05-18T16:52:08Z</time>
      </trkpt>
      <trkpt lat="45.6088" lon="2.28282">
        <ele>763</ele>
        <time>2019-05-18T16:52:09Z</time>
      </trkpt>
      <trkpt lat="45.60879" lon="2.28287">
        <ele>763</ele>
        <time>2019-05-18T16:52:10Z</time>
      </trkpt>
      <trkpt lat="45.60878" lon="2.28293">
        <ele>763</ele>
        <time>2019-05-18T16:52:11Z</time>
      </trkpt>
      <trkpt lat="45.60877" lon="2.28298">
        <ele>763</ele>
        <time>2019-05-18T16:52:12Z</time>
      </trkpt>
      <trkpt lat="45.60876" lon="2.28304">
        <ele>763</ele>
        <time>2019-05-18T16:52:13Z</time>
      </trkpt>
      <trkpt lat="45.60875" lon="2.28309">
        <ele>763</ele>
        <time>2019-05-18T16:52:14Z</time>
      </trkpt>
      <trkpt lat="45.60874" lon="2.28314">
        <ele>763</ele>
        <time>2019-05-18T16:52:15Z</time>
      </trkpt>
      <trkpt lat="45.60872" lon="2.28319">
        <ele>763</ele>
        <time>2019-05-18T16:52:16Z</time>
      </trkpt>
      <trkpt lat="45.60871" lon="2.28323">
        <ele>763</ele>
        <time>2019-05-18T16:52:17Z</time>
      </trkpt>
      <trkpt lat="45.60869" lon="2.28327">
        <ele>763</ele>
        <time>2019-05-18T16:52:18Z</time>
      </trkpt>
      <trkpt lat="45.60868" lon="2.28331">
        <ele>763</ele>
        <time>2019-05-18T16:52:19Z</time>
      </trkpt>
      <trkpt lat="45.60867" lon="2.28335">
        <ele>764</ele>
        <time>2019-05-18T16:52:20Z</time>
      </trkpt>
      <trkpt lat="45.60866" lon="2.28338">
        <ele>764</ele>
        <time>2019-05-18T16:52:21Z</time>
      </trkpt>
      <trkpt lat="45.60866" lon="2.28342">
        <ele>764</ele>
        <time>2019-05-18T16:52:22Z</time>
      </trkpt>
      <trkpt lat="45.60864" lon="2.28347">
        <ele>764</ele>
        <time>2019-05-18T16:52:23Z</time>
      </trkpt>
      <trkpt lat="45.60863" lon="2.2835">
        <ele>764</ele>
        <time>2019-05-18T16:52:24Z</time>
      </trkpt>
      <trkpt lat="45.60862" lon="2.28354">
        <ele>764</ele>
        <time>2019-05-18T16:52:25Z</time>
      </trkpt>
      <trkpt lat="45.60861" lon="2.28356">
        <ele>765</ele>
        <time>2019-05-18T16:52:26Z</time>
      </trkpt>
      <trkpt lat="45.6086" lon="2.28359">
        <ele>765</ele>
        <time>2019-05-18T16:52:27Z</time>
      </trkpt>
      <trkpt lat="45.6086" lon="2.28361">
        <ele>765</ele>
        <time>2019-05-18T16:52:28Z</time>
      </trkpt>
      <trkpt lat="45.60859" lon="2.28364">
        <ele>766</ele>
        <time>2019-05-18T16:52:29Z</time>
      </trkpt>
      <trkpt lat="45.60858" lon="2.28366">
        <ele>766</ele>
        <time>2019-05-18T16:52:30Z</time>
      </trkpt>
      <trkpt lat="45.60858" lon="2.28368">
        <ele>766</ele>
        <time>2019-05-18T16:52:31Z</time>
      </trkpt>
      <trkpt lat="45.60857" lon="2.2837">
        <ele>766</ele>
        <time>2019-05-18T16:52:32Z</time>
      </trkpt>
      <trkpt lat="45.60856" lon="2.28373">
        <ele>767</ele>
        <time>2019-05-18T16:52:33Z</time>
      </trkpt>
      <trkpt lat="45.60855" lon="2.28376">
        <ele>767</ele>
        <time>2019-05-18T16:52:34Z</time>
      </trkpt>
      <trkpt lat="45.60855" lon="2.2838">
        <ele>767</ele>
        <time>2019-05-18T16:52:35Z</time>
      </trkpt>
      <trkpt lat="45.60855" lon="2.28383">
        <ele>767</ele>
        <time>2019-05-18T16:52:36Z</time>
      </trkpt>
      <trkpt lat="45.60855" lon="2.28386">
        <ele>768</ele>
        <time>2019-05-18T16:52:37Z</time>
      </trkpt>
      <trkpt lat="45.60854" lon="2.28389">
        <ele>768</ele>
        <time>2019-05-18T16:52:38Z</time>
      </trkpt>
      <trkpt lat="45.60854" lon="2.28392">
        <ele>768</ele>
        <time>2019-05-18T16:52:39Z</time>
      </trkpt>
      <trkpt lat="45.60853" lon="2.28396">
        <ele>768</ele>
        <time>2019-05-18T16:52:40Z</time>
      </trkpt>
      <trkpt lat="45.60853" lon="2.284">
        <ele>768</ele>
        <time>2019-05-18T16:52:41Z</time>
      </trkpt>
      <trkpt lat="45.60854" lon="2.28403">
        <ele>768</ele>
        <time>2019-05-18T16:52:42Z</time>
      </trkpt>
      <trkpt lat="45.60854" lon="2.28407">
        <ele>768</ele>
        <time>2019-05-18T16:52:43Z</time>
      </trkpt>
      <trkpt lat="45.60855" lon="2.28411">
        <ele>768</ele>
        <time>2019-05-18T16:52:44Z</time>
      </trkpt>
      <trkpt lat="45.60856" lon="2.28415">
        <ele>769</ele>
        <time>2019-05-18T16:52:45Z</time>
      </trkpt>
      <trkpt lat="45.60856" lon="2.28418">
        <ele>769</ele>
        <time>2019-05-18T16:52:46Z</time>
      </trkpt>
      <trkpt lat="45.60857" lon="2.28422">
        <ele>769</ele>
        <time>2019-05-18T16:52:47Z</time>
      </trkpt>
      <trkpt lat="45.60857" lon="2.28426">
        <ele>769</ele>
        <time>2019-05-18T16:52:48Z</time>
      </trkpt>
      <trkpt lat="45.60858" lon="2.28429">
        <ele>769</ele>
        <time>2019-05-18T16:52:49Z</time>
      </trkpt>
      <trkpt lat="45.60859" lon="2.28433">
        <ele>769</ele>
        <time>2019-05-18T16:52:50Z</time>
      </trkpt>
      <trkpt lat="45.6086" lon="2.28437">
        <ele>769</ele>
        <time>2019-05-18T16:52:51Z</time>
      </trkpt>
      <trkpt lat="45.60861" lon="2.28441">
        <ele>769</ele>
        <time>2019-05-18T16:52:52Z</time>
      </trkpt>
      <trkpt lat="45.60861" lon="2.28446">
        <ele>769</ele>
        <time>2019-05-18T16:52:53Z</time>
      </trkpt>
      <trkpt lat="45.60862" lon="2.2845">
        <ele>769</ele>
        <time>2019-05-18T16:52:54Z</time>
      </trkpt>
      <trkpt lat="45.60863" lon="2.28454">
        <ele>770</ele>
        <time>2019-05-18T16:52:55Z</time>
      </trkpt>
      <trkpt lat="45.60863" lon="2.28458">
        <ele>770</ele>
        <time>2019-05-18T16:52:56Z</time>
      </trkpt>
      <trkpt lat="45.60864" lon="2.28461">
        <ele>770</ele>
        <time>2019-05-18T16:52:57Z</time>
      </trkpt>
      <trkpt lat="45.60864" lon="2.28465">
        <ele>770</ele>
        <time>2019-05-18T16:52:58Z</time>
      </trkpt>
      <trkpt lat="45.60864" lon="2.28469">
        <ele>770</ele>
        <time>2019-05-18T16:52:59Z</time>
      </trkpt>
      <trkpt lat="45.60865" lon="2.28472">
        <ele>770</ele>
        <time>2019-05-18T16:53:00Z</time>
      </trkpt>
      <trkpt lat="45.60867" lon="2.28475">
        <ele>770</ele>
        <time>2019-05-18T16:53:01Z</time>
      </trkpt>
      <trkpt lat="45.60868" lon="2.28478">
        <ele>771</ele>
        <time>2019-05-18T16:53:02Z</time>
      </trkpt>
      <trkpt lat="45.60869" lon="2.28482">
        <ele>771</ele>
        <time>2019-05-18T16:53:03Z</time>
      </trkpt>
      <trkpt lat="45.6087" lon="2.28485">
        <ele>771</ele>
        <time>2019-05-18T16:53:04Z</time>
      </trkpt>
      <trkpt lat="45.60871" lon="2.28489">
        <ele>771</ele>
        <time>2019-05-18T16:53:05Z</time>
      </trkpt>
      <trkpt lat="45.60872" lon="2.28492">
        <ele>771</ele>
        <time>2019-05-18T16:53:06Z</time>
      </trkpt>
      <trkpt lat="45.60873" lon="2.28496">
        <ele>771</ele>
        <time>2019-05-18T16:53:07Z</time>
      </trkpt>
      <trkpt lat="45.60874" lon="2.28499">
        <ele>771</ele>
        <time>2019-05-18T16:53:08Z</time>
      </trkpt>
      <trkpt lat="45.60876" lon="2.28502">
        <ele>771</ele>
        <time>2019-05-18T16:53:09Z</time>
      </trkpt>
      <trkpt lat="45.60877" lon="2.28505">
        <ele>772</ele>
        <time>2019-05-18T16:53:10Z</time>
      </trkpt>
      <trkpt lat="45.60877" lon="2.28509">
        <ele>772</ele>
        <time>2019-05-18T16:53:11Z</time>
      </trkpt>
      <trkpt lat="45.60879" lon="2.28512">
        <ele>772</ele>
        <time>2019-05-18T16:53:12Z</time>
      </trkpt>
      <trkpt lat="45.6088" lon="2.28516">
        <ele>772</ele>
        <time>2019-05-18T16:53:13Z</time>
      </trkpt>
      <trkpt lat="45.60881" lon="2.2852">
        <ele>772</ele>
        <time>2019-05-18T16:53:14Z</time>
      </trkpt>
      <trkpt lat="45.60882" lon="2.28524">
        <ele>772</ele>
        <time>2019-05-18T16:53:15Z</time>
      </trkpt>
      <trkpt lat="45.60883" lon="2.28527">
        <ele>772</ele>
        <time>2019-05-18T16:53:16Z</time>
      </trkpt>
      <trkpt lat="45.60884" lon="2.28531">
        <ele>772</ele>
        <time>2019-05-18T16:53:17Z</time>
      </trkpt>
      <trkpt lat="45.60884" lon="2.28535">
        <ele>772</ele>
        <time>2019-05-18T16:53:18Z</time>
      </trkpt>
      <trkpt lat="45.60884" lon="2.28539">
        <ele>772</ele>
        <time>2019-05-18T16:53:19Z</time>
      </trkpt>
      <trkpt lat="45.60884" lon="2.28543">
        <ele>773</ele>
        <time>2019-05-18T16:53:20Z</time>
      </trkpt>
      <trkpt lat="45.60884" lon="2.28548">
        <ele>773</ele>
        <time>2019-05-18T16:53:21Z</time>
      </trkpt>
      <trkpt lat="45.60884" lon="2.28552">
        <ele>773</ele>
        <time>2019-05-18T16:53:22Z</time>
      </trkpt>
      <trkpt lat="45.60884" lon="2.28556">
        <ele>773</ele>
        <time>2019-05-18T16:53:23Z</time>
      </trkpt>
      <trkpt lat="45.60884" lon="2.28561">
        <ele>773</ele>
        <time>2019-05-18T16:53:24Z</time>
      </trkpt>
      <trkpt lat="45.60884" lon="2.28565">
        <ele>773</ele>
        <time>2019-05-18T16:53:25Z</time>
      </trkpt>
      <trkpt lat="45.60884" lon="2.28569">
        <ele>773</ele>
        <time>2019-05-18T16:53:26Z</time>
      </trkpt>
      <trkpt lat="45.60884" lon="2.28574">
        <ele>773</ele>
        <time>2019-05-18T16:53:27Z</time>
      </trkpt>
      <trkpt lat="45.60884" lon="2.28578">
        <ele>773</ele>
        <time>2019-05-18T16:53:28Z</time>
      </trkpt>
      <trkpt lat="45.60884" lon="2.28583">
        <ele>773</ele>
        <time>2019-05-18T16:53:29Z</time>
      </trkpt>
      <trkpt lat="45.60884" lon="2.28587">
        <ele>773</ele>
        <time>2019-05-18T16:53:30Z</time>
      </trkpt>
      <trkpt lat="45.60883" lon="2.28592">
        <ele>773</ele>
        <time>2019-05-18T16:53:31Z</time>
      </trkpt>
      <trkpt lat="45.60883" lon="2.28596">
        <ele>774</ele>
        <time>2019-05-18T16:53:32Z</time>
      </trkpt>
      <trkpt lat="45.60883" lon="2.28601">
        <ele>774</ele>
        <time>2019-05-18T16:53:33Z</time>
      </trkpt>
      <trkpt lat="45.60883" lon="2.28605">
        <ele>774</ele>
        <time>2019-05-18T16:53:34Z</time>
      </trkpt>
      <trkpt lat="45.60883" lon="2.28609">
        <ele>774</ele>
        <time>2019-05-18T16:53:35Z</time>
      </trkpt>
      <trkpt lat="45.60882" lon="2.28614">
        <ele>774</ele>
        <time>2019-05-18T16:53:36Z</time>
      </trkpt>
      <trkpt lat="45.60882" lon="2.28618">
        <ele>774</ele>
        <time>2019-05-18T16:53:37Z</time>
      </trkpt>
      <trkpt lat="45.60881" lon="2.28622">
        <ele>774</ele>
        <time>2019-05-18T16:53:38Z</time>
      </trkpt>
      <trkpt lat="45.60881" lon="2.28627">
        <ele>774</ele>
        <time>2019-05-18T16:53:39Z</time>
      </trkpt>
      <trkpt lat="45.60881" lon="2.28631">
        <ele>774</ele>
        <time>2019-05-18T16:53:40Z</time>
      </trkpt>
      <trkpt lat="45.6088" lon="2.28635">
        <ele>774</ele>
        <time>2019-05-18T16:53:41Z</time>
      </trkpt>
      <trkpt lat="45.6088" lon="2.2864">
        <ele>774</ele>
        <time>2019-05-18T16:53:42Z</time>
      </trkpt>
      <trkpt lat="45.6088" lon="2.28644">
        <ele>774</ele>
        <time>2019-05-18T16:53:43Z</time>
      </trkpt>
      <trkpt lat="45.60879" lon="2.28648">
        <ele>774</ele>
        <time>2019-05-18T16:53:44Z</time>
      </trkpt>
      <trkpt lat="45.60879" lon="2.28653">
        <ele>774</ele>
        <time>2019-05-18T16:53:45Z</time>
      </trkpt>
      <trkpt lat="45.60878" lon="2.28657">
        <ele>774</ele>
        <time>2019-05-18T16:53:46Z</time>
      </trkpt>
      <trkpt lat="45.60878" lon="2.28661">
        <ele>774</ele>
        <time>2019-05-18T16:53:47Z</time>
      </trkpt>
      <trkpt lat="45.60877" lon="2.28665">
        <ele>774</ele>
        <time>2019-05-18T16:53:48Z</time>
      </trkpt>
      <trkpt lat="45.60877" lon="2.28668">
        <ele>774</ele>
        <time>2019-05-18T16:53:49Z</time>
      </trkpt>
      <trkpt lat="45.60876" lon="2.28672">
        <ele>774</ele>
        <time>2019-05-18T16:53:50Z</time>
      </trkpt>
      <trkpt lat="45.60876" lon="2.28676">
        <ele>774</ele>
        <time>2019-05-18T16:53:51Z</time>
      </trkpt>
      <trkpt lat="45.60876" lon="2.28681">
        <ele>774</ele>
        <time>2019-05-18T16:53:52Z</time>
      </trkpt>
      <trkpt lat="45.60876" lon="2.28685">
        <ele>774</ele>
        <time>2019-05-18T16:53:53Z</time>
      </trkpt>
      <trkpt lat="45.60876" lon="2.28688">
        <ele>775</ele>
        <time>2019-05-18T16:53:54Z</time>
      </trkpt>
      <trkpt lat="45.60875" lon="2.28693">
        <ele>775</ele>
        <time>2019-05-18T16:53:55Z</time>
      </trkpt>
      <trkpt lat="45.60875" lon="2.28697">
        <ele>775</ele>
        <time>2019-05-18T16:53:56Z</time>
      </trkpt>
      <trkpt lat="45.60875" lon="2.28702">
        <ele>775</ele>
        <time>2019-05-18T16:53:57Z</time>
      </trkpt>
      <trkpt lat="45.60875" lon="2.28706">
        <ele>775</ele>
        <time>2019-05-18T16:53:58Z</time>
      </trkpt>
      <trkpt lat="45.60875" lon="2.28711">
        <ele>775</ele>
        <time>2019-05-18T16:53:59Z</time>
      </trkpt>
      <trkpt lat="45.60875" lon="2.28715">
        <ele>775</ele>
        <time>2019-05-18T16:54:00Z</time>
      </trkpt>
      <trkpt lat="45.60874" lon="2.28719">
        <ele>775</ele>
        <time>2019-05-18T16:54:01Z</time>
      </trkpt>
      <trkpt lat="45.60874" lon="2.28723">
        <ele>775</ele>
        <time>2019-05-18T16:54:02Z</time>
      </trkpt>
      <trkpt lat="45.60874" lon="2.28727">
        <ele>775</ele>
        <time>2019-05-18T16:54:03Z</time>
      </trkpt>
      <trkpt lat="45.60874" lon="2.28731">
        <ele>775</ele>
        <time>2019-05-18T16:54:04Z</time>
      </trkpt>
      <trkpt lat="45.60874" lon="2.28735">
        <ele>775</ele>
        <time>2019-05-18T16:54:05Z</time>
      </trkpt>
      <trkpt lat="45.60874" lon="2.2874">
        <ele>775</ele>
        <time>2019-05-18T16:54:06Z</time>
      </trkpt>
      <trkpt lat="45.60873" lon="2.28744">
        <ele>775</ele>
        <time>2019-05-18T16:54:07Z</time>
      </trkpt>
      <trkpt lat="45.60873" lon="2.28748">
        <ele>775</ele>
        <time>2019-05-18T16:54:08Z</time>
      </trkpt>
      <trkpt lat="45.60873" lon="2.28753">
        <ele>775</ele>
        <time>2019-05-18T16:54:09Z</time>
      </trkpt>
      <trkpt lat="45.60872" lon="2.28757">
        <ele>775</ele>
        <time>2019-05-18T16:54:10Z</time>
      </trkpt>
      <trkpt lat="45.60872" lon="2.2876">
        <ele>776</ele>
        <time>2019-05-18T16:54:11Z</time>
      </trkpt>
      <trkpt lat="45.60871" lon="2.28764">
        <ele>776</ele>
        <time>2019-05-18T16:54:12Z</time>
      </trkpt>
      <trkpt lat="45.60871" lon="2.28768">
        <ele>776</ele>
        <time>2019-05-18T16:54:13Z</time>
      </trkpt>
      <trkpt lat="45.6087" lon="2.28772">
        <ele>776</ele>
        <time>2019-05-18T16:54:14Z</time>
      </trkpt>
      <trkpt lat="45.6087" lon="2.28777">
        <ele>776</ele>
        <time>2019-05-18T16:54:15Z</time>
      </trkpt>
      <trkpt lat="45.6087" lon="2.28781">
        <ele>776</ele>
        <time>2019-05-18T16:54:16Z</time>
      </trkpt>
      <trkpt lat="45.60869" lon="2.28786">
        <ele>776</ele>
        <time>2019-05-18T16:54:17Z</time>
      </trkpt>
      <trkpt lat="45.60869" lon="2.2879">
        <ele>777</ele>
        <time>2019-05-18T16:54:18Z</time>
      </trkpt>
      <trkpt lat="45.60868" lon="2.28795">
        <ele>777</ele>
        <time>2019-05-18T16:54:19Z</time>
      </trkpt>
      <trkpt lat="45.60868" lon="2.28799">
        <ele>777</ele>
        <time>2019-05-18T16:54:20Z</time>
      </trkpt>
      <trkpt lat="45.60867" lon="2.28803">
        <ele>777</ele>
        <time>2019-05-18T16:54:21Z</time>
      </trkpt>
      <trkpt lat="45.60867" lon="2.28807">
        <ele>777</ele>
        <time>2019-05-18T16:54:22Z</time>
      </trkpt>
      <trkpt lat="45.60867" lon="2.28812">
        <ele>777</ele>
        <time>2019-05-18T16:54:23Z</time>
      </trkpt>
      <trkpt lat="45.60867" lon="2.28816">
        <ele>777</ele>
        <time>2019-05-18T16:54:24Z</time>
      </trkpt>
      <trkpt lat="45.60867" lon="2.2882">
        <ele>777</ele>
        <time>2019-05-18T16:54:25Z</time>
      </trkpt>
      <trkpt lat="45.60866" lon="2.28824">
        <ele>777</ele>
        <time>2019-05-18T16:54:26Z</time>
      </trkpt>
      <trkpt lat="45.60866" lon="2.28828">
        <ele>778</ele>
        <time>2019-05-18T16:54:27Z</time>
      </trkpt>
      <trkpt lat="45.60865" lon="2.28832">
        <ele>778</ele>
        <time>2019-05-18T16:54:28Z</time>
      </trkpt>
      <trkpt lat="45.60864" lon="2.28836">
        <ele>778</ele>
        <time>2019-05-18T16:54:29Z</time>
      </trkpt>
      <trkpt lat="45.60863" lon="2.2884">
        <ele>778</ele>
        <time>2019-05-18T16:54:30Z</time>
      </trkpt>
      <trkpt lat="45.60863" lon="2.28844">
        <ele>778</ele>
        <time>2019-05-18T16:54:31Z</time>
      </trkpt>
      <trkpt lat="45.60864" lon="2.28849">
        <ele>778</ele>
        <time>2019-05-18T16:54:32Z</time>
      </trkpt>
      <trkpt lat="45.60865" lon="2.28853">
        <ele>779</ele>
        <time>2019-05-18T16:54:33Z</time>
      </trkpt>
      <trkpt lat="45.60865" lon="2.28858">
        <ele>779</ele>
        <time>2019-05-18T16:54:34Z</time>
      </trkpt>
      <trkpt lat="45.60866" lon="2.28862">
        <ele>779</ele>
        <time>2019-05-18T16:54:35Z</time>
      </trkpt>
      <trkpt lat="45.60866" lon="2.28867">
        <ele>779</ele>
        <time>2019-05-18T16:54:36Z</time>
      </trkpt>
      <trkpt lat="45.60867" lon="2.28871">
        <ele>779</ele>
        <time>2019-05-18T16:54:37Z</time>
      </trkpt>
      <trkpt lat="45.60868" lon="2.28875">
        <ele>779</ele>
        <time>2019-05-18T16:54:38Z</time>
      </trkpt>
      <trkpt lat="45.60869" lon="2.28879">
        <ele>779</ele>
        <time>2019-05-18T16:54:39Z</time>
      </trkpt>
      <trkpt lat="45.6087" lon="2.28883">
        <ele>779</ele>
        <time>2019-05-18T16:54:40Z</time>
      </trkpt>
      <trkpt lat="45.60871" lon="2.28887">
        <ele>780</ele>
        <time>2019-05-18T16:54:41Z</time>
      </trkpt>
      <trkpt lat="45.60872" lon="2.28892">
        <ele>780</ele>
        <time>2019-05-18T16:54:42Z</time>
      </trkpt>
      <trkpt lat="45.60873" lon="2.28896">
        <ele>780</ele>
        <time>2019-05-18T16:54:43Z</time>
      </trkpt>
      <trkpt lat="45.60875" lon="2.289">
        <ele>780</ele>
        <time>2019-05-18T16:54:44Z</time>
      </trkpt>
      <trkpt lat="45.60876" lon="2.28904">
        <ele>780</ele>
        <time>2019-05-18T16:54:45Z</time>
      </trkpt>
      <trkpt lat="45.60877" lon="2.28909">
        <ele>780</ele>
        <time>2019-05-18T16:54:46Z</time>
      </trkpt>
      <trkpt lat="45.60879" lon="2.28913">
        <ele>781</ele>
        <time>2019-05-18T16:54:47Z</time>
      </trkpt>
      <trkpt lat="45.6088" lon="2.28917">
        <ele>781</ele>
        <time>2019-05-18T16:54:48Z</time>
      </trkpt>
      <trkpt lat="45.60881" lon="2.28921">
        <ele>781</ele>
        <time>2019-05-18T16:54:49Z</time>
      </trkpt>
      <trkpt lat="45.60882" lon="2.28925">
        <ele>781</ele>
        <time>2019-05-18T16:54:50Z</time>
      </trkpt>
      <trkpt lat="45.60882" lon="2.28929">
        <ele>781</ele>
        <time>2019-05-18T16:54:51Z</time>
      </trkpt>
      <trkpt lat="45.60883" lon="2.28934">
        <ele>781</ele>
        <time>2019-05-18T16:54:52Z</time>
      </trkpt>
      <trkpt lat="45.60884" lon="2.28938">
        <ele>781</ele>
        <time>2019-05-18T16:54:53Z</time>
      </trkpt>
      <trkpt lat="45.60884" lon="2.28943">
        <ele>781</ele>
        <time>2019-05-18T16:54:54Z</time>
      </trkpt>
      <trkpt lat="45.60885" lon="2.28947">
        <ele>781</ele>
        <time>2019-05-18T16:54:55Z</time>
      </trkpt>
      <trkpt lat="45.60885" lon="2.28951">
        <ele>781</ele>
        <time>2019-05-18T16:54:56Z</time>
      </trkpt>
      <trkpt lat="45.60885" lon="2.28956">
        <ele>781</ele>
        <time>2019-05-18T16:54:57Z</time>
      </trkpt>
      <trkpt lat="45.60885" lon="2.2896">
        <ele>782</ele>
        <time>2019-05-18T16:54:58Z</time>
      </trkpt>
      <trkpt lat="45.60885" lon="2.28964">
        <ele>782</ele>
        <time>2019-05-18T16:54:59Z</time>
      </trkpt>
      <trkpt lat="45.60885" lon="2.28968">
        <ele>782</ele>
        <time>2019-05-18T16:55:00Z</time>
      </trkpt>
      <trkpt lat="45.60884" lon="2.28972">
        <ele>782</ele>
        <time>2019-05-18T16:55:01Z</time>
      </trkpt>
      <trkpt lat="45.60884" lon="2.28976">
        <ele>782</ele>
        <time>2019-05-18T16:55:02Z</time>
      </trkpt>
      <trkpt lat="45.60884" lon="2.2898">
        <ele>782</ele>
        <time>2019-05-18T16:55:03Z</time>
      </trkpt>
      <trkpt lat="45.60884" lon="2.28984">
        <ele>782</ele>
        <time>2019-05-18T16:55:04Z</time>
      </trkpt>
      <trkpt lat="45.60884" lon="2.28988">
        <ele>783</ele>
        <time>2019-05-18T16:55:05Z</time>
      </trkpt>
      <trkpt lat="45.60883" lon="2.28992">
        <ele>783</ele>
        <time>2019-05-18T16:55:06Z</time>
      </trkpt>
      <trkpt lat="45.60883" lon="2.28996">
        <ele>783</ele>
        <time>2019-05-18T16:55:07Z</time>
      </trkpt>
      <trkpt lat="45.60883" lon="2.29001">
        <ele>783</ele>
        <time>2019-05-18T16:55:08Z</time>
      </trkpt>
      <trkpt lat="45.60883" lon="2.29005">
        <ele>783</ele>
        <time>2019-05-18T16:55:09Z</time>
      </trkpt>
      <trkpt lat="45.60883" lon="2.29009">
        <ele>783</ele>
        <time>2019-05-18T16:55:10Z</time>
      </trkpt>
      <trkpt lat="45.60883" lon="2.29013">
        <ele>783</ele>
        <time>2019-05-18T16:55:11Z</time>
      </trkpt>
      <trkpt lat="45.60884" lon="2.29017">
        <ele>783</ele>
        <time>2019-05-18T16:55:12Z</time>
      </trkpt>
      <trkpt lat="45.60884" lon="2.29021">
        <ele>783</ele>
        <time>2019-05-18T16:55:13Z</time>
      </trkpt>
      <trkpt lat="45.60885" lon="2.29025">
        <ele>784</ele>
        <time>2019-05-18T16:55:14Z</time>
      </trkpt>
      <trkpt lat="45.60887" lon="2.2903">
        <ele>784</ele>
        <time>2019-05-18T16:55:15Z</time>
      </trkpt>
      <trkpt lat="45.60888" lon="2.29034">
        <ele>784</ele>
        <time>2019-05-18T16:55:16Z</time>
      </trkpt>
      <trkpt lat="45.60889" lon="2.29039">
        <ele>784</ele>
        <time>2019-05-18T16:55:17Z</time>
      </trkpt>
      <trkpt lat="45.6089" lon="2.29043">
        <ele>784</ele>
        <time>2019-05-18T16:55:18Z</time>
      </trkpt>
      <trkpt lat="45.60892" lon="2.29047">
        <ele>784</ele>
        <time>2019-05-18T16:55:19Z</time>
      </trkpt>
      <trkpt lat="45.60894" lon="2.29051">
        <ele>784</ele>
        <time>2019-05-18T16:55:20Z</time>
      </trkpt>
      <trkpt lat="45.60896" lon="2.29055">
        <ele>783</ele>
        <time>2019-05-18T16:55:21Z</time>
      </trkpt>
      <trkpt lat="45.60899" lon="2.29058">
        <ele>783</ele>
        <time>2019-05-18T16:55:22Z</time>
      </trkpt>
      <trkpt lat="45.60901" lon="2.29062">
        <ele>783</ele>
        <time>2019-05-18T16:55:23Z</time>
      </trkpt>
      <trkpt lat="45.60904" lon="2.29066">
        <ele>783</ele>
        <time>2019-05-18T16:55:24Z</time>
      </trkpt>
      <trkpt lat="45.60907" lon="2.2907">
        <ele>783</ele>
        <time>2019-05-18T16:55:25Z</time>
      </trkpt>
      <trkpt lat="45.6091" lon="2.29074">
        <ele>783</ele>
        <time>2019-05-18T16:55:26Z</time>
      </trkpt>
      <trkpt lat="45.60913" lon="2.29077">
        <ele>783</ele>
        <time>2019-05-18T16:55:27Z</time>
      </trkpt>
      <trkpt lat="45.60916" lon="2.29081">
        <ele>783</ele>
        <time>2019-05-18T16:55:28Z</time>
      </trkpt>
      <trkpt lat="45.60918" lon="2.29085">
        <ele>783</ele>
        <time>2019-05-18T16:55:29Z</time>
      </trkpt>
      <trkpt lat="45.60922" lon="2.29089">
        <ele>783</ele>
        <time>2019-05-18T16:55:30Z</time>
      </trkpt>
      <trkpt lat="45.60925" lon="2.29093">
        <ele>783</ele>
        <time>2019-05-18T16:55:31Z</time>
      </trkpt>
      <trkpt lat="45.60929" lon="2.29096">
        <ele>783</ele>
        <time>2019-05-18T16:55:32Z</time>
      </trkpt>
      <trkpt lat="45.60932" lon="2.29099">
        <ele>783</ele>
        <time>2019-05-18T16:55:33Z</time>
      </trkpt>
      <trkpt lat="45.60936" lon="2.29101">
        <ele>783</ele>
        <time>2019-05-18T16:55:34Z</time>
      </trkpt>
      <trkpt lat="45.6094" lon="2.29102">
        <ele>783</ele>
        <time>2019-05-18T16:55:35Z</time>
      </trkpt>
      <trkpt lat="45.60944" lon="2.29102">
        <ele>783</ele>
        <time>2019-05-18T16:55:36Z</time>
      </trkpt>
      <trkpt lat="45.60947" lon="2.29103">
        <ele>783</ele>
        <time>2019-05-18T16:55:37Z</time>
      </trkpt>
      <trkpt lat="45.6095" lon="2.29103">
        <ele>783</ele>
        <time>2019-05-18T16:55:38Z</time>
      </trkpt>
      <trkpt lat="45.60952" lon="2.29104">
        <ele>783</ele>
        <time>2019-05-18T16:55:39Z</time>
      </trkpt>
      <trkpt lat="45.60955" lon="2.29104">
        <ele>783</ele>
        <time>2019-05-18T16:55:40Z</time>
      </trkpt>
      <trkpt lat="45.60958" lon="2.29104">
        <ele>783</ele>
        <time>2019-05-18T16:55:41Z</time>
      </trkpt>
      <trkpt lat="45.6096" lon="2.29103">
        <ele>784</ele>
        <time>2019-05-18T16:55:42Z</time>
      </trkpt>
      <trkpt lat="45.60963" lon="2.29103">
        <ele>784</ele>
        <time>2019-05-18T16:55:43Z</time>
      </trkpt>
      <trkpt lat="45.60965" lon="2.29103">
        <ele>784</ele>
        <time>2019-05-18T16:55:44Z</time>
      </trkpt>
      <trkpt lat="45.60967" lon="2.29104">
        <ele>784</ele>
        <time>2019-05-18T16:55:45Z</time>
      </trkpt>
      <trkpt lat="45.6097" lon="2.29104">
        <ele>784</ele>
        <time>2019-05-18T16:55:46Z</time>
      </trkpt>
      <trkpt lat="45.60972" lon="2.29104">
        <ele>784</ele>
        <time>2019-05-18T16:55:47Z</time>
      </trkpt>
      <trkpt lat="45.60975" lon="2.29104">
        <ele>784</ele>
        <time>2019-05-18T16:55:48Z</time>
      </trkpt>
      <trkpt lat="45.60977" lon="2.29104">
        <ele>785</ele>
        <time>2019-05-18T16:55:49Z</time>
      </trkpt>
      <trkpt lat="45.60979" lon="2.29105">
        <ele>785</ele>
        <time>2019-05-18T16:55:50Z</time>
      </trkpt>
      <trkpt lat="45.60982" lon="2.29105">
        <ele>785</ele>
        <time>2019-05-18T16:55:51Z</time>
      </trkpt>
      <trkpt lat="45.60984" lon="2.29105">
        <ele>785</ele>
        <time>2019-05-18T16:55:52Z</time>
      </trkpt>
      <trkpt lat="45.60987" lon="2.29105">
        <ele>785</ele>
        <time>2019-05-18T16:55:53Z</time>
      </trkpt>
      <trkpt lat="45.60989" lon="2.29105">
        <ele>785</ele>
        <time>2019-05-18T16:55:54Z</time>
      </trkpt>
      <trkpt lat="45.60992" lon="2.29106">
        <ele>785</ele>
        <time>2019-05-18T16:55:55Z</time>
      </trkpt>
      <trkpt lat="45.60994" lon="2.29106">
        <ele>786</ele>
        <time>2019-05-18T16:55:56Z</time>
      </trkpt>
      <trkpt lat="45.60997" lon="2.29106">
        <ele>786</ele>
        <time>2019-05-18T16:55:57Z</time>
      </trkpt>
      <trkpt lat="45.60999" lon="2.29106">
        <ele>786</ele>
        <time>2019-05-18T16:55:58Z</time>
      </trkpt>
      <trkpt lat="45.61001" lon="2.29106">
        <ele>786</ele>
        <time>2019-05-18T16:55:59Z</time>
      </trkpt>
      <trkpt lat="45.61004" lon="2.29106">
        <ele>786</ele>
        <time>2019-05-18T16:56:00Z</time>
      </trkpt>
      <trkpt lat="45.61006" lon="2.29106">
        <ele>786</ele>
        <time>2019-05-18T16:56:01Z</time>
      </trkpt>
      <trkpt lat="45.61008" lon="2.29106">
        <ele>786</ele>
        <time>2019-05-18T16:56:02Z</time>
      </trkpt>
      <trkpt lat="45.6101" lon="2.29106">
        <ele>787</ele>
        <time>2019-05-18T16:56:03Z</time>
      </trkpt>
      <trkpt lat="45.61013" lon="2.29105">
        <ele>787</ele>
        <time>2019-05-18T16:56:04Z</time>
      </trkpt>
      <trkpt lat="45.61015" lon="2.29105">
        <ele>787</ele>
        <time>2019-05-18T16:56:05Z</time>
      </trkpt>
      <trkpt lat="45.61017" lon="2.29105">
        <ele>787</ele>
        <time>2019-05-18T16:56:06Z</time>
      </trkpt>
      <trkpt lat="45.6102" lon="2.29105">
        <ele>787</ele>
        <time>2019-05-18T16:56:07Z</time>
      </trkpt>
      <trkpt lat="45.61022" lon="2.29104">
        <ele>788</ele>
        <time>2019-05-18T16:56:08Z</time>
      </trkpt>
      <trkpt lat="45.61025" lon="2.29103">
        <ele>788</ele>
        <time>2019-05-18T16:56:09Z</time>
      </trkpt>
      <trkpt lat="45.61027" lon="2.29103">
        <ele>788</ele>
        <time>2019-05-18T16:56:10Z</time>
      </trkpt>
      <trkpt lat="45.61029" lon="2.29102">
        <ele>788</ele>
        <time>2019-05-18T16:56:11Z</time>
      </trkpt>
      <trkpt lat="45.61032" lon="2.29102">
        <ele>788</ele>
        <time>2019-05-18T16:56:12Z</time>
      </trkpt>
      <trkpt lat="45.61034" lon="2.29101">
        <ele>788</ele>
        <time>2019-05-18T16:56:13Z</time>
      </trkpt>
      <trkpt lat="45.61036" lon="2.29101">
        <ele>788</ele>
        <time>2019-05-18T16:56:14Z</time>
      </trkpt>
      <trkpt lat="45.61038" lon="2.291">
        <ele>788</ele>
        <time>2019-05-18T16:56:15Z</time>
      </trkpt>
      <trkpt lat="45.6104" lon="2.29099">
        <ele>789</ele>
        <time>2019-05-18T16:56:16Z</time>
      </trkpt>
      <trkpt lat="45.61042" lon="2.29098">
        <ele>789</ele>
        <time>2019-05-18T16:56:17Z</time>
      </trkpt>
      <trkpt lat="45.61045" lon="2.29098">
        <ele>789</ele>
        <time>2019-05-18T16:56:18Z</time>
      </trkpt>
      <trkpt lat="45.61047" lon="2.29097">
        <ele>789</ele>
        <time>2019-05-18T16:56:19Z</time>
      </trkpt>
      <trkpt lat="45.61049" lon="2.29096">
        <ele>789</ele>
        <time>2019-05-18T16:56:20Z</time>
      </trkpt>
      <trkpt lat="45.61051" lon="2.29094">
        <ele>789</ele>
        <time>2019-05-18T16:56:21Z</time>
      </trkpt>
      <trkpt lat="45.61054" lon="2.29094">
        <ele>789</ele>
        <time>2019-05-18T16:56:22Z</time>
      </trkpt>
      <trkpt lat="45.61056" lon="2.29095">
        <ele>789</ele>
        <time>2019-05-18T16:56:23Z</time>
      </trkpt>
      <trkpt lat="45.61059" lon="2.29095">
        <ele>789</ele>
        <time>2019-05-18T16:56:24Z</time>
      </trkpt>
      <trkpt lat="45.61061" lon="2.29094">
        <ele>789</ele>
        <time>2019-05-18T16:56:25Z</time>
      </trkpt>
      <trkpt lat="45.61064" lon="2.29095">
        <ele>789</ele>
        <time>2019-05-18T16:56:26Z</time>
      </trkpt>
      <trkpt lat="45.61067" lon="2.29095">
        <ele>789</ele>
        <time>2019-05-18T16:56:27Z</time>
      </trkpt>
      <trkpt lat="45.6107" lon="2.29095">
        <ele>789</ele>
        <time>2019-05-18T16:56:28Z</time>
      </trkpt>
      <trkpt lat="45.61073" lon="2.29096">
        <ele>789</ele>
        <time>2019-05-18T16:56:29Z</time>
      </trkpt>
      <trkpt lat="45.61076" lon="2.29097">
        <ele>789</ele>
        <time>2019-05-18T16:56:30Z</time>
      </trkpt>
      <trkpt lat="45.61079" lon="2.29097">
        <ele>789</ele>
        <time>2019-05-18T16:56:31Z</time>
      </trkpt>
      <trkpt lat="45.61082" lon="2.29098">
        <ele>789</ele>
        <time>2019-05-18T16:56:32Z</time>
      </trkpt>
      <trkpt lat="45.61085" lon="2.29098">
        <ele>789</ele>
        <time>2019-05-18T16:56:33Z</time>
      </trkpt>
      <trkpt lat="45.61088" lon="2.29098">
        <ele>789</ele>
        <time>2019-05-18T16:56:34Z</time>
      </trkpt>
      <trkpt lat="45.61091" lon="2.29099">
        <ele>789</ele>
        <time>2019-05-18T16:56:35Z</time>
      </trkpt>
      <trkpt lat="45.61094" lon="2.291">
        <ele>789</ele>
        <time>2019-05-18T16:56:36Z</time>
      </trkpt>
      <trkpt lat="45.61097" lon="2.29101">
        <ele>789</ele>
        <time>2019-05-18T16:56:37Z</time>
      </trkpt>
      <trkpt lat="45.61099" lon="2.29101">
        <ele>789</ele>
        <time>2019-05-18T16:56:38Z</time>
      </trkpt>
      <trkpt lat="45.61102" lon="2.29102">
        <ele>789</ele>
        <time>2019-05-18T16:56:39Z</time>
      </trkpt>
      <trkpt lat="45.61105" lon="2.29104">
        <ele>789</ele>
        <time>2019-05-18T16:56:40Z</time>
      </trkpt>
      <trkpt lat="45.61108" lon="2.29104">
        <ele>789</ele>
        <time>2019-05-18T16:56:41Z</time>
      </trkpt>
      <trkpt lat="45.61111" lon="2.29105">
        <ele>789</ele>
        <time>2019-05-18T16:56:42Z</time>
      </trkpt>
      <trkpt lat="45.61114" lon="2.29105">
        <ele>789</ele>
        <time>2019-05-18T16:56:43Z</time>
      </trkpt>
      <trkpt lat="45.61117" lon="2.29106">
        <ele>789</ele>
        <time>2019-05-18T16:56:44Z</time>
      </trkpt>
      <trkpt lat="45.6112" lon="2.29106">
        <ele>790</ele>
        <time>2019-05-18T16:56:45Z</time>
      </trkpt>
      <trkpt lat="45.61123" lon="2.29107">
        <ele>790</ele>
        <time>2019-05-18T16:56:46Z</time>
      </trkpt>
      <trkpt lat="45.61126" lon="2.29108">
        <ele>790</ele>
        <time>2019-05-18T16:56:47Z</time>
      </trkpt>
      <trkpt lat="45.61129" lon="2.29109">
        <ele>790</ele>
        <time>2019-05-18T16:56:48Z</time>
      </trkpt>
      <trkpt lat="45.61132" lon="2.29109">
        <ele>790</ele>
        <time>2019-05-18T16:56:49Z</time>
      </trkpt>
      <trkpt lat="45.61135" lon="2.2911">
        <ele>790</ele>
        <time>2019-05-18T16:56:50Z</time>
      </trkpt>
      <trkpt lat="45.61138" lon="2.2911">
        <ele>790</ele>
        <time>2019-05-18T16:56:51Z</time>
      </trkpt>
      <trkpt lat="45.61141" lon="2.29111">
        <ele>790</ele>
        <time>2019-05-18T16:56:52Z</time>
      </trkpt>
      <trkpt lat="45.61144" lon="2.29111">
        <ele>790</ele>
        <time>2019-05-18T16:56:53Z</time>
      </trkpt>
      <trkpt lat="45.61147" lon="2.29112">
        <ele>790</ele>
        <time>2019-05-18T16:56:54Z</time>
      </trkpt>
      <trkpt lat="45.6115" lon="2.29113">
        <ele>790</ele>
        <time>2019-05-18T16:56:55Z</time>
      </trkpt>
      <trkpt lat="45.61153" lon="2.29113">
        <ele>791</ele>
        <time>2019-05-18T16:56:56Z</time>
      </trkpt>
      <trkpt lat="45.61155" lon="2.29114">
        <ele>791</ele>
        <time>2019-05-18T16:56:57Z</time>
      </trkpt>
      <trkpt lat="45.61158" lon="2.29114">
        <ele>791</ele>
        <time>2019-05-18T16:56:58Z</time>
      </trkpt>
      <trkpt lat="45.61161" lon="2.29115">
        <ele>791</ele>
        <time>2019-05-18T16:56:59Z</time>
      </trkpt>
      <trkpt lat="45.61164" lon="2.29116">
        <ele>791</ele>
        <time>2019-05-18T16:57:00Z</time>
      </trkpt>
      <trkpt lat="45.61167" lon="2.29117">
        <ele>791</ele>
        <time>2019-05-18T16:57:01Z</time>
      </trkpt>
      <trkpt lat="45.6117" lon="2.29117">
        <ele>791</ele>
        <time>2019-05-18T16:57:02Z</time>
      </trkpt>
      <trkpt lat="45.61172" lon="2.29118">
        <ele>791</ele>
        <time>2019-05-18T16:57:03Z</time>
      </trkpt>
      <trkpt lat="45.61175" lon="2.29118">
        <ele>792</ele>
        <time>2019-05-18T16:57:04Z</time>
      </trkpt>
      <trkpt lat="45.61178" lon="2.29119">
        <ele>792</ele>
        <time>2019-05-18T16:57:05Z</time>
      </trkpt>
      <trkpt lat="45.61181" lon="2.29119">
        <ele>792</ele>
        <time>2019-05-18T16:57:06Z</time>
      </trkpt>
      <trkpt lat="45.61184" lon="2.29119">
        <ele>792</ele>
        <time>2019-05-18T16:57:07Z</time>
      </trkpt>
      <trkpt lat="45.61187" lon="2.2912">
        <ele>792</ele>
        <time>2019-05-18T16:57:08Z</time>
      </trkpt>
      <trkpt lat="45.6119" lon="2.29121">
        <ele>792</ele>
        <time>2019-05-18T16:57:09Z</time>
      </trkpt>
      <trkpt lat="45.61193" lon="2.29122">
        <ele>792</ele>
        <time>2019-05-18T16:57:10Z</time>
      </trkpt>
      <trkpt lat="45.61196" lon="2.29123">
        <ele>792</ele>
        <time>2019-05-18T16:57:11Z</time>
      </trkpt>
      <trkpt lat="45.61199" lon="2.29124">
        <ele>792</ele>
        <time>2019-05-18T16:57:12Z</time>
      </trkpt>
      <trkpt lat="45.61202" lon="2.29125">
        <ele>792</ele>
        <time>2019-05-18T16:57:13Z</time>
      </trkpt>
      <trkpt lat="45.61204" lon="2.29125">
        <ele>793</ele>
        <time>2019-05-18T16:57:14Z</time>
      </trkpt>
      <trkpt lat="45.61207" lon="2.29126">
        <ele>793</ele>
        <time>2019-05-18T16:57:15Z</time>
      </trkpt>
      <trkpt lat="45.6121" lon="2.29127">
        <ele>793</ele>
        <time>2019-05-18T16:57:16Z</time>
      </trkpt>
      <trkpt lat="45.61213" lon="2.29128">
        <ele>793</ele>
        <time>2019-05-18T16:57:17Z</time>
      </trkpt>
      <trkpt lat="45.61216" lon="2.29129">
        <ele>793</ele>
        <time>2019-05-18T16:57:18Z</time>
      </trkpt>
      <trkpt lat="45.61219" lon="2.2913">
        <ele>793</ele>
        <time>2019-05-18T16:57:19Z</time>
      </trkpt>
      <trkpt lat="45.61222" lon="2.29131">
        <ele>793</ele>
        <time>2019-05-18T16:57:20Z</time>
      </trkpt>
      <trkpt lat="45.61224" lon="2.29132">
        <ele>793</ele>
        <time>2019-05-18T16:57:21Z</time>
      </trkpt>
      <trkpt lat="45.61227" lon="2.29134">
        <ele>793</ele>
        <time>2019-05-18T16:57:22Z</time>
      </trkpt>
      <trkpt lat="45.6123" lon="2.29135">
        <ele>793</ele>
        <time>2019-05-18T16:57:23Z</time>
      </trkpt>
      <trkpt lat="45.61233" lon="2.29137">
        <ele>793</ele>
        <time>2019-05-18T16:57:24Z</time>
      </trkpt>
      <trkpt lat="45.61234" lon="2.2914">
        <ele>793</ele>
        <time>2019-05-18T16:57:25Z</time>
      </trkpt>
      <trkpt lat="45.61236" lon="2.29144">
        <ele>793</ele>
        <time>2019-05-18T16:57:26Z</time>
      </trkpt>
      <trkpt lat="45.61237" lon="2.29148">
        <ele>793</ele>
        <time>2019-05-18T16:57:27Z</time>
      </trkpt>
      <trkpt lat="45.61239" lon="2.29151">
        <ele>793</ele>
        <time>2019-05-18T16:57:28Z</time>
      </trkpt>
      <trkpt lat="45.61241" lon="2.29156">
        <ele>793</ele>
        <time>2019-05-18T16:57:29Z</time>
      </trkpt>
      <trkpt lat="45.61242" lon="2.2916">
        <ele>793</ele>
        <time>2019-05-18T16:57:30Z</time>
      </trkpt>
      <trkpt lat="45.61244" lon="2.29164">
        <ele>793</ele>
        <time>2019-05-18T16:57:31Z</time>
      </trkpt>
      <trkpt lat="45.61246" lon="2.29167">
        <ele>794</ele>
        <time>2019-05-18T16:57:32Z</time>
      </trkpt>
      <trkpt lat="45.61247" lon="2.29171">
        <ele>793</ele>
        <time>2019-05-18T16:57:33Z</time>
      </trkpt>
      <trkpt lat="45.61249" lon="2.29175">
        <ele>793</ele>
        <time>2019-05-18T16:57:34Z</time>
      </trkpt>
      <trkpt lat="45.61251" lon="2.29179">
        <ele>793</ele>
        <time>2019-05-18T16:57:35Z</time>
      </trkpt>
      <trkpt lat="45.61253" lon="2.29183">
        <ele>793</ele>
        <time>2019-05-18T16:57:36Z</time>
      </trkpt>
      <trkpt lat="45.61254" lon="2.29188">
        <ele>793</ele>
        <time>2019-05-18T16:57:37Z</time>
      </trkpt>
      <trkpt lat="45.61256" lon="2.29193">
        <ele>793</ele>
        <time>2019-05-18T16:57:38Z</time>
      </trkpt>
      <trkpt lat="45.61257" lon="2.29198">
        <ele>793</ele>
        <time>2019-05-18T16:57:39Z</time>
      </trkpt>
      <trkpt lat="45.61259" lon="2.29203">
        <ele>793</ele>
        <time>2019-05-18T16:57:40Z</time>
      </trkpt>
      <trkpt lat="45.6126" lon="2.29208">
        <ele>793</ele>
        <time>2019-05-18T16:57:41Z</time>
      </trkpt>
      <trkpt lat="45.61262" lon="2.29213">
        <ele>792</ele>
        <time>2019-05-18T16:57:42Z</time>
      </trkpt>
      <trkpt lat="45.61263" lon="2.29219">
        <ele>792</ele>
        <time>2019-05-18T16:57:43Z</time>
      </trkpt>
      <trkpt lat="45.61265" lon="2.29225">
        <ele>792</ele>
        <time>2019-05-18T16:57:44Z</time>
      </trkpt>
      <trkpt lat="45.61267" lon="2.29231">
        <ele>792</ele>
        <time>2019-05-18T16:57:45Z</time>
      </trkpt>
      <trkpt lat="45.61268" lon="2.29237">
        <ele>792</ele>
        <time>2019-05-18T16:57:46Z</time>
      </trkpt>
      <trkpt lat="45.6127" lon="2.29244">
        <ele>791</ele>
        <time>2019-05-18T16:57:47Z</time>
      </trkpt>
      <trkpt lat="45.61271" lon="2.2925">
        <ele>791</ele>
        <time>2019-05-18T16:57:48Z</time>
      </trkpt>
      <trkpt lat="45.61273" lon="2.29257">
        <ele>791</ele>
        <time>2019-05-18T16:57:49Z</time>
      </trkpt>
      <trkpt lat="45.61275" lon="2.29261">
        <ele>790</ele>
        <time>2019-05-18T16:57:50Z</time>
      </trkpt>
      <trkpt lat="45.61278" lon="2.29263">
        <ele>790</ele>
        <time>2019-05-18T16:57:51Z</time>
      </trkpt>
      <trkpt lat="45.61281" lon="2.29262">
        <ele>790</ele>
        <time>2019-05-18T16:57:52Z</time>
      </trkpt>
      <trkpt lat="45.61283" lon="2.2926">
        <ele>790</ele>
        <time>2019-05-18T16:57:53Z</time>
      </trkpt>
      <trkpt lat="45.61285" lon="2.29256">
        <ele>790</ele>
        <time>2019-05-18T16:57:54Z</time>
      </trkpt>
      <trkpt lat="45.61286" lon="2.29252">
        <ele>790</ele>
        <time>2019-05-18T16:57:55Z</time>
      </trkpt>
      <trkpt lat="45.61287" lon="2.29247">
        <ele>790</ele>
        <time>2019-05-18T16:57:56Z</time>
      </trkpt>
      <trkpt lat="45.61288" lon="2.29242">
        <ele>790</ele>
        <time>2019-05-18T16:57:57Z</time>
      </trkpt>
      <trkpt lat="45.61289" lon="2.29237">
        <ele>790</ele>
        <time>2019-05-18T16:57:58Z</time>
      </trkpt>
      <trkpt lat="45.6129" lon="2.29232">
        <ele>790</ele>
        <time>2019-05-18T16:57:59Z</time>
      </trkpt>
      <trkpt lat="45.61291" lon="2.29228">
        <ele>790</ele>
        <time>2019-05-18T16:58:00Z</time>
      </trkpt>
      <trkpt lat="45.61293" lon="2.29223">
        <ele>790</ele>
        <time>2019-05-18T16:58:01Z</time>
      </trkpt>
      <trkpt lat="45.61295" lon="2.29218">
        <ele>790</ele>
        <time>2019-05-18T16:58:02Z</time>
      </trkpt>
      <trkpt lat="45.61297" lon="2.29214">
        <ele>790</ele>
        <time>2019-05-18T16:58:03Z</time>
      </trkpt>
      <trkpt lat="45.61299" lon="2.2921">
        <ele>790</ele>
        <time>2019-05-18T16:58:04Z</time>
      </trkpt>
      <trkpt lat="45.61302" lon="2.29207">
        <ele>790</ele>
        <time>2019-05-18T16:58:05Z</time>
      </trkpt>
      <trkpt lat="45.61305" lon="2.29204">
        <ele>790</ele>
        <time>2019-05-18T16:58:06Z</time>
      </trkpt>
      <trkpt lat="45.61308" lon="2.29201">
        <ele>790</ele>
        <time>2019-05-18T16:58:07Z</time>
      </trkpt>
      <trkpt lat="45.61312" lon="2.29198">
        <ele>790</ele>
        <time>2019-05-18T16:58:08Z</time>
      </trkpt>
      <trkpt lat="45.61315" lon="2.29196">
        <ele>790</ele>
        <time>2019-05-18T16:58:09Z</time>
      </trkpt>
      <trkpt lat="45.61319" lon="2.29195">
        <ele>790</ele>
        <time>2019-05-18T16:58:10Z</time>
      </trkpt>
      <trkpt lat="45.61322" lon="2.29193">
        <ele>790</ele>
        <time>2019-05-18T16:58:11Z</time>
      </trkpt>
      <trkpt lat="45.61326" lon="2.29192">
        <ele>790</ele>
        <time>2019-05-18T16:58:12Z</time>
      </trkpt>
      <trkpt lat="45.61329" lon="2.29192">
        <ele>790</ele>
        <time>2019-05-18T16:58:13Z</time>
      </trkpt>
      <trkpt lat="45.61333" lon="2.29191">
        <ele>791</ele>
        <time>2019-05-18T16:58:14Z</time>
      </trkpt>
      <trkpt lat="45.61336" lon="2.2919">
        <ele>791</ele>
        <time>2019-05-18T16:58:15Z</time>
      </trkpt>
      <trkpt lat="45.6134" lon="2.2919">
        <ele>791</ele>
        <time>2019-05-18T16:58:16Z</time>
      </trkpt>
      <trkpt lat="45.61343" lon="2.2919">
        <ele>791</ele>
        <time>2019-05-18T16:58:17Z</time>
      </trkpt>
      <trkpt lat="45.61347" lon="2.2919">
        <ele>791</ele>
        <time>2019-05-18T16:58:18Z</time>
      </trkpt>
      <trkpt lat="45.6135" lon="2.2919">
        <ele>791</ele>
        <time>2019-05-18T16:58:19Z</time>
      </trkpt>
      <trkpt lat="45.61354" lon="2.2919">
        <ele>791</ele>
        <time>2019-05-18T16:58:20Z</time>
      </trkpt>
      <trkpt lat="45.61358" lon="2.29189">
        <ele>791</ele>
        <time>2019-05-18T16:58:21Z</time>
      </trkpt>
      <trkpt lat="45.61362" lon="2.2919">
        <ele>791</ele>
        <time>2019-05-18T16:58:22Z</time>
      </trkpt>
      <trkpt lat="45.61365" lon="2.29189">
        <ele>791</ele>
        <time>2019-05-18T16:58:23Z</time>
      </trkpt>
      <trkpt lat="45.61369" lon="2.29189">
        <ele>791</ele>
        <time>2019-05-18T16:58:24Z</time>
      </trkpt>
      <trkpt lat="45.61373" lon="2.29189">
        <ele>791</ele>
        <time>2019-05-18T16:58:25Z</time>
      </trkpt>
      <trkpt lat="45.61376" lon="2.29188">
        <ele>791</ele>
        <time>2019-05-18T16:58:26Z</time>
      </trkpt>
      <trkpt lat="45.6138" lon="2.29188">
        <ele>791</ele>
        <time>2019-05-18T16:58:27Z</time>
      </trkpt>
      <trkpt lat="45.61383" lon="2.29188">
        <ele>791</ele>
        <time>2019-05-18T16:58:28Z</time>
      </trkpt>
      <trkpt lat="45.61387" lon="2.29188">
        <ele>791</ele>
        <time>2019-05-18T16:58:29Z</time>
      </trkpt>
      <trkpt lat="45.61391" lon="2.29187">
        <ele>791</ele>
        <time>2019-05-18T16:58:30Z</time>
      </trkpt>
      <trkpt lat="45.61394" lon="2.29187">
        <ele>791</ele>
        <time>2019-05-18T16:58:31Z</time>
      </trkpt>
      <trkpt lat="45.61397" lon="2.29186">
        <ele>791</ele>
        <time>2019-05-18T16:58:32Z</time>
      </trkpt>
      <trkpt lat="45.614" lon="2.29186">
        <ele>791</ele>
        <time>2019-05-18T16:58:33Z</time>
      </trkpt>
      <trkpt lat="45.61404" lon="2.29186">
        <ele>791</ele>
        <time>2019-05-18T16:58:34Z</time>
      </trkpt>
      <trkpt lat="45.61408" lon="2.29187">
        <ele>791</ele>
        <time>2019-05-18T16:58:35Z</time>
      </trkpt>
      <trkpt lat="45.61411" lon="2.29187">
        <ele>791</ele>
        <time>2019-05-18T16:58:36Z</time>
      </trkpt>
      <trkpt lat="45.61415" lon="2.29187">
        <ele>791</ele>
        <time>2019-05-18T16:58:37Z</time>
      </trkpt>
      <trkpt lat="45.61418" lon="2.29187">
        <ele>791</ele>
        <time>2019-05-18T16:58:38Z</time>
      </trkpt>
      <trkpt lat="45.61422" lon="2.29189">
        <ele>791</ele>
        <time>2019-05-18T16:58:39Z</time>
      </trkpt>
      <trkpt lat="45.61425" lon="2.29192">
        <ele>791</ele>
        <time>2019-05-18T16:58:40Z</time>
      </trkpt>
      <trkpt lat="45.61428" lon="2.29197">
        <ele>791</ele>
        <time>2019-05-18T16:58:41Z</time>
      </trkpt>
      <trkpt lat="45.61431" lon="2.29201">
        <ele>791</ele>
        <time>2019-05-18T16:58:42Z</time>
      </trkpt>
      <trkpt lat="45.61435" lon="2.29205">
        <ele>791</ele>
        <time>2019-05-18T16:58:43Z</time>
      </trkpt>
      <trkpt lat="45.61438" lon="2.29209">
        <ele>791</ele>
        <time>2019-05-18T16:58:44Z</time>
      </trkpt>
      <trkpt lat="45.61441" lon="2.29213">
        <ele>791</ele>
        <time>2019-05-18T16:58:45Z</time>
      </trkpt>
      <trkpt lat="45.61445" lon="2.29217">
        <ele>790</ele>
        <time>2019-05-18T16:58:46Z</time>
      </trkpt>
      <trkpt lat="45.61448" lon="2.29221">
        <ele>790</ele>
        <time>2019-05-18T16:58:47Z</time>
      </trkpt>
      <trkpt lat="45.61451" lon="2.29225">
        <ele>790</ele>
        <time>2019-05-18T16:58:48Z</time>
      </trkpt>
      <trkpt lat="45.61454" lon="2.29229">
        <ele>790</ele>
        <time>2019-05-18T16:58:49Z</time>
      </trkpt>
      <trkpt lat="45.61457" lon="2.29232">
        <ele>790</ele>
        <time>2019-05-18T16:58:50Z</time>
      </trkpt>
      <trkpt lat="45.61459" lon="2.29235">
        <ele>791</ele>
        <time>2019-05-18T16:58:51Z</time>
      </trkpt>
      <trkpt lat="45.61462" lon="2.29238">
        <ele>791</ele>
        <time>2019-05-18T16:58:52Z</time>
      </trkpt>
      <trkpt lat="45.61466" lon="2.29239">
        <ele>791</ele>
        <time>2019-05-18T16:58:53Z</time>
      </trkpt>
      <trkpt lat="45.6147" lon="2.2924">
        <ele>791</ele>
        <time>2019-05-18T16:58:54Z</time>
      </trkpt>
      <trkpt lat="45.61474" lon="2.29243">
        <ele>790</ele>
        <time>2019-05-18T16:58:55Z</time>
      </trkpt>
      <trkpt lat="45.61478" lon="2.29246">
        <ele>790</ele>
        <time>2019-05-18T16:58:56Z</time>
      </trkpt>
      <trkpt lat="45.61482" lon="2.29252">
        <ele>790</ele>
        <time>2019-05-18T16:58:57Z</time>
      </trkpt>
      <trkpt lat="45.61487" lon="2.29257">
        <ele>789</ele>
        <time>2019-05-18T16:58:58Z</time>
      </trkpt>
      <trkpt lat="45.61491" lon="2.29263">
        <ele>789</ele>
        <time>2019-05-18T16:58:59Z</time>
      </trkpt>
      <trkpt lat="45.61496" lon="2.29268">
        <ele>788</ele>
        <time>2019-05-18T16:59:00Z</time>
      </trkpt>
      <trkpt lat="45.61502" lon="2.29274">
        <ele>788</ele>
        <time>2019-05-18T16:59:01Z</time>
      </trkpt>
      <trkpt lat="45.61507" lon="2.2928">
        <ele>787</ele>
        <time>2019-05-18T16:59:02Z</time>
      </trkpt>
      <trkpt lat="45.61512" lon="2.29286">
        <ele>787</ele>
        <time>2019-05-18T16:59:03Z</time>
      </trkpt>
      <trkpt lat="45.61518" lon="2.29292">
        <ele>787</ele>
        <time>2019-05-18T16:59:04Z</time>
      </trkpt>
      <trkpt lat="45.61524" lon="2.29297">
        <ele>786</ele>
        <time>2019-05-18T16:59:05Z</time>
      </trkpt>
      <trkpt lat="45.61529" lon="2.29303">
        <ele>786</ele>
        <time>2019-05-18T16:59:06Z</time>
      </trkpt>
      <trkpt lat="45.61535" lon="2.29309">
        <ele>786</ele>
        <time>2019-05-18T16:59:07Z</time>
      </trkpt>
      <trkpt lat="45.6154" lon="2.29314">
        <ele>786</ele>
        <time>2019-05-18T16:59:08Z</time>
      </trkpt>
      <trkpt lat="45.61545" lon="2.2932">
        <ele>786</ele>
        <time>2019-05-18T16:59:09Z</time>
      </trkpt>
      <trkpt lat="45.6155" lon="2.29325">
        <ele>786</ele>
        <time>2019-05-18T16:59:10Z</time>
      </trkpt>
      <trkpt lat="45.61555" lon="2.29331">
        <ele>785</ele>
        <time>2019-05-18T16:59:11Z</time>
      </trkpt>
      <trkpt lat="45.6156" lon="2.29336">
        <ele>785</ele>
        <time>2019-05-18T16:59:12Z</time>
      </trkpt>
      <trkpt lat="45.61565" lon="2.29341">
        <ele>785</ele>
        <time>2019-05-18T16:59:13Z</time>
      </trkpt>
      <trkpt lat="45.6157" lon="2.29346">
        <ele>785</ele>
        <time>2019-05-18T16:59:14Z</time>
      </trkpt>
      <trkpt lat="45.61575" lon="2.29349">
        <ele>785</ele>
        <time>2019-05-18T16:59:15Z</time>
      </trkpt>
      <trkpt lat="45.6158" lon="2.29352">
        <ele>785</ele>
        <time>2019-05-18T16:59:16Z</time>
      </trkpt>
      <trkpt lat="45.61585" lon="2.29354">
        <ele>784</ele>
        <time>2019-05-18T16:59:17Z</time>
      </trkpt>
      <trkpt lat="45.61589" lon="2.29356">
        <ele>784</ele>
        <time>2019-05-18T16:59:18Z</time>
      </trkpt>
      <trkpt lat="45.61595" lon="2.29357">
        <ele>784</ele>
        <time>2019-05-18T16:59:19Z</time>
      </trkpt>
      <trkpt lat="45.616" lon="2.29358">
        <ele>784</ele>
        <time>2019-05-18T16:59:20Z</time>
      </trkpt>
      <trkpt lat="45.61606" lon="2.29359">
        <ele>784</ele>
        <time>2019-05-18T16:59:21Z</time>
      </trkpt>
      <trkpt lat="45.61611" lon="2.29361">
        <ele>783</ele>
        <time>2019-05-18T16:59:22Z</time>
      </trkpt>
      <trkpt lat="45.61616" lon="2.29362">
        <ele>783</ele>
        <time>2019-05-18T16:59:23Z</time>
      </trkpt>
      <trkpt lat="45.61623" lon="2.29363">
        <ele>783</ele>
        <time>2019-05-18T16:59:24Z</time>
      </trkpt>
      <trkpt lat="45.61629" lon="2.29363">
        <ele>783</ele>
        <time>2019-05-18T16:59:25Z</time>
      </trkpt>
      <trkpt lat="45.61635" lon="2.29363">
        <ele>782</ele>
        <time>2019-05-18T16:59:26Z</time>
      </trkpt>
      <trkpt lat="45.61641" lon="2.29363">
        <ele>782</ele>
        <time>2019-05-18T16:59:27Z</time>
      </trkpt>
      <trkpt lat="45.61647" lon="2.29364">
        <ele>782</ele>
        <time>2019-05-18T16:59:28Z</time>
      </trkpt>
      <trkpt lat="45.61653" lon="2.29364">
        <ele>782</ele>
        <time>2019-05-18T16:59:29Z</time>
      </trkpt>
      <trkpt lat="45.61658" lon="2.29364">
        <ele>782</ele>
        <time>2019-05-18T16:59:30Z</time>
      </trkpt>
      <trkpt lat="45.61665" lon="2.29364">
        <ele>782</ele>
        <time>2019-05-18T16:59:31Z</time>
      </trkpt>
      <trkpt lat="45.61671" lon="2.29363">
        <ele>781</ele>
        <time>2019-05-18T16:59:32Z</time>
      </trkpt>
      <trkpt lat="45.61677" lon="2.29361">
        <ele>781</ele>
        <time>2019-05-18T16:59:33Z</time>
      </trkpt>
      <trkpt lat="45.61684" lon="2.2936">
        <ele>781</ele>
        <time>2019-05-18T16:59:34Z</time>
      </trkpt>
      <trkpt lat="45.61691" lon="2.29356">
        <ele>781</ele>
        <time>2019-05-18T16:59:35Z</time>
      </trkpt>
      <trkpt lat="45.61697" lon="2.29353">
        <ele>781</ele>
        <time>2019-05-18T16:59:36Z</time>
      </trkpt>
      <trkpt lat="45.61703" lon="2.29349">
        <ele>780</ele>
        <time>2019-05-18T16:59:37Z</time>
      </trkpt>
      <trkpt lat="45.61709" lon="2.29345">
        <ele>780</ele>
        <time>2019-05-18T16:59:38Z</time>
      </trkpt>
      <trkpt lat="45.61714" lon="2.29341">
        <ele>780</ele>
        <time>2019-05-18T16:59:39Z</time>
      </trkpt>
      <trkpt lat="45.61719" lon="2.29337">
        <ele>779</ele>
        <time>2019-05-18T16:59:40Z</time>
      </trkpt>
      <trkpt lat="45.61725" lon="2.29334">
        <ele>779</ele>
        <time>2019-05-18T16:59:41Z</time>
      </trkpt>
      <trkpt lat="45.61731" lon="2.29331">
        <ele>779</ele>
        <time>2019-05-18T16:59:42Z</time>
      </trkpt>
      <trkpt lat="45.61737" lon="2.29329">
        <ele>778</ele>
        <time>2019-05-18T16:59:43Z</time>
      </trkpt>
      <trkpt lat="45.61744" lon="2.29326">
        <ele>778</ele>
        <time>2019-05-18T16:59:44Z</time>
      </trkpt>
      <trkpt lat="45.6175" lon="2.29326">
        <ele>778</ele>
        <time>2019-05-18T16:59:45Z</time>
      </trkpt>
      <trkpt lat="45.61755" lon="2.29325">
        <ele>778</ele>
        <time>2019-05-18T16:59:46Z</time>
      </trkpt>
      <trkpt lat="45.61761" lon="2.29324">
        <ele>778</ele>
        <time>2019-05-18T16:59:47Z</time>
      </trkpt>
      <trkpt lat="45.61767" lon="2.29326">
        <ele>778</ele>
        <time>2019-05-18T16:59:48Z</time>
      </trkpt>
      <trkpt lat="45.61772" lon="2.2933">
        <ele>778</ele>
        <time>2019-05-18T16:59:49Z</time>
      </trkpt>
      <trkpt lat="45.61778" lon="2.29333">
        <ele>778</ele>
        <time>2019-05-18T16:59:50Z</time>
      </trkpt>
      <trkpt lat="45.61783" lon="2.29335">
        <ele>778</ele>
        <time>2019-05-18T16:59:51Z</time>
      </trkpt>
      <trkpt lat="45.61787" lon="2.29338">
        <ele>778</ele>
        <time>2019-05-18T16:59:52Z</time>
      </trkpt>
      <trkpt lat="45.61792" lon="2.2934">
        <ele>779</ele>
        <time>2019-05-18T16:59:53Z</time>
      </trkpt>
      <trkpt lat="45.61796" lon="2.29341">
        <ele>779</ele>
        <time>2019-05-18T16:59:54Z</time>
      </trkpt>
      <trkpt lat="45.61799" lon="2.29342">
        <ele>779</ele>
        <time>2019-05-18T16:59:55Z</time>
      </trkpt>
      <trkpt lat="45.61803" lon="2.29344">
        <ele>779</ele>
        <time>2019-05-18T16:59:56Z</time>
      </trkpt>
      <trkpt lat="45.61805" lon="2.29345">
        <ele>779</ele>
        <time>2019-05-18T16:59:57Z</time>
      </trkpt>
      <trkpt lat="45.61808" lon="2.29347">
        <ele>780</ele>
        <time>2019-05-18T16:59:58Z</time>
      </trkpt>
      <trkpt lat="45.61811" lon="2.29348">
        <ele>780</ele>
        <time>2019-05-18T16:59:59Z</time>
      </trkpt>
      <trkpt lat="45.61813" lon="2.29348">
        <ele>780</ele>
        <time>2019-05-18T17:00:00Z</time>
      </trkpt>
      <trkpt lat="45.61816" lon="2.29349">
        <ele>780</ele>
        <time>2019-05-18T17:00:01Z</time>
      </trkpt>
      <trkpt lat="45.61818" lon="2.2935">
        <ele>780</ele>
        <time>2019-05-18T17:00:02Z</time>
      </trkpt>
      <trkpt lat="45.6182" lon="2.29352">
        <ele>780</ele>
        <time>2019-05-18T17:00:03Z</time>
      </trkpt>
      <trkpt lat="45.61823" lon="2.29354">
        <ele>781</ele>
        <time>2019-05-18T17:00:04Z</time>
      </trkpt>
      <trkpt lat="45.61826" lon="2.29355">
        <ele>781</ele>
        <time>2019-05-18T17:00:05Z</time>
      </trkpt>
      <trkpt lat="45.61829" lon="2.29357">
        <ele>781</ele>
        <time>2019-05-18T17:00:06Z</time>
      </trkpt>
      <trkpt lat="45.61831" lon="2.2936">
        <ele>781</ele>
        <time>2019-05-18T17:00:07Z</time>
      </trkpt>
      <trkpt lat="45.61834" lon="2.29363">
        <ele>781</ele>
        <time>2019-05-18T17:00:08Z</time>
      </trkpt>
      <trkpt lat="45.61837" lon="2.29365">
        <ele>781</ele>
        <time>2019-05-18T17:00:09Z</time>
      </trkpt>
      <trkpt lat="45.61839" lon="2.29367">
        <ele>781</ele>
        <time>2019-05-18T17:00:10Z</time>
      </trkpt>
      <trkpt lat="45.61842" lon="2.2937">
        <ele>781</ele>
        <time>2019-05-18T17:00:11Z</time>
      </trkpt>
      <trkpt lat="45.61845" lon="2.29372">
        <ele>780</ele>
        <time>2019-05-18T17:00:12Z</time>
      </trkpt>
      <trkpt lat="45.61849" lon="2.29374">
        <ele>780</ele>
        <time>2019-05-18T17:00:13Z</time>
      </trkpt>
      <trkpt lat="45.61852" lon="2.29378">
        <ele>780</ele>
        <time>2019-05-18T17:00:14Z</time>
      </trkpt>
      <trkpt lat="45.61856" lon="2.29382">
        <ele>779</ele>
        <time>2019-05-18T17:00:15Z</time>
      </trkpt>
      <trkpt lat="45.61859" lon="2.29388">
        <ele>779</ele>
        <time>2019-05-18T17:00:16Z</time>
      </trkpt>
      <trkpt lat="45.61863" lon="2.29394">
        <ele>779</ele>
        <time>2019-05-18T17:00:17Z</time>
      </trkpt>
      <trkpt lat="45.61867" lon="2.294">
        <ele>778</ele>
        <time>2019-05-18T17:00:18Z</time>
      </trkpt>
      <trkpt lat="45.61872" lon="2.29406">
        <ele>778</ele>
        <time>2019-05-18T17:00:19Z</time>
      </trkpt>
      <trkpt lat="45.61875" lon="2.29414">
        <ele>777</ele>
        <time>2019-05-18T17:00:20Z</time>
      </trkpt>
      <trkpt lat="45.61879" lon="2.29422">
        <ele>777</ele>
        <time>2019-05-18T17:00:21Z</time>
      </trkpt>
      <trkpt lat="45.61883" lon="2.2943">
        <ele>777</ele>
        <time>2019-05-18T17:00:22Z</time>
      </trkpt>
      <trkpt lat="45.61887" lon="2.29437">
        <ele>776</ele>
        <time>2019-05-18T17:00:23Z</time>
      </trkpt>
      <trkpt lat="45.61891" lon="2.29445">
        <ele>776</ele>
        <time>2019-05-18T17:00:24Z</time>
      </trkpt>
      <trkpt lat="45.61894" lon="2.29453">
        <ele>776</ele>
        <time>2019-05-18T17:00:25Z</time>
      </trkpt>
      <trkpt lat="45.61898" lon="2.29459">
        <ele>776</ele>
        <time>2019-05-18T17:00:26Z</time>
      </trkpt>
      <trkpt lat="45.61902" lon="2.29465">
        <ele>776</ele>
        <time>2019-05-18T17:00:27Z</time>
      </trkpt>
      <trkpt lat="45.61905" lon="2.29471">
        <ele>776</ele>
        <time>2019-05-18T17:00:28Z</time>
      </trkpt>
      <trkpt lat="45.61908" lon="2.29476">
        <ele>776</ele>
        <time>2019-05-18T17:00:29Z</time>
      </trkpt>
      <trkpt lat="45.61911" lon="2.29481">
        <ele>776</ele>
        <time>2019-05-18T17:00:30Z</time>
      </trkpt>
      <trkpt lat="45.61914" lon="2.29485">
        <ele>776</ele>
        <time>2019-05-18T17:00:31Z</time>
      </trkpt>
      <trkpt lat="45.61916" lon="2.2949">
        <ele>776</ele>
        <time>2019-05-18T17:00:32Z</time>
      </trkpt>
      <trkpt lat="45.6192" lon="2.29493">
        <ele>777</ele>
        <time>2019-05-18T17:00:33Z</time>
      </trkpt>
      <trkpt lat="45.61923" lon="2.29496">
        <ele>777</ele>
        <time>2019-05-18T17:00:34Z</time>
      </trkpt>
      <trkpt lat="45.61926" lon="2.295">
        <ele>777</ele>
        <time>2019-05-18T17:00:35Z</time>
      </trkpt>
      <trkpt lat="45.61929" lon="2.29503">
        <ele>777</ele>
        <time>2019-05-18T17:00:36Z</time>
      </trkpt>
      <trkpt lat="45.61931" lon="2.29506">
        <ele>777</ele>
        <time>2019-05-18T17:00:37Z</time>
      </trkpt>
      <trkpt lat="45.61934" lon="2.2951">
        <ele>777</ele>
        <time>2019-05-18T17:00:38Z</time>
      </trkpt>
      <trkpt lat="45.61936" lon="2.29513">
        <ele>778</ele>
        <time>2019-05-18T17:00:39Z</time>
      </trkpt>
      <trkpt lat="45.61938" lon="2.29516">
        <ele>778</ele>
        <time>2019-05-18T17:00:40Z</time>
      </trkpt>
      <trkpt lat="45.61941" lon="2.29519">
        <ele>778</ele>
        <time>2019-05-18T17:00:41Z</time>
      </trkpt>
      <trkpt lat="45.61943" lon="2.29522">
        <ele>778</ele>
        <time>2019-05-18T17:00:42Z</time>
      </trkpt>
      <trkpt lat="45.61945" lon="2.29525">
        <ele>779</ele>
        <time>2019-05-18T17:00:43Z</time>
      </trkpt>
      <trkpt lat="45.61948" lon="2.29528">
        <ele>779</ele>
        <time>2019-05-18T17:00:44Z</time>
      </trkpt>
      <trkpt lat="45.6195" lon="2.29531">
        <ele>779</ele>
        <time>2019-05-18T17:00:45Z</time>
      </trkpt>
      <trkpt lat="45.61953" lon="2.29534">
        <ele>779</ele>
        <time>2019-05-18T17:00:46Z</time>
      </trkpt>
      <trkpt lat="45.61955" lon="2.29536">
        <ele>779</ele>
        <time>2019-05-18T17:00:47Z</time>
      </trkpt>
      <trkpt lat="45.61957" lon="2.29539">
        <ele>779</ele>
        <time>2019-05-18T17:00:48Z</time>
      </trkpt>
      <trkpt lat="45.61959" lon="2.29543">
        <ele>780</ele>
        <time>2019-05-18T17:00:49Z</time>
      </trkpt>
      <trkpt lat="45.61961" lon="2.29546">
        <ele>780</ele>
        <time>2019-05-18T17:00:50Z</time>
      </trkpt>
      <trkpt lat="45.61963" lon="2.29549">
        <ele>780</ele>
        <time>2019-05-18T17:00:51Z</time>
      </trkpt>
      <trkpt lat="45.61966" lon="2.29552">
        <ele>780</ele>
        <time>2019-05-18T17:00:52Z</time>
      </trkpt>
      <trkpt lat="45.61968" lon="2.29555">
        <ele>781</ele>
        <time>2019-05-18T17:00:53Z</time>
      </trkpt>
      <trkpt lat="45.6197" lon="2.29558">
        <ele>781</ele>
        <time>2019-05-18T17:00:54Z</time>
      </trkpt>
      <trkpt lat="45.61972" lon="2.29561">
        <ele>781</ele>
        <time>2019-05-18T17:00:55Z</time>
      </trkpt>
      <trkpt lat="45.61974" lon="2.29564">
        <ele>781</ele>
        <time>2019-05-18T17:00:56Z</time>
      </trkpt>
      <trkpt lat="45.61976" lon="2.29567">
        <ele>782</ele>
        <time>2019-05-18T17:00:57Z</time>
      </trkpt>
      <trkpt lat="45.61978" lon="2.29569">
        <ele>782</ele>
        <time>2019-05-18T17:00:58Z</time>
      </trkpt>
      <trkpt lat="45.6198" lon="2.29573">
        <ele>782</ele>
        <time>2019-05-18T17:00:59Z</time>
      </trkpt>
      <trkpt lat="45.61982" lon="2.29576">
        <ele>782</ele>
        <time>2019-05-18T17:01:00Z</time>
      </trkpt>
      <trkpt lat="45.61984" lon="2.29579">
        <ele>782</ele>
        <time>2019-05-18T17:01:01Z</time>
      </trkpt>
      <trkpt lat="45.61986" lon="2.29582">
        <ele>782</ele>
        <time>2019-05-18T17:01:02Z</time>
      </trkpt>
      <trkpt lat="45.61989" lon="2.29585">
        <ele>782</ele>
        <time>2019-05-18T17:01:03Z</time>
      </trkpt>
      <trkpt lat="45.6199" lon="2.29588">
        <ele>782</ele>
        <time>2019-05-18T17:01:04Z</time>
      </trkpt>
      <trkpt lat="45.61992" lon="2.29591">
        <ele>782</ele>
        <time>2019-05-18T17:01:05Z</time>
      </trkpt>
      <trkpt lat="45.61994" lon="2.29594">
        <ele>783</ele>
        <time>2019-05-18T17:01:06Z</time>
      </trkpt>
      <trkpt lat="45.61996" lon="2.29597">
        <ele>783</ele>
        <time>2019-05-18T17:01:07Z</time>
      </trkpt>
      <trkpt lat="45.61998" lon="2.29601">
        <ele>783</ele>
        <time>2019-05-18T17:01:08Z</time>
      </trkpt>
      <trkpt lat="45.61999" lon="2.29604">
        <ele>782</ele>
        <time>2019-05-18T17:01:09Z</time>
      </trkpt>
      <trkpt lat="45.62" lon="2.29609">
        <ele>782</ele>
        <time>2019-05-18T17:01:10Z</time>
      </trkpt>
      <trkpt lat="45.62001" lon="2.29613">
        <ele>782</ele>
        <time>2019-05-18T17:01:11Z</time>
      </trkpt>
      <trkpt lat="45.62002" lon="2.29617">
        <ele>782</ele>
        <time>2019-05-18T17:01:12Z</time>
      </trkpt>
      <trkpt lat="45.62004" lon="2.2962">
        <ele>782</ele>
        <time>2019-05-18T17:01:13Z</time>
      </trkpt>
      <trkpt lat="45.62005" lon="2.29624">
        <ele>782</ele>
        <time>2019-05-18T17:01:14Z</time>
      </trkpt>
      <trkpt lat="45.62006" lon="2.2963">
        <ele>782</ele>
        <time>2019-05-18T17:01:15Z</time>
      </trkpt>
      <trkpt lat="45.62007" lon="2.29636">
        <ele>781</ele>
        <time>2019-05-18T17:01:16Z</time>
      </trkpt>
      <trkpt lat="45.62007" lon="2.29641">
        <ele>781</ele>
        <time>2019-05-18T17:01:17Z</time>
      </trkpt>
      <trkpt lat="45.62008" lon="2.29647">
        <ele>781</ele>
        <time>2019-05-18T17:01:18Z</time>
      </trkpt>
      <trkpt lat="45.62008" lon="2.29655">
        <ele>781</ele>
        <time>2019-05-18T17:01:19Z</time>
      </trkpt>
      <trkpt lat="45.62007" lon="2.29661">
        <ele>780</ele>
        <time>2019-05-18T17:01:20Z</time>
      </trkpt>
      <trkpt lat="45.62007" lon="2.29668">
        <ele>780</ele>
        <time>2019-05-18T17:01:21Z</time>
      </trkpt>
      <trkpt lat="45.62007" lon="2.29677">
        <ele>779</ele>
        <time>2019-05-18T17:01:22Z</time>
      </trkpt>
      <trkpt lat="45.62008" lon="2.29687">
        <ele>779</ele>
        <time>2019-05-18T17:01:23Z</time>
      </trkpt>
      <trkpt lat="45.62009" lon="2.29697">
        <ele>778</ele>
        <time>2019-05-18T17:01:24Z</time>
      </trkpt>
      <trkpt lat="45.6201" lon="2.29707">
        <ele>777</ele>
        <time>2019-05-18T17:01:25Z</time>
      </trkpt>
      <trkpt lat="45.62013" lon="2.29717">
        <ele>776</ele>
        <time>2019-05-18T17:01:26Z</time>
      </trkpt>
      <trkpt lat="45.62017" lon="2.29725">
        <ele>776</ele>
        <time>2019-05-18T17:01:27Z</time>
      </trkpt>
      <trkpt lat="45.62022" lon="2.29732">
        <ele>776</ele>
        <time>2019-05-18T17:01:28Z</time>
      </trkpt>
      <trkpt lat="45.62027" lon="2.29736">
        <ele>775</ele>
        <time>2019-05-18T17:01:29Z</time>
      </trkpt>
      <trkpt lat="45.62033" lon="2.29737">
        <ele>775</ele>
        <time>2019-05-18T17:01:30Z</time>
      </trkpt>
      <trkpt lat="45.6204" lon="2.29737">
        <ele>774</ele>
        <time>2019-05-18T17:01:31Z</time>
      </trkpt>
      <trkpt lat="45.62047" lon="2.29736">
        <ele>774</ele>
        <time>2019-05-18T17:01:32Z</time>
      </trkpt>
      <trkpt lat="45.62055" lon="2.29736">
        <ele>773</ele>
        <time>2019-05-18T17:01:33Z</time>
      </trkpt>
      <trkpt lat="45.62062" lon="2.29737">
        <ele>773</ele>
        <time>2019-05-18T17:01:34Z</time>
      </trkpt>
      <trkpt lat="45.6207" lon="2.29741">
        <ele>772</ele>
        <time>2019-05-18T17:01:35Z</time>
      </trkpt>
      <trkpt lat="45.62078" lon="2.29745">
        <ele>772</ele>
        <time>2019-05-18T17:01:36Z</time>
      </trkpt>
      <trkpt lat="45.62085" lon="2.2975">
        <ele>772</ele>
        <time>2019-05-18T17:01:37Z</time>
      </trkpt>
      <trkpt lat="45.62093" lon="2.29755">
        <ele>771</ele>
        <time>2019-05-18T17:01:38Z</time>
      </trkpt>
      <trkpt lat="45.621" lon="2.29761">
        <ele>771</ele>
        <time>2019-05-18T17:01:39Z</time>
      </trkpt>
      <trkpt lat="45.62107" lon="2.29767">
        <ele>770</ele>
        <time>2019-05-18T17:01:40Z</time>
      </trkpt>
      <trkpt lat="45.62113" lon="2.29776">
        <ele>770</ele>
        <time>2019-05-18T17:01:41Z</time>
      </trkpt>
      <trkpt lat="45.62118" lon="2.29785">
        <ele>770</ele>
        <time>2019-05-18T17:01:42Z</time>
      </trkpt>
      <trkpt lat="45.62121" lon="2.29795">
        <ele>769</ele>
        <time>2019-05-18T17:01:43Z</time>
      </trkpt>
      <trkpt lat="45.62125" lon="2.29804">
        <ele>769</ele>
        <time>2019-05-18T17:01:44Z</time>
      </trkpt>
      <trkpt lat="45.62128" lon="2.29815">
        <ele>769</ele>
        <time>2019-05-18T17:01:45Z</time>
      </trkpt>
      <trkpt lat="45.62131" lon="2.29825">
        <ele>769</ele>
        <time>2019-05-18T17:01:46Z</time>
      </trkpt>
      <trkpt lat="45.62133" lon="2.29835">
        <ele>768</ele>
        <time>2019-05-18T17:01:47Z</time>
      </trkpt>
      <trkpt lat="45.62136" lon="2.29844">
        <ele>768</ele>
        <time>2019-05-18T17:01:48Z</time>
      </trkpt>
      <trkpt lat="45.62139" lon="2.29853">
        <ele>768</ele>
        <time>2019-05-18T17:01:49Z</time>
      </trkpt>
      <trkpt lat="45.62142" lon="2.29861">
        <ele>768</ele>
        <time>2019-05-18T17:01:50Z</time>
      </trkpt>
      <trkpt lat="45.62145" lon="2.29869">
        <ele>768</ele>
        <time>2019-05-18T17:01:51Z</time>
      </trkpt>
      <trkpt lat="45.62147" lon="2.29877">
        <ele>768</ele>
        <time>2019-05-18T17:01:52Z</time>
      </trkpt>
      <trkpt lat="45.6215" lon="2.29884">
        <ele>768</ele>
        <time>2019-05-18T17:01:53Z</time>
      </trkpt>
      <trkpt lat="45.62154" lon="2.29891">
        <ele>768</ele>
        <time>2019-05-18T17:01:54Z</time>
      </trkpt>
      <trkpt lat="45.62156" lon="2.29898">
        <ele>768</ele>
        <time>2019-05-18T17:01:55Z</time>
      </trkpt>
      <trkpt lat="45.62158" lon="2.29905">
        <ele>768</ele>
        <time>2019-05-18T17:01:56Z</time>
      </trkpt>
      <trkpt lat="45.6216" lon="2.29912">
        <ele>767</ele>
        <time>2019-05-18T17:01:57Z</time>
      </trkpt>
      <trkpt lat="45.62162" lon="2.2992">
        <ele>767</ele>
        <time>2019-05-18T17:01:58Z</time>
      </trkpt>
      <trkpt lat="45.62164" lon="2.29928">
        <ele>767</ele>
        <time>2019-05-18T17:01:59Z</time>
      </trkpt>
      <trkpt lat="45.62165" lon="2.29937">
        <ele>766</ele>
        <time>2019-05-18T17:02:00Z</time>
      </trkpt>
      <trkpt lat="45.62167" lon="2.29946">
        <ele>766</ele>
        <time>2019-05-18T17:02:01Z</time>
      </trkpt>
      <trkpt lat="45.62168" lon="2.29956">
        <ele>765</ele>
        <time>2019-05-18T17:02:02Z</time>
      </trkpt>
      <trkpt lat="45.6217" lon="2.29966">
        <ele>765</ele>
        <time>2019-05-18T17:02:03Z</time>
      </trkpt>
      <trkpt lat="45.62172" lon="2.29977">
        <ele>764</ele>
        <time>2019-05-18T17:02:04Z</time>
      </trkpt>
      <trkpt lat="45.62174" lon="2.29987">
        <ele>763</ele>
        <time>2019-05-18T17:02:05Z</time>
      </trkpt>
      <trkpt lat="45.62177" lon="2.29998">
        <ele>763</ele>
        <time>2019-05-18T17:02:06Z</time>
      </trkpt>
      <trkpt lat="45.62181" lon="2.30009">
        <ele>762</ele>
        <time>2019-05-18T17:02:07Z</time>
      </trkpt>
      <trkpt lat="45.62185" lon="2.3002">
        <ele>761</ele>
        <time>2019-05-18T17:02:08Z</time>
      </trkpt>
      <trkpt lat="45.62189" lon="2.30031">
        <ele>761</ele>
        <time>2019-05-18T17:02:09Z</time>
      </trkpt>
      <trkpt lat="45.62193" lon="2.30043">
        <ele>760</ele>
        <time>2019-05-18T17:02:10Z</time>
      </trkpt>
      <trkpt lat="45.62198" lon="2.30055">
        <ele>759</ele>
        <time>2019-05-18T17:02:11Z</time>
      </trkpt>
      <trkpt lat="45.62203" lon="2.30066">
        <ele>758</ele>
        <time>2019-05-18T17:02:12Z</time>
      </trkpt>
      <trkpt lat="45.62209" lon="2.30078">
        <ele>757</ele>
        <time>2019-05-18T17:02:13Z</time>
      </trkpt>
      <trkpt lat="45.62215" lon="2.30091">
        <ele>756</ele>
        <time>2019-05-18T17:02:14Z</time>
      </trkpt>
      <trkpt lat="45.62221" lon="2.30103">
        <ele>755</ele>
        <time>2019-05-18T17:02:15Z</time>
      </trkpt>
      <trkpt lat="45.62227" lon="2.30116">
        <ele>754</ele>
        <time>2019-05-18T17:02:16Z</time>
      </trkpt>
      <trkpt lat="45.62234" lon="2.30129">
        <ele>753</ele>
        <time>2019-05-18T17:02:17Z</time>
      </trkpt>
      <trkpt lat="45.62241" lon="2.30141">
        <ele>751</ele>
        <time>2019-05-18T17:02:18Z</time>
      </trkpt>
      <trkpt lat="45.62248" lon="2.30153">
        <ele>751</ele>
        <time>2019-05-18T17:02:19Z</time>
      </trkpt>
      <trkpt lat="45.62256" lon="2.30163">
        <ele>750</ele>
        <time>2019-05-18T17:02:20Z</time>
      </trkpt>
      <trkpt lat="45.62264" lon="2.30172">
        <ele>750</ele>
        <time>2019-05-18T17:02:21Z</time>
      </trkpt>
      <trkpt lat="45.62271" lon="2.3018">
        <ele>750</ele>
        <time>2019-05-18T17:02:22Z</time>
      </trkpt>
      <trkpt lat="45.62278" lon="2.30187">
        <ele>750</ele>
        <time>2019-05-18T17:02:23Z</time>
      </trkpt>
      <trkpt lat="45.62284" lon="2.30193">
        <ele>750</ele>
        <time>2019-05-18T17:02:24Z</time>
      </trkpt>
      <trkpt lat="45.62287" lon="2.30198">
        <ele>750</ele>
        <time>2019-05-18T17:02:25Z</time>
      </trkpt>
      <trkpt lat="45.62289" lon="2.30203">
        <ele>750</ele>
        <time>2019-05-18T17:02:26Z</time>
      </trkpt>
      <trkpt lat="45.62289" lon="2.30208">
        <ele>750</ele>
        <time>2019-05-18T17:02:27Z</time>
      </trkpt>
      <trkpt lat="45.62287" lon="2.30213">
        <ele>750</ele>
        <time>2019-05-18T17:02:28Z</time>
      </trkpt>
      <trkpt lat="45.62285" lon="2.30218">
        <ele>750</ele>
        <time>2019-05-18T17:02:29Z</time>
      </trkpt>
      <trkpt lat="45.62284" lon="2.30222">
        <ele>750</ele>
        <time>2019-05-18T17:02:30Z</time>
      </trkpt>
      <trkpt lat="45.62283" lon="2.30227">
        <ele>750</ele>
        <time>2019-05-18T17:02:31Z</time>
      </trkpt>
      <trkpt lat="45.62282" lon="2.30231">
        <ele>750</ele>
        <time>2019-05-18T17:02:32Z</time>
      </trkpt>
      <trkpt lat="45.62281" lon="2.30235">
        <ele>750</ele>
        <time>2019-05-18T17:02:33Z</time>
      </trkpt>
      <trkpt lat="45.6228" lon="2.30238">
        <ele>750</ele>
        <time>2019-05-18T17:02:34Z</time>
      </trkpt>
      <trkpt lat="45.62279" lon="2.30241">
        <ele>750</ele>
        <time>2019-05-18T17:02:35Z</time>
      </trkpt>
      <trkpt lat="45.62279" lon="2.30244">
        <ele>750</ele>
        <time>2019-05-18T17:02:36Z</time>
      </trkpt>
      <trkpt lat="45.62279" lon="2.30247">
        <ele>750</ele>
        <time>2019-05-18T17:02:37Z</time>
      </trkpt>
      <trkpt lat="45.62278" lon="2.30249">
        <ele>751</ele>
        <time>2019-05-18T17:02:38Z</time>
      </trkpt>
      <trkpt lat="45.62277" lon="2.3025">
        <ele>751</ele>
        <time>2019-05-18T17:02:39Z</time>
      </trkpt>
      <trkpt lat="45.62276" lon="2.30252">
        <ele>751</ele>
        <time>2019-05-18T17:02:40Z</time>
      </trkpt>
      <trkpt lat="45.62275" lon="2.30255">
        <ele>751</ele>
        <time>2019-05-18T17:02:41Z</time>
      </trkpt>
      <trkpt lat="45.62274" lon="2.30256">
        <ele>751</ele>
        <time>2019-05-18T17:02:42Z</time>
      </trkpt>
      <trkpt lat="45.62273" lon="2.30258">
        <ele>751</ele>
        <time>2019-05-18T17:02:43Z</time>
      </trkpt>
      <trkpt lat="45.62272" lon="2.3026">
        <ele>751</ele>
        <time>2019-05-18T17:02:44Z</time>
      </trkpt>
      <trkpt lat="45.62271" lon="2.30261">
        <ele>752</ele>
        <time>2019-05-18T17:02:45Z</time>
      </trkpt>
      <trkpt lat="45.6227" lon="2.30263">
        <ele>752</ele>
        <time>2019-05-18T17:02:46Z</time>
      </trkpt>
      <trkpt lat="45.62269" lon="2.30265">
        <ele>752</ele>
        <time>2019-05-18T17:02:47Z</time>
      </trkpt>
      <trkpt lat="45.62267" lon="2.30266">
        <ele>753</ele>
        <time>2019-05-18T17:02:48Z</time>
      </trkpt>
      <trkpt lat="45.62266" lon="2.30267">
        <ele>753</ele>
        <time>2019-05-18T17:02:49Z</time>
      </trkpt>
      <trkpt lat="45.62265" lon="2.30268">
        <ele>753</ele>
        <time>2019-05-18T17:02:50Z</time>
      </trkpt>
      <trkpt lat="45.62264" lon="2.3027">
        <ele>753</ele>
        <time>2019-05-18T17:02:51Z</time>
      </trkpt>
      <trkpt lat="45.62263" lon="2.30271">
        <ele>754</ele>
        <time>2019-05-18T17:02:52Z</time>
      </trkpt>
      <trkpt lat="45.62261" lon="2.30272">
        <ele>754</ele>
        <time>2019-05-18T17:02:53Z</time>
      </trkpt>
      <trkpt lat="45.6226" lon="2.30273">
        <ele>754</ele>
        <time>2019-05-18T17:02:54Z</time>
      </trkpt>
      <trkpt lat="45.62259" lon="2.30275">
        <ele>754</ele>
        <time>2019-05-18T17:02:55Z</time>
      </trkpt>
      <trkpt lat="45.62258" lon="2.30275">
        <ele>755</ele>
        <time>2019-05-18T17:02:56Z</time>
      </trkpt>
      <trkpt lat="45.62256" lon="2.30277">
        <ele>755</ele>
        <time>2019-05-18T17:02:57Z</time>
      </trkpt>
      <trkpt lat="45.62255" lon="2.30278">
        <ele>755</ele>
        <time>2019-05-18T17:02:58Z</time>
      </trkpt>
      <trkpt lat="45.62254" lon="2.3028">
        <ele>755</ele>
        <time>2019-05-18T17:02:59Z</time>
      </trkpt>
      <trkpt lat="45.62252" lon="2.30281">
        <ele>756</ele>
        <time>2019-05-18T17:03:00Z</time>
      </trkpt>
      <trkpt lat="45.62251" lon="2.30283">
        <ele>756</ele>
        <time>2019-05-18T17:03:01Z</time>
      </trkpt>
      <trkpt lat="45.62249" lon="2.30284">
        <ele>756</ele>
        <time>2019-05-18T17:03:02Z</time>
      </trkpt>
      <trkpt lat="45.62248" lon="2.30285">
        <ele>756</ele>
        <time>2019-05-18T17:03:03Z</time>
      </trkpt>
      <trkpt lat="45.62247" lon="2.30287">
        <ele>756</ele>
        <time>2019-05-18T17:03:04Z</time>
      </trkpt>
      <trkpt lat="45.62245" lon="2.30289">
        <ele>756</ele>
        <time>2019-05-18T17:03:05Z</time>
      </trkpt>
      <trkpt lat="45.62244" lon="2.30291">
        <ele>757</ele>
        <time>2019-05-18T17:03:06Z</time>
      </trkpt>
      <trkpt lat="45.62242" lon="2.30292">
        <ele>757</ele>
        <time>2019-05-18T17:03:07Z</time>
      </trkpt>
      <trkpt lat="45.62241" lon="2.30293">
        <ele>757</ele>
        <time>2019-05-18T17:03:08Z</time>
      </trkpt>
      <trkpt lat="45.62239" lon="2.30294">
        <ele>757</ele>
        <time>2019-05-18T17:03:09Z</time>
      </trkpt>
      <trkpt lat="45.62238" lon="2.30295">
        <ele>757</ele>
        <time>2019-05-18T17:03:10Z</time>
      </trkpt>
      <trkpt lat="45.62237" lon="2.30297">
        <ele>757</ele>
        <time>2019-05-18T17:03:11Z</time>
      </trkpt>
      <trkpt lat="45.62235" lon="2.30299">
        <ele>757</ele>
        <time>2019-05-18T17:03:12Z</time>
      </trkpt>
      <trkpt lat="45.62234" lon="2.30301">
        <ele>758</ele>
        <time>2019-05-18T17:03:13Z</time>
      </trkpt>
      <trkpt lat="45.62233" lon="2.30303">
        <ele>758</ele>
        <time>2019-05-18T17:03:14Z</time>
      </trkpt>
      <trkpt lat="45.62232" lon="2.30304">
        <ele>758</ele>
        <time>2019-05-18T17:03:15Z</time>
      </trkpt>
      <trkpt lat="45.6223" lon="2.30306">
        <ele>758</ele>
        <time>2019-05-18T17:03:16Z</time>
      </trkpt>
      <trkpt lat="45.62229" lon="2.30308">
        <ele>758</ele>
        <time>2019-05-18T17:03:17Z</time>
      </trkpt>
      <trkpt lat="45.62228" lon="2.3031">
        <ele>758</ele>
        <time>2019-05-18T17:03:18Z</time>
      </trkpt>
      <trkpt lat="45.62227" lon="2.30312">
        <ele>758</ele>
        <time>2019-05-18T17:03:19Z</time>
      </trkpt>
      <trkpt lat="45.62226" lon="2.30314">
        <ele>758</ele>
        <time>2019-05-18T17:03:20Z</time>
      </trkpt>
      <trkpt lat="45.62225" lon="2.30316">
        <ele>759</ele>
        <time>2019-05-18T17:03:21Z</time>
      </trkpt>
      <trkpt lat="45.62224" lon="2.30318">
        <ele>759</ele>
        <time>2019-05-18T17:03:22Z</time>
      </trkpt>
      <trkpt lat="45.62223" lon="2.3032">
        <ele>759</ele>
        <time>2019-05-18T17:03:23Z</time>
      </trkpt>
      <trkpt lat="45.62222" lon="2.30322">
        <ele>759</ele>
        <time>2019-05-18T17:03:24Z</time>
      </trkpt>
      <trkpt lat="45.62221" lon="2.30324">
        <ele>759</ele>
        <time>2019-05-18T17:03:25Z</time>
      </trkpt>
      <trkpt lat="45.62221" lon="2.30327">
        <ele>759</ele>
        <time>2019-05-18T17:03:26Z</time>
      </trkpt>
      <trkpt lat="45.6222" lon="2.30329">
        <ele>759</ele>
        <time>2019-05-18T17:03:27Z</time>
      </trkpt>
      <trkpt lat="45.62219" lon="2.30332">
        <ele>759</ele>
        <time>2019-05-18T17:03:28Z</time>
      </trkpt>
      <trkpt lat="45.62219" lon="2.30334">
        <ele>759</ele>
        <time>2019-05-18T17:03:29Z</time>
      </trkpt>
      <trkpt lat="45.62218" lon="2.30336">
        <ele>759</ele>
        <time>2019-05-18T17:03:30Z</time>
      </trkpt>
      <trkpt lat="45.62218" lon="2.30339">
        <ele>760</ele>
        <time>2019-05-18T17:03:31Z</time>
      </trkpt>
      <trkpt lat="45.62217" lon="2.30341">
        <ele>760</ele>
        <time>2019-05-18T17:03:32Z</time>
      </trkpt>
      <trkpt lat="45.62217" lon="2.30343">
        <ele>760</ele>
        <time>2019-05-18T17:03:33Z</time>
      </trkpt>
      <trkpt lat="45.62217" lon="2.30346">
        <ele>760</ele>
        <time>2019-05-18T17:03:34Z</time>
      </trkpt>
      <trkpt lat="45.62216" lon="2.30348">
        <ele>760</ele>
        <time>2019-05-18T17:03:35Z</time>
      </trkpt>
      <trkpt lat="45.62216" lon="2.30351">
        <ele>760</ele>
        <time>2019-05-18T17:03:36Z</time>
      </trkpt>
      <trkpt lat="45.62216" lon="2.30353">
        <ele>760</ele>
        <time>2019-05-18T17:03:37Z</time>
      </trkpt>
      <trkpt lat="45.62216" lon="2.30356">
        <ele>760</ele>
        <time>2019-05-18T17:03:38Z</time>
      </trkpt>
      <trkpt lat="45.62215" lon="2.30359">
        <ele>760</ele>
        <time>2019-05-18T17:03:39Z</time>
      </trkpt>
      <trkpt lat="45.62215" lon="2.30362">
        <ele>760</ele>
        <time>2019-05-18T17:03:40Z</time>
      </trkpt>
      <trkpt lat="45.62215" lon="2.30365">
        <ele>760</ele>
        <time>2019-05-18T17:03:41Z</time>
      </trkpt>
      <trkpt lat="45.62214" lon="2.30368">
        <ele>760</ele>
        <time>2019-05-18T17:03:42Z</time>
      </trkpt>
      <trkpt lat="45.62214" lon="2.30372">
        <ele>760</ele>
        <time>2019-05-18T17:03:43Z</time>
      </trkpt>
      <trkpt lat="45.62213" lon="2.30375">
        <ele>760</ele>
        <time>2019-05-18T17:03:44Z</time>
      </trkpt>
      <trkpt lat="45.62212" lon="2.3038">
        <ele>760</ele>
        <time>2019-05-18T17:03:45Z</time>
      </trkpt>
      <trkpt lat="45.62211" lon="2.30385">
        <ele>760</ele>
        <time>2019-05-18T17:03:46Z</time>
      </trkpt>
      <trkpt lat="45.62211" lon="2.3039">
        <ele>759</ele>
        <time>2019-05-18T17:03:47Z</time>
      </trkpt>
      <trkpt lat="45.62211" lon="2.30396">
        <ele>759</ele>
        <time>2019-05-18T17:03:48Z</time>
      </trkpt>
      <trkpt lat="45.62211" lon="2.30403">
        <ele>758</ele>
        <time>2019-05-18T17:03:49Z</time>
      </trkpt>
      <trkpt lat="45.62212" lon="2.30411">
        <ele>758</ele>
        <time>2019-05-18T17:03:50Z</time>
      </trkpt>
      <trkpt lat="45.62214" lon="2.30419">
        <ele>757</ele>
        <time>2019-05-18T17:03:51Z</time>
      </trkpt>
      <trkpt lat="45.62218" lon="2.30426">
        <ele>757</ele>
        <time>2019-05-18T17:03:52Z</time>
      </trkpt>
      <trkpt lat="45.62222" lon="2.30432">
        <ele>757</ele>
        <time>2019-05-18T17:03:53Z</time>
      </trkpt>
      <trkpt lat="45.62226" lon="2.30438">
        <ele>756</ele>
        <time>2019-05-18T17:03:54Z</time>
      </trkpt>
      <trkpt lat="45.6223" lon="2.30443">
        <ele>756</ele>
        <time>2019-05-18T17:03:55Z</time>
      </trkpt>
      <trkpt lat="45.62234" lon="2.30449">
        <ele>756</ele>
        <time>2019-05-18T17:03:56Z</time>
      </trkpt>
      <trkpt lat="45.62238" lon="2.30454">
        <ele>756</ele>
        <time>2019-05-18T17:03:57Z</time>
      </trkpt>
      <trkpt lat="45.62242" lon="2.30459">
        <ele>756</ele>
        <time>2019-05-18T17:03:58Z</time>
      </trkpt>
      <trkpt lat="45.62246" lon="2.30465">
        <ele>756</ele>
        <time>2019-05-18T17:03:59Z</time>
      </trkpt>
      <trkpt lat="45.62249" lon="2.30471">
        <ele>756</ele>
        <time>2019-05-18T17:04:00Z</time>
      </trkpt>
      <trkpt lat="45.62253" lon="2.30476">
        <ele>755</ele>
        <time>2019-05-18T17:04:01Z</time>
      </trkpt>
      <trkpt lat="45.62256" lon="2.30481">
        <ele>755</ele>
        <time>2019-05-18T17:04:02Z</time>
      </trkpt>
      <trkpt lat="45.62259" lon="2.30486">
        <ele>755</ele>
        <time>2019-05-18T17:04:03Z</time>
      </trkpt>
      <trkpt lat="45.62262" lon="2.30491">
        <ele>755</ele>
        <time>2019-05-18T17:04:04Z</time>
      </trkpt>
      <trkpt lat="45.62266" lon="2.30496">
        <ele>755</ele>
        <time>2019-05-18T17:04:05Z</time>
      </trkpt>
      <trkpt lat="45.62268" lon="2.30501">
        <ele>755</ele>
        <time>2019-05-18T17:04:06Z</time>
      </trkpt>
      <trkpt lat="45.62271" lon="2.30507">
        <ele>755</ele>
        <time>2019-05-18T17:04:07Z</time>
      </trkpt>
      <trkpt lat="45.62274" lon="2.30512">
        <ele>755</ele>
        <time>2019-05-18T17:04:08Z</time>
      </trkpt>
      <trkpt lat="45.62276" lon="2.30517">
        <ele>755</ele>
        <time>2019-05-18T17:04:09Z</time>
      </trkpt>
      <trkpt lat="45.62279" lon="2.30521">
        <ele>755</ele>
        <time>2019-05-18T17:04:10Z</time>
      </trkpt>
      <trkpt lat="45.62282" lon="2.30526">
        <ele>755</ele>
        <time>2019-05-18T17:04:11Z</time>
      </trkpt>
      <trkpt lat="45.62284" lon="2.30532">
        <ele>754</ele>
        <time>2019-05-18T17:04:12Z</time>
      </trkpt>
      <trkpt lat="45.62287" lon="2.30537">
        <ele>754</ele>
        <time>2019-05-18T17:04:13Z</time>
      </trkpt>
      <trkpt lat="45.62289" lon="2.30541">
        <ele>754</ele>
        <time>2019-05-18T17:04:14Z</time>
      </trkpt>
      <trkpt lat="45.62292" lon="2.30546">
        <ele>755</ele>
        <time>2019-05-18T17:04:15Z</time>
      </trkpt>
      <trkpt lat="45.62295" lon="2.30551">
        <ele>755</ele>
        <time>2019-05-18T17:04:16Z</time>
      </trkpt>
      <trkpt lat="45.62297" lon="2.30556">
        <ele>754</ele>
        <time>2019-05-18T17:04:17Z</time>
      </trkpt>
      <trkpt lat="45.623" lon="2.3056">
        <ele>754</ele>
        <time>2019-05-18T17:04:18Z</time>
      </trkpt>
      <trkpt lat="45.62303" lon="2.30564">
        <ele>754</ele>
        <time>2019-05-18T17:04:19Z</time>
      </trkpt>
      <trkpt lat="45.62307" lon="2.30566">
        <ele>754</ele>
        <time>2019-05-18T17:04:20Z</time>
      </trkpt>
      <trkpt lat="45.62311" lon="2.30569">
        <ele>754</ele>
        <time>2019-05-18T17:04:21Z</time>
      </trkpt>
      <trkpt lat="45.62316" lon="2.30571">
        <ele>754</ele>
        <time>2019-05-18T17:04:22Z</time>
      </trkpt>
      <trkpt lat="45.6232" lon="2.30572">
        <ele>754</ele>
        <time>2019-05-18T17:04:23Z</time>
      </trkpt>
      <trkpt lat="45.62325" lon="2.30572">
        <ele>754</ele>
        <time>2019-05-18T17:04:24Z</time>
      </trkpt>
      <trkpt lat="45.62329" lon="2.30573">
        <ele>754</ele>
        <time>2019-05-18T17:04:25Z</time>
      </trkpt>
      <trkpt lat="45.62334" lon="2.30573">
        <ele>754</ele>
        <time>2019-05-18T17:04:26Z</time>
      </trkpt>
      <trkpt lat="45.62338" lon="2.30574">
        <ele>754</ele>
        <time>2019-05-18T17:04:27Z</time>
      </trkpt>
      <trkpt lat="45.62343" lon="2.30574">
        <ele>754</ele>
        <time>2019-05-18T17:04:28Z</time>
      </trkpt>
      <trkpt lat="45.62347" lon="2.30575">
        <ele>754</ele>
        <time>2019-05-18T17:04:29Z</time>
      </trkpt>
      <trkpt lat="45.62352" lon="2.30577">
        <ele>754</ele>
        <time>2019-05-18T17:04:30Z</time>
      </trkpt>
      <trkpt lat="45.62355" lon="2.30579">
        <ele>754</ele>
        <time>2019-05-18T17:04:31Z</time>
      </trkpt>
      <trkpt lat="45.62358" lon="2.30584">
        <ele>754</ele>
        <time>2019-05-18T17:04:32Z</time>
      </trkpt>
      <trkpt lat="45.6236" lon="2.30589">
        <ele>753</ele>
        <time>2019-05-18T17:04:33Z</time>
      </trkpt>
      <trkpt lat="45.62362" lon="2.30595">
        <ele>753</ele>
        <time>2019-05-18T17:04:34Z</time>
      </trkpt>
      <trkpt lat="45.62364" lon="2.30601">
        <ele>753</ele>
        <time>2019-05-18T17:04:35Z</time>
      </trkpt>
      <trkpt lat="45.62366" lon="2.30606">
        <ele>753</ele>
        <time>2019-05-18T17:04:36Z</time>
      </trkpt>
      <trkpt lat="45.62368" lon="2.3061">
        <ele>753</ele>
        <time>2019-05-18T17:04:37Z</time>
      </trkpt>
      <trkpt lat="45.6237" lon="2.30615">
        <ele>753</ele>
        <time>2019-05-18T17:04:38Z</time>
      </trkpt>
      <trkpt lat="45.62372" lon="2.3062">
        <ele>754</ele>
        <time>2019-05-18T17:04:39Z</time>
      </trkpt>
      <trkpt lat="45.62374" lon="2.30624">
        <ele>754</ele>
        <time>2019-05-18T17:04:40Z</time>
      </trkpt>
      <trkpt lat="45.62376" lon="2.30628">
        <ele>754</ele>
        <time>2019-05-18T17:04:41Z</time>
      </trkpt>
      <trkpt lat="45.62377" lon="2.30632">
        <ele>754</ele>
        <time>2019-05-18T17:04:42Z</time>
      </trkpt>
      <trkpt lat="45.62378" lon="2.30636">
        <ele>754</ele>
        <time>2019-05-18T17:04:43Z</time>
      </trkpt>
      <trkpt lat="45.6238" lon="2.30639">
        <ele>754</ele>
        <time>2019-05-18T17:04:44Z</time>
      </trkpt>
      <trkpt lat="45.62382" lon="2.30643">
        <ele>754</ele>
        <time>2019-05-18T17:04:45Z</time>
      </trkpt>
      <trkpt lat="45.62384" lon="2.30646">
        <ele>754</ele>
        <time>2019-05-18T17:04:46Z</time>
      </trkpt>
      <trkpt lat="45.62386" lon="2.30648">
        <ele>754</ele>
        <time>2019-05-18T17:04:47Z</time>
      </trkpt>
      <trkpt lat="45.62389" lon="2.3065">
        <ele>754</ele>
        <time>2019-05-18T17:04:48Z</time>
      </trkpt>
      <trkpt lat="45.62391" lon="2.30651">
        <ele>754</ele>
        <time>2019-05-18T17:04:49Z</time>
      </trkpt>
      <trkpt lat="45.62393" lon="2.30653">
        <ele>755</ele>
        <time>2019-05-18T17:04:50Z</time>
      </trkpt>
      <trkpt lat="45.62395" lon="2.30654">
        <ele>755</ele>
        <time>2019-05-18T17:04:51Z</time>
      </trkpt>
      <trkpt lat="45.62397" lon="2.30656">
        <ele>755</ele>
        <time>2019-05-18T17:04:52Z</time>
      </trkpt>
      <trkpt lat="45.62399" lon="2.30659">
        <ele>755</ele>
        <time>2019-05-18T17:04:53Z</time>
      </trkpt>
      <trkpt lat="45.624" lon="2.30662">
        <ele>755</ele>
        <time>2019-05-18T17:04:54Z</time>
      </trkpt>
      <trkpt lat="45.62402" lon="2.30665">
        <ele>755</ele>
        <time>2019-05-18T17:04:55Z</time>
      </trkpt>
      <trkpt lat="45.62404" lon="2.30668">
        <ele>756</ele>
        <time>2019-05-18T17:04:56Z</time>
      </trkpt>
      <trkpt lat="45.62405" lon="2.3067">
        <ele>756</ele>
        <time>2019-05-18T17:04:57Z</time>
      </trkpt>
      <trkpt lat="45.62407" lon="2.30673">
        <ele>756</ele>
        <time>2019-05-18T17:04:58Z</time>
      </trkpt>
      <trkpt lat="45.62407" lon="2.30676">
        <ele>756</ele>
        <time>2019-05-18T17:04:59Z</time>
      </trkpt>
      <trkpt lat="45.62409" lon="2.30678">
        <ele>756</ele>
        <time>2019-05-18T17:05:00Z</time>
      </trkpt>
      <trkpt lat="45.6241" lon="2.30681">
        <ele>756</ele>
        <time>2019-05-18T17:05:01Z</time>
      </trkpt>
      <trkpt lat="45.62412" lon="2.30684">
        <ele>756</ele>
        <time>2019-05-18T17:05:02Z</time>
      </trkpt>
      <trkpt lat="45.62414" lon="2.30686">
        <ele>756</ele>
        <time>2019-05-18T17:05:03Z</time>
      </trkpt>
      <trkpt lat="45.62415" lon="2.30689">
        <ele>757</ele>
        <time>2019-05-18T17:05:04Z</time>
      </trkpt>
      <trkpt lat="45.62416" lon="2.30692">
        <ele>757</ele>
        <time>2019-05-18T17:05:05Z</time>
      </trkpt>
      <trkpt lat="45.62417" lon="2.30696">
        <ele>757</ele>
        <time>2019-05-18T17:05:06Z</time>
      </trkpt>
      <trkpt lat="45.62418" lon="2.30699">
        <ele>757</ele>
        <time>2019-05-18T17:05:07Z</time>
      </trkpt>
      <trkpt lat="45.6242" lon="2.30702">
        <ele>757</ele>
        <time>2019-05-18T17:05:08Z</time>
      </trkpt>
      <trkpt lat="45.6242" lon="2.30705">
        <ele>757</ele>
        <time>2019-05-18T17:05:09Z</time>
      </trkpt>
      <trkpt lat="45.62421" lon="2.30708">
        <ele>757</ele>
        <time>2019-05-18T17:05:10Z</time>
      </trkpt>
      <trkpt lat="45.62422" lon="2.3071">
        <ele>758</ele>
        <time>2019-05-18T17:05:12Z</time>
      </trkpt>
      <trkpt lat="45.62424" lon="2.30717">
        <ele>758</ele>
        <time>2019-05-18T17:05:13Z</time>
      </trkpt>
      <trkpt lat="45.62425" lon="2.3072">
        <ele>758</ele>
        <time>2019-05-18T17:05:14Z</time>
      </trkpt>
      <trkpt lat="45.62426" lon="2.30723">
        <ele>758</ele>
        <time>2019-05-18T17:05:15Z</time>
      </trkpt>
      <trkpt lat="45.62426" lon="2.30725">
        <ele>759</ele>
        <time>2019-05-18T17:05:16Z</time>
      </trkpt>
      <trkpt lat="45.62426" lon="2.30728">
        <ele>759</ele>
        <time>2019-05-18T17:05:17Z</time>
      </trkpt>
      <trkpt lat="45.62427" lon="2.30732">
        <ele>759</ele>
        <time>2019-05-18T17:05:18Z</time>
      </trkpt>
      <trkpt lat="45.62428" lon="2.30734">
        <ele>759</ele>
        <time>2019-05-18T17:05:19Z</time>
      </trkpt>
      <trkpt lat="45.62428" lon="2.30736">
        <ele>759</ele>
        <time>2019-05-18T17:05:20Z</time>
      </trkpt>
      <trkpt lat="45.62429" lon="2.30738">
        <ele>760</ele>
        <time>2019-05-18T17:05:21Z</time>
      </trkpt>
      <trkpt lat="45.6243" lon="2.3074">
        <ele>760</ele>
        <time>2019-05-18T17:05:22Z</time>
      </trkpt>
      <trkpt lat="45.62431" lon="2.30743">
        <ele>760</ele>
        <time>2019-05-18T17:05:23Z</time>
      </trkpt>
      <trkpt lat="45.62432" lon="2.30745">
        <ele>760</ele>
        <time>2019-05-18T17:05:24Z</time>
      </trkpt>
      <trkpt lat="45.62433" lon="2.30747">
        <ele>761</ele>
        <time>2019-05-18T17:05:25Z</time>
      </trkpt>
      <trkpt lat="45.62434" lon="2.3075">
        <ele>761</ele>
        <time>2019-05-18T17:05:26Z</time>
      </trkpt>
      <trkpt lat="45.62435" lon="2.30751">
        <ele>761</ele>
        <time>2019-05-18T17:05:27Z</time>
      </trkpt>
      <trkpt lat="45.62437" lon="2.30753">
        <ele>761</ele>
        <time>2019-05-18T17:05:28Z</time>
      </trkpt>
      <trkpt lat="45.62438" lon="2.30755">
        <ele>761</ele>
        <time>2019-05-18T17:05:29Z</time>
      </trkpt>
      <trkpt lat="45.62439" lon="2.30757">
        <ele>762</ele>
        <time>2019-05-18T17:05:30Z</time>
      </trkpt>
      <trkpt lat="45.62439" lon="2.30759">
        <ele>762</ele>
        <time>2019-05-18T17:05:31Z</time>
      </trkpt>
      <trkpt lat="45.6244" lon="2.30761">
        <ele>762</ele>
        <time>2019-05-18T17:05:32Z</time>
      </trkpt>
      <trkpt lat="45.6244" lon="2.30766">
        <ele>762</ele>
        <time>2019-05-18T17:05:33Z</time>
      </trkpt>
      <trkpt lat="45.62441" lon="2.30769">
        <ele>762</ele>
        <time>2019-05-18T17:05:34Z</time>
      </trkpt>
      <trkpt lat="45.62442" lon="2.30772">
        <ele>762</ele>
        <time>2019-05-18T17:05:35Z</time>
      </trkpt>
      <trkpt lat="45.62442" lon="2.30775">
        <ele>762</ele>
        <time>2019-05-18T17:05:36Z</time>
      </trkpt>
      <trkpt lat="45.62444" lon="2.30778">
        <ele>762</ele>
        <time>2019-05-18T17:05:37Z</time>
      </trkpt>
      <trkpt lat="45.62445" lon="2.30781">
        <ele>762</ele>
        <time>2019-05-18T17:05:38Z</time>
      </trkpt>
      <trkpt lat="45.62448" lon="2.30783">
        <ele>762</ele>
        <time>2019-05-18T17:05:39Z</time>
      </trkpt>
      <trkpt lat="45.62449" lon="2.30784">
        <ele>762</ele>
        <time>2019-05-18T17:05:40Z</time>
      </trkpt>
      <trkpt lat="45.62451" lon="2.30784">
        <ele>762</ele>
        <time>2019-05-18T17:05:41Z</time>
      </trkpt>
      <trkpt lat="45.62453" lon="2.30784">
        <ele>763</ele>
        <time>2019-05-18T17:05:42Z</time>
      </trkpt>
      <trkpt lat="45.62455" lon="2.30784">
        <ele>763</ele>
        <time>2019-05-18T17:05:43Z</time>
      </trkpt>
      <trkpt lat="45.62456" lon="2.30784">
        <ele>763</ele>
        <time>2019-05-18T17:05:44Z</time>
      </trkpt>
      <trkpt lat="45.62457" lon="2.30784">
        <ele>763</ele>
        <time>2019-05-18T17:05:46Z</time>
      </trkpt>
      <trkpt lat="45.62458" lon="2.30783">
        <ele>764</ele>
        <time>2019-05-18T17:05:47Z</time>
      </trkpt>
      <trkpt lat="45.62459" lon="2.30783">
        <ele>764</ele>
        <time>2019-05-18T17:05:48Z</time>
      </trkpt>
      <trkpt lat="45.6246" lon="2.30783">
        <ele>764</ele>
        <time>2019-05-18T17:05:49Z</time>
      </trkpt>
      <trkpt lat="45.62462" lon="2.30783">
        <ele>764</ele>
        <time>2019-05-18T17:05:50Z</time>
      </trkpt>
      <trkpt lat="45.62463" lon="2.30784">
        <ele>765</ele>
        <time>2019-05-18T17:05:51Z</time>
      </trkpt>
      <trkpt lat="45.62464" lon="2.30784">
        <ele>765</ele>
        <time>2019-05-18T17:05:52Z</time>
      </trkpt>
      <trkpt lat="45.62465" lon="2.30784">
        <ele>765</ele>
        <time>2019-05-18T17:05:53Z</time>
      </trkpt>
      <trkpt lat="45.62467" lon="2.30784">
        <ele>765</ele>
        <time>2019-05-18T17:05:54Z</time>
      </trkpt>
      <trkpt lat="45.62469" lon="2.30784">
        <ele>765</ele>
        <time>2019-05-18T17:05:55Z</time>
      </trkpt>
      <trkpt lat="45.62471" lon="2.30784">
        <ele>766</ele>
        <time>2019-05-18T17:05:56Z</time>
      </trkpt>
      <trkpt lat="45.62472" lon="2.30783">
        <ele>766</ele>
        <time>2019-05-18T17:05:57Z</time>
      </trkpt>
      <trkpt lat="45.62474" lon="2.30784">
        <ele>766</ele>
        <time>2019-05-18T17:05:58Z</time>
      </trkpt>
      <trkpt lat="45.62475" lon="2.30784">
        <ele>766</ele>
        <time>2019-05-18T17:05:59Z</time>
      </trkpt>
      <trkpt lat="45.62477" lon="2.30785">
        <ele>766</ele>
        <time>2019-05-18T17:06:00Z</time>
      </trkpt>
      <trkpt lat="45.62479" lon="2.30786">
        <ele>767</ele>
        <time>2019-05-18T17:06:01Z</time>
      </trkpt>
      <trkpt lat="45.6248" lon="2.30786">
        <ele>767</ele>
        <time>2019-05-18T17:06:02Z</time>
      </trkpt>
      <trkpt lat="45.62481" lon="2.30786">
        <ele>767</ele>
        <time>2019-05-18T17:06:03Z</time>
      </trkpt>
      <trkpt lat="45.62483" lon="2.30785">
        <ele>767</ele>
        <time>2019-05-18T17:06:04Z</time>
      </trkpt>
      <trkpt lat="45.62484" lon="2.30784">
        <ele>767</ele>
        <time>2019-05-18T17:06:05Z</time>
      </trkpt>
      <trkpt lat="45.62486" lon="2.30783">
        <ele>767</ele>
        <time>2019-05-18T17:06:06Z</time>
      </trkpt>
      <trkpt lat="45.62488" lon="2.30782">
        <ele>768</ele>
        <time>2019-05-18T17:06:07Z</time>
      </trkpt>
      <trkpt lat="45.6249" lon="2.30782">
        <ele>768</ele>
        <time>2019-05-18T17:06:08Z</time>
      </trkpt>
      <trkpt lat="45.62492" lon="2.30781">
        <ele>768</ele>
        <time>2019-05-18T17:06:09Z</time>
      </trkpt>
      <trkpt lat="45.62493" lon="2.30781">
        <ele>768</ele>
        <time>2019-05-18T17:06:10Z</time>
      </trkpt>
      <trkpt lat="45.62495" lon="2.3078">
        <ele>768</ele>
        <time>2019-05-18T17:06:11Z</time>
      </trkpt>
      <trkpt lat="45.62496" lon="2.30778">
        <ele>768</ele>
        <time>2019-05-18T17:06:12Z</time>
      </trkpt>
      <trkpt lat="45.62497" lon="2.30776">
        <ele>768</ele>
        <time>2019-05-18T17:06:13Z</time>
      </trkpt>
      <trkpt lat="45.62498" lon="2.30774">
        <ele>768</ele>
        <time>2019-05-18T17:06:14Z</time>
      </trkpt>
      <trkpt lat="45.62499" lon="2.30773">
        <ele>768</ele>
        <time>2019-05-18T17:06:15Z</time>
      </trkpt>
      <trkpt lat="45.625" lon="2.30771">
        <ele>768</ele>
        <time>2019-05-18T17:06:16Z</time>
      </trkpt>
      <trkpt lat="45.62502" lon="2.3077">
        <ele>768</ele>
        <time>2019-05-18T17:06:17Z</time>
      </trkpt>
      <trkpt lat="45.62503" lon="2.3077">
        <ele>768</ele>
        <time>2019-05-18T17:06:18Z</time>
      </trkpt>
      <trkpt lat="45.62504" lon="2.30771">
        <ele>768</ele>
        <time>2019-05-18T17:06:19Z</time>
      </trkpt>
      <trkpt lat="45.62504" lon="2.30771">
        <ele>768</ele>
        <time>2019-05-18T17:06:20Z</time>
      </trkpt>
      <trkpt lat="45.62504" lon="2.3077">
        <ele>768</ele>
        <time>2019-05-18T17:06:21Z</time>
      </trkpt>
      <trkpt lat="45.62504" lon="2.3077">
        <ele>765</ele>
        <time>2019-05-18T17:06:22Z</time>
      </trkpt>
      <trkpt lat="45.62504" lon="2.3077">
        <ele>769</ele>
        <time>2019-05-18T17:06:23Z</time>
      </trkpt>
      <trkpt lat="45.62504" lon="2.3077">
        <ele>769</ele>
        <time>2019-05-18T17:06:24Z</time>
      </trkpt>
      <trkpt lat="45.62504" lon="2.3077">
        <ele>768</ele>
        <time>2019-05-18T17:06:26Z</time>
      </trkpt>
      <trkpt lat="45.62521" lon="2.30746">
        <ele>769</ele>
        <time>2019-05-18T17:08:13Z</time>
      </trkpt>
      <trkpt lat="45.62524" lon="2.30744">
        <ele>769</ele>
        <time>2019-05-18T17:08:14Z</time>
      </trkpt>
      <trkpt lat="45.62529" lon="2.30744">
        <ele>769</ele>
        <time>2019-05-18T17:08:15Z</time>
      </trkpt>
      <trkpt lat="45.62532" lon="2.30744">
        <ele>769</ele>
        <time>2019-05-18T17:08:17Z</time>
      </trkpt>
      <trkpt lat="45.62535" lon="2.30744">
        <ele>769</ele>
        <time>2019-05-18T17:08:18Z</time>
      </trkpt>
      <trkpt lat="45.62539" lon="2.30743">
        <ele>769</ele>
        <time>2019-05-18T17:08:19Z</time>
      </trkpt>
      <trkpt lat="45.62543" lon="2.30742">
        <ele>769</ele>
        <time>2019-05-18T17:08:20Z</time>
      </trkpt>
      <trkpt lat="45.62547" lon="2.30741">
        <ele>768</ele>
        <time>2019-05-18T17:08:21Z</time>
      </trkpt>
      <trkpt lat="45.62552" lon="2.3074">
        <ele>768</ele>
        <time>2019-05-18T17:08:22Z</time>
      </trkpt>
      <trkpt lat="45.62557" lon="2.30739">
        <ele>768</ele>
        <time>2019-05-18T17:08:23Z</time>
      </trkpt>
      <trkpt lat="45.62562" lon="2.30739">
        <ele>767</ele>
        <time>2019-05-18T17:08:24Z</time>
      </trkpt>
      <trkpt lat="45.62567" lon="2.30738">
        <ele>767</ele>
        <time>2019-05-18T17:08:25Z</time>
      </trkpt>
      <trkpt lat="45.62572" lon="2.30738">
        <ele>767</ele>
        <time>2019-05-18T17:08:26Z</time>
      </trkpt>
      <trkpt lat="45.62577" lon="2.30737">
        <ele>767</ele>
        <time>2019-05-18T17:08:27Z</time>
      </trkpt>
      <trkpt lat="45.62582" lon="2.30737">
        <ele>767</ele>
        <time>2019-05-18T17:08:28Z</time>
      </trkpt>
      <trkpt lat="45.62592" lon="2.30738">
        <ele>766</ele>
        <time>2019-05-18T17:08:29Z</time>
      </trkpt>
      <trkpt lat="45.62596" lon="2.30739">
        <ele>766</ele>
        <time>2019-05-18T17:08:30Z</time>
      </trkpt>
      <trkpt lat="45.62601" lon="2.3074">
        <ele>766</ele>
        <time>2019-05-18T17:08:31Z</time>
      </trkpt>
      <trkpt lat="45.62606" lon="2.3074">
        <ele>766</ele>
        <time>2019-05-18T17:08:32Z</time>
      </trkpt>
      <trkpt lat="45.6261" lon="2.3074">
        <ele>766</ele>
        <time>2019-05-18T17:08:33Z</time>
      </trkpt>
      <trkpt lat="45.62614" lon="2.3074">
        <ele>766</ele>
        <time>2019-05-18T17:08:34Z</time>
      </trkpt>
      <trkpt lat="45.62618" lon="2.30739">
        <ele>766</ele>
        <time>2019-05-18T17:08:36Z</time>
      </trkpt>
      <trkpt lat="45.62622" lon="2.30738">
        <ele>766</ele>
        <time>2019-05-18T17:08:37Z</time>
      </trkpt>
      <trkpt lat="45.62626" lon="2.30737">
        <ele>766</ele>
        <time>2019-05-18T17:08:38Z</time>
      </trkpt>
      <trkpt lat="45.6263" lon="2.30736">
        <ele>766</ele>
        <time>2019-05-18T17:08:39Z</time>
      </trkpt>
      <trkpt lat="45.62634" lon="2.30734">
        <ele>766</ele>
        <time>2019-05-18T17:08:40Z</time>
      </trkpt>
      <trkpt lat="45.62637" lon="2.30732">
        <ele>766</ele>
        <time>2019-05-18T17:08:41Z</time>
      </trkpt>
      <trkpt lat="45.62641" lon="2.30729">
        <ele>766</ele>
        <time>2019-05-18T17:08:42Z</time>
      </trkpt>
      <trkpt lat="45.62644" lon="2.30727">
        <ele>766</ele>
        <time>2019-05-18T17:08:43Z</time>
      </trkpt>
      <trkpt lat="45.62648" lon="2.30725">
        <ele>766</ele>
        <time>2019-05-18T17:08:44Z</time>
      </trkpt>
      <trkpt lat="45.62651" lon="2.30723">
        <ele>767</ele>
        <time>2019-05-18T17:08:45Z</time>
      </trkpt>
      <trkpt lat="45.62654" lon="2.30721">
        <ele>767</ele>
        <time>2019-05-18T17:08:46Z</time>
      </trkpt>
      <trkpt lat="45.62656" lon="2.30719">
        <ele>767</ele>
        <time>2019-05-18T17:08:47Z</time>
      </trkpt>
      <trkpt lat="45.62659" lon="2.30717">
        <ele>767</ele>
        <time>2019-05-18T17:08:48Z</time>
      </trkpt>
      <trkpt lat="45.62661" lon="2.30715">
        <ele>768</ele>
        <time>2019-05-18T17:08:49Z</time>
      </trkpt>
      <trkpt lat="45.62664" lon="2.30713">
        <ele>768</ele>
        <time>2019-05-18T17:08:50Z</time>
      </trkpt>
      <trkpt lat="45.62669" lon="2.30709">
        <ele>768</ele>
        <time>2019-05-18T17:08:51Z</time>
      </trkpt>
      <trkpt lat="45.62671" lon="2.30708">
        <ele>768</ele>
        <time>2019-05-18T17:08:52Z</time>
      </trkpt>
      <trkpt lat="45.62673" lon="2.30707">
        <ele>768</ele>
        <time>2019-05-18T17:08:53Z</time>
      </trkpt>
      <trkpt lat="45.62676" lon="2.30707">
        <ele>768</ele>
        <time>2019-05-18T17:08:54Z</time>
      </trkpt>
      <trkpt lat="45.62679" lon="2.30706">
        <ele>768</ele>
        <time>2019-05-18T17:08:55Z</time>
      </trkpt>
      <trkpt lat="45.62682" lon="2.30706">
        <ele>768</ele>
        <time>2019-05-18T17:08:56Z</time>
      </trkpt>
      <trkpt lat="45.62685" lon="2.30706">
        <ele>768</ele>
        <time>2019-05-18T17:08:57Z</time>
      </trkpt>
      <trkpt lat="45.62688" lon="2.30705">
        <ele>768</ele>
        <time>2019-05-18T17:08:58Z</time>
      </trkpt>
      <trkpt lat="45.62692" lon="2.30702">
        <ele>768</ele>
        <time>2019-05-18T17:08:59Z</time>
      </trkpt>
      <trkpt lat="45.62696" lon="2.307">
        <ele>768</ele>
        <time>2019-05-18T17:09:00Z</time>
      </trkpt>
      <trkpt lat="45.62699" lon="2.30698">
        <ele>767</ele>
        <time>2019-05-18T17:09:01Z</time>
      </trkpt>
      <trkpt lat="45.62703" lon="2.30697">
        <ele>768</ele>
        <time>2019-05-18T17:09:02Z</time>
      </trkpt>
      <trkpt lat="45.62707" lon="2.30697">
        <ele>768</ele>
        <time>2019-05-18T17:09:03Z</time>
      </trkpt>
      <trkpt lat="45.62711" lon="2.30698">
        <ele>768</ele>
        <time>2019-05-18T17:09:04Z</time>
      </trkpt>
      <trkpt lat="45.62714" lon="2.30699">
        <ele>768</ele>
        <time>2019-05-18T17:09:05Z</time>
      </trkpt>
      <trkpt lat="45.62718" lon="2.30699">
        <ele>768</ele>
        <time>2019-05-18T17:09:06Z</time>
      </trkpt>
      <trkpt lat="45.62721" lon="2.307">
        <ele>768</ele>
        <time>2019-05-18T17:09:08Z</time>
      </trkpt>
      <trkpt lat="45.62724" lon="2.30701">
        <ele>768</ele>
        <time>2019-05-18T17:09:09Z</time>
      </trkpt>
      <trkpt lat="45.62727" lon="2.30701">
        <ele>768</ele>
        <time>2019-05-18T17:09:10Z</time>
      </trkpt>
      <trkpt lat="45.62731" lon="2.30702">
        <ele>768</ele>
        <time>2019-05-18T17:09:11Z</time>
      </trkpt>
      <trkpt lat="45.62734" lon="2.30703">
        <ele>768</ele>
        <time>2019-05-18T17:09:12Z</time>
      </trkpt>
      <trkpt lat="45.62737" lon="2.30703">
        <ele>768</ele>
        <time>2019-05-18T17:09:13Z</time>
      </trkpt>
      <trkpt lat="45.62743" lon="2.30705">
        <ele>768</ele>
        <time>2019-05-18T17:09:14Z</time>
      </trkpt>
      <trkpt lat="45.62746" lon="2.30706">
        <ele>768</ele>
        <time>2019-05-18T17:09:15Z</time>
      </trkpt>
      <trkpt lat="45.62749" lon="2.30707">
        <ele>769</ele>
        <time>2019-05-18T17:09:16Z</time>
      </trkpt>
      <trkpt lat="45.62752" lon="2.30708">
        <ele>769</ele>
        <time>2019-05-18T17:09:17Z</time>
      </trkpt>
      <trkpt lat="45.62755" lon="2.30708">
        <ele>769</ele>
        <time>2019-05-18T17:09:18Z</time>
      </trkpt>
      <trkpt lat="45.62758" lon="2.30709">
        <ele>769</ele>
        <time>2019-05-18T17:09:19Z</time>
      </trkpt>
      <trkpt lat="45.62761" lon="2.30709">
        <ele>769</ele>
        <time>2019-05-18T17:09:20Z</time>
      </trkpt>
      <trkpt lat="45.62764" lon="2.30709">
        <ele>769</ele>
        <time>2019-05-18T17:09:21Z</time>
      </trkpt>
      <trkpt lat="45.62766" lon="2.30709">
        <ele>769</ele>
        <time>2019-05-18T17:09:22Z</time>
      </trkpt>
      <trkpt lat="45.62769" lon="2.3071">
        <ele>769</ele>
        <time>2019-05-18T17:09:23Z</time>
      </trkpt>
      <trkpt lat="45.62772" lon="2.30711">
        <ele>769</ele>
        <time>2019-05-18T17:09:24Z</time>
      </trkpt>
      <trkpt lat="45.62776" lon="2.30712">
        <ele>769</ele>
        <time>2019-05-18T17:09:25Z</time>
      </trkpt>
      <trkpt lat="45.62779" lon="2.30712">
        <ele>769</ele>
        <time>2019-05-18T17:09:26Z</time>
      </trkpt>
      <trkpt lat="45.62783" lon="2.30713">
        <ele>770</ele>
        <time>2019-05-18T17:09:27Z</time>
      </trkpt>
      <trkpt lat="45.62787" lon="2.30713">
        <ele>770</ele>
        <time>2019-05-18T17:09:28Z</time>
      </trkpt>
      <trkpt lat="45.6279" lon="2.30714">
        <ele>770</ele>
        <time>2019-05-18T17:09:29Z</time>
      </trkpt>
      <trkpt lat="45.62794" lon="2.30714">
        <ele>770</ele>
        <time>2019-05-18T17:09:30Z</time>
      </trkpt>
      <trkpt lat="45.62797" lon="2.30713">
        <ele>770</ele>
        <time>2019-05-18T17:09:31Z</time>
      </trkpt>
      <trkpt lat="45.62801" lon="2.30713">
        <ele>770</ele>
        <time>2019-05-18T17:09:33Z</time>
      </trkpt>
      <trkpt lat="45.62803" lon="2.30713">
        <ele>770</ele>
        <time>2019-05-18T17:09:34Z</time>
      </trkpt>
      <trkpt lat="45.62807" lon="2.30713">
        <ele>770</ele>
        <time>2019-05-18T17:09:35Z</time>
      </trkpt>
      <trkpt lat="45.6281" lon="2.30712">
        <ele>770</ele>
        <time>2019-05-18T17:09:36Z</time>
      </trkpt>
      <trkpt lat="45.62813" lon="2.30711">
        <ele>770</ele>
        <time>2019-05-18T17:09:37Z</time>
      </trkpt>
      <trkpt lat="45.62817" lon="2.30711">
        <ele>770</ele>
        <time>2019-05-18T17:09:38Z</time>
      </trkpt>
      <trkpt lat="45.62819" lon="2.30711">
        <ele>770</ele>
        <time>2019-05-18T17:09:39Z</time>
      </trkpt>
      <trkpt lat="45.62822" lon="2.3071">
        <ele>771</ele>
        <time>2019-05-18T17:09:40Z</time>
      </trkpt>
      <trkpt lat="45.62826" lon="2.30709">
        <ele>771</ele>
        <time>2019-05-18T17:09:41Z</time>
      </trkpt>
      <trkpt lat="45.62829" lon="2.30708">
        <ele>771</ele>
        <time>2019-05-18T17:09:42Z</time>
      </trkpt>
      <trkpt lat="45.62832" lon="2.30707">
        <ele>771</ele>
        <time>2019-05-18T17:09:43Z</time>
      </trkpt>
      <trkpt lat="45.62835" lon="2.30707">
        <ele>771</ele>
        <time>2019-05-18T17:09:44Z</time>
      </trkpt>
      <trkpt lat="45.62838" lon="2.30706">
        <ele>771</ele>
        <time>2019-05-18T17:09:45Z</time>
      </trkpt>
      <trkpt lat="45.62841" lon="2.30706">
        <ele>771</ele>
        <time>2019-05-18T17:09:46Z</time>
      </trkpt>
      <trkpt lat="45.62844" lon="2.30704">
        <ele>771</ele>
        <time>2019-05-18T17:09:47Z</time>
      </trkpt>
      <trkpt lat="45.62847" lon="2.30703">
        <ele>771</ele>
        <time>2019-05-18T17:09:48Z</time>
      </trkpt>
      <trkpt lat="45.62854" lon="2.30702">
        <ele>772</ele>
        <time>2019-05-18T17:09:49Z</time>
      </trkpt>
      <trkpt lat="45.62856" lon="2.30701">
        <ele>772</ele>
        <time>2019-05-18T17:09:50Z</time>
      </trkpt>
      <trkpt lat="45.62859" lon="2.307">
        <ele>772</ele>
        <time>2019-05-18T17:09:51Z</time>
      </trkpt>
      <trkpt lat="45.62863" lon="2.30699">
        <ele>772</ele>
        <time>2019-05-18T17:09:52Z</time>
      </trkpt>
      <trkpt lat="45.62866" lon="2.30699">
        <ele>772</ele>
        <time>2019-05-18T17:09:53Z</time>
      </trkpt>
      <trkpt lat="45.62868" lon="2.30699">
        <ele>772</ele>
        <time>2019-05-18T17:09:55Z</time>
      </trkpt>
      <trkpt lat="45.62871" lon="2.30698">
        <ele>772</ele>
        <time>2019-05-18T17:09:56Z</time>
      </trkpt>
      <trkpt lat="45.62874" lon="2.30696">
        <ele>773</ele>
        <time>2019-05-18T17:09:57Z</time>
      </trkpt>
      <trkpt lat="45.62877" lon="2.30696">
        <ele>773</ele>
        <time>2019-05-18T17:09:58Z</time>
      </trkpt>
      <trkpt lat="45.6288" lon="2.30695">
        <ele>773</ele>
        <time>2019-05-18T17:09:59Z</time>
      </trkpt>
      <trkpt lat="45.62883" lon="2.30694">
        <ele>773</ele>
        <time>2019-05-18T17:10:00Z</time>
      </trkpt>
      <trkpt lat="45.62887" lon="2.30693">
        <ele>773</ele>
        <time>2019-05-18T17:10:01Z</time>
      </trkpt>
      <trkpt lat="45.6289" lon="2.30692">
        <ele>773</ele>
        <time>2019-05-18T17:10:02Z</time>
      </trkpt>
      <trkpt lat="45.62894" lon="2.30691">
        <ele>773</ele>
        <time>2019-05-18T17:10:03Z</time>
      </trkpt>
      <trkpt lat="45.62898" lon="2.30691">
        <ele>774</ele>
        <time>2019-05-18T17:10:04Z</time>
      </trkpt>
      <trkpt lat="45.62902" lon="2.30691">
        <ele>774</ele>
        <time>2019-05-18T17:10:05Z</time>
      </trkpt>
      <trkpt lat="45.62906" lon="2.3069">
        <ele>774</ele>
        <time>2019-05-18T17:10:06Z</time>
      </trkpt>
      <trkpt lat="45.6291" lon="2.30689">
        <ele>774</ele>
        <time>2019-05-18T17:10:07Z</time>
      </trkpt>
      <trkpt lat="45.62914" lon="2.30688">
        <ele>775</ele>
        <time>2019-05-18T17:10:08Z</time>
      </trkpt>
      <trkpt lat="45.62918" lon="2.30688">
        <ele>775</ele>
        <time>2019-05-18T17:10:09Z</time>
      </trkpt>
      <trkpt lat="45.62922" lon="2.30687">
        <ele>775</ele>
        <time>2019-05-18T17:10:10Z</time>
      </trkpt>
      <trkpt lat="45.62925" lon="2.30686">
        <ele>775</ele>
        <time>2019-05-18T17:10:11Z</time>
      </trkpt>
      <trkpt lat="45.62929" lon="2.30685">
        <ele>775</ele>
        <time>2019-05-18T17:10:12Z</time>
      </trkpt>
      <trkpt lat="45.62936" lon="2.30684">
        <ele>775</ele>
        <time>2019-05-18T17:10:13Z</time>
      </trkpt>
      <trkpt lat="45.6294" lon="2.30683">
        <ele>775</ele>
        <time>2019-05-18T17:10:14Z</time>
      </trkpt>
      <trkpt lat="45.62944" lon="2.30682">
        <ele>775</ele>
        <time>2019-05-18T17:10:15Z</time>
      </trkpt>
      <trkpt lat="45.62947" lon="2.30682">
        <ele>775</ele>
        <time>2019-05-18T17:10:16Z</time>
      </trkpt>
      <trkpt lat="45.62951" lon="2.30681">
        <ele>775</ele>
        <time>2019-05-18T17:10:17Z</time>
      </trkpt>
      <trkpt lat="45.62954" lon="2.3068">
        <ele>775</ele>
        <time>2019-05-18T17:10:18Z</time>
      </trkpt>
      <trkpt lat="45.62958" lon="2.30679">
        <ele>775</ele>
        <time>2019-05-18T17:10:19Z</time>
      </trkpt>
      <trkpt lat="45.62961" lon="2.30679">
        <ele>775</ele>
        <time>2019-05-18T17:10:20Z</time>
      </trkpt>
      <trkpt lat="45.62965" lon="2.30678">
        <ele>775</ele>
        <time>2019-05-18T17:10:21Z</time>
      </trkpt>
      <trkpt lat="45.62968" lon="2.30677">
        <ele>775</ele>
        <time>2019-05-18T17:10:23Z</time>
      </trkpt>
      <trkpt lat="45.62972" lon="2.30676">
        <ele>775</ele>
        <time>2019-05-18T17:10:24Z</time>
      </trkpt>
      <trkpt lat="45.62975" lon="2.30674">
        <ele>775</ele>
        <time>2019-05-18T17:10:25Z</time>
      </trkpt>
      <trkpt lat="45.62978" lon="2.30673">
        <ele>775</ele>
        <time>2019-05-18T17:10:26Z</time>
      </trkpt>
      <trkpt lat="45.62982" lon="2.30672">
        <ele>775</ele>
        <time>2019-05-18T17:10:27Z</time>
      </trkpt>
      <trkpt lat="45.62985" lon="2.3067">
        <ele>776</ele>
        <time>2019-05-18T17:10:28Z</time>
      </trkpt>
      <trkpt lat="45.62988" lon="2.30669">
        <ele>776</ele>
        <time>2019-05-18T17:10:29Z</time>
      </trkpt>
      <trkpt lat="45.62992" lon="2.30668">
        <ele>776</ele>
        <time>2019-05-18T17:10:30Z</time>
      </trkpt>
      <trkpt lat="45.62995" lon="2.30667">
        <ele>776</ele>
        <time>2019-05-18T17:10:31Z</time>
      </trkpt>
      <trkpt lat="45.62999" lon="2.30666">
        <ele>776</ele>
        <time>2019-05-18T17:10:32Z</time>
      </trkpt>
      <trkpt lat="45.63006" lon="2.30663">
        <ele>776</ele>
        <time>2019-05-18T17:10:33Z</time>
      </trkpt>
      <trkpt lat="45.63009" lon="2.30661">
        <ele>775</ele>
        <time>2019-05-18T17:10:34Z</time>
      </trkpt>
      <trkpt lat="45.63013" lon="2.3066">
        <ele>775</ele>
        <time>2019-05-18T17:10:35Z</time>
      </trkpt>
      <trkpt lat="45.63017" lon="2.30658">
        <ele>775</ele>
        <time>2019-05-18T17:10:36Z</time>
      </trkpt>
      <trkpt lat="45.63021" lon="2.30657">
        <ele>775</ele>
        <time>2019-05-18T17:10:37Z</time>
      </trkpt>
      <trkpt lat="45.63025" lon="2.30655">
        <ele>775</ele>
        <time>2019-05-18T17:10:38Z</time>
      </trkpt>
      <trkpt lat="45.63028" lon="2.30653">
        <ele>775</ele>
        <time>2019-05-18T17:10:39Z</time>
      </trkpt>
      <trkpt lat="45.63032" lon="2.30652">
        <ele>775</ele>
        <time>2019-05-18T17:10:40Z</time>
      </trkpt>
      <trkpt lat="45.63036" lon="2.30651">
        <ele>775</ele>
        <time>2019-05-18T17:10:41Z</time>
      </trkpt>
      <trkpt lat="45.63039" lon="2.30649">
        <ele>775</ele>
        <time>2019-05-18T17:10:42Z</time>
      </trkpt>
      <trkpt lat="45.63043" lon="2.30648">
        <ele>775</ele>
        <time>2019-05-18T17:10:43Z</time>
      </trkpt>
      <trkpt lat="45.63047" lon="2.30646">
        <ele>775</ele>
        <time>2019-05-18T17:10:44Z</time>
      </trkpt>
      <trkpt lat="45.63051" lon="2.30645">
        <ele>775</ele>
        <time>2019-05-18T17:10:45Z</time>
      </trkpt>
      <trkpt lat="45.63054" lon="2.30643">
        <ele>775</ele>
        <time>2019-05-18T17:10:46Z</time>
      </trkpt>
      <trkpt lat="45.63058" lon="2.30642">
        <ele>775</ele>
        <time>2019-05-18T17:10:47Z</time>
      </trkpt>
      <trkpt lat="45.63061" lon="2.3064">
        <ele>775</ele>
        <time>2019-05-18T17:10:48Z</time>
      </trkpt>
      <trkpt lat="45.63065" lon="2.30639">
        <ele>775</ele>
        <time>2019-05-18T17:10:49Z</time>
      </trkpt>
      <trkpt lat="45.63068" lon="2.30637">
        <ele>775</ele>
        <time>2019-05-18T17:10:50Z</time>
      </trkpt>
      <trkpt lat="45.63071" lon="2.30635">
        <ele>775</ele>
        <time>2019-05-18T17:10:51Z</time>
      </trkpt>
      <trkpt lat="45.63075" lon="2.30634">
        <ele>775</ele>
        <time>2019-05-18T17:10:52Z</time>
      </trkpt>
      <trkpt lat="45.63078" lon="2.30632">
        <ele>776</ele>
        <time>2019-05-18T17:10:54Z</time>
      </trkpt>
      <trkpt lat="45.63081" lon="2.30631">
        <ele>776</ele>
        <time>2019-05-18T17:10:55Z</time>
      </trkpt>
      <trkpt lat="45.63084" lon="2.30629">
        <ele>776</ele>
        <time>2019-05-18T17:10:56Z</time>
      </trkpt>
      <trkpt lat="45.63087" lon="2.30628">
        <ele>776</ele>
        <time>2019-05-18T17:10:57Z</time>
      </trkpt>
      <trkpt lat="45.6309" lon="2.30627">
        <ele>776</ele>
        <time>2019-05-18T17:10:58Z</time>
      </trkpt>
      <trkpt lat="45.63094" lon="2.30625">
        <ele>776</ele>
        <time>2019-05-18T17:10:59Z</time>
      </trkpt>
      <trkpt lat="45.63097" lon="2.30624">
        <ele>776</ele>
        <time>2019-05-18T17:11:00Z</time>
      </trkpt>
      <trkpt lat="45.631" lon="2.30622">
        <ele>776</ele>
        <time>2019-05-18T17:11:01Z</time>
      </trkpt>
      <trkpt lat="45.63103" lon="2.30621">
        <ele>777</ele>
        <time>2019-05-18T17:11:02Z</time>
      </trkpt>
      <trkpt lat="45.63106" lon="2.30619">
        <ele>777</ele>
        <time>2019-05-18T17:11:03Z</time>
      </trkpt>
      <trkpt lat="45.63109" lon="2.30617">
        <ele>777</ele>
        <time>2019-05-18T17:11:04Z</time>
      </trkpt>
      <trkpt lat="45.63112" lon="2.30615">
        <ele>777</ele>
        <time>2019-05-18T17:11:05Z</time>
      </trkpt>
      <trkpt lat="45.63115" lon="2.30613">
        <ele>777</ele>
        <time>2019-05-18T17:11:06Z</time>
      </trkpt>
      <trkpt lat="45.63118" lon="2.30611">
        <ele>778</ele>
        <time>2019-05-18T17:11:07Z</time>
      </trkpt>
      <trkpt lat="45.63121" lon="2.30609">
        <ele>778</ele>
        <time>2019-05-18T17:11:08Z</time>
      </trkpt>
      <trkpt lat="45.63124" lon="2.30607">
        <ele>778</ele>
        <time>2019-05-18T17:11:09Z</time>
      </trkpt>
      <trkpt lat="45.63127" lon="2.30605">
        <ele>778</ele>
        <time>2019-05-18T17:11:10Z</time>
      </trkpt>
      <trkpt lat="45.6313" lon="2.30603">
        <ele>778</ele>
        <time>2019-05-18T17:11:11Z</time>
      </trkpt>
      <trkpt lat="45.63136" lon="2.306">
        <ele>778</ele>
        <time>2019-05-18T17:11:12Z</time>
      </trkpt>
      <trkpt lat="45.63139" lon="2.30598">
        <ele>778</ele>
        <time>2019-05-18T17:11:14Z</time>
      </trkpt>
      <trkpt lat="45.63143" lon="2.30597">
        <ele>778</ele>
        <time>2019-05-18T17:11:15Z</time>
      </trkpt>
      <trkpt lat="45.63146" lon="2.30595">
        <ele>778</ele>
        <time>2019-05-18T17:11:16Z</time>
      </trkpt>
      <trkpt lat="45.6315" lon="2.30593">
        <ele>778</ele>
        <time>2019-05-18T17:11:17Z</time>
      </trkpt>
      <trkpt lat="45.63154" lon="2.30592">
        <ele>778</ele>
        <time>2019-05-18T17:11:18Z</time>
      </trkpt>
      <trkpt lat="45.63157" lon="2.30589">
        <ele>778</ele>
        <time>2019-05-18T17:11:19Z</time>
      </trkpt>
      <trkpt lat="45.63161" lon="2.30587">
        <ele>778</ele>
        <time>2019-05-18T17:11:20Z</time>
      </trkpt>
      <trkpt lat="45.63165" lon="2.30585">
        <ele>778</ele>
        <time>2019-05-18T17:11:21Z</time>
      </trkpt>
      <trkpt lat="45.63169" lon="2.30584">
        <ele>778</ele>
        <time>2019-05-18T17:11:22Z</time>
      </trkpt>
      <trkpt lat="45.63172" lon="2.30583">
        <ele>778</ele>
        <time>2019-05-18T17:11:23Z</time>
      </trkpt>
      <trkpt lat="45.63176" lon="2.30583">
        <ele>778</ele>
        <time>2019-05-18T17:11:24Z</time>
      </trkpt>
      <trkpt lat="45.6318" lon="2.30582">
        <ele>778</ele>
        <time>2019-05-18T17:11:25Z</time>
      </trkpt>
      <trkpt lat="45.63183" lon="2.30581">
        <ele>778</ele>
        <time>2019-05-18T17:11:26Z</time>
      </trkpt>
      <trkpt lat="45.63186" lon="2.3058">
        <ele>778</ele>
        <time>2019-05-18T17:11:27Z</time>
      </trkpt>
      <trkpt lat="45.6319" lon="2.3058">
        <ele>779</ele>
        <time>2019-05-18T17:11:28Z</time>
      </trkpt>
      <trkpt lat="45.63193" lon="2.30581">
        <ele>779</ele>
        <time>2019-05-18T17:11:29Z</time>
      </trkpt>
      <trkpt lat="45.63196" lon="2.30581">
        <ele>779</ele>
        <time>2019-05-18T17:11:30Z</time>
      </trkpt>
      <trkpt lat="45.632" lon="2.30582">
        <ele>779</ele>
        <time>2019-05-18T17:11:31Z</time>
      </trkpt>
      <trkpt lat="45.63203" lon="2.30582">
        <ele>779</ele>
        <time>2019-05-18T17:11:32Z</time>
      </trkpt>
      <trkpt lat="45.63206" lon="2.30582">
        <ele>779</ele>
        <time>2019-05-18T17:11:33Z</time>
      </trkpt>
      <trkpt lat="45.63209" lon="2.30582">
        <ele>780</ele>
        <time>2019-05-18T17:11:34Z</time>
      </trkpt>
      <trkpt lat="45.63213" lon="2.30582">
        <ele>780</ele>
        <time>2019-05-18T17:11:35Z</time>
      </trkpt>
      <trkpt lat="45.63216" lon="2.30581">
        <ele>780</ele>
        <time>2019-05-18T17:11:36Z</time>
      </trkpt>
      <trkpt lat="45.63219" lon="2.30581">
        <ele>780</ele>
        <time>2019-05-18T17:11:37Z</time>
      </trkpt>
      <trkpt lat="45.63222" lon="2.3058">
        <ele>780</ele>
        <time>2019-05-18T17:11:38Z</time>
      </trkpt>
      <trkpt lat="45.63225" lon="2.3058">
        <ele>780</ele>
        <time>2019-05-18T17:11:39Z</time>
      </trkpt>
      <trkpt lat="45.63229" lon="2.3058">
        <ele>780</ele>
        <time>2019-05-18T17:11:40Z</time>
      </trkpt>
      <trkpt lat="45.63232" lon="2.30579">
        <ele>781</ele>
        <time>2019-05-18T17:11:41Z</time>
      </trkpt>
      <trkpt lat="45.63235" lon="2.30578">
        <ele>781</ele>
        <time>2019-05-18T17:11:42Z</time>
      </trkpt>
      <trkpt lat="45.63241" lon="2.30577">
        <ele>781</ele>
        <time>2019-05-18T17:11:43Z</time>
      </trkpt>
      <trkpt lat="45.63244" lon="2.30576">
        <ele>781</ele>
        <time>2019-05-18T17:11:44Z</time>
      </trkpt>
      <trkpt lat="45.63248" lon="2.30575">
        <ele>781</ele>
        <time>2019-05-18T17:11:45Z</time>
      </trkpt>
      <trkpt lat="45.63251" lon="2.30573">
        <ele>782</ele>
        <time>2019-05-18T17:11:46Z</time>
      </trkpt>
      <trkpt lat="45.63254" lon="2.30572">
        <ele>782</ele>
        <time>2019-05-18T17:11:47Z</time>
      </trkpt>
      <trkpt lat="45.63257" lon="2.30571">
        <ele>782</ele>
        <time>2019-05-18T17:11:48Z</time>
      </trkpt>
      <trkpt lat="45.6326" lon="2.3057">
        <ele>782</ele>
        <time>2019-05-18T17:11:49Z</time>
      </trkpt>
      <trkpt lat="45.63263" lon="2.30569">
        <ele>782</ele>
        <time>2019-05-18T17:11:50Z</time>
      </trkpt>
      <trkpt lat="45.63266" lon="2.30568">
        <ele>783</ele>
        <time>2019-05-18T17:11:51Z</time>
      </trkpt>
      <trkpt lat="45.63269" lon="2.30567">
        <ele>783</ele>
        <time>2019-05-18T17:11:52Z</time>
      </trkpt>
      <trkpt lat="45.63272" lon="2.30566">
        <ele>783</ele>
        <time>2019-05-18T17:11:53Z</time>
      </trkpt>
      <trkpt lat="45.63275" lon="2.30565">
        <ele>783</ele>
        <time>2019-05-18T17:11:54Z</time>
      </trkpt>
      <trkpt lat="45.63278" lon="2.30563">
        <ele>783</ele>
        <time>2019-05-18T17:11:56Z</time>
      </trkpt>
      <trkpt lat="45.63282" lon="2.30562">
        <ele>783</ele>
        <time>2019-05-18T17:11:57Z</time>
      </trkpt>
      <trkpt lat="45.63285" lon="2.30561">
        <ele>783</ele>
        <time>2019-05-18T17:11:58Z</time>
      </trkpt>
      <trkpt lat="45.63288" lon="2.3056">
        <ele>783</ele>
        <time>2019-05-18T17:11:59Z</time>
      </trkpt>
      <trkpt lat="45.63291" lon="2.30559">
        <ele>783</ele>
        <time>2019-05-18T17:12:00Z</time>
      </trkpt>
      <trkpt lat="45.63294" lon="2.30558">
        <ele>784</ele>
        <time>2019-05-18T17:12:01Z</time>
      </trkpt>
      <trkpt lat="45.63297" lon="2.30557">
        <ele>784</ele>
        <time>2019-05-18T17:12:02Z</time>
      </trkpt>
      <trkpt lat="45.633" lon="2.30556">
        <ele>784</ele>
        <time>2019-05-18T17:12:03Z</time>
      </trkpt>
      <trkpt lat="45.63303" lon="2.30555">
        <ele>784</ele>
        <time>2019-05-18T17:12:04Z</time>
      </trkpt>
      <trkpt lat="45.63306" lon="2.30554">
        <ele>784</ele>
        <time>2019-05-18T17:12:05Z</time>
      </trkpt>
      <trkpt lat="45.63309" lon="2.30553">
        <ele>784</ele>
        <time>2019-05-18T17:12:06Z</time>
      </trkpt>
      <trkpt lat="45.63312" lon="2.30553">
        <ele>784</ele>
        <time>2019-05-18T17:12:07Z</time>
      </trkpt>
      <trkpt lat="45.63315" lon="2.30552">
        <ele>784</ele>
        <time>2019-05-18T17:12:08Z</time>
      </trkpt>
      <trkpt lat="45.63318" lon="2.30551">
        <ele>785</ele>
        <time>2019-05-18T17:12:09Z</time>
      </trkpt>
      <trkpt lat="45.63321" lon="2.30551">
        <ele>785</ele>
        <time>2019-05-18T17:12:10Z</time>
      </trkpt>
      <trkpt lat="45.63324" lon="2.30551">
        <ele>785</ele>
        <time>2019-05-18T17:12:11Z</time>
      </trkpt>
      <trkpt lat="45.63328" lon="2.30551">
        <ele>785</ele>
        <time>2019-05-18T17:12:12Z</time>
      </trkpt>
      <trkpt lat="45.63331" lon="2.30551">
        <ele>785</ele>
        <time>2019-05-18T17:12:13Z</time>
      </trkpt>
      <trkpt lat="45.63334" lon="2.3055">
        <ele>785</ele>
        <time>2019-05-18T17:12:14Z</time>
      </trkpt>
      <trkpt lat="45.63338" lon="2.3055">
        <ele>785</ele>
        <time>2019-05-18T17:12:15Z</time>
      </trkpt>
      <trkpt lat="45.63341" lon="2.3055">
        <ele>785</ele>
        <time>2019-05-18T17:12:16Z</time>
      </trkpt>
      <trkpt lat="45.63345" lon="2.3055">
        <ele>785</ele>
        <time>2019-05-18T17:12:17Z</time>
      </trkpt>
      <trkpt lat="45.63348" lon="2.3055">
        <ele>785</ele>
        <time>2019-05-18T17:12:18Z</time>
      </trkpt>
      <trkpt lat="45.63351" lon="2.30549">
        <ele>785</ele>
        <time>2019-05-18T17:12:19Z</time>
      </trkpt>
      <trkpt lat="45.63355" lon="2.30549">
        <ele>785</ele>
        <time>2019-05-18T17:12:20Z</time>
      </trkpt>
      <trkpt lat="45.63358" lon="2.30549">
        <ele>785</ele>
        <time>2019-05-18T17:12:21Z</time>
      </trkpt>
      <trkpt lat="45.63361" lon="2.30549">
        <ele>785</ele>
        <time>2019-05-18T17:12:22Z</time>
      </trkpt>
      <trkpt lat="45.63365" lon="2.30549">
        <ele>785</ele>
        <time>2019-05-18T17:12:23Z</time>
      </trkpt>
      <trkpt lat="45.63368" lon="2.30549">
        <ele>785</ele>
        <time>2019-05-18T17:12:24Z</time>
      </trkpt>
      <trkpt lat="45.63371" lon="2.30549">
        <ele>785</ele>
        <time>2019-05-18T17:12:25Z</time>
      </trkpt>
      <trkpt lat="45.63375" lon="2.30549">
        <ele>786</ele>
        <time>2019-05-18T17:12:26Z</time>
      </trkpt>
      <trkpt lat="45.63378" lon="2.30549">
        <ele>786</ele>
        <time>2019-05-18T17:12:27Z</time>
      </trkpt>
      <trkpt lat="45.63381" lon="2.30549">
        <ele>786</ele>
        <time>2019-05-18T17:12:28Z</time>
      </trkpt>
      <trkpt lat="45.63385" lon="2.30549">
        <ele>786</ele>
        <time>2019-05-18T17:12:29Z</time>
      </trkpt>
      <trkpt lat="45.63388" lon="2.30549">
        <ele>786</ele>
        <time>2019-05-18T17:12:30Z</time>
      </trkpt>
      <trkpt lat="45.63392" lon="2.30549">
        <ele>786</ele>
        <time>2019-05-18T17:12:31Z</time>
      </trkpt>
      <trkpt lat="45.63395" lon="2.30549">
        <ele>786</ele>
        <time>2019-05-18T17:12:32Z</time>
      </trkpt>
      <trkpt lat="45.63398" lon="2.30549">
        <ele>786</ele>
        <time>2019-05-18T17:12:33Z</time>
      </trkpt>
      <trkpt lat="45.63402" lon="2.30549">
        <ele>786</ele>
        <time>2019-05-18T17:12:34Z</time>
      </trkpt>
      <trkpt lat="45.63405" lon="2.30549">
        <ele>786</ele>
        <time>2019-05-18T17:12:35Z</time>
      </trkpt>
      <trkpt lat="45.63408" lon="2.30549">
        <ele>786</ele>
        <time>2019-05-18T17:12:36Z</time>
      </trkpt>
      <trkpt lat="45.63412" lon="2.30549">
        <ele>786</ele>
        <time>2019-05-18T17:12:37Z</time>
      </trkpt>
      <trkpt lat="45.63415" lon="2.30549">
        <ele>786</ele>
        <time>2019-05-18T17:12:38Z</time>
      </trkpt>
      <trkpt lat="45.63419" lon="2.30549">
        <ele>786</ele>
        <time>2019-05-18T17:12:39Z</time>
      </trkpt>
      <trkpt lat="45.63422" lon="2.30549">
        <ele>786</ele>
        <time>2019-05-18T17:12:40Z</time>
      </trkpt>
      <trkpt lat="45.63425" lon="2.30549">
        <ele>786</ele>
        <time>2019-05-18T17:12:41Z</time>
      </trkpt>
      <trkpt lat="45.63429" lon="2.30549">
        <ele>786</ele>
        <time>2019-05-18T17:12:42Z</time>
      </trkpt>
      <trkpt lat="45.63432" lon="2.30549">
        <ele>786</ele>
        <time>2019-05-18T17:12:43Z</time>
      </trkpt>
      <trkpt lat="45.63436" lon="2.30549">
        <ele>786</ele>
        <time>2019-05-18T17:12:44Z</time>
      </trkpt>
      <trkpt lat="45.63439" lon="2.3055">
        <ele>786</ele>
        <time>2019-05-18T17:12:45Z</time>
      </trkpt>
      <trkpt lat="45.63442" lon="2.3055">
        <ele>786</ele>
        <time>2019-05-18T17:12:46Z</time>
      </trkpt>
      <trkpt lat="45.63446" lon="2.3055">
        <ele>786</ele>
        <time>2019-05-18T17:12:47Z</time>
      </trkpt>
      <trkpt lat="45.63449" lon="2.30551">
        <ele>786</ele>
        <time>2019-05-18T17:12:48Z</time>
      </trkpt>
      <trkpt lat="45.63452" lon="2.30551">
        <ele>786</ele>
        <time>2019-05-18T17:12:49Z</time>
      </trkpt>
      <trkpt lat="45.63456" lon="2.30552">
        <ele>786</ele>
        <time>2019-05-18T17:12:50Z</time>
      </trkpt>
      <trkpt lat="45.63459" lon="2.30553">
        <ele>786</ele>
        <time>2019-05-18T17:12:51Z</time>
      </trkpt>
      <trkpt lat="45.63463" lon="2.30554">
        <ele>786</ele>
        <time>2019-05-18T17:12:52Z</time>
      </trkpt>
      <trkpt lat="45.63466" lon="2.30555">
        <ele>786</ele>
        <time>2019-05-18T17:12:53Z</time>
      </trkpt>
      <trkpt lat="45.63469" lon="2.30556">
        <ele>786</ele>
        <time>2019-05-18T17:12:54Z</time>
      </trkpt>
      <trkpt lat="45.63473" lon="2.30557">
        <ele>786</ele>
        <time>2019-05-18T17:12:55Z</time>
      </trkpt>
      <trkpt lat="45.63476" lon="2.30558">
        <ele>786</ele>
        <time>2019-05-18T17:12:56Z</time>
      </trkpt>
      <trkpt lat="45.63479" lon="2.3056">
        <ele>786</ele>
        <time>2019-05-18T17:12:57Z</time>
      </trkpt>
      <trkpt lat="45.63483" lon="2.30562">
        <ele>786</ele>
        <time>2019-05-18T17:12:58Z</time>
      </trkpt>
      <trkpt lat="45.63486" lon="2.30564">
        <ele>786</ele>
        <time>2019-05-18T17:12:59Z</time>
      </trkpt>
      <trkpt lat="45.63489" lon="2.30566">
        <ele>786</ele>
        <time>2019-05-18T17:13:00Z</time>
      </trkpt>
      <trkpt lat="45.63493" lon="2.30568">
        <ele>786</ele>
        <time>2019-05-18T17:13:01Z</time>
      </trkpt>
      <trkpt lat="45.63497" lon="2.3057">
        <ele>786</ele>
        <time>2019-05-18T17:13:02Z</time>
      </trkpt>
      <trkpt lat="45.63501" lon="2.30572">
        <ele>786</ele>
        <time>2019-05-18T17:13:03Z</time>
      </trkpt>
      <trkpt lat="45.63505" lon="2.30575">
        <ele>786</ele>
        <time>2019-05-18T17:13:04Z</time>
      </trkpt>
      <trkpt lat="45.63508" lon="2.30577">
        <ele>786</ele>
        <time>2019-05-18T17:13:05Z</time>
      </trkpt>
      <trkpt lat="45.63512" lon="2.3058">
        <ele>785</ele>
        <time>2019-05-18T17:13:06Z</time>
      </trkpt>
      <trkpt lat="45.63516" lon="2.30582">
        <ele>785</ele>
        <time>2019-05-18T17:13:07Z</time>
      </trkpt>
      <trkpt lat="45.6352" lon="2.30584">
        <ele>785</ele>
        <time>2019-05-18T17:13:08Z</time>
      </trkpt>
      <trkpt lat="45.63525" lon="2.30586">
        <ele>785</ele>
        <time>2019-05-18T17:13:09Z</time>
      </trkpt>
      <trkpt lat="45.63529" lon="2.30589">
        <ele>785</ele>
        <time>2019-05-18T17:13:10Z</time>
      </trkpt>
      <trkpt lat="45.63534" lon="2.30591">
        <ele>785</ele>
        <time>2019-05-18T17:13:11Z</time>
      </trkpt>
      <trkpt lat="45.63538" lon="2.30593">
        <ele>785</ele>
        <time>2019-05-18T17:13:12Z</time>
      </trkpt>
      <trkpt lat="45.63543" lon="2.30594">
        <ele>785</ele>
        <time>2019-05-18T17:13:13Z</time>
      </trkpt>
      <trkpt lat="45.63548" lon="2.30596">
        <ele>784</ele>
        <time>2019-05-18T17:13:14Z</time>
      </trkpt>
      <trkpt lat="45.63553" lon="2.30597">
        <ele>784</ele>
        <time>2019-05-18T17:13:15Z</time>
      </trkpt>
      <trkpt lat="45.63559" lon="2.30597">
        <ele>784</ele>
        <time>2019-05-18T17:13:16Z</time>
      </trkpt>
      <trkpt lat="45.63564" lon="2.30598">
        <ele>784</ele>
        <time>2019-05-18T17:13:17Z</time>
      </trkpt>
      <trkpt lat="45.63569" lon="2.30598">
        <ele>784</ele>
        <time>2019-05-18T17:13:18Z</time>
      </trkpt>
      <trkpt lat="45.63575" lon="2.30599">
        <ele>783</ele>
        <time>2019-05-18T17:13:19Z</time>
      </trkpt>
      <trkpt lat="45.6358" lon="2.30599">
        <ele>783</ele>
        <time>2019-05-18T17:13:20Z</time>
      </trkpt>
      <trkpt lat="45.63586" lon="2.30599">
        <ele>783</ele>
        <time>2019-05-18T17:13:21Z</time>
      </trkpt>
      <trkpt lat="45.63591" lon="2.306">
        <ele>783</ele>
        <time>2019-05-18T17:13:22Z</time>
      </trkpt>
      <trkpt lat="45.63597" lon="2.306">
        <ele>783</ele>
        <time>2019-05-18T17:13:23Z</time>
      </trkpt>
      <trkpt lat="45.63602" lon="2.306">
        <ele>783</ele>
        <time>2019-05-18T17:13:24Z</time>
      </trkpt>
      <trkpt lat="45.63608" lon="2.30601">
        <ele>783</ele>
        <time>2019-05-18T17:13:25Z</time>
      </trkpt>
      <trkpt lat="45.63613" lon="2.30602">
        <ele>783</ele>
        <time>2019-05-18T17:13:26Z</time>
      </trkpt>
      <trkpt lat="45.63618" lon="2.30603">
        <ele>783</ele>
        <time>2019-05-18T17:13:27Z</time>
      </trkpt>
      <trkpt lat="45.63622" lon="2.30606">
        <ele>783</ele>
        <time>2019-05-18T17:13:28Z</time>
      </trkpt>
      <trkpt lat="45.63627" lon="2.30609">
        <ele>783</ele>
        <time>2019-05-18T17:13:29Z</time>
      </trkpt>
      <trkpt lat="45.63631" lon="2.30612">
        <ele>783</ele>
        <time>2019-05-18T17:13:30Z</time>
      </trkpt>
      <trkpt lat="45.63635" lon="2.30615">
        <ele>783</ele>
        <time>2019-05-18T17:13:31Z</time>
      </trkpt>
      <trkpt lat="45.63638" lon="2.30619">
        <ele>783</ele>
        <time>2019-05-18T17:13:32Z</time>
      </trkpt>
      <trkpt lat="45.63641" lon="2.30622">
        <ele>783</ele>
        <time>2019-05-18T17:13:33Z</time>
      </trkpt>
      <trkpt lat="45.63644" lon="2.30626">
        <ele>783</ele>
        <time>2019-05-18T17:13:34Z</time>
      </trkpt>
      <trkpt lat="45.63647" lon="2.30629">
        <ele>783</ele>
        <time>2019-05-18T17:13:35Z</time>
      </trkpt>
      <trkpt lat="45.6365" lon="2.30633">
        <ele>783</ele>
        <time>2019-05-18T17:13:36Z</time>
      </trkpt>
      <trkpt lat="45.63653" lon="2.30636">
        <ele>783</ele>
        <time>2019-05-18T17:13:37Z</time>
      </trkpt>
      <trkpt lat="45.63656" lon="2.30639">
        <ele>783</ele>
        <time>2019-05-18T17:13:38Z</time>
      </trkpt>
      <trkpt lat="45.63659" lon="2.30643">
        <ele>783</ele>
        <time>2019-05-18T17:13:39Z</time>
      </trkpt>
      <trkpt lat="45.63661" lon="2.30647">
        <ele>783</ele>
        <time>2019-05-18T17:13:40Z</time>
      </trkpt>
      <trkpt lat="45.63664" lon="2.3065">
        <ele>783</ele>
        <time>2019-05-18T17:13:41Z</time>
      </trkpt>
      <trkpt lat="45.63666" lon="2.30653">
        <ele>783</ele>
        <time>2019-05-18T17:13:42Z</time>
      </trkpt>
      <trkpt lat="45.63669" lon="2.30656">
        <ele>784</ele>
        <time>2019-05-18T17:13:43Z</time>
      </trkpt>
      <trkpt lat="45.63672" lon="2.30659">
        <ele>783</ele>
        <time>2019-05-18T17:13:44Z</time>
      </trkpt>
      <trkpt lat="45.63675" lon="2.30662">
        <ele>784</ele>
        <time>2019-05-18T17:13:45Z</time>
      </trkpt>
      <trkpt lat="45.63678" lon="2.30665">
        <ele>784</ele>
        <time>2019-05-18T17:13:46Z</time>
      </trkpt>
      <trkpt lat="45.63681" lon="2.30667">
        <ele>784</ele>
        <time>2019-05-18T17:13:47Z</time>
      </trkpt>
      <trkpt lat="45.63684" lon="2.30669">
        <ele>784</ele>
        <time>2019-05-18T17:13:48Z</time>
      </trkpt>
      <trkpt lat="45.63687" lon="2.30671">
        <ele>784</ele>
        <time>2019-05-18T17:13:49Z</time>
      </trkpt>
      <trkpt lat="45.6369" lon="2.30672">
        <ele>784</ele>
        <time>2019-05-18T17:13:50Z</time>
      </trkpt>
      <trkpt lat="45.63693" lon="2.30674">
        <ele>784</ele>
        <time>2019-05-18T17:13:51Z</time>
      </trkpt>
      <trkpt lat="45.63696" lon="2.30675">
        <ele>784</ele>
        <time>2019-05-18T17:13:52Z</time>
      </trkpt>
      <trkpt lat="45.63699" lon="2.30675">
        <ele>784</ele>
        <time>2019-05-18T17:13:53Z</time>
      </trkpt>
      <trkpt lat="45.63702" lon="2.30675">
        <ele>785</ele>
        <time>2019-05-18T17:13:54Z</time>
      </trkpt>
      <trkpt lat="45.63705" lon="2.30675">
        <ele>785</ele>
        <time>2019-05-18T17:13:55Z</time>
      </trkpt>
      <trkpt lat="45.63708" lon="2.30675">
        <ele>785</ele>
        <time>2019-05-18T17:13:56Z</time>
      </trkpt>
      <trkpt lat="45.6371" lon="2.30675">
        <ele>785</ele>
        <time>2019-05-18T17:13:57Z</time>
      </trkpt>
      <trkpt lat="45.63713" lon="2.30675">
        <ele>785</ele>
        <time>2019-05-18T17:13:58Z</time>
      </trkpt>
      <trkpt lat="45.63716" lon="2.30675">
        <ele>785</ele>
        <time>2019-05-18T17:13:59Z</time>
      </trkpt>
      <trkpt lat="45.63718" lon="2.30675">
        <ele>785</ele>
        <time>2019-05-18T17:14:00Z</time>
      </trkpt>
      <trkpt lat="45.63721" lon="2.30675">
        <ele>786</ele>
        <time>2019-05-18T17:14:01Z</time>
      </trkpt>
      <trkpt lat="45.63723" lon="2.30675">
        <ele>786</ele>
        <time>2019-05-18T17:14:02Z</time>
      </trkpt>
      <trkpt lat="45.63726" lon="2.30675">
        <ele>786</ele>
        <time>2019-05-18T17:14:03Z</time>
      </trkpt>
      <trkpt lat="45.63728" lon="2.30675">
        <ele>786</ele>
        <time>2019-05-18T17:14:04Z</time>
      </trkpt>
      <trkpt lat="45.63731" lon="2.30675">
        <ele>786</ele>
        <time>2019-05-18T17:14:05Z</time>
      </trkpt>
      <trkpt lat="45.63733" lon="2.30674">
        <ele>786</ele>
        <time>2019-05-18T17:14:06Z</time>
      </trkpt>
      <trkpt lat="45.63735" lon="2.30675">
        <ele>786</ele>
        <time>2019-05-18T17:14:07Z</time>
      </trkpt>
      <trkpt lat="45.63737" lon="2.30675">
        <ele>786</ele>
        <time>2019-05-18T17:14:08Z</time>
      </trkpt>
      <trkpt lat="45.6374" lon="2.30675">
        <ele>787</ele>
        <time>2019-05-18T17:14:09Z</time>
      </trkpt>
      <trkpt lat="45.63742" lon="2.30675">
        <ele>787</ele>
        <time>2019-05-18T17:14:10Z</time>
      </trkpt>
      <trkpt lat="45.63745" lon="2.30676">
        <ele>787</ele>
        <time>2019-05-18T17:14:11Z</time>
      </trkpt>
      <trkpt lat="45.63747" lon="2.30676">
        <ele>787</ele>
        <time>2019-05-18T17:14:12Z</time>
      </trkpt>
      <trkpt lat="45.63749" lon="2.30676">
        <ele>787</ele>
        <time>2019-05-18T17:14:13Z</time>
      </trkpt>
      <trkpt lat="45.63752" lon="2.30677">
        <ele>787</ele>
        <time>2019-05-18T17:14:14Z</time>
      </trkpt>
      <trkpt lat="45.63754" lon="2.30678">
        <ele>787</ele>
        <time>2019-05-18T17:14:15Z</time>
      </trkpt>
      <trkpt lat="45.63756" lon="2.30678">
        <ele>788</ele>
        <time>2019-05-18T17:14:16Z</time>
      </trkpt>
      <trkpt lat="45.63759" lon="2.30679">
        <ele>788</ele>
        <time>2019-05-18T17:14:17Z</time>
      </trkpt>
      <trkpt lat="45.63761" lon="2.30679">
        <ele>788</ele>
        <time>2019-05-18T17:14:18Z</time>
      </trkpt>
      <trkpt lat="45.63763" lon="2.3068">
        <ele>788</ele>
        <time>2019-05-18T17:14:19Z</time>
      </trkpt>
      <trkpt lat="45.63765" lon="2.30681">
        <ele>788</ele>
        <time>2019-05-18T17:14:20Z</time>
      </trkpt>
      <trkpt lat="45.63767" lon="2.30682">
        <ele>789</ele>
        <time>2019-05-18T17:14:21Z</time>
      </trkpt>
      <trkpt lat="45.6377" lon="2.30682">
        <ele>789</ele>
        <time>2019-05-18T17:14:22Z</time>
      </trkpt>
      <trkpt lat="45.63772" lon="2.30683">
        <ele>789</ele>
        <time>2019-05-18T17:14:23Z</time>
      </trkpt>
      <trkpt lat="45.63774" lon="2.30684">
        <ele>789</ele>
        <time>2019-05-18T17:14:24Z</time>
      </trkpt>
      <trkpt lat="45.63777" lon="2.30685">
        <ele>789</ele>
        <time>2019-05-18T17:14:25Z</time>
      </trkpt>
      <trkpt lat="45.63779" lon="2.30685">
        <ele>789</ele>
        <time>2019-05-18T17:14:26Z</time>
      </trkpt>
      <trkpt lat="45.63782" lon="2.30685">
        <ele>790</ele>
        <time>2019-05-18T17:14:27Z</time>
      </trkpt>
      <trkpt lat="45.63784" lon="2.30686">
        <ele>790</ele>
        <time>2019-05-18T17:14:28Z</time>
      </trkpt>
      <trkpt lat="45.63787" lon="2.30686">
        <ele>790</ele>
        <time>2019-05-18T17:14:29Z</time>
      </trkpt>
      <trkpt lat="45.63789" lon="2.30686">
        <ele>790</ele>
        <time>2019-05-18T17:14:30Z</time>
      </trkpt>
      <trkpt lat="45.63791" lon="2.30687">
        <ele>790</ele>
        <time>2019-05-18T17:14:31Z</time>
      </trkpt>
      <trkpt lat="45.63793" lon="2.30687">
        <ele>791</ele>
        <time>2019-05-18T17:14:32Z</time>
      </trkpt>
      <trkpt lat="45.63795" lon="2.30687">
        <ele>791</ele>
        <time>2019-05-18T17:14:33Z</time>
      </trkpt>
      <trkpt lat="45.63798" lon="2.30687">
        <ele>791</ele>
        <time>2019-05-18T17:14:34Z</time>
      </trkpt>
      <trkpt lat="45.63799" lon="2.30687">
        <ele>791</ele>
        <time>2019-05-18T17:14:35Z</time>
      </trkpt>
      <trkpt lat="45.63801" lon="2.30688">
        <ele>791</ele>
        <time>2019-05-18T17:14:36Z</time>
      </trkpt>
      <trkpt lat="45.63803" lon="2.30687">
        <ele>791</ele>
        <time>2019-05-18T17:14:37Z</time>
      </trkpt>
      <trkpt lat="45.63805" lon="2.30687">
        <ele>791</ele>
        <time>2019-05-18T17:14:38Z</time>
      </trkpt>
      <trkpt lat="45.63807" lon="2.30686">
        <ele>792</ele>
        <time>2019-05-18T17:14:39Z</time>
      </trkpt>
      <trkpt lat="45.6381" lon="2.30686">
        <ele>792</ele>
        <time>2019-05-18T17:14:40Z</time>
      </trkpt>
      <trkpt lat="45.63812" lon="2.30685">
        <ele>792</ele>
        <time>2019-05-18T17:14:41Z</time>
      </trkpt>
      <trkpt lat="45.63814" lon="2.30685">
        <ele>792</ele>
        <time>2019-05-18T17:14:42Z</time>
      </trkpt>
      <trkpt lat="45.63816" lon="2.30686">
        <ele>792</ele>
        <time>2019-05-18T17:14:43Z</time>
      </trkpt>
      <trkpt lat="45.63817" lon="2.30686">
        <ele>793</ele>
        <time>2019-05-18T17:14:44Z</time>
      </trkpt>
      <trkpt lat="45.63819" lon="2.30686">
        <ele>793</ele>
        <time>2019-05-18T17:14:45Z</time>
      </trkpt>
      <trkpt lat="45.63821" lon="2.30685">
        <ele>793</ele>
        <time>2019-05-18T17:14:46Z</time>
      </trkpt>
      <trkpt lat="45.63822" lon="2.30685">
        <ele>793</ele>
        <time>2019-05-18T17:14:47Z</time>
      </trkpt>
      <trkpt lat="45.63823" lon="2.30683">
        <ele>793</ele>
        <time>2019-05-18T17:14:48Z</time>
      </trkpt>
      <trkpt lat="45.63825" lon="2.30682">
        <ele>794</ele>
        <time>2019-05-18T17:14:49Z</time>
      </trkpt>
      <trkpt lat="45.63826" lon="2.30681">
        <ele>794</ele>
        <time>2019-05-18T17:14:50Z</time>
      </trkpt>
      <trkpt lat="45.63828" lon="2.3068">
        <ele>794</ele>
        <time>2019-05-18T17:14:51Z</time>
      </trkpt>
      <trkpt lat="45.6383" lon="2.30679">
        <ele>794</ele>
        <time>2019-05-18T17:14:52Z</time>
      </trkpt>
      <trkpt lat="45.63831" lon="2.30677">
        <ele>795</ele>
        <time>2019-05-18T17:14:53Z</time>
      </trkpt>
      <trkpt lat="45.63832" lon="2.30675">
        <ele>795</ele>
        <time>2019-05-18T17:14:54Z</time>
      </trkpt>
      <trkpt lat="45.63833" lon="2.30674">
        <ele>795</ele>
        <time>2019-05-18T17:14:55Z</time>
      </trkpt>
      <trkpt lat="45.63834" lon="2.30672">
        <ele>795</ele>
        <time>2019-05-18T17:14:56Z</time>
      </trkpt>
      <trkpt lat="45.63835" lon="2.30671">
        <ele>796</ele>
        <time>2019-05-18T17:14:57Z</time>
      </trkpt>
      <trkpt lat="45.63837" lon="2.3067">
        <ele>796</ele>
        <time>2019-05-18T17:14:58Z</time>
      </trkpt>
      <trkpt lat="45.63838" lon="2.30668">
        <ele>796</ele>
        <time>2019-05-18T17:14:59Z</time>
      </trkpt>
      <trkpt lat="45.63839" lon="2.30667">
        <ele>796</ele>
        <time>2019-05-18T17:15:00Z</time>
      </trkpt>
      <trkpt lat="45.6384" lon="2.30665">
        <ele>797</ele>
        <time>2019-05-18T17:15:01Z</time>
      </trkpt>
      <trkpt lat="45.63841" lon="2.30663">
        <ele>797</ele>
        <time>2019-05-18T17:15:02Z</time>
      </trkpt>
      <trkpt lat="45.63843" lon="2.30661">
        <ele>797</ele>
        <time>2019-05-18T17:15:03Z</time>
      </trkpt>
      <trkpt lat="45.63844" lon="2.3066">
        <ele>797</ele>
        <time>2019-05-18T17:15:04Z</time>
      </trkpt>
      <trkpt lat="45.63845" lon="2.30658">
        <ele>797</ele>
        <time>2019-05-18T17:15:05Z</time>
      </trkpt>
      <trkpt lat="45.63847" lon="2.30656">
        <ele>798</ele>
        <time>2019-05-18T17:15:06Z</time>
      </trkpt>
      <trkpt lat="45.63848" lon="2.30654">
        <ele>798</ele>
        <time>2019-05-18T17:15:07Z</time>
      </trkpt>
      <trkpt lat="45.63849" lon="2.30653">
        <ele>798</ele>
        <time>2019-05-18T17:15:08Z</time>
      </trkpt>
      <trkpt lat="45.6385" lon="2.30651">
        <ele>798</ele>
        <time>2019-05-18T17:15:09Z</time>
      </trkpt>
      <trkpt lat="45.63851" lon="2.30649">
        <ele>798</ele>
        <time>2019-05-18T17:15:10Z</time>
      </trkpt>
      <trkpt lat="45.63852" lon="2.30647">
        <ele>798</ele>
        <time>2019-05-18T17:15:11Z</time>
      </trkpt>
      <trkpt lat="45.63853" lon="2.30645">
        <ele>798</ele>
        <time>2019-05-18T17:15:12Z</time>
      </trkpt>
      <trkpt lat="45.63854" lon="2.30642">
        <ele>798</ele>
        <time>2019-05-18T17:15:13Z</time>
      </trkpt>
      <trkpt lat="45.63855" lon="2.3064">
        <ele>798</ele>
        <time>2019-05-18T17:15:14Z</time>
      </trkpt>
      <trkpt lat="45.63856" lon="2.30637">
        <ele>798</ele>
        <time>2019-05-18T17:15:15Z</time>
      </trkpt>
      <trkpt lat="45.63857" lon="2.30634">
        <ele>799</ele>
        <time>2019-05-18T17:15:16Z</time>
      </trkpt>
      <trkpt lat="45.63857" lon="2.30631">
        <ele>799</ele>
        <time>2019-05-18T17:15:17Z</time>
      </trkpt>
      <trkpt lat="45.63858" lon="2.30628">
        <ele>799</ele>
        <time>2019-05-18T17:15:18Z</time>
      </trkpt>
      <trkpt lat="45.63859" lon="2.30626">
        <ele>799</ele>
        <time>2019-05-18T17:15:19Z</time>
      </trkpt>
      <trkpt lat="45.6386" lon="2.30623">
        <ele>799</ele>
        <time>2019-05-18T17:15:20Z</time>
      </trkpt>
      <trkpt lat="45.63861" lon="2.30621">
        <ele>800</ele>
        <time>2019-05-18T17:15:21Z</time>
      </trkpt>
      <trkpt lat="45.63862" lon="2.30618">
        <ele>800</ele>
        <time>2019-05-18T17:15:22Z</time>
      </trkpt>
      <trkpt lat="45.63863" lon="2.30616">
        <ele>800</ele>
        <time>2019-05-18T17:15:23Z</time>
      </trkpt>
      <trkpt lat="45.63864" lon="2.30614">
        <ele>800</ele>
        <time>2019-05-18T17:15:24Z</time>
      </trkpt>
      <trkpt lat="45.63865" lon="2.30611">
        <ele>800</ele>
        <time>2019-05-18T17:15:25Z</time>
      </trkpt>
      <trkpt lat="45.63866" lon="2.30609">
        <ele>801</ele>
        <time>2019-05-18T17:15:26Z</time>
      </trkpt>
      <trkpt lat="45.63867" lon="2.30607">
        <ele>801</ele>
        <time>2019-05-18T17:15:27Z</time>
      </trkpt>
      <trkpt lat="45.63867" lon="2.30604">
        <ele>801</ele>
        <time>2019-05-18T17:15:28Z</time>
      </trkpt>
      <trkpt lat="45.63867" lon="2.30601">
        <ele>801</ele>
        <time>2019-05-18T17:15:29Z</time>
      </trkpt>
      <trkpt lat="45.63868" lon="2.30599">
        <ele>801</ele>
        <time>2019-05-18T17:15:30Z</time>
      </trkpt>
      <trkpt lat="45.63869" lon="2.30596">
        <ele>801</ele>
        <time>2019-05-18T17:15:31Z</time>
      </trkpt>
      <trkpt lat="45.6387" lon="2.30593">
        <ele>801</ele>
        <time>2019-05-18T17:15:32Z</time>
      </trkpt>
      <trkpt lat="45.63872" lon="2.30591">
        <ele>801</ele>
        <time>2019-05-18T17:15:33Z</time>
      </trkpt>
      <trkpt lat="45.63873" lon="2.30589">
        <ele>801</ele>
        <time>2019-05-18T17:15:34Z</time>
      </trkpt>
      <trkpt lat="45.63874" lon="2.30587">
        <ele>802</ele>
        <time>2019-05-18T17:15:35Z</time>
      </trkpt>
      <trkpt lat="45.63876" lon="2.30585">
        <ele>802</ele>
        <time>2019-05-18T17:15:36Z</time>
      </trkpt>
      <trkpt lat="45.63877" lon="2.30583">
        <ele>802</ele>
        <time>2019-05-18T17:15:37Z</time>
      </trkpt>
      <trkpt lat="45.63878" lon="2.30582">
        <ele>802</ele>
        <time>2019-05-18T17:15:38Z</time>
      </trkpt>
      <trkpt lat="45.6388" lon="2.30581">
        <ele>802</ele>
        <time>2019-05-18T17:15:39Z</time>
      </trkpt>
      <trkpt lat="45.63882" lon="2.3058">
        <ele>802</ele>
        <time>2019-05-18T17:15:40Z</time>
      </trkpt>
      <trkpt lat="45.63883" lon="2.30579">
        <ele>802</ele>
        <time>2019-05-18T17:15:41Z</time>
      </trkpt>
      <trkpt lat="45.63885" lon="2.30579">
        <ele>802</ele>
        <time>2019-05-18T17:15:42Z</time>
      </trkpt>
      <trkpt lat="45.63886" lon="2.30579">
        <ele>803</ele>
        <time>2019-05-18T17:15:43Z</time>
      </trkpt>
      <trkpt lat="45.63887" lon="2.30578">
        <ele>803</ele>
        <time>2019-05-18T17:15:44Z</time>
      </trkpt>
      <trkpt lat="45.63889" lon="2.30578">
        <ele>803</ele>
        <time>2019-05-18T17:15:45Z</time>
      </trkpt>
      <trkpt lat="45.6389" lon="2.30577">
        <ele>803</ele>
        <time>2019-05-18T17:15:46Z</time>
      </trkpt>
      <trkpt lat="45.63892" lon="2.30578">
        <ele>804</ele>
        <time>2019-05-18T17:15:47Z</time>
      </trkpt>
      <trkpt lat="45.63892" lon="2.30578">
        <ele>804</ele>
        <time>2019-05-18T17:15:48Z</time>
      </trkpt>
      <trkpt lat="45.63893" lon="2.30578">
        <ele>804</ele>
        <time>2019-05-18T17:15:49Z</time>
      </trkpt>
      <trkpt lat="45.63895" lon="2.30579">
        <ele>804</ele>
        <time>2019-05-18T17:15:50Z</time>
      </trkpt>
      <trkpt lat="45.63896" lon="2.30579">
        <ele>804</ele>
        <time>2019-05-18T17:15:51Z</time>
      </trkpt>
      <trkpt lat="45.63897" lon="2.30579">
        <ele>805</ele>
        <time>2019-05-18T17:15:52Z</time>
      </trkpt>
      <trkpt lat="45.63899" lon="2.3058">
        <ele>805</ele>
        <time>2019-05-18T17:15:53Z</time>
      </trkpt>
      <trkpt lat="45.639" lon="2.30581">
        <ele>805</ele>
        <time>2019-05-18T17:15:54Z</time>
      </trkpt>
      <trkpt lat="45.63902" lon="2.30582">
        <ele>805</ele>
        <time>2019-05-18T17:15:55Z</time>
      </trkpt>
      <trkpt lat="45.63903" lon="2.30582">
        <ele>805</ele>
        <time>2019-05-18T17:15:56Z</time>
      </trkpt>
      <trkpt lat="45.63904" lon="2.30583">
        <ele>805</ele>
        <time>2019-05-18T17:15:57Z</time>
      </trkpt>
      <trkpt lat="45.63905" lon="2.30584">
        <ele>805</ele>
        <time>2019-05-18T17:15:58Z</time>
      </trkpt>
      <trkpt lat="45.63907" lon="2.30583">
        <ele>805</ele>
        <time>2019-05-18T17:15:59Z</time>
      </trkpt>
      <trkpt lat="45.63908" lon="2.30583">
        <ele>806</ele>
        <time>2019-05-18T17:16:00Z</time>
      </trkpt>
      <trkpt lat="45.63909" lon="2.30583">
        <ele>806</ele>
        <time>2019-05-18T17:16:01Z</time>
      </trkpt>
      <trkpt lat="45.6391" lon="2.30583">
        <ele>806</ele>
        <time>2019-05-18T17:16:02Z</time>
      </trkpt>
      <trkpt lat="45.63911" lon="2.30583">
        <ele>806</ele>
        <time>2019-05-18T17:16:03Z</time>
      </trkpt>
      <trkpt lat="45.63913" lon="2.30583">
        <ele>806</ele>
        <time>2019-05-18T17:16:04Z</time>
      </trkpt>
      <trkpt lat="45.63914" lon="2.30584">
        <ele>806</ele>
        <time>2019-05-18T17:16:05Z</time>
      </trkpt>
      <trkpt lat="45.63915" lon="2.30584">
        <ele>806</ele>
        <time>2019-05-18T17:16:06Z</time>
      </trkpt>
      <trkpt lat="45.63917" lon="2.30584">
        <ele>806</ele>
        <time>2019-05-18T17:16:07Z</time>
      </trkpt>
      <trkpt lat="45.63919" lon="2.30584">
        <ele>806</ele>
        <time>2019-05-18T17:16:08Z</time>
      </trkpt>
      <trkpt lat="45.63921" lon="2.30584">
        <ele>806</ele>
        <time>2019-05-18T17:16:09Z</time>
      </trkpt>
      <trkpt lat="45.63923" lon="2.30585">
        <ele>807</ele>
        <time>2019-05-18T17:16:10Z</time>
      </trkpt>
      <trkpt lat="45.63925" lon="2.30585">
        <ele>807</ele>
        <time>2019-05-18T17:16:11Z</time>
      </trkpt>
      <trkpt lat="45.63926" lon="2.30584">
        <ele>807</ele>
        <time>2019-05-18T17:16:12Z</time>
      </trkpt>
      <trkpt lat="45.63928" lon="2.30584">
        <ele>807</ele>
        <time>2019-05-18T17:16:13Z</time>
      </trkpt>
      <trkpt lat="45.63929" lon="2.30584">
        <ele>807</ele>
        <time>2019-05-18T17:16:14Z</time>
      </trkpt>
      <trkpt lat="45.63932" lon="2.30584">
        <ele>807</ele>
        <time>2019-05-18T17:16:15Z</time>
      </trkpt>
      <trkpt lat="45.63933" lon="2.30584">
        <ele>807</ele>
        <time>2019-05-18T17:16:16Z</time>
      </trkpt>
      <trkpt lat="45.63936" lon="2.30584">
        <ele>808</ele>
        <time>2019-05-18T17:16:17Z</time>
      </trkpt>
      <trkpt lat="45.63938" lon="2.30584">
        <ele>808</ele>
        <time>2019-05-18T17:16:18Z</time>
      </trkpt>
      <trkpt lat="45.63939" lon="2.30584">
        <ele>808</ele>
        <time>2019-05-18T17:16:19Z</time>
      </trkpt>
      <trkpt lat="45.63942" lon="2.30583">
        <ele>808</ele>
        <time>2019-05-18T17:16:20Z</time>
      </trkpt>
      <trkpt lat="45.63944" lon="2.30582">
        <ele>808</ele>
        <time>2019-05-18T17:16:21Z</time>
      </trkpt>
      <trkpt lat="45.63945" lon="2.30582">
        <ele>808</ele>
        <time>2019-05-18T17:16:22Z</time>
      </trkpt>
      <trkpt lat="45.63947" lon="2.30582">
        <ele>808</ele>
        <time>2019-05-18T17:16:23Z</time>
      </trkpt>
      <trkpt lat="45.6395" lon="2.30582">
        <ele>808</ele>
        <time>2019-05-18T17:16:24Z</time>
      </trkpt>
      <trkpt lat="45.63952" lon="2.30581">
        <ele>809</ele>
        <time>2019-05-18T17:16:25Z</time>
      </trkpt>
      <trkpt lat="45.63953" lon="2.30581">
        <ele>809</ele>
        <time>2019-05-18T17:16:26Z</time>
      </trkpt>
      <trkpt lat="45.63955" lon="2.3058">
        <ele>809</ele>
        <time>2019-05-18T17:16:27Z</time>
      </trkpt>
      <trkpt lat="45.63957" lon="2.3058">
        <ele>809</ele>
        <time>2019-05-18T17:16:28Z</time>
      </trkpt>
      <trkpt lat="45.6396" lon="2.3058">
        <ele>809</ele>
        <time>2019-05-18T17:16:29Z</time>
      </trkpt>
      <trkpt lat="45.63962" lon="2.3058">
        <ele>809</ele>
        <time>2019-05-18T17:16:30Z</time>
      </trkpt>
      <trkpt lat="45.63964" lon="2.30579">
        <ele>809</ele>
        <time>2019-05-18T17:16:31Z</time>
      </trkpt>
      <trkpt lat="45.63966" lon="2.30578">
        <ele>809</ele>
        <time>2019-05-18T17:16:32Z</time>
      </trkpt>
      <trkpt lat="45.63967" lon="2.30577">
        <ele>810</ele>
        <time>2019-05-18T17:16:33Z</time>
      </trkpt>
      <trkpt lat="45.63968" lon="2.30576">
        <ele>810</ele>
        <time>2019-05-18T17:16:34Z</time>
      </trkpt>
      <trkpt lat="45.6397" lon="2.30575">
        <ele>810</ele>
        <time>2019-05-18T17:16:35Z</time>
      </trkpt>
      <trkpt lat="45.63972" lon="2.30574">
        <ele>810</ele>
        <time>2019-05-18T17:16:36Z</time>
      </trkpt>
      <trkpt lat="45.63973" lon="2.30573">
        <ele>810</ele>
        <time>2019-05-18T17:16:37Z</time>
      </trkpt>
      <trkpt lat="45.63975" lon="2.30573">
        <ele>811</ele>
        <time>2019-05-18T17:16:38Z</time>
      </trkpt>
      <trkpt lat="45.63976" lon="2.30574">
        <ele>811</ele>
        <time>2019-05-18T17:16:39Z</time>
      </trkpt>
      <trkpt lat="45.63978" lon="2.30573">
        <ele>811</ele>
        <time>2019-05-18T17:16:40Z</time>
      </trkpt>
      <trkpt lat="45.6398" lon="2.30573">
        <ele>811</ele>
        <time>2019-05-18T17:16:41Z</time>
      </trkpt>
      <trkpt lat="45.63982" lon="2.30572">
        <ele>811</ele>
        <time>2019-05-18T17:16:42Z</time>
      </trkpt>
      <trkpt lat="45.63984" lon="2.30573">
        <ele>811</ele>
        <time>2019-05-18T17:16:43Z</time>
      </trkpt>
      <trkpt lat="45.63985" lon="2.30572">
        <ele>812</ele>
        <time>2019-05-18T17:16:44Z</time>
      </trkpt>
      <trkpt lat="45.63987" lon="2.30572">
        <ele>812</ele>
        <time>2019-05-18T17:16:45Z</time>
      </trkpt>
      <trkpt lat="45.63989" lon="2.30571">
        <ele>812</ele>
        <time>2019-05-18T17:16:46Z</time>
      </trkpt>
      <trkpt lat="45.63991" lon="2.3057">
        <ele>812</ele>
        <time>2019-05-18T17:16:47Z</time>
      </trkpt>
      <trkpt lat="45.63994" lon="2.3057">
        <ele>812</ele>
        <time>2019-05-18T17:16:48Z</time>
      </trkpt>
      <trkpt lat="45.63996" lon="2.3057">
        <ele>812</ele>
        <time>2019-05-18T17:16:49Z</time>
      </trkpt>
      <trkpt lat="45.63999" lon="2.30571">
        <ele>812</ele>
        <time>2019-05-18T17:16:50Z</time>
      </trkpt>
      <trkpt lat="45.64" lon="2.30571">
        <ele>813</ele>
        <time>2019-05-18T17:16:51Z</time>
      </trkpt>
      <trkpt lat="45.64002" lon="2.30571">
        <ele>813</ele>
        <time>2019-05-18T17:16:52Z</time>
      </trkpt>
      <trkpt lat="45.64004" lon="2.30572">
        <ele>813</ele>
        <time>2019-05-18T17:16:53Z</time>
      </trkpt>
      <trkpt lat="45.64006" lon="2.30573">
        <ele>813</ele>
        <time>2019-05-18T17:16:54Z</time>
      </trkpt>
      <trkpt lat="45.64007" lon="2.30574">
        <ele>813</ele>
        <time>2019-05-18T17:16:55Z</time>
      </trkpt>
      <trkpt lat="45.64008" lon="2.30575">
        <ele>814</ele>
        <time>2019-05-18T17:16:56Z</time>
      </trkpt>
      <trkpt lat="45.6401" lon="2.30575">
        <ele>814</ele>
        <time>2019-05-18T17:16:57Z</time>
      </trkpt>
      <trkpt lat="45.64012" lon="2.30575">
        <ele>814</ele>
        <time>2019-05-18T17:16:58Z</time>
      </trkpt>
      <trkpt lat="45.64014" lon="2.30575">
        <ele>814</ele>
        <time>2019-05-18T17:16:59Z</time>
      </trkpt>
      <trkpt lat="45.64016" lon="2.30575">
        <ele>815</ele>
        <time>2019-05-18T17:17:00Z</time>
      </trkpt>
      <trkpt lat="45.64018" lon="2.30575">
        <ele>815</ele>
        <time>2019-05-18T17:17:01Z</time>
      </trkpt>
      <trkpt lat="45.64018" lon="2.30575">
        <ele>815</ele>
        <time>2019-05-18T17:17:02Z</time>
      </trkpt>
      <trkpt lat="45.6402" lon="2.30575">
        <ele>815</ele>
        <time>2019-05-18T17:17:03Z</time>
      </trkpt>
      <trkpt lat="45.64023" lon="2.30576">
        <ele>815</ele>
        <time>2019-05-18T17:17:04Z</time>
      </trkpt>
      <trkpt lat="45.64025" lon="2.30576">
        <ele>815</ele>
        <time>2019-05-18T17:17:05Z</time>
      </trkpt>
      <trkpt lat="45.64026" lon="2.30576">
        <ele>815</ele>
        <time>2019-05-18T17:17:06Z</time>
      </trkpt>
      <trkpt lat="45.64028" lon="2.30577">
        <ele>816</ele>
        <time>2019-05-18T17:17:07Z</time>
      </trkpt>
      <trkpt lat="45.64029" lon="2.30578">
        <ele>816</ele>
        <time>2019-05-18T17:17:08Z</time>
      </trkpt>
      <trkpt lat="45.6403" lon="2.30579">
        <ele>816</ele>
        <time>2019-05-18T17:17:09Z</time>
      </trkpt>
      <trkpt lat="45.64033" lon="2.3058">
        <ele>816</ele>
        <time>2019-05-18T17:17:10Z</time>
      </trkpt>
      <trkpt lat="45.64035" lon="2.30581">
        <ele>816</ele>
        <time>2019-05-18T17:17:11Z</time>
      </trkpt>
      <trkpt lat="45.64036" lon="2.30583">
        <ele>816</ele>
        <time>2019-05-18T17:17:12Z</time>
      </trkpt>
      <trkpt lat="45.64037" lon="2.30585">
        <ele>816</ele>
        <time>2019-05-18T17:17:13Z</time>
      </trkpt>
      <trkpt lat="45.64038" lon="2.30587">
        <ele>816</ele>
        <time>2019-05-18T17:17:14Z</time>
      </trkpt>
      <trkpt lat="45.64039" lon="2.30589">
        <ele>816</ele>
        <time>2019-05-18T17:17:15Z</time>
      </trkpt>
      <trkpt lat="45.6404" lon="2.3059">
        <ele>816</ele>
        <time>2019-05-18T17:17:16Z</time>
      </trkpt>
      <trkpt lat="45.64043" lon="2.30592">
        <ele>816</ele>
        <time>2019-05-18T17:17:17Z</time>
      </trkpt>
      <trkpt lat="45.64045" lon="2.30593">
        <ele>815</ele>
        <time>2019-05-18T17:17:18Z</time>
      </trkpt>
      <trkpt lat="45.64048" lon="2.30595">
        <ele>815</ele>
        <time>2019-05-18T17:17:19Z</time>
      </trkpt>
      <trkpt lat="45.6405" lon="2.30598">
        <ele>815</ele>
        <time>2019-05-18T17:17:20Z</time>
      </trkpt>
      <trkpt lat="45.64053" lon="2.306">
        <ele>815</ele>
        <time>2019-05-18T17:17:21Z</time>
      </trkpt>
      <trkpt lat="45.64057" lon="2.30602">
        <ele>814</ele>
        <time>2019-05-18T17:17:22Z</time>
      </trkpt>
      <trkpt lat="45.6406" lon="2.30604">
        <ele>814</ele>
        <time>2019-05-18T17:17:23Z</time>
      </trkpt>
      <trkpt lat="45.64064" lon="2.30606">
        <ele>814</ele>
        <time>2019-05-18T17:17:24Z</time>
      </trkpt>
      <trkpt lat="45.64068" lon="2.30608">
        <ele>814</ele>
        <time>2019-05-18T17:17:25Z</time>
      </trkpt>
      <trkpt lat="45.64073" lon="2.30608">
        <ele>813</ele>
        <time>2019-05-18T17:17:26Z</time>
      </trkpt>
      <trkpt lat="45.64078" lon="2.3061">
        <ele>813</ele>
        <time>2019-05-18T17:17:27Z</time>
      </trkpt>
      <trkpt lat="45.64082" lon="2.30612">
        <ele>813</ele>
        <time>2019-05-18T17:17:28Z</time>
      </trkpt>
      <trkpt lat="45.64086" lon="2.30613">
        <ele>813</ele>
        <time>2019-05-18T17:17:29Z</time>
      </trkpt>
      <trkpt lat="45.6409" lon="2.30615">
        <ele>813</ele>
        <time>2019-05-18T17:17:30Z</time>
      </trkpt>
      <trkpt lat="45.64095" lon="2.30617">
        <ele>812</ele>
        <time>2019-05-18T17:17:31Z</time>
      </trkpt>
      <trkpt lat="45.641" lon="2.3062">
        <ele>812</ele>
        <time>2019-05-18T17:17:32Z</time>
      </trkpt>
      <trkpt lat="45.64105" lon="2.30623">
        <ele>812</ele>
        <time>2019-05-18T17:17:33Z</time>
      </trkpt>
      <trkpt lat="45.6411" lon="2.30626">
        <ele>811</ele>
        <time>2019-05-18T17:17:34Z</time>
      </trkpt>
      <trkpt lat="45.64114" lon="2.30629">
        <ele>811</ele>
        <time>2019-05-18T17:17:35Z</time>
      </trkpt>
      <trkpt lat="45.64118" lon="2.30631">
        <ele>811</ele>
        <time>2019-05-18T17:17:36Z</time>
      </trkpt>
      <trkpt lat="45.64123" lon="2.30632">
        <ele>811</ele>
        <time>2019-05-18T17:17:37Z</time>
      </trkpt>
      <trkpt lat="45.64126" lon="2.30634">
        <ele>811</ele>
        <time>2019-05-18T17:17:38Z</time>
      </trkpt>
      <trkpt lat="45.64129" lon="2.30636">
        <ele>811</ele>
        <time>2019-05-18T17:17:39Z</time>
      </trkpt>
      <trkpt lat="45.64132" lon="2.30638">
        <ele>811</ele>
        <time>2019-05-18T17:17:40Z</time>
      </trkpt>
      <trkpt lat="45.64135" lon="2.3064">
        <ele>811</ele>
        <time>2019-05-18T17:17:41Z</time>
      </trkpt>
      <trkpt lat="45.64137" lon="2.30643">
        <ele>811</ele>
        <time>2019-05-18T17:17:42Z</time>
      </trkpt>
      <trkpt lat="45.6414" lon="2.30647">
        <ele>810</ele>
        <time>2019-05-18T17:17:43Z</time>
      </trkpt>
      <trkpt lat="45.64142" lon="2.30649">
        <ele>810</ele>
        <time>2019-05-18T17:17:44Z</time>
      </trkpt>
      <trkpt lat="45.64144" lon="2.30651">
        <ele>810</ele>
        <time>2019-05-18T17:17:45Z</time>
      </trkpt>
      <trkpt lat="45.64147" lon="2.30651">
        <ele>810</ele>
        <time>2019-05-18T17:17:46Z</time>
      </trkpt>
      <trkpt lat="45.6415" lon="2.30651">
        <ele>811</ele>
        <time>2019-05-18T17:17:47Z</time>
      </trkpt>
      <trkpt lat="45.64154" lon="2.30651">
        <ele>811</ele>
        <time>2019-05-18T17:17:48Z</time>
      </trkpt>
      <trkpt lat="45.64156" lon="2.30651">
        <ele>811</ele>
        <time>2019-05-18T17:17:49Z</time>
      </trkpt>
      <trkpt lat="45.64157" lon="2.3065">
        <ele>811</ele>
        <time>2019-05-18T17:17:50Z</time>
      </trkpt>
      <trkpt lat="45.6416" lon="2.30649">
        <ele>811</ele>
        <time>2019-05-18T17:17:51Z</time>
      </trkpt>
      <trkpt lat="45.64163" lon="2.30648">
        <ele>811</ele>
        <time>2019-05-18T17:17:52Z</time>
      </trkpt>
      <trkpt lat="45.64165" lon="2.30649">
        <ele>811</ele>
        <time>2019-05-18T17:17:53Z</time>
      </trkpt>
      <trkpt lat="45.64166" lon="2.30649">
        <ele>811</ele>
        <time>2019-05-18T17:17:54Z</time>
      </trkpt>
      <trkpt lat="45.64169" lon="2.30649">
        <ele>811</ele>
        <time>2019-05-18T17:17:55Z</time>
      </trkpt>
      <trkpt lat="45.64171" lon="2.3065">
        <ele>811</ele>
        <time>2019-05-18T17:17:56Z</time>
      </trkpt>
      <trkpt lat="45.64173" lon="2.3065">
        <ele>811</ele>
        <time>2019-05-18T17:17:57Z</time>
      </trkpt>
      <trkpt lat="45.64175" lon="2.3065">
        <ele>811</ele>
        <time>2019-05-18T17:17:58Z</time>
      </trkpt>
      <trkpt lat="45.64178" lon="2.3065">
        <ele>811</ele>
        <time>2019-05-18T17:17:59Z</time>
      </trkpt>
      <trkpt lat="45.6418" lon="2.3065">
        <ele>811</ele>
        <time>2019-05-18T17:18:00Z</time>
      </trkpt>
      <trkpt lat="45.64183" lon="2.3065">
        <ele>812</ele>
        <time>2019-05-18T17:18:01Z</time>
      </trkpt>
      <trkpt lat="45.64185" lon="2.3065">
        <ele>812</ele>
        <time>2019-05-18T17:18:02Z</time>
      </trkpt>
      <trkpt lat="45.64188" lon="2.3065">
        <ele>812</ele>
        <time>2019-05-18T17:18:03Z</time>
      </trkpt>
      <trkpt lat="45.6419" lon="2.3065">
        <ele>812</ele>
        <time>2019-05-18T17:18:04Z</time>
      </trkpt>
      <trkpt lat="45.64193" lon="2.30651">
        <ele>812</ele>
        <time>2019-05-18T17:18:05Z</time>
      </trkpt>
      <trkpt lat="45.64195" lon="2.30651">
        <ele>812</ele>
        <time>2019-05-18T17:18:06Z</time>
      </trkpt>
      <trkpt lat="45.64197" lon="2.30652">
        <ele>812</ele>
        <time>2019-05-18T17:18:07Z</time>
      </trkpt>
      <trkpt lat="45.64198" lon="2.30653">
        <ele>812</ele>
        <time>2019-05-18T17:18:08Z</time>
      </trkpt>
      <trkpt lat="45.642" lon="2.30653">
        <ele>812</ele>
        <time>2019-05-18T17:18:09Z</time>
      </trkpt>
      <trkpt lat="45.64202" lon="2.30653">
        <ele>812</ele>
        <time>2019-05-18T17:18:10Z</time>
      </trkpt>
      <trkpt lat="45.64204" lon="2.30654">
        <ele>812</ele>
        <time>2019-05-18T17:18:11Z</time>
      </trkpt>
      <trkpt lat="45.64205" lon="2.30654">
        <ele>812</ele>
        <time>2019-05-18T17:18:12Z</time>
      </trkpt>
      <trkpt lat="45.64207" lon="2.30653">
        <ele>812</ele>
        <time>2019-05-18T17:18:13Z</time>
      </trkpt>
      <trkpt lat="45.64208" lon="2.30653">
        <ele>813</ele>
        <time>2019-05-18T17:18:14Z</time>
      </trkpt>
      <trkpt lat="45.64209" lon="2.30653">
        <ele>813</ele>
        <time>2019-05-18T17:18:15Z</time>
      </trkpt>
      <trkpt lat="45.64211" lon="2.30653">
        <ele>813</ele>
        <time>2019-05-18T17:18:16Z</time>
      </trkpt>
      <trkpt lat="45.64213" lon="2.30653">
        <ele>813</ele>
        <time>2019-05-18T17:18:17Z</time>
      </trkpt>
      <trkpt lat="45.64215" lon="2.30652">
        <ele>813</ele>
        <time>2019-05-18T17:18:18Z</time>
      </trkpt>
      <trkpt lat="45.64217" lon="2.3065">
        <ele>813</ele>
        <time>2019-05-18T17:18:19Z</time>
      </trkpt>
      <trkpt lat="45.64219" lon="2.30649">
        <ele>813</ele>
        <time>2019-05-18T17:18:20Z</time>
      </trkpt>
      <trkpt lat="45.6422" lon="2.30647">
        <ele>813</ele>
        <time>2019-05-18T17:18:21Z</time>
      </trkpt>
      <trkpt lat="45.64222" lon="2.30645">
        <ele>813</ele>
        <time>2019-05-18T17:18:22Z</time>
      </trkpt>
      <trkpt lat="45.64224" lon="2.30645">
        <ele>813</ele>
        <time>2019-05-18T17:18:23Z</time>
      </trkpt>
      <trkpt lat="45.64226" lon="2.30643">
        <ele>813</ele>
        <time>2019-05-18T17:18:24Z</time>
      </trkpt>
      <trkpt lat="45.64227" lon="2.30641">
        <ele>813</ele>
        <time>2019-05-18T17:18:25Z</time>
      </trkpt>
      <trkpt lat="45.64228" lon="2.30639">
        <ele>813</ele>
        <time>2019-05-18T17:18:26Z</time>
      </trkpt>
      <trkpt lat="45.64229" lon="2.30636">
        <ele>813</ele>
        <time>2019-05-18T17:18:27Z</time>
      </trkpt>
      <trkpt lat="45.64231" lon="2.30635">
        <ele>813</ele>
        <time>2019-05-18T17:18:28Z</time>
      </trkpt>
      <trkpt lat="45.64232" lon="2.30633">
        <ele>813</ele>
        <time>2019-05-18T17:18:29Z</time>
      </trkpt>
      <trkpt lat="45.64234" lon="2.30631">
        <ele>813</ele>
        <time>2019-05-18T17:18:30Z</time>
      </trkpt>
      <trkpt lat="45.64236" lon="2.30628">
        <ele>813</ele>
        <time>2019-05-18T17:18:31Z</time>
      </trkpt>
      <trkpt lat="45.64237" lon="2.30627">
        <ele>813</ele>
        <time>2019-05-18T17:18:32Z</time>
      </trkpt>
      <trkpt lat="45.64238" lon="2.30625">
        <ele>813</ele>
        <time>2019-05-18T17:18:33Z</time>
      </trkpt>
      <trkpt lat="45.6424" lon="2.30623">
        <ele>813</ele>
        <time>2019-05-18T17:18:34Z</time>
      </trkpt>
      <trkpt lat="45.64241" lon="2.30621">
        <ele>813</ele>
        <time>2019-05-18T17:18:35Z</time>
      </trkpt>
      <trkpt lat="45.64243" lon="2.30619">
        <ele>813</ele>
        <time>2019-05-18T17:18:36Z</time>
      </trkpt>
      <trkpt lat="45.64244" lon="2.30616">
        <ele>813</ele>
        <time>2019-05-18T17:18:37Z</time>
      </trkpt>
      <trkpt lat="45.64246" lon="2.30614">
        <ele>813</ele>
        <time>2019-05-18T17:18:38Z</time>
      </trkpt>
      <trkpt lat="45.64248" lon="2.30612">
        <ele>813</ele>
        <time>2019-05-18T17:18:39Z</time>
      </trkpt>
      <trkpt lat="45.64249" lon="2.3061">
        <ele>813</ele>
        <time>2019-05-18T17:18:40Z</time>
      </trkpt>
      <trkpt lat="45.6425" lon="2.30608">
        <ele>813</ele>
        <time>2019-05-18T17:18:41Z</time>
      </trkpt>
      <trkpt lat="45.64252" lon="2.30606">
        <ele>813</ele>
        <time>2019-05-18T17:18:42Z</time>
      </trkpt>
      <trkpt lat="45.64254" lon="2.30604">
        <ele>813</ele>
        <time>2019-05-18T17:18:43Z</time>
      </trkpt>
      <trkpt lat="45.64256" lon="2.30601">
        <ele>813</ele>
        <time>2019-05-18T17:18:44Z</time>
      </trkpt>
      <trkpt lat="45.64258" lon="2.30598">
        <ele>813</ele>
        <time>2019-05-18T17:18:45Z</time>
      </trkpt>
      <trkpt lat="45.6426" lon="2.30595">
        <ele>813</ele>
        <time>2019-05-18T17:18:46Z</time>
      </trkpt>
      <trkpt lat="45.64263" lon="2.30593">
        <ele>813</ele>
        <time>2019-05-18T17:18:47Z</time>
      </trkpt>
      <trkpt lat="45.64265" lon="2.3059">
        <ele>813</ele>
        <time>2019-05-18T17:18:48Z</time>
      </trkpt>
      <trkpt lat="45.64268" lon="2.30588">
        <ele>813</ele>
        <time>2019-05-18T17:18:49Z</time>
      </trkpt>
      <trkpt lat="45.6427" lon="2.30585">
        <ele>813</ele>
        <time>2019-05-18T17:18:50Z</time>
      </trkpt>
      <trkpt lat="45.64272" lon="2.30582">
        <ele>813</ele>
        <time>2019-05-18T17:18:51Z</time>
      </trkpt>
      <trkpt lat="45.64274" lon="2.30579">
        <ele>814</ele>
        <time>2019-05-18T17:18:52Z</time>
      </trkpt>
      <trkpt lat="45.64277" lon="2.30577">
        <ele>814</ele>
        <time>2019-05-18T17:18:53Z</time>
      </trkpt>
      <trkpt lat="45.64279" lon="2.30574">
        <ele>814</ele>
        <time>2019-05-18T17:18:54Z</time>
      </trkpt>
      <trkpt lat="45.64282" lon="2.30573">
        <ele>814</ele>
        <time>2019-05-18T17:18:55Z</time>
      </trkpt>
      <trkpt lat="45.64285" lon="2.30571">
        <ele>814</ele>
        <time>2019-05-18T17:18:56Z</time>
      </trkpt>
      <trkpt lat="45.64288" lon="2.30568">
        <ele>814</ele>
        <time>2019-05-18T17:18:57Z</time>
      </trkpt>
      <trkpt lat="45.6429" lon="2.30566">
        <ele>814</ele>
        <time>2019-05-18T17:18:58Z</time>
      </trkpt>
      <trkpt lat="45.64292" lon="2.30563">
        <ele>814</ele>
        <time>2019-05-18T17:18:59Z</time>
      </trkpt>
      <trkpt lat="45.64295" lon="2.3056">
        <ele>814</ele>
        <time>2019-05-18T17:19:00Z</time>
      </trkpt>
      <trkpt lat="45.64297" lon="2.30558">
        <ele>814</ele>
        <time>2019-05-18T17:19:01Z</time>
      </trkpt>
      <trkpt lat="45.64299" lon="2.30555">
        <ele>814</ele>
        <time>2019-05-18T17:19:02Z</time>
      </trkpt>
      <trkpt lat="45.64301" lon="2.30553">
        <ele>814</ele>
        <time>2019-05-18T17:19:03Z</time>
      </trkpt>
      <trkpt lat="45.64302" lon="2.30552">
        <ele>814</ele>
        <time>2019-05-18T17:19:04Z</time>
      </trkpt>
      <trkpt lat="45.64303" lon="2.30551">
        <ele>814</ele>
        <time>2019-05-18T17:19:05Z</time>
      </trkpt>
      <trkpt lat="45.64304" lon="2.30549">
        <ele>815</ele>
        <time>2019-05-18T17:19:06Z</time>
      </trkpt>
      <trkpt lat="45.64307" lon="2.30546">
        <ele>815</ele>
        <time>2019-05-18T17:19:07Z</time>
      </trkpt>
      <trkpt lat="45.64308" lon="2.30544">
        <ele>815</ele>
        <time>2019-05-18T17:19:08Z</time>
      </trkpt>
      <trkpt lat="45.6431" lon="2.30543">
        <ele>815</ele>
        <time>2019-05-18T17:19:09Z</time>
      </trkpt>
      <trkpt lat="45.6431" lon="2.30541">
        <ele>815</ele>
        <time>2019-05-18T17:19:10Z</time>
      </trkpt>
      <trkpt lat="45.64312" lon="2.30539">
        <ele>815</ele>
        <time>2019-05-18T17:19:11Z</time>
      </trkpt>
      <trkpt lat="45.64313" lon="2.30536">
        <ele>815</ele>
        <time>2019-05-18T17:19:12Z</time>
      </trkpt>
      <trkpt lat="45.64315" lon="2.30534">
        <ele>815</ele>
        <time>2019-05-18T17:19:13Z</time>
      </trkpt>
      <trkpt lat="45.64317" lon="2.30533">
        <ele>815</ele>
        <time>2019-05-18T17:19:14Z</time>
      </trkpt>
      <trkpt lat="45.64319" lon="2.30531">
        <ele>815</ele>
        <time>2019-05-18T17:19:15Z</time>
      </trkpt>
      <trkpt lat="45.64321" lon="2.3053">
        <ele>815</ele>
        <time>2019-05-18T17:19:16Z</time>
      </trkpt>
      <trkpt lat="45.64323" lon="2.30528">
        <ele>815</ele>
        <time>2019-05-18T17:19:17Z</time>
      </trkpt>
      <trkpt lat="45.64325" lon="2.30527">
        <ele>815</ele>
        <time>2019-05-18T17:19:18Z</time>
      </trkpt>
      <trkpt lat="45.64326" lon="2.30525">
        <ele>815</ele>
        <time>2019-05-18T17:19:19Z</time>
      </trkpt>
      <trkpt lat="45.64329" lon="2.30524">
        <ele>815</ele>
        <time>2019-05-18T17:19:20Z</time>
      </trkpt>
      <trkpt lat="45.6433" lon="2.30522">
        <ele>815</ele>
        <time>2019-05-18T17:19:21Z</time>
      </trkpt>
      <trkpt lat="45.64333" lon="2.30521">
        <ele>815</ele>
        <time>2019-05-18T17:19:22Z</time>
      </trkpt>
      <trkpt lat="45.64335" lon="2.30518">
        <ele>815</ele>
        <time>2019-05-18T17:19:23Z</time>
      </trkpt>
      <trkpt lat="45.64336" lon="2.30518">
        <ele>815</ele>
        <time>2019-05-18T17:19:24Z</time>
      </trkpt>
      <trkpt lat="45.64337" lon="2.30517">
        <ele>815</ele>
        <time>2019-05-18T17:19:25Z</time>
      </trkpt>
      <trkpt lat="45.64339" lon="2.30516">
        <ele>815</ele>
        <time>2019-05-18T17:19:26Z</time>
      </trkpt>
      <trkpt lat="45.64341" lon="2.30516">
        <ele>815</ele>
        <time>2019-05-18T17:19:27Z</time>
      </trkpt>
      <trkpt lat="45.64343" lon="2.30515">
        <ele>815</ele>
        <time>2019-05-18T17:19:28Z</time>
      </trkpt>
      <trkpt lat="45.64345" lon="2.30513">
        <ele>815</ele>
        <time>2019-05-18T17:19:29Z</time>
      </trkpt>
      <trkpt lat="45.64348" lon="2.30511">
        <ele>815</ele>
        <time>2019-05-18T17:19:30Z</time>
      </trkpt>
      <trkpt lat="45.6435" lon="2.30511">
        <ele>816</ele>
        <time>2019-05-18T17:19:31Z</time>
      </trkpt>
      <trkpt lat="45.64352" lon="2.3051">
        <ele>816</ele>
        <time>2019-05-18T17:19:32Z</time>
      </trkpt>
      <trkpt lat="45.64353" lon="2.30509">
        <ele>816</ele>
        <time>2019-05-18T17:19:33Z</time>
      </trkpt>
      <trkpt lat="45.64354" lon="2.30509">
        <ele>816</ele>
        <time>2019-05-18T17:19:34Z</time>
      </trkpt>
      <trkpt lat="45.64356" lon="2.3051">
        <ele>816</ele>
        <time>2019-05-18T17:19:35Z</time>
      </trkpt>
      <trkpt lat="45.64359" lon="2.30511">
        <ele>816</ele>
        <time>2019-05-18T17:19:36Z</time>
      </trkpt>
      <trkpt lat="45.64361" lon="2.3051">
        <ele>816</ele>
        <time>2019-05-18T17:19:37Z</time>
      </trkpt>
      <trkpt lat="45.64364" lon="2.30509">
        <ele>816</ele>
        <time>2019-05-18T17:19:38Z</time>
      </trkpt>
      <trkpt lat="45.64366" lon="2.30506">
        <ele>816</ele>
        <time>2019-05-18T17:19:39Z</time>
      </trkpt>
      <trkpt lat="45.64368" lon="2.30506">
        <ele>816</ele>
        <time>2019-05-18T17:19:40Z</time>
      </trkpt>
      <trkpt lat="45.6437" lon="2.30506">
        <ele>817</ele>
        <time>2019-05-18T17:19:41Z</time>
      </trkpt>
      <trkpt lat="45.64373" lon="2.30505">
        <ele>817</ele>
        <time>2019-05-18T17:19:42Z</time>
      </trkpt>
      <trkpt lat="45.64375" lon="2.30505">
        <ele>817</ele>
        <time>2019-05-18T17:19:43Z</time>
      </trkpt>
      <trkpt lat="45.64378" lon="2.30505">
        <ele>817</ele>
        <time>2019-05-18T17:19:44Z</time>
      </trkpt>
      <trkpt lat="45.6438" lon="2.30504">
        <ele>817</ele>
        <time>2019-05-18T17:19:45Z</time>
      </trkpt>
      <trkpt lat="45.64382" lon="2.30504">
        <ele>817</ele>
        <time>2019-05-18T17:19:46Z</time>
      </trkpt>
      <trkpt lat="45.64384" lon="2.30503">
        <ele>817</ele>
        <time>2019-05-18T17:19:47Z</time>
      </trkpt>
      <trkpt lat="45.64386" lon="2.30501">
        <ele>817</ele>
        <time>2019-05-18T17:19:48Z</time>
      </trkpt>
      <trkpt lat="45.64389" lon="2.30498">
        <ele>817</ele>
        <time>2019-05-18T17:19:49Z</time>
      </trkpt>
      <trkpt lat="45.64391" lon="2.30496">
        <ele>818</ele>
        <time>2019-05-18T17:19:50Z</time>
      </trkpt>
      <trkpt lat="45.64394" lon="2.30494">
        <ele>818</ele>
        <time>2019-05-18T17:19:51Z</time>
      </trkpt>
      <trkpt lat="45.64397" lon="2.30492">
        <ele>818</ele>
        <time>2019-05-18T17:19:52Z</time>
      </trkpt>
      <trkpt lat="45.64399" lon="2.30491">
        <ele>818</ele>
        <time>2019-05-18T17:19:53Z</time>
      </trkpt>
      <trkpt lat="45.64401" lon="2.30488">
        <ele>819</ele>
        <time>2019-05-18T17:19:54Z</time>
      </trkpt>
      <trkpt lat="45.64403" lon="2.30485">
        <ele>819</ele>
        <time>2019-05-18T17:19:55Z</time>
      </trkpt>
      <trkpt lat="45.64405" lon="2.30483">
        <ele>819</ele>
        <time>2019-05-18T17:19:56Z</time>
      </trkpt>
      <trkpt lat="45.64407" lon="2.30482">
        <ele>819</ele>
        <time>2019-05-18T17:19:57Z</time>
      </trkpt>
      <trkpt lat="45.64408" lon="2.30481">
        <ele>819</ele>
        <time>2019-05-18T17:19:58Z</time>
      </trkpt>
      <trkpt lat="45.64409" lon="2.30478">
        <ele>819</ele>
        <time>2019-05-18T17:19:59Z</time>
      </trkpt>
      <trkpt lat="45.64411" lon="2.30477">
        <ele>820</ele>
        <time>2019-05-18T17:20:00Z</time>
      </trkpt>
      <trkpt lat="45.64413" lon="2.30475">
        <ele>820</ele>
        <time>2019-05-18T17:20:01Z</time>
      </trkpt>
      <trkpt lat="45.64414" lon="2.30471">
        <ele>820</ele>
        <time>2019-05-18T17:20:02Z</time>
      </trkpt>
      <trkpt lat="45.64416" lon="2.3047">
        <ele>820</ele>
        <time>2019-05-18T17:20:03Z</time>
      </trkpt>
      <trkpt lat="45.64417" lon="2.30468">
        <ele>820</ele>
        <time>2019-05-18T17:20:04Z</time>
      </trkpt>
      <trkpt lat="45.64419" lon="2.30466">
        <ele>820</ele>
        <time>2019-05-18T17:20:05Z</time>
      </trkpt>
      <trkpt lat="45.64421" lon="2.30463">
        <ele>821</ele>
        <time>2019-05-18T17:20:06Z</time>
      </trkpt>
      <trkpt lat="45.64423" lon="2.30462">
        <ele>821</ele>
        <time>2019-05-18T17:20:07Z</time>
      </trkpt>
      <trkpt lat="45.64425" lon="2.3046">
        <ele>821</ele>
        <time>2019-05-18T17:20:08Z</time>
      </trkpt>
      <trkpt lat="45.64426" lon="2.30459">
        <ele>821</ele>
        <time>2019-05-18T17:20:09Z</time>
      </trkpt>
      <trkpt lat="45.64428" lon="2.30457">
        <ele>821</ele>
        <time>2019-05-18T17:20:10Z</time>
      </trkpt>
      <trkpt lat="45.6443" lon="2.30456">
        <ele>821</ele>
        <time>2019-05-18T17:20:11Z</time>
      </trkpt>
      <trkpt lat="45.64431" lon="2.30454">
        <ele>821</ele>
        <time>2019-05-18T17:20:12Z</time>
      </trkpt>
      <trkpt lat="45.64432" lon="2.30453">
        <ele>821</ele>
        <time>2019-05-18T17:20:13Z</time>
      </trkpt>
      <trkpt lat="45.64433" lon="2.30452">
        <ele>821</ele>
        <time>2019-05-18T17:20:14Z</time>
      </trkpt>
      <trkpt lat="45.64435" lon="2.30452">
        <ele>821</ele>
        <time>2019-05-18T17:20:15Z</time>
      </trkpt>
      <trkpt lat="45.64437" lon="2.30451">
        <ele>821</ele>
        <time>2019-05-18T17:20:16Z</time>
      </trkpt>
      <trkpt lat="45.64438" lon="2.3045">
        <ele>821</ele>
        <time>2019-05-18T17:20:17Z</time>
      </trkpt>
      <trkpt lat="45.64439" lon="2.30448">
        <ele>821</ele>
        <time>2019-05-18T17:20:18Z</time>
      </trkpt>
      <trkpt lat="45.64441" lon="2.30446">
        <ele>822</ele>
        <time>2019-05-18T17:20:19Z</time>
      </trkpt>
      <trkpt lat="45.64443" lon="2.30445">
        <ele>822</ele>
        <time>2019-05-18T17:20:20Z</time>
      </trkpt>
      <trkpt lat="45.64445" lon="2.30445">
        <ele>822</ele>
        <time>2019-05-18T17:20:21Z</time>
      </trkpt>
      <trkpt lat="45.64446" lon="2.30445">
        <ele>822</ele>
        <time>2019-05-18T17:20:22Z</time>
      </trkpt>
      <trkpt lat="45.64448" lon="2.30444">
        <ele>822</ele>
        <time>2019-05-18T17:20:23Z</time>
      </trkpt>
      <trkpt lat="45.64451" lon="2.30445">
        <ele>822</ele>
        <time>2019-05-18T17:20:24Z</time>
      </trkpt>
      <trkpt lat="45.64452" lon="2.30445">
        <ele>822</ele>
        <time>2019-05-18T17:20:25Z</time>
      </trkpt>
      <trkpt lat="45.64455" lon="2.30444">
        <ele>822</ele>
        <time>2019-05-18T17:20:26Z</time>
      </trkpt>
      <trkpt lat="45.64457" lon="2.30443">
        <ele>822</ele>
        <time>2019-05-18T17:20:27Z</time>
      </trkpt>
      <trkpt lat="45.64459" lon="2.30441">
        <ele>822</ele>
        <time>2019-05-18T17:20:28Z</time>
      </trkpt>
      <trkpt lat="45.64461" lon="2.30438">
        <ele>822</ele>
        <time>2019-05-18T17:20:29Z</time>
      </trkpt>
      <trkpt lat="45.64462" lon="2.30437">
        <ele>823</ele>
        <time>2019-05-18T17:20:30Z</time>
      </trkpt>
      <trkpt lat="45.64464" lon="2.30434">
        <ele>823</ele>
        <time>2019-05-18T17:20:31Z</time>
      </trkpt>
      <trkpt lat="45.64466" lon="2.30432">
        <ele>823</ele>
        <time>2019-05-18T17:20:32Z</time>
      </trkpt>
      <trkpt lat="45.64468" lon="2.30429">
        <ele>823</ele>
        <time>2019-05-18T17:20:33Z</time>
      </trkpt>
      <trkpt lat="45.64469" lon="2.30427">
        <ele>823</ele>
        <time>2019-05-18T17:20:34Z</time>
      </trkpt>
      <trkpt lat="45.64471" lon="2.30424">
        <ele>823</ele>
        <time>2019-05-18T17:20:35Z</time>
      </trkpt>
      <trkpt lat="45.64473" lon="2.30422">
        <ele>823</ele>
        <time>2019-05-18T17:20:36Z</time>
      </trkpt>
      <trkpt lat="45.64474" lon="2.30421">
        <ele>824</ele>
        <time>2019-05-18T17:20:37Z</time>
      </trkpt>
      <trkpt lat="45.64475" lon="2.30419">
        <ele>824</ele>
        <time>2019-05-18T17:20:38Z</time>
      </trkpt>
      <trkpt lat="45.64476" lon="2.30418">
        <ele>824</ele>
        <time>2019-05-18T17:20:39Z</time>
      </trkpt>
      <trkpt lat="45.64477" lon="2.30416">
        <ele>824</ele>
        <time>2019-05-18T17:20:40Z</time>
      </trkpt>
      <trkpt lat="45.64479" lon="2.30414">
        <ele>824</ele>
        <time>2019-05-18T17:20:41Z</time>
      </trkpt>
      <trkpt lat="45.64481" lon="2.30412">
        <ele>824</ele>
        <time>2019-05-18T17:20:42Z</time>
      </trkpt>
      <trkpt lat="45.64482" lon="2.3041">
        <ele>824</ele>
        <time>2019-05-18T17:20:43Z</time>
      </trkpt>
      <trkpt lat="45.64483" lon="2.30409">
        <ele>824</ele>
        <time>2019-05-18T17:20:44Z</time>
      </trkpt>
      <trkpt lat="45.64484" lon="2.30408">
        <ele>825</ele>
        <time>2019-05-18T17:20:45Z</time>
      </trkpt>
      <trkpt lat="45.64485" lon="2.30406">
        <ele>825</ele>
        <time>2019-05-18T17:20:46Z</time>
      </trkpt>
      <trkpt lat="45.64486" lon="2.30405">
        <ele>825</ele>
        <time>2019-05-18T17:20:47Z</time>
      </trkpt>
      <trkpt lat="45.64488" lon="2.30402">
        <ele>825</ele>
        <time>2019-05-18T17:20:48Z</time>
      </trkpt>
      <trkpt lat="45.64489" lon="2.304">
        <ele>825</ele>
        <time>2019-05-18T17:20:49Z</time>
      </trkpt>
      <trkpt lat="45.6449" lon="2.30398">
        <ele>825</ele>
        <time>2019-05-18T17:20:50Z</time>
      </trkpt>
      <trkpt lat="45.64491" lon="2.30397">
        <ele>826</ele>
        <time>2019-05-18T17:20:51Z</time>
      </trkpt>
      <trkpt lat="45.64492" lon="2.30395">
        <ele>826</ele>
        <time>2019-05-18T17:20:52Z</time>
      </trkpt>
      <trkpt lat="45.64494" lon="2.30394">
        <ele>826</ele>
        <time>2019-05-18T17:20:53Z</time>
      </trkpt>
      <trkpt lat="45.64495" lon="2.30393">
        <ele>826</ele>
        <time>2019-05-18T17:20:54Z</time>
      </trkpt>
      <trkpt lat="45.64497" lon="2.30392">
        <ele>826</ele>
        <time>2019-05-18T17:20:55Z</time>
      </trkpt>
      <trkpt lat="45.64498" lon="2.30391">
        <ele>826</ele>
        <time>2019-05-18T17:20:56Z</time>
      </trkpt>
      <trkpt lat="45.64499" lon="2.3039">
        <ele>826</ele>
        <time>2019-05-18T17:20:57Z</time>
      </trkpt>
      <trkpt lat="45.645" lon="2.3039">
        <ele>826</ele>
        <time>2019-05-18T17:20:58Z</time>
      </trkpt>
      <trkpt lat="45.64502" lon="2.30388">
        <ele>827</ele>
        <time>2019-05-18T17:20:59Z</time>
      </trkpt>
      <trkpt lat="45.64503" lon="2.30388">
        <ele>827</ele>
        <time>2019-05-18T17:21:00Z</time>
      </trkpt>
      <trkpt lat="45.64505" lon="2.30386">
        <ele>827</ele>
        <time>2019-05-18T17:21:01Z</time>
      </trkpt>
      <trkpt lat="45.64507" lon="2.30386">
        <ele>827</ele>
        <time>2019-05-18T17:21:02Z</time>
      </trkpt>
      <trkpt lat="45.64509" lon="2.30385">
        <ele>827</ele>
        <time>2019-05-18T17:21:03Z</time>
      </trkpt>
      <trkpt lat="45.64511" lon="2.30384">
        <ele>827</ele>
        <time>2019-05-18T17:21:04Z</time>
      </trkpt>
      <trkpt lat="45.64512" lon="2.30384">
        <ele>827</ele>
        <time>2019-05-18T17:21:05Z</time>
      </trkpt>
      <trkpt lat="45.64513" lon="2.30383">
        <ele>828</ele>
        <time>2019-05-18T17:21:06Z</time>
      </trkpt>
      <trkpt lat="45.64515" lon="2.30383">
        <ele>828</ele>
        <time>2019-05-18T17:21:07Z</time>
      </trkpt>
      <trkpt lat="45.64516" lon="2.30382">
        <ele>828</ele>
        <time>2019-05-18T17:21:08Z</time>
      </trkpt>
      <trkpt lat="45.64518" lon="2.30381">
        <ele>828</ele>
        <time>2019-05-18T17:21:09Z</time>
      </trkpt>
      <trkpt lat="45.64519" lon="2.30381">
        <ele>828</ele>
        <time>2019-05-18T17:21:10Z</time>
      </trkpt>
      <trkpt lat="45.64521" lon="2.3038">
        <ele>829</ele>
        <time>2019-05-18T17:21:11Z</time>
      </trkpt>
      <trkpt lat="45.64522" lon="2.30379">
        <ele>829</ele>
        <time>2019-05-18T17:21:12Z</time>
      </trkpt>
      <trkpt lat="45.64523" lon="2.30377">
        <ele>829</ele>
        <time>2019-05-18T17:21:13Z</time>
      </trkpt>
      <trkpt lat="45.64524" lon="2.30376">
        <ele>830</ele>
        <time>2019-05-18T17:21:14Z</time>
      </trkpt>
      <trkpt lat="45.64526" lon="2.30374">
        <ele>830</ele>
        <time>2019-05-18T17:21:15Z</time>
      </trkpt>
      <trkpt lat="45.64527" lon="2.30373">
        <ele>830</ele>
        <time>2019-05-18T17:21:16Z</time>
      </trkpt>
      <trkpt lat="45.64528" lon="2.30371">
        <ele>830</ele>
        <time>2019-05-18T17:21:17Z</time>
      </trkpt>
      <trkpt lat="45.6453" lon="2.3037">
        <ele>831</ele>
        <time>2019-05-18T17:21:18Z</time>
      </trkpt>
      <trkpt lat="45.64532" lon="2.3037">
        <ele>831</ele>
        <time>2019-05-18T17:21:19Z</time>
      </trkpt>
      <trkpt lat="45.64533" lon="2.30369">
        <ele>831</ele>
        <time>2019-05-18T17:21:20Z</time>
      </trkpt>
      <trkpt lat="45.64534" lon="2.30368">
        <ele>831</ele>
        <time>2019-05-18T17:21:21Z</time>
      </trkpt>
      <trkpt lat="45.64536" lon="2.30368">
        <ele>832</ele>
        <time>2019-05-18T17:21:22Z</time>
      </trkpt>
      <trkpt lat="45.64537" lon="2.30367">
        <ele>832</ele>
        <time>2019-05-18T17:21:23Z</time>
      </trkpt>
      <trkpt lat="45.64539" lon="2.30366">
        <ele>832</ele>
        <time>2019-05-18T17:21:24Z</time>
      </trkpt>
      <trkpt lat="45.6454" lon="2.30365">
        <ele>832</ele>
        <time>2019-05-18T17:21:25Z</time>
      </trkpt>
      <trkpt lat="45.64541" lon="2.30365">
        <ele>832</ele>
        <time>2019-05-18T17:21:26Z</time>
      </trkpt>
      <trkpt lat="45.64542" lon="2.30364">
        <ele>833</ele>
        <time>2019-05-18T17:21:27Z</time>
      </trkpt>
      <trkpt lat="45.64544" lon="2.30362">
        <ele>833</ele>
        <time>2019-05-18T17:21:28Z</time>
      </trkpt>
      <trkpt lat="45.64545" lon="2.30361">
        <ele>833</ele>
        <time>2019-05-18T17:21:29Z</time>
      </trkpt>
      <trkpt lat="45.64546" lon="2.30361">
        <ele>833</ele>
        <time>2019-05-18T17:21:30Z</time>
      </trkpt>
      <trkpt lat="45.64547" lon="2.30359">
        <ele>834</ele>
        <time>2019-05-18T17:21:31Z</time>
      </trkpt>
      <trkpt lat="45.64548" lon="2.30358">
        <ele>834</ele>
        <time>2019-05-18T17:21:32Z</time>
      </trkpt>
      <trkpt lat="45.6455" lon="2.30356">
        <ele>834</ele>
        <time>2019-05-18T17:21:33Z</time>
      </trkpt>
      <trkpt lat="45.64551" lon="2.30354">
        <ele>834</ele>
        <time>2019-05-18T17:21:34Z</time>
      </trkpt>
      <trkpt lat="45.64551" lon="2.30352">
        <ele>835</ele>
        <time>2019-05-18T17:21:35Z</time>
      </trkpt>
      <trkpt lat="45.64552" lon="2.3035">
        <ele>835</ele>
        <time>2019-05-18T17:21:36Z</time>
      </trkpt>
      <trkpt lat="45.64553" lon="2.30348">
        <ele>835</ele>
        <time>2019-05-18T17:21:37Z</time>
      </trkpt>
      <trkpt lat="45.64554" lon="2.30347">
        <ele>835</ele>
        <time>2019-05-18T17:21:38Z</time>
      </trkpt>
      <trkpt lat="45.64555" lon="2.30346">
        <ele>835</ele>
        <time>2019-05-18T17:21:39Z</time>
      </trkpt>
      <trkpt lat="45.64556" lon="2.30345">
        <ele>836</ele>
        <time>2019-05-18T17:21:40Z</time>
      </trkpt>
      <trkpt lat="45.64557" lon="2.30344">
        <ele>836</ele>
        <time>2019-05-18T17:21:41Z</time>
      </trkpt>
      <trkpt lat="45.64558" lon="2.30343">
        <ele>836</ele>
        <time>2019-05-18T17:21:42Z</time>
      </trkpt>
      <trkpt lat="45.64559" lon="2.30344">
        <ele>836</ele>
        <time>2019-05-18T17:21:43Z</time>
      </trkpt>
      <trkpt lat="45.64561" lon="2.30343">
        <ele>836</ele>
        <time>2019-05-18T17:21:44Z</time>
      </trkpt>
      <trkpt lat="45.64562" lon="2.30342">
        <ele>836</ele>
        <time>2019-05-18T17:21:45Z</time>
      </trkpt>
      <trkpt lat="45.64564" lon="2.30341">
        <ele>836</ele>
        <time>2019-05-18T17:21:46Z</time>
      </trkpt>
      <trkpt lat="45.64565" lon="2.30341">
        <ele>836</ele>
        <time>2019-05-18T17:21:47Z</time>
      </trkpt>
      <trkpt lat="45.64567" lon="2.3034">
        <ele>836</ele>
        <time>2019-05-18T17:21:48Z</time>
      </trkpt>
      <trkpt lat="45.64568" lon="2.3034">
        <ele>836</ele>
        <time>2019-05-18T17:21:49Z</time>
      </trkpt>
      <trkpt lat="45.64569" lon="2.3034">
        <ele>836</ele>
        <time>2019-05-18T17:21:50Z</time>
      </trkpt>
      <trkpt lat="45.64571" lon="2.3034">
        <ele>836</ele>
        <time>2019-05-18T17:21:51Z</time>
      </trkpt>
      <trkpt lat="45.64572" lon="2.30341">
        <ele>836</ele>
        <time>2019-05-18T17:21:52Z</time>
      </trkpt>
      <trkpt lat="45.64574" lon="2.30342">
        <ele>836</ele>
        <time>2019-05-18T17:21:53Z</time>
      </trkpt>
      <trkpt lat="45.64575" lon="2.30342">
        <ele>836</ele>
        <time>2019-05-18T17:21:54Z</time>
      </trkpt>
      <trkpt lat="45.64576" lon="2.30343">
        <ele>836</ele>
        <time>2019-05-18T17:21:55Z</time>
      </trkpt>
      <trkpt lat="45.64579" lon="2.30344">
        <ele>836</ele>
        <time>2019-05-18T17:21:56Z</time>
      </trkpt>
      <trkpt lat="45.6458" lon="2.30345">
        <ele>836</ele>
        <time>2019-05-18T17:21:57Z</time>
      </trkpt>
      <trkpt lat="45.64582" lon="2.30345">
        <ele>836</ele>
        <time>2019-05-18T17:21:58Z</time>
      </trkpt>
      <trkpt lat="45.64583" lon="2.30347">
        <ele>836</ele>
        <time>2019-05-18T17:21:59Z</time>
      </trkpt>
      <trkpt lat="45.64586" lon="2.30349">
        <ele>836</ele>
        <time>2019-05-18T17:22:00Z</time>
      </trkpt>
      <trkpt lat="45.64588" lon="2.3035">
        <ele>836</ele>
        <time>2019-05-18T17:22:01Z</time>
      </trkpt>
      <trkpt lat="45.64589" lon="2.30351">
        <ele>836</ele>
        <time>2019-05-18T17:22:02Z</time>
      </trkpt>
      <trkpt lat="45.64592" lon="2.30352">
        <ele>836</ele>
        <time>2019-05-18T17:22:03Z</time>
      </trkpt>
      <trkpt lat="45.64595" lon="2.30353">
        <ele>836</ele>
        <time>2019-05-18T17:22:04Z</time>
      </trkpt>
      <trkpt lat="45.64597" lon="2.30355">
        <ele>836</ele>
        <time>2019-05-18T17:22:05Z</time>
      </trkpt>
      <trkpt lat="45.646" lon="2.30357">
        <ele>836</ele>
        <time>2019-05-18T17:22:06Z</time>
      </trkpt>
      <trkpt lat="45.64602" lon="2.30358">
        <ele>835</ele>
        <time>2019-05-18T17:22:07Z</time>
      </trkpt>
      <trkpt lat="45.64605" lon="2.30359">
        <ele>835</ele>
        <time>2019-05-18T17:22:08Z</time>
      </trkpt>
      <trkpt lat="45.64607" lon="2.3036">
        <ele>835</ele>
        <time>2019-05-18T17:22:09Z</time>
      </trkpt>
      <trkpt lat="45.64609" lon="2.30361">
        <ele>835</ele>
        <time>2019-05-18T17:22:10Z</time>
      </trkpt>
      <trkpt lat="45.64611" lon="2.30363">
        <ele>835</ele>
        <time>2019-05-18T17:22:11Z</time>
      </trkpt>
      <trkpt lat="45.64613" lon="2.30364">
        <ele>835</ele>
        <time>2019-05-18T17:22:12Z</time>
      </trkpt>
      <trkpt lat="45.64615" lon="2.30365">
        <ele>835</ele>
        <time>2019-05-18T17:22:13Z</time>
      </trkpt>
      <trkpt lat="45.64618" lon="2.30366">
        <ele>835</ele>
        <time>2019-05-18T17:22:14Z</time>
      </trkpt>
      <trkpt lat="45.64621" lon="2.30367">
        <ele>835</ele>
        <time>2019-05-18T17:22:15Z</time>
      </trkpt>
      <trkpt lat="45.64624" lon="2.30368">
        <ele>835</ele>
        <time>2019-05-18T17:22:16Z</time>
      </trkpt>
      <trkpt lat="45.64627" lon="2.30369">
        <ele>835</ele>
        <time>2019-05-18T17:22:17Z</time>
      </trkpt>
      <trkpt lat="45.6463" lon="2.30371">
        <ele>834</ele>
        <time>2019-05-18T17:22:18Z</time>
      </trkpt>
      <trkpt lat="45.64632" lon="2.30374">
        <ele>834</ele>
        <time>2019-05-18T17:22:19Z</time>
      </trkpt>
      <trkpt lat="45.64635" lon="2.30377">
        <ele>834</ele>
        <time>2019-05-18T17:22:20Z</time>
      </trkpt>
      <trkpt lat="45.64638" lon="2.3038">
        <ele>834</ele>
        <time>2019-05-18T17:22:21Z</time>
      </trkpt>
      <trkpt lat="45.6464" lon="2.30384">
        <ele>833</ele>
        <time>2019-05-18T17:22:22Z</time>
      </trkpt>
      <trkpt lat="45.64642" lon="2.30386">
        <ele>833</ele>
        <time>2019-05-18T17:22:23Z</time>
      </trkpt>
      <trkpt lat="45.64644" lon="2.30389">
        <ele>833</ele>
        <time>2019-05-18T17:22:24Z</time>
      </trkpt>
      <trkpt lat="45.64645" lon="2.30391">
        <ele>833</ele>
        <time>2019-05-18T17:22:25Z</time>
      </trkpt>
      <trkpt lat="45.64646" lon="2.30395">
        <ele>832</ele>
        <time>2019-05-18T17:22:26Z</time>
      </trkpt>
      <trkpt lat="45.64645" lon="2.30398">
        <ele>832</ele>
        <time>2019-05-18T17:22:27Z</time>
      </trkpt>
      <trkpt lat="45.64643" lon="2.30401">
        <ele>832</ele>
        <time>2019-05-18T17:22:28Z</time>
      </trkpt>
      <trkpt lat="45.64642" lon="2.30403">
        <ele>832</ele>
        <time>2019-05-18T17:22:29Z</time>
      </trkpt>
      <trkpt lat="45.6464" lon="2.30406">
        <ele>831</ele>
        <time>2019-05-18T17:22:30Z</time>
      </trkpt>
      <trkpt lat="45.64637" lon="2.3041">
        <ele>831</ele>
        <time>2019-05-18T17:22:31Z</time>
      </trkpt>
      <trkpt lat="45.64635" lon="2.30413">
        <ele>831</ele>
        <time>2019-05-18T17:22:32Z</time>
      </trkpt>
      <trkpt lat="45.64632" lon="2.30419">
        <ele>830</ele>
        <time>2019-05-18T17:22:33Z</time>
      </trkpt>
      <trkpt lat="45.6463" lon="2.30424">
        <ele>830</ele>
        <time>2019-05-18T17:22:34Z</time>
      </trkpt>
      <trkpt lat="45.64626" lon="2.3043">
        <ele>829</ele>
        <time>2019-05-18T17:22:35Z</time>
      </trkpt>
      <trkpt lat="45.64622" lon="2.30436">
        <ele>828</ele>
        <time>2019-05-18T17:22:36Z</time>
      </trkpt>
      <trkpt lat="45.64619" lon="2.30441">
        <ele>828</ele>
        <time>2019-05-18T17:22:37Z</time>
      </trkpt>
      <trkpt lat="45.64616" lon="2.30445">
        <ele>827</ele>
        <time>2019-05-18T17:22:38Z</time>
      </trkpt>
      <trkpt lat="45.64614" lon="2.30449">
        <ele>827</ele>
        <time>2019-05-18T17:22:39Z</time>
      </trkpt>
      <trkpt lat="45.64615" lon="2.30455">
        <ele>826</ele>
        <time>2019-05-18T17:22:40Z</time>
      </trkpt>
      <trkpt lat="45.64617" lon="2.30459">
        <ele>826</ele>
        <time>2019-05-18T17:22:41Z</time>
      </trkpt>
      <trkpt lat="45.64619" lon="2.30463">
        <ele>826</ele>
        <time>2019-05-18T17:22:42Z</time>
      </trkpt>
      <trkpt lat="45.64623" lon="2.30466">
        <ele>825</ele>
        <time>2019-05-18T17:22:43Z</time>
      </trkpt>
      <trkpt lat="45.64625" lon="2.30471">
        <ele>825</ele>
        <time>2019-05-18T17:22:44Z</time>
      </trkpt>
      <trkpt lat="45.64627" lon="2.30476">
        <ele>825</ele>
        <time>2019-05-18T17:22:45Z</time>
      </trkpt>
      <trkpt lat="45.64628" lon="2.30482">
        <ele>824</ele>
        <time>2019-05-18T17:22:46Z</time>
      </trkpt>
      <trkpt lat="45.6463" lon="2.30488">
        <ele>824</ele>
        <time>2019-05-18T17:22:47Z</time>
      </trkpt>
      <trkpt lat="45.64632" lon="2.30494">
        <ele>824</ele>
        <time>2019-05-18T17:22:48Z</time>
      </trkpt>
      <trkpt lat="45.64635" lon="2.30499">
        <ele>824</ele>
        <time>2019-05-18T17:22:49Z</time>
      </trkpt>
      <trkpt lat="45.64637" lon="2.30505">
        <ele>823</ele>
        <time>2019-05-18T17:22:50Z</time>
      </trkpt>
      <trkpt lat="45.6464" lon="2.3051">
        <ele>823</ele>
        <time>2019-05-18T17:22:51Z</time>
      </trkpt>
      <trkpt lat="45.64644" lon="2.30515">
        <ele>823</ele>
        <time>2019-05-18T17:22:52Z</time>
      </trkpt>
      <trkpt lat="45.64648" lon="2.30519">
        <ele>823</ele>
        <time>2019-05-18T17:22:53Z</time>
      </trkpt>
      <trkpt lat="45.64653" lon="2.30521">
        <ele>823</ele>
        <time>2019-05-18T17:22:54Z</time>
      </trkpt>
      <trkpt lat="45.64657" lon="2.30523">
        <ele>822</ele>
        <time>2019-05-18T17:22:55Z</time>
      </trkpt>
      <trkpt lat="45.64662" lon="2.30522">
        <ele>821</ele>
        <time>2019-05-18T17:22:56Z</time>
      </trkpt>
      <trkpt lat="45.64667" lon="2.30524">
        <ele>821</ele>
        <time>2019-05-18T17:22:57Z</time>
      </trkpt>
      <trkpt lat="45.64672" lon="2.30526">
        <ele>820</ele>
        <time>2019-05-18T17:22:58Z</time>
      </trkpt>
      <trkpt lat="45.64677" lon="2.30528">
        <ele>820</ele>
        <time>2019-05-18T17:22:59Z</time>
      </trkpt>
      <trkpt lat="45.64683" lon="2.30532">
        <ele>819</ele>
        <time>2019-05-18T17:23:00Z</time>
      </trkpt>
      <trkpt lat="45.64688" lon="2.30536">
        <ele>819</ele>
        <time>2019-05-18T17:23:01Z</time>
      </trkpt>
      <trkpt lat="45.64694" lon="2.30542">
        <ele>818</ele>
        <time>2019-05-18T17:23:02Z</time>
      </trkpt>
      <trkpt lat="45.647" lon="2.30547">
        <ele>818</ele>
        <time>2019-05-18T17:23:03Z</time>
      </trkpt>
      <trkpt lat="45.64705" lon="2.30553">
        <ele>818</ele>
        <time>2019-05-18T17:23:04Z</time>
      </trkpt>
      <trkpt lat="45.64708" lon="2.30561">
        <ele>817</ele>
        <time>2019-05-18T17:23:05Z</time>
      </trkpt>
      <trkpt lat="45.64712" lon="2.30568">
        <ele>817</ele>
        <time>2019-05-18T17:23:06Z</time>
      </trkpt>
      <trkpt lat="45.64715" lon="2.30575">
        <ele>817</ele>
        <time>2019-05-18T17:23:07Z</time>
      </trkpt>
      <trkpt lat="45.64717" lon="2.30583">
        <ele>816</ele>
        <time>2019-05-18T17:23:08Z</time>
      </trkpt>
      <trkpt lat="45.64721" lon="2.30592">
        <ele>816</ele>
        <time>2019-05-18T17:23:09Z</time>
      </trkpt>
      <trkpt lat="45.64726" lon="2.306">
        <ele>815</ele>
        <time>2019-05-18T17:23:10Z</time>
      </trkpt>
      <trkpt lat="45.6473" lon="2.3061">
        <ele>814</ele>
        <time>2019-05-18T17:23:11Z</time>
      </trkpt>
      <trkpt lat="45.64734" lon="2.3062">
        <ele>813</ele>
        <time>2019-05-18T17:23:12Z</time>
      </trkpt>
      <trkpt lat="45.64739" lon="2.30628">
        <ele>813</ele>
        <time>2019-05-18T17:23:13Z</time>
      </trkpt>
      <trkpt lat="45.64742" lon="2.30634">
        <ele>812</ele>
        <time>2019-05-18T17:23:14Z</time>
      </trkpt>
      <trkpt lat="45.64745" lon="2.30639">
        <ele>812</ele>
        <time>2019-05-18T17:23:15Z</time>
      </trkpt>
      <trkpt lat="45.64748" lon="2.30642">
        <ele>812</ele>
        <time>2019-05-18T17:23:16Z</time>
      </trkpt>
      <trkpt lat="45.64753" lon="2.30643">
        <ele>812</ele>
        <time>2019-05-18T17:23:17Z</time>
      </trkpt>
      <trkpt lat="45.64756" lon="2.30643">
        <ele>812</ele>
        <time>2019-05-18T17:23:18Z</time>
      </trkpt>
      <trkpt lat="45.64758" lon="2.30641">
        <ele>812</ele>
        <time>2019-05-18T17:23:19Z</time>
      </trkpt>
      <trkpt lat="45.64761" lon="2.3064">
        <ele>813</ele>
        <time>2019-05-18T17:23:20Z</time>
      </trkpt>
      <trkpt lat="45.64763" lon="2.30638">
        <ele>813</ele>
        <time>2019-05-18T17:23:21Z</time>
      </trkpt>
      <trkpt lat="45.64766" lon="2.30638">
        <ele>813</ele>
        <time>2019-05-18T17:23:22Z</time>
      </trkpt>
      <trkpt lat="45.64769" lon="2.30637">
        <ele>813</ele>
        <time>2019-05-18T17:23:23Z</time>
      </trkpt>
      <trkpt lat="45.64771" lon="2.30636">
        <ele>813</ele>
        <time>2019-05-18T17:23:24Z</time>
      </trkpt>
      <trkpt lat="45.64773" lon="2.30635">
        <ele>813</ele>
        <time>2019-05-18T17:23:25Z</time>
      </trkpt>
      <trkpt lat="45.64775" lon="2.30634">
        <ele>813</ele>
        <time>2019-05-18T17:23:26Z</time>
      </trkpt>
      <trkpt lat="45.64777" lon="2.30632">
        <ele>815</ele>
        <time>2019-05-18T17:23:27Z</time>
      </trkpt>
      <trkpt lat="45.64778" lon="2.30631">
        <ele>810</ele>
        <time>2019-05-18T17:23:28Z</time>
      </trkpt>
      <trkpt lat="45.6478" lon="2.30631">
        <ele>814</ele>
        <time>2019-05-18T17:23:29Z</time>
      </trkpt>
      <trkpt lat="45.64782" lon="2.3063">
        <ele>816</ele>
        <time>2019-05-18T17:23:30Z</time>
      </trkpt>
      <trkpt lat="45.64784" lon="2.30628">
        <ele>814</ele>
        <time>2019-05-18T17:23:31Z</time>
      </trkpt>
      <trkpt lat="45.64786" lon="2.30626">
        <ele>813</ele>
        <time>2019-05-18T17:23:32Z</time>
      </trkpt>
      <trkpt lat="45.64789" lon="2.30623">
        <ele>813</ele>
        <time>2019-05-18T17:23:33Z</time>
      </trkpt>
      <trkpt lat="45.64792" lon="2.30621">
        <ele>812</ele>
        <time>2019-05-18T17:23:34Z</time>
      </trkpt>
      <trkpt lat="45.64795" lon="2.3062">
        <ele>815</ele>
        <time>2019-05-18T17:23:35Z</time>
      </trkpt>
      <trkpt lat="45.64799" lon="2.30618">
        <ele>811</ele>
        <time>2019-05-18T17:23:36Z</time>
      </trkpt>
      <trkpt lat="45.64802" lon="2.30616">
        <ele>814</ele>
        <time>2019-05-18T17:23:37Z</time>
      </trkpt>
      <trkpt lat="45.64804" lon="2.30614">
        <ele>813</ele>
        <time>2019-05-18T17:23:38Z</time>
      </trkpt>
      <trkpt lat="45.64806" lon="2.30612">
        <ele>813</ele>
        <time>2019-05-18T17:23:39Z</time>
      </trkpt>
      <trkpt lat="45.64809" lon="2.30611">
        <ele>812</ele>
        <time>2019-05-18T17:23:40Z</time>
      </trkpt>
      <trkpt lat="45.64811" lon="2.3061">
        <ele>812</ele>
        <time>2019-05-18T17:23:41Z</time>
      </trkpt>
      <trkpt lat="45.64814" lon="2.30608">
        <ele>812</ele>
        <time>2019-05-18T17:23:42Z</time>
      </trkpt>
      <trkpt lat="45.64816" lon="2.30607">
        <ele>804</ele>
        <time>2019-05-18T17:23:43Z</time>
      </trkpt>
      <trkpt lat="45.64822" lon="2.30603">
        <ele>812</ele>
        <time>2019-05-18T17:23:44Z</time>
      </trkpt>
      <trkpt lat="45.64826" lon="2.30603">
        <ele>812</ele>
        <time>2019-05-18T17:23:46Z</time>
      </trkpt>
      <trkpt lat="45.64831" lon="2.30603">
        <ele>811</ele>
        <time>2019-05-18T17:23:47Z</time>
      </trkpt>
      <trkpt lat="45.64837" lon="2.30605">
        <ele>811</ele>
        <time>2019-05-18T17:23:48Z</time>
      </trkpt>
      <trkpt lat="45.64842" lon="2.30608">
        <ele>810</ele>
        <time>2019-05-18T17:23:49Z</time>
      </trkpt>
      <trkpt lat="45.64847" lon="2.30612">
        <ele>810</ele>
        <time>2019-05-18T17:23:50Z</time>
      </trkpt>
      <trkpt lat="45.64851" lon="2.30616">
        <ele>811</ele>
        <time>2019-05-18T17:23:51Z</time>
      </trkpt>
      <trkpt lat="45.64854" lon="2.3062">
        <ele>811</ele>
        <time>2019-05-18T17:23:52Z</time>
      </trkpt>
      <trkpt lat="45.64858" lon="2.30624">
        <ele>811</ele>
        <time>2019-05-18T17:23:53Z</time>
      </trkpt>
      <trkpt lat="45.64861" lon="2.30627">
        <ele>811</ele>
        <time>2019-05-18T17:23:54Z</time>
      </trkpt>
      <trkpt lat="45.64865" lon="2.30631">
        <ele>811</ele>
        <time>2019-05-18T17:23:55Z</time>
      </trkpt>
      <trkpt lat="45.64869" lon="2.30634">
        <ele>810</ele>
        <time>2019-05-18T17:23:56Z</time>
      </trkpt>
      <trkpt lat="45.64872" lon="2.30637">
        <ele>810</ele>
        <time>2019-05-18T17:23:57Z</time>
      </trkpt>
      <trkpt lat="45.64875" lon="2.3064">
        <ele>810</ele>
        <time>2019-05-18T17:23:58Z</time>
      </trkpt>
      <trkpt lat="45.64878" lon="2.30643">
        <ele>810</ele>
        <time>2019-05-18T17:23:59Z</time>
      </trkpt>
      <trkpt lat="45.64882" lon="2.30646">
        <ele>810</ele>
        <time>2019-05-18T17:24:00Z</time>
      </trkpt>
      <trkpt lat="45.64885" lon="2.3065">
        <ele>810</ele>
        <time>2019-05-18T17:24:01Z</time>
      </trkpt>
      <trkpt lat="45.64888" lon="2.30653">
        <ele>810</ele>
        <time>2019-05-18T17:24:02Z</time>
      </trkpt>
      <trkpt lat="45.64891" lon="2.30656">
        <ele>810</ele>
        <time>2019-05-18T17:24:03Z</time>
      </trkpt>
      <trkpt lat="45.64895" lon="2.30659">
        <ele>810</ele>
        <time>2019-05-18T17:24:04Z</time>
      </trkpt>
      <trkpt lat="45.64898" lon="2.30662">
        <ele>810</ele>
        <time>2019-05-18T17:24:05Z</time>
      </trkpt>
      <trkpt lat="45.64901" lon="2.30665">
        <ele>810</ele>
        <time>2019-05-18T17:24:06Z</time>
      </trkpt>
      <trkpt lat="45.64904" lon="2.30668">
        <ele>810</ele>
        <time>2019-05-18T17:24:07Z</time>
      </trkpt>
      <trkpt lat="45.64907" lon="2.30671">
        <ele>810</ele>
        <time>2019-05-18T17:24:08Z</time>
      </trkpt>
      <trkpt lat="45.6491" lon="2.30675">
        <ele>810</ele>
        <time>2019-05-18T17:24:09Z</time>
      </trkpt>
      <trkpt lat="45.64912" lon="2.30679">
        <ele>810</ele>
        <time>2019-05-18T17:24:10Z</time>
      </trkpt>
      <trkpt lat="45.64913" lon="2.30683">
        <ele>810</ele>
        <time>2019-05-18T17:24:11Z</time>
      </trkpt>
      <trkpt lat="45.64914" lon="2.30687">
        <ele>810</ele>
        <time>2019-05-18T17:24:12Z</time>
      </trkpt>
      <trkpt lat="45.64914" lon="2.30691">
        <ele>810</ele>
        <time>2019-05-18T17:24:13Z</time>
      </trkpt>
      <trkpt lat="45.64914" lon="2.30695">
        <ele>810</ele>
        <time>2019-05-18T17:24:14Z</time>
      </trkpt>
      <trkpt lat="45.64913" lon="2.30699">
        <ele>809</ele>
        <time>2019-05-18T17:24:15Z</time>
      </trkpt>
      <trkpt lat="45.64911" lon="2.30704">
        <ele>809</ele>
        <time>2019-05-18T17:24:16Z</time>
      </trkpt>
      <trkpt lat="45.64909" lon="2.30708">
        <ele>809</ele>
        <time>2019-05-18T17:24:17Z</time>
      </trkpt>
      <trkpt lat="45.64907" lon="2.30713">
        <ele>809</ele>
        <time>2019-05-18T17:24:18Z</time>
      </trkpt>
      <trkpt lat="45.64904" lon="2.30716">
        <ele>809</ele>
        <time>2019-05-18T17:24:19Z</time>
      </trkpt>
      <trkpt lat="45.64902" lon="2.30721">
        <ele>808</ele>
        <time>2019-05-18T17:24:20Z</time>
      </trkpt>
      <trkpt lat="45.64899" lon="2.30725">
        <ele>808</ele>
        <time>2019-05-18T17:24:21Z</time>
      </trkpt>
      <trkpt lat="45.64896" lon="2.30729">
        <ele>807</ele>
        <time>2019-05-18T17:24:22Z</time>
      </trkpt>
      <trkpt lat="45.64892" lon="2.30734">
        <ele>807</ele>
        <time>2019-05-18T17:24:23Z</time>
      </trkpt>
      <trkpt lat="45.64889" lon="2.30738">
        <ele>807</ele>
        <time>2019-05-18T17:24:24Z</time>
      </trkpt>
      <trkpt lat="45.64886" lon="2.30743">
        <ele>806</ele>
        <time>2019-05-18T17:24:25Z</time>
      </trkpt>
      <trkpt lat="45.64882" lon="2.30747">
        <ele>806</ele>
        <time>2019-05-18T17:24:26Z</time>
      </trkpt>
      <trkpt lat="45.64878" lon="2.30749">
        <ele>806</ele>
        <time>2019-05-18T17:24:27Z</time>
      </trkpt>
      <trkpt lat="45.64874" lon="2.30751">
        <ele>806</ele>
        <time>2019-05-18T17:24:28Z</time>
      </trkpt>
      <trkpt lat="45.6487" lon="2.30751">
        <ele>806</ele>
        <time>2019-05-18T17:24:29Z</time>
      </trkpt>
      <trkpt lat="45.64866" lon="2.3075">
        <ele>806</ele>
        <time>2019-05-18T17:24:30Z</time>
      </trkpt>
      <trkpt lat="45.64861" lon="2.30748">
        <ele>805</ele>
        <time>2019-05-18T17:24:31Z</time>
      </trkpt>
      <trkpt lat="45.64857" lon="2.30748">
        <ele>805</ele>
        <time>2019-05-18T17:24:32Z</time>
      </trkpt>
      <trkpt lat="45.64854" lon="2.30748">
        <ele>805</ele>
        <time>2019-05-18T17:24:33Z</time>
      </trkpt>
      <trkpt lat="45.6485" lon="2.30749">
        <ele>805</ele>
        <time>2019-05-18T17:24:34Z</time>
      </trkpt>
      <trkpt lat="45.64845" lon="2.30751">
        <ele>805</ele>
        <time>2019-05-18T17:24:35Z</time>
      </trkpt>
      <trkpt lat="45.64841" lon="2.30751">
        <ele>805</ele>
        <time>2019-05-18T17:24:36Z</time>
      </trkpt>
      <trkpt lat="45.64837" lon="2.30752">
        <ele>805</ele>
        <time>2019-05-18T17:24:37Z</time>
      </trkpt>
      <trkpt lat="45.64833" lon="2.30754">
        <ele>805</ele>
        <time>2019-05-18T17:24:38Z</time>
      </trkpt>
      <trkpt lat="45.64829" lon="2.30755">
        <ele>805</ele>
        <time>2019-05-18T17:24:39Z</time>
      </trkpt>
      <trkpt lat="45.64825" lon="2.30757">
        <ele>805</ele>
        <time>2019-05-18T17:24:40Z</time>
      </trkpt>
      <trkpt lat="45.64822" lon="2.30759">
        <ele>805</ele>
        <time>2019-05-18T17:24:41Z</time>
      </trkpt>
      <trkpt lat="45.64818" lon="2.3076">
        <ele>804</ele>
        <time>2019-05-18T17:24:42Z</time>
      </trkpt>
      <trkpt lat="45.64815" lon="2.30761">
        <ele>804</ele>
        <time>2019-05-18T17:24:43Z</time>
      </trkpt>
      <trkpt lat="45.64812" lon="2.30763">
        <ele>804</ele>
        <time>2019-05-18T17:24:44Z</time>
      </trkpt>
      <trkpt lat="45.64809" lon="2.30766">
        <ele>804</ele>
        <time>2019-05-18T17:24:45Z</time>
      </trkpt>
      <trkpt lat="45.64806" lon="2.30767">
        <ele>804</ele>
        <time>2019-05-18T17:24:46Z</time>
      </trkpt>
      <trkpt lat="45.64803" lon="2.30769">
        <ele>804</ele>
        <time>2019-05-18T17:24:47Z</time>
      </trkpt>
      <trkpt lat="45.64798" lon="2.30771">
        <ele>804</ele>
        <time>2019-05-18T17:24:48Z</time>
      </trkpt>
      <trkpt lat="45.64795" lon="2.30774">
        <ele>804</ele>
        <time>2019-05-18T17:24:49Z</time>
      </trkpt>
      <trkpt lat="45.64791" lon="2.30778">
        <ele>804</ele>
        <time>2019-05-18T17:24:50Z</time>
      </trkpt>
      <trkpt lat="45.64787" lon="2.30781">
        <ele>804</ele>
        <time>2019-05-18T17:24:51Z</time>
      </trkpt>
      <trkpt lat="45.64783" lon="2.30785">
        <ele>803</ele>
        <time>2019-05-18T17:24:52Z</time>
      </trkpt>
      <trkpt lat="45.64779" lon="2.30789">
        <ele>803</ele>
        <time>2019-05-18T17:24:53Z</time>
      </trkpt>
      <trkpt lat="45.64775" lon="2.30793">
        <ele>803</ele>
        <time>2019-05-18T17:24:54Z</time>
      </trkpt>
      <trkpt lat="45.64771" lon="2.30796">
        <ele>803</ele>
        <time>2019-05-18T17:24:55Z</time>
      </trkpt>
      <trkpt lat="45.64767" lon="2.308">
        <ele>803</ele>
        <time>2019-05-18T17:24:56Z</time>
      </trkpt>
      <trkpt lat="45.64763" lon="2.30804">
        <ele>804</ele>
        <time>2019-05-18T17:24:57Z</time>
      </trkpt>
      <trkpt lat="45.6476" lon="2.30807">
        <ele>804</ele>
        <time>2019-05-18T17:24:58Z</time>
      </trkpt>
      <trkpt lat="45.64756" lon="2.3081">
        <ele>804</ele>
        <time>2019-05-18T17:24:59Z</time>
      </trkpt>
      <trkpt lat="45.64753" lon="2.30813">
        <ele>804</ele>
        <time>2019-05-18T17:25:00Z</time>
      </trkpt>
      <trkpt lat="45.6475" lon="2.30817">
        <ele>804</ele>
        <time>2019-05-18T17:25:01Z</time>
      </trkpt>
      <trkpt lat="45.64747" lon="2.3082">
        <ele>804</ele>
        <time>2019-05-18T17:25:02Z</time>
      </trkpt>
      <trkpt lat="45.64743" lon="2.30824">
        <ele>804</ele>
        <time>2019-05-18T17:25:03Z</time>
      </trkpt>
      <trkpt lat="45.6474" lon="2.30827">
        <ele>804</ele>
        <time>2019-05-18T17:25:04Z</time>
      </trkpt>
      <trkpt lat="45.64737" lon="2.30831">
        <ele>803</ele>
        <time>2019-05-18T17:25:05Z</time>
      </trkpt>
      <trkpt lat="45.64733" lon="2.30834">
        <ele>803</ele>
        <time>2019-05-18T17:25:06Z</time>
      </trkpt>
      <trkpt lat="45.64729" lon="2.30838">
        <ele>803</ele>
        <time>2019-05-18T17:25:07Z</time>
      </trkpt>
      <trkpt lat="45.64725" lon="2.30842">
        <ele>803</ele>
        <time>2019-05-18T17:25:08Z</time>
      </trkpt>
      <trkpt lat="45.64721" lon="2.30846">
        <ele>802</ele>
        <time>2019-05-18T17:25:09Z</time>
      </trkpt>
      <trkpt lat="45.64717" lon="2.30851">
        <ele>802</ele>
        <time>2019-05-18T17:25:10Z</time>
      </trkpt>
      <trkpt lat="45.64712" lon="2.30856">
        <ele>802</ele>
        <time>2019-05-18T17:25:11Z</time>
      </trkpt>
      <trkpt lat="45.64708" lon="2.30861">
        <ele>801</ele>
        <time>2019-05-18T17:25:12Z</time>
      </trkpt>
      <trkpt lat="45.64704" lon="2.30867">
        <ele>801</ele>
        <time>2019-05-18T17:25:13Z</time>
      </trkpt>
      <trkpt lat="45.647" lon="2.30873">
        <ele>800</ele>
        <time>2019-05-18T17:25:14Z</time>
      </trkpt>
      <trkpt lat="45.64696" lon="2.30879">
        <ele>800</ele>
        <time>2019-05-18T17:25:15Z</time>
      </trkpt>
      <trkpt lat="45.64693" lon="2.30885">
        <ele>800</ele>
        <time>2019-05-18T17:25:16Z</time>
      </trkpt>
      <trkpt lat="45.64689" lon="2.30892">
        <ele>799</ele>
        <time>2019-05-18T17:25:17Z</time>
      </trkpt>
      <trkpt lat="45.64687" lon="2.309">
        <ele>799</ele>
        <time>2019-05-18T17:25:18Z</time>
      </trkpt>
      <trkpt lat="45.64684" lon="2.30907">
        <ele>799</ele>
        <time>2019-05-18T17:25:19Z</time>
      </trkpt>
      <trkpt lat="45.64683" lon="2.30914">
        <ele>799</ele>
        <time>2019-05-18T17:25:20Z</time>
      </trkpt>
      <trkpt lat="45.64682" lon="2.30922">
        <ele>799</ele>
        <time>2019-05-18T17:25:21Z</time>
      </trkpt>
      <trkpt lat="45.64682" lon="2.30929">
        <ele>799</ele>
        <time>2019-05-18T17:25:22Z</time>
      </trkpt>
      <trkpt lat="45.64682" lon="2.30936">
        <ele>799</ele>
        <time>2019-05-18T17:25:23Z</time>
      </trkpt>
      <trkpt lat="45.64681" lon="2.30942">
        <ele>799</ele>
        <time>2019-05-18T17:25:24Z</time>
      </trkpt>
      <trkpt lat="45.64679" lon="2.30948">
        <ele>799</ele>
        <time>2019-05-18T17:25:25Z</time>
      </trkpt>
      <trkpt lat="45.64678" lon="2.30954">
        <ele>799</ele>
        <time>2019-05-18T17:25:26Z</time>
      </trkpt>
      <trkpt lat="45.64676" lon="2.30961">
        <ele>799</ele>
        <time>2019-05-18T17:25:27Z</time>
      </trkpt>
      <trkpt lat="45.64674" lon="2.30967">
        <ele>799</ele>
        <time>2019-05-18T17:25:28Z</time>
      </trkpt>
      <trkpt lat="45.64673" lon="2.30973">
        <ele>799</ele>
        <time>2019-05-18T17:25:29Z</time>
      </trkpt>
      <trkpt lat="45.64671" lon="2.30979">
        <ele>799</ele>
        <time>2019-05-18T17:25:30Z</time>
      </trkpt>
      <trkpt lat="45.64669" lon="2.30984">
        <ele>799</ele>
        <time>2019-05-18T17:25:31Z</time>
      </trkpt>
      <trkpt lat="45.64666" lon="2.30988">
        <ele>799</ele>
        <time>2019-05-18T17:25:32Z</time>
      </trkpt>
      <trkpt lat="45.64664" lon="2.30992">
        <ele>799</ele>
        <time>2019-05-18T17:25:33Z</time>
      </trkpt>
      <trkpt lat="45.64661" lon="2.30996">
        <ele>799</ele>
        <time>2019-05-18T17:25:34Z</time>
      </trkpt>
      <trkpt lat="45.64659" lon="2.31">
        <ele>798</ele>
        <time>2019-05-18T17:25:35Z</time>
      </trkpt>
      <trkpt lat="45.64656" lon="2.31005">
        <ele>798</ele>
        <time>2019-05-18T17:25:36Z</time>
      </trkpt>
      <trkpt lat="45.64654" lon="2.3101">
        <ele>798</ele>
        <time>2019-05-18T17:25:37Z</time>
      </trkpt>
      <trkpt lat="45.64651" lon="2.31015">
        <ele>797</ele>
        <time>2019-05-18T17:25:38Z</time>
      </trkpt>
      <trkpt lat="45.64647" lon="2.3102">
        <ele>797</ele>
        <time>2019-05-18T17:25:39Z</time>
      </trkpt>
      <trkpt lat="45.64643" lon="2.31026">
        <ele>796</ele>
        <time>2019-05-18T17:25:40Z</time>
      </trkpt>
      <trkpt lat="45.64641" lon="2.31033">
        <ele>796</ele>
        <time>2019-05-18T17:25:41Z</time>
      </trkpt>
      <trkpt lat="45.6464" lon="2.3104">
        <ele>796</ele>
        <time>2019-05-18T17:25:42Z</time>
      </trkpt>
      <trkpt lat="45.6464" lon="2.31048">
        <ele>797</ele>
        <time>2019-05-18T17:25:43Z</time>
      </trkpt>
      <trkpt lat="45.64641" lon="2.31054">
        <ele>797</ele>
        <time>2019-05-18T17:25:44Z</time>
      </trkpt>
      <trkpt lat="45.64642" lon="2.31059">
        <ele>797</ele>
        <time>2019-05-18T17:25:45Z</time>
      </trkpt>
      <trkpt lat="45.64643" lon="2.31063">
        <ele>797</ele>
        <time>2019-05-18T17:25:46Z</time>
      </trkpt>
      <trkpt lat="45.64645" lon="2.31068">
        <ele>797</ele>
        <time>2019-05-18T17:25:47Z</time>
      </trkpt>
      <trkpt lat="45.64646" lon="2.31072">
        <ele>797</ele>
        <time>2019-05-18T17:25:48Z</time>
      </trkpt>
      <trkpt lat="45.64648" lon="2.31075">
        <ele>798</ele>
        <time>2019-05-18T17:25:49Z</time>
      </trkpt>
      <trkpt lat="45.64649" lon="2.31078">
        <ele>798</ele>
        <time>2019-05-18T17:25:50Z</time>
      </trkpt>
      <trkpt lat="45.64651" lon="2.31081">
        <ele>798</ele>
        <time>2019-05-18T17:25:51Z</time>
      </trkpt>
      <trkpt lat="45.64651" lon="2.31083">
        <ele>798</ele>
        <time>2019-05-18T17:25:52Z</time>
      </trkpt>
      <trkpt lat="45.64653" lon="2.31084">
        <ele>798</ele>
        <time>2019-05-18T17:25:53Z</time>
      </trkpt>
      <trkpt lat="45.64654" lon="2.31086">
        <ele>799</ele>
        <time>2019-05-18T17:25:54Z</time>
      </trkpt>
      <trkpt lat="45.64655" lon="2.31088">
        <ele>799</ele>
        <time>2019-05-18T17:25:55Z</time>
      </trkpt>
      <trkpt lat="45.64656" lon="2.3109">
        <ele>799</ele>
        <time>2019-05-18T17:25:56Z</time>
      </trkpt>
      <trkpt lat="45.64658" lon="2.31091">
        <ele>799</ele>
        <time>2019-05-18T17:25:57Z</time>
      </trkpt>
      <trkpt lat="45.64659" lon="2.31093">
        <ele>799</ele>
        <time>2019-05-18T17:25:58Z</time>
      </trkpt>
      <trkpt lat="45.6466" lon="2.31094">
        <ele>802</ele>
        <time>2019-05-18T17:25:59Z</time>
      </trkpt>
      <trkpt lat="45.64661" lon="2.31096">
        <ele>800</ele>
        <time>2019-05-18T17:26:00Z</time>
      </trkpt>
      <trkpt lat="45.64663" lon="2.31098">
        <ele>800</ele>
        <time>2019-05-18T17:26:01Z</time>
      </trkpt>
      <trkpt lat="45.64664" lon="2.311">
        <ele>800</ele>
        <time>2019-05-18T17:26:02Z</time>
      </trkpt>
      <trkpt lat="45.64665" lon="2.31102">
        <ele>800</ele>
        <time>2019-05-18T17:26:03Z</time>
      </trkpt>
      <trkpt lat="45.64667" lon="2.31104">
        <ele>800</ele>
        <time>2019-05-18T17:26:04Z</time>
      </trkpt>
      <trkpt lat="45.64668" lon="2.31105">
        <ele>800</ele>
        <time>2019-05-18T17:26:05Z</time>
      </trkpt>
      <trkpt lat="45.64669" lon="2.31107">
        <ele>801</ele>
        <time>2019-05-18T17:26:06Z</time>
      </trkpt>
      <trkpt lat="45.6467" lon="2.31109">
        <ele>801</ele>
        <time>2019-05-18T17:26:07Z</time>
      </trkpt>
      <trkpt lat="45.64671" lon="2.31111">
        <ele>801</ele>
        <time>2019-05-18T17:26:08Z</time>
      </trkpt>
      <trkpt lat="45.64673" lon="2.31112">
        <ele>801</ele>
        <time>2019-05-18T17:26:09Z</time>
      </trkpt>
      <trkpt lat="45.64674" lon="2.31114">
        <ele>801</ele>
        <time>2019-05-18T17:26:10Z</time>
      </trkpt>
      <trkpt lat="45.64675" lon="2.31117">
        <ele>801</ele>
        <time>2019-05-18T17:26:11Z</time>
      </trkpt>
      <trkpt lat="45.64676" lon="2.31119">
        <ele>802</ele>
        <time>2019-05-18T17:26:12Z</time>
      </trkpt>
      <trkpt lat="45.64677" lon="2.31121">
        <ele>802</ele>
        <time>2019-05-18T17:26:13Z</time>
      </trkpt>
      <trkpt lat="45.64679" lon="2.31122">
        <ele>802</ele>
        <time>2019-05-18T17:26:14Z</time>
      </trkpt>
      <trkpt lat="45.6468" lon="2.31124">
        <ele>802</ele>
        <time>2019-05-18T17:26:15Z</time>
      </trkpt>
      <trkpt lat="45.64681" lon="2.31125">
        <ele>802</ele>
        <time>2019-05-18T17:26:16Z</time>
      </trkpt>
      <trkpt lat="45.64682" lon="2.31128">
        <ele>802</ele>
        <time>2019-05-18T17:26:17Z</time>
      </trkpt>
      <trkpt lat="45.64683" lon="2.3113">
        <ele>802</ele>
        <time>2019-05-18T17:26:18Z</time>
      </trkpt>
      <trkpt lat="45.64684" lon="2.31132">
        <ele>803</ele>
        <time>2019-05-18T17:26:19Z</time>
      </trkpt>
      <trkpt lat="45.64685" lon="2.31134">
        <ele>803</ele>
        <time>2019-05-18T17:26:20Z</time>
      </trkpt>
      <trkpt lat="45.64686" lon="2.31136">
        <ele>803</ele>
        <time>2019-05-18T17:26:21Z</time>
      </trkpt>
      <trkpt lat="45.64687" lon="2.31138">
        <ele>803</ele>
        <time>2019-05-18T17:26:22Z</time>
      </trkpt>
      <trkpt lat="45.64688" lon="2.3114">
        <ele>803</ele>
        <time>2019-05-18T17:26:23Z</time>
      </trkpt>
      <trkpt lat="45.64689" lon="2.31141">
        <ele>803</ele>
        <time>2019-05-18T17:26:24Z</time>
      </trkpt>
      <trkpt lat="45.6469" lon="2.31142">
        <ele>803</ele>
        <time>2019-05-18T17:26:25Z</time>
      </trkpt>
      <trkpt lat="45.64691" lon="2.31144">
        <ele>803</ele>
        <time>2019-05-18T17:26:26Z</time>
      </trkpt>
      <trkpt lat="45.64692" lon="2.31146">
        <ele>804</ele>
        <time>2019-05-18T17:26:27Z</time>
      </trkpt>
      <trkpt lat="45.64692" lon="2.31148">
        <ele>804</ele>
        <time>2019-05-18T17:26:28Z</time>
      </trkpt>
      <trkpt lat="45.64693" lon="2.3115">
        <ele>804</ele>
        <time>2019-05-18T17:26:29Z</time>
      </trkpt>
      <trkpt lat="45.64694" lon="2.31151">
        <ele>804</ele>
        <time>2019-05-18T17:26:30Z</time>
      </trkpt>
      <trkpt lat="45.64696" lon="2.31153">
        <ele>804</ele>
        <time>2019-05-18T17:26:31Z</time>
      </trkpt>
      <trkpt lat="45.64697" lon="2.31156">
        <ele>804</ele>
        <time>2019-05-18T17:26:32Z</time>
      </trkpt>
      <trkpt lat="45.64699" lon="2.31158">
        <ele>804</ele>
        <time>2019-05-18T17:26:33Z</time>
      </trkpt>
      <trkpt lat="45.647" lon="2.3116">
        <ele>804</ele>
        <time>2019-05-18T17:26:34Z</time>
      </trkpt>
      <trkpt lat="45.647" lon="2.31162">
        <ele>804</ele>
        <time>2019-05-18T17:26:35Z</time>
      </trkpt>
      <trkpt lat="45.64701" lon="2.31163">
        <ele>804</ele>
        <time>2019-05-18T17:26:36Z</time>
      </trkpt>
      <trkpt lat="45.64702" lon="2.31164">
        <ele>804</ele>
        <time>2019-05-18T17:26:37Z</time>
      </trkpt>
      <trkpt lat="45.64702" lon="2.31166">
        <ele>804</ele>
        <time>2019-05-18T17:26:38Z</time>
      </trkpt>
      <trkpt lat="45.64703" lon="2.31168">
        <ele>804</ele>
        <time>2019-05-18T17:26:39Z</time>
      </trkpt>
      <trkpt lat="45.64703" lon="2.31169">
        <ele>804</ele>
        <time>2019-05-18T17:26:40Z</time>
      </trkpt>
      <trkpt lat="45.64704" lon="2.31171">
        <ele>805</ele>
        <time>2019-05-18T17:26:41Z</time>
      </trkpt>
      <trkpt lat="45.64705" lon="2.31172">
        <ele>805</ele>
        <time>2019-05-18T17:26:42Z</time>
      </trkpt>
      <trkpt lat="45.64707" lon="2.31174">
        <ele>805</ele>
        <time>2019-05-18T17:26:43Z</time>
      </trkpt>
      <trkpt lat="45.64707" lon="2.31176">
        <ele>805</ele>
        <time>2019-05-18T17:26:44Z</time>
      </trkpt>
      <trkpt lat="45.64708" lon="2.31178">
        <ele>805</ele>
        <time>2019-05-18T17:26:45Z</time>
      </trkpt>
      <trkpt lat="45.64708" lon="2.3118">
        <ele>805</ele>
        <time>2019-05-18T17:26:46Z</time>
      </trkpt>
      <trkpt lat="45.64709" lon="2.31182">
        <ele>805</ele>
        <time>2019-05-18T17:26:47Z</time>
      </trkpt>
      <trkpt lat="45.6471" lon="2.31183">
        <ele>805</ele>
        <time>2019-05-18T17:26:48Z</time>
      </trkpt>
      <trkpt lat="45.64711" lon="2.31185">
        <ele>805</ele>
        <time>2019-05-18T17:26:49Z</time>
      </trkpt>
      <trkpt lat="45.64712" lon="2.31188">
        <ele>805</ele>
        <time>2019-05-18T17:26:50Z</time>
      </trkpt>
      <trkpt lat="45.64714" lon="2.31191">
        <ele>806</ele>
        <time>2019-05-18T17:26:51Z</time>
      </trkpt>
      <trkpt lat="45.64714" lon="2.31193">
        <ele>806</ele>
        <time>2019-05-18T17:26:52Z</time>
      </trkpt>
      <trkpt lat="45.64715" lon="2.31195">
        <ele>806</ele>
        <time>2019-05-18T17:26:53Z</time>
      </trkpt>
      <trkpt lat="45.64715" lon="2.31196">
        <ele>806</ele>
        <time>2019-05-18T17:26:54Z</time>
      </trkpt>
      <trkpt lat="45.64716" lon="2.31198">
        <ele>806</ele>
        <time>2019-05-18T17:26:55Z</time>
      </trkpt>
      <trkpt lat="45.64717" lon="2.312">
        <ele>806</ele>
        <time>2019-05-18T17:26:56Z</time>
      </trkpt>
      <trkpt lat="45.64718" lon="2.31202">
        <ele>806</ele>
        <time>2019-05-18T17:26:57Z</time>
      </trkpt>
      <trkpt lat="45.64718" lon="2.31203">
        <ele>806</ele>
        <time>2019-05-18T17:26:58Z</time>
      </trkpt>
      <trkpt lat="45.64719" lon="2.31205">
        <ele>806</ele>
        <time>2019-05-18T17:26:59Z</time>
      </trkpt>
      <trkpt lat="45.6472" lon="2.31208">
        <ele>806</ele>
        <time>2019-05-18T17:27:00Z</time>
      </trkpt>
      <trkpt lat="45.64722" lon="2.31211">
        <ele>806</ele>
        <time>2019-05-18T17:27:01Z</time>
      </trkpt>
      <trkpt lat="45.64722" lon="2.31212">
        <ele>806</ele>
        <time>2019-05-18T17:27:02Z</time>
      </trkpt>
      <trkpt lat="45.64723" lon="2.31214">
        <ele>807</ele>
        <time>2019-05-18T17:27:03Z</time>
      </trkpt>
      <trkpt lat="45.64724" lon="2.31217">
        <ele>806</ele>
        <time>2019-05-18T17:27:04Z</time>
      </trkpt>
      <trkpt lat="45.64724" lon="2.3122">
        <ele>807</ele>
        <time>2019-05-18T17:27:05Z</time>
      </trkpt>
      <trkpt lat="45.64725" lon="2.31223">
        <ele>807</ele>
        <time>2019-05-18T17:27:06Z</time>
      </trkpt>
      <trkpt lat="45.64726" lon="2.31225">
        <ele>807</ele>
        <time>2019-05-18T17:27:07Z</time>
      </trkpt>
      <trkpt lat="45.64726" lon="2.31227">
        <ele>807</ele>
        <time>2019-05-18T17:27:08Z</time>
      </trkpt>
      <trkpt lat="45.64727" lon="2.31229">
        <ele>807</ele>
        <time>2019-05-18T17:27:09Z</time>
      </trkpt>
      <trkpt lat="45.64729" lon="2.31232">
        <ele>807</ele>
        <time>2019-05-18T17:27:10Z</time>
      </trkpt>
      <trkpt lat="45.6473" lon="2.31234">
        <ele>807</ele>
        <time>2019-05-18T17:27:11Z</time>
      </trkpt>
      <trkpt lat="45.64731" lon="2.31238">
        <ele>807</ele>
        <time>2019-05-18T17:27:12Z</time>
      </trkpt>
      <trkpt lat="45.64732" lon="2.31242">
        <ele>807</ele>
        <time>2019-05-18T17:27:13Z</time>
      </trkpt>
      <trkpt lat="45.64733" lon="2.31246">
        <ele>807</ele>
        <time>2019-05-18T17:27:14Z</time>
      </trkpt>
      <trkpt lat="45.64734" lon="2.31249">
        <ele>807</ele>
        <time>2019-05-18T17:27:15Z</time>
      </trkpt>
      <trkpt lat="45.64734" lon="2.31251">
        <ele>807</ele>
        <time>2019-05-18T17:27:16Z</time>
      </trkpt>
      <trkpt lat="45.64735" lon="2.31254">
        <ele>807</ele>
        <time>2019-05-18T17:27:17Z</time>
      </trkpt>
      <trkpt lat="45.64736" lon="2.31257">
        <ele>807</ele>
        <time>2019-05-18T17:27:18Z</time>
      </trkpt>
      <trkpt lat="45.64737" lon="2.31259">
        <ele>807</ele>
        <time>2019-05-18T17:27:19Z</time>
      </trkpt>
      <trkpt lat="45.64738" lon="2.31263">
        <ele>807</ele>
        <time>2019-05-18T17:27:20Z</time>
      </trkpt>
      <trkpt lat="45.6474" lon="2.31267">
        <ele>807</ele>
        <time>2019-05-18T17:27:21Z</time>
      </trkpt>
      <trkpt lat="45.64741" lon="2.31271">
        <ele>807</ele>
        <time>2019-05-18T17:27:22Z</time>
      </trkpt>
      <trkpt lat="45.64743" lon="2.31275">
        <ele>807</ele>
        <time>2019-05-18T17:27:23Z</time>
      </trkpt>
      <trkpt lat="45.64745" lon="2.31279">
        <ele>807</ele>
        <time>2019-05-18T17:27:24Z</time>
      </trkpt>
      <trkpt lat="45.64745" lon="2.31282">
        <ele>807</ele>
        <time>2019-05-18T17:27:25Z</time>
      </trkpt>
      <trkpt lat="45.64746" lon="2.31285">
        <ele>807</ele>
        <time>2019-05-18T17:27:26Z</time>
      </trkpt>
      <trkpt lat="45.64747" lon="2.31289">
        <ele>807</ele>
        <time>2019-05-18T17:27:27Z</time>
      </trkpt>
      <trkpt lat="45.64748" lon="2.31293">
        <ele>807</ele>
        <time>2019-05-18T17:27:28Z</time>
      </trkpt>
      <trkpt lat="45.64749" lon="2.31296">
        <ele>807</ele>
        <time>2019-05-18T17:27:29Z</time>
      </trkpt>
      <trkpt lat="45.6475" lon="2.31297">
        <ele>807</ele>
        <time>2019-05-18T17:27:30Z</time>
      </trkpt>
      <trkpt lat="45.64751" lon="2.313">
        <ele>807</ele>
        <time>2019-05-18T17:27:31Z</time>
      </trkpt>
      <trkpt lat="45.64751" lon="2.31302">
        <ele>808</ele>
        <time>2019-05-18T17:27:32Z</time>
      </trkpt>
      <trkpt lat="45.64751" lon="2.31304">
        <ele>808</ele>
        <time>2019-05-18T17:27:33Z</time>
      </trkpt>
      <trkpt lat="45.64752" lon="2.31307">
        <ele>808</ele>
        <time>2019-05-18T17:27:34Z</time>
      </trkpt>
      <trkpt lat="45.64753" lon="2.31308">
        <ele>808</ele>
        <time>2019-05-18T17:27:35Z</time>
      </trkpt>
      <trkpt lat="45.64754" lon="2.3131">
        <ele>808</ele>
        <time>2019-05-18T17:27:36Z</time>
      </trkpt>
      <trkpt lat="45.64756" lon="2.31313">
        <ele>808</ele>
        <time>2019-05-18T17:27:37Z</time>
      </trkpt>
      <trkpt lat="45.64758" lon="2.31315">
        <ele>808</ele>
        <time>2019-05-18T17:27:38Z</time>
      </trkpt>
      <trkpt lat="45.6476" lon="2.31319">
        <ele>808</ele>
        <time>2019-05-18T17:27:39Z</time>
      </trkpt>
      <trkpt lat="45.64761" lon="2.31322">
        <ele>809</ele>
        <time>2019-05-18T17:27:40Z</time>
      </trkpt>
      <trkpt lat="45.64763" lon="2.31325">
        <ele>809</ele>
        <time>2019-05-18T17:27:41Z</time>
      </trkpt>
      <trkpt lat="45.64764" lon="2.31329">
        <ele>809</ele>
        <time>2019-05-18T17:27:42Z</time>
      </trkpt>
      <trkpt lat="45.64766" lon="2.31331">
        <ele>809</ele>
        <time>2019-05-18T17:27:43Z</time>
      </trkpt>
      <trkpt lat="45.64768" lon="2.31333">
        <ele>809</ele>
        <time>2019-05-18T17:27:44Z</time>
      </trkpt>
      <trkpt lat="45.64768" lon="2.31336">
        <ele>809</ele>
        <time>2019-05-18T17:27:45Z</time>
      </trkpt>
      <trkpt lat="45.64769" lon="2.31339">
        <ele>810</ele>
        <time>2019-05-18T17:27:46Z</time>
      </trkpt>
      <trkpt lat="45.64771" lon="2.31342">
        <ele>810</ele>
        <time>2019-05-18T17:27:47Z</time>
      </trkpt>
      <trkpt lat="45.64773" lon="2.31344">
        <ele>810</ele>
        <time>2019-05-18T17:27:48Z</time>
      </trkpt>
      <trkpt lat="45.64774" lon="2.31346">
        <ele>810</ele>
        <time>2019-05-18T17:27:49Z</time>
      </trkpt>
      <trkpt lat="45.64776" lon="2.31349">
        <ele>810</ele>
        <time>2019-05-18T17:27:50Z</time>
      </trkpt>
      <trkpt lat="45.64778" lon="2.3135">
        <ele>810</ele>
        <time>2019-05-18T17:27:51Z</time>
      </trkpt>
      <trkpt lat="45.64779" lon="2.31352">
        <ele>811</ele>
        <time>2019-05-18T17:27:52Z</time>
      </trkpt>
      <trkpt lat="45.6478" lon="2.31354">
        <ele>811</ele>
        <time>2019-05-18T17:27:53Z</time>
      </trkpt>
      <trkpt lat="45.64781" lon="2.31356">
        <ele>811</ele>
        <time>2019-05-18T17:27:54Z</time>
      </trkpt>
      <trkpt lat="45.64782" lon="2.31358">
        <ele>811</ele>
        <time>2019-05-18T17:27:55Z</time>
      </trkpt>
      <trkpt lat="45.64783" lon="2.3136">
        <ele>811</ele>
        <time>2019-05-18T17:27:56Z</time>
      </trkpt>
      <trkpt lat="45.64784" lon="2.31362">
        <ele>811</ele>
        <time>2019-05-18T17:27:57Z</time>
      </trkpt>
      <trkpt lat="45.64786" lon="2.31363">
        <ele>812</ele>
        <time>2019-05-18T17:27:58Z</time>
      </trkpt>
      <trkpt lat="45.64787" lon="2.31364">
        <ele>812</ele>
        <time>2019-05-18T17:27:59Z</time>
      </trkpt>
      <trkpt lat="45.64788" lon="2.31365">
        <ele>812</ele>
        <time>2019-05-18T17:28:00Z</time>
      </trkpt>
      <trkpt lat="45.64789" lon="2.31365">
        <ele>812</ele>
        <time>2019-05-18T17:28:01Z</time>
      </trkpt>
      <trkpt lat="45.6479" lon="2.31365">
        <ele>813</ele>
        <time>2019-05-18T17:28:02Z</time>
      </trkpt>
      <trkpt lat="45.64791" lon="2.31366">
        <ele>813</ele>
        <time>2019-05-18T17:28:03Z</time>
      </trkpt>
      <trkpt lat="45.64793" lon="2.31366">
        <ele>813</ele>
        <time>2019-05-18T17:28:04Z</time>
      </trkpt>
      <trkpt lat="45.64794" lon="2.31366">
        <ele>813</ele>
        <time>2019-05-18T17:28:05Z</time>
      </trkpt>
      <trkpt lat="45.64795" lon="2.31367">
        <ele>813</ele>
        <time>2019-05-18T17:28:06Z</time>
      </trkpt>
      <trkpt lat="45.64796" lon="2.31368">
        <ele>814</ele>
        <time>2019-05-18T17:28:07Z</time>
      </trkpt>
      <trkpt lat="45.64797" lon="2.31368">
        <ele>814</ele>
        <time>2019-05-18T17:28:08Z</time>
      </trkpt>
      <trkpt lat="45.64798" lon="2.31369">
        <ele>814</ele>
        <time>2019-05-18T17:28:09Z</time>
      </trkpt>
      <trkpt lat="45.648" lon="2.31369">
        <ele>814</ele>
        <time>2019-05-18T17:28:10Z</time>
      </trkpt>
      <trkpt lat="45.64801" lon="2.3137">
        <ele>814</ele>
        <time>2019-05-18T17:28:11Z</time>
      </trkpt>
      <trkpt lat="45.64802" lon="2.3137">
        <ele>815</ele>
        <time>2019-05-18T17:28:12Z</time>
      </trkpt>
      <trkpt lat="45.64803" lon="2.31371">
        <ele>815</ele>
        <time>2019-05-18T17:28:13Z</time>
      </trkpt>
      <trkpt lat="45.64804" lon="2.31371">
        <ele>815</ele>
        <time>2019-05-18T17:28:14Z</time>
      </trkpt>
      <trkpt lat="45.64805" lon="2.31371">
        <ele>815</ele>
        <time>2019-05-18T17:28:15Z</time>
      </trkpt>
      <trkpt lat="45.64805" lon="2.31371">
        <ele>815</ele>
        <time>2019-05-18T17:28:16Z</time>
      </trkpt>
      <trkpt lat="45.64806" lon="2.31371">
        <ele>816</ele>
        <time>2019-05-18T17:28:17Z</time>
      </trkpt>
      <trkpt lat="45.64806" lon="2.31372">
        <ele>816</ele>
        <time>2019-05-18T17:28:18Z</time>
      </trkpt>
      <trkpt lat="45.64807" lon="2.31371">
        <ele>816</ele>
        <time>2019-05-18T17:28:19Z</time>
      </trkpt>
      <trkpt lat="45.64808" lon="2.31371">
        <ele>816</ele>
        <time>2019-05-18T17:28:20Z</time>
      </trkpt>
      <trkpt lat="45.64809" lon="2.31372">
        <ele>816</ele>
        <time>2019-05-18T17:28:21Z</time>
      </trkpt>
      <trkpt lat="45.6481" lon="2.31373">
        <ele>817</ele>
        <time>2019-05-18T17:28:22Z</time>
      </trkpt>
      <trkpt lat="45.64853" lon="2.31411">
        <ele>825</ele>
        <time>2019-05-18T17:29:06Z</time>
      </trkpt>
      <trkpt lat="45.64854" lon="2.31413">
        <ele>825</ele>
        <time>2019-05-18T17:29:07Z</time>
      </trkpt>
      <trkpt lat="45.64855" lon="2.31415">
        <ele>825</ele>
        <time>2019-05-18T17:29:08Z</time>
      </trkpt>
      <trkpt lat="45.64855" lon="2.31416">
        <ele>825</ele>
        <time>2019-05-18T17:29:09Z</time>
      </trkpt>
      <trkpt lat="45.64856" lon="2.31417">
        <ele>825</ele>
        <time>2019-05-18T17:29:10Z</time>
      </trkpt>
      <trkpt lat="45.64857" lon="2.31418">
        <ele>825</ele>
        <time>2019-05-18T17:29:11Z</time>
      </trkpt>
      <trkpt lat="45.64857" lon="2.3142">
        <ele>826</ele>
        <time>2019-05-18T17:29:12Z</time>
      </trkpt>
      <trkpt lat="45.64858" lon="2.31422">
        <ele>826</ele>
        <time>2019-05-18T17:29:13Z</time>
      </trkpt>
      <trkpt lat="45.64859" lon="2.31423">
        <ele>826</ele>
        <time>2019-05-18T17:29:14Z</time>
      </trkpt>
      <trkpt lat="45.6486" lon="2.31425">
        <ele>826</ele>
        <time>2019-05-18T17:29:15Z</time>
      </trkpt>
      <trkpt lat="45.64861" lon="2.31427">
        <ele>826</ele>
        <time>2019-05-18T17:29:16Z</time>
      </trkpt>
      <trkpt lat="45.64862" lon="2.31428">
        <ele>826</ele>
        <time>2019-05-18T17:29:17Z</time>
      </trkpt>
      <trkpt lat="45.64863" lon="2.3143">
        <ele>826</ele>
        <time>2019-05-18T17:29:18Z</time>
      </trkpt>
      <trkpt lat="45.64864" lon="2.31432">
        <ele>826</ele>
        <time>2019-05-18T17:29:19Z</time>
      </trkpt>
      <trkpt lat="45.64865" lon="2.31433">
        <ele>827</ele>
        <time>2019-05-18T17:29:20Z</time>
      </trkpt>
      <trkpt lat="45.64866" lon="2.31435">
        <ele>827</ele>
        <time>2019-05-18T17:29:21Z</time>
      </trkpt>
      <trkpt lat="45.64866" lon="2.31436">
        <ele>827</ele>
        <time>2019-05-18T17:29:22Z</time>
      </trkpt>
      <trkpt lat="45.64867" lon="2.31438">
        <ele>827</ele>
        <time>2019-05-18T17:29:23Z</time>
      </trkpt>
      <trkpt lat="45.64868" lon="2.31439">
        <ele>827</ele>
        <time>2019-05-18T17:29:24Z</time>
      </trkpt>
      <trkpt lat="45.64868" lon="2.3144">
        <ele>827</ele>
        <time>2019-05-18T17:29:25Z</time>
      </trkpt>
      <trkpt lat="45.64869" lon="2.31442">
        <ele>827</ele>
        <time>2019-05-18T17:29:26Z</time>
      </trkpt>
      <trkpt lat="45.6487" lon="2.31444">
        <ele>827</ele>
        <time>2019-05-18T17:29:27Z</time>
      </trkpt>
      <trkpt lat="45.6487" lon="2.31446">
        <ele>828</ele>
        <time>2019-05-18T17:29:28Z</time>
      </trkpt>
      <trkpt lat="45.64871" lon="2.31447">
        <ele>828</ele>
        <time>2019-05-18T17:29:29Z</time>
      </trkpt>
      <trkpt lat="45.64872" lon="2.31448">
        <ele>828</ele>
        <time>2019-05-18T17:29:30Z</time>
      </trkpt>
      <trkpt lat="45.64873" lon="2.3145">
        <ele>828</ele>
        <time>2019-05-18T17:29:31Z</time>
      </trkpt>
      <trkpt lat="45.64874" lon="2.31452">
        <ele>828</ele>
        <time>2019-05-18T17:29:32Z</time>
      </trkpt>
      <trkpt lat="45.64874" lon="2.31453">
        <ele>828</ele>
        <time>2019-05-18T17:29:33Z</time>
      </trkpt>
      <trkpt lat="45.64874" lon="2.31454">
        <ele>829</ele>
        <time>2019-05-18T17:29:34Z</time>
      </trkpt>
      <trkpt lat="45.64875" lon="2.31456">
        <ele>829</ele>
        <time>2019-05-18T17:29:35Z</time>
      </trkpt>
      <trkpt lat="45.64876" lon="2.31456">
        <ele>829</ele>
        <time>2019-05-18T17:29:36Z</time>
      </trkpt>
      <trkpt lat="45.64876" lon="2.31458">
        <ele>829</ele>
        <time>2019-05-18T17:29:37Z</time>
      </trkpt>
      <trkpt lat="45.64877" lon="2.31459">
        <ele>829</ele>
        <time>2019-05-18T17:29:38Z</time>
      </trkpt>
      <trkpt lat="45.64878" lon="2.31459">
        <ele>829</ele>
        <time>2019-05-18T17:29:39Z</time>
      </trkpt>
      <trkpt lat="45.64879" lon="2.3146">
        <ele>830</ele>
        <time>2019-05-18T17:29:40Z</time>
      </trkpt>
      <trkpt lat="45.64879" lon="2.31461">
        <ele>830</ele>
        <time>2019-05-18T17:29:41Z</time>
      </trkpt>
      <trkpt lat="45.64879" lon="2.31462">
        <ele>830</ele>
        <time>2019-05-18T17:29:42Z</time>
      </trkpt>
      <trkpt lat="45.6488" lon="2.31463">
        <ele>830</ele>
        <time>2019-05-18T17:29:43Z</time>
      </trkpt>
      <trkpt lat="45.64881" lon="2.31463">
        <ele>830</ele>
        <time>2019-05-18T17:29:44Z</time>
      </trkpt>
      <trkpt lat="45.64881" lon="2.31464">
        <ele>830</ele>
        <time>2019-05-18T17:29:45Z</time>
      </trkpt>
      <trkpt lat="45.64882" lon="2.31464">
        <ele>831</ele>
        <time>2019-05-18T17:29:46Z</time>
      </trkpt>
      <trkpt lat="45.64883" lon="2.31464">
        <ele>831</ele>
        <time>2019-05-18T17:29:47Z</time>
      </trkpt>
      <trkpt lat="45.64884" lon="2.31465">
        <ele>831</ele>
        <time>2019-05-18T17:29:48Z</time>
      </trkpt>
      <trkpt lat="45.6491" lon="2.31505">
        <ele>835</ele>
        <time>2019-05-18T17:30:17Z</time>
      </trkpt>
      <trkpt lat="45.64911" lon="2.31506">
        <ele>835</ele>
        <time>2019-05-18T17:30:18Z</time>
      </trkpt>
      <trkpt lat="45.64912" lon="2.31507">
        <ele>836</ele>
        <time>2019-05-18T17:30:19Z</time>
      </trkpt>
      <trkpt lat="45.64913" lon="2.31509">
        <ele>836</ele>
        <time>2019-05-18T17:30:20Z</time>
      </trkpt>
      <trkpt lat="45.64914" lon="2.3151">
        <ele>836</ele>
        <time>2019-05-18T17:30:21Z</time>
      </trkpt>
      <trkpt lat="45.64915" lon="2.31511">
        <ele>836</ele>
        <time>2019-05-18T17:30:22Z</time>
      </trkpt>
      <trkpt lat="45.64916" lon="2.31512">
        <ele>836</ele>
        <time>2019-05-18T17:30:23Z</time>
      </trkpt>
      <trkpt lat="45.64917" lon="2.31514">
        <ele>836</ele>
        <time>2019-05-18T17:30:24Z</time>
      </trkpt>
      <trkpt lat="45.64918" lon="2.31515">
        <ele>836</ele>
        <time>2019-05-18T17:30:25Z</time>
      </trkpt>
      <trkpt lat="45.6492" lon="2.31516">
        <ele>836</ele>
        <time>2019-05-18T17:30:26Z</time>
      </trkpt>
      <trkpt lat="45.6492" lon="2.31517">
        <ele>836</ele>
        <time>2019-05-18T17:30:27Z</time>
      </trkpt>
      <trkpt lat="45.64921" lon="2.31518">
        <ele>837</ele>
        <time>2019-05-18T17:30:28Z</time>
      </trkpt>
      <trkpt lat="45.64922" lon="2.31518">
        <ele>837</ele>
        <time>2019-05-18T17:30:29Z</time>
      </trkpt>
      <trkpt lat="45.64922" lon="2.31519">
        <ele>837</ele>
        <time>2019-05-18T17:30:30Z</time>
      </trkpt>
      <trkpt lat="45.64922" lon="2.3152">
        <ele>837</ele>
        <time>2019-05-18T17:30:31Z</time>
      </trkpt>
      <trkpt lat="45.64923" lon="2.31522">
        <ele>837</ele>
        <time>2019-05-18T17:30:32Z</time>
      </trkpt>
      <trkpt lat="45.64924" lon="2.31523">
        <ele>837</ele>
        <time>2019-05-18T17:30:33Z</time>
      </trkpt>
      <trkpt lat="45.64924" lon="2.31524">
        <ele>837</ele>
        <time>2019-05-18T17:30:34Z</time>
      </trkpt>
      <trkpt lat="45.64925" lon="2.31525">
        <ele>837</ele>
        <time>2019-05-18T17:30:35Z</time>
      </trkpt>
      <trkpt lat="45.64926" lon="2.31526">
        <ele>838</ele>
        <time>2019-05-18T17:30:36Z</time>
      </trkpt>
      <trkpt lat="45.64928" lon="2.31527">
        <ele>838</ele>
        <time>2019-05-18T17:30:37Z</time>
      </trkpt>
      <trkpt lat="45.64929" lon="2.3153">
        <ele>838</ele>
        <time>2019-05-18T17:30:38Z</time>
      </trkpt>
      <trkpt lat="45.6493" lon="2.31531">
        <ele>838</ele>
        <time>2019-05-18T17:30:39Z</time>
      </trkpt>
      <trkpt lat="45.64932" lon="2.31534">
        <ele>838</ele>
        <time>2019-05-18T17:30:40Z</time>
      </trkpt>
      <trkpt lat="45.64933" lon="2.31535">
        <ele>838</ele>
        <time>2019-05-18T17:30:41Z</time>
      </trkpt>
      <trkpt lat="45.64934" lon="2.31537">
        <ele>838</ele>
        <time>2019-05-18T17:30:42Z</time>
      </trkpt>
      <trkpt lat="45.64934" lon="2.31538">
        <ele>839</ele>
        <time>2019-05-18T17:30:43Z</time>
      </trkpt>
      <trkpt lat="45.64935" lon="2.31539">
        <ele>839</ele>
        <time>2019-05-18T17:30:44Z</time>
      </trkpt>
      <trkpt lat="45.64936" lon="2.3154">
        <ele>839</ele>
        <time>2019-05-18T17:30:45Z</time>
      </trkpt>
      <trkpt lat="45.64937" lon="2.31541">
        <ele>839</ele>
        <time>2019-05-18T17:30:46Z</time>
      </trkpt>
      <trkpt lat="45.64938" lon="2.31542">
        <ele>839</ele>
        <time>2019-05-18T17:30:47Z</time>
      </trkpt>
      <trkpt lat="45.64939" lon="2.31543">
        <ele>839</ele>
        <time>2019-05-18T17:30:48Z</time>
      </trkpt>
      <trkpt lat="45.64939" lon="2.31544">
        <ele>840</ele>
        <time>2019-05-18T17:30:49Z</time>
      </trkpt>
      <trkpt lat="45.64939" lon="2.31545">
        <ele>840</ele>
        <time>2019-05-18T17:30:50Z</time>
      </trkpt>
      <trkpt lat="45.64941" lon="2.31546">
        <ele>840</ele>
        <time>2019-05-18T17:30:51Z</time>
      </trkpt>
      <trkpt lat="45.64941" lon="2.31548">
        <ele>840</ele>
        <time>2019-05-18T17:30:52Z</time>
      </trkpt>
      <trkpt lat="45.64942" lon="2.31549">
        <ele>840</ele>
        <time>2019-05-18T17:30:53Z</time>
      </trkpt>
      <trkpt lat="45.64942" lon="2.31551">
        <ele>840</ele>
        <time>2019-05-18T17:30:54Z</time>
      </trkpt>
      <trkpt lat="45.64943" lon="2.31553">
        <ele>840</ele>
        <time>2019-05-18T17:30:55Z</time>
      </trkpt>
      <trkpt lat="45.64944" lon="2.31554">
        <ele>840</ele>
        <time>2019-05-18T17:30:56Z</time>
      </trkpt>
      <trkpt lat="45.64945" lon="2.31556">
        <ele>841</ele>
        <time>2019-05-18T17:30:57Z</time>
      </trkpt>
      <trkpt lat="45.64946" lon="2.31558">
        <ele>841</ele>
        <time>2019-05-18T17:30:58Z</time>
      </trkpt>
      <trkpt lat="45.64947" lon="2.3156">
        <ele>841</ele>
        <time>2019-05-18T17:30:59Z</time>
      </trkpt>
      <trkpt lat="45.64947" lon="2.31562">
        <ele>841</ele>
        <time>2019-05-18T17:31:00Z</time>
      </trkpt>
      <trkpt lat="45.64948" lon="2.31565">
        <ele>841</ele>
        <time>2019-05-18T17:31:01Z</time>
      </trkpt>
      <trkpt lat="45.64949" lon="2.31566">
        <ele>841</ele>
        <time>2019-05-18T17:31:02Z</time>
      </trkpt>
      <trkpt lat="45.6495" lon="2.31568">
        <ele>841</ele>
        <time>2019-05-18T17:31:03Z</time>
      </trkpt>
      <trkpt lat="45.64951" lon="2.31569">
        <ele>842</ele>
        <time>2019-05-18T17:31:04Z</time>
      </trkpt>
      <trkpt lat="45.64951" lon="2.31571">
        <ele>842</ele>
        <time>2019-05-18T17:31:05Z</time>
      </trkpt>
      <trkpt lat="45.64952" lon="2.31573">
        <ele>842</ele>
        <time>2019-05-18T17:31:06Z</time>
      </trkpt>
      <trkpt lat="45.64953" lon="2.31575">
        <ele>842</ele>
        <time>2019-05-18T17:31:07Z</time>
      </trkpt>
      <trkpt lat="45.64954" lon="2.31577">
        <ele>842</ele>
        <time>2019-05-18T17:31:08Z</time>
      </trkpt>
      <trkpt lat="45.64954" lon="2.31579">
        <ele>842</ele>
        <time>2019-05-18T17:31:09Z</time>
      </trkpt>
      <trkpt lat="45.64955" lon="2.31581">
        <ele>842</ele>
        <time>2019-05-18T17:31:10Z</time>
      </trkpt>
      <trkpt lat="45.64956" lon="2.31583">
        <ele>843</ele>
        <time>2019-05-18T17:31:11Z</time>
      </trkpt>
      <trkpt lat="45.64956" lon="2.31586">
        <ele>843</ele>
        <time>2019-05-18T17:31:12Z</time>
      </trkpt>
      <trkpt lat="45.64956" lon="2.31588">
        <ele>843</ele>
        <time>2019-05-18T17:31:13Z</time>
      </trkpt>
      <trkpt lat="45.64956" lon="2.3159">
        <ele>843</ele>
        <time>2019-05-18T17:31:14Z</time>
      </trkpt>
      <trkpt lat="45.64957" lon="2.31592">
        <ele>843</ele>
        <time>2019-05-18T17:31:15Z</time>
      </trkpt>
      <trkpt lat="45.64958" lon="2.31594">
        <ele>843</ele>
        <time>2019-05-18T17:31:16Z</time>
      </trkpt>
      <trkpt lat="45.64958" lon="2.31597">
        <ele>843</ele>
        <time>2019-05-18T17:31:17Z</time>
      </trkpt>
      <trkpt lat="45.64958" lon="2.31598">
        <ele>843</ele>
        <time>2019-05-18T17:31:18Z</time>
      </trkpt>
      <trkpt lat="45.64959" lon="2.316">
        <ele>844</ele>
        <time>2019-05-18T17:31:19Z</time>
      </trkpt>
      <trkpt lat="45.64959" lon="2.31602">
        <ele>844</ele>
        <time>2019-05-18T17:31:20Z</time>
      </trkpt>
      <trkpt lat="45.6496" lon="2.31604">
        <ele>844</ele>
        <time>2019-05-18T17:31:21Z</time>
      </trkpt>
      <trkpt lat="45.6496" lon="2.31606">
        <ele>844</ele>
        <time>2019-05-18T17:31:22Z</time>
      </trkpt>
      <trkpt lat="45.6496" lon="2.31607">
        <ele>844</ele>
        <time>2019-05-18T17:31:23Z</time>
      </trkpt>
      <trkpt lat="45.6496" lon="2.3161">
        <ele>844</ele>
        <time>2019-05-18T17:31:24Z</time>
      </trkpt>
      <trkpt lat="45.64961" lon="2.31612">
        <ele>844</ele>
        <time>2019-05-18T17:31:25Z</time>
      </trkpt>
      <trkpt lat="45.64961" lon="2.31613">
        <ele>844</ele>
        <time>2019-05-18T17:31:26Z</time>
      </trkpt>
      <trkpt lat="45.64962" lon="2.31615">
        <ele>845</ele>
        <time>2019-05-18T17:31:27Z</time>
      </trkpt>
      <trkpt lat="45.64963" lon="2.31616">
        <ele>845</ele>
        <time>2019-05-18T17:31:28Z</time>
      </trkpt>
      <trkpt lat="45.64963" lon="2.31618">
        <ele>845</ele>
        <time>2019-05-18T17:31:29Z</time>
      </trkpt>
      <trkpt lat="45.64964" lon="2.3162">
        <ele>845</ele>
        <time>2019-05-18T17:31:30Z</time>
      </trkpt>
      <trkpt lat="45.64964" lon="2.31621">
        <ele>845</ele>
        <time>2019-05-18T17:31:31Z</time>
      </trkpt>
      <trkpt lat="45.64965" lon="2.31622">
        <ele>845</ele>
        <time>2019-05-18T17:31:32Z</time>
      </trkpt>
      <trkpt lat="45.64966" lon="2.31624">
        <ele>845</ele>
        <time>2019-05-18T17:31:33Z</time>
      </trkpt>
      <trkpt lat="45.64967" lon="2.31626">
        <ele>845</ele>
        <time>2019-05-18T17:31:34Z</time>
      </trkpt>
      <trkpt lat="45.64968" lon="2.31627">
        <ele>846</ele>
        <time>2019-05-18T17:31:35Z</time>
      </trkpt>
      <trkpt lat="45.64969" lon="2.31629">
        <ele>846</ele>
        <time>2019-05-18T17:31:36Z</time>
      </trkpt>
      <trkpt lat="45.6497" lon="2.31629">
        <ele>846</ele>
        <time>2019-05-18T17:31:37Z</time>
      </trkpt>
      <trkpt lat="45.64971" lon="2.31631">
        <ele>846</ele>
        <time>2019-05-18T17:31:38Z</time>
      </trkpt>
      <trkpt lat="45.64972" lon="2.31632">
        <ele>846</ele>
        <time>2019-05-18T17:31:39Z</time>
      </trkpt>
      <trkpt lat="45.64973" lon="2.31634">
        <ele>846</ele>
        <time>2019-05-18T17:31:40Z</time>
      </trkpt>
      <trkpt lat="45.64974" lon="2.31635">
        <ele>846</ele>
        <time>2019-05-18T17:31:41Z</time>
      </trkpt>
      <trkpt lat="45.64974" lon="2.31636">
        <ele>846</ele>
        <time>2019-05-18T17:31:42Z</time>
      </trkpt>
      <trkpt lat="45.64975" lon="2.31637">
        <ele>847</ele>
        <time>2019-05-18T17:31:43Z</time>
      </trkpt>
      <trkpt lat="45.64975" lon="2.31638">
        <ele>847</ele>
        <time>2019-05-18T17:31:44Z</time>
      </trkpt>
      <trkpt lat="45.64976" lon="2.31639">
        <ele>847</ele>
        <time>2019-05-18T17:31:45Z</time>
      </trkpt>
      <trkpt lat="45.64976" lon="2.3164">
        <ele>847</ele>
        <time>2019-05-18T17:31:46Z</time>
      </trkpt>
      <trkpt lat="45.64977" lon="2.31642">
        <ele>847</ele>
        <time>2019-05-18T17:31:47Z</time>
      </trkpt>
      <trkpt lat="45.64978" lon="2.31643">
        <ele>847</ele>
        <time>2019-05-18T17:31:48Z</time>
      </trkpt>
      <trkpt lat="45.64978" lon="2.31644">
        <ele>847</ele>
        <time>2019-05-18T17:31:49Z</time>
      </trkpt>
      <trkpt lat="45.64978" lon="2.31645">
        <ele>848</ele>
        <time>2019-05-18T17:31:50Z</time>
      </trkpt>
      <trkpt lat="45.64979" lon="2.31646">
        <ele>848</ele>
        <time>2019-05-18T17:31:51Z</time>
      </trkpt>
      <trkpt lat="45.6498" lon="2.31648">
        <ele>848</ele>
        <time>2019-05-18T17:31:52Z</time>
      </trkpt>
      <trkpt lat="45.6498" lon="2.31649">
        <ele>848</ele>
        <time>2019-05-18T17:31:53Z</time>
      </trkpt>
      <trkpt lat="45.64981" lon="2.31651">
        <ele>848</ele>
        <time>2019-05-18T17:31:54Z</time>
      </trkpt>
      <trkpt lat="45.64983" lon="2.31653">
        <ele>848</ele>
        <time>2019-05-18T17:31:55Z</time>
      </trkpt>
      <trkpt lat="45.64984" lon="2.31655">
        <ele>848</ele>
        <time>2019-05-18T17:31:56Z</time>
      </trkpt>
      <trkpt lat="45.64984" lon="2.31657">
        <ele>848</ele>
        <time>2019-05-18T17:31:57Z</time>
      </trkpt>
      <trkpt lat="45.64985" lon="2.31659">
        <ele>849</ele>
        <time>2019-05-18T17:31:58Z</time>
      </trkpt>
      <trkpt lat="45.64985" lon="2.3166">
        <ele>849</ele>
        <time>2019-05-18T17:31:59Z</time>
      </trkpt>
      <trkpt lat="45.64986" lon="2.31662">
        <ele>849</ele>
        <time>2019-05-18T17:32:00Z</time>
      </trkpt>
      <trkpt lat="45.64987" lon="2.31664">
        <ele>849</ele>
        <time>2019-05-18T17:32:01Z</time>
      </trkpt>
      <trkpt lat="45.64987" lon="2.31665">
        <ele>849</ele>
        <time>2019-05-18T17:32:02Z</time>
      </trkpt>
      <trkpt lat="45.64987" lon="2.31667">
        <ele>849</ele>
        <time>2019-05-18T17:32:03Z</time>
      </trkpt>
      <trkpt lat="45.64987" lon="2.31668">
        <ele>850</ele>
        <time>2019-05-18T17:32:04Z</time>
      </trkpt>
      <trkpt lat="45.64988" lon="2.3167">
        <ele>850</ele>
        <time>2019-05-18T17:32:05Z</time>
      </trkpt>
      <trkpt lat="45.64988" lon="2.31673">
        <ele>850</ele>
        <time>2019-05-18T17:32:06Z</time>
      </trkpt>
      <trkpt lat="45.64989" lon="2.31675">
        <ele>850</ele>
        <time>2019-05-18T17:32:07Z</time>
      </trkpt>
      <trkpt lat="45.6499" lon="2.31677">
        <ele>850</ele>
        <time>2019-05-18T17:32:08Z</time>
      </trkpt>
      <trkpt lat="45.6499" lon="2.31679">
        <ele>850</ele>
        <time>2019-05-18T17:32:09Z</time>
      </trkpt>
      <trkpt lat="45.6499" lon="2.3168">
        <ele>850</ele>
        <time>2019-05-18T17:32:10Z</time>
      </trkpt>
      <trkpt lat="45.64991" lon="2.31681">
        <ele>851</ele>
        <time>2019-05-18T17:32:11Z</time>
      </trkpt>
      <trkpt lat="45.64991" lon="2.31682">
        <ele>851</ele>
        <time>2019-05-18T17:32:12Z</time>
      </trkpt>
      <trkpt lat="45.64991" lon="2.31684">
        <ele>851</ele>
        <time>2019-05-18T17:32:13Z</time>
      </trkpt>
      <trkpt lat="45.64991" lon="2.31686">
        <ele>851</ele>
        <time>2019-05-18T17:32:14Z</time>
      </trkpt>
      <trkpt lat="45.64992" lon="2.31688">
        <ele>851</ele>
        <time>2019-05-18T17:32:15Z</time>
      </trkpt>
      <trkpt lat="45.64992" lon="2.31689">
        <ele>851</ele>
        <time>2019-05-18T17:32:16Z</time>
      </trkpt>
      <trkpt lat="45.64992" lon="2.31691">
        <ele>852</ele>
        <time>2019-05-18T17:32:17Z</time>
      </trkpt>
      <trkpt lat="45.64992" lon="2.31693">
        <ele>852</ele>
        <time>2019-05-18T17:32:18Z</time>
      </trkpt>
      <trkpt lat="45.64993" lon="2.31695">
        <ele>852</ele>
        <time>2019-05-18T17:32:19Z</time>
      </trkpt>
      <trkpt lat="45.64993" lon="2.31697">
        <ele>852</ele>
        <time>2019-05-18T17:32:20Z</time>
      </trkpt>
      <trkpt lat="45.64993" lon="2.31699">
        <ele>852</ele>
        <time>2019-05-18T17:32:21Z</time>
      </trkpt>
      <trkpt lat="45.64993" lon="2.31701">
        <ele>853</ele>
        <time>2019-05-18T17:32:22Z</time>
      </trkpt>
      <trkpt lat="45.64993" lon="2.31702">
        <ele>853</ele>
        <time>2019-05-18T17:32:23Z</time>
      </trkpt>
      <trkpt lat="45.64993" lon="2.31704">
        <ele>853</ele>
        <time>2019-05-18T17:32:24Z</time>
      </trkpt>
      <trkpt lat="45.64993" lon="2.31705">
        <ele>853</ele>
        <time>2019-05-18T17:32:25Z</time>
      </trkpt>
      <trkpt lat="45.64993" lon="2.31707">
        <ele>853</ele>
        <time>2019-05-18T17:32:26Z</time>
      </trkpt>
      <trkpt lat="45.64993" lon="2.31708">
        <ele>853</ele>
        <time>2019-05-18T17:32:27Z</time>
      </trkpt>
      <trkpt lat="45.64992" lon="2.3171">
        <ele>853</ele>
        <time>2019-05-18T17:32:28Z</time>
      </trkpt>
      <trkpt lat="45.64992" lon="2.31712">
        <ele>853</ele>
        <time>2019-05-18T17:32:29Z</time>
      </trkpt>
      <trkpt lat="45.64992" lon="2.31713">
        <ele>853</ele>
        <time>2019-05-18T17:32:30Z</time>
      </trkpt>
      <trkpt lat="45.64993" lon="2.31716">
        <ele>853</ele>
        <time>2019-05-18T17:32:31Z</time>
      </trkpt>
      <trkpt lat="45.64993" lon="2.31717">
        <ele>853</ele>
        <time>2019-05-18T17:32:32Z</time>
      </trkpt>
      <trkpt lat="45.64993" lon="2.31718">
        <ele>853</ele>
        <time>2019-05-18T17:32:33Z</time>
      </trkpt>
      <trkpt lat="45.64993" lon="2.31719">
        <ele>853</ele>
        <time>2019-05-18T17:32:34Z</time>
      </trkpt>
      <trkpt lat="45.64994" lon="2.3172">
        <ele>854</ele>
        <time>2019-05-18T17:32:35Z</time>
      </trkpt>
      <trkpt lat="45.64995" lon="2.31722">
        <ele>854</ele>
        <time>2019-05-18T17:32:36Z</time>
      </trkpt>
      <trkpt lat="45.64995" lon="2.31723">
        <ele>854</ele>
        <time>2019-05-18T17:32:37Z</time>
      </trkpt>
      <trkpt lat="45.64996" lon="2.31725">
        <ele>854</ele>
        <time>2019-05-18T17:32:38Z</time>
      </trkpt>
      <trkpt lat="45.64997" lon="2.31727">
        <ele>854</ele>
        <time>2019-05-18T17:32:39Z</time>
      </trkpt>
      <trkpt lat="45.64998" lon="2.31729">
        <ele>854</ele>
        <time>2019-05-18T17:32:40Z</time>
      </trkpt>
      <trkpt lat="45.64999" lon="2.31731">
        <ele>854</ele>
        <time>2019-05-18T17:32:41Z</time>
      </trkpt>
      <trkpt lat="45.65" lon="2.31732">
        <ele>854</ele>
        <time>2019-05-18T17:32:42Z</time>
      </trkpt>
      <trkpt lat="45.65001" lon="2.31734">
        <ele>854</ele>
        <time>2019-05-18T17:32:43Z</time>
      </trkpt>
      <trkpt lat="45.65002" lon="2.31736">
        <ele>854</ele>
        <time>2019-05-18T17:32:44Z</time>
      </trkpt>
      <trkpt lat="45.65003" lon="2.31738">
        <ele>854</ele>
        <time>2019-05-18T17:32:45Z</time>
      </trkpt>
      <trkpt lat="45.65004" lon="2.31739">
        <ele>854</ele>
        <time>2019-05-18T17:32:46Z</time>
      </trkpt>
      <trkpt lat="45.65004" lon="2.31741">
        <ele>854</ele>
        <time>2019-05-18T17:32:47Z</time>
      </trkpt>
      <trkpt lat="45.65005" lon="2.31743">
        <ele>854</ele>
        <time>2019-05-18T17:32:48Z</time>
      </trkpt>
      <trkpt lat="45.65006" lon="2.31744">
        <ele>855</ele>
        <time>2019-05-18T17:32:49Z</time>
      </trkpt>
      <trkpt lat="45.65007" lon="2.31746">
        <ele>855</ele>
        <time>2019-05-18T17:32:50Z</time>
      </trkpt>
      <trkpt lat="45.65008" lon="2.31748">
        <ele>855</ele>
        <time>2019-05-18T17:32:51Z</time>
      </trkpt>
      <trkpt lat="45.65009" lon="2.31751">
        <ele>855</ele>
        <time>2019-05-18T17:32:52Z</time>
      </trkpt>
      <trkpt lat="45.6501" lon="2.31752">
        <ele>855</ele>
        <time>2019-05-18T17:32:53Z</time>
      </trkpt>
      <trkpt lat="45.65011" lon="2.31755">
        <ele>855</ele>
        <time>2019-05-18T17:32:54Z</time>
      </trkpt>
      <trkpt lat="45.65012" lon="2.31757">
        <ele>855</ele>
        <time>2019-05-18T17:32:55Z</time>
      </trkpt>
      <trkpt lat="45.65013" lon="2.31758">
        <ele>855</ele>
        <time>2019-05-18T17:32:56Z</time>
      </trkpt>
      <trkpt lat="45.65013" lon="2.31759">
        <ele>855</ele>
        <time>2019-05-18T17:32:57Z</time>
      </trkpt>
      <trkpt lat="45.65014" lon="2.3176">
        <ele>856</ele>
        <time>2019-05-18T17:32:58Z</time>
      </trkpt>
      <trkpt lat="45.65014" lon="2.31762">
        <ele>856</ele>
        <time>2019-05-18T17:32:59Z</time>
      </trkpt>
      <trkpt lat="45.65016" lon="2.31765">
        <ele>856</ele>
        <time>2019-05-18T17:33:00Z</time>
      </trkpt>
      <trkpt lat="45.65017" lon="2.31766">
        <ele>856</ele>
        <time>2019-05-18T17:33:01Z</time>
      </trkpt>
      <trkpt lat="45.65018" lon="2.31767">
        <ele>856</ele>
        <time>2019-05-18T17:33:02Z</time>
      </trkpt>
      <trkpt lat="45.65019" lon="2.31768">
        <ele>856</ele>
        <time>2019-05-18T17:33:03Z</time>
      </trkpt>
      <trkpt lat="45.6502" lon="2.31771">
        <ele>856</ele>
        <time>2019-05-18T17:33:04Z</time>
      </trkpt>
      <trkpt lat="45.65021" lon="2.31772">
        <ele>856</ele>
        <time>2019-05-18T17:33:05Z</time>
      </trkpt>
      <trkpt lat="45.65022" lon="2.31775">
        <ele>856</ele>
        <time>2019-05-18T17:33:06Z</time>
      </trkpt>
      <trkpt lat="45.65023" lon="2.31777">
        <ele>856</ele>
        <time>2019-05-18T17:33:07Z</time>
      </trkpt>
      <trkpt lat="45.65024" lon="2.31778">
        <ele>856</ele>
        <time>2019-05-18T17:33:08Z</time>
      </trkpt>
      <trkpt lat="45.65025" lon="2.31779">
        <ele>856</ele>
        <time>2019-05-18T17:33:09Z</time>
      </trkpt>
      <trkpt lat="45.65025" lon="2.31781">
        <ele>856</ele>
        <time>2019-05-18T17:33:10Z</time>
      </trkpt>
      <trkpt lat="45.65026" lon="2.31783">
        <ele>856</ele>
        <time>2019-05-18T17:33:11Z</time>
      </trkpt>
      <trkpt lat="45.65027" lon="2.31785">
        <ele>856</ele>
        <time>2019-05-18T17:33:12Z</time>
      </trkpt>
      <trkpt lat="45.65027" lon="2.31788">
        <ele>856</ele>
        <time>2019-05-18T17:33:13Z</time>
      </trkpt>
      <trkpt lat="45.65028" lon="2.3179">
        <ele>857</ele>
        <time>2019-05-18T17:33:14Z</time>
      </trkpt>
      <trkpt lat="45.65029" lon="2.31793">
        <ele>857</ele>
        <time>2019-05-18T17:33:15Z</time>
      </trkpt>
      <trkpt lat="45.65029" lon="2.31794">
        <ele>857</ele>
        <time>2019-05-18T17:33:16Z</time>
      </trkpt>
      <trkpt lat="45.65029" lon="2.31796">
        <ele>857</ele>
        <time>2019-05-18T17:33:17Z</time>
      </trkpt>
      <trkpt lat="45.65029" lon="2.31798">
        <ele>857</ele>
        <time>2019-05-18T17:33:18Z</time>
      </trkpt>
      <trkpt lat="45.6503" lon="2.31799">
        <ele>857</ele>
        <time>2019-05-18T17:33:19Z</time>
      </trkpt>
      <trkpt lat="45.6503" lon="2.318">
        <ele>857</ele>
        <time>2019-05-18T17:33:20Z</time>
      </trkpt>
      <trkpt lat="45.6503" lon="2.31802">
        <ele>857</ele>
        <time>2019-05-18T17:33:21Z</time>
      </trkpt>
      <trkpt lat="45.6503" lon="2.31804">
        <ele>857</ele>
        <time>2019-05-18T17:33:22Z</time>
      </trkpt>
      <trkpt lat="45.6503" lon="2.31805">
        <ele>858</ele>
        <time>2019-05-18T17:33:23Z</time>
      </trkpt>
      <trkpt lat="45.65029" lon="2.31809">
        <ele>858</ele>
        <time>2019-05-18T17:33:24Z</time>
      </trkpt>
      <trkpt lat="45.65029" lon="2.31811">
        <ele>858</ele>
        <time>2019-05-18T17:33:25Z</time>
      </trkpt>
      <trkpt lat="45.65029" lon="2.31813">
        <ele>858</ele>
        <time>2019-05-18T17:33:26Z</time>
      </trkpt>
      <trkpt lat="45.65028" lon="2.31815">
        <ele>858</ele>
        <time>2019-05-18T17:33:27Z</time>
      </trkpt>
      <trkpt lat="45.65028" lon="2.31818">
        <ele>858</ele>
        <time>2019-05-18T17:33:28Z</time>
      </trkpt>
      <trkpt lat="45.65027" lon="2.31821">
        <ele>859</ele>
        <time>2019-05-18T17:33:29Z</time>
      </trkpt>
      <trkpt lat="45.65026" lon="2.31823">
        <ele>859</ele>
        <time>2019-05-18T17:33:30Z</time>
      </trkpt>
      <trkpt lat="45.65026" lon="2.31826">
        <ele>859</ele>
        <time>2019-05-18T17:33:31Z</time>
      </trkpt>
      <trkpt lat="45.65025" lon="2.31829">
        <ele>859</ele>
        <time>2019-05-18T17:33:32Z</time>
      </trkpt>
      <trkpt lat="45.65025" lon="2.31832">
        <ele>859</ele>
        <time>2019-05-18T17:33:33Z</time>
      </trkpt>
      <trkpt lat="45.65024" lon="2.31834">
        <ele>859</ele>
        <time>2019-05-18T17:33:34Z</time>
      </trkpt>
      <trkpt lat="45.65023" lon="2.31837">
        <ele>859</ele>
        <time>2019-05-18T17:33:35Z</time>
      </trkpt>
      <trkpt lat="45.65022" lon="2.31839">
        <ele>859</ele>
        <time>2019-05-18T17:33:36Z</time>
      </trkpt>
      <trkpt lat="45.65021" lon="2.31842">
        <ele>859</ele>
        <time>2019-05-18T17:33:37Z</time>
      </trkpt>
      <trkpt lat="45.65021" lon="2.31844">
        <ele>859</ele>
        <time>2019-05-18T17:33:38Z</time>
      </trkpt>
      <trkpt lat="45.6502" lon="2.31847">
        <ele>859</ele>
        <time>2019-05-18T17:33:39Z</time>
      </trkpt>
      <trkpt lat="45.65019" lon="2.31849">
        <ele>860</ele>
        <time>2019-05-18T17:33:40Z</time>
      </trkpt>
      <trkpt lat="45.65018" lon="2.31852">
        <ele>860</ele>
        <time>2019-05-18T17:33:41Z</time>
      </trkpt>
      <trkpt lat="45.65017" lon="2.31854">
        <ele>860</ele>
        <time>2019-05-18T17:33:42Z</time>
      </trkpt>
      <trkpt lat="45.65017" lon="2.31857">
        <ele>860</ele>
        <time>2019-05-18T17:33:43Z</time>
      </trkpt>
      <trkpt lat="45.65016" lon="2.31859">
        <ele>860</ele>
        <time>2019-05-18T17:33:44Z</time>
      </trkpt>
      <trkpt lat="45.65016" lon="2.31862">
        <ele>860</ele>
        <time>2019-05-18T17:33:45Z</time>
      </trkpt>
      <trkpt lat="45.65016" lon="2.31865">
        <ele>860</ele>
        <time>2019-05-18T17:33:46Z</time>
      </trkpt>
      <trkpt lat="45.65016" lon="2.31868">
        <ele>860</ele>
        <time>2019-05-18T17:33:47Z</time>
      </trkpt>
      <trkpt lat="45.65016" lon="2.31871">
        <ele>860</ele>
        <time>2019-05-18T17:33:48Z</time>
      </trkpt>
      <trkpt lat="45.65016" lon="2.31873">
        <ele>860</ele>
        <time>2019-05-18T17:33:49Z</time>
      </trkpt>
      <trkpt lat="45.65016" lon="2.31876">
        <ele>860</ele>
        <time>2019-05-18T17:33:50Z</time>
      </trkpt>
      <trkpt lat="45.65016" lon="2.31879">
        <ele>860</ele>
        <time>2019-05-18T17:33:51Z</time>
      </trkpt>
      <trkpt lat="45.65016" lon="2.31882">
        <ele>860</ele>
        <time>2019-05-18T17:33:52Z</time>
      </trkpt>
      <trkpt lat="45.65016" lon="2.31884">
        <ele>860</ele>
        <time>2019-05-18T17:33:53Z</time>
      </trkpt>
      <trkpt lat="45.65014" lon="2.31886">
        <ele>860</ele>
        <time>2019-05-18T17:33:54Z</time>
      </trkpt>
      <trkpt lat="45.65013" lon="2.3189">
        <ele>860</ele>
        <time>2019-05-18T17:33:55Z</time>
      </trkpt>
      <trkpt lat="45.65012" lon="2.31892">
        <ele>860</ele>
        <time>2019-05-18T17:33:56Z</time>
      </trkpt>
      <trkpt lat="45.65012" lon="2.31894">
        <ele>860</ele>
        <time>2019-05-18T17:33:57Z</time>
      </trkpt>
      <trkpt lat="45.65011" lon="2.31897">
        <ele>860</ele>
        <time>2019-05-18T17:33:58Z</time>
      </trkpt>
      <trkpt lat="45.6501" lon="2.319">
        <ele>860</ele>
        <time>2019-05-18T17:33:59Z</time>
      </trkpt>
      <trkpt lat="45.65008" lon="2.31903">
        <ele>860</ele>
        <time>2019-05-18T17:34:00Z</time>
      </trkpt>
      <trkpt lat="45.65007" lon="2.31906">
        <ele>860</ele>
        <time>2019-05-18T17:34:01Z</time>
      </trkpt>
      <trkpt lat="45.65005" lon="2.31908">
        <ele>859</ele>
        <time>2019-05-18T17:34:02Z</time>
      </trkpt>
      <trkpt lat="45.65003" lon="2.3191">
        <ele>860</ele>
        <time>2019-05-18T17:34:03Z</time>
      </trkpt>
      <trkpt lat="45.65001" lon="2.31912">
        <ele>859</ele>
        <time>2019-05-18T17:34:04Z</time>
      </trkpt>
      <trkpt lat="45.64998" lon="2.31914">
        <ele>859</ele>
        <time>2019-05-18T17:34:05Z</time>
      </trkpt>
      <trkpt lat="45.64996" lon="2.31917">
        <ele>859</ele>
        <time>2019-05-18T17:34:06Z</time>
      </trkpt>
      <trkpt lat="45.64993" lon="2.3192">
        <ele>859</ele>
        <time>2019-05-18T17:34:07Z</time>
      </trkpt>
      <trkpt lat="45.6499" lon="2.31924">
        <ele>859</ele>
        <time>2019-05-18T17:34:08Z</time>
      </trkpt>
      <trkpt lat="45.64987" lon="2.31927">
        <ele>859</ele>
        <time>2019-05-18T17:34:09Z</time>
      </trkpt>
      <trkpt lat="45.64984" lon="2.31931">
        <ele>858</ele>
        <time>2019-05-18T17:34:10Z</time>
      </trkpt>
      <trkpt lat="45.64981" lon="2.31934">
        <ele>858</ele>
        <time>2019-05-18T17:34:11Z</time>
      </trkpt>
      <trkpt lat="45.64977" lon="2.31937">
        <ele>858</ele>
        <time>2019-05-18T17:34:12Z</time>
      </trkpt>
      <trkpt lat="45.64974" lon="2.3194">
        <ele>858</ele>
        <time>2019-05-18T17:34:13Z</time>
      </trkpt>
      <trkpt lat="45.6497" lon="2.31944">
        <ele>858</ele>
        <time>2019-05-18T17:34:14Z</time>
      </trkpt>
      <trkpt lat="45.64966" lon="2.31947">
        <ele>858</ele>
        <time>2019-05-18T17:34:15Z</time>
      </trkpt>
      <trkpt lat="45.64963" lon="2.31949">
        <ele>857</ele>
        <time>2019-05-18T17:34:16Z</time>
      </trkpt>
      <trkpt lat="45.6496" lon="2.31952">
        <ele>857</ele>
        <time>2019-05-18T17:34:17Z</time>
      </trkpt>
      <trkpt lat="45.64955" lon="2.31954">
        <ele>857</ele>
        <time>2019-05-18T17:34:18Z</time>
      </trkpt>
      <trkpt lat="45.64952" lon="2.31956">
        <ele>857</ele>
        <time>2019-05-18T17:34:19Z</time>
      </trkpt>
      <trkpt lat="45.64948" lon="2.31958">
        <ele>856</ele>
        <time>2019-05-18T17:34:20Z</time>
      </trkpt>
      <trkpt lat="45.64945" lon="2.3196">
        <ele>856</ele>
        <time>2019-05-18T17:34:21Z</time>
      </trkpt>
      <trkpt lat="45.64941" lon="2.31962">
        <ele>856</ele>
        <time>2019-05-18T17:34:22Z</time>
      </trkpt>
      <trkpt lat="45.64938" lon="2.31964">
        <ele>856</ele>
        <time>2019-05-18T17:34:23Z</time>
      </trkpt>
      <trkpt lat="45.64934" lon="2.31967">
        <ele>856</ele>
        <time>2019-05-18T17:34:24Z</time>
      </trkpt>
      <trkpt lat="45.6493" lon="2.31969">
        <ele>856</ele>
        <time>2019-05-18T17:34:25Z</time>
      </trkpt>
      <trkpt lat="45.64926" lon="2.31971">
        <ele>856</ele>
        <time>2019-05-18T17:34:26Z</time>
      </trkpt>
      <trkpt lat="45.64922" lon="2.31972">
        <ele>855</ele>
        <time>2019-05-18T17:34:27Z</time>
      </trkpt>
      <trkpt lat="45.64918" lon="2.31975">
        <ele>855</ele>
        <time>2019-05-18T17:34:28Z</time>
      </trkpt>
      <trkpt lat="45.64916" lon="2.31976">
        <ele>855</ele>
        <time>2019-05-18T17:34:29Z</time>
      </trkpt>
      <trkpt lat="45.64912" lon="2.31979">
        <ele>855</ele>
        <time>2019-05-18T17:34:30Z</time>
      </trkpt>
      <trkpt lat="45.64909" lon="2.31981">
        <ele>855</ele>
        <time>2019-05-18T17:34:31Z</time>
      </trkpt>
      <trkpt lat="45.64906" lon="2.31982">
        <ele>855</ele>
        <time>2019-05-18T17:34:32Z</time>
      </trkpt>
      <trkpt lat="45.64903" lon="2.31983">
        <ele>855</ele>
        <time>2019-05-18T17:34:33Z</time>
      </trkpt>
      <trkpt lat="45.649" lon="2.31986">
        <ele>854</ele>
        <time>2019-05-18T17:34:34Z</time>
      </trkpt>
      <trkpt lat="45.64896" lon="2.31989">
        <ele>854</ele>
        <time>2019-05-18T17:34:35Z</time>
      </trkpt>
      <trkpt lat="45.64893" lon="2.31991">
        <ele>854</ele>
        <time>2019-05-18T17:34:36Z</time>
      </trkpt>
      <trkpt lat="45.64889" lon="2.31994">
        <ele>854</ele>
        <time>2019-05-18T17:34:37Z</time>
      </trkpt>
      <trkpt lat="45.64885" lon="2.31998">
        <ele>854</ele>
        <time>2019-05-18T17:34:38Z</time>
      </trkpt>
      <trkpt lat="45.64881" lon="2.32">
        <ele>854</ele>
        <time>2019-05-18T17:34:39Z</time>
      </trkpt>
      <trkpt lat="45.64877" lon="2.32002">
        <ele>854</ele>
        <time>2019-05-18T17:34:40Z</time>
      </trkpt>
      <trkpt lat="45.64873" lon="2.32004">
        <ele>854</ele>
        <time>2019-05-18T17:34:41Z</time>
      </trkpt>
      <trkpt lat="45.64869" lon="2.32008">
        <ele>854</ele>
        <time>2019-05-18T17:34:42Z</time>
      </trkpt>
      <trkpt lat="45.64865" lon="2.32011">
        <ele>854</ele>
        <time>2019-05-18T17:34:43Z</time>
      </trkpt>
      <trkpt lat="45.64862" lon="2.32014">
        <ele>854</ele>
        <time>2019-05-18T17:34:44Z</time>
      </trkpt>
      <trkpt lat="45.64858" lon="2.32015">
        <ele>854</ele>
        <time>2019-05-18T17:34:45Z</time>
      </trkpt>
      <trkpt lat="45.64854" lon="2.32017">
        <ele>854</ele>
        <time>2019-05-18T17:34:46Z</time>
      </trkpt>
      <trkpt lat="45.6485" lon="2.3202">
        <ele>854</ele>
        <time>2019-05-18T17:34:47Z</time>
      </trkpt>
      <trkpt lat="45.64846" lon="2.32022">
        <ele>854</ele>
        <time>2019-05-18T17:34:48Z</time>
      </trkpt>
      <trkpt lat="45.64843" lon="2.32025">
        <ele>853</ele>
        <time>2019-05-18T17:34:49Z</time>
      </trkpt>
      <trkpt lat="45.64839" lon="2.32027">
        <ele>853</ele>
        <time>2019-05-18T17:34:50Z</time>
      </trkpt>
      <trkpt lat="45.64836" lon="2.32029">
        <ele>853</ele>
        <time>2019-05-18T17:34:51Z</time>
      </trkpt>
      <trkpt lat="45.64833" lon="2.32032">
        <ele>853</ele>
        <time>2019-05-18T17:34:52Z</time>
      </trkpt>
      <trkpt lat="45.64829" lon="2.32035">
        <ele>853</ele>
        <time>2019-05-18T17:34:53Z</time>
      </trkpt>
      <trkpt lat="45.64826" lon="2.32037">
        <ele>853</ele>
        <time>2019-05-18T17:34:54Z</time>
      </trkpt>
      <trkpt lat="45.64823" lon="2.32041">
        <ele>853</ele>
        <time>2019-05-18T17:34:55Z</time>
      </trkpt>
      <trkpt lat="45.6482" lon="2.32044">
        <ele>853</ele>
        <time>2019-05-18T17:34:56Z</time>
      </trkpt>
      <trkpt lat="45.64818" lon="2.32049">
        <ele>853</ele>
        <time>2019-05-18T17:34:57Z</time>
      </trkpt>
      <trkpt lat="45.64815" lon="2.32052">
        <ele>853</ele>
        <time>2019-05-18T17:34:58Z</time>
      </trkpt>
      <trkpt lat="45.64811" lon="2.32055">
        <ele>853</ele>
        <time>2019-05-18T17:34:59Z</time>
      </trkpt>
      <trkpt lat="45.64808" lon="2.32055">
        <ele>853</ele>
        <time>2019-05-18T17:35:00Z</time>
      </trkpt>
      <trkpt lat="45.64805" lon="2.32055">
        <ele>853</ele>
        <time>2019-05-18T17:35:01Z</time>
      </trkpt>
      <trkpt lat="45.64801" lon="2.32056">
        <ele>853</ele>
        <time>2019-05-18T17:35:02Z</time>
      </trkpt>
      <trkpt lat="45.64798" lon="2.32057">
        <ele>853</ele>
        <time>2019-05-18T17:35:03Z</time>
      </trkpt>
      <trkpt lat="45.64795" lon="2.3206">
        <ele>853</ele>
        <time>2019-05-18T17:35:04Z</time>
      </trkpt>
      <trkpt lat="45.64792" lon="2.32063">
        <ele>853</ele>
        <time>2019-05-18T17:35:05Z</time>
      </trkpt>
      <trkpt lat="45.64788" lon="2.32065">
        <ele>853</ele>
        <time>2019-05-18T17:35:06Z</time>
      </trkpt>
      <trkpt lat="45.64785" lon="2.32066">
        <ele>853</ele>
        <time>2019-05-18T17:35:07Z</time>
      </trkpt>
      <trkpt lat="45.64782" lon="2.32067">
        <ele>853</ele>
        <time>2019-05-18T17:35:08Z</time>
      </trkpt>
      <trkpt lat="45.64779" lon="2.3207">
        <ele>853</ele>
        <time>2019-05-18T17:35:09Z</time>
      </trkpt>
      <trkpt lat="45.64776" lon="2.32073">
        <ele>853</ele>
        <time>2019-05-18T17:35:10Z</time>
      </trkpt>
      <trkpt lat="45.64772" lon="2.32075">
        <ele>853</ele>
        <time>2019-05-18T17:35:11Z</time>
      </trkpt>
      <trkpt lat="45.64769" lon="2.32076">
        <ele>853</ele>
        <time>2019-05-18T17:35:12Z</time>
      </trkpt>
      <trkpt lat="45.64766" lon="2.32077">
        <ele>853</ele>
        <time>2019-05-18T17:35:13Z</time>
      </trkpt>
      <trkpt lat="45.64762" lon="2.32079">
        <ele>853</ele>
        <time>2019-05-18T17:35:14Z</time>
      </trkpt>
      <trkpt lat="45.6476" lon="2.32082">
        <ele>853</ele>
        <time>2019-05-18T17:35:15Z</time>
      </trkpt>
      <trkpt lat="45.64756" lon="2.32084">
        <ele>853</ele>
        <time>2019-05-18T17:35:16Z</time>
      </trkpt>
      <trkpt lat="45.64753" lon="2.32085">
        <ele>853</ele>
        <time>2019-05-18T17:35:17Z</time>
      </trkpt>
      <trkpt lat="45.6475" lon="2.32087">
        <ele>853</ele>
        <time>2019-05-18T17:35:18Z</time>
      </trkpt>
      <trkpt lat="45.64747" lon="2.32089">
        <ele>853</ele>
        <time>2019-05-18T17:35:19Z</time>
      </trkpt>
      <trkpt lat="45.64743" lon="2.32091">
        <ele>853</ele>
        <time>2019-05-18T17:35:20Z</time>
      </trkpt>
      <trkpt lat="45.6474" lon="2.32093">
        <ele>853</ele>
        <time>2019-05-18T17:35:21Z</time>
      </trkpt>
      <trkpt lat="45.64737" lon="2.32097">
        <ele>853</ele>
        <time>2019-05-18T17:35:22Z</time>
      </trkpt>
      <trkpt lat="45.64734" lon="2.32099">
        <ele>853</ele>
        <time>2019-05-18T17:35:23Z</time>
      </trkpt>
      <trkpt lat="45.64731" lon="2.32102">
        <ele>853</ele>
        <time>2019-05-18T17:35:24Z</time>
      </trkpt>
      <trkpt lat="45.64727" lon="2.32105">
        <ele>853</ele>
        <time>2019-05-18T17:35:25Z</time>
      </trkpt>
      <trkpt lat="45.64724" lon="2.32108">
        <ele>853</ele>
        <time>2019-05-18T17:35:26Z</time>
      </trkpt>
      <trkpt lat="45.64721" lon="2.3211">
        <ele>854</ele>
        <time>2019-05-18T17:35:27Z</time>
      </trkpt>
      <trkpt lat="45.64718" lon="2.32113">
        <ele>854</ele>
        <time>2019-05-18T17:35:28Z</time>
      </trkpt>
      <trkpt lat="45.64715" lon="2.32116">
        <ele>854</ele>
        <time>2019-05-18T17:35:29Z</time>
      </trkpt>
      <trkpt lat="45.64712" lon="2.32118">
        <ele>854</ele>
        <time>2019-05-18T17:35:30Z</time>
      </trkpt>
      <trkpt lat="45.64709" lon="2.3212">
        <ele>854</ele>
        <time>2019-05-18T17:35:31Z</time>
      </trkpt>
      <trkpt lat="45.64705" lon="2.32121">
        <ele>853</ele>
        <time>2019-05-18T17:35:32Z</time>
      </trkpt>
      <trkpt lat="45.64701" lon="2.32121">
        <ele>853</ele>
        <time>2019-05-18T17:35:33Z</time>
      </trkpt>
      <trkpt lat="45.64697" lon="2.32122">
        <ele>853</ele>
        <time>2019-05-18T17:35:34Z</time>
      </trkpt>
      <trkpt lat="45.64693" lon="2.32122">
        <ele>853</ele>
        <time>2019-05-18T17:35:35Z</time>
      </trkpt>
      <trkpt lat="45.6469" lon="2.32122">
        <ele>853</ele>
        <time>2019-05-18T17:35:36Z</time>
      </trkpt>
      <trkpt lat="45.64686" lon="2.32122">
        <ele>853</ele>
        <time>2019-05-18T17:35:37Z</time>
      </trkpt>
      <trkpt lat="45.64682" lon="2.32122">
        <ele>852</ele>
        <time>2019-05-18T17:35:38Z</time>
      </trkpt>
      <trkpt lat="45.64678" lon="2.32122">
        <ele>852</ele>
        <time>2019-05-18T17:35:39Z</time>
      </trkpt>
      <trkpt lat="45.64673" lon="2.32123">
        <ele>852</ele>
        <time>2019-05-18T17:35:40Z</time>
      </trkpt>
      <trkpt lat="45.64669" lon="2.32123">
        <ele>852</ele>
        <time>2019-05-18T17:35:41Z</time>
      </trkpt>
      <trkpt lat="45.64664" lon="2.32125">
        <ele>851</ele>
        <time>2019-05-18T17:35:42Z</time>
      </trkpt>
      <trkpt lat="45.64659" lon="2.32126">
        <ele>851</ele>
        <time>2019-05-18T17:35:43Z</time>
      </trkpt>
      <trkpt lat="45.64655" lon="2.32128">
        <ele>851</ele>
        <time>2019-05-18T17:35:44Z</time>
      </trkpt>
      <trkpt lat="45.64651" lon="2.32131">
        <ele>851</ele>
        <time>2019-05-18T17:35:45Z</time>
      </trkpt>
      <trkpt lat="45.64648" lon="2.32134">
        <ele>851</ele>
        <time>2019-05-18T17:35:46Z</time>
      </trkpt>
      <trkpt lat="45.64645" lon="2.32136">
        <ele>851</ele>
        <time>2019-05-18T17:35:47Z</time>
      </trkpt>
      <trkpt lat="45.64641" lon="2.32137">
        <ele>850</ele>
        <time>2019-05-18T17:35:48Z</time>
      </trkpt>
      <trkpt lat="45.64638" lon="2.32139">
        <ele>850</ele>
        <time>2019-05-18T17:35:49Z</time>
      </trkpt>
      <trkpt lat="45.64634" lon="2.3214">
        <ele>850</ele>
        <time>2019-05-18T17:35:50Z</time>
      </trkpt>
      <trkpt lat="45.6463" lon="2.32141">
        <ele>850</ele>
        <time>2019-05-18T17:35:51Z</time>
      </trkpt>
      <trkpt lat="45.64626" lon="2.32141">
        <ele>850</ele>
        <time>2019-05-18T17:35:52Z</time>
      </trkpt>
      <trkpt lat="45.64623" lon="2.32142">
        <ele>850</ele>
        <time>2019-05-18T17:35:53Z</time>
      </trkpt>
      <trkpt lat="45.6462" lon="2.32143">
        <ele>850</ele>
        <time>2019-05-18T17:35:54Z</time>
      </trkpt>
      <trkpt lat="45.64616" lon="2.32144">
        <ele>850</ele>
        <time>2019-05-18T17:35:55Z</time>
      </trkpt>
      <trkpt lat="45.64613" lon="2.32145">
        <ele>849</ele>
        <time>2019-05-18T17:35:56Z</time>
      </trkpt>
      <trkpt lat="45.64609" lon="2.32147">
        <ele>849</ele>
        <time>2019-05-18T17:35:57Z</time>
      </trkpt>
      <trkpt lat="45.64605" lon="2.32148">
        <ele>849</ele>
        <time>2019-05-18T17:35:58Z</time>
      </trkpt>
      <trkpt lat="45.64601" lon="2.3215">
        <ele>849</ele>
        <time>2019-05-18T17:35:59Z</time>
      </trkpt>
      <trkpt lat="45.64597" lon="2.32151">
        <ele>849</ele>
        <time>2019-05-18T17:36:00Z</time>
      </trkpt>
      <trkpt lat="45.64593" lon="2.32153">
        <ele>849</ele>
        <time>2019-05-18T17:36:01Z</time>
      </trkpt>
      <trkpt lat="45.64589" lon="2.32155">
        <ele>848</ele>
        <time>2019-05-18T17:36:02Z</time>
      </trkpt>
      <trkpt lat="45.64585" lon="2.32157">
        <ele>848</ele>
        <time>2019-05-18T17:36:03Z</time>
      </trkpt>
      <trkpt lat="45.64581" lon="2.32159">
        <ele>848</ele>
        <time>2019-05-18T17:36:04Z</time>
      </trkpt>
      <trkpt lat="45.64577" lon="2.32161">
        <ele>848</ele>
        <time>2019-05-18T17:36:05Z</time>
      </trkpt>
      <trkpt lat="45.64573" lon="2.32163">
        <ele>847</ele>
        <time>2019-05-18T17:36:06Z</time>
      </trkpt>
      <trkpt lat="45.64568" lon="2.32168">
        <ele>847</ele>
        <time>2019-05-18T17:36:07Z</time>
      </trkpt>
      <trkpt lat="45.64564" lon="2.32171">
        <ele>847</ele>
        <time>2019-05-18T17:36:08Z</time>
      </trkpt>
      <trkpt lat="45.6456" lon="2.32174">
        <ele>847</ele>
        <time>2019-05-18T17:36:09Z</time>
      </trkpt>
      <trkpt lat="45.64556" lon="2.32175">
        <ele>847</ele>
        <time>2019-05-18T17:36:10Z</time>
      </trkpt>
      <trkpt lat="45.64552" lon="2.32178">
        <ele>847</ele>
        <time>2019-05-18T17:36:11Z</time>
      </trkpt>
      <trkpt lat="45.64548" lon="2.3218">
        <ele>846</ele>
        <time>2019-05-18T17:36:12Z</time>
      </trkpt>
      <trkpt lat="45.64544" lon="2.32182">
        <ele>846</ele>
        <time>2019-05-18T17:36:13Z</time>
      </trkpt>
      <trkpt lat="45.6454" lon="2.32184">
        <ele>846</ele>
        <time>2019-05-18T17:36:14Z</time>
      </trkpt>
      <trkpt lat="45.64535" lon="2.32187">
        <ele>846</ele>
        <time>2019-05-18T17:36:15Z</time>
      </trkpt>
      <trkpt lat="45.64531" lon="2.32191">
        <ele>846</ele>
        <time>2019-05-18T17:36:16Z</time>
      </trkpt>
      <trkpt lat="45.64527" lon="2.32195">
        <ele>846</ele>
        <time>2019-05-18T17:36:17Z</time>
      </trkpt>
      <trkpt lat="45.64523" lon="2.32199">
        <ele>846</ele>
        <time>2019-05-18T17:36:18Z</time>
      </trkpt>
      <trkpt lat="45.6452" lon="2.32203">
        <ele>846</ele>
        <time>2019-05-18T17:36:19Z</time>
      </trkpt>
      <trkpt lat="45.64516" lon="2.32207">
        <ele>846</ele>
        <time>2019-05-18T17:36:20Z</time>
      </trkpt>
      <trkpt lat="45.64513" lon="2.3221">
        <ele>846</ele>
        <time>2019-05-18T17:36:21Z</time>
      </trkpt>
      <trkpt lat="45.64509" lon="2.32214">
        <ele>845</ele>
        <time>2019-05-18T17:36:22Z</time>
      </trkpt>
      <trkpt lat="45.64505" lon="2.32217">
        <ele>845</ele>
        <time>2019-05-18T17:36:23Z</time>
      </trkpt>
      <trkpt lat="45.64502" lon="2.3222">
        <ele>845</ele>
        <time>2019-05-18T17:36:24Z</time>
      </trkpt>
      <trkpt lat="45.64498" lon="2.32222">
        <ele>845</ele>
        <time>2019-05-18T17:36:25Z</time>
      </trkpt>
      <trkpt lat="45.64494" lon="2.32224">
        <ele>845</ele>
        <time>2019-05-18T17:36:26Z</time>
      </trkpt>
      <trkpt lat="45.6449" lon="2.32227">
        <ele>845</ele>
        <time>2019-05-18T17:36:27Z</time>
      </trkpt>
      <trkpt lat="45.64486" lon="2.3223">
        <ele>845</ele>
        <time>2019-05-18T17:36:28Z</time>
      </trkpt>
      <trkpt lat="45.64482" lon="2.32232">
        <ele>845</ele>
        <time>2019-05-18T17:36:29Z</time>
      </trkpt>
      <trkpt lat="45.64478" lon="2.32235">
        <ele>845</ele>
        <time>2019-05-18T17:36:30Z</time>
      </trkpt>
      <trkpt lat="45.64474" lon="2.32237">
        <ele>845</ele>
        <time>2019-05-18T17:36:31Z</time>
      </trkpt>
      <trkpt lat="45.6447" lon="2.3224">
        <ele>845</ele>
        <time>2019-05-18T17:36:32Z</time>
      </trkpt>
      <trkpt lat="45.64466" lon="2.32241">
        <ele>845</ele>
        <time>2019-05-18T17:36:33Z</time>
      </trkpt>
      <trkpt lat="45.64462" lon="2.32243">
        <ele>845</ele>
        <time>2019-05-18T17:36:34Z</time>
      </trkpt>
      <trkpt lat="45.64458" lon="2.32245">
        <ele>845</ele>
        <time>2019-05-18T17:36:35Z</time>
      </trkpt>
      <trkpt lat="45.64454" lon="2.32246">
        <ele>845</ele>
        <time>2019-05-18T17:36:36Z</time>
      </trkpt>
      <trkpt lat="45.6445" lon="2.32247">
        <ele>845</ele>
        <time>2019-05-18T17:36:37Z</time>
      </trkpt>
      <trkpt lat="45.64447" lon="2.3225">
        <ele>845</ele>
        <time>2019-05-18T17:36:38Z</time>
      </trkpt>
      <trkpt lat="45.64444" lon="2.32252">
        <ele>844</ele>
        <time>2019-05-18T17:36:39Z</time>
      </trkpt>
      <trkpt lat="45.64441" lon="2.32253">
        <ele>844</ele>
        <time>2019-05-18T17:36:40Z</time>
      </trkpt>
      <trkpt lat="45.64438" lon="2.32253">
        <ele>844</ele>
        <time>2019-05-18T17:36:41Z</time>
      </trkpt>
      <trkpt lat="45.64435" lon="2.32256">
        <ele>845</ele>
        <time>2019-05-18T17:36:42Z</time>
      </trkpt>
      <trkpt lat="45.64432" lon="2.32259">
        <ele>845</ele>
        <time>2019-05-18T17:36:43Z</time>
      </trkpt>
      <trkpt lat="45.64429" lon="2.32261">
        <ele>845</ele>
        <time>2019-05-18T17:36:44Z</time>
      </trkpt>
      <trkpt lat="45.64426" lon="2.32263">
        <ele>845</ele>
        <time>2019-05-18T17:36:45Z</time>
      </trkpt>
      <trkpt lat="45.64423" lon="2.32266">
        <ele>845</ele>
        <time>2019-05-18T17:36:46Z</time>
      </trkpt>
      <trkpt lat="45.6442" lon="2.32268">
        <ele>845</ele>
        <time>2019-05-18T17:36:47Z</time>
      </trkpt>
      <trkpt lat="45.64417" lon="2.32269">
        <ele>845</ele>
        <time>2019-05-18T17:36:48Z</time>
      </trkpt>
      <trkpt lat="45.64414" lon="2.32271">
        <ele>845</ele>
        <time>2019-05-18T17:36:49Z</time>
      </trkpt>
      <trkpt lat="45.64411" lon="2.32273">
        <ele>845</ele>
        <time>2019-05-18T17:36:50Z</time>
      </trkpt>
      <trkpt lat="45.64408" lon="2.32273">
        <ele>845</ele>
        <time>2019-05-18T17:36:51Z</time>
      </trkpt>
      <trkpt lat="45.64404" lon="2.32273">
        <ele>845</ele>
        <time>2019-05-18T17:36:52Z</time>
      </trkpt>
      <trkpt lat="45.64401" lon="2.32272">
        <ele>845</ele>
        <time>2019-05-18T17:36:53Z</time>
      </trkpt>
      <trkpt lat="45.64398" lon="2.32272">
        <ele>845</ele>
        <time>2019-05-18T17:36:54Z</time>
      </trkpt>
      <trkpt lat="45.64395" lon="2.32271">
        <ele>845</ele>
        <time>2019-05-18T17:36:55Z</time>
      </trkpt>
      <trkpt lat="45.64392" lon="2.32269">
        <ele>845</ele>
        <time>2019-05-18T17:36:56Z</time>
      </trkpt>
      <trkpt lat="45.64389" lon="2.32267">
        <ele>845</ele>
        <time>2019-05-18T17:36:57Z</time>
      </trkpt>
      <trkpt lat="45.64386" lon="2.32266">
        <ele>845</ele>
        <time>2019-05-18T17:36:58Z</time>
      </trkpt>
      <trkpt lat="45.64383" lon="2.32264">
        <ele>845</ele>
        <time>2019-05-18T17:36:59Z</time>
      </trkpt>
      <trkpt lat="45.64379" lon="2.32263">
        <ele>845</ele>
        <time>2019-05-18T17:37:00Z</time>
      </trkpt>
      <trkpt lat="45.64376" lon="2.32262">
        <ele>845</ele>
        <time>2019-05-18T17:37:01Z</time>
      </trkpt>
      <trkpt lat="45.64373" lon="2.32262">
        <ele>845</ele>
        <time>2019-05-18T17:37:02Z</time>
      </trkpt>
      <trkpt lat="45.64369" lon="2.32261">
        <ele>845</ele>
        <time>2019-05-18T17:37:03Z</time>
      </trkpt>
      <trkpt lat="45.64366" lon="2.32261">
        <ele>845</ele>
        <time>2019-05-18T17:37:04Z</time>
      </trkpt>
      <trkpt lat="45.64363" lon="2.32261">
        <ele>846</ele>
        <time>2019-05-18T17:37:05Z</time>
      </trkpt>
      <trkpt lat="45.6436" lon="2.32261">
        <ele>846</ele>
        <time>2019-05-18T17:37:06Z</time>
      </trkpt>
      <trkpt lat="45.64356" lon="2.32261">
        <ele>846</ele>
        <time>2019-05-18T17:37:07Z</time>
      </trkpt>
      <trkpt lat="45.64353" lon="2.32261">
        <ele>846</ele>
        <time>2019-05-18T17:37:08Z</time>
      </trkpt>
      <trkpt lat="45.6435" lon="2.32261">
        <ele>846</ele>
        <time>2019-05-18T17:37:09Z</time>
      </trkpt>
      <trkpt lat="45.64348" lon="2.32261">
        <ele>846</ele>
        <time>2019-05-18T17:37:10Z</time>
      </trkpt>
      <trkpt lat="45.64345" lon="2.32261">
        <ele>846</ele>
        <time>2019-05-18T17:37:11Z</time>
      </trkpt>
      <trkpt lat="45.64342" lon="2.3226">
        <ele>846</ele>
        <time>2019-05-18T17:37:12Z</time>
      </trkpt>
      <trkpt lat="45.6434" lon="2.3226">
        <ele>846</ele>
        <time>2019-05-18T17:37:13Z</time>
      </trkpt>
      <trkpt lat="45.64337" lon="2.3226">
        <ele>846</ele>
        <time>2019-05-18T17:37:14Z</time>
      </trkpt>
      <trkpt lat="45.64334" lon="2.3226">
        <ele>846</ele>
        <time>2019-05-18T17:37:15Z</time>
      </trkpt>
      <trkpt lat="45.64331" lon="2.3226">
        <ele>846</ele>
        <time>2019-05-18T17:37:16Z</time>
      </trkpt>
      <trkpt lat="45.64328" lon="2.32259">
        <ele>846</ele>
        <time>2019-05-18T17:37:17Z</time>
      </trkpt>
      <trkpt lat="45.64325" lon="2.3226">
        <ele>846</ele>
        <time>2019-05-18T17:37:18Z</time>
      </trkpt>
      <trkpt lat="45.64322" lon="2.3226">
        <ele>846</ele>
        <time>2019-05-18T17:37:19Z</time>
      </trkpt>
      <trkpt lat="45.64319" lon="2.32261">
        <ele>846</ele>
        <time>2019-05-18T17:37:20Z</time>
      </trkpt>
      <trkpt lat="45.64317" lon="2.32262">
        <ele>847</ele>
        <time>2019-05-18T17:37:21Z</time>
      </trkpt>
      <trkpt lat="45.64313" lon="2.32262">
        <ele>847</ele>
        <time>2019-05-18T17:37:22Z</time>
      </trkpt>
      <trkpt lat="45.64311" lon="2.32262">
        <ele>847</ele>
        <time>2019-05-18T17:37:23Z</time>
      </trkpt>
      <trkpt lat="45.64308" lon="2.32263">
        <ele>847</ele>
        <time>2019-05-18T17:37:24Z</time>
      </trkpt>
      <trkpt lat="45.64305" lon="2.32263">
        <ele>847</ele>
        <time>2019-05-18T17:37:25Z</time>
      </trkpt>
      <trkpt lat="45.64302" lon="2.32263">
        <ele>847</ele>
        <time>2019-05-18T17:37:26Z</time>
      </trkpt>
      <trkpt lat="45.643" lon="2.32263">
        <ele>847</ele>
        <time>2019-05-18T17:37:27Z</time>
      </trkpt>
      <trkpt lat="45.64297" lon="2.32263">
        <ele>847</ele>
        <time>2019-05-18T17:37:28Z</time>
      </trkpt>
      <trkpt lat="45.64294" lon="2.32263">
        <ele>847</ele>
        <time>2019-05-18T17:37:29Z</time>
      </trkpt>
      <trkpt lat="45.64291" lon="2.32263">
        <ele>847</ele>
        <time>2019-05-18T17:37:30Z</time>
      </trkpt>
      <trkpt lat="45.64288" lon="2.32263">
        <ele>848</ele>
        <time>2019-05-18T17:37:31Z</time>
      </trkpt>
      <trkpt lat="45.64286" lon="2.32263">
        <ele>848</ele>
        <time>2019-05-18T17:37:32Z</time>
      </trkpt>
      <trkpt lat="45.64283" lon="2.32263">
        <ele>848</ele>
        <time>2019-05-18T17:37:33Z</time>
      </trkpt>
      <trkpt lat="45.64281" lon="2.32262">
        <ele>848</ele>
        <time>2019-05-18T17:37:34Z</time>
      </trkpt>
      <trkpt lat="45.64278" lon="2.32262">
        <ele>848</ele>
        <time>2019-05-18T17:37:35Z</time>
      </trkpt>
      <trkpt lat="45.64276" lon="2.32262">
        <ele>848</ele>
        <time>2019-05-18T17:37:36Z</time>
      </trkpt>
      <trkpt lat="45.64274" lon="2.32261">
        <ele>848</ele>
        <time>2019-05-18T17:37:37Z</time>
      </trkpt>
      <trkpt lat="45.64271" lon="2.32261">
        <ele>848</ele>
        <time>2019-05-18T17:37:38Z</time>
      </trkpt>
      <trkpt lat="45.64269" lon="2.32261">
        <ele>848</ele>
        <time>2019-05-18T17:37:39Z</time>
      </trkpt>
      <trkpt lat="45.64268" lon="2.32261">
        <ele>849</ele>
        <time>2019-05-18T17:37:40Z</time>
      </trkpt>
      <trkpt lat="45.64266" lon="2.32261">
        <ele>849</ele>
        <time>2019-05-18T17:37:41Z</time>
      </trkpt>
      <trkpt lat="45.64264" lon="2.3226">
        <ele>849</ele>
        <time>2019-05-18T17:37:42Z</time>
      </trkpt>
      <trkpt lat="45.64262" lon="2.3226">
        <ele>849</ele>
        <time>2019-05-18T17:37:43Z</time>
      </trkpt>
      <trkpt lat="45.6426" lon="2.3226">
        <ele>849</ele>
        <time>2019-05-18T17:37:44Z</time>
      </trkpt>
      <trkpt lat="45.64258" lon="2.32261">
        <ele>849</ele>
        <time>2019-05-18T17:37:45Z</time>
      </trkpt>
      <trkpt lat="45.64256" lon="2.32261">
        <ele>849</ele>
        <time>2019-05-18T17:37:46Z</time>
      </trkpt>
      <trkpt lat="45.64254" lon="2.3226">
        <ele>850</ele>
        <time>2019-05-18T17:37:47Z</time>
      </trkpt>
      <trkpt lat="45.64252" lon="2.3226">
        <ele>850</ele>
        <time>2019-05-18T17:37:48Z</time>
      </trkpt>
      <trkpt lat="45.64249" lon="2.3226">
        <ele>850</ele>
        <time>2019-05-18T17:37:49Z</time>
      </trkpt>
      <trkpt lat="45.64247" lon="2.3226">
        <ele>850</ele>
        <time>2019-05-18T17:37:50Z</time>
      </trkpt>
      <trkpt lat="45.64244" lon="2.3226">
        <ele>850</ele>
        <time>2019-05-18T17:37:51Z</time>
      </trkpt>
      <trkpt lat="45.64242" lon="2.3226">
        <ele>850</ele>
        <time>2019-05-18T17:37:52Z</time>
      </trkpt>
      <trkpt lat="45.64239" lon="2.3226">
        <ele>850</ele>
        <time>2019-05-18T17:37:53Z</time>
      </trkpt>
      <trkpt lat="45.64237" lon="2.32261">
        <ele>850</ele>
        <time>2019-05-18T17:37:54Z</time>
      </trkpt>
      <trkpt lat="45.64234" lon="2.32262">
        <ele>851</ele>
        <time>2019-05-18T17:37:55Z</time>
      </trkpt>
      <trkpt lat="45.64232" lon="2.32263">
        <ele>851</ele>
        <time>2019-05-18T17:37:56Z</time>
      </trkpt>
      <trkpt lat="45.6423" lon="2.32264">
        <ele>851</ele>
        <time>2019-05-18T17:37:57Z</time>
      </trkpt>
      <trkpt lat="45.64227" lon="2.32264">
        <ele>851</ele>
        <time>2019-05-18T17:37:58Z</time>
      </trkpt>
      <trkpt lat="45.64225" lon="2.32265">
        <ele>851</ele>
        <time>2019-05-18T17:37:59Z</time>
      </trkpt>
      <trkpt lat="45.64223" lon="2.32266">
        <ele>851</ele>
        <time>2019-05-18T17:38:00Z</time>
      </trkpt>
      <trkpt lat="45.64221" lon="2.32266">
        <ele>851</ele>
        <time>2019-05-18T17:38:01Z</time>
      </trkpt>
      <trkpt lat="45.64218" lon="2.32267">
        <ele>851</ele>
        <time>2019-05-18T17:38:02Z</time>
      </trkpt>
      <trkpt lat="45.64216" lon="2.32268">
        <ele>852</ele>
        <time>2019-05-18T17:38:03Z</time>
      </trkpt>
      <trkpt lat="45.64214" lon="2.32269">
        <ele>852</ele>
        <time>2019-05-18T17:38:04Z</time>
      </trkpt>
      <trkpt lat="45.64212" lon="2.32269">
        <ele>852</ele>
        <time>2019-05-18T17:38:05Z</time>
      </trkpt>
      <trkpt lat="45.6421" lon="2.3227">
        <ele>852</ele>
        <time>2019-05-18T17:38:06Z</time>
      </trkpt>
      <trkpt lat="45.64208" lon="2.32271">
        <ele>852</ele>
        <time>2019-05-18T17:38:07Z</time>
      </trkpt>
      <trkpt lat="45.64206" lon="2.32272">
        <ele>852</ele>
        <time>2019-05-18T17:38:08Z</time>
      </trkpt>
      <trkpt lat="45.64205" lon="2.32272">
        <ele>853</ele>
        <time>2019-05-18T17:38:09Z</time>
      </trkpt>
      <trkpt lat="45.64203" lon="2.32273">
        <ele>853</ele>
        <time>2019-05-18T17:38:10Z</time>
      </trkpt>
      <trkpt lat="45.64202" lon="2.32274">
        <ele>853</ele>
        <time>2019-05-18T17:38:11Z</time>
      </trkpt>
      <trkpt lat="45.642" lon="2.32274">
        <ele>853</ele>
        <time>2019-05-18T17:38:12Z</time>
      </trkpt>
      <trkpt lat="45.64198" lon="2.32275">
        <ele>853</ele>
        <time>2019-05-18T17:38:13Z</time>
      </trkpt>
      <trkpt lat="45.64197" lon="2.32275">
        <ele>854</ele>
        <time>2019-05-18T17:38:14Z</time>
      </trkpt>
      <trkpt lat="45.64196" lon="2.32276">
        <ele>854</ele>
        <time>2019-05-18T17:38:15Z</time>
      </trkpt>
      <trkpt lat="45.64194" lon="2.32276">
        <ele>854</ele>
        <time>2019-05-18T17:38:16Z</time>
      </trkpt>
      <trkpt lat="45.64193" lon="2.32277">
        <ele>854</ele>
        <time>2019-05-18T17:38:17Z</time>
      </trkpt>
      <trkpt lat="45.64191" lon="2.32277">
        <ele>854</ele>
        <time>2019-05-18T17:38:18Z</time>
      </trkpt>
      <trkpt lat="45.64189" lon="2.32278">
        <ele>854</ele>
        <time>2019-05-18T17:38:19Z</time>
      </trkpt>
      <trkpt lat="45.64187" lon="2.32278">
        <ele>854</ele>
        <time>2019-05-18T17:38:20Z</time>
      </trkpt>
      <trkpt lat="45.64185" lon="2.32279">
        <ele>854</ele>
        <time>2019-05-18T17:38:21Z</time>
      </trkpt>
      <trkpt lat="45.64183" lon="2.3228">
        <ele>854</ele>
        <time>2019-05-18T17:38:22Z</time>
      </trkpt>
      <trkpt lat="45.64182" lon="2.32281">
        <ele>855</ele>
        <time>2019-05-18T17:38:23Z</time>
      </trkpt>
      <trkpt lat="45.6418" lon="2.32281">
        <ele>855</ele>
        <time>2019-05-18T17:38:24Z</time>
      </trkpt>
      <trkpt lat="45.64179" lon="2.32282">
        <ele>855</ele>
        <time>2019-05-18T17:38:25Z</time>
      </trkpt>
      <trkpt lat="45.64177" lon="2.32283">
        <ele>855</ele>
        <time>2019-05-18T17:38:26Z</time>
      </trkpt>
      <trkpt lat="45.64176" lon="2.32283">
        <ele>855</ele>
        <time>2019-05-18T17:38:27Z</time>
      </trkpt>
      <trkpt lat="45.64174" lon="2.32284">
        <ele>855</ele>
        <time>2019-05-18T17:38:28Z</time>
      </trkpt>
      <trkpt lat="45.64172" lon="2.32284">
        <ele>855</ele>
        <time>2019-05-18T17:38:29Z</time>
      </trkpt>
      <trkpt lat="45.6417" lon="2.32285">
        <ele>855</ele>
        <time>2019-05-18T17:38:30Z</time>
      </trkpt>
      <trkpt lat="45.64168" lon="2.32286">
        <ele>855</ele>
        <time>2019-05-18T17:38:31Z</time>
      </trkpt>
      <trkpt lat="45.64166" lon="2.32286">
        <ele>856</ele>
        <time>2019-05-18T17:38:32Z</time>
      </trkpt>
      <trkpt lat="45.64164" lon="2.32287">
        <ele>856</ele>
        <time>2019-05-18T17:38:33Z</time>
      </trkpt>
      <trkpt lat="45.64163" lon="2.32287">
        <ele>856</ele>
        <time>2019-05-18T17:38:34Z</time>
      </trkpt>
      <trkpt lat="45.64161" lon="2.32288">
        <ele>856</ele>
        <time>2019-05-18T17:38:35Z</time>
      </trkpt>
      <trkpt lat="45.64159" lon="2.32288">
        <ele>856</ele>
        <time>2019-05-18T17:38:36Z</time>
      </trkpt>
      <trkpt lat="45.64158" lon="2.32289">
        <ele>856</ele>
        <time>2019-05-18T17:38:37Z</time>
      </trkpt>
      <trkpt lat="45.64156" lon="2.32289">
        <ele>856</ele>
        <time>2019-05-18T17:38:38Z</time>
      </trkpt>
      <trkpt lat="45.64155" lon="2.32289">
        <ele>856</ele>
        <time>2019-05-18T17:38:39Z</time>
      </trkpt>
      <trkpt lat="45.64153" lon="2.3229">
        <ele>856</ele>
        <time>2019-05-18T17:38:40Z</time>
      </trkpt>
      <trkpt lat="45.64152" lon="2.32289">
        <ele>856</ele>
        <time>2019-05-18T17:38:41Z</time>
      </trkpt>
      <trkpt lat="45.64151" lon="2.32289">
        <ele>856</ele>
        <time>2019-05-18T17:38:42Z</time>
      </trkpt>
      <trkpt lat="45.64149" lon="2.32289">
        <ele>856</ele>
        <time>2019-05-18T17:38:43Z</time>
      </trkpt>
      <trkpt lat="45.64148" lon="2.32289">
        <ele>856</ele>
        <time>2019-05-18T17:38:44Z</time>
      </trkpt>
      <trkpt lat="45.64147" lon="2.3229">
        <ele>856</ele>
        <time>2019-05-18T17:38:45Z</time>
      </trkpt>
      <trkpt lat="45.64145" lon="2.3229">
        <ele>857</ele>
        <time>2019-05-18T17:38:46Z</time>
      </trkpt>
      <trkpt lat="45.64143" lon="2.3229">
        <ele>857</ele>
        <time>2019-05-18T17:38:47Z</time>
      </trkpt>
      <trkpt lat="45.64141" lon="2.32291">
        <ele>857</ele>
        <time>2019-05-18T17:38:48Z</time>
      </trkpt>
      <trkpt lat="45.64139" lon="2.32291">
        <ele>857</ele>
        <time>2019-05-18T17:38:49Z</time>
      </trkpt>
      <trkpt lat="45.64137" lon="2.32292">
        <ele>857</ele>
        <time>2019-05-18T17:38:50Z</time>
      </trkpt>
      <trkpt lat="45.64135" lon="2.32292">
        <ele>857</ele>
        <time>2019-05-18T17:38:51Z</time>
      </trkpt>
      <trkpt lat="45.64133" lon="2.32292">
        <ele>857</ele>
        <time>2019-05-18T17:38:52Z</time>
      </trkpt>
      <trkpt lat="45.64131" lon="2.32292">
        <ele>857</ele>
        <time>2019-05-18T17:38:53Z</time>
      </trkpt>
      <trkpt lat="45.64129" lon="2.32293">
        <ele>857</ele>
        <time>2019-05-18T17:38:54Z</time>
      </trkpt>
      <trkpt lat="45.64127" lon="2.32293">
        <ele>857</ele>
        <time>2019-05-18T17:38:55Z</time>
      </trkpt>
      <trkpt lat="45.64125" lon="2.32292">
        <ele>857</ele>
        <time>2019-05-18T17:38:56Z</time>
      </trkpt>
      <trkpt lat="45.64123" lon="2.32292">
        <ele>857</ele>
        <time>2019-05-18T17:38:57Z</time>
      </trkpt>
      <trkpt lat="45.64121" lon="2.32292">
        <ele>857</ele>
        <time>2019-05-18T17:38:58Z</time>
      </trkpt>
      <trkpt lat="45.64119" lon="2.32291">
        <ele>857</ele>
        <time>2019-05-18T17:38:59Z</time>
      </trkpt>
      <trkpt lat="45.64117" lon="2.32291">
        <ele>857</ele>
        <time>2019-05-18T17:39:00Z</time>
      </trkpt>
      <trkpt lat="45.64114" lon="2.32291">
        <ele>857</ele>
        <time>2019-05-18T17:39:01Z</time>
      </trkpt>
      <trkpt lat="45.64112" lon="2.32291">
        <ele>857</ele>
        <time>2019-05-18T17:39:02Z</time>
      </trkpt>
      <trkpt lat="45.6411" lon="2.32291">
        <ele>857</ele>
        <time>2019-05-18T17:39:03Z</time>
      </trkpt>
      <trkpt lat="45.64107" lon="2.3229">
        <ele>857</ele>
        <time>2019-05-18T17:39:04Z</time>
      </trkpt>
      <trkpt lat="45.64105" lon="2.3229">
        <ele>857</ele>
        <time>2019-05-18T17:39:05Z</time>
      </trkpt>
      <trkpt lat="45.64103" lon="2.3229">
        <ele>858</ele>
        <time>2019-05-18T17:39:06Z</time>
      </trkpt>
      <trkpt lat="45.64101" lon="2.3229">
        <ele>858</ele>
        <time>2019-05-18T17:39:07Z</time>
      </trkpt>
      <trkpt lat="45.64098" lon="2.3229">
        <ele>858</ele>
        <time>2019-05-18T17:39:08Z</time>
      </trkpt>
      <trkpt lat="45.64096" lon="2.32289">
        <ele>858</ele>
        <time>2019-05-18T17:39:09Z</time>
      </trkpt>
      <trkpt lat="45.64094" lon="2.32289">
        <ele>858</ele>
        <time>2019-05-18T17:39:10Z</time>
      </trkpt>
      <trkpt lat="45.64091" lon="2.32289">
        <ele>858</ele>
        <time>2019-05-18T17:39:11Z</time>
      </trkpt>
      <trkpt lat="45.64089" lon="2.32289">
        <ele>858</ele>
        <time>2019-05-18T17:39:12Z</time>
      </trkpt>
      <trkpt lat="45.64087" lon="2.32289">
        <ele>858</ele>
        <time>2019-05-18T17:39:13Z</time>
      </trkpt>
      <trkpt lat="45.64085" lon="2.32289">
        <ele>858</ele>
        <time>2019-05-18T17:39:14Z</time>
      </trkpt>
      <trkpt lat="45.64082" lon="2.32289">
        <ele>858</ele>
        <time>2019-05-18T17:39:15Z</time>
      </trkpt>
      <trkpt lat="45.6408" lon="2.3229">
        <ele>858</ele>
        <time>2019-05-18T17:39:16Z</time>
      </trkpt>
      <trkpt lat="45.64078" lon="2.3229">
        <ele>858</ele>
        <time>2019-05-18T17:39:17Z</time>
      </trkpt>
      <trkpt lat="45.64075" lon="2.3229">
        <ele>858</ele>
        <time>2019-05-18T17:39:18Z</time>
      </trkpt>
      <trkpt lat="45.64074" lon="2.32289">
        <ele>858</ele>
        <time>2019-05-18T17:39:19Z</time>
      </trkpt>
      <trkpt lat="45.64072" lon="2.32289">
        <ele>859</ele>
        <time>2019-05-18T17:39:20Z</time>
      </trkpt>
      <trkpt lat="45.6407" lon="2.32289">
        <ele>859</ele>
        <time>2019-05-18T17:39:21Z</time>
      </trkpt>
      <trkpt lat="45.64068" lon="2.32289">
        <ele>859</ele>
        <time>2019-05-18T17:39:22Z</time>
      </trkpt>
      <trkpt lat="45.64066" lon="2.32289">
        <ele>859</ele>
        <time>2019-05-18T17:39:23Z</time>
      </trkpt>
      <trkpt lat="45.64063" lon="2.3229">
        <ele>859</ele>
        <time>2019-05-18T17:39:24Z</time>
      </trkpt>
      <trkpt lat="45.64061" lon="2.3229">
        <ele>859</ele>
        <time>2019-05-18T17:39:25Z</time>
      </trkpt>
      <trkpt lat="45.64059" lon="2.32291">
        <ele>859</ele>
        <time>2019-05-18T17:39:26Z</time>
      </trkpt>
      <trkpt lat="45.64057" lon="2.32291">
        <ele>859</ele>
        <time>2019-05-18T17:39:27Z</time>
      </trkpt>
      <trkpt lat="45.64054" lon="2.32291">
        <ele>859</ele>
        <time>2019-05-18T17:39:28Z</time>
      </trkpt>
      <trkpt lat="45.64052" lon="2.32291">
        <ele>859</ele>
        <time>2019-05-18T17:39:29Z</time>
      </trkpt>
      <trkpt lat="45.64049" lon="2.32292">
        <ele>859</ele>
        <time>2019-05-18T17:39:30Z</time>
      </trkpt>
      <trkpt lat="45.64047" lon="2.32292">
        <ele>859</ele>
        <time>2019-05-18T17:39:31Z</time>
      </trkpt>
      <trkpt lat="45.64045" lon="2.32291">
        <ele>859</ele>
        <time>2019-05-18T17:39:32Z</time>
      </trkpt>
      <trkpt lat="45.64043" lon="2.32291">
        <ele>859</ele>
        <time>2019-05-18T17:39:33Z</time>
      </trkpt>
      <trkpt lat="45.64041" lon="2.32291">
        <ele>859</ele>
        <time>2019-05-18T17:39:34Z</time>
      </trkpt>
      <trkpt lat="45.64038" lon="2.32291">
        <ele>860</ele>
        <time>2019-05-18T17:39:35Z</time>
      </trkpt>
      <trkpt lat="45.64036" lon="2.32292">
        <ele>860</ele>
        <time>2019-05-18T17:39:36Z</time>
      </trkpt>
      <trkpt lat="45.64034" lon="2.32292">
        <ele>860</ele>
        <time>2019-05-18T17:39:37Z</time>
      </trkpt>
      <trkpt lat="45.64032" lon="2.32293">
        <ele>860</ele>
        <time>2019-05-18T17:39:38Z</time>
      </trkpt>
      <trkpt lat="45.64029" lon="2.32293">
        <ele>860</ele>
        <time>2019-05-18T17:39:39Z</time>
      </trkpt>
      <trkpt lat="45.64028" lon="2.32293">
        <ele>860</ele>
        <time>2019-05-18T17:39:40Z</time>
      </trkpt>
      <trkpt lat="45.64026" lon="2.32292">
        <ele>860</ele>
        <time>2019-05-18T17:39:41Z</time>
      </trkpt>
      <trkpt lat="45.64023" lon="2.32292">
        <ele>860</ele>
        <time>2019-05-18T17:39:42Z</time>
      </trkpt>
      <trkpt lat="45.64021" lon="2.32293">
        <ele>860</ele>
        <time>2019-05-18T17:39:43Z</time>
      </trkpt>
      <trkpt lat="45.64017" lon="2.32293">
        <ele>859</ele>
        <time>2019-05-18T17:39:44Z</time>
      </trkpt>
      <trkpt lat="45.64014" lon="2.32294">
        <ele>859</ele>
        <time>2019-05-18T17:39:45Z</time>
      </trkpt>
      <trkpt lat="45.6401" lon="2.32295">
        <ele>859</ele>
        <time>2019-05-18T17:39:46Z</time>
      </trkpt>
      <trkpt lat="45.64006" lon="2.32295">
        <ele>859</ele>
        <time>2019-05-18T17:39:47Z</time>
      </trkpt>
      <trkpt lat="45.64001" lon="2.32296">
        <ele>858</ele>
        <time>2019-05-18T17:39:48Z</time>
      </trkpt>
      <trkpt lat="45.63997" lon="2.32296">
        <ele>858</ele>
        <time>2019-05-18T17:39:49Z</time>
      </trkpt>
      <trkpt lat="45.63992" lon="2.32297">
        <ele>858</ele>
        <time>2019-05-18T17:39:50Z</time>
      </trkpt>
      <trkpt lat="45.63988" lon="2.32298">
        <ele>857</ele>
        <time>2019-05-18T17:39:51Z</time>
      </trkpt>
      <trkpt lat="45.63982" lon="2.32299">
        <ele>857</ele>
        <time>2019-05-18T17:39:52Z</time>
      </trkpt>
      <trkpt lat="45.63977" lon="2.323">
        <ele>856</ele>
        <time>2019-05-18T17:39:53Z</time>
      </trkpt>
      <trkpt lat="45.63972" lon="2.32301">
        <ele>856</ele>
        <time>2019-05-18T17:39:54Z</time>
      </trkpt>
      <trkpt lat="45.63967" lon="2.32303">
        <ele>856</ele>
        <time>2019-05-18T17:39:55Z</time>
      </trkpt>
      <trkpt lat="45.63963" lon="2.32304">
        <ele>856</ele>
        <time>2019-05-18T17:39:56Z</time>
      </trkpt>
      <trkpt lat="45.63957" lon="2.32305">
        <ele>855</ele>
        <time>2019-05-18T17:39:57Z</time>
      </trkpt>
      <trkpt lat="45.63952" lon="2.32307">
        <ele>855</ele>
        <time>2019-05-18T17:39:58Z</time>
      </trkpt>
      <trkpt lat="45.63947" lon="2.32308">
        <ele>855</ele>
        <time>2019-05-18T17:39:59Z</time>
      </trkpt>
      <trkpt lat="45.63942" lon="2.32309">
        <ele>855</ele>
        <time>2019-05-18T17:40:00Z</time>
      </trkpt>
      <trkpt lat="45.63937" lon="2.32311">
        <ele>855</ele>
        <time>2019-05-18T17:40:01Z</time>
      </trkpt>
      <trkpt lat="45.63933" lon="2.32312">
        <ele>855</ele>
        <time>2019-05-18T17:40:02Z</time>
      </trkpt>
      <trkpt lat="45.63928" lon="2.32312">
        <ele>855</ele>
        <time>2019-05-18T17:40:03Z</time>
      </trkpt>
      <trkpt lat="45.63924" lon="2.32313">
        <ele>855</ele>
        <time>2019-05-18T17:40:04Z</time>
      </trkpt>
      <trkpt lat="45.6392" lon="2.32315">
        <ele>854</ele>
        <time>2019-05-18T17:40:05Z</time>
      </trkpt>
      <trkpt lat="45.63916" lon="2.32317">
        <ele>854</ele>
        <time>2019-05-18T17:40:06Z</time>
      </trkpt>
      <trkpt lat="45.63913" lon="2.3232">
        <ele>854</ele>
        <time>2019-05-18T17:40:07Z</time>
      </trkpt>
      <trkpt lat="45.6391" lon="2.32322">
        <ele>854</ele>
        <time>2019-05-18T17:40:08Z</time>
      </trkpt>
      <trkpt lat="45.63907" lon="2.32325">
        <ele>854</ele>
        <time>2019-05-18T17:40:09Z</time>
      </trkpt>
      <trkpt lat="45.63905" lon="2.32328">
        <ele>854</ele>
        <time>2019-05-18T17:40:10Z</time>
      </trkpt>
      <trkpt lat="45.63902" lon="2.32329">
        <ele>855</ele>
        <time>2019-05-18T17:40:11Z</time>
      </trkpt>
      <trkpt lat="45.63899" lon="2.3233">
        <ele>854</ele>
        <time>2019-05-18T17:40:12Z</time>
      </trkpt>
      <trkpt lat="45.63896" lon="2.32332">
        <ele>854</ele>
        <time>2019-05-18T17:40:13Z</time>
      </trkpt>
      <trkpt lat="45.63894" lon="2.32335">
        <ele>854</ele>
        <time>2019-05-18T17:40:14Z</time>
      </trkpt>
      <trkpt lat="45.63891" lon="2.32336">
        <ele>854</ele>
        <time>2019-05-18T17:40:15Z</time>
      </trkpt>
      <trkpt lat="45.63887" lon="2.32338">
        <ele>855</ele>
        <time>2019-05-18T17:40:16Z</time>
      </trkpt>
      <trkpt lat="45.63884" lon="2.32339">
        <ele>855</ele>
        <time>2019-05-18T17:40:17Z</time>
      </trkpt>
      <trkpt lat="45.63881" lon="2.32341">
        <ele>855</ele>
        <time>2019-05-18T17:40:18Z</time>
      </trkpt>
      <trkpt lat="45.63878" lon="2.32342">
        <ele>855</ele>
        <time>2019-05-18T17:40:19Z</time>
      </trkpt>
      <trkpt lat="45.63874" lon="2.32342">
        <ele>855</ele>
        <time>2019-05-18T17:40:20Z</time>
      </trkpt>
      <trkpt lat="45.63871" lon="2.32343">
        <ele>855</ele>
        <time>2019-05-18T17:40:21Z</time>
      </trkpt>
      <trkpt lat="45.63867" lon="2.32344">
        <ele>855</ele>
        <time>2019-05-18T17:40:22Z</time>
      </trkpt>
      <trkpt lat="45.63863" lon="2.32345">
        <ele>855</ele>
        <time>2019-05-18T17:40:23Z</time>
      </trkpt>
      <trkpt lat="45.6386" lon="2.32347">
        <ele>855</ele>
        <time>2019-05-18T17:40:24Z</time>
      </trkpt>
      <trkpt lat="45.63856" lon="2.32348">
        <ele>855</ele>
        <time>2019-05-18T17:40:25Z</time>
      </trkpt>
      <trkpt lat="45.63853" lon="2.32348">
        <ele>855</ele>
        <time>2019-05-18T17:40:26Z</time>
      </trkpt>
      <trkpt lat="45.63849" lon="2.32349">
        <ele>854</ele>
        <time>2019-05-18T17:40:27Z</time>
      </trkpt>
      <trkpt lat="45.63844" lon="2.3235">
        <ele>854</ele>
        <time>2019-05-18T17:40:28Z</time>
      </trkpt>
      <trkpt lat="45.63841" lon="2.32351">
        <ele>854</ele>
        <time>2019-05-18T17:40:29Z</time>
      </trkpt>
      <trkpt lat="45.63837" lon="2.32352">
        <ele>854</ele>
        <time>2019-05-18T17:40:30Z</time>
      </trkpt>
      <trkpt lat="45.63833" lon="2.32353">
        <ele>854</ele>
        <time>2019-05-18T17:40:31Z</time>
      </trkpt>
      <trkpt lat="45.63829" lon="2.32354">
        <ele>854</ele>
        <time>2019-05-18T17:40:32Z</time>
      </trkpt>
      <trkpt lat="45.63825" lon="2.32355">
        <ele>853</ele>
        <time>2019-05-18T17:40:33Z</time>
      </trkpt>
      <trkpt lat="45.6382" lon="2.32355">
        <ele>853</ele>
        <time>2019-05-18T17:40:34Z</time>
      </trkpt>
      <trkpt lat="45.63816" lon="2.32356">
        <ele>853</ele>
        <time>2019-05-18T17:40:35Z</time>
      </trkpt>
      <trkpt lat="45.63812" lon="2.32357">
        <ele>853</ele>
        <time>2019-05-18T17:40:36Z</time>
      </trkpt>
      <trkpt lat="45.63809" lon="2.32357">
        <ele>853</ele>
        <time>2019-05-18T17:40:37Z</time>
      </trkpt>
      <trkpt lat="45.63804" lon="2.32357">
        <ele>852</ele>
        <time>2019-05-18T17:40:38Z</time>
      </trkpt>
      <trkpt lat="45.638" lon="2.32357">
        <ele>852</ele>
        <time>2019-05-18T17:40:39Z</time>
      </trkpt>
      <trkpt lat="45.63795" lon="2.32357">
        <ele>852</ele>
        <time>2019-05-18T17:40:40Z</time>
      </trkpt>
      <trkpt lat="45.6379" lon="2.32357">
        <ele>851</ele>
        <time>2019-05-18T17:40:41Z</time>
      </trkpt>
      <trkpt lat="45.63785" lon="2.32357">
        <ele>851</ele>
        <time>2019-05-18T17:40:42Z</time>
      </trkpt>
      <trkpt lat="45.63778" lon="2.32357">
        <ele>850</ele>
        <time>2019-05-18T17:40:43Z</time>
      </trkpt>
      <trkpt lat="45.63772" lon="2.32356">
        <ele>850</ele>
        <time>2019-05-18T17:40:44Z</time>
      </trkpt>
      <trkpt lat="45.63764" lon="2.32355">
        <ele>849</ele>
        <time>2019-05-18T17:40:45Z</time>
      </trkpt>
      <trkpt lat="45.63757" lon="2.32355">
        <ele>849</ele>
        <time>2019-05-18T17:40:46Z</time>
      </trkpt>
      <trkpt lat="45.6375" lon="2.32354">
        <ele>848</ele>
        <time>2019-05-18T17:40:47Z</time>
      </trkpt>
      <trkpt lat="45.63743" lon="2.32354">
        <ele>848</ele>
        <time>2019-05-18T17:40:48Z</time>
      </trkpt>
      <trkpt lat="45.63736" lon="2.32353">
        <ele>848</ele>
        <time>2019-05-18T17:40:49Z</time>
      </trkpt>
      <trkpt lat="45.6373" lon="2.32353">
        <ele>848</ele>
        <time>2019-05-18T17:40:50Z</time>
      </trkpt>
      <trkpt lat="45.63724" lon="2.32352">
        <ele>848</ele>
        <time>2019-05-18T17:40:51Z</time>
      </trkpt>
      <trkpt lat="45.63719" lon="2.3235">
        <ele>847</ele>
        <time>2019-05-18T17:40:52Z</time>
      </trkpt>
      <trkpt lat="45.63713" lon="2.32349">
        <ele>847</ele>
        <time>2019-05-18T17:40:53Z</time>
      </trkpt>
      <trkpt lat="45.63709" lon="2.32349">
        <ele>847</ele>
        <time>2019-05-18T17:40:54Z</time>
      </trkpt>
      <trkpt lat="45.63704" lon="2.32348">
        <ele>847</ele>
        <time>2019-05-18T17:40:55Z</time>
      </trkpt>
      <trkpt lat="45.637" lon="2.32347">
        <ele>847</ele>
        <time>2019-05-18T17:40:56Z</time>
      </trkpt>
      <trkpt lat="45.63696" lon="2.32347">
        <ele>847</ele>
        <time>2019-05-18T17:40:57Z</time>
      </trkpt>
      <trkpt lat="45.63692" lon="2.32347">
        <ele>847</ele>
        <time>2019-05-18T17:40:58Z</time>
      </trkpt>
      <trkpt lat="45.63687" lon="2.32347">
        <ele>847</ele>
        <time>2019-05-18T17:40:59Z</time>
      </trkpt>
      <trkpt lat="45.63683" lon="2.32347">
        <ele>847</ele>
        <time>2019-05-18T17:41:00Z</time>
      </trkpt>
      <trkpt lat="45.63678" lon="2.32347">
        <ele>846</ele>
        <time>2019-05-18T17:41:01Z</time>
      </trkpt>
      <trkpt lat="45.63674" lon="2.32347">
        <ele>846</ele>
        <time>2019-05-18T17:41:02Z</time>
      </trkpt>
      <trkpt lat="45.63669" lon="2.32346">
        <ele>846</ele>
        <time>2019-05-18T17:41:03Z</time>
      </trkpt>
      <trkpt lat="45.63665" lon="2.32346">
        <ele>846</ele>
        <time>2019-05-18T17:41:04Z</time>
      </trkpt>
      <trkpt lat="45.63661" lon="2.32346">
        <ele>846</ele>
        <time>2019-05-18T17:41:05Z</time>
      </trkpt>
      <trkpt lat="45.63657" lon="2.32346">
        <ele>846</ele>
        <time>2019-05-18T17:41:06Z</time>
      </trkpt>
      <trkpt lat="45.63652" lon="2.32347">
        <ele>846</ele>
        <time>2019-05-18T17:41:07Z</time>
      </trkpt>
      <trkpt lat="45.63648" lon="2.32349">
        <ele>846</ele>
        <time>2019-05-18T17:41:08Z</time>
      </trkpt>
      <trkpt lat="45.63644" lon="2.32351">
        <ele>846</ele>
        <time>2019-05-18T17:41:09Z</time>
      </trkpt>
      <trkpt lat="45.63641" lon="2.32355">
        <ele>846</ele>
        <time>2019-05-18T17:41:10Z</time>
      </trkpt>
      <trkpt lat="45.63639" lon="2.3236">
        <ele>846</ele>
        <time>2019-05-18T17:41:11Z</time>
      </trkpt>
      <trkpt lat="45.63638" lon="2.32365">
        <ele>846</ele>
        <time>2019-05-18T17:41:12Z</time>
      </trkpt>
      <trkpt lat="45.63638" lon="2.3237">
        <ele>846</ele>
        <time>2019-05-18T17:41:13Z</time>
      </trkpt>
      <trkpt lat="45.63638" lon="2.32374">
        <ele>846</ele>
        <time>2019-05-18T17:41:14Z</time>
      </trkpt>
      <trkpt lat="45.63637" lon="2.32379">
        <ele>847</ele>
        <time>2019-05-18T17:41:15Z</time>
      </trkpt>
      <trkpt lat="45.63637" lon="2.32383">
        <ele>847</ele>
        <time>2019-05-18T17:41:16Z</time>
      </trkpt>
      <trkpt lat="45.63637" lon="2.32387">
        <ele>847</ele>
        <time>2019-05-18T17:41:17Z</time>
      </trkpt>
      <trkpt lat="45.63636" lon="2.32392">
        <ele>847</ele>
        <time>2019-05-18T17:41:18Z</time>
      </trkpt>
      <trkpt lat="45.63635" lon="2.32396">
        <ele>847</ele>
        <time>2019-05-18T17:41:19Z</time>
      </trkpt>
      <trkpt lat="45.63635" lon="2.324">
        <ele>847</ele>
        <time>2019-05-18T17:41:20Z</time>
      </trkpt>
      <trkpt lat="45.63634" lon="2.32404">
        <ele>847</ele>
        <time>2019-05-18T17:41:21Z</time>
      </trkpt>
      <trkpt lat="45.63633" lon="2.32407">
        <ele>847</ele>
        <time>2019-05-18T17:41:22Z</time>
      </trkpt>
      <trkpt lat="45.63633" lon="2.32411">
        <ele>848</ele>
        <time>2019-05-18T17:41:23Z</time>
      </trkpt>
      <trkpt lat="45.63632" lon="2.32415">
        <ele>848</ele>
        <time>2019-05-18T17:41:24Z</time>
      </trkpt>
      <trkpt lat="45.63631" lon="2.32419">
        <ele>848</ele>
        <time>2019-05-18T17:41:25Z</time>
      </trkpt>
      <trkpt lat="45.6363" lon="2.32423">
        <ele>848</ele>
        <time>2019-05-18T17:41:26Z</time>
      </trkpt>
      <trkpt lat="45.63629" lon="2.32428">
        <ele>848</ele>
        <time>2019-05-18T17:41:27Z</time>
      </trkpt>
      <trkpt lat="45.63628" lon="2.32432">
        <ele>848</ele>
        <time>2019-05-18T17:41:28Z</time>
      </trkpt>
      <trkpt lat="45.63627" lon="2.32436">
        <ele>848</ele>
        <time>2019-05-18T17:41:29Z</time>
      </trkpt>
      <trkpt lat="45.63626" lon="2.32441">
        <ele>848</ele>
        <time>2019-05-18T17:41:30Z</time>
      </trkpt>
      <trkpt lat="45.63625" lon="2.32446">
        <ele>848</ele>
        <time>2019-05-18T17:41:31Z</time>
      </trkpt>
      <trkpt lat="45.63623" lon="2.32451">
        <ele>848</ele>
        <time>2019-05-18T17:41:32Z</time>
      </trkpt>
      <trkpt lat="45.63622" lon="2.32455">
        <ele>848</ele>
        <time>2019-05-18T17:41:33Z</time>
      </trkpt>
      <trkpt lat="45.63621" lon="2.32459">
        <ele>848</ele>
        <time>2019-05-18T17:41:34Z</time>
      </trkpt>
      <trkpt lat="45.63619" lon="2.32464">
        <ele>848</ele>
        <time>2019-05-18T17:41:35Z</time>
      </trkpt>
      <trkpt lat="45.63618" lon="2.32469">
        <ele>848</ele>
        <time>2019-05-18T17:41:36Z</time>
      </trkpt>
      <trkpt lat="45.63617" lon="2.32473">
        <ele>848</ele>
        <time>2019-05-18T17:41:37Z</time>
      </trkpt>
      <trkpt lat="45.63616" lon="2.32478">
        <ele>848</ele>
        <time>2019-05-18T17:41:38Z</time>
      </trkpt>
      <trkpt lat="45.63615" lon="2.32482">
        <ele>848</ele>
        <time>2019-05-18T17:41:39Z</time>
      </trkpt>
      <trkpt lat="45.63613" lon="2.32487">
        <ele>848</ele>
        <time>2019-05-18T17:41:40Z</time>
      </trkpt>
      <trkpt lat="45.63612" lon="2.32491">
        <ele>848</ele>
        <time>2019-05-18T17:41:41Z</time>
      </trkpt>
      <trkpt lat="45.63611" lon="2.32496">
        <ele>848</ele>
        <time>2019-05-18T17:41:42Z</time>
      </trkpt>
      <trkpt lat="45.6361" lon="2.32501">
        <ele>848</ele>
        <time>2019-05-18T17:41:43Z</time>
      </trkpt>
      <trkpt lat="45.63609" lon="2.32506">
        <ele>847</ele>
        <time>2019-05-18T17:41:44Z</time>
      </trkpt>
      <trkpt lat="45.63607" lon="2.32511">
        <ele>847</ele>
        <time>2019-05-18T17:41:45Z</time>
      </trkpt>
      <trkpt lat="45.63606" lon="2.32515">
        <ele>847</ele>
        <time>2019-05-18T17:41:46Z</time>
      </trkpt>
      <trkpt lat="45.63605" lon="2.3252">
        <ele>847</ele>
        <time>2019-05-18T17:41:47Z</time>
      </trkpt>
      <trkpt lat="45.63603" lon="2.32524">
        <ele>847</ele>
        <time>2019-05-18T17:41:48Z</time>
      </trkpt>
      <trkpt lat="45.63602" lon="2.32529">
        <ele>847</ele>
        <time>2019-05-18T17:41:49Z</time>
      </trkpt>
      <trkpt lat="45.636" lon="2.32533">
        <ele>847</ele>
        <time>2019-05-18T17:41:50Z</time>
      </trkpt>
      <trkpt lat="45.63599" lon="2.32538">
        <ele>847</ele>
        <time>2019-05-18T17:41:51Z</time>
      </trkpt>
      <trkpt lat="45.63597" lon="2.32542">
        <ele>847</ele>
        <time>2019-05-18T17:41:52Z</time>
      </trkpt>
      <trkpt lat="45.63595" lon="2.32545">
        <ele>847</ele>
        <time>2019-05-18T17:41:53Z</time>
      </trkpt>
      <trkpt lat="45.63594" lon="2.32549">
        <ele>847</ele>
        <time>2019-05-18T17:41:54Z</time>
      </trkpt>
      <trkpt lat="45.63592" lon="2.32553">
        <ele>847</ele>
        <time>2019-05-18T17:41:55Z</time>
      </trkpt>
      <trkpt lat="45.6359" lon="2.32556">
        <ele>847</ele>
        <time>2019-05-18T17:41:56Z</time>
      </trkpt>
      <trkpt lat="45.63589" lon="2.32559">
        <ele>847</ele>
        <time>2019-05-18T17:41:57Z</time>
      </trkpt>
      <trkpt lat="45.63588" lon="2.32561">
        <ele>847</ele>
        <time>2019-05-18T17:41:58Z</time>
      </trkpt>
      <trkpt lat="45.63587" lon="2.32564">
        <ele>847</ele>
        <time>2019-05-18T17:41:59Z</time>
      </trkpt>
      <trkpt lat="45.63586" lon="2.32568">
        <ele>847</ele>
        <time>2019-05-18T17:42:00Z</time>
      </trkpt>
      <trkpt lat="45.63584" lon="2.32571">
        <ele>847</ele>
        <time>2019-05-18T17:42:01Z</time>
      </trkpt>
      <trkpt lat="45.63582" lon="2.32575">
        <ele>847</ele>
        <time>2019-05-18T17:42:02Z</time>
      </trkpt>
      <trkpt lat="45.63581" lon="2.32579">
        <ele>847</ele>
        <time>2019-05-18T17:42:03Z</time>
      </trkpt>
      <trkpt lat="45.63578" lon="2.32583">
        <ele>847</ele>
        <time>2019-05-18T17:42:04Z</time>
      </trkpt>
      <trkpt lat="45.63577" lon="2.32588">
        <ele>847</ele>
        <time>2019-05-18T17:42:05Z</time>
      </trkpt>
      <trkpt lat="45.63575" lon="2.32592">
        <ele>847</ele>
        <time>2019-05-18T17:42:06Z</time>
      </trkpt>
      <trkpt lat="45.63574" lon="2.32597">
        <ele>847</ele>
        <time>2019-05-18T17:42:07Z</time>
      </trkpt>
      <trkpt lat="45.63573" lon="2.32601">
        <ele>847</ele>
        <time>2019-05-18T17:42:08Z</time>
      </trkpt>
      <trkpt lat="45.63571" lon="2.32605">
        <ele>847</ele>
        <time>2019-05-18T17:42:09Z</time>
      </trkpt>
      <trkpt lat="45.6357" lon="2.32609">
        <ele>847</ele>
        <time>2019-05-18T17:42:10Z</time>
      </trkpt>
      <trkpt lat="45.63568" lon="2.32614">
        <ele>847</ele>
        <time>2019-05-18T17:42:11Z</time>
      </trkpt>
      <trkpt lat="45.63564" lon="2.32621">
        <ele>847</ele>
        <time>2019-05-18T17:42:12Z</time>
      </trkpt>
      <trkpt lat="45.63562" lon="2.32625">
        <ele>847</ele>
        <time>2019-05-18T17:42:13Z</time>
      </trkpt>
      <trkpt lat="45.6356" lon="2.3263">
        <ele>847</ele>
        <time>2019-05-18T17:42:14Z</time>
      </trkpt>
      <trkpt lat="45.63559" lon="2.32634">
        <ele>847</ele>
        <time>2019-05-18T17:42:15Z</time>
      </trkpt>
      <trkpt lat="45.63557" lon="2.32638">
        <ele>847</ele>
        <time>2019-05-18T17:42:16Z</time>
      </trkpt>
      <trkpt lat="45.63555" lon="2.32642">
        <ele>847</ele>
        <time>2019-05-18T17:42:18Z</time>
      </trkpt>
      <trkpt lat="45.63554" lon="2.32646">
        <ele>847</ele>
        <time>2019-05-18T17:42:19Z</time>
      </trkpt>
      <trkpt lat="45.63552" lon="2.32649">
        <ele>848</ele>
        <time>2019-05-18T17:42:20Z</time>
      </trkpt>
      <trkpt lat="45.6355" lon="2.32652">
        <ele>848</ele>
        <time>2019-05-18T17:42:21Z</time>
      </trkpt>
      <trkpt lat="45.63549" lon="2.32656">
        <ele>848</ele>
        <time>2019-05-18T17:42:22Z</time>
      </trkpt>
      <trkpt lat="45.63547" lon="2.3266">
        <ele>848</ele>
        <time>2019-05-18T17:42:23Z</time>
      </trkpt>
      <trkpt lat="45.63544" lon="2.32664">
        <ele>848</ele>
        <time>2019-05-18T17:42:24Z</time>
      </trkpt>
      <trkpt lat="45.63542" lon="2.32668">
        <ele>848</ele>
        <time>2019-05-18T17:42:25Z</time>
      </trkpt>
      <trkpt lat="45.6354" lon="2.32672">
        <ele>848</ele>
        <time>2019-05-18T17:42:26Z</time>
      </trkpt>
      <trkpt lat="45.63538" lon="2.32675">
        <ele>848</ele>
        <time>2019-05-18T17:42:27Z</time>
      </trkpt>
      <trkpt lat="45.63536" lon="2.32679">
        <ele>848</ele>
        <time>2019-05-18T17:42:28Z</time>
      </trkpt>
      <trkpt lat="45.63534" lon="2.32684">
        <ele>848</ele>
        <time>2019-05-18T17:42:29Z</time>
      </trkpt>
      <trkpt lat="45.63532" lon="2.32688">
        <ele>848</ele>
        <time>2019-05-18T17:42:30Z</time>
      </trkpt>
      <trkpt lat="45.6353" lon="2.32693">
        <ele>848</ele>
        <time>2019-05-18T17:42:31Z</time>
      </trkpt>
      <trkpt lat="45.63528" lon="2.32697">
        <ele>848</ele>
        <time>2019-05-18T17:42:32Z</time>
      </trkpt>
      <trkpt lat="45.63526" lon="2.32702">
        <ele>848</ele>
        <time>2019-05-18T17:42:33Z</time>
      </trkpt>
      <trkpt lat="45.63525" lon="2.32706">
        <ele>848</ele>
        <time>2019-05-18T17:42:34Z</time>
      </trkpt>
      <trkpt lat="45.63523" lon="2.3271">
        <ele>848</ele>
        <time>2019-05-18T17:42:35Z</time>
      </trkpt>
      <trkpt lat="45.63521" lon="2.32714">
        <ele>848</ele>
        <time>2019-05-18T17:42:36Z</time>
      </trkpt>
      <trkpt lat="45.63519" lon="2.32718">
        <ele>848</ele>
        <time>2019-05-18T17:42:37Z</time>
      </trkpt>
      <trkpt lat="45.63517" lon="2.32722">
        <ele>848</ele>
        <time>2019-05-18T17:42:38Z</time>
      </trkpt>
      <trkpt lat="45.63516" lon="2.32726">
        <ele>848</ele>
        <time>2019-05-18T17:42:39Z</time>
      </trkpt>
      <trkpt lat="45.63514" lon="2.3273">
        <ele>847</ele>
        <time>2019-05-18T17:42:40Z</time>
      </trkpt>
      <trkpt lat="45.63512" lon="2.32735">
        <ele>847</ele>
        <time>2019-05-18T17:42:41Z</time>
      </trkpt>
      <trkpt lat="45.6351" lon="2.32741">
        <ele>847</ele>
        <time>2019-05-18T17:42:42Z</time>
      </trkpt>
      <trkpt lat="45.63508" lon="2.32747">
        <ele>846</ele>
        <time>2019-05-18T17:42:43Z</time>
      </trkpt>
      <trkpt lat="45.63506" lon="2.32753">
        <ele>846</ele>
        <time>2019-05-18T17:42:44Z</time>
      </trkpt>
      <trkpt lat="45.63503" lon="2.32758">
        <ele>845</ele>
        <time>2019-05-18T17:42:45Z</time>
      </trkpt>
      <trkpt lat="45.635" lon="2.32764">
        <ele>845</ele>
        <time>2019-05-18T17:42:46Z</time>
      </trkpt>
      <trkpt lat="45.63497" lon="2.32769">
        <ele>844</ele>
        <time>2019-05-18T17:42:47Z</time>
      </trkpt>
      <trkpt lat="45.63493" lon="2.32774">
        <ele>843</ele>
        <time>2019-05-18T17:42:48Z</time>
      </trkpt>
      <trkpt lat="45.63489" lon="2.32778">
        <ele>843</ele>
        <time>2019-05-18T17:42:49Z</time>
      </trkpt>
      <trkpt lat="45.63485" lon="2.32782">
        <ele>842</ele>
        <time>2019-05-18T17:42:50Z</time>
      </trkpt>
      <trkpt lat="45.63475" lon="2.32787">
        <ele>842</ele>
        <time>2019-05-18T17:42:51Z</time>
      </trkpt>
      <trkpt lat="45.63469" lon="2.32789">
        <ele>841</ele>
        <time>2019-05-18T17:42:53Z</time>
      </trkpt>
      <trkpt lat="45.63463" lon="2.32792">
        <ele>840</ele>
        <time>2019-05-18T17:42:54Z</time>
      </trkpt>
      <trkpt lat="45.63457" lon="2.32794">
        <ele>840</ele>
        <time>2019-05-18T17:42:55Z</time>
      </trkpt>
      <trkpt lat="45.63452" lon="2.32798">
        <ele>840</ele>
        <time>2019-05-18T17:42:56Z</time>
      </trkpt>
      <trkpt lat="45.63447" lon="2.32801">
        <ele>840</ele>
        <time>2019-05-18T17:42:57Z</time>
      </trkpt>
      <trkpt lat="45.63443" lon="2.32805">
        <ele>839</ele>
        <time>2019-05-18T17:42:58Z</time>
      </trkpt>
      <trkpt lat="45.63439" lon="2.32808">
        <ele>839</ele>
        <time>2019-05-18T17:42:59Z</time>
      </trkpt>
      <trkpt lat="45.63435" lon="2.32812">
        <ele>839</ele>
        <time>2019-05-18T17:43:00Z</time>
      </trkpt>
      <trkpt lat="45.63432" lon="2.32816">
        <ele>839</ele>
        <time>2019-05-18T17:43:01Z</time>
      </trkpt>
      <trkpt lat="45.63429" lon="2.3282">
        <ele>839</ele>
        <time>2019-05-18T17:43:02Z</time>
      </trkpt>
      <trkpt lat="45.63426" lon="2.32823">
        <ele>839</ele>
        <time>2019-05-18T17:43:03Z</time>
      </trkpt>
      <trkpt lat="45.63424" lon="2.32827">
        <ele>839</ele>
        <time>2019-05-18T17:43:04Z</time>
      </trkpt>
      <trkpt lat="45.63421" lon="2.32831">
        <ele>838</ele>
        <time>2019-05-18T17:43:05Z</time>
      </trkpt>
      <trkpt lat="45.63418" lon="2.32834">
        <ele>839</ele>
        <time>2019-05-18T17:43:06Z</time>
      </trkpt>
      <trkpt lat="45.63415" lon="2.32838">
        <ele>838</ele>
        <time>2019-05-18T17:43:07Z</time>
      </trkpt>
      <trkpt lat="45.63412" lon="2.32841">
        <ele>838</ele>
        <time>2019-05-18T17:43:08Z</time>
      </trkpt>
      <trkpt lat="45.63409" lon="2.32845">
        <ele>838</ele>
        <time>2019-05-18T17:43:09Z</time>
      </trkpt>
      <trkpt lat="45.63406" lon="2.32848">
        <ele>838</ele>
        <time>2019-05-18T17:43:10Z</time>
      </trkpt>
      <trkpt lat="45.63403" lon="2.32852">
        <ele>838</ele>
        <time>2019-05-18T17:43:11Z</time>
      </trkpt>
      <trkpt lat="45.634" lon="2.32855">
        <ele>838</ele>
        <time>2019-05-18T17:43:12Z</time>
      </trkpt>
      <trkpt lat="45.63396" lon="2.32858">
        <ele>838</ele>
        <time>2019-05-18T17:43:13Z</time>
      </trkpt>
      <trkpt lat="45.63392" lon="2.3286">
        <ele>837</ele>
        <time>2019-05-18T17:43:14Z</time>
      </trkpt>
      <trkpt lat="45.63387" lon="2.32862">
        <ele>837</ele>
        <time>2019-05-18T17:43:15Z</time>
      </trkpt>
      <trkpt lat="45.63383" lon="2.32864">
        <ele>837</ele>
        <time>2019-05-18T17:43:16Z</time>
      </trkpt>
      <trkpt lat="45.63379" lon="2.32865">
        <ele>837</ele>
        <time>2019-05-18T17:43:17Z</time>
      </trkpt>
      <trkpt lat="45.63375" lon="2.32866">
        <ele>837</ele>
        <time>2019-05-18T17:43:18Z</time>
      </trkpt>
      <trkpt lat="45.63371" lon="2.32868">
        <ele>836</ele>
        <time>2019-05-18T17:43:19Z</time>
      </trkpt>
      <trkpt lat="45.63367" lon="2.32871">
        <ele>836</ele>
        <time>2019-05-18T17:43:20Z</time>
      </trkpt>
      <trkpt lat="45.6336" lon="2.32881">
        <ele>836</ele>
        <time>2019-05-18T17:43:21Z</time>
      </trkpt>
      <trkpt lat="45.63358" lon="2.32887">
        <ele>835</ele>
        <time>2019-05-18T17:43:23Z</time>
      </trkpt>
      <trkpt lat="45.63353" lon="2.32899">
        <ele>835</ele>
        <time>2019-05-18T17:43:24Z</time>
      </trkpt>
      <trkpt lat="45.6335" lon="2.32906">
        <ele>835</ele>
        <time>2019-05-18T17:43:25Z</time>
      </trkpt>
      <trkpt lat="45.63347" lon="2.32913">
        <ele>834</ele>
        <time>2019-05-18T17:43:26Z</time>
      </trkpt>
      <trkpt lat="45.63344" lon="2.3292">
        <ele>834</ele>
        <time>2019-05-18T17:43:27Z</time>
      </trkpt>
      <trkpt lat="45.63339" lon="2.32934">
        <ele>834</ele>
        <time>2019-05-18T17:43:29Z</time>
      </trkpt>
      <trkpt lat="45.63336" lon="2.32942">
        <ele>834</ele>
        <time>2019-05-18T17:43:30Z</time>
      </trkpt>
      <trkpt lat="45.63334" lon="2.32949">
        <ele>833</ele>
        <time>2019-05-18T17:43:31Z</time>
      </trkpt>
      <trkpt lat="45.63331" lon="2.32956">
        <ele>833</ele>
        <time>2019-05-18T17:43:32Z</time>
      </trkpt>
      <trkpt lat="45.63328" lon="2.32962">
        <ele>833</ele>
        <time>2019-05-18T17:43:33Z</time>
      </trkpt>
      <trkpt lat="45.63324" lon="2.32968">
        <ele>833</ele>
        <time>2019-05-18T17:43:34Z</time>
      </trkpt>
      <trkpt lat="45.63321" lon="2.32974">
        <ele>833</ele>
        <time>2019-05-18T17:43:35Z</time>
      </trkpt>
      <trkpt lat="45.63317" lon="2.3298">
        <ele>832</ele>
        <time>2019-05-18T17:43:37Z</time>
      </trkpt>
      <trkpt lat="45.63313" lon="2.32986">
        <ele>832</ele>
        <time>2019-05-18T17:43:38Z</time>
      </trkpt>
      <trkpt lat="45.63309" lon="2.32991">
        <ele>832</ele>
        <time>2019-05-18T17:43:39Z</time>
      </trkpt>
      <trkpt lat="45.63304" lon="2.32996">
        <ele>832</ele>
        <time>2019-05-18T17:43:40Z</time>
      </trkpt>
      <trkpt lat="45.63299" lon="2.32998">
        <ele>832</ele>
        <time>2019-05-18T17:43:41Z</time>
      </trkpt>
      <trkpt lat="45.63294" lon="2.32999">
        <ele>831</ele>
        <time>2019-05-18T17:43:42Z</time>
      </trkpt>
      <trkpt lat="45.63289" lon="2.33001">
        <ele>831</ele>
        <time>2019-05-18T17:43:43Z</time>
      </trkpt>
      <trkpt lat="45.63284" lon="2.33003">
        <ele>831</ele>
        <time>2019-05-18T17:43:44Z</time>
      </trkpt>
      <trkpt lat="45.63279" lon="2.33004">
        <ele>831</ele>
        <time>2019-05-18T17:43:45Z</time>
      </trkpt>
      <trkpt lat="45.63275" lon="2.33005">
        <ele>831</ele>
        <time>2019-05-18T17:43:46Z</time>
      </trkpt>
      <trkpt lat="45.6327" lon="2.33006">
        <ele>831</ele>
        <time>2019-05-18T17:43:47Z</time>
      </trkpt>
      <trkpt lat="45.63266" lon="2.33007">
        <ele>831</ele>
        <time>2019-05-18T17:43:48Z</time>
      </trkpt>
      <trkpt lat="45.63262" lon="2.33008">
        <ele>831</ele>
        <time>2019-05-18T17:43:49Z</time>
      </trkpt>
      <trkpt lat="45.63258" lon="2.33009">
        <ele>830</ele>
        <time>2019-05-18T17:43:50Z</time>
      </trkpt>
      <trkpt lat="45.63254" lon="2.33009">
        <ele>830</ele>
        <time>2019-05-18T17:43:51Z</time>
      </trkpt>
      <trkpt lat="45.63249" lon="2.3301">
        <ele>830</ele>
        <time>2019-05-18T17:43:52Z</time>
      </trkpt>
      <trkpt lat="45.63242" lon="2.33007">
        <ele>830</ele>
        <time>2019-05-18T17:43:53Z</time>
      </trkpt>
      <trkpt lat="45.63239" lon="2.33003">
        <ele>830</ele>
        <time>2019-05-18T17:43:54Z</time>
      </trkpt>
      <trkpt lat="45.63238" lon="2.32997">
        <ele>830</ele>
        <time>2019-05-18T17:43:55Z</time>
      </trkpt>
      <trkpt lat="45.63239" lon="2.3299">
        <ele>829</ele>
        <time>2019-05-18T17:43:56Z</time>
      </trkpt>
      <trkpt lat="45.63241" lon="2.32982">
        <ele>828</ele>
        <time>2019-05-18T17:43:58Z</time>
      </trkpt>
      <trkpt lat="45.63244" lon="2.32974">
        <ele>828</ele>
        <time>2019-05-18T17:43:59Z</time>
      </trkpt>
      <trkpt lat="45.63246" lon="2.32966">
        <ele>827</ele>
        <time>2019-05-18T17:44:00Z</time>
      </trkpt>
      <trkpt lat="45.63248" lon="2.32957">
        <ele>827</ele>
        <time>2019-05-18T17:44:01Z</time>
      </trkpt>
      <trkpt lat="45.6325" lon="2.32949">
        <ele>827</ele>
        <time>2019-05-18T17:44:02Z</time>
      </trkpt>
      <trkpt lat="45.63251" lon="2.32941">
        <ele>827</ele>
        <time>2019-05-18T17:44:03Z</time>
      </trkpt>
      <trkpt lat="45.63251" lon="2.32933">
        <ele>827</ele>
        <time>2019-05-18T17:44:04Z</time>
      </trkpt>
      <trkpt lat="45.63251" lon="2.32926">
        <ele>827</ele>
        <time>2019-05-18T17:44:05Z</time>
      </trkpt>
      <trkpt lat="45.6325" lon="2.32919">
        <ele>827</ele>
        <time>2019-05-18T17:44:06Z</time>
      </trkpt>
      <trkpt lat="45.63249" lon="2.32913">
        <ele>827</ele>
        <time>2019-05-18T17:44:07Z</time>
      </trkpt>
      <trkpt lat="45.63249" lon="2.32906">
        <ele>827</ele>
        <time>2019-05-18T17:44:08Z</time>
      </trkpt>
      <trkpt lat="45.63248" lon="2.32901">
        <ele>827</ele>
        <time>2019-05-18T17:44:09Z</time>
      </trkpt>
      <trkpt lat="45.63247" lon="2.32895">
        <ele>827</ele>
        <time>2019-05-18T17:44:10Z</time>
      </trkpt>
      <trkpt lat="45.63246" lon="2.3289">
        <ele>827</ele>
        <time>2019-05-18T17:44:11Z</time>
      </trkpt>
      <trkpt lat="45.63245" lon="2.32884">
        <ele>827</ele>
        <time>2019-05-18T17:44:12Z</time>
      </trkpt>
      <trkpt lat="45.63244" lon="2.32879">
        <ele>827</ele>
        <time>2019-05-18T17:44:13Z</time>
      </trkpt>
      <trkpt lat="45.63242" lon="2.32873">
        <ele>827</ele>
        <time>2019-05-18T17:44:14Z</time>
      </trkpt>
      <trkpt lat="45.6324" lon="2.32867">
        <ele>827</ele>
        <time>2019-05-18T17:44:15Z</time>
      </trkpt>
      <trkpt lat="45.63238" lon="2.32861">
        <ele>827</ele>
        <time>2019-05-18T17:44:16Z</time>
      </trkpt>
      <trkpt lat="45.63235" lon="2.32856">
        <ele>827</ele>
        <time>2019-05-18T17:44:17Z</time>
      </trkpt>
      <trkpt lat="45.63233" lon="2.3285">
        <ele>827</ele>
        <time>2019-05-18T17:44:18Z</time>
      </trkpt>
      <trkpt lat="45.63231" lon="2.32844">
        <ele>827</ele>
        <time>2019-05-18T17:44:19Z</time>
      </trkpt>
      <trkpt lat="45.63229" lon="2.32839">
        <ele>827</ele>
        <time>2019-05-18T17:44:20Z</time>
      </trkpt>
      <trkpt lat="45.63227" lon="2.32833">
        <ele>827</ele>
        <time>2019-05-18T17:44:21Z</time>
      </trkpt>
      <trkpt lat="45.63226" lon="2.32828">
        <ele>827</ele>
        <time>2019-05-18T17:44:22Z</time>
      </trkpt>
      <trkpt lat="45.63224" lon="2.32822">
        <ele>827</ele>
        <time>2019-05-18T17:44:23Z</time>
      </trkpt>
      <trkpt lat="45.63222" lon="2.32817">
        <ele>827</ele>
        <time>2019-05-18T17:44:24Z</time>
      </trkpt>
      <trkpt lat="45.63219" lon="2.32808">
        <ele>827</ele>
        <time>2019-05-18T17:44:25Z</time>
      </trkpt>
      <trkpt lat="45.63217" lon="2.32803">
        <ele>827</ele>
        <time>2019-05-18T17:44:26Z</time>
      </trkpt>
      <trkpt lat="45.63215" lon="2.32799">
        <ele>828</ele>
        <time>2019-05-18T17:44:27Z</time>
      </trkpt>
      <trkpt lat="45.63213" lon="2.32795">
        <ele>828</ele>
        <time>2019-05-18T17:44:28Z</time>
      </trkpt>
      <trkpt lat="45.6321" lon="2.32791">
        <ele>828</ele>
        <time>2019-05-18T17:44:29Z</time>
      </trkpt>
      <trkpt lat="45.63208" lon="2.32787">
        <ele>828</ele>
        <time>2019-05-18T17:44:30Z</time>
      </trkpt>
      <trkpt lat="45.63206" lon="2.32783">
        <ele>827</ele>
        <time>2019-05-18T17:44:31Z</time>
      </trkpt>
      <trkpt lat="45.63203" lon="2.3278">
        <ele>827</ele>
        <time>2019-05-18T17:44:32Z</time>
      </trkpt>
      <trkpt lat="45.63201" lon="2.32776">
        <ele>827</ele>
        <time>2019-05-18T17:44:33Z</time>
      </trkpt>
      <trkpt lat="45.63199" lon="2.32771">
        <ele>827</ele>
        <time>2019-05-18T17:44:34Z</time>
      </trkpt>
      <trkpt lat="45.63196" lon="2.32767">
        <ele>827</ele>
        <time>2019-05-18T17:44:36Z</time>
      </trkpt>
      <trkpt lat="45.63193" lon="2.32762">
        <ele>827</ele>
        <time>2019-05-18T17:44:37Z</time>
      </trkpt>
      <trkpt lat="45.6319" lon="2.32758">
        <ele>827</ele>
        <time>2019-05-18T17:44:38Z</time>
      </trkpt>
      <trkpt lat="45.63187" lon="2.32753">
        <ele>826</ele>
        <time>2019-05-18T17:44:39Z</time>
      </trkpt>
      <trkpt lat="45.63184" lon="2.32748">
        <ele>826</ele>
        <time>2019-05-18T17:44:40Z</time>
      </trkpt>
      <trkpt lat="45.6318" lon="2.32743">
        <ele>826</ele>
        <time>2019-05-18T17:44:41Z</time>
      </trkpt>
      <trkpt lat="45.63176" lon="2.32739">
        <ele>826</ele>
        <time>2019-05-18T17:44:42Z</time>
      </trkpt>
      <trkpt lat="45.63171" lon="2.32736">
        <ele>825</ele>
        <time>2019-05-18T17:44:43Z</time>
      </trkpt>
      <trkpt lat="45.63167" lon="2.32732">
        <ele>825</ele>
        <time>2019-05-18T17:44:44Z</time>
      </trkpt>
      <trkpt lat="45.63162" lon="2.32729">
        <ele>825</ele>
        <time>2019-05-18T17:44:45Z</time>
      </trkpt>
      <trkpt lat="45.63157" lon="2.32725">
        <ele>825</ele>
        <time>2019-05-18T17:44:46Z</time>
      </trkpt>
      <trkpt lat="45.63153" lon="2.32722">
        <ele>825</ele>
        <time>2019-05-18T17:44:47Z</time>
      </trkpt>
      <trkpt lat="45.63148" lon="2.32718">
        <ele>824</ele>
        <time>2019-05-18T17:44:48Z</time>
      </trkpt>
      <trkpt lat="45.63142" lon="2.32715">
        <ele>824</ele>
        <time>2019-05-18T17:44:49Z</time>
      </trkpt>
      <trkpt lat="45.63137" lon="2.3271">
        <ele>824</ele>
        <time>2019-05-18T17:44:50Z</time>
      </trkpt>
      <trkpt lat="45.63132" lon="2.32706">
        <ele>823</ele>
        <time>2019-05-18T17:44:51Z</time>
      </trkpt>
      <trkpt lat="45.63126" lon="2.32701">
        <ele>823</ele>
        <time>2019-05-18T17:44:52Z</time>
      </trkpt>
      <trkpt lat="45.63121" lon="2.32695">
        <ele>823</ele>
        <time>2019-05-18T17:44:53Z</time>
      </trkpt>
      <trkpt lat="45.63116" lon="2.32689">
        <ele>822</ele>
        <time>2019-05-18T17:44:54Z</time>
      </trkpt>
      <trkpt lat="45.63111" lon="2.32683">
        <ele>822</ele>
        <time>2019-05-18T17:44:55Z</time>
      </trkpt>
      <trkpt lat="45.63105" lon="2.32677">
        <ele>821</ele>
        <time>2019-05-18T17:44:56Z</time>
      </trkpt>
      <trkpt lat="45.63099" lon="2.32671">
        <ele>821</ele>
        <time>2019-05-18T17:44:57Z</time>
      </trkpt>
      <trkpt lat="45.63093" lon="2.32665">
        <ele>820</ele>
        <time>2019-05-18T17:44:58Z</time>
      </trkpt>
      <trkpt lat="45.63087" lon="2.32659">
        <ele>820</ele>
        <time>2019-05-18T17:44:59Z</time>
      </trkpt>
      <trkpt lat="45.63081" lon="2.32651">
        <ele>820</ele>
        <time>2019-05-18T17:45:00Z</time>
      </trkpt>
      <trkpt lat="45.63075" lon="2.32643">
        <ele>819</ele>
        <time>2019-05-18T17:45:01Z</time>
      </trkpt>
      <trkpt lat="45.6307" lon="2.32635">
        <ele>819</ele>
        <time>2019-05-18T17:45:02Z</time>
      </trkpt>
      <trkpt lat="45.63064" lon="2.32627">
        <ele>818</ele>
        <time>2019-05-18T17:45:03Z</time>
      </trkpt>
      <trkpt lat="45.63057" lon="2.3262">
        <ele>817</ele>
        <time>2019-05-18T17:45:04Z</time>
      </trkpt>
      <trkpt lat="45.63051" lon="2.32613">
        <ele>817</ele>
        <time>2019-05-18T17:45:05Z</time>
      </trkpt>
      <trkpt lat="45.63045" lon="2.32604">
        <ele>817</ele>
        <time>2019-05-18T17:45:06Z</time>
      </trkpt>
      <trkpt lat="45.6304" lon="2.32594">
        <ele>816</ele>
        <time>2019-05-18T17:45:07Z</time>
      </trkpt>
      <trkpt lat="45.63036" lon="2.32584">
        <ele>816</ele>
        <time>2019-05-18T17:45:08Z</time>
      </trkpt>
      <trkpt lat="45.63032" lon="2.32574">
        <ele>816</ele>
        <time>2019-05-18T17:45:09Z</time>
      </trkpt>
      <trkpt lat="45.63029" lon="2.32563">
        <ele>815</ele>
        <time>2019-05-18T17:45:10Z</time>
      </trkpt>
      <trkpt lat="45.63025" lon="2.32553">
        <ele>815</ele>
        <time>2019-05-18T17:45:11Z</time>
      </trkpt>
      <trkpt lat="45.63021" lon="2.32543">
        <ele>814</ele>
        <time>2019-05-18T17:45:12Z</time>
      </trkpt>
      <trkpt lat="45.63018" lon="2.32532">
        <ele>814</ele>
        <time>2019-05-18T17:45:13Z</time>
      </trkpt>
      <trkpt lat="45.63012" lon="2.32513">
        <ele>814</ele>
        <time>2019-05-18T17:45:14Z</time>
      </trkpt>
      <trkpt lat="45.63009" lon="2.32506">
        <ele>814</ele>
        <time>2019-05-18T17:45:15Z</time>
      </trkpt>
      <trkpt lat="45.63007" lon="2.32499">
        <ele>814</ele>
        <time>2019-05-18T17:45:16Z</time>
      </trkpt>
      <trkpt lat="45.63004" lon="2.32492">
        <ele>814</ele>
        <time>2019-05-18T17:45:17Z</time>
      </trkpt>
      <trkpt lat="45.63002" lon="2.32486">
        <ele>814</ele>
        <time>2019-05-18T17:45:18Z</time>
      </trkpt>
      <trkpt lat="45.62999" lon="2.32481">
        <ele>814</ele>
        <time>2019-05-18T17:45:19Z</time>
      </trkpt>
      <trkpt lat="45.62996" lon="2.32476">
        <ele>814</ele>
        <time>2019-05-18T17:45:20Z</time>
      </trkpt>
      <trkpt lat="45.62993" lon="2.3247">
        <ele>813</ele>
        <time>2019-05-18T17:45:22Z</time>
      </trkpt>
      <trkpt lat="45.6299" lon="2.32465">
        <ele>813</ele>
        <time>2019-05-18T17:45:23Z</time>
      </trkpt>
      <trkpt lat="45.62986" lon="2.3246">
        <ele>813</ele>
        <time>2019-05-18T17:45:24Z</time>
      </trkpt>
      <trkpt lat="45.62983" lon="2.32456">
        <ele>813</ele>
        <time>2019-05-18T17:45:25Z</time>
      </trkpt>
      <trkpt lat="45.62979" lon="2.32452">
        <ele>813</ele>
        <time>2019-05-18T17:45:26Z</time>
      </trkpt>
      <trkpt lat="45.62976" lon="2.32447">
        <ele>813</ele>
        <time>2019-05-18T17:45:27Z</time>
      </trkpt>
      <trkpt lat="45.62972" lon="2.32443">
        <ele>813</ele>
        <time>2019-05-18T17:45:28Z</time>
      </trkpt>
      <trkpt lat="45.62968" lon="2.32439">
        <ele>813</ele>
        <time>2019-05-18T17:45:29Z</time>
      </trkpt>
      <trkpt lat="45.62965" lon="2.32436">
        <ele>813</ele>
        <time>2019-05-18T17:45:30Z</time>
      </trkpt>
      <trkpt lat="45.6296" lon="2.32434">
        <ele>812</ele>
        <time>2019-05-18T17:45:31Z</time>
      </trkpt>
      <trkpt lat="45.62956" lon="2.32431">
        <ele>812</ele>
        <time>2019-05-18T17:45:32Z</time>
      </trkpt>
      <trkpt lat="45.62952" lon="2.32429">
        <ele>812</ele>
        <time>2019-05-18T17:45:33Z</time>
      </trkpt>
      <trkpt lat="45.62949" lon="2.32426">
        <ele>812</ele>
        <time>2019-05-18T17:45:34Z</time>
      </trkpt>
      <trkpt lat="45.62948" lon="2.32422">
        <ele>811</ele>
        <time>2019-05-18T17:45:35Z</time>
      </trkpt>
      <trkpt lat="45.62948" lon="2.32417">
        <ele>811</ele>
        <time>2019-05-18T17:45:36Z</time>
      </trkpt>
      <trkpt lat="45.62948" lon="2.32412">
        <ele>811</ele>
        <time>2019-05-18T17:45:37Z</time>
      </trkpt>
      <trkpt lat="45.62949" lon="2.32407">
        <ele>811</ele>
        <time>2019-05-18T17:45:38Z</time>
      </trkpt>
      <trkpt lat="45.6295" lon="2.32402">
        <ele>810</ele>
        <time>2019-05-18T17:45:39Z</time>
      </trkpt>
      <trkpt lat="45.6295" lon="2.32398">
        <ele>810</ele>
        <time>2019-05-18T17:45:40Z</time>
      </trkpt>
      <trkpt lat="45.62951" lon="2.32388">
        <ele>809</ele>
        <time>2019-05-18T17:45:41Z</time>
      </trkpt>
      <trkpt lat="45.62949" lon="2.32383">
        <ele>808</ele>
        <time>2019-05-18T17:45:42Z</time>
      </trkpt>
      <trkpt lat="45.62948" lon="2.3238">
        <ele>808</ele>
        <time>2019-05-18T17:45:43Z</time>
      </trkpt>
      <trkpt lat="45.62945" lon="2.32378">
        <ele>807</ele>
        <time>2019-05-18T17:45:45Z</time>
      </trkpt>
      <trkpt lat="45.62942" lon="2.32377">
        <ele>807</ele>
        <time>2019-05-18T17:45:46Z</time>
      </trkpt>
      <trkpt lat="45.62939" lon="2.32375">
        <ele>807</ele>
        <time>2019-05-18T17:45:47Z</time>
      </trkpt>
      <trkpt lat="45.62938" lon="2.32375">
        <ele>807</ele>
        <time>2019-05-18T17:45:48Z</time>
      </trkpt>
      <trkpt lat="45.62935" lon="2.32373">
        <ele>807</ele>
        <time>2019-05-18T17:45:50Z</time>
      </trkpt>
      <trkpt lat="45.62932" lon="2.32371">
        <ele>807</ele>
        <time>2019-05-18T17:45:51Z</time>
      </trkpt>
      <trkpt lat="45.62929" lon="2.32369">
        <ele>807</ele>
        <time>2019-05-18T17:45:52Z</time>
      </trkpt>
      <trkpt lat="45.62926" lon="2.32367">
        <ele>807</ele>
        <time>2019-05-18T17:45:53Z</time>
      </trkpt>
      <trkpt lat="45.62923" lon="2.32365">
        <ele>807</ele>
        <time>2019-05-18T17:45:54Z</time>
      </trkpt>
      <trkpt lat="45.6292" lon="2.32363">
        <ele>806</ele>
        <time>2019-05-18T17:45:55Z</time>
      </trkpt>
      <trkpt lat="45.62917" lon="2.32362">
        <ele>806</ele>
        <time>2019-05-18T17:45:56Z</time>
      </trkpt>
      <trkpt lat="45.62913" lon="2.32361">
        <ele>806</ele>
        <time>2019-05-18T17:45:57Z</time>
      </trkpt>
      <trkpt lat="45.6291" lon="2.32359">
        <ele>806</ele>
        <time>2019-05-18T17:45:58Z</time>
      </trkpt>
      <trkpt lat="45.62907" lon="2.32357">
        <ele>806</ele>
        <time>2019-05-18T17:45:59Z</time>
      </trkpt>
      <trkpt lat="45.62903" lon="2.32355">
        <ele>806</ele>
        <time>2019-05-18T17:46:00Z</time>
      </trkpt>
      <trkpt lat="45.62899" lon="2.32354">
        <ele>806</ele>
        <time>2019-05-18T17:46:01Z</time>
      </trkpt>
      <trkpt lat="45.62895" lon="2.32352">
        <ele>806</ele>
        <time>2019-05-18T17:46:02Z</time>
      </trkpt>
      <trkpt lat="45.62891" lon="2.32349">
        <ele>805</ele>
        <time>2019-05-18T17:46:03Z</time>
      </trkpt>
      <trkpt lat="45.62887" lon="2.32346">
        <ele>805</ele>
        <time>2019-05-18T17:46:04Z</time>
      </trkpt>
      <trkpt lat="45.62883" lon="2.32343">
        <ele>806</ele>
        <time>2019-05-18T17:46:05Z</time>
      </trkpt>
      <trkpt lat="45.62878" lon="2.32341">
        <ele>805</ele>
        <time>2019-05-18T17:46:06Z</time>
      </trkpt>
      <trkpt lat="45.62875" lon="2.32339">
        <ele>805</ele>
        <time>2019-05-18T17:46:07Z</time>
      </trkpt>
      <trkpt lat="45.62866" lon="2.32336">
        <ele>805</ele>
        <time>2019-05-18T17:46:08Z</time>
      </trkpt>
      <trkpt lat="45.62862" lon="2.32336">
        <ele>805</ele>
        <time>2019-05-18T17:46:09Z</time>
      </trkpt>
      <trkpt lat="45.62857" lon="2.32335">
        <ele>805</ele>
        <time>2019-05-18T17:46:11Z</time>
      </trkpt>
      <trkpt lat="45.62848" lon="2.32334">
        <ele>805</ele>
        <time>2019-05-18T17:46:12Z</time>
      </trkpt>
      <trkpt lat="45.62843" lon="2.32334">
        <ele>805</ele>
        <time>2019-05-18T17:46:13Z</time>
      </trkpt>
      <trkpt lat="45.62839" lon="2.32333">
        <ele>805</ele>
        <time>2019-05-18T17:46:14Z</time>
      </trkpt>
      <trkpt lat="45.62835" lon="2.32332">
        <ele>805</ele>
        <time>2019-05-18T17:46:15Z</time>
      </trkpt>
      <trkpt lat="45.6283" lon="2.32331">
        <ele>805</ele>
        <time>2019-05-18T17:46:16Z</time>
      </trkpt>
      <trkpt lat="45.62826" lon="2.3233">
        <ele>805</ele>
        <time>2019-05-18T17:46:17Z</time>
      </trkpt>
      <trkpt lat="45.62822" lon="2.32329">
        <ele>805</ele>
        <time>2019-05-18T17:46:18Z</time>
      </trkpt>
      <trkpt lat="45.62818" lon="2.32328">
        <ele>805</ele>
        <time>2019-05-18T17:46:19Z</time>
      </trkpt>
      <trkpt lat="45.62814" lon="2.32328">
        <ele>805</ele>
        <time>2019-05-18T17:46:20Z</time>
      </trkpt>
      <trkpt lat="45.6281" lon="2.32327">
        <ele>805</ele>
        <time>2019-05-18T17:46:21Z</time>
      </trkpt>
      <trkpt lat="45.62806" lon="2.32327">
        <ele>805</ele>
        <time>2019-05-18T17:46:22Z</time>
      </trkpt>
      <trkpt lat="45.62803" lon="2.32327">
        <ele>805</ele>
        <time>2019-05-18T17:46:23Z</time>
      </trkpt>
      <trkpt lat="45.628" lon="2.32326">
        <ele>805</ele>
        <time>2019-05-18T17:46:24Z</time>
      </trkpt>
      <trkpt lat="45.62797" lon="2.32325">
        <ele>805</ele>
        <time>2019-05-18T17:46:25Z</time>
      </trkpt>
      <trkpt lat="45.62793" lon="2.32324">
        <ele>805</ele>
        <time>2019-05-18T17:46:26Z</time>
      </trkpt>
      <trkpt lat="45.62789" lon="2.32323">
        <ele>805</ele>
        <time>2019-05-18T17:46:27Z</time>
      </trkpt>
      <trkpt lat="45.62786" lon="2.32322">
        <ele>805</ele>
        <time>2019-05-18T17:46:28Z</time>
      </trkpt>
      <trkpt lat="45.62782" lon="2.32321">
        <ele>805</ele>
        <time>2019-05-18T17:46:29Z</time>
      </trkpt>
      <trkpt lat="45.62779" lon="2.3232">
        <ele>805</ele>
        <time>2019-05-18T17:46:30Z</time>
      </trkpt>
      <trkpt lat="45.62775" lon="2.32319">
        <ele>805</ele>
        <time>2019-05-18T17:46:31Z</time>
      </trkpt>
      <trkpt lat="45.62771" lon="2.3232">
        <ele>805</ele>
        <time>2019-05-18T17:46:32Z</time>
      </trkpt>
      <trkpt lat="45.62768" lon="2.3232">
        <ele>805</ele>
        <time>2019-05-18T17:46:33Z</time>
      </trkpt>
      <trkpt lat="45.62764" lon="2.32321">
        <ele>805</ele>
        <time>2019-05-18T17:46:34Z</time>
      </trkpt>
      <trkpt lat="45.62761" lon="2.32323">
        <ele>805</ele>
        <time>2019-05-18T17:46:35Z</time>
      </trkpt>
      <trkpt lat="45.62758" lon="2.32324">
        <ele>805</ele>
        <time>2019-05-18T17:46:36Z</time>
      </trkpt>
      <trkpt lat="45.62755" lon="2.32326">
        <ele>805</ele>
        <time>2019-05-18T17:46:37Z</time>
      </trkpt>
      <trkpt lat="45.62752" lon="2.32327">
        <ele>805</ele>
        <time>2019-05-18T17:46:38Z</time>
      </trkpt>
      <trkpt lat="45.62749" lon="2.32329">
        <ele>805</ele>
        <time>2019-05-18T17:46:39Z</time>
      </trkpt>
      <trkpt lat="45.62747" lon="2.32331">
        <ele>805</ele>
        <time>2019-05-18T17:46:40Z</time>
      </trkpt>
      <trkpt lat="45.62744" lon="2.32334">
        <ele>805</ele>
        <time>2019-05-18T17:46:41Z</time>
      </trkpt>
      <trkpt lat="45.62741" lon="2.32336">
        <ele>805</ele>
        <time>2019-05-18T17:46:42Z</time>
      </trkpt>
      <trkpt lat="45.62739" lon="2.32337">
        <ele>805</ele>
        <time>2019-05-18T17:46:43Z</time>
      </trkpt>
      <trkpt lat="45.62736" lon="2.32339">
        <ele>805</ele>
        <time>2019-05-18T17:46:44Z</time>
      </trkpt>
      <trkpt lat="45.62732" lon="2.3234">
        <ele>805</ele>
        <time>2019-05-18T17:46:45Z</time>
      </trkpt>
      <trkpt lat="45.62728" lon="2.3234">
        <ele>804</ele>
        <time>2019-05-18T17:46:46Z</time>
      </trkpt>
      <trkpt lat="45.62724" lon="2.3234">
        <ele>804</ele>
        <time>2019-05-18T17:46:47Z</time>
      </trkpt>
      <trkpt lat="45.6272" lon="2.32338">
        <ele>804</ele>
        <time>2019-05-18T17:46:48Z</time>
      </trkpt>
      <trkpt lat="45.62717" lon="2.32337">
        <ele>803</ele>
        <time>2019-05-18T17:46:49Z</time>
      </trkpt>
      <trkpt lat="45.62712" lon="2.32336">
        <ele>802</ele>
        <time>2019-05-18T17:46:50Z</time>
      </trkpt>
      <trkpt lat="45.62708" lon="2.32336">
        <ele>802</ele>
        <time>2019-05-18T17:46:51Z</time>
      </trkpt>
      <trkpt lat="45.62704" lon="2.32334">
        <ele>801</ele>
        <time>2019-05-18T17:46:52Z</time>
      </trkpt>
      <trkpt lat="45.62701" lon="2.32331">
        <ele>801</ele>
        <time>2019-05-18T17:46:53Z</time>
      </trkpt>
      <trkpt lat="45.62697" lon="2.3233">
        <ele>800</ele>
        <time>2019-05-18T17:46:55Z</time>
      </trkpt>
      <trkpt lat="45.62692" lon="2.32329">
        <ele>799</ele>
        <time>2019-05-18T17:46:56Z</time>
      </trkpt>
      <trkpt lat="45.62688" lon="2.32327">
        <ele>798</ele>
        <time>2019-05-18T17:46:57Z</time>
      </trkpt>
      <trkpt lat="45.62685" lon="2.32328">
        <ele>798</ele>
        <time>2019-05-18T17:46:58Z</time>
      </trkpt>
      <trkpt lat="45.62681" lon="2.3233">
        <ele>797</ele>
        <time>2019-05-18T17:46:59Z</time>
      </trkpt>
      <trkpt lat="45.62678" lon="2.32333">
        <ele>797</ele>
        <time>2019-05-18T17:47:00Z</time>
      </trkpt>
      <trkpt lat="45.62675" lon="2.32337">
        <ele>796</ele>
        <time>2019-05-18T17:47:01Z</time>
      </trkpt>
      <trkpt lat="45.62673" lon="2.32342">
        <ele>796</ele>
        <time>2019-05-18T17:47:02Z</time>
      </trkpt>
      <trkpt lat="45.6267" lon="2.32347">
        <ele>795</ele>
        <time>2019-05-18T17:47:03Z</time>
      </trkpt>
      <trkpt lat="45.62666" lon="2.32352">
        <ele>795</ele>
        <time>2019-05-18T17:47:04Z</time>
      </trkpt>
      <trkpt lat="45.62663" lon="2.32358">
        <ele>794</ele>
        <time>2019-05-18T17:47:05Z</time>
      </trkpt>
      <trkpt lat="45.6266" lon="2.32361">
        <ele>794</ele>
        <time>2019-05-18T17:47:06Z</time>
      </trkpt>
      <trkpt lat="45.62658" lon="2.32365">
        <ele>793</ele>
        <time>2019-05-18T17:47:07Z</time>
      </trkpt>
      <trkpt lat="45.62652" lon="2.32372">
        <ele>793</ele>
        <time>2019-05-18T17:47:08Z</time>
      </trkpt>
      <trkpt lat="45.6265" lon="2.32376">
        <ele>792</ele>
        <time>2019-05-18T17:47:09Z</time>
      </trkpt>
      <trkpt lat="45.62647" lon="2.3238">
        <ele>792</ele>
        <time>2019-05-18T17:47:10Z</time>
      </trkpt>
      <trkpt lat="45.62644" lon="2.32384">
        <ele>792</ele>
        <time>2019-05-18T17:47:11Z</time>
      </trkpt>
      <trkpt lat="45.62642" lon="2.32386">
        <ele>791</ele>
        <time>2019-05-18T17:47:12Z</time>
      </trkpt>
      <trkpt lat="45.62639" lon="2.32389">
        <ele>791</ele>
        <time>2019-05-18T17:47:13Z</time>
      </trkpt>
      <trkpt lat="45.62637" lon="2.32392">
        <ele>791</ele>
        <time>2019-05-18T17:47:14Z</time>
      </trkpt>
      <trkpt lat="45.62634" lon="2.32396">
        <ele>790</ele>
        <time>2019-05-18T17:47:15Z</time>
      </trkpt>
      <trkpt lat="45.62631" lon="2.324">
        <ele>790</ele>
        <time>2019-05-18T17:47:16Z</time>
      </trkpt>
      <trkpt lat="45.62628" lon="2.32404">
        <ele>789</ele>
        <time>2019-05-18T17:47:17Z</time>
      </trkpt>
      <trkpt lat="45.62625" lon="2.32408">
        <ele>789</ele>
        <time>2019-05-18T17:47:18Z</time>
      </trkpt>
      <trkpt lat="45.62622" lon="2.32412">
        <ele>788</ele>
        <time>2019-05-18T17:47:19Z</time>
      </trkpt>
      <trkpt lat="45.62619" lon="2.32415">
        <ele>788</ele>
        <time>2019-05-18T17:47:20Z</time>
      </trkpt>
      <trkpt lat="45.62617" lon="2.32419">
        <ele>788</ele>
        <time>2019-05-18T17:47:21Z</time>
      </trkpt>
      <trkpt lat="45.62615" lon="2.32422">
        <ele>788</ele>
        <time>2019-05-18T17:47:22Z</time>
      </trkpt>
      <trkpt lat="45.62613" lon="2.32426">
        <ele>787</ele>
        <time>2019-05-18T17:47:23Z</time>
      </trkpt>
      <trkpt lat="45.62612" lon="2.3243">
        <ele>787</ele>
        <time>2019-05-18T17:47:24Z</time>
      </trkpt>
      <trkpt lat="45.6261" lon="2.32434">
        <ele>787</ele>
        <time>2019-05-18T17:47:25Z</time>
      </trkpt>
      <trkpt lat="45.62608" lon="2.32439">
        <ele>787</ele>
        <time>2019-05-18T17:47:26Z</time>
      </trkpt>
      <trkpt lat="45.62606" lon="2.32444">
        <ele>786</ele>
        <time>2019-05-18T17:47:27Z</time>
      </trkpt>
      <trkpt lat="45.62603" lon="2.32448">
        <ele>785</ele>
        <time>2019-05-18T17:47:28Z</time>
      </trkpt>
      <trkpt lat="45.62601" lon="2.32454">
        <ele>785</ele>
        <time>2019-05-18T17:47:29Z</time>
      </trkpt>
      <trkpt lat="45.626" lon="2.32461">
        <ele>784</ele>
        <time>2019-05-18T17:47:31Z</time>
      </trkpt>
      <trkpt lat="45.62599" lon="2.32468">
        <ele>783</ele>
        <time>2019-05-18T17:47:32Z</time>
      </trkpt>
      <trkpt lat="45.62599" lon="2.32476">
        <ele>783</ele>
        <time>2019-05-18T17:47:33Z</time>
      </trkpt>
      <trkpt lat="45.62599" lon="2.32483">
        <ele>783</ele>
        <time>2019-05-18T17:47:34Z</time>
      </trkpt>
      <trkpt lat="45.62598" lon="2.32498">
        <ele>783</ele>
        <time>2019-05-18T17:47:35Z</time>
      </trkpt>
      <trkpt lat="45.62597" lon="2.32504">
        <ele>783</ele>
        <time>2019-05-18T17:47:36Z</time>
      </trkpt>
      <trkpt lat="45.62596" lon="2.32509">
        <ele>783</ele>
        <time>2019-05-18T17:47:37Z</time>
      </trkpt>
      <trkpt lat="45.62594" lon="2.32514">
        <ele>783</ele>
        <time>2019-05-18T17:47:38Z</time>
      </trkpt>
      <trkpt lat="45.62592" lon="2.32519">
        <ele>783</ele>
        <time>2019-05-18T17:47:39Z</time>
      </trkpt>
      <trkpt lat="45.62591" lon="2.32522">
        <ele>783</ele>
        <time>2019-05-18T17:47:40Z</time>
      </trkpt>
      <trkpt lat="45.62589" lon="2.32526">
        <ele>783</ele>
        <time>2019-05-18T17:47:41Z</time>
      </trkpt>
      <trkpt lat="45.62587" lon="2.32529">
        <ele>783</ele>
        <time>2019-05-18T17:47:42Z</time>
      </trkpt>
      <trkpt lat="45.62585" lon="2.32533">
        <ele>783</ele>
        <time>2019-05-18T17:47:43Z</time>
      </trkpt>
      <trkpt lat="45.62583" lon="2.32536">
        <ele>783</ele>
        <time>2019-05-18T17:47:44Z</time>
      </trkpt>
      <trkpt lat="45.62581" lon="2.32539">
        <ele>783</ele>
        <time>2019-05-18T17:47:45Z</time>
      </trkpt>
      <trkpt lat="45.62579" lon="2.32541">
        <ele>783</ele>
        <time>2019-05-18T17:47:46Z</time>
      </trkpt>
      <trkpt lat="45.62577" lon="2.32543">
        <ele>783</ele>
        <time>2019-05-18T17:47:48Z</time>
      </trkpt>
      <trkpt lat="45.62575" lon="2.32545">
        <ele>783</ele>
        <time>2019-05-18T17:47:49Z</time>
      </trkpt>
      <trkpt lat="45.62573" lon="2.32547">
        <ele>783</ele>
        <time>2019-05-18T17:47:50Z</time>
      </trkpt>
      <trkpt lat="45.6257" lon="2.32548">
        <ele>784</ele>
        <time>2019-05-18T17:47:51Z</time>
      </trkpt>
      <trkpt lat="45.62568" lon="2.3255">
        <ele>784</ele>
        <time>2019-05-18T17:47:52Z</time>
      </trkpt>
      <trkpt lat="45.62566" lon="2.32552">
        <ele>784</ele>
        <time>2019-05-18T17:47:53Z</time>
      </trkpt>
      <trkpt lat="45.62565" lon="2.32555">
        <ele>784</ele>
        <time>2019-05-18T17:47:54Z</time>
      </trkpt>
      <trkpt lat="45.62563" lon="2.32557">
        <ele>784</ele>
        <time>2019-05-18T17:47:55Z</time>
      </trkpt>
      <trkpt lat="45.6256" lon="2.32561">
        <ele>784</ele>
        <time>2019-05-18T17:47:56Z</time>
      </trkpt>
      <trkpt lat="45.62559" lon="2.32563">
        <ele>784</ele>
        <time>2019-05-18T17:47:57Z</time>
      </trkpt>
      <trkpt lat="45.62557" lon="2.32566">
        <ele>784</ele>
        <time>2019-05-18T17:47:58Z</time>
      </trkpt>
      <trkpt lat="45.62556" lon="2.32568">
        <ele>784</ele>
        <time>2019-05-18T17:47:59Z</time>
      </trkpt>
      <trkpt lat="45.62554" lon="2.32571">
        <ele>785</ele>
        <time>2019-05-18T17:48:00Z</time>
      </trkpt>
      <trkpt lat="45.62553" lon="2.32573">
        <ele>785</ele>
        <time>2019-05-18T17:48:01Z</time>
      </trkpt>
      <trkpt lat="45.62552" lon="2.32575">
        <ele>785</ele>
        <time>2019-05-18T17:48:02Z</time>
      </trkpt>
      <trkpt lat="45.6255" lon="2.32577">
        <ele>785</ele>
        <time>2019-05-18T17:48:03Z</time>
      </trkpt>
      <trkpt lat="45.62549" lon="2.32579">
        <ele>785</ele>
        <time>2019-05-18T17:48:04Z</time>
      </trkpt>
      <trkpt lat="45.62548" lon="2.32581">
        <ele>786</ele>
        <time>2019-05-18T17:48:05Z</time>
      </trkpt>
      <trkpt lat="45.62547" lon="2.32583">
        <ele>786</ele>
        <time>2019-05-18T17:48:06Z</time>
      </trkpt>
      <trkpt lat="45.62546" lon="2.32585">
        <ele>786</ele>
        <time>2019-05-18T17:48:07Z</time>
      </trkpt>
      <trkpt lat="45.62545" lon="2.32587">
        <ele>787</ele>
        <time>2019-05-18T17:48:08Z</time>
      </trkpt>
      <trkpt lat="45.62544" lon="2.32589">
        <ele>787</ele>
        <time>2019-05-18T17:48:09Z</time>
      </trkpt>
      <trkpt lat="45.62543" lon="2.32591">
        <ele>787</ele>
        <time>2019-05-18T17:48:10Z</time>
      </trkpt>
      <trkpt lat="45.62542" lon="2.32593">
        <ele>788</ele>
        <time>2019-05-18T17:48:11Z</time>
      </trkpt>
      <trkpt lat="45.62541" lon="2.32595">
        <ele>788</ele>
        <time>2019-05-18T17:48:12Z</time>
      </trkpt>
      <trkpt lat="45.6254" lon="2.32597">
        <ele>788</ele>
        <time>2019-05-18T17:48:13Z</time>
      </trkpt>
      <trkpt lat="45.62538" lon="2.32599">
        <ele>788</ele>
        <time>2019-05-18T17:48:14Z</time>
      </trkpt>
      <trkpt lat="45.62537" lon="2.32601">
        <ele>789</ele>
        <time>2019-05-18T17:48:15Z</time>
      </trkpt>
      <trkpt lat="45.62536" lon="2.32603">
        <ele>789</ele>
        <time>2019-05-18T17:48:16Z</time>
      </trkpt>
      <trkpt lat="45.62535" lon="2.32604">
        <ele>789</ele>
        <time>2019-05-18T17:48:18Z</time>
      </trkpt>
      <trkpt lat="45.62535" lon="2.32606">
        <ele>790</ele>
        <time>2019-05-18T17:48:19Z</time>
      </trkpt>
      <trkpt lat="45.62534" lon="2.32608">
        <ele>790</ele>
        <time>2019-05-18T17:48:20Z</time>
      </trkpt>
      <trkpt lat="45.62533" lon="2.32612">
        <ele>790</ele>
        <time>2019-05-18T17:48:21Z</time>
      </trkpt>
      <trkpt lat="45.62532" lon="2.32614">
        <ele>791</ele>
        <time>2019-05-18T17:48:22Z</time>
      </trkpt>
      <trkpt lat="45.62531" lon="2.32615">
        <ele>791</ele>
        <time>2019-05-18T17:48:23Z</time>
      </trkpt>
      <trkpt lat="45.62531" lon="2.32617">
        <ele>791</ele>
        <time>2019-05-18T17:48:25Z</time>
      </trkpt>
      <trkpt lat="45.6253" lon="2.32619">
        <ele>791</ele>
        <time>2019-05-18T17:48:26Z</time>
      </trkpt>
      <trkpt lat="45.62529" lon="2.3262">
        <ele>792</ele>
        <time>2019-05-18T17:48:27Z</time>
      </trkpt>
      <trkpt lat="45.62529" lon="2.32622">
        <ele>792</ele>
        <time>2019-05-18T17:48:28Z</time>
      </trkpt>
      <trkpt lat="45.62528" lon="2.32624">
        <ele>792</ele>
        <time>2019-05-18T17:48:29Z</time>
      </trkpt>
      <trkpt lat="45.62527" lon="2.32625">
        <ele>792</ele>
        <time>2019-05-18T17:48:30Z</time>
      </trkpt>
      <trkpt lat="45.62526" lon="2.32629">
        <ele>792</ele>
        <time>2019-05-18T17:48:31Z</time>
      </trkpt>
      <trkpt lat="45.62525" lon="2.32631">
        <ele>793</ele>
        <time>2019-05-18T17:48:32Z</time>
      </trkpt>
      <trkpt lat="45.62524" lon="2.32633">
        <ele>793</ele>
        <time>2019-05-18T17:48:33Z</time>
      </trkpt>
      <trkpt lat="45.62524" lon="2.32634">
        <ele>793</ele>
        <time>2019-05-18T17:48:35Z</time>
      </trkpt>
      <trkpt lat="45.62523" lon="2.32638">
        <ele>793</ele>
        <time>2019-05-18T17:48:36Z</time>
      </trkpt>
      <trkpt lat="45.62523" lon="2.32639">
        <ele>793</ele>
        <time>2019-05-18T17:48:37Z</time>
      </trkpt>
      <trkpt lat="45.62522" lon="2.32641">
        <ele>793</ele>
        <time>2019-05-18T17:48:38Z</time>
      </trkpt>
      <trkpt lat="45.62522" lon="2.32642">
        <ele>793</ele>
        <time>2019-05-18T17:48:39Z</time>
      </trkpt>
      <trkpt lat="45.62521" lon="2.32644">
        <ele>794</ele>
        <time>2019-05-18T17:48:40Z</time>
      </trkpt>
      <trkpt lat="45.62521" lon="2.32646">
        <ele>794</ele>
        <time>2019-05-18T17:48:41Z</time>
      </trkpt>
      <trkpt lat="45.62521" lon="2.32648">
        <ele>794</ele>
        <time>2019-05-18T17:48:42Z</time>
      </trkpt>
      <trkpt lat="45.62521" lon="2.3265">
        <ele>794</ele>
        <time>2019-05-18T17:48:43Z</time>
      </trkpt>
      <trkpt lat="45.6252" lon="2.32652">
        <ele>794</ele>
        <time>2019-05-18T17:48:44Z</time>
      </trkpt>
      <trkpt lat="45.6252" lon="2.32653">
        <ele>795</ele>
        <time>2019-05-18T17:48:45Z</time>
      </trkpt>
      <trkpt lat="45.62519" lon="2.32655">
        <ele>795</ele>
        <time>2019-05-18T17:48:46Z</time>
      </trkpt>
      <trkpt lat="45.62519" lon="2.32657">
        <ele>795</ele>
        <time>2019-05-18T17:48:47Z</time>
      </trkpt>
      <trkpt lat="45.62519" lon="2.32659">
        <ele>795</ele>
        <time>2019-05-18T17:48:48Z</time>
      </trkpt>
      <trkpt lat="45.62518" lon="2.32661">
        <ele>795</ele>
        <time>2019-05-18T17:48:49Z</time>
      </trkpt>
      <trkpt lat="45.62518" lon="2.32664">
        <ele>795</ele>
        <time>2019-05-18T17:48:50Z</time>
      </trkpt>
      <trkpt lat="45.62518" lon="2.32666">
        <ele>795</ele>
        <time>2019-05-18T17:48:51Z</time>
      </trkpt>
      <trkpt lat="45.62519" lon="2.32668">
        <ele>796</ele>
        <time>2019-05-18T17:48:52Z</time>
      </trkpt>
      <trkpt lat="45.62518" lon="2.3267">
        <ele>796</ele>
        <time>2019-05-18T17:48:53Z</time>
      </trkpt>
      <trkpt lat="45.62518" lon="2.32672">
        <ele>796</ele>
        <time>2019-05-18T17:48:54Z</time>
      </trkpt>
      <trkpt lat="45.62518" lon="2.32673">
        <ele>796</ele>
        <time>2019-05-18T17:48:55Z</time>
      </trkpt>
      <trkpt lat="45.62517" lon="2.32674">
        <ele>796</ele>
        <time>2019-05-18T17:48:56Z</time>
      </trkpt>
      <trkpt lat="45.62517" lon="2.32676">
        <ele>796</ele>
        <time>2019-05-18T17:48:57Z</time>
      </trkpt>
      <trkpt lat="45.62517" lon="2.32678">
        <ele>796</ele>
        <time>2019-05-18T17:48:58Z</time>
      </trkpt>
      <trkpt lat="45.62517" lon="2.3268">
        <ele>797</ele>
        <time>2019-05-18T17:48:59Z</time>
      </trkpt>
      <trkpt lat="45.62517" lon="2.32682">
        <ele>797</ele>
        <time>2019-05-18T17:49:00Z</time>
      </trkpt>
      <trkpt lat="45.62517" lon="2.32684">
        <ele>797</ele>
        <time>2019-05-18T17:49:01Z</time>
      </trkpt>
      <trkpt lat="45.62517" lon="2.32686">
        <ele>797</ele>
        <time>2019-05-18T17:49:02Z</time>
      </trkpt>
      <trkpt lat="45.62517" lon="2.32688">
        <ele>797</ele>
        <time>2019-05-18T17:49:04Z</time>
      </trkpt>
      <trkpt lat="45.62516" lon="2.3269">
        <ele>797</ele>
        <time>2019-05-18T17:49:05Z</time>
      </trkpt>
      <trkpt lat="45.62516" lon="2.32692">
        <ele>797</ele>
        <time>2019-05-18T17:49:06Z</time>
      </trkpt>
      <trkpt lat="45.62516" lon="2.32695">
        <ele>798</ele>
        <time>2019-05-18T17:49:07Z</time>
      </trkpt>
      <trkpt lat="45.62516" lon="2.32698">
        <ele>798</ele>
        <time>2019-05-18T17:49:08Z</time>
      </trkpt>
      <trkpt lat="45.62515" lon="2.327">
        <ele>798</ele>
        <time>2019-05-18T17:49:09Z</time>
      </trkpt>
      <trkpt lat="45.62515" lon="2.32702">
        <ele>798</ele>
        <time>2019-05-18T17:49:10Z</time>
      </trkpt>
      <trkpt lat="45.62514" lon="2.32704">
        <ele>798</ele>
        <time>2019-05-18T17:49:11Z</time>
      </trkpt>
      <trkpt lat="45.62514" lon="2.32706">
        <ele>798</ele>
        <time>2019-05-18T17:49:12Z</time>
      </trkpt>
      <trkpt lat="45.62513" lon="2.32708">
        <ele>798</ele>
        <time>2019-05-18T17:49:13Z</time>
      </trkpt>
      <trkpt lat="45.62513" lon="2.3271">
        <ele>798</ele>
        <time>2019-05-18T17:49:14Z</time>
      </trkpt>
      <trkpt lat="45.62513" lon="2.32712">
        <ele>798</ele>
        <time>2019-05-18T17:49:15Z</time>
      </trkpt>
      <trkpt lat="45.62512" lon="2.32714">
        <ele>798</ele>
        <time>2019-05-18T17:49:16Z</time>
      </trkpt>
      <trkpt lat="45.62512" lon="2.32717">
        <ele>798</ele>
        <time>2019-05-18T17:49:17Z</time>
      </trkpt>
      <trkpt lat="45.62511" lon="2.32719">
        <ele>798</ele>
        <time>2019-05-18T17:49:18Z</time>
      </trkpt>
      <trkpt lat="45.62511" lon="2.32721">
        <ele>798</ele>
        <time>2019-05-18T17:49:19Z</time>
      </trkpt>
      <trkpt lat="45.6251" lon="2.32723">
        <ele>799</ele>
        <time>2019-05-18T17:49:20Z</time>
      </trkpt>
      <trkpt lat="45.6251" lon="2.32725">
        <ele>799</ele>
        <time>2019-05-18T17:49:21Z</time>
      </trkpt>
      <trkpt lat="45.6251" lon="2.32727">
        <ele>799</ele>
        <time>2019-05-18T17:49:22Z</time>
      </trkpt>
      <trkpt lat="45.62509" lon="2.32729">
        <ele>799</ele>
        <time>2019-05-18T17:49:23Z</time>
      </trkpt>
      <trkpt lat="45.62508" lon="2.32731">
        <ele>799</ele>
        <time>2019-05-18T17:49:24Z</time>
      </trkpt>
      <trkpt lat="45.62508" lon="2.32733">
        <ele>799</ele>
        <time>2019-05-18T17:49:25Z</time>
      </trkpt>
      <trkpt lat="45.62507" lon="2.32735">
        <ele>799</ele>
        <time>2019-05-18T17:49:26Z</time>
      </trkpt>
      <trkpt lat="45.62507" lon="2.32737">
        <ele>799</ele>
        <time>2019-05-18T17:49:27Z</time>
      </trkpt>
      <trkpt lat="45.62506" lon="2.32739">
        <ele>799</ele>
        <time>2019-05-18T17:49:28Z</time>
      </trkpt>
      <trkpt lat="45.62505" lon="2.32741">
        <ele>799</ele>
        <time>2019-05-18T17:49:29Z</time>
      </trkpt>
      <trkpt lat="45.62505" lon="2.32743">
        <ele>799</ele>
        <time>2019-05-18T17:49:30Z</time>
      </trkpt>
      <trkpt lat="45.62504" lon="2.32745">
        <ele>799</ele>
        <time>2019-05-18T17:49:31Z</time>
      </trkpt>
      <trkpt lat="45.62503" lon="2.32747">
        <ele>799</ele>
        <time>2019-05-18T17:49:32Z</time>
      </trkpt>
      <trkpt lat="45.62502" lon="2.32749">
        <ele>799</ele>
        <time>2019-05-18T17:49:33Z</time>
      </trkpt>
      <trkpt lat="45.62502" lon="2.32751">
        <ele>799</ele>
        <time>2019-05-18T17:49:34Z</time>
      </trkpt>
      <trkpt lat="45.62501" lon="2.32753">
        <ele>799</ele>
        <time>2019-05-18T17:49:35Z</time>
      </trkpt>
      <trkpt lat="45.62501" lon="2.32755">
        <ele>800</ele>
        <time>2019-05-18T17:49:36Z</time>
      </trkpt>
      <trkpt lat="45.625" lon="2.32757">
        <ele>800</ele>
        <time>2019-05-18T17:49:37Z</time>
      </trkpt>
      <trkpt lat="45.62499" lon="2.3276">
        <ele>800</ele>
        <time>2019-05-18T17:49:38Z</time>
      </trkpt>
      <trkpt lat="45.62498" lon="2.32762">
        <ele>800</ele>
        <time>2019-05-18T17:49:39Z</time>
      </trkpt>
      <trkpt lat="45.62497" lon="2.32765">
        <ele>800</ele>
        <time>2019-05-18T17:49:40Z</time>
      </trkpt>
      <trkpt lat="45.62497" lon="2.32767">
        <ele>800</ele>
        <time>2019-05-18T17:49:41Z</time>
      </trkpt>
      <trkpt lat="45.62496" lon="2.3277">
        <ele>800</ele>
        <time>2019-05-18T17:49:42Z</time>
      </trkpt>
      <trkpt lat="45.62495" lon="2.32773">
        <ele>800</ele>
        <time>2019-05-18T17:49:43Z</time>
      </trkpt>
      <trkpt lat="45.62494" lon="2.32775">
        <ele>800</ele>
        <time>2019-05-18T17:49:44Z</time>
      </trkpt>
      <trkpt lat="45.62493" lon="2.32778">
        <ele>800</ele>
        <time>2019-05-18T17:49:45Z</time>
      </trkpt>
      <trkpt lat="45.62492" lon="2.32781">
        <ele>800</ele>
        <time>2019-05-18T17:49:46Z</time>
      </trkpt>
      <trkpt lat="45.62491" lon="2.32783">
        <ele>800</ele>
        <time>2019-05-18T17:49:47Z</time>
      </trkpt>
      <trkpt lat="45.6249" lon="2.32786">
        <ele>800</ele>
        <time>2019-05-18T17:49:48Z</time>
      </trkpt>
      <trkpt lat="45.62488" lon="2.32789">
        <ele>800</ele>
        <time>2019-05-18T17:49:49Z</time>
      </trkpt>
      <trkpt lat="45.62487" lon="2.32791">
        <ele>800</ele>
        <time>2019-05-18T17:49:50Z</time>
      </trkpt>
      <trkpt lat="45.62485" lon="2.32793">
        <ele>800</ele>
        <time>2019-05-18T17:49:51Z</time>
      </trkpt>
      <trkpt lat="45.62484" lon="2.32796">
        <ele>800</ele>
        <time>2019-05-18T17:49:52Z</time>
      </trkpt>
      <trkpt lat="45.62482" lon="2.32799">
        <ele>800</ele>
        <time>2019-05-18T17:49:53Z</time>
      </trkpt>
      <trkpt lat="45.62481" lon="2.32802">
        <ele>800</ele>
        <time>2019-05-18T17:49:54Z</time>
      </trkpt>
      <trkpt lat="45.62479" lon="2.32805">
        <ele>800</ele>
        <time>2019-05-18T17:49:55Z</time>
      </trkpt>
      <trkpt lat="45.62477" lon="2.32808">
        <ele>800</ele>
        <time>2019-05-18T17:49:56Z</time>
      </trkpt>
      <trkpt lat="45.62475" lon="2.32811">
        <ele>799</ele>
        <time>2019-05-18T17:49:57Z</time>
      </trkpt>
      <trkpt lat="45.62473" lon="2.32814">
        <ele>799</ele>
        <time>2019-05-18T17:49:58Z</time>
      </trkpt>
      <trkpt lat="45.62471" lon="2.32817">
        <ele>799</ele>
        <time>2019-05-18T17:49:59Z</time>
      </trkpt>
      <trkpt lat="45.62469" lon="2.32821">
        <ele>799</ele>
        <time>2019-05-18T17:50:00Z</time>
      </trkpt>
      <trkpt lat="45.62466" lon="2.32825">
        <ele>799</ele>
        <time>2019-05-18T17:50:01Z</time>
      </trkpt>
      <trkpt lat="45.62464" lon="2.32829">
        <ele>799</ele>
        <time>2019-05-18T17:50:02Z</time>
      </trkpt>
      <trkpt lat="45.62461" lon="2.32834">
        <ele>799</ele>
        <time>2019-05-18T17:50:03Z</time>
      </trkpt>
      <trkpt lat="45.62459" lon="2.32838">
        <ele>799</ele>
        <time>2019-05-18T17:50:04Z</time>
      </trkpt>
      <trkpt lat="45.62456" lon="2.32842">
        <ele>798</ele>
        <time>2019-05-18T17:50:05Z</time>
      </trkpt>
      <trkpt lat="45.62453" lon="2.32847">
        <ele>798</ele>
        <time>2019-05-18T17:50:06Z</time>
      </trkpt>
      <trkpt lat="45.6245" lon="2.32851">
        <ele>798</ele>
        <time>2019-05-18T17:50:07Z</time>
      </trkpt>
      <trkpt lat="45.62447" lon="2.32855">
        <ele>798</ele>
        <time>2019-05-18T17:50:08Z</time>
      </trkpt>
      <trkpt lat="45.62445" lon="2.32859">
        <ele>798</ele>
        <time>2019-05-18T17:50:09Z</time>
      </trkpt>
      <trkpt lat="45.62442" lon="2.32862">
        <ele>798</ele>
        <time>2019-05-18T17:50:10Z</time>
      </trkpt>
      <trkpt lat="45.62439" lon="2.32865">
        <ele>798</ele>
        <time>2019-05-18T17:50:11Z</time>
      </trkpt>
      <trkpt lat="45.62436" lon="2.32868">
        <ele>798</ele>
        <time>2019-05-18T17:50:12Z</time>
      </trkpt>
      <trkpt lat="45.62433" lon="2.3287">
        <ele>798</ele>
        <time>2019-05-18T17:50:13Z</time>
      </trkpt>
      <trkpt lat="45.62431" lon="2.32873">
        <ele>798</ele>
        <time>2019-05-18T17:50:14Z</time>
      </trkpt>
      <trkpt lat="45.62428" lon="2.32876">
        <ele>798</ele>
        <time>2019-05-18T17:50:15Z</time>
      </trkpt>
      <trkpt lat="45.62426" lon="2.32878">
        <ele>798</ele>
        <time>2019-05-18T17:50:16Z</time>
      </trkpt>
      <trkpt lat="45.62423" lon="2.3288">
        <ele>798</ele>
        <time>2019-05-18T17:50:17Z</time>
      </trkpt>
      <trkpt lat="45.62421" lon="2.32882">
        <ele>798</ele>
        <time>2019-05-18T17:50:18Z</time>
      </trkpt>
      <trkpt lat="45.62418" lon="2.32884">
        <ele>798</ele>
        <time>2019-05-18T17:50:19Z</time>
      </trkpt>
      <trkpt lat="45.62416" lon="2.32887">
        <ele>799</ele>
        <time>2019-05-18T17:50:20Z</time>
      </trkpt>
      <trkpt lat="45.62414" lon="2.32889">
        <ele>799</ele>
        <time>2019-05-18T17:50:21Z</time>
      </trkpt>
      <trkpt lat="45.62412" lon="2.32891">
        <ele>799</ele>
        <time>2019-05-18T17:50:22Z</time>
      </trkpt>
      <trkpt lat="45.62409" lon="2.32893">
        <ele>799</ele>
        <time>2019-05-18T17:50:23Z</time>
      </trkpt>
      <trkpt lat="45.62407" lon="2.32896">
        <ele>799</ele>
        <time>2019-05-18T17:50:24Z</time>
      </trkpt>
      <trkpt lat="45.62405" lon="2.32898">
        <ele>799</ele>
        <time>2019-05-18T17:50:25Z</time>
      </trkpt>
      <trkpt lat="45.62403" lon="2.329">
        <ele>799</ele>
        <time>2019-05-18T17:50:26Z</time>
      </trkpt>
      <trkpt lat="45.62401" lon="2.32902">
        <ele>799</ele>
        <time>2019-05-18T17:50:27Z</time>
      </trkpt>
      <trkpt lat="45.62398" lon="2.32904">
        <ele>799</ele>
        <time>2019-05-18T17:50:28Z</time>
      </trkpt>
      <trkpt lat="45.62396" lon="2.32907">
        <ele>799</ele>
        <time>2019-05-18T17:50:29Z</time>
      </trkpt>
      <trkpt lat="45.62394" lon="2.32909">
        <ele>799</ele>
        <time>2019-05-18T17:50:30Z</time>
      </trkpt>
      <trkpt lat="45.62392" lon="2.32911">
        <ele>800</ele>
        <time>2019-05-18T17:50:31Z</time>
      </trkpt>
      <trkpt lat="45.62389" lon="2.32913">
        <ele>800</ele>
        <time>2019-05-18T17:50:32Z</time>
      </trkpt>
      <trkpt lat="45.62387" lon="2.32915">
        <ele>800</ele>
        <time>2019-05-18T17:50:33Z</time>
      </trkpt>
      <trkpt lat="45.62385" lon="2.32917">
        <ele>800</ele>
        <time>2019-05-18T17:50:34Z</time>
      </trkpt>
      <trkpt lat="45.62383" lon="2.32919">
        <ele>800</ele>
        <time>2019-05-18T17:50:35Z</time>
      </trkpt>
      <trkpt lat="45.6238" lon="2.32921">
        <ele>800</ele>
        <time>2019-05-18T17:50:36Z</time>
      </trkpt>
      <trkpt lat="45.62378" lon="2.32923">
        <ele>800</ele>
        <time>2019-05-18T17:50:37Z</time>
      </trkpt>
      <trkpt lat="45.62376" lon="2.32925">
        <ele>800</ele>
        <time>2019-05-18T17:50:38Z</time>
      </trkpt>
      <trkpt lat="45.62374" lon="2.32927">
        <ele>800</ele>
        <time>2019-05-18T17:50:39Z</time>
      </trkpt>
      <trkpt lat="45.62372" lon="2.32929">
        <ele>800</ele>
        <time>2019-05-18T17:50:40Z</time>
      </trkpt>
      <trkpt lat="45.6237" lon="2.3293">
        <ele>801</ele>
        <time>2019-05-18T17:50:41Z</time>
      </trkpt>
      <trkpt lat="45.62367" lon="2.32932">
        <ele>801</ele>
        <time>2019-05-18T17:50:42Z</time>
      </trkpt>
      <trkpt lat="45.62365" lon="2.32934">
        <ele>801</ele>
        <time>2019-05-18T17:50:43Z</time>
      </trkpt>
      <trkpt lat="45.62363" lon="2.32936">
        <ele>801</ele>
        <time>2019-05-18T17:50:44Z</time>
      </trkpt>
      <trkpt lat="45.62361" lon="2.32938">
        <ele>801</ele>
        <time>2019-05-18T17:50:45Z</time>
      </trkpt>
      <trkpt lat="45.62359" lon="2.3294">
        <ele>801</ele>
        <time>2019-05-18T17:50:46Z</time>
      </trkpt>
      <trkpt lat="45.62357" lon="2.32942">
        <ele>801</ele>
        <time>2019-05-18T17:50:47Z</time>
      </trkpt>
      <trkpt lat="45.62355" lon="2.32944">
        <ele>801</ele>
        <time>2019-05-18T17:50:48Z</time>
      </trkpt>
      <trkpt lat="45.62352" lon="2.32945">
        <ele>802</ele>
        <time>2019-05-18T17:50:49Z</time>
      </trkpt>
      <trkpt lat="45.6235" lon="2.32947">
        <ele>802</ele>
        <time>2019-05-18T17:50:50Z</time>
      </trkpt>
      <trkpt lat="45.62348" lon="2.32949">
        <ele>802</ele>
        <time>2019-05-18T17:50:51Z</time>
      </trkpt>
      <trkpt lat="45.62346" lon="2.32951">
        <ele>802</ele>
        <time>2019-05-18T17:50:52Z</time>
      </trkpt>
      <trkpt lat="45.62344" lon="2.32953">
        <ele>802</ele>
        <time>2019-05-18T17:50:53Z</time>
      </trkpt>
      <trkpt lat="45.62342" lon="2.32955">
        <ele>802</ele>
        <time>2019-05-18T17:50:54Z</time>
      </trkpt>
      <trkpt lat="45.6234" lon="2.32957">
        <ele>802</ele>
        <time>2019-05-18T17:50:55Z</time>
      </trkpt>
      <trkpt lat="45.62338" lon="2.32959">
        <ele>802</ele>
        <time>2019-05-18T17:50:56Z</time>
      </trkpt>
      <trkpt lat="45.62335" lon="2.3296">
        <ele>803</ele>
        <time>2019-05-18T17:50:57Z</time>
      </trkpt>
      <trkpt lat="45.62333" lon="2.32962">
        <ele>803</ele>
        <time>2019-05-18T17:50:58Z</time>
      </trkpt>
      <trkpt lat="45.62331" lon="2.32964">
        <ele>803</ele>
        <time>2019-05-18T17:50:59Z</time>
      </trkpt>
      <trkpt lat="45.62329" lon="2.32966">
        <ele>803</ele>
        <time>2019-05-18T17:51:00Z</time>
      </trkpt>
      <trkpt lat="45.62327" lon="2.32968">
        <ele>803</ele>
        <time>2019-05-18T17:51:01Z</time>
      </trkpt>
      <trkpt lat="45.62325" lon="2.3297">
        <ele>803</ele>
        <time>2019-05-18T17:51:02Z</time>
      </trkpt>
      <trkpt lat="45.62323" lon="2.32971">
        <ele>804</ele>
        <time>2019-05-18T17:51:03Z</time>
      </trkpt>
      <trkpt lat="45.62321" lon="2.32973">
        <ele>804</ele>
        <time>2019-05-18T17:51:04Z</time>
      </trkpt>
      <trkpt lat="45.62318" lon="2.32975">
        <ele>804</ele>
        <time>2019-05-18T17:51:05Z</time>
      </trkpt>
      <trkpt lat="45.62316" lon="2.32977">
        <ele>804</ele>
        <time>2019-05-18T17:51:06Z</time>
      </trkpt>
      <trkpt lat="45.62314" lon="2.32979">
        <ele>804</ele>
        <time>2019-05-18T17:51:07Z</time>
      </trkpt>
      <trkpt lat="45.62312" lon="2.3298">
        <ele>804</ele>
        <time>2019-05-18T17:51:08Z</time>
      </trkpt>
      <trkpt lat="45.6231" lon="2.32982">
        <ele>804</ele>
        <time>2019-05-18T17:51:09Z</time>
      </trkpt>
      <trkpt lat="45.62307" lon="2.32984">
        <ele>805</ele>
        <time>2019-05-18T17:51:10Z</time>
      </trkpt>
      <trkpt lat="45.62305" lon="2.32986">
        <ele>805</ele>
        <time>2019-05-18T17:51:11Z</time>
      </trkpt>
      <trkpt lat="45.62303" lon="2.32988">
        <ele>805</ele>
        <time>2019-05-18T17:51:12Z</time>
      </trkpt>
      <trkpt lat="45.62301" lon="2.3299">
        <ele>805</ele>
        <time>2019-05-18T17:51:13Z</time>
      </trkpt>
      <trkpt lat="45.62299" lon="2.32992">
        <ele>805</ele>
        <time>2019-05-18T17:51:14Z</time>
      </trkpt>
      <trkpt lat="45.62297" lon="2.32994">
        <ele>805</ele>
        <time>2019-05-18T17:51:15Z</time>
      </trkpt>
      <trkpt lat="45.62295" lon="2.32996">
        <ele>805</ele>
        <time>2019-05-18T17:51:16Z</time>
      </trkpt>
      <trkpt lat="45.62293" lon="2.32998">
        <ele>805</ele>
        <time>2019-05-18T17:51:17Z</time>
      </trkpt>
      <trkpt lat="45.62291" lon="2.33">
        <ele>805</ele>
        <time>2019-05-18T17:51:18Z</time>
      </trkpt>
      <trkpt lat="45.62289" lon="2.33002">
        <ele>805</ele>
        <time>2019-05-18T17:51:19Z</time>
      </trkpt>
      <trkpt lat="45.62286" lon="2.33004">
        <ele>805</ele>
        <time>2019-05-18T17:51:20Z</time>
      </trkpt>
      <trkpt lat="45.62284" lon="2.33006">
        <ele>805</ele>
        <time>2019-05-18T17:51:21Z</time>
      </trkpt>
      <trkpt lat="45.62282" lon="2.33009">
        <ele>805</ele>
        <time>2019-05-18T17:51:22Z</time>
      </trkpt>
      <trkpt lat="45.6228" lon="2.33012">
        <ele>805</ele>
        <time>2019-05-18T17:51:23Z</time>
      </trkpt>
      <trkpt lat="45.62278" lon="2.33014">
        <ele>805</ele>
        <time>2019-05-18T17:51:24Z</time>
      </trkpt>
      <trkpt lat="45.62275" lon="2.33016">
        <ele>806</ele>
        <time>2019-05-18T17:51:25Z</time>
      </trkpt>
      <trkpt lat="45.62273" lon="2.33019">
        <ele>805</ele>
        <time>2019-05-18T17:51:26Z</time>
      </trkpt>
      <trkpt lat="45.62271" lon="2.33022">
        <ele>805</ele>
        <time>2019-05-18T17:51:27Z</time>
      </trkpt>
      <trkpt lat="45.62266" lon="2.33027">
        <ele>805</ele>
        <time>2019-05-18T17:51:29Z</time>
      </trkpt>
      <trkpt lat="45.62264" lon="2.3303">
        <ele>805</ele>
        <time>2019-05-18T17:51:30Z</time>
      </trkpt>
      <trkpt lat="45.62262" lon="2.33032">
        <ele>805</ele>
        <time>2019-05-18T17:51:31Z</time>
      </trkpt>
      <trkpt lat="45.62259" lon="2.33035">
        <ele>805</ele>
        <time>2019-05-18T17:51:32Z</time>
      </trkpt>
      <trkpt lat="45.62257" lon="2.33037">
        <ele>805</ele>
        <time>2019-05-18T17:51:33Z</time>
      </trkpt>
      <trkpt lat="45.62254" lon="2.3304">
        <ele>805</ele>
        <time>2019-05-18T17:51:34Z</time>
      </trkpt>
      <trkpt lat="45.62252" lon="2.33043">
        <ele>805</ele>
        <time>2019-05-18T17:51:35Z</time>
      </trkpt>
      <trkpt lat="45.62249" lon="2.33045">
        <ele>805</ele>
        <time>2019-05-18T17:51:36Z</time>
      </trkpt>
      <trkpt lat="45.62247" lon="2.33047">
        <ele>805</ele>
        <time>2019-05-18T17:51:37Z</time>
      </trkpt>
      <trkpt lat="45.62244" lon="2.3305">
        <ele>805</ele>
        <time>2019-05-18T17:51:38Z</time>
      </trkpt>
      <trkpt lat="45.62241" lon="2.33052">
        <ele>805</ele>
        <time>2019-05-18T17:51:39Z</time>
      </trkpt>
      <trkpt lat="45.62237" lon="2.33055">
        <ele>805</ele>
        <time>2019-05-18T17:51:40Z</time>
      </trkpt>
      <trkpt lat="45.62234" lon="2.33058">
        <ele>805</ele>
        <time>2019-05-18T17:51:41Z</time>
      </trkpt>
      <trkpt lat="45.62231" lon="2.33061">
        <ele>794</ele>
        <time>2019-05-18T17:51:42Z</time>
      </trkpt>
      <trkpt lat="45.62228" lon="2.33065">
        <ele>807</ele>
        <time>2019-05-18T17:51:43Z</time>
      </trkpt>
      <trkpt lat="45.62225" lon="2.33069">
        <ele>804</ele>
        <time>2019-05-18T17:51:44Z</time>
      </trkpt>
      <trkpt lat="45.62222" lon="2.33074">
        <ele>804</ele>
        <time>2019-05-18T17:51:45Z</time>
      </trkpt>
      <trkpt lat="45.62219" lon="2.33079">
        <ele>803</ele>
        <time>2019-05-18T17:51:46Z</time>
      </trkpt>
      <trkpt lat="45.62216" lon="2.33084">
        <ele>807</ele>
        <time>2019-05-18T17:51:47Z</time>
      </trkpt>
      <trkpt lat="45.62213" lon="2.3309">
        <ele>803</ele>
        <time>2019-05-18T17:51:48Z</time>
      </trkpt>
      <trkpt lat="45.6221" lon="2.33096">
        <ele>802</ele>
        <time>2019-05-18T17:51:49Z</time>
      </trkpt>
      <trkpt lat="45.62207" lon="2.33102">
        <ele>802</ele>
        <time>2019-05-18T17:51:50Z</time>
      </trkpt>
      <trkpt lat="45.62203" lon="2.33107">
        <ele>802</ele>
        <time>2019-05-18T17:51:51Z</time>
      </trkpt>
      <trkpt lat="45.62199" lon="2.33112">
        <ele>802</ele>
        <time>2019-05-18T17:51:52Z</time>
      </trkpt>
      <trkpt lat="45.62195" lon="2.33117">
        <ele>802</ele>
        <time>2019-05-18T17:51:53Z</time>
      </trkpt>
      <trkpt lat="45.6219" lon="2.33122">
        <ele>802</ele>
        <time>2019-05-18T17:51:54Z</time>
      </trkpt>
      <trkpt lat="45.62184" lon="2.33125">
        <ele>805</ele>
        <time>2019-05-18T17:51:55Z</time>
      </trkpt>
      <trkpt lat="45.62178" lon="2.33128">
        <ele>802</ele>
        <time>2019-05-18T17:51:56Z</time>
      </trkpt>
      <trkpt lat="45.62173" lon="2.33129">
        <ele>802</ele>
        <time>2019-05-18T17:51:57Z</time>
      </trkpt>
      <trkpt lat="45.62167" lon="2.3313">
        <ele>802</ele>
        <time>2019-05-18T17:51:58Z</time>
      </trkpt>
      <trkpt lat="45.62162" lon="2.33132">
        <ele>801</ele>
        <time>2019-05-18T17:51:59Z</time>
      </trkpt>
      <trkpt lat="45.62157" lon="2.33132">
        <ele>801</ele>
        <time>2019-05-18T17:52:00Z</time>
      </trkpt>
      <trkpt lat="45.62152" lon="2.33133">
        <ele>801</ele>
        <time>2019-05-18T17:52:01Z</time>
      </trkpt>
      <trkpt lat="45.62147" lon="2.33134">
        <ele>801</ele>
        <time>2019-05-18T17:52:02Z</time>
      </trkpt>
      <trkpt lat="45.62142" lon="2.33135">
        <ele>801</ele>
        <time>2019-05-18T17:52:03Z</time>
      </trkpt>
      <trkpt lat="45.62138" lon="2.33136">
        <ele>801</ele>
        <time>2019-05-18T17:52:04Z</time>
      </trkpt>
      <trkpt lat="45.62135" lon="2.33136">
        <ele>801</ele>
        <time>2019-05-18T17:52:05Z</time>
      </trkpt>
      <trkpt lat="45.62131" lon="2.33137">
        <ele>802</ele>
        <time>2019-05-18T17:52:06Z</time>
      </trkpt>
      <trkpt lat="45.62127" lon="2.33137">
        <ele>802</ele>
        <time>2019-05-18T17:52:07Z</time>
      </trkpt>
      <trkpt lat="45.62124" lon="2.33138">
        <ele>802</ele>
        <time>2019-05-18T17:52:08Z</time>
      </trkpt>
      <trkpt lat="45.6212" lon="2.33139">
        <ele>803</ele>
        <time>2019-05-18T17:52:09Z</time>
      </trkpt>
      <trkpt lat="45.62117" lon="2.3314">
        <ele>791</ele>
        <time>2019-05-18T17:52:10Z</time>
      </trkpt>
      <trkpt lat="45.62114" lon="2.3314">
        <ele>804</ele>
        <time>2019-05-18T17:52:11Z</time>
      </trkpt>
      <trkpt lat="45.6211" lon="2.33141">
        <ele>803</ele>
        <time>2019-05-18T17:52:12Z</time>
      </trkpt>
      <trkpt lat="45.62107" lon="2.33141">
        <ele>804</ele>
        <time>2019-05-18T17:52:13Z</time>
      </trkpt>
      <trkpt lat="45.62104" lon="2.33142">
        <ele>803</ele>
        <time>2019-05-18T17:52:14Z</time>
      </trkpt>
      <trkpt lat="45.62101" lon="2.33143">
        <ele>803</ele>
        <time>2019-05-18T17:52:15Z</time>
      </trkpt>
      <trkpt lat="45.62098" lon="2.33144">
        <ele>803</ele>
        <time>2019-05-18T17:52:16Z</time>
      </trkpt>
      <trkpt lat="45.62094" lon="2.33145">
        <ele>803</ele>
        <time>2019-05-18T17:52:17Z</time>
      </trkpt>
      <trkpt lat="45.62091" lon="2.33146">
        <ele>803</ele>
        <time>2019-05-18T17:52:18Z</time>
      </trkpt>
      <trkpt lat="45.62088" lon="2.33146">
        <ele>803</ele>
        <time>2019-05-18T17:52:19Z</time>
      </trkpt>
      <trkpt lat="45.62085" lon="2.33148">
        <ele>803</ele>
        <time>2019-05-18T17:52:20Z</time>
      </trkpt>
      <trkpt lat="45.62081" lon="2.33149">
        <ele>803</ele>
        <time>2019-05-18T17:52:21Z</time>
      </trkpt>
      <trkpt lat="45.62078" lon="2.3315">
        <ele>803</ele>
        <time>2019-05-18T17:52:22Z</time>
      </trkpt>
      <trkpt lat="45.62075" lon="2.33151">
        <ele>803</ele>
        <time>2019-05-18T17:52:23Z</time>
      </trkpt>
      <trkpt lat="45.62072" lon="2.33152">
        <ele>804</ele>
        <time>2019-05-18T17:52:24Z</time>
      </trkpt>
      <trkpt lat="45.62068" lon="2.33153">
        <ele>804</ele>
        <time>2019-05-18T17:52:25Z</time>
      </trkpt>
      <trkpt lat="45.62065" lon="2.33154">
        <ele>804</ele>
        <time>2019-05-18T17:52:26Z</time>
      </trkpt>
      <trkpt lat="45.62062" lon="2.33154">
        <ele>804</ele>
        <time>2019-05-18T17:52:27Z</time>
      </trkpt>
      <trkpt lat="45.62059" lon="2.33155">
        <ele>804</ele>
        <time>2019-05-18T17:52:28Z</time>
      </trkpt>
      <trkpt lat="45.62056" lon="2.33156">
        <ele>804</ele>
        <time>2019-05-18T17:52:29Z</time>
      </trkpt>
      <trkpt lat="45.62053" lon="2.33157">
        <ele>804</ele>
        <time>2019-05-18T17:52:30Z</time>
      </trkpt>
      <trkpt lat="45.6205" lon="2.33158">
        <ele>804</ele>
        <time>2019-05-18T17:52:31Z</time>
      </trkpt>
      <trkpt lat="45.62047" lon="2.3316">
        <ele>804</ele>
        <time>2019-05-18T17:52:32Z</time>
      </trkpt>
      <trkpt lat="45.62043" lon="2.33161">
        <ele>804</ele>
        <time>2019-05-18T17:52:33Z</time>
      </trkpt>
      <trkpt lat="45.62041" lon="2.33162">
        <ele>804</ele>
        <time>2019-05-18T17:52:34Z</time>
      </trkpt>
      <trkpt lat="45.62038" lon="2.33163">
        <ele>805</ele>
        <time>2019-05-18T17:52:35Z</time>
      </trkpt>
      <trkpt lat="45.62035" lon="2.33165">
        <ele>805</ele>
        <time>2019-05-18T17:52:36Z</time>
      </trkpt>
      <trkpt lat="45.62032" lon="2.33166">
        <ele>805</ele>
        <time>2019-05-18T17:52:37Z</time>
      </trkpt>
      <trkpt lat="45.62029" lon="2.33168">
        <ele>805</ele>
        <time>2019-05-18T17:52:38Z</time>
      </trkpt>
      <trkpt lat="45.62026" lon="2.33169">
        <ele>805</ele>
        <time>2019-05-18T17:52:39Z</time>
      </trkpt>
      <trkpt lat="45.62023" lon="2.33171">
        <ele>805</ele>
        <time>2019-05-18T17:52:40Z</time>
      </trkpt>
      <trkpt lat="45.6202" lon="2.33173">
        <ele>805</ele>
        <time>2019-05-18T17:52:41Z</time>
      </trkpt>
      <trkpt lat="45.62017" lon="2.33176">
        <ele>805</ele>
        <time>2019-05-18T17:52:42Z</time>
      </trkpt>
      <trkpt lat="45.62013" lon="2.33178">
        <ele>805</ele>
        <time>2019-05-18T17:52:43Z</time>
      </trkpt>
      <trkpt lat="45.6201" lon="2.3318">
        <ele>805</ele>
        <time>2019-05-18T17:52:44Z</time>
      </trkpt>
      <trkpt lat="45.62007" lon="2.33181">
        <ele>805</ele>
        <time>2019-05-18T17:52:45Z</time>
      </trkpt>
      <trkpt lat="45.62004" lon="2.33183">
        <ele>805</ele>
        <time>2019-05-18T17:52:46Z</time>
      </trkpt>
      <trkpt lat="45.62001" lon="2.33185">
        <ele>806</ele>
        <time>2019-05-18T17:52:47Z</time>
      </trkpt>
      <trkpt lat="45.61998" lon="2.33187">
        <ele>806</ele>
        <time>2019-05-18T17:52:48Z</time>
      </trkpt>
      <trkpt lat="45.61995" lon="2.33189">
        <ele>806</ele>
        <time>2019-05-18T17:52:49Z</time>
      </trkpt>
      <trkpt lat="45.61992" lon="2.33191">
        <ele>806</ele>
        <time>2019-05-18T17:52:50Z</time>
      </trkpt>
      <trkpt lat="45.61988" lon="2.33193">
        <ele>806</ele>
        <time>2019-05-18T17:52:51Z</time>
      </trkpt>
      <trkpt lat="45.61985" lon="2.33194">
        <ele>806</ele>
        <time>2019-05-18T17:52:52Z</time>
      </trkpt>
      <trkpt lat="45.61982" lon="2.33196">
        <ele>806</ele>
        <time>2019-05-18T17:52:53Z</time>
      </trkpt>
      <trkpt lat="45.61979" lon="2.33198">
        <ele>806</ele>
        <time>2019-05-18T17:52:54Z</time>
      </trkpt>
      <trkpt lat="45.61976" lon="2.332">
        <ele>806</ele>
        <time>2019-05-18T17:52:55Z</time>
      </trkpt>
      <trkpt lat="45.61973" lon="2.33202">
        <ele>806</ele>
        <time>2019-05-18T17:52:56Z</time>
      </trkpt>
      <trkpt lat="45.6197" lon="2.33204">
        <ele>806</ele>
        <time>2019-05-18T17:52:57Z</time>
      </trkpt>
      <trkpt lat="45.61966" lon="2.33205">
        <ele>806</ele>
        <time>2019-05-18T17:52:58Z</time>
      </trkpt>
      <trkpt lat="45.61963" lon="2.33207">
        <ele>806</ele>
        <time>2019-05-18T17:52:59Z</time>
      </trkpt>
      <trkpt lat="45.6196" lon="2.33209">
        <ele>806</ele>
        <time>2019-05-18T17:53:00Z</time>
      </trkpt>
      <trkpt lat="45.61957" lon="2.3321">
        <ele>806</ele>
        <time>2019-05-18T17:53:01Z</time>
      </trkpt>
      <trkpt lat="45.61953" lon="2.33212">
        <ele>806</ele>
        <time>2019-05-18T17:53:02Z</time>
      </trkpt>
      <trkpt lat="45.6195" lon="2.33213">
        <ele>806</ele>
        <time>2019-05-18T17:53:03Z</time>
      </trkpt>
      <trkpt lat="45.61947" lon="2.33214">
        <ele>806</ele>
        <time>2019-05-18T17:53:04Z</time>
      </trkpt>
      <trkpt lat="45.61943" lon="2.33215">
        <ele>806</ele>
        <time>2019-05-18T17:53:05Z</time>
      </trkpt>
      <trkpt lat="45.6194" lon="2.33216">
        <ele>806</ele>
        <time>2019-05-18T17:53:06Z</time>
      </trkpt>
      <trkpt lat="45.61937" lon="2.33217">
        <ele>807</ele>
        <time>2019-05-18T17:53:07Z</time>
      </trkpt>
      <trkpt lat="45.61933" lon="2.33218">
        <ele>807</ele>
        <time>2019-05-18T17:53:08Z</time>
      </trkpt>
      <trkpt lat="45.6193" lon="2.33218">
        <ele>807</ele>
        <time>2019-05-18T17:53:09Z</time>
      </trkpt>
      <trkpt lat="45.61926" lon="2.33217">
        <ele>807</ele>
        <time>2019-05-18T17:53:10Z</time>
      </trkpt>
      <trkpt lat="45.61923" lon="2.33218">
        <ele>807</ele>
        <time>2019-05-18T17:53:11Z</time>
      </trkpt>
      <trkpt lat="45.6192" lon="2.33218">
        <ele>807</ele>
        <time>2019-05-18T17:53:12Z</time>
      </trkpt>
      <trkpt lat="45.61916" lon="2.33218">
        <ele>807</ele>
        <time>2019-05-18T17:53:13Z</time>
      </trkpt>
      <trkpt lat="45.61913" lon="2.33218">
        <ele>807</ele>
        <time>2019-05-18T17:53:14Z</time>
      </trkpt>
      <trkpt lat="45.61909" lon="2.33218">
        <ele>807</ele>
        <time>2019-05-18T17:53:15Z</time>
      </trkpt>
      <trkpt lat="45.61906" lon="2.33218">
        <ele>807</ele>
        <time>2019-05-18T17:53:16Z</time>
      </trkpt>
      <trkpt lat="45.61903" lon="2.33218">
        <ele>807</ele>
        <time>2019-05-18T17:53:17Z</time>
      </trkpt>
      <trkpt lat="45.61899" lon="2.33217">
        <ele>807</ele>
        <time>2019-05-18T17:53:18Z</time>
      </trkpt>
      <trkpt lat="45.61896" lon="2.33217">
        <ele>807</ele>
        <time>2019-05-18T17:53:19Z</time>
      </trkpt>
      <trkpt lat="45.61893" lon="2.33217">
        <ele>807</ele>
        <time>2019-05-18T17:53:20Z</time>
      </trkpt>
      <trkpt lat="45.61889" lon="2.33217">
        <ele>807</ele>
        <time>2019-05-18T17:53:21Z</time>
      </trkpt>
      <trkpt lat="45.61886" lon="2.33217">
        <ele>807</ele>
        <time>2019-05-18T17:53:22Z</time>
      </trkpt>
      <trkpt lat="45.61883" lon="2.33217">
        <ele>807</ele>
        <time>2019-05-18T17:53:23Z</time>
      </trkpt>
      <trkpt lat="45.61879" lon="2.33217">
        <ele>807</ele>
        <time>2019-05-18T17:53:24Z</time>
      </trkpt>
      <trkpt lat="45.61876" lon="2.33217">
        <ele>807</ele>
        <time>2019-05-18T17:53:25Z</time>
      </trkpt>
      <trkpt lat="45.61873" lon="2.33216">
        <ele>808</ele>
        <time>2019-05-18T17:53:26Z</time>
      </trkpt>
      <trkpt lat="45.61869" lon="2.33216">
        <ele>808</ele>
        <time>2019-05-18T17:53:27Z</time>
      </trkpt>
      <trkpt lat="45.61866" lon="2.33216">
        <ele>808</ele>
        <time>2019-05-18T17:53:28Z</time>
      </trkpt>
      <trkpt lat="45.61862" lon="2.33216">
        <ele>808</ele>
        <time>2019-05-18T17:53:29Z</time>
      </trkpt>
      <trkpt lat="45.61859" lon="2.33215">
        <ele>808</ele>
        <time>2019-05-18T17:53:30Z</time>
      </trkpt>
      <trkpt lat="45.61855" lon="2.33215">
        <ele>808</ele>
        <time>2019-05-18T17:53:31Z</time>
      </trkpt>
      <trkpt lat="45.61852" lon="2.33215">
        <ele>808</ele>
        <time>2019-05-18T17:53:32Z</time>
      </trkpt>
      <trkpt lat="45.61849" lon="2.33214">
        <ele>808</ele>
        <time>2019-05-18T17:53:33Z</time>
      </trkpt>
      <trkpt lat="45.61845" lon="2.33213">
        <ele>808</ele>
        <time>2019-05-18T17:53:34Z</time>
      </trkpt>
      <trkpt lat="45.61842" lon="2.33212">
        <ele>808</ele>
        <time>2019-05-18T17:53:35Z</time>
      </trkpt>
      <trkpt lat="45.61838" lon="2.33211">
        <ele>808</ele>
        <time>2019-05-18T17:53:36Z</time>
      </trkpt>
      <trkpt lat="45.61835" lon="2.3321">
        <ele>808</ele>
        <time>2019-05-18T17:53:37Z</time>
      </trkpt>
      <trkpt lat="45.61831" lon="2.33209">
        <ele>808</ele>
        <time>2019-05-18T17:53:38Z</time>
      </trkpt>
      <trkpt lat="45.61827" lon="2.33207">
        <ele>808</ele>
        <time>2019-05-18T17:53:39Z</time>
      </trkpt>
      <trkpt lat="45.61824" lon="2.33206">
        <ele>807</ele>
        <time>2019-05-18T17:53:40Z</time>
      </trkpt>
      <trkpt lat="45.61821" lon="2.33204">
        <ele>807</ele>
        <time>2019-05-18T17:53:41Z</time>
      </trkpt>
      <trkpt lat="45.61817" lon="2.33202">
        <ele>807</ele>
        <time>2019-05-18T17:53:42Z</time>
      </trkpt>
      <trkpt lat="45.61813" lon="2.332">
        <ele>807</ele>
        <time>2019-05-18T17:53:43Z</time>
      </trkpt>
      <trkpt lat="45.61809" lon="2.33197">
        <ele>807</ele>
        <time>2019-05-18T17:53:44Z</time>
      </trkpt>
      <trkpt lat="45.61805" lon="2.33194">
        <ele>807</ele>
        <time>2019-05-18T17:53:45Z</time>
      </trkpt>
      <trkpt lat="45.61801" lon="2.3319">
        <ele>806</ele>
        <time>2019-05-18T17:53:46Z</time>
      </trkpt>
      <trkpt lat="45.61796" lon="2.33186">
        <ele>806</ele>
        <time>2019-05-18T17:53:47Z</time>
      </trkpt>
      <trkpt lat="45.61792" lon="2.33183">
        <ele>806</ele>
        <time>2019-05-18T17:53:48Z</time>
      </trkpt>
      <trkpt lat="45.61786" lon="2.33179">
        <ele>805</ele>
        <time>2019-05-18T17:53:49Z</time>
      </trkpt>
      <trkpt lat="45.61781" lon="2.33175">
        <ele>805</ele>
        <time>2019-05-18T17:53:50Z</time>
      </trkpt>
      <trkpt lat="45.61775" lon="2.33171">
        <ele>805</ele>
        <time>2019-05-18T17:53:51Z</time>
      </trkpt>
      <trkpt lat="45.6177" lon="2.33167">
        <ele>804</ele>
        <time>2019-05-18T17:53:52Z</time>
      </trkpt>
      <trkpt lat="45.61764" lon="2.33162">
        <ele>804</ele>
        <time>2019-05-18T17:53:53Z</time>
      </trkpt>
      <trkpt lat="45.61757" lon="2.33158">
        <ele>804</ele>
        <time>2019-05-18T17:53:54Z</time>
      </trkpt>
      <trkpt lat="45.61751" lon="2.33154">
        <ele>803</ele>
        <time>2019-05-18T17:53:55Z</time>
      </trkpt>
      <trkpt lat="45.61745" lon="2.3315">
        <ele>803</ele>
        <time>2019-05-18T17:53:56Z</time>
      </trkpt>
      <trkpt lat="45.61738" lon="2.33146">
        <ele>803</ele>
        <time>2019-05-18T17:53:57Z</time>
      </trkpt>
      <trkpt lat="45.61731" lon="2.33142">
        <ele>802</ele>
        <time>2019-05-18T17:53:58Z</time>
      </trkpt>
      <trkpt lat="45.61724" lon="2.33139">
        <ele>802</ele>
        <time>2019-05-18T17:53:59Z</time>
      </trkpt>
      <trkpt lat="45.61716" lon="2.33136">
        <ele>802</ele>
        <time>2019-05-18T17:54:00Z</time>
      </trkpt>
      <trkpt lat="45.61709" lon="2.33135">
        <ele>801</ele>
        <time>2019-05-18T17:54:01Z</time>
      </trkpt>
      <trkpt lat="45.61701" lon="2.33134">
        <ele>801</ele>
        <time>2019-05-18T17:54:02Z</time>
      </trkpt>
      <trkpt lat="45.61694" lon="2.33135">
        <ele>801</ele>
        <time>2019-05-18T17:54:03Z</time>
      </trkpt>
      <trkpt lat="45.61686" lon="2.33136">
        <ele>800</ele>
        <time>2019-05-18T17:54:04Z</time>
      </trkpt>
      <trkpt lat="45.61679" lon="2.33138">
        <ele>800</ele>
        <time>2019-05-18T17:54:05Z</time>
      </trkpt>
      <trkpt lat="45.61672" lon="2.3314">
        <ele>800</ele>
        <time>2019-05-18T17:54:06Z</time>
      </trkpt>
      <trkpt lat="45.61665" lon="2.33142">
        <ele>800</ele>
        <time>2019-05-18T17:54:07Z</time>
      </trkpt>
      <trkpt lat="45.61658" lon="2.33146">
        <ele>800</ele>
        <time>2019-05-18T17:54:08Z</time>
      </trkpt>
      <trkpt lat="45.61652" lon="2.33148">
        <ele>800</ele>
        <time>2019-05-18T17:54:09Z</time>
      </trkpt>
      <trkpt lat="45.61646" lon="2.33151">
        <ele>800</ele>
        <time>2019-05-18T17:54:10Z</time>
      </trkpt>
      <trkpt lat="45.6164" lon="2.33154">
        <ele>799</ele>
        <time>2019-05-18T17:54:11Z</time>
      </trkpt>
      <trkpt lat="45.61634" lon="2.33156">
        <ele>799</ele>
        <time>2019-05-18T17:54:12Z</time>
      </trkpt>
      <trkpt lat="45.61628" lon="2.33158">
        <ele>800</ele>
        <time>2019-05-18T17:54:13Z</time>
      </trkpt>
      <trkpt lat="45.61622" lon="2.3316">
        <ele>800</ele>
        <time>2019-05-18T17:54:14Z</time>
      </trkpt>
      <trkpt lat="45.61617" lon="2.33161">
        <ele>800</ele>
        <time>2019-05-18T17:54:15Z</time>
      </trkpt>
      <trkpt lat="45.61612" lon="2.33162">
        <ele>800</ele>
        <time>2019-05-18T17:54:16Z</time>
      </trkpt>
      <trkpt lat="45.61606" lon="2.33163">
        <ele>800</ele>
        <time>2019-05-18T17:54:17Z</time>
      </trkpt>
      <trkpt lat="45.61601" lon="2.33163">
        <ele>800</ele>
        <time>2019-05-18T17:54:18Z</time>
      </trkpt>
      <trkpt lat="45.61596" lon="2.33163">
        <ele>800</ele>
        <time>2019-05-18T17:54:19Z</time>
      </trkpt>
      <trkpt lat="45.61591" lon="2.33163">
        <ele>800</ele>
        <time>2019-05-18T17:54:20Z</time>
      </trkpt>
      <trkpt lat="45.61585" lon="2.33163">
        <ele>800</ele>
        <time>2019-05-18T17:54:21Z</time>
      </trkpt>
      <trkpt lat="45.6158" lon="2.33163">
        <ele>800</ele>
        <time>2019-05-18T17:54:22Z</time>
      </trkpt>
      <trkpt lat="45.61575" lon="2.33163">
        <ele>800</ele>
        <time>2019-05-18T17:54:23Z</time>
      </trkpt>
      <trkpt lat="45.6157" lon="2.33163">
        <ele>800</ele>
        <time>2019-05-18T17:54:24Z</time>
      </trkpt>
      <trkpt lat="45.61565" lon="2.33162">
        <ele>800</ele>
        <time>2019-05-18T17:54:25Z</time>
      </trkpt>
      <trkpt lat="45.6156" lon="2.33162">
        <ele>800</ele>
        <time>2019-05-18T17:54:26Z</time>
      </trkpt>
      <trkpt lat="45.61555" lon="2.33161">
        <ele>800</ele>
        <time>2019-05-18T17:54:27Z</time>
      </trkpt>
      <trkpt lat="45.6155" lon="2.33161">
        <ele>800</ele>
        <time>2019-05-18T17:54:28Z</time>
      </trkpt>
      <trkpt lat="45.61545" lon="2.33161">
        <ele>800</ele>
        <time>2019-05-18T17:54:29Z</time>
      </trkpt>
      <trkpt lat="45.61541" lon="2.3316">
        <ele>800</ele>
        <time>2019-05-18T17:54:30Z</time>
      </trkpt>
      <trkpt lat="45.61536" lon="2.3316">
        <ele>800</ele>
        <time>2019-05-18T17:54:31Z</time>
      </trkpt>
      <trkpt lat="45.61531" lon="2.33159">
        <ele>800</ele>
        <time>2019-05-18T17:54:32Z</time>
      </trkpt>
      <trkpt lat="45.61527" lon="2.33158">
        <ele>800</ele>
        <time>2019-05-18T17:54:33Z</time>
      </trkpt>
      <trkpt lat="45.61522" lon="2.33158">
        <ele>800</ele>
        <time>2019-05-18T17:54:34Z</time>
      </trkpt>
      <trkpt lat="45.61518" lon="2.33157">
        <ele>800</ele>
        <time>2019-05-18T17:54:35Z</time>
      </trkpt>
      <trkpt lat="45.61513" lon="2.33157">
        <ele>800</ele>
        <time>2019-05-18T17:54:36Z</time>
      </trkpt>
      <trkpt lat="45.61509" lon="2.33157">
        <ele>800</ele>
        <time>2019-05-18T17:54:37Z</time>
      </trkpt>
      <trkpt lat="45.61505" lon="2.33156">
        <ele>800</ele>
        <time>2019-05-18T17:54:38Z</time>
      </trkpt>
      <trkpt lat="45.615" lon="2.33156">
        <ele>800</ele>
        <time>2019-05-18T17:54:39Z</time>
      </trkpt>
      <trkpt lat="45.61496" lon="2.33156">
        <ele>800</ele>
        <time>2019-05-18T17:54:40Z</time>
      </trkpt>
      <trkpt lat="45.61492" lon="2.33155">
        <ele>800</ele>
        <time>2019-05-18T17:54:41Z</time>
      </trkpt>
      <trkpt lat="45.61488" lon="2.33154">
        <ele>800</ele>
        <time>2019-05-18T17:54:42Z</time>
      </trkpt>
      <trkpt lat="45.61484" lon="2.33154">
        <ele>800</ele>
        <time>2019-05-18T17:54:43Z</time>
      </trkpt>
      <trkpt lat="45.6148" lon="2.33153">
        <ele>800</ele>
        <time>2019-05-18T17:54:44Z</time>
      </trkpt>
      <trkpt lat="45.61476" lon="2.33152">
        <ele>800</ele>
        <time>2019-05-18T17:54:45Z</time>
      </trkpt>
      <trkpt lat="45.61472" lon="2.33151">
        <ele>800</ele>
        <time>2019-05-18T17:54:46Z</time>
      </trkpt>
      <trkpt lat="45.61468" lon="2.33151">
        <ele>800</ele>
        <time>2019-05-18T17:54:47Z</time>
      </trkpt>
      <trkpt lat="45.61464" lon="2.33151">
        <ele>800</ele>
        <time>2019-05-18T17:54:48Z</time>
      </trkpt>
      <trkpt lat="45.61461" lon="2.3315">
        <ele>800</ele>
        <time>2019-05-18T17:54:49Z</time>
      </trkpt>
      <trkpt lat="45.61457" lon="2.33149">
        <ele>800</ele>
        <time>2019-05-18T17:54:50Z</time>
      </trkpt>
      <trkpt lat="45.61453" lon="2.33149">
        <ele>801</ele>
        <time>2019-05-18T17:54:51Z</time>
      </trkpt>
      <trkpt lat="45.6145" lon="2.33148">
        <ele>801</ele>
        <time>2019-05-18T17:54:52Z</time>
      </trkpt>
      <trkpt lat="45.61446" lon="2.33147">
        <ele>801</ele>
        <time>2019-05-18T17:54:53Z</time>
      </trkpt>
      <trkpt lat="45.61443" lon="2.33147">
        <ele>801</ele>
        <time>2019-05-18T17:54:54Z</time>
      </trkpt>
      <trkpt lat="45.6144" lon="2.33146">
        <ele>801</ele>
        <time>2019-05-18T17:54:55Z</time>
      </trkpt>
      <trkpt lat="45.61436" lon="2.33146">
        <ele>801</ele>
        <time>2019-05-18T17:54:56Z</time>
      </trkpt>
      <trkpt lat="45.61434" lon="2.33146">
        <ele>801</ele>
        <time>2019-05-18T17:54:57Z</time>
      </trkpt>
      <trkpt lat="45.61431" lon="2.33145">
        <ele>802</ele>
        <time>2019-05-18T17:54:58Z</time>
      </trkpt>
      <trkpt lat="45.61427" lon="2.33145">
        <ele>802</ele>
        <time>2019-05-18T17:54:59Z</time>
      </trkpt>
      <trkpt lat="45.61425" lon="2.33145">
        <ele>802</ele>
        <time>2019-05-18T17:55:00Z</time>
      </trkpt>
      <trkpt lat="45.61422" lon="2.33144">
        <ele>802</ele>
        <time>2019-05-18T17:55:01Z</time>
      </trkpt>
      <trkpt lat="45.61419" lon="2.33144">
        <ele>802</ele>
        <time>2019-05-18T17:55:02Z</time>
      </trkpt>
      <trkpt lat="45.61415" lon="2.33144">
        <ele>802</ele>
        <time>2019-05-18T17:55:03Z</time>
      </trkpt>
      <trkpt lat="45.61412" lon="2.33144">
        <ele>802</ele>
        <time>2019-05-18T17:55:04Z</time>
      </trkpt>
      <trkpt lat="45.61409" lon="2.33143">
        <ele>803</ele>
        <time>2019-05-18T17:55:05Z</time>
      </trkpt>
      <trkpt lat="45.61406" lon="2.33143">
        <ele>803</ele>
        <time>2019-05-18T17:55:06Z</time>
      </trkpt>
      <trkpt lat="45.61403" lon="2.33142">
        <ele>803</ele>
        <time>2019-05-18T17:55:07Z</time>
      </trkpt>
      <trkpt lat="45.614" lon="2.33141">
        <ele>803</ele>
        <time>2019-05-18T17:55:08Z</time>
      </trkpt>
      <trkpt lat="45.61397" lon="2.3314">
        <ele>803</ele>
        <time>2019-05-18T17:55:09Z</time>
      </trkpt>
      <trkpt lat="45.61394" lon="2.3314">
        <ele>803</ele>
        <time>2019-05-18T17:55:10Z</time>
      </trkpt>
      <trkpt lat="45.61391" lon="2.3314">
        <ele>803</ele>
        <time>2019-05-18T17:55:11Z</time>
      </trkpt>
      <trkpt lat="45.61388" lon="2.33139">
        <ele>803</ele>
        <time>2019-05-18T17:55:12Z</time>
      </trkpt>
      <trkpt lat="45.61385" lon="2.33138">
        <ele>804</ele>
        <time>2019-05-18T17:55:13Z</time>
      </trkpt>
      <trkpt lat="45.61382" lon="2.33138">
        <ele>804</ele>
        <time>2019-05-18T17:55:14Z</time>
      </trkpt>
      <trkpt lat="45.61378" lon="2.33138">
        <ele>804</ele>
        <time>2019-05-18T17:55:15Z</time>
      </trkpt>
      <trkpt lat="45.61375" lon="2.33137">
        <ele>804</ele>
        <time>2019-05-18T17:55:16Z</time>
      </trkpt>
      <trkpt lat="45.61372" lon="2.33137">
        <ele>804</ele>
        <time>2019-05-18T17:55:17Z</time>
      </trkpt>
      <trkpt lat="45.61369" lon="2.33137">
        <ele>804</ele>
        <time>2019-05-18T17:55:18Z</time>
      </trkpt>
      <trkpt lat="45.61365" lon="2.33137">
        <ele>804</ele>
        <time>2019-05-18T17:55:19Z</time>
      </trkpt>
      <trkpt lat="45.61362" lon="2.33137">
        <ele>804</ele>
        <time>2019-05-18T17:55:20Z</time>
      </trkpt>
      <trkpt lat="45.61358" lon="2.33137">
        <ele>804</ele>
        <time>2019-05-18T17:55:21Z</time>
      </trkpt>
      <trkpt lat="45.61354" lon="2.33137">
        <ele>804</ele>
        <time>2019-05-18T17:55:22Z</time>
      </trkpt>
      <trkpt lat="45.6135" lon="2.33137">
        <ele>804</ele>
        <time>2019-05-18T17:55:23Z</time>
      </trkpt>
      <trkpt lat="45.61347" lon="2.33136">
        <ele>805</ele>
        <time>2019-05-18T17:55:24Z</time>
      </trkpt>
      <trkpt lat="45.61343" lon="2.33136">
        <ele>804</ele>
        <time>2019-05-18T17:55:25Z</time>
      </trkpt>
      <trkpt lat="45.61339" lon="2.33135">
        <ele>804</ele>
        <time>2019-05-18T17:55:26Z</time>
      </trkpt>
      <trkpt lat="45.61335" lon="2.33135">
        <ele>804</ele>
        <time>2019-05-18T17:55:27Z</time>
      </trkpt>
      <trkpt lat="45.61332" lon="2.33135">
        <ele>804</ele>
        <time>2019-05-18T17:55:28Z</time>
      </trkpt>
      <trkpt lat="45.61328" lon="2.33136">
        <ele>804</ele>
        <time>2019-05-18T17:55:29Z</time>
      </trkpt>
      <trkpt lat="45.61324" lon="2.33137">
        <ele>804</ele>
        <time>2019-05-18T17:55:30Z</time>
      </trkpt>
      <trkpt lat="45.61319" lon="2.33137">
        <ele>804</ele>
        <time>2019-05-18T17:55:31Z</time>
      </trkpt>
      <trkpt lat="45.61315" lon="2.33136">
        <ele>804</ele>
        <time>2019-05-18T17:55:32Z</time>
      </trkpt>
      <trkpt lat="45.6131" lon="2.33136">
        <ele>803</ele>
        <time>2019-05-18T17:55:33Z</time>
      </trkpt>
      <trkpt lat="45.61306" lon="2.33136">
        <ele>803</ele>
        <time>2019-05-18T17:55:34Z</time>
      </trkpt>
      <trkpt lat="45.61301" lon="2.33136">
        <ele>803</ele>
        <time>2019-05-18T17:55:35Z</time>
      </trkpt>
      <trkpt lat="45.61296" lon="2.33136">
        <ele>802</ele>
        <time>2019-05-18T17:55:36Z</time>
      </trkpt>
      <trkpt lat="45.6129" lon="2.33136">
        <ele>802</ele>
        <time>2019-05-18T17:55:37Z</time>
      </trkpt>
      <trkpt lat="45.61285" lon="2.33137">
        <ele>802</ele>
        <time>2019-05-18T17:55:38Z</time>
      </trkpt>
      <trkpt lat="45.61279" lon="2.33138">
        <ele>802</ele>
        <time>2019-05-18T17:55:39Z</time>
      </trkpt>
      <trkpt lat="45.61274" lon="2.33138">
        <ele>801</ele>
        <time>2019-05-18T17:55:40Z</time>
      </trkpt>
      <trkpt lat="45.61268" lon="2.33138">
        <ele>801</ele>
        <time>2019-05-18T17:55:41Z</time>
      </trkpt>
      <trkpt lat="45.61262" lon="2.33138">
        <ele>801</ele>
        <time>2019-05-18T17:55:42Z</time>
      </trkpt>
      <trkpt lat="45.61257" lon="2.33138">
        <ele>801</ele>
        <time>2019-05-18T17:55:43Z</time>
      </trkpt>
      <trkpt lat="45.61251" lon="2.33137">
        <ele>801</ele>
        <time>2019-05-18T17:55:44Z</time>
      </trkpt>
      <trkpt lat="45.61245" lon="2.33136">
        <ele>800</ele>
        <time>2019-05-18T17:55:45Z</time>
      </trkpt>
      <trkpt lat="45.6124" lon="2.33136">
        <ele>800</ele>
        <time>2019-05-18T17:55:46Z</time>
      </trkpt>
      <trkpt lat="45.61234" lon="2.33135">
        <ele>800</ele>
        <time>2019-05-18T17:55:47Z</time>
      </trkpt>
      <trkpt lat="45.61229" lon="2.33135">
        <ele>800</ele>
        <time>2019-05-18T17:55:48Z</time>
      </trkpt>
      <trkpt lat="45.61224" lon="2.33134">
        <ele>800</ele>
        <time>2019-05-18T17:55:49Z</time>
      </trkpt>
      <trkpt lat="45.61218" lon="2.33134">
        <ele>800</ele>
        <time>2019-05-18T17:55:50Z</time>
      </trkpt>
      <trkpt lat="45.61213" lon="2.33133">
        <ele>800</ele>
        <time>2019-05-18T17:55:51Z</time>
      </trkpt>
      <trkpt lat="45.61208" lon="2.33133">
        <ele>800</ele>
        <time>2019-05-18T17:55:52Z</time>
      </trkpt>
      <trkpt lat="45.61203" lon="2.33132">
        <ele>800</ele>
        <time>2019-05-18T17:55:53Z</time>
      </trkpt>
      <trkpt lat="45.61199" lon="2.33132">
        <ele>800</ele>
        <time>2019-05-18T17:55:54Z</time>
      </trkpt>
      <trkpt lat="45.61194" lon="2.3313">
        <ele>800</ele>
        <time>2019-05-18T17:55:55Z</time>
      </trkpt>
      <trkpt lat="45.6119" lon="2.33129">
        <ele>800</ele>
        <time>2019-05-18T17:55:56Z</time>
      </trkpt>
      <trkpt lat="45.61186" lon="2.33128">
        <ele>800</ele>
        <time>2019-05-18T17:55:57Z</time>
      </trkpt>
      <trkpt lat="45.61182" lon="2.33128">
        <ele>800</ele>
        <time>2019-05-18T17:55:58Z</time>
      </trkpt>
      <trkpt lat="45.61178" lon="2.33127">
        <ele>800</ele>
        <time>2019-05-18T17:55:59Z</time>
      </trkpt>
      <trkpt lat="45.61174" lon="2.33127">
        <ele>800</ele>
        <time>2019-05-18T17:56:00Z</time>
      </trkpt>
      <trkpt lat="45.61171" lon="2.33125">
        <ele>800</ele>
        <time>2019-05-18T17:56:01Z</time>
      </trkpt>
      <trkpt lat="45.61167" lon="2.33124">
        <ele>800</ele>
        <time>2019-05-18T17:56:02Z</time>
      </trkpt>
      <trkpt lat="45.61164" lon="2.33123">
        <ele>800</ele>
        <time>2019-05-18T17:56:03Z</time>
      </trkpt>
      <trkpt lat="45.6116" lon="2.33122">
        <ele>800</ele>
        <time>2019-05-18T17:56:04Z</time>
      </trkpt>
      <trkpt lat="45.61157" lon="2.3312">
        <ele>800</ele>
        <time>2019-05-18T17:56:05Z</time>
      </trkpt>
      <trkpt lat="45.61153" lon="2.33119">
        <ele>800</ele>
        <time>2019-05-18T17:56:06Z</time>
      </trkpt>
      <trkpt lat="45.6115" lon="2.33117">
        <ele>800</ele>
        <time>2019-05-18T17:56:07Z</time>
      </trkpt>
      <trkpt lat="45.61146" lon="2.33115">
        <ele>801</ele>
        <time>2019-05-18T17:56:08Z</time>
      </trkpt>
      <trkpt lat="45.61143" lon="2.33113">
        <ele>801</ele>
        <time>2019-05-18T17:56:09Z</time>
      </trkpt>
      <trkpt lat="45.61139" lon="2.33111">
        <ele>801</ele>
        <time>2019-05-18T17:56:10Z</time>
      </trkpt>
      <trkpt lat="45.61136" lon="2.33109">
        <ele>801</ele>
        <time>2019-05-18T17:56:11Z</time>
      </trkpt>
      <trkpt lat="45.61132" lon="2.33107">
        <ele>801</ele>
        <time>2019-05-18T17:56:12Z</time>
      </trkpt>
      <trkpt lat="45.61128" lon="2.33105">
        <ele>801</ele>
        <time>2019-05-18T17:56:13Z</time>
      </trkpt>
      <trkpt lat="45.61125" lon="2.33102">
        <ele>801</ele>
        <time>2019-05-18T17:56:14Z</time>
      </trkpt>
      <trkpt lat="45.61121" lon="2.331">
        <ele>801</ele>
        <time>2019-05-18T17:56:15Z</time>
      </trkpt>
      <trkpt lat="45.61117" lon="2.33098">
        <ele>801</ele>
        <time>2019-05-18T17:56:16Z</time>
      </trkpt>
      <trkpt lat="45.61114" lon="2.33096">
        <ele>801</ele>
        <time>2019-05-18T17:56:17Z</time>
      </trkpt>
      <trkpt lat="45.6111" lon="2.33094">
        <ele>801</ele>
        <time>2019-05-18T17:56:18Z</time>
      </trkpt>
      <trkpt lat="45.61106" lon="2.33092">
        <ele>801</ele>
        <time>2019-05-18T17:56:19Z</time>
      </trkpt>
      <trkpt lat="45.61103" lon="2.33089">
        <ele>801</ele>
        <time>2019-05-18T17:56:20Z</time>
      </trkpt>
      <trkpt lat="45.61099" lon="2.33087">
        <ele>802</ele>
        <time>2019-05-18T17:56:21Z</time>
      </trkpt>
      <trkpt lat="45.61096" lon="2.33085">
        <ele>802</ele>
        <time>2019-05-18T17:56:22Z</time>
      </trkpt>
      <trkpt lat="45.61092" lon="2.33083">
        <ele>802</ele>
        <time>2019-05-18T17:56:23Z</time>
      </trkpt>
      <trkpt lat="45.61088" lon="2.3308">
        <ele>802</ele>
        <time>2019-05-18T17:56:24Z</time>
      </trkpt>
      <trkpt lat="45.61085" lon="2.33078">
        <ele>802</ele>
        <time>2019-05-18T17:56:25Z</time>
      </trkpt>
      <trkpt lat="45.61081" lon="2.33076">
        <ele>802</ele>
        <time>2019-05-18T17:56:26Z</time>
      </trkpt>
      <trkpt lat="45.61077" lon="2.33074">
        <ele>802</ele>
        <time>2019-05-18T17:56:27Z</time>
      </trkpt>
      <trkpt lat="45.61074" lon="2.33072">
        <ele>802</ele>
        <time>2019-05-18T17:56:28Z</time>
      </trkpt>
      <trkpt lat="45.6107" lon="2.3307">
        <ele>802</ele>
        <time>2019-05-18T17:56:29Z</time>
      </trkpt>
      <trkpt lat="45.61067" lon="2.33068">
        <ele>802</ele>
        <time>2019-05-18T17:56:30Z</time>
      </trkpt>
      <trkpt lat="45.61063" lon="2.33066">
        <ele>802</ele>
        <time>2019-05-18T17:56:31Z</time>
      </trkpt>
      <trkpt lat="45.61059" lon="2.33064">
        <ele>802</ele>
        <time>2019-05-18T17:56:32Z</time>
      </trkpt>
      <trkpt lat="45.61056" lon="2.33062">
        <ele>802</ele>
        <time>2019-05-18T17:56:33Z</time>
      </trkpt>
      <trkpt lat="45.61052" lon="2.3306">
        <ele>802</ele>
        <time>2019-05-18T17:56:34Z</time>
      </trkpt>
      <trkpt lat="45.61048" lon="2.33057">
        <ele>802</ele>
        <time>2019-05-18T17:56:35Z</time>
      </trkpt>
      <trkpt lat="45.61044" lon="2.33055">
        <ele>802</ele>
        <time>2019-05-18T17:56:36Z</time>
      </trkpt>
      <trkpt lat="45.6104" lon="2.33053">
        <ele>802</ele>
        <time>2019-05-18T17:56:37Z</time>
      </trkpt>
      <trkpt lat="45.61036" lon="2.33051">
        <ele>802</ele>
        <time>2019-05-18T17:56:38Z</time>
      </trkpt>
      <trkpt lat="45.61032" lon="2.33048">
        <ele>802</ele>
        <time>2019-05-18T17:56:39Z</time>
      </trkpt>
      <trkpt lat="45.61028" lon="2.33046">
        <ele>801</ele>
        <time>2019-05-18T17:56:40Z</time>
      </trkpt>
      <trkpt lat="45.61023" lon="2.33043">
        <ele>801</ele>
        <time>2019-05-18T17:56:41Z</time>
      </trkpt>
      <trkpt lat="45.61019" lon="2.33041">
        <ele>801</ele>
        <time>2019-05-18T17:56:42Z</time>
      </trkpt>
      <trkpt lat="45.61015" lon="2.33038">
        <ele>801</ele>
        <time>2019-05-18T17:56:43Z</time>
      </trkpt>
      <trkpt lat="45.6101" lon="2.33035">
        <ele>801</ele>
        <time>2019-05-18T17:56:44Z</time>
      </trkpt>
      <trkpt lat="45.61005" lon="2.33032">
        <ele>800</ele>
        <time>2019-05-18T17:56:45Z</time>
      </trkpt>
      <trkpt lat="45.61" lon="2.33029">
        <ele>800</ele>
        <time>2019-05-18T17:56:46Z</time>
      </trkpt>
      <trkpt lat="45.60995" lon="2.33026">
        <ele>800</ele>
        <time>2019-05-18T17:56:47Z</time>
      </trkpt>
      <trkpt lat="45.60991" lon="2.33024">
        <ele>800</ele>
        <time>2019-05-18T17:56:48Z</time>
      </trkpt>
      <trkpt lat="45.60986" lon="2.33021">
        <ele>800</ele>
        <time>2019-05-18T17:56:49Z</time>
      </trkpt>
      <trkpt lat="45.6098" lon="2.33018">
        <ele>799</ele>
        <time>2019-05-18T17:56:50Z</time>
      </trkpt>
      <trkpt lat="45.60975" lon="2.33015">
        <ele>798</ele>
        <time>2019-05-18T17:56:51Z</time>
      </trkpt>
      <trkpt lat="45.6097" lon="2.33012">
        <ele>798</ele>
        <time>2019-05-18T17:56:52Z</time>
      </trkpt>
      <trkpt lat="45.60965" lon="2.33008">
        <ele>798</ele>
        <time>2019-05-18T17:56:53Z</time>
      </trkpt>
      <trkpt lat="45.60959" lon="2.33005">
        <ele>798</ele>
        <time>2019-05-18T17:56:54Z</time>
      </trkpt>
      <trkpt lat="45.60954" lon="2.33002">
        <ele>798</ele>
        <time>2019-05-18T17:56:55Z</time>
      </trkpt>
      <trkpt lat="45.60949" lon="2.32997">
        <ele>797</ele>
        <time>2019-05-18T17:56:56Z</time>
      </trkpt>
      <trkpt lat="45.60944" lon="2.32993">
        <ele>797</ele>
        <time>2019-05-18T17:56:57Z</time>
      </trkpt>
      <trkpt lat="45.60938" lon="2.32989">
        <ele>797</ele>
        <time>2019-05-18T17:56:58Z</time>
      </trkpt>
      <trkpt lat="45.60933" lon="2.32984">
        <ele>796</ele>
        <time>2019-05-18T17:56:59Z</time>
      </trkpt>
      <trkpt lat="45.60928" lon="2.3298">
        <ele>796</ele>
        <time>2019-05-18T17:57:00Z</time>
      </trkpt>
      <trkpt lat="45.60924" lon="2.32975">
        <ele>796</ele>
        <time>2019-05-18T17:57:01Z</time>
      </trkpt>
      <trkpt lat="45.60919" lon="2.3297">
        <ele>796</ele>
        <time>2019-05-18T17:57:02Z</time>
      </trkpt>
      <trkpt lat="45.60915" lon="2.32965">
        <ele>796</ele>
        <time>2019-05-18T17:57:03Z</time>
      </trkpt>
      <trkpt lat="45.6091" lon="2.3296">
        <ele>796</ele>
        <time>2019-05-18T17:57:04Z</time>
      </trkpt>
      <trkpt lat="45.60906" lon="2.32955">
        <ele>796</ele>
        <time>2019-05-18T17:57:05Z</time>
      </trkpt>
      <trkpt lat="45.60901" lon="2.32951">
        <ele>796</ele>
        <time>2019-05-18T17:57:06Z</time>
      </trkpt>
      <trkpt lat="45.60896" lon="2.32948">
        <ele>796</ele>
        <time>2019-05-18T17:57:07Z</time>
      </trkpt>
      <trkpt lat="45.6089" lon="2.32946">
        <ele>796</ele>
        <time>2019-05-18T17:57:08Z</time>
      </trkpt>
      <trkpt lat="45.60884" lon="2.32945">
        <ele>795</ele>
        <time>2019-05-18T17:57:09Z</time>
      </trkpt>
      <trkpt lat="45.60878" lon="2.32943">
        <ele>795</ele>
        <time>2019-05-18T17:57:10Z</time>
      </trkpt>
      <trkpt lat="45.60872" lon="2.32941">
        <ele>795</ele>
        <time>2019-05-18T17:57:11Z</time>
      </trkpt>
      <trkpt lat="45.60865" lon="2.3294">
        <ele>794</ele>
        <time>2019-05-18T17:57:12Z</time>
      </trkpt>
      <trkpt lat="45.6086" lon="2.32938">
        <ele>794</ele>
        <time>2019-05-18T17:57:13Z</time>
      </trkpt>
      <trkpt lat="45.60854" lon="2.32937">
        <ele>794</ele>
        <time>2019-05-18T17:57:14Z</time>
      </trkpt>
      <trkpt lat="45.60847" lon="2.32937">
        <ele>793</ele>
        <time>2019-05-18T17:57:15Z</time>
      </trkpt>
      <trkpt lat="45.60841" lon="2.32937">
        <ele>793</ele>
        <time>2019-05-18T17:57:16Z</time>
      </trkpt>
      <trkpt lat="45.60834" lon="2.32938">
        <ele>792</ele>
        <time>2019-05-18T17:57:17Z</time>
      </trkpt>
      <trkpt lat="45.60827" lon="2.32938">
        <ele>792</ele>
        <time>2019-05-18T17:57:18Z</time>
      </trkpt>
      <trkpt lat="45.6082" lon="2.3294">
        <ele>792</ele>
        <time>2019-05-18T17:57:19Z</time>
      </trkpt>
      <trkpt lat="45.60813" lon="2.32942">
        <ele>791</ele>
        <time>2019-05-18T17:57:20Z</time>
      </trkpt>
      <trkpt lat="45.60806" lon="2.32945">
        <ele>790</ele>
        <time>2019-05-18T17:57:21Z</time>
      </trkpt>
      <trkpt lat="45.60799" lon="2.32948">
        <ele>790</ele>
        <time>2019-05-18T17:57:22Z</time>
      </trkpt>
      <trkpt lat="45.60792" lon="2.32952">
        <ele>789</ele>
        <time>2019-05-18T17:57:23Z</time>
      </trkpt>
      <trkpt lat="45.60785" lon="2.32957">
        <ele>789</ele>
        <time>2019-05-18T17:57:24Z</time>
      </trkpt>
      <trkpt lat="45.60778" lon="2.32962">
        <ele>788</ele>
        <time>2019-05-18T17:57:25Z</time>
      </trkpt>
      <trkpt lat="45.60771" lon="2.32967">
        <ele>788</ele>
        <time>2019-05-18T17:57:26Z</time>
      </trkpt>
      <trkpt lat="45.60765" lon="2.32974">
        <ele>787</ele>
        <time>2019-05-18T17:57:27Z</time>
      </trkpt>
      <trkpt lat="45.60758" lon="2.32979">
        <ele>786</ele>
        <time>2019-05-18T17:57:28Z</time>
      </trkpt>
      <trkpt lat="45.60752" lon="2.32986">
        <ele>786</ele>
        <time>2019-05-18T17:57:29Z</time>
      </trkpt>
      <trkpt lat="45.60746" lon="2.32991">
        <ele>785</ele>
        <time>2019-05-18T17:57:30Z</time>
      </trkpt>
      <trkpt lat="45.60739" lon="2.32997">
        <ele>785</ele>
        <time>2019-05-18T17:57:31Z</time>
      </trkpt>
      <trkpt lat="45.60733" lon="2.33003">
        <ele>784</ele>
        <time>2019-05-18T17:57:32Z</time>
      </trkpt>
      <trkpt lat="45.60727" lon="2.33009">
        <ele>784</ele>
        <time>2019-05-18T17:57:33Z</time>
      </trkpt>
      <trkpt lat="45.60721" lon="2.33017">
        <ele>783</ele>
        <time>2019-05-18T17:57:34Z</time>
      </trkpt>
      <trkpt lat="45.60715" lon="2.33024">
        <ele>783</ele>
        <time>2019-05-18T17:57:35Z</time>
      </trkpt>
      <trkpt lat="45.6071" lon="2.33031">
        <ele>783</ele>
        <time>2019-05-18T17:57:36Z</time>
      </trkpt>
      <trkpt lat="45.60706" lon="2.33038">
        <ele>782</ele>
        <time>2019-05-18T17:57:37Z</time>
      </trkpt>
      <trkpt lat="45.607" lon="2.33046">
        <ele>782</ele>
        <time>2019-05-18T17:57:38Z</time>
      </trkpt>
      <trkpt lat="45.60696" lon="2.33053">
        <ele>782</ele>
        <time>2019-05-18T17:57:39Z</time>
      </trkpt>
      <trkpt lat="45.60692" lon="2.33059">
        <ele>782</ele>
        <time>2019-05-18T17:57:40Z</time>
      </trkpt>
      <trkpt lat="45.60689" lon="2.33065">
        <ele>782</ele>
        <time>2019-05-18T17:57:41Z</time>
      </trkpt>
      <trkpt lat="45.60686" lon="2.33071">
        <ele>782</ele>
        <time>2019-05-18T17:57:42Z</time>
      </trkpt>
      <trkpt lat="45.60683" lon="2.33076">
        <ele>782</ele>
        <time>2019-05-18T17:57:43Z</time>
      </trkpt>
      <trkpt lat="45.6068" lon="2.33081">
        <ele>782</ele>
        <time>2019-05-18T17:57:44Z</time>
      </trkpt>
      <trkpt lat="45.60677" lon="2.33086">
        <ele>782</ele>
        <time>2019-05-18T17:57:45Z</time>
      </trkpt>
      <trkpt lat="45.60674" lon="2.3309">
        <ele>782</ele>
        <time>2019-05-18T17:57:46Z</time>
      </trkpt>
      <trkpt lat="45.60672" lon="2.33094">
        <ele>782</ele>
        <time>2019-05-18T17:57:47Z</time>
      </trkpt>
      <trkpt lat="45.60669" lon="2.33099">
        <ele>781</ele>
        <time>2019-05-18T17:57:48Z</time>
      </trkpt>
      <trkpt lat="45.60666" lon="2.33103">
        <ele>781</ele>
        <time>2019-05-18T17:57:49Z</time>
      </trkpt>
      <trkpt lat="45.60664" lon="2.33108">
        <ele>781</ele>
        <time>2019-05-18T17:57:50Z</time>
      </trkpt>
      <trkpt lat="45.60662" lon="2.33112">
        <ele>781</ele>
        <time>2019-05-18T17:57:51Z</time>
      </trkpt>
      <trkpt lat="45.60659" lon="2.33116">
        <ele>781</ele>
        <time>2019-05-18T17:57:52Z</time>
      </trkpt>
      <trkpt lat="45.60657" lon="2.33121">
        <ele>781</ele>
        <time>2019-05-18T17:57:53Z</time>
      </trkpt>
      <trkpt lat="45.60654" lon="2.33125">
        <ele>781</ele>
        <time>2019-05-18T17:57:54Z</time>
      </trkpt>
      <trkpt lat="45.60652" lon="2.33129">
        <ele>781</ele>
        <time>2019-05-18T17:57:55Z</time>
      </trkpt>
      <trkpt lat="45.6065" lon="2.33132">
        <ele>781</ele>
        <time>2019-05-18T17:57:56Z</time>
      </trkpt>
      <trkpt lat="45.60647" lon="2.33136">
        <ele>781</ele>
        <time>2019-05-18T17:57:57Z</time>
      </trkpt>
      <trkpt lat="45.60645" lon="2.3314">
        <ele>781</ele>
        <time>2019-05-18T17:57:58Z</time>
      </trkpt>
      <trkpt lat="45.60643" lon="2.33145">
        <ele>781</ele>
        <time>2019-05-18T17:57:59Z</time>
      </trkpt>
      <trkpt lat="45.60641" lon="2.33149">
        <ele>781</ele>
        <time>2019-05-18T17:58:00Z</time>
      </trkpt>
      <trkpt lat="45.60638" lon="2.33153">
        <ele>781</ele>
        <time>2019-05-18T17:58:01Z</time>
      </trkpt>
      <trkpt lat="45.60636" lon="2.33157">
        <ele>781</ele>
        <time>2019-05-18T17:58:02Z</time>
      </trkpt>
      <trkpt lat="45.60633" lon="2.33161">
        <ele>780</ele>
        <time>2019-05-18T17:58:03Z</time>
      </trkpt>
      <trkpt lat="45.6063" lon="2.33166">
        <ele>780</ele>
        <time>2019-05-18T17:58:04Z</time>
      </trkpt>
      <trkpt lat="45.60626" lon="2.33171">
        <ele>780</ele>
        <time>2019-05-18T17:58:05Z</time>
      </trkpt>
      <trkpt lat="45.60623" lon="2.33177">
        <ele>780</ele>
        <time>2019-05-18T17:58:06Z</time>
      </trkpt>
      <trkpt lat="45.60619" lon="2.33183">
        <ele>779</ele>
        <time>2019-05-18T17:58:07Z</time>
      </trkpt>
      <trkpt lat="45.60615" lon="2.3319">
        <ele>779</ele>
        <time>2019-05-18T17:58:08Z</time>
      </trkpt>
      <trkpt lat="45.60611" lon="2.33197">
        <ele>778</ele>
        <time>2019-05-18T17:58:09Z</time>
      </trkpt>
      <trkpt lat="45.60607" lon="2.33205">
        <ele>778</ele>
        <time>2019-05-18T17:58:10Z</time>
      </trkpt>
      <trkpt lat="45.60602" lon="2.33214">
        <ele>777</ele>
        <time>2019-05-18T17:58:11Z</time>
      </trkpt>
      <trkpt lat="45.60598" lon="2.33222">
        <ele>776</ele>
        <time>2019-05-18T17:58:12Z</time>
      </trkpt>
      <trkpt lat="45.60593" lon="2.33232">
        <ele>776</ele>
        <time>2019-05-18T17:58:13Z</time>
      </trkpt>
      <trkpt lat="45.60588" lon="2.3324">
        <ele>775</ele>
        <time>2019-05-18T17:58:14Z</time>
      </trkpt>
      <trkpt lat="45.60584" lon="2.33249">
        <ele>775</ele>
        <time>2019-05-18T17:58:15Z</time>
      </trkpt>
      <trkpt lat="45.60579" lon="2.33258">
        <ele>774</ele>
        <time>2019-05-18T17:58:16Z</time>
      </trkpt>
      <trkpt lat="45.60575" lon="2.33265">
        <ele>774</ele>
        <time>2019-05-18T17:58:17Z</time>
      </trkpt>
      <trkpt lat="45.6057" lon="2.33273">
        <ele>773</ele>
        <time>2019-05-18T17:58:18Z</time>
      </trkpt>
      <trkpt lat="45.60566" lon="2.3328">
        <ele>773</ele>
        <time>2019-05-18T17:58:19Z</time>
      </trkpt>
      <trkpt lat="45.60562" lon="2.33287">
        <ele>773</ele>
        <time>2019-05-18T17:58:20Z</time>
      </trkpt>
      <trkpt lat="45.60558" lon="2.33294">
        <ele>773</ele>
        <time>2019-05-18T17:58:21Z</time>
      </trkpt>
      <trkpt lat="45.60555" lon="2.333">
        <ele>773</ele>
        <time>2019-05-18T17:58:22Z</time>
      </trkpt>
      <trkpt lat="45.60551" lon="2.33307">
        <ele>773</ele>
        <time>2019-05-18T17:58:23Z</time>
      </trkpt>
      <trkpt lat="45.60548" lon="2.33313">
        <ele>773</ele>
        <time>2019-05-18T17:58:24Z</time>
      </trkpt>
      <trkpt lat="45.60545" lon="2.33319">
        <ele>773</ele>
        <time>2019-05-18T17:58:25Z</time>
      </trkpt>
      <trkpt lat="45.60541" lon="2.33325">
        <ele>773</ele>
        <time>2019-05-18T17:58:26Z</time>
      </trkpt>
      <trkpt lat="45.60538" lon="2.3333">
        <ele>772</ele>
        <time>2019-05-18T17:58:27Z</time>
      </trkpt>
      <trkpt lat="45.60535" lon="2.33336">
        <ele>772</ele>
        <time>2019-05-18T17:58:28Z</time>
      </trkpt>
      <trkpt lat="45.60531" lon="2.33342">
        <ele>772</ele>
        <time>2019-05-18T17:58:29Z</time>
      </trkpt>
      <trkpt lat="45.60527" lon="2.33348">
        <ele>772</ele>
        <time>2019-05-18T17:58:30Z</time>
      </trkpt>
      <trkpt lat="45.60523" lon="2.33355">
        <ele>771</ele>
        <time>2019-05-18T17:58:31Z</time>
      </trkpt>
      <trkpt lat="45.60519" lon="2.33361">
        <ele>771</ele>
        <time>2019-05-18T17:58:32Z</time>
      </trkpt>
      <trkpt lat="45.60515" lon="2.33367">
        <ele>770</ele>
        <time>2019-05-18T17:58:33Z</time>
      </trkpt>
      <trkpt lat="45.60511" lon="2.33374">
        <ele>770</ele>
        <time>2019-05-18T17:58:34Z</time>
      </trkpt>
      <trkpt lat="45.60507" lon="2.3338">
        <ele>770</ele>
        <time>2019-05-18T17:58:35Z</time>
      </trkpt>
      <trkpt lat="45.60502" lon="2.33386">
        <ele>769</ele>
        <time>2019-05-18T17:58:36Z</time>
      </trkpt>
      <trkpt lat="45.60497" lon="2.33392">
        <ele>769</ele>
        <time>2019-05-18T17:58:37Z</time>
      </trkpt>
      <trkpt lat="45.60492" lon="2.33397">
        <ele>768</ele>
        <time>2019-05-18T17:58:38Z</time>
      </trkpt>
      <trkpt lat="45.60487" lon="2.33402">
        <ele>767</ele>
        <time>2019-05-18T17:58:39Z</time>
      </trkpt>
      <trkpt lat="45.60481" lon="2.33407">
        <ele>767</ele>
        <time>2019-05-18T17:58:40Z</time>
      </trkpt>
      <trkpt lat="45.60476" lon="2.33411">
        <ele>766</ele>
        <time>2019-05-18T17:58:41Z</time>
      </trkpt>
      <trkpt lat="45.6047" lon="2.33416">
        <ele>765</ele>
        <time>2019-05-18T17:58:42Z</time>
      </trkpt>
      <trkpt lat="45.60464" lon="2.33421">
        <ele>765</ele>
        <time>2019-05-18T17:58:43Z</time>
      </trkpt>
      <trkpt lat="45.60458" lon="2.33424">
        <ele>764</ele>
        <time>2019-05-18T17:58:44Z</time>
      </trkpt>
      <trkpt lat="45.60451" lon="2.33427">
        <ele>763</ele>
        <time>2019-05-18T17:58:45Z</time>
      </trkpt>
      <trkpt lat="45.60443" lon="2.33429">
        <ele>763</ele>
        <time>2019-05-18T17:58:46Z</time>
      </trkpt>
      <trkpt lat="45.60436" lon="2.3343">
        <ele>762</ele>
        <time>2019-05-18T17:58:47Z</time>
      </trkpt>
      <trkpt lat="45.60428" lon="2.3343">
        <ele>762</ele>
        <time>2019-05-18T17:58:48Z</time>
      </trkpt>
      <trkpt lat="45.60421" lon="2.3343">
        <ele>761</ele>
        <time>2019-05-18T17:58:49Z</time>
      </trkpt>
      <trkpt lat="45.60414" lon="2.33429">
        <ele>761</ele>
        <time>2019-05-18T17:58:50Z</time>
      </trkpt>
      <trkpt lat="45.60407" lon="2.3343">
        <ele>760</ele>
        <time>2019-05-18T17:58:51Z</time>
      </trkpt>
      <trkpt lat="45.604" lon="2.3343">
        <ele>760</ele>
        <time>2019-05-18T17:58:52Z</time>
      </trkpt>
      <trkpt lat="45.60394" lon="2.33431">
        <ele>760</ele>
        <time>2019-05-18T17:58:53Z</time>
      </trkpt>
      <trkpt lat="45.60388" lon="2.33431">
        <ele>760</ele>
        <time>2019-05-18T17:58:54Z</time>
      </trkpt>
      <trkpt lat="45.60382" lon="2.33431">
        <ele>759</ele>
        <time>2019-05-18T17:58:55Z</time>
      </trkpt>
      <trkpt lat="45.60376" lon="2.3343">
        <ele>759</ele>
        <time>2019-05-18T17:58:56Z</time>
      </trkpt>
      <trkpt lat="45.60371" lon="2.33428">
        <ele>759</ele>
        <time>2019-05-18T17:58:57Z</time>
      </trkpt>
      <trkpt lat="45.60365" lon="2.33427">
        <ele>759</ele>
        <time>2019-05-18T17:58:58Z</time>
      </trkpt>
      <trkpt lat="45.60359" lon="2.33427">
        <ele>758</ele>
        <time>2019-05-18T17:58:59Z</time>
      </trkpt>
      <trkpt lat="45.60354" lon="2.33427">
        <ele>758</ele>
        <time>2019-05-18T17:59:00Z</time>
      </trkpt>
      <trkpt lat="45.60349" lon="2.33427">
        <ele>758</ele>
        <time>2019-05-18T17:59:01Z</time>
      </trkpt>
      <trkpt lat="45.60344" lon="2.33427">
        <ele>758</ele>
        <time>2019-05-18T17:59:02Z</time>
      </trkpt>
      <trkpt lat="45.60339" lon="2.33428">
        <ele>758</ele>
        <time>2019-05-18T17:59:03Z</time>
      </trkpt>
      <trkpt lat="45.60334" lon="2.33428">
        <ele>758</ele>
        <time>2019-05-18T17:59:04Z</time>
      </trkpt>
      <trkpt lat="45.60329" lon="2.33428">
        <ele>758</ele>
        <time>2019-05-18T17:59:05Z</time>
      </trkpt>
      <trkpt lat="45.60324" lon="2.33428">
        <ele>758</ele>
        <time>2019-05-18T17:59:06Z</time>
      </trkpt>
      <trkpt lat="45.60319" lon="2.33428">
        <ele>757</ele>
        <time>2019-05-18T17:59:07Z</time>
      </trkpt>
      <trkpt lat="45.60314" lon="2.33428">
        <ele>757</ele>
        <time>2019-05-18T17:59:08Z</time>
      </trkpt>
      <trkpt lat="45.6031" lon="2.33428">
        <ele>757</ele>
        <time>2019-05-18T17:59:09Z</time>
      </trkpt>
      <trkpt lat="45.60305" lon="2.33428">
        <ele>757</ele>
        <time>2019-05-18T17:59:10Z</time>
      </trkpt>
      <trkpt lat="45.60301" lon="2.33428">
        <ele>757</ele>
        <time>2019-05-18T17:59:11Z</time>
      </trkpt>
      <trkpt lat="45.60296" lon="2.33428">
        <ele>757</ele>
        <time>2019-05-18T17:59:12Z</time>
      </trkpt>
      <trkpt lat="45.60292" lon="2.33428">
        <ele>757</ele>
        <time>2019-05-18T17:59:13Z</time>
      </trkpt>
      <trkpt lat="45.60288" lon="2.33427">
        <ele>757</ele>
        <time>2019-05-18T17:59:14Z</time>
      </trkpt>
      <trkpt lat="45.60283" lon="2.33427">
        <ele>757</ele>
        <time>2019-05-18T17:59:15Z</time>
      </trkpt>
      <trkpt lat="45.60279" lon="2.33428">
        <ele>757</ele>
        <time>2019-05-18T17:59:16Z</time>
      </trkpt>
      <trkpt lat="45.60275" lon="2.33429">
        <ele>757</ele>
        <time>2019-05-18T17:59:17Z</time>
      </trkpt>
      <trkpt lat="45.60271" lon="2.3343">
        <ele>757</ele>
        <time>2019-05-18T17:59:18Z</time>
      </trkpt>
      <trkpt lat="45.60267" lon="2.3343">
        <ele>757</ele>
        <time>2019-05-18T17:59:19Z</time>
      </trkpt>
      <trkpt lat="45.60263" lon="2.3343">
        <ele>757</ele>
        <time>2019-05-18T17:59:20Z</time>
      </trkpt>
      <trkpt lat="45.60259" lon="2.33429">
        <ele>757</ele>
        <time>2019-05-18T17:59:21Z</time>
      </trkpt>
      <trkpt lat="45.60255" lon="2.33429">
        <ele>757</ele>
        <time>2019-05-18T17:59:22Z</time>
      </trkpt>
      <trkpt lat="45.60251" lon="2.33429">
        <ele>757</ele>
        <time>2019-05-18T17:59:23Z</time>
      </trkpt>
      <trkpt lat="45.60247" lon="2.33429">
        <ele>757</ele>
        <time>2019-05-18T17:59:24Z</time>
      </trkpt>
      <trkpt lat="45.60243" lon="2.33429">
        <ele>757</ele>
        <time>2019-05-18T17:59:25Z</time>
      </trkpt>
      <trkpt lat="45.60239" lon="2.33429">
        <ele>757</ele>
        <time>2019-05-18T17:59:26Z</time>
      </trkpt>
      <trkpt lat="45.60235" lon="2.33429">
        <ele>757</ele>
        <time>2019-05-18T17:59:27Z</time>
      </trkpt>
      <trkpt lat="45.60231" lon="2.33429">
        <ele>756</ele>
        <time>2019-05-18T17:59:28Z</time>
      </trkpt>
      <trkpt lat="45.60227" lon="2.3343">
        <ele>757</ele>
        <time>2019-05-18T17:59:29Z</time>
      </trkpt>
      <trkpt lat="45.60224" lon="2.3343">
        <ele>757</ele>
        <time>2019-05-18T17:59:30Z</time>
      </trkpt>
      <trkpt lat="45.6022" lon="2.33431">
        <ele>757</ele>
        <time>2019-05-18T17:59:31Z</time>
      </trkpt>
      <trkpt lat="45.60216" lon="2.33431">
        <ele>757</ele>
        <time>2019-05-18T17:59:32Z</time>
      </trkpt>
      <trkpt lat="45.60212" lon="2.33431">
        <ele>757</ele>
        <time>2019-05-18T17:59:33Z</time>
      </trkpt>
      <trkpt lat="45.60208" lon="2.33431">
        <ele>757</ele>
        <time>2019-05-18T17:59:34Z</time>
      </trkpt>
      <trkpt lat="45.60205" lon="2.33432">
        <ele>757</ele>
        <time>2019-05-18T17:59:35Z</time>
      </trkpt>
      <trkpt lat="45.60201" lon="2.33432">
        <ele>757</ele>
        <time>2019-05-18T17:59:36Z</time>
      </trkpt>
      <trkpt lat="45.60197" lon="2.33433">
        <ele>757</ele>
        <time>2019-05-18T17:59:37Z</time>
      </trkpt>
      <trkpt lat="45.60193" lon="2.33433">
        <ele>757</ele>
        <time>2019-05-18T17:59:38Z</time>
      </trkpt>
      <trkpt lat="45.60189" lon="2.33434">
        <ele>757</ele>
        <time>2019-05-18T17:59:39Z</time>
      </trkpt>
      <trkpt lat="45.60185" lon="2.33434">
        <ele>757</ele>
        <time>2019-05-18T17:59:40Z</time>
      </trkpt>
      <trkpt lat="45.60181" lon="2.33435">
        <ele>757</ele>
        <time>2019-05-18T17:59:41Z</time>
      </trkpt>
      <trkpt lat="45.60178" lon="2.33436">
        <ele>757</ele>
        <time>2019-05-18T17:59:42Z</time>
      </trkpt>
      <trkpt lat="45.60174" lon="2.33436">
        <ele>757</ele>
        <time>2019-05-18T17:59:43Z</time>
      </trkpt>
      <trkpt lat="45.60171" lon="2.33437">
        <ele>757</ele>
        <time>2019-05-18T17:59:44Z</time>
      </trkpt>
      <trkpt lat="45.60167" lon="2.33438">
        <ele>757</ele>
        <time>2019-05-18T17:59:45Z</time>
      </trkpt>
      <trkpt lat="45.60163" lon="2.33439">
        <ele>757</ele>
        <time>2019-05-18T17:59:46Z</time>
      </trkpt>
      <trkpt lat="45.60159" lon="2.3344">
        <ele>756</ele>
        <time>2019-05-18T17:59:47Z</time>
      </trkpt>
      <trkpt lat="45.60155" lon="2.33441">
        <ele>756</ele>
        <time>2019-05-18T17:59:48Z</time>
      </trkpt>
      <trkpt lat="45.6015" lon="2.33442">
        <ele>756</ele>
        <time>2019-05-18T17:59:49Z</time>
      </trkpt>
      <trkpt lat="45.60146" lon="2.33443">
        <ele>755</ele>
        <time>2019-05-18T17:59:50Z</time>
      </trkpt>
      <trkpt lat="45.60141" lon="2.33444">
        <ele>755</ele>
        <time>2019-05-18T17:59:51Z</time>
      </trkpt>
      <trkpt lat="45.60137" lon="2.33445">
        <ele>755</ele>
        <time>2019-05-18T17:59:52Z</time>
      </trkpt>
      <trkpt lat="45.60132" lon="2.33446">
        <ele>755</ele>
        <time>2019-05-18T17:59:53Z</time>
      </trkpt>
      <trkpt lat="45.60128" lon="2.33447">
        <ele>755</ele>
        <time>2019-05-18T17:59:54Z</time>
      </trkpt>
      <trkpt lat="45.60124" lon="2.33447">
        <ele>755</ele>
        <time>2019-05-18T17:59:55Z</time>
      </trkpt>
      <trkpt lat="45.6012" lon="2.33447">
        <ele>754</ele>
        <time>2019-05-18T17:59:56Z</time>
      </trkpt>
      <trkpt lat="45.60116" lon="2.33447">
        <ele>754</ele>
        <time>2019-05-18T17:59:57Z</time>
      </trkpt>
      <trkpt lat="45.60112" lon="2.33447">
        <ele>755</ele>
        <time>2019-05-18T17:59:58Z</time>
      </trkpt>
      <trkpt lat="45.60109" lon="2.33447">
        <ele>755</ele>
        <time>2019-05-18T17:59:59Z</time>
      </trkpt>
      <trkpt lat="45.60106" lon="2.33447">
        <ele>755</ele>
        <time>2019-05-18T18:00:00Z</time>
      </trkpt>
      <trkpt lat="45.60103" lon="2.33447">
        <ele>755</ele>
        <time>2019-05-18T18:00:01Z</time>
      </trkpt>
      <trkpt lat="45.601" lon="2.33448">
        <ele>755</ele>
        <time>2019-05-18T18:00:02Z</time>
      </trkpt>
      <trkpt lat="45.60097" lon="2.33448">
        <ele>755</ele>
        <time>2019-05-18T18:00:03Z</time>
      </trkpt>
      <trkpt lat="45.60094" lon="2.33448">
        <ele>755</ele>
        <time>2019-05-18T18:00:04Z</time>
      </trkpt>
      <trkpt lat="45.60091" lon="2.33449">
        <ele>755</ele>
        <time>2019-05-18T18:00:05Z</time>
      </trkpt>
      <trkpt lat="45.60088" lon="2.33449">
        <ele>755</ele>
        <time>2019-05-18T18:00:06Z</time>
      </trkpt>
      <trkpt lat="45.60086" lon="2.33449">
        <ele>755</ele>
        <time>2019-05-18T18:00:07Z</time>
      </trkpt>
      <trkpt lat="45.60083" lon="2.3345">
        <ele>755</ele>
        <time>2019-05-18T18:00:08Z</time>
      </trkpt>
      <trkpt lat="45.60081" lon="2.33451">
        <ele>755</ele>
        <time>2019-05-18T18:00:09Z</time>
      </trkpt>
      <trkpt lat="45.60078" lon="2.33451">
        <ele>755</ele>
        <time>2019-05-18T18:00:10Z</time>
      </trkpt>
      <trkpt lat="45.60075" lon="2.33451">
        <ele>755</ele>
        <time>2019-05-18T18:00:11Z</time>
      </trkpt>
      <trkpt lat="45.60072" lon="2.33452">
        <ele>755</ele>
        <time>2019-05-18T18:00:12Z</time>
      </trkpt>
      <trkpt lat="45.60069" lon="2.33453">
        <ele>755</ele>
        <time>2019-05-18T18:00:13Z</time>
      </trkpt>
      <trkpt lat="45.60067" lon="2.33453">
        <ele>755</ele>
        <time>2019-05-18T18:00:14Z</time>
      </trkpt>
      <trkpt lat="45.60065" lon="2.33453">
        <ele>755</ele>
        <time>2019-05-18T18:00:15Z</time>
      </trkpt>
      <trkpt lat="45.60062" lon="2.33454">
        <ele>755</ele>
        <time>2019-05-18T18:00:16Z</time>
      </trkpt>
      <trkpt lat="45.60059" lon="2.33455">
        <ele>755</ele>
        <time>2019-05-18T18:00:17Z</time>
      </trkpt>
      <trkpt lat="45.60055" lon="2.33456">
        <ele>754</ele>
        <time>2019-05-18T18:00:18Z</time>
      </trkpt>
      <trkpt lat="45.60051" lon="2.33457">
        <ele>754</ele>
        <time>2019-05-18T18:00:19Z</time>
      </trkpt>
      <trkpt lat="45.60046" lon="2.33457">
        <ele>754</ele>
        <time>2019-05-18T18:00:20Z</time>
      </trkpt>
      <trkpt lat="45.60041" lon="2.33457">
        <ele>753</ele>
        <time>2019-05-18T18:00:21Z</time>
      </trkpt>
      <trkpt lat="45.60036" lon="2.33457">
        <ele>753</ele>
        <time>2019-05-18T18:00:22Z</time>
      </trkpt>
      <trkpt lat="45.6003" lon="2.33456">
        <ele>753</ele>
        <time>2019-05-18T18:00:23Z</time>
      </trkpt>
      <trkpt lat="45.60024" lon="2.33456">
        <ele>752</ele>
        <time>2019-05-18T18:00:24Z</time>
      </trkpt>
      <trkpt lat="45.60018" lon="2.33456">
        <ele>751</ele>
        <time>2019-05-18T18:00:25Z</time>
      </trkpt>
      <trkpt lat="45.60011" lon="2.33457">
        <ele>750</ele>
        <time>2019-05-18T18:00:26Z</time>
      </trkpt>
      <trkpt lat="45.60003" lon="2.33458">
        <ele>750</ele>
        <time>2019-05-18T18:00:27Z</time>
      </trkpt>
      <trkpt lat="45.59995" lon="2.33459">
        <ele>749</ele>
        <time>2019-05-18T18:00:28Z</time>
      </trkpt>
      <trkpt lat="45.59988" lon="2.3346">
        <ele>749</ele>
        <time>2019-05-18T18:00:29Z</time>
      </trkpt>
      <trkpt lat="45.5998" lon="2.33461">
        <ele>748</ele>
        <time>2019-05-18T18:00:30Z</time>
      </trkpt>
      <trkpt lat="45.59972" lon="2.33463">
        <ele>748</ele>
        <time>2019-05-18T18:00:31Z</time>
      </trkpt>
      <trkpt lat="45.59965" lon="2.33464">
        <ele>748</ele>
        <time>2019-05-18T18:00:32Z</time>
      </trkpt>
      <trkpt lat="45.59958" lon="2.33466">
        <ele>747</ele>
        <time>2019-05-18T18:00:33Z</time>
      </trkpt>
      <trkpt lat="45.5995" lon="2.33468">
        <ele>747</ele>
        <time>2019-05-18T18:00:34Z</time>
      </trkpt>
      <trkpt lat="45.59943" lon="2.3347">
        <ele>747</ele>
        <time>2019-05-18T18:00:35Z</time>
      </trkpt>
      <trkpt lat="45.59936" lon="2.33472">
        <ele>746</ele>
        <time>2019-05-18T18:00:36Z</time>
      </trkpt>
      <trkpt lat="45.59929" lon="2.33474">
        <ele>745</ele>
        <time>2019-05-18T18:00:37Z</time>
      </trkpt>
      <trkpt lat="45.59922" lon="2.33476">
        <ele>745</ele>
        <time>2019-05-18T18:00:38Z</time>
      </trkpt>
      <trkpt lat="45.59917" lon="2.33477">
        <ele>745</ele>
        <time>2019-05-18T18:00:39Z</time>
      </trkpt>
      <trkpt lat="45.59911" lon="2.33478">
        <ele>744</ele>
        <time>2019-05-18T18:00:40Z</time>
      </trkpt>
      <trkpt lat="45.59906" lon="2.33479">
        <ele>744</ele>
        <time>2019-05-18T18:00:41Z</time>
      </trkpt>
      <trkpt lat="45.599" lon="2.3348">
        <ele>743</ele>
        <time>2019-05-18T18:00:42Z</time>
      </trkpt>
      <trkpt lat="45.59894" lon="2.33481">
        <ele>743</ele>
        <time>2019-05-18T18:00:43Z</time>
      </trkpt>
      <trkpt lat="45.59888" lon="2.33481">
        <ele>742</ele>
        <time>2019-05-18T18:00:44Z</time>
      </trkpt>
      <trkpt lat="45.59882" lon="2.33481">
        <ele>742</ele>
        <time>2019-05-18T18:00:45Z</time>
      </trkpt>
      <trkpt lat="45.59875" lon="2.33482">
        <ele>741</ele>
        <time>2019-05-18T18:00:46Z</time>
      </trkpt>
      <trkpt lat="45.59868" lon="2.33483">
        <ele>740</ele>
        <time>2019-05-18T18:00:47Z</time>
      </trkpt>
      <trkpt lat="45.5986" lon="2.33483">
        <ele>739</ele>
        <time>2019-05-18T18:00:48Z</time>
      </trkpt>
      <trkpt lat="45.59852" lon="2.33485">
        <ele>739</ele>
        <time>2019-05-18T18:00:49Z</time>
      </trkpt>
      <trkpt lat="45.59844" lon="2.33485">
        <ele>738</ele>
        <time>2019-05-18T18:00:50Z</time>
      </trkpt>
      <trkpt lat="45.59836" lon="2.33487">
        <ele>738</ele>
        <time>2019-05-18T18:00:51Z</time>
      </trkpt>
      <trkpt lat="45.59829" lon="2.33488">
        <ele>737</ele>
        <time>2019-05-18T18:00:52Z</time>
      </trkpt>
      <trkpt lat="45.5982" lon="2.33488">
        <ele>737</ele>
        <time>2019-05-18T18:00:53Z</time>
      </trkpt>
      <trkpt lat="45.59813" lon="2.33488">
        <ele>736</ele>
        <time>2019-05-18T18:00:54Z</time>
      </trkpt>
      <trkpt lat="45.59804" lon="2.33489">
        <ele>736</ele>
        <time>2019-05-18T18:00:55Z</time>
      </trkpt>
      <trkpt lat="45.59796" lon="2.33491">
        <ele>735</ele>
        <time>2019-05-18T18:00:56Z</time>
      </trkpt>
      <trkpt lat="45.59788" lon="2.33492">
        <ele>735</ele>
        <time>2019-05-18T18:00:57Z</time>
      </trkpt>
      <trkpt lat="45.5978" lon="2.33493">
        <ele>735</ele>
        <time>2019-05-18T18:00:58Z</time>
      </trkpt>
      <trkpt lat="45.59773" lon="2.33496">
        <ele>735</ele>
        <time>2019-05-18T18:00:59Z</time>
      </trkpt>
      <trkpt lat="45.59767" lon="2.33499">
        <ele>735</ele>
        <time>2019-05-18T18:01:00Z</time>
      </trkpt>
      <trkpt lat="45.59762" lon="2.33503">
        <ele>735</ele>
        <time>2019-05-18T18:01:01Z</time>
      </trkpt>
      <trkpt lat="45.59756" lon="2.33508">
        <ele>735</ele>
        <time>2019-05-18T18:01:02Z</time>
      </trkpt>
      <trkpt lat="45.5975" lon="2.33512">
        <ele>735</ele>
        <time>2019-05-18T18:01:03Z</time>
      </trkpt>
      <trkpt lat="45.59744" lon="2.33515">
        <ele>735</ele>
        <time>2019-05-18T18:01:04Z</time>
      </trkpt>
      <trkpt lat="45.59738" lon="2.33517">
        <ele>735</ele>
        <time>2019-05-18T18:01:05Z</time>
      </trkpt>
      <trkpt lat="45.59733" lon="2.3352">
        <ele>735</ele>
        <time>2019-05-18T18:01:06Z</time>
      </trkpt>
      <trkpt lat="45.59728" lon="2.33522">
        <ele>735</ele>
        <time>2019-05-18T18:01:07Z</time>
      </trkpt>
      <trkpt lat="45.59723" lon="2.33523">
        <ele>735</ele>
        <time>2019-05-18T18:01:08Z</time>
      </trkpt>
      <trkpt lat="45.59719" lon="2.33523">
        <ele>736</ele>
        <time>2019-05-18T18:01:09Z</time>
      </trkpt>
      <trkpt lat="45.59716" lon="2.33524">
        <ele>736</ele>
        <time>2019-05-18T18:01:10Z</time>
      </trkpt>
      <trkpt lat="45.59712" lon="2.33526">
        <ele>736</ele>
        <time>2019-05-18T18:01:11Z</time>
      </trkpt>
      <trkpt lat="45.59709" lon="2.33527">
        <ele>736</ele>
        <time>2019-05-18T18:01:12Z</time>
      </trkpt>
      <trkpt lat="45.59706" lon="2.33529">
        <ele>736</ele>
        <time>2019-05-18T18:01:13Z</time>
      </trkpt>
      <trkpt lat="45.59704" lon="2.3353">
        <ele>737</ele>
        <time>2019-05-18T18:01:14Z</time>
      </trkpt>
      <trkpt lat="45.59701" lon="2.33531">
        <ele>737</ele>
        <time>2019-05-18T18:01:15Z</time>
      </trkpt>
      <trkpt lat="45.59698" lon="2.33532">
        <ele>737</ele>
        <time>2019-05-18T18:01:16Z</time>
      </trkpt>
      <trkpt lat="45.59696" lon="2.33534">
        <ele>737</ele>
        <time>2019-05-18T18:01:17Z</time>
      </trkpt>
      <trkpt lat="45.59693" lon="2.33535">
        <ele>738</ele>
        <time>2019-05-18T18:01:18Z</time>
      </trkpt>
      <trkpt lat="45.59691" lon="2.33536">
        <ele>738</ele>
        <time>2019-05-18T18:01:19Z</time>
      </trkpt>
      <trkpt lat="45.59689" lon="2.33537">
        <ele>738</ele>
        <time>2019-05-18T18:01:20Z</time>
      </trkpt>
      <trkpt lat="45.59686" lon="2.33538">
        <ele>738</ele>
        <time>2019-05-18T18:01:21Z</time>
      </trkpt>
      <trkpt lat="45.59684" lon="2.33539">
        <ele>739</ele>
        <time>2019-05-18T18:01:22Z</time>
      </trkpt>
      <trkpt lat="45.59682" lon="2.3354">
        <ele>739</ele>
        <time>2019-05-18T18:01:23Z</time>
      </trkpt>
      <trkpt lat="45.59679" lon="2.33542">
        <ele>739</ele>
        <time>2019-05-18T18:01:24Z</time>
      </trkpt>
      <trkpt lat="45.59677" lon="2.33543">
        <ele>739</ele>
        <time>2019-05-18T18:01:25Z</time>
      </trkpt>
      <trkpt lat="45.59675" lon="2.33544">
        <ele>739</ele>
        <time>2019-05-18T18:01:26Z</time>
      </trkpt>
      <trkpt lat="45.59673" lon="2.33545">
        <ele>740</ele>
        <time>2019-05-18T18:01:27Z</time>
      </trkpt>
      <trkpt lat="45.59671" lon="2.33546">
        <ele>740</ele>
        <time>2019-05-18T18:01:28Z</time>
      </trkpt>
      <trkpt lat="45.59669" lon="2.33547">
        <ele>740</ele>
        <time>2019-05-18T18:01:29Z</time>
      </trkpt>
      <trkpt lat="45.59667" lon="2.33547">
        <ele>740</ele>
        <time>2019-05-18T18:01:30Z</time>
      </trkpt>
      <trkpt lat="45.59665" lon="2.33548">
        <ele>741</ele>
        <time>2019-05-18T18:01:31Z</time>
      </trkpt>
      <trkpt lat="45.59663" lon="2.33549">
        <ele>741</ele>
        <time>2019-05-18T18:01:32Z</time>
      </trkpt>
      <trkpt lat="45.59661" lon="2.3355">
        <ele>741</ele>
        <time>2019-05-18T18:01:33Z</time>
      </trkpt>
      <trkpt lat="45.59659" lon="2.33551">
        <ele>742</ele>
        <time>2019-05-18T18:01:34Z</time>
      </trkpt>
      <trkpt lat="45.59658" lon="2.33552">
        <ele>742</ele>
        <time>2019-05-18T18:01:35Z</time>
      </trkpt>
      <trkpt lat="45.59656" lon="2.33553">
        <ele>742</ele>
        <time>2019-05-18T18:01:36Z</time>
      </trkpt>
      <trkpt lat="45.59654" lon="2.33554">
        <ele>742</ele>
        <time>2019-05-18T18:01:37Z</time>
      </trkpt>
      <trkpt lat="45.59652" lon="2.33555">
        <ele>743</ele>
        <time>2019-05-18T18:01:38Z</time>
      </trkpt>
      <trkpt lat="45.5965" lon="2.33556">
        <ele>743</ele>
        <time>2019-05-18T18:01:39Z</time>
      </trkpt>
      <trkpt lat="45.59649" lon="2.33557">
        <ele>743</ele>
        <time>2019-05-18T18:01:40Z</time>
      </trkpt>
      <trkpt lat="45.59647" lon="2.33558">
        <ele>743</ele>
        <time>2019-05-18T18:01:41Z</time>
      </trkpt>
      <trkpt lat="45.59645" lon="2.33559">
        <ele>744</ele>
        <time>2019-05-18T18:01:42Z</time>
      </trkpt>
      <trkpt lat="45.59643" lon="2.3356">
        <ele>744</ele>
        <time>2019-05-18T18:01:43Z</time>
      </trkpt>
      <trkpt lat="45.59641" lon="2.33561">
        <ele>744</ele>
        <time>2019-05-18T18:01:44Z</time>
      </trkpt>
      <trkpt lat="45.5964" lon="2.33562">
        <ele>744</ele>
        <time>2019-05-18T18:01:45Z</time>
      </trkpt>
      <trkpt lat="45.59638" lon="2.33563">
        <ele>745</ele>
        <time>2019-05-18T18:01:46Z</time>
      </trkpt>
      <trkpt lat="45.59636" lon="2.33564">
        <ele>745</ele>
        <time>2019-05-18T18:01:47Z</time>
      </trkpt>
      <trkpt lat="45.59635" lon="2.33565">
        <ele>745</ele>
        <time>2019-05-18T18:01:48Z</time>
      </trkpt>
      <trkpt lat="45.59633" lon="2.33567">
        <ele>745</ele>
        <time>2019-05-18T18:01:49Z</time>
      </trkpt>
      <trkpt lat="45.59632" lon="2.33568">
        <ele>745</ele>
        <time>2019-05-18T18:01:50Z</time>
      </trkpt>
      <trkpt lat="45.5963" lon="2.33569">
        <ele>745</ele>
        <time>2019-05-18T18:01:51Z</time>
      </trkpt>
      <trkpt lat="45.59628" lon="2.33571">
        <ele>745</ele>
        <time>2019-05-18T18:01:52Z</time>
      </trkpt>
      <trkpt lat="45.59627" lon="2.33574">
        <ele>745</ele>
        <time>2019-05-18T18:01:53Z</time>
      </trkpt>
      <trkpt lat="45.59626" lon="2.33576">
        <ele>745</ele>
        <time>2019-05-18T18:01:54Z</time>
      </trkpt>
      <trkpt lat="45.59624" lon="2.33577">
        <ele>745</ele>
        <time>2019-05-18T18:01:55Z</time>
      </trkpt>
      <trkpt lat="45.59622" lon="2.33578">
        <ele>745</ele>
        <time>2019-05-18T18:01:56Z</time>
      </trkpt>
      <trkpt lat="45.59621" lon="2.33579">
        <ele>745</ele>
        <time>2019-05-18T18:01:57Z</time>
      </trkpt>
      <trkpt lat="45.59619" lon="2.33581">
        <ele>745</ele>
        <time>2019-05-18T18:01:58Z</time>
      </trkpt>
      <trkpt lat="45.59618" lon="2.33582">
        <ele>745</ele>
        <time>2019-05-18T18:01:59Z</time>
      </trkpt>
      <trkpt lat="45.59616" lon="2.33584">
        <ele>746</ele>
        <time>2019-05-18T18:02:00Z</time>
      </trkpt>
      <trkpt lat="45.59615" lon="2.33586">
        <ele>746</ele>
        <time>2019-05-18T18:02:01Z</time>
      </trkpt>
      <trkpt lat="45.59613" lon="2.33587">
        <ele>746</ele>
        <time>2019-05-18T18:02:02Z</time>
      </trkpt>
      <trkpt lat="45.59612" lon="2.33588">
        <ele>746</ele>
        <time>2019-05-18T18:02:03Z</time>
      </trkpt>
      <trkpt lat="45.5961" lon="2.3359">
        <ele>746</ele>
        <time>2019-05-18T18:02:04Z</time>
      </trkpt>
      <trkpt lat="45.59608" lon="2.33592">
        <ele>746</ele>
        <time>2019-05-18T18:02:05Z</time>
      </trkpt>
      <trkpt lat="45.59606" lon="2.33594">
        <ele>746</ele>
        <time>2019-05-18T18:02:06Z</time>
      </trkpt>
      <trkpt lat="45.59604" lon="2.33596">
        <ele>746</ele>
        <time>2019-05-18T18:02:07Z</time>
      </trkpt>
      <trkpt lat="45.59602" lon="2.33598">
        <ele>746</ele>
        <time>2019-05-18T18:02:08Z</time>
      </trkpt>
      <trkpt lat="45.596" lon="2.33599">
        <ele>746</ele>
        <time>2019-05-18T18:02:09Z</time>
      </trkpt>
      <trkpt lat="45.59598" lon="2.336">
        <ele>746</ele>
        <time>2019-05-18T18:02:10Z</time>
      </trkpt>
      <trkpt lat="45.59597" lon="2.33602">
        <ele>746</ele>
        <time>2019-05-18T18:02:11Z</time>
      </trkpt>
      <trkpt lat="45.59595" lon="2.33603">
        <ele>746</ele>
        <time>2019-05-18T18:02:12Z</time>
      </trkpt>
      <trkpt lat="45.59593" lon="2.33604">
        <ele>746</ele>
        <time>2019-05-18T18:02:13Z</time>
      </trkpt>
      <trkpt lat="45.59591" lon="2.33606">
        <ele>746</ele>
        <time>2019-05-18T18:02:14Z</time>
      </trkpt>
      <trkpt lat="45.59589" lon="2.33607">
        <ele>746</ele>
        <time>2019-05-18T18:02:15Z</time>
      </trkpt>
      <trkpt lat="45.59587" lon="2.33609">
        <ele>746</ele>
        <time>2019-05-18T18:02:16Z</time>
      </trkpt>
      <trkpt lat="45.59585" lon="2.3361">
        <ele>746</ele>
        <time>2019-05-18T18:02:17Z</time>
      </trkpt>
      <trkpt lat="45.59583" lon="2.33612">
        <ele>746</ele>
        <time>2019-05-18T18:02:18Z</time>
      </trkpt>
      <trkpt lat="45.59581" lon="2.33613">
        <ele>746</ele>
        <time>2019-05-18T18:02:19Z</time>
      </trkpt>
      <trkpt lat="45.59578" lon="2.33614">
        <ele>746</ele>
        <time>2019-05-18T18:02:20Z</time>
      </trkpt>
      <trkpt lat="45.59576" lon="2.33615">
        <ele>746</ele>
        <time>2019-05-18T18:02:21Z</time>
      </trkpt>
      <trkpt lat="45.59574" lon="2.33616">
        <ele>746</ele>
        <time>2019-05-18T18:02:22Z</time>
      </trkpt>
      <trkpt lat="45.59572" lon="2.33618">
        <ele>746</ele>
        <time>2019-05-18T18:02:23Z</time>
      </trkpt>
      <trkpt lat="45.5957" lon="2.33619">
        <ele>746</ele>
        <time>2019-05-18T18:02:24Z</time>
      </trkpt>
      <trkpt lat="45.59569" lon="2.3362">
        <ele>746</ele>
        <time>2019-05-18T18:02:25Z</time>
      </trkpt>
      <trkpt lat="45.59567" lon="2.33621">
        <ele>746</ele>
        <time>2019-05-18T18:02:26Z</time>
      </trkpt>
      <trkpt lat="45.59565" lon="2.33622">
        <ele>746</ele>
        <time>2019-05-18T18:02:27Z</time>
      </trkpt>
      <trkpt lat="45.59563" lon="2.33623">
        <ele>746</ele>
        <time>2019-05-18T18:02:28Z</time>
      </trkpt>
      <trkpt lat="45.59562" lon="2.33625">
        <ele>746</ele>
        <time>2019-05-18T18:02:29Z</time>
      </trkpt>
      <trkpt lat="45.5956" lon="2.33625">
        <ele>746</ele>
        <time>2019-05-18T18:02:30Z</time>
      </trkpt>
      <trkpt lat="45.59558" lon="2.33626">
        <ele>746</ele>
        <time>2019-05-18T18:02:31Z</time>
      </trkpt>
      <trkpt lat="45.59556" lon="2.33628">
        <ele>746</ele>
        <time>2019-05-18T18:02:32Z</time>
      </trkpt>
      <trkpt lat="45.59554" lon="2.33629">
        <ele>746</ele>
        <time>2019-05-18T18:02:33Z</time>
      </trkpt>
      <trkpt lat="45.59553" lon="2.3363">
        <ele>746</ele>
        <time>2019-05-18T18:02:34Z</time>
      </trkpt>
      <trkpt lat="45.59552" lon="2.3363">
        <ele>746</ele>
        <time>2019-05-18T18:02:35Z</time>
      </trkpt>
      <trkpt lat="45.59551" lon="2.33631">
        <ele>746</ele>
        <time>2019-05-18T18:02:36Z</time>
      </trkpt>
      <trkpt lat="45.59549" lon="2.33632">
        <ele>746</ele>
        <time>2019-05-18T18:02:37Z</time>
      </trkpt>
      <trkpt lat="45.59548" lon="2.33633">
        <ele>746</ele>
        <time>2019-05-18T18:02:38Z</time>
      </trkpt>
      <trkpt lat="45.59546" lon="2.33635">
        <ele>746</ele>
        <time>2019-05-18T18:02:39Z</time>
      </trkpt>
      <trkpt lat="45.59545" lon="2.33637">
        <ele>747</ele>
        <time>2019-05-18T18:02:40Z</time>
      </trkpt>
      <trkpt lat="45.59544" lon="2.33638">
        <ele>747</ele>
        <time>2019-05-18T18:02:41Z</time>
      </trkpt>
      <trkpt lat="45.59543" lon="2.33639">
        <ele>747</ele>
        <time>2019-05-18T18:02:42Z</time>
      </trkpt>
      <trkpt lat="45.59541" lon="2.33641">
        <ele>747</ele>
        <time>2019-05-18T18:02:43Z</time>
      </trkpt>
      <trkpt lat="45.59539" lon="2.33644">
        <ele>747</ele>
        <time>2019-05-18T18:02:44Z</time>
      </trkpt>
      <trkpt lat="45.59537" lon="2.33646">
        <ele>747</ele>
        <time>2019-05-18T18:02:45Z</time>
      </trkpt>
      <trkpt lat="45.59535" lon="2.33647">
        <ele>747</ele>
        <time>2019-05-18T18:02:46Z</time>
      </trkpt>
      <trkpt lat="45.59534" lon="2.33648">
        <ele>747</ele>
        <time>2019-05-18T18:02:47Z</time>
      </trkpt>
      <trkpt lat="45.59533" lon="2.33649">
        <ele>747</ele>
        <time>2019-05-18T18:02:48Z</time>
      </trkpt>
      <trkpt lat="45.59532" lon="2.3365">
        <ele>747</ele>
        <time>2019-05-18T18:02:49Z</time>
      </trkpt>
      <trkpt lat="45.59532" lon="2.33652">
        <ele>747</ele>
        <time>2019-05-18T18:02:50Z</time>
      </trkpt>
      <trkpt lat="45.59531" lon="2.33654">
        <ele>747</ele>
        <time>2019-05-18T18:02:51Z</time>
      </trkpt>
      <trkpt lat="45.59531" lon="2.33656">
        <ele>747</ele>
        <time>2019-05-18T18:02:52Z</time>
      </trkpt>
      <trkpt lat="45.5953" lon="2.33657">
        <ele>748</ele>
        <time>2019-05-18T18:02:53Z</time>
      </trkpt>
      <trkpt lat="45.59529" lon="2.33658">
        <ele>748</ele>
        <time>2019-05-18T18:02:54Z</time>
      </trkpt>
      <trkpt lat="45.59527" lon="2.3366">
        <ele>747</ele>
        <time>2019-05-18T18:02:55Z</time>
      </trkpt>
      <trkpt lat="45.59525" lon="2.33663">
        <ele>747</ele>
        <time>2019-05-18T18:02:56Z</time>
      </trkpt>
      <trkpt lat="45.59525" lon="2.33665">
        <ele>748</ele>
        <time>2019-05-18T18:02:57Z</time>
      </trkpt>
      <trkpt lat="45.59524" lon="2.33668">
        <ele>748</ele>
        <time>2019-05-18T18:02:58Z</time>
      </trkpt>
      <trkpt lat="45.59524" lon="2.3367">
        <ele>748</ele>
        <time>2019-05-18T18:02:59Z</time>
      </trkpt>
      <trkpt lat="45.59523" lon="2.33672">
        <ele>748</ele>
        <time>2019-05-18T18:03:00Z</time>
      </trkpt>
      <trkpt lat="45.59523" lon="2.33674">
        <ele>748</ele>
        <time>2019-05-18T18:03:01Z</time>
      </trkpt>
      <trkpt lat="45.59522" lon="2.33676">
        <ele>748</ele>
        <time>2019-05-18T18:03:02Z</time>
      </trkpt>
      <trkpt lat="45.59521" lon="2.33679">
        <ele>748</ele>
        <time>2019-05-18T18:03:03Z</time>
      </trkpt>
      <trkpt lat="45.5952" lon="2.33681">
        <ele>748</ele>
        <time>2019-05-18T18:03:04Z</time>
      </trkpt>
      <trkpt lat="45.5952" lon="2.33683">
        <ele>748</ele>
        <time>2019-05-18T18:03:05Z</time>
      </trkpt>
      <trkpt lat="45.5952" lon="2.33685">
        <ele>748</ele>
        <time>2019-05-18T18:03:06Z</time>
      </trkpt>
      <trkpt lat="45.59519" lon="2.33688">
        <ele>748</ele>
        <time>2019-05-18T18:03:07Z</time>
      </trkpt>
      <trkpt lat="45.59518" lon="2.3369">
        <ele>748</ele>
        <time>2019-05-18T18:03:08Z</time>
      </trkpt>
      <trkpt lat="45.59518" lon="2.33692">
        <ele>748</ele>
        <time>2019-05-18T18:03:09Z</time>
      </trkpt>
      <trkpt lat="45.59518" lon="2.33694">
        <ele>748</ele>
        <time>2019-05-18T18:03:10Z</time>
      </trkpt>
      <trkpt lat="45.59518" lon="2.33696">
        <ele>749</ele>
        <time>2019-05-18T18:03:11Z</time>
      </trkpt>
      <trkpt lat="45.59518" lon="2.33697">
        <ele>749</ele>
        <time>2019-05-18T18:03:12Z</time>
      </trkpt>
      <trkpt lat="45.59517" lon="2.33698">
        <ele>749</ele>
        <time>2019-05-18T18:03:13Z</time>
      </trkpt>
      <trkpt lat="45.59517" lon="2.33698">
        <ele>749</ele>
        <time>2019-05-18T18:03:14Z</time>
      </trkpt>
      <trkpt lat="45.59517" lon="2.337">
        <ele>749</ele>
        <time>2019-05-18T18:03:15Z</time>
      </trkpt>
      <trkpt lat="45.59516" lon="2.337">
        <ele>749</ele>
        <time>2019-05-18T18:03:16Z</time>
      </trkpt>
      <trkpt lat="45.59516" lon="2.33701">
        <ele>749</ele>
        <time>2019-05-18T18:03:17Z</time>
      </trkpt>
      <trkpt lat="45.59516" lon="2.33702">
        <ele>749</ele>
        <time>2019-05-18T18:03:18Z</time>
      </trkpt>
      <trkpt lat="45.59515" lon="2.33702">
        <ele>749</ele>
        <time>2019-05-18T18:03:19Z</time>
      </trkpt>
      <trkpt lat="45.5952" lon="2.3373">
        <ele>749</ele>
        <time>2019-05-18T18:07:46Z</time>
      </trkpt>
      <trkpt lat="45.59522" lon="2.33733">
        <ele>749</ele>
        <time>2019-05-18T18:07:47Z</time>
      </trkpt>
      <trkpt lat="45.59522" lon="2.33735">
        <ele>749</ele>
        <time>2019-05-18T18:07:48Z</time>
      </trkpt>
      <trkpt lat="45.59522" lon="2.33737">
        <ele>749</ele>
        <time>2019-05-18T18:07:49Z</time>
      </trkpt>
      <trkpt lat="45.59523" lon="2.33739">
        <ele>749</ele>
        <time>2019-05-18T18:07:50Z</time>
      </trkpt>
      <trkpt lat="45.59523" lon="2.33742">
        <ele>749</ele>
        <time>2019-05-18T18:07:51Z</time>
      </trkpt>
      <trkpt lat="45.59524" lon="2.33743">
        <ele>749</ele>
        <time>2019-05-18T18:07:52Z</time>
      </trkpt>
      <trkpt lat="45.59524" lon="2.33746">
        <ele>749</ele>
        <time>2019-05-18T18:07:53Z</time>
      </trkpt>
      <trkpt lat="45.59524" lon="2.33748">
        <ele>749</ele>
        <time>2019-05-18T18:07:54Z</time>
      </trkpt>
      <trkpt lat="45.59524" lon="2.33751">
        <ele>749</ele>
        <time>2019-05-18T18:07:55Z</time>
      </trkpt>
      <trkpt lat="45.59524" lon="2.33754">
        <ele>750</ele>
        <time>2019-05-18T18:07:56Z</time>
      </trkpt>
      <trkpt lat="45.59523" lon="2.33756">
        <ele>750</ele>
        <time>2019-05-18T18:07:57Z</time>
      </trkpt>
      <trkpt lat="45.59523" lon="2.33757">
        <ele>750</ele>
        <time>2019-05-18T18:07:58Z</time>
      </trkpt>
      <trkpt lat="45.59523" lon="2.33759">
        <ele>750</ele>
        <time>2019-05-18T18:07:59Z</time>
      </trkpt>
      <trkpt lat="45.59523" lon="2.33761">
        <ele>750</ele>
        <time>2019-05-18T18:08:00Z</time>
      </trkpt>
      <trkpt lat="45.59523" lon="2.33763">
        <ele>750</ele>
        <time>2019-05-18T18:08:01Z</time>
      </trkpt>
      <trkpt lat="45.59522" lon="2.33764">
        <ele>751</ele>
        <time>2019-05-18T18:08:02Z</time>
      </trkpt>
      <trkpt lat="45.59522" lon="2.33767">
        <ele>751</ele>
        <time>2019-05-18T18:08:03Z</time>
      </trkpt>
      <trkpt lat="45.59522" lon="2.33768">
        <ele>751</ele>
        <time>2019-05-18T18:08:04Z</time>
      </trkpt>
      <trkpt lat="45.59521" lon="2.33769">
        <ele>751</ele>
        <time>2019-05-18T18:08:05Z</time>
      </trkpt>
      <trkpt lat="45.59521" lon="2.33771">
        <ele>751</ele>
        <time>2019-05-18T18:08:06Z</time>
      </trkpt>
      <trkpt lat="45.59521" lon="2.33773">
        <ele>751</ele>
        <time>2019-05-18T18:08:07Z</time>
      </trkpt>
      <trkpt lat="45.59521" lon="2.33774">
        <ele>751</ele>
        <time>2019-05-18T18:08:08Z</time>
      </trkpt>
      <trkpt lat="45.5952" lon="2.33776">
        <ele>752</ele>
        <time>2019-05-18T18:08:09Z</time>
      </trkpt>
      <trkpt lat="45.5952" lon="2.33778">
        <ele>752</ele>
        <time>2019-05-18T18:08:10Z</time>
      </trkpt>
      <trkpt lat="45.59519" lon="2.33779">
        <ele>752</ele>
        <time>2019-05-18T18:08:11Z</time>
      </trkpt>
      <trkpt lat="45.59518" lon="2.3378">
        <ele>752</ele>
        <time>2019-05-18T18:08:12Z</time>
      </trkpt>
      <trkpt lat="45.59517" lon="2.33782">
        <ele>752</ele>
        <time>2019-05-18T18:08:13Z</time>
      </trkpt>
      <trkpt lat="45.59517" lon="2.33784">
        <ele>752</ele>
        <time>2019-05-18T18:08:14Z</time>
      </trkpt>
      <trkpt lat="45.59516" lon="2.33785">
        <ele>753</ele>
        <time>2019-05-18T18:08:15Z</time>
      </trkpt>
      <trkpt lat="45.59515" lon="2.33787">
        <ele>753</ele>
        <time>2019-05-18T18:08:16Z</time>
      </trkpt>
      <trkpt lat="45.59514" lon="2.33788">
        <ele>753</ele>
        <time>2019-05-18T18:08:17Z</time>
      </trkpt>
      <trkpt lat="45.59512" lon="2.3379">
        <ele>753</ele>
        <time>2019-05-18T18:08:18Z</time>
      </trkpt>
      <trkpt lat="45.59512" lon="2.33792">
        <ele>753</ele>
        <time>2019-05-18T18:08:19Z</time>
      </trkpt>
      <trkpt lat="45.59512" lon="2.33793">
        <ele>753</ele>
        <time>2019-05-18T18:08:20Z</time>
      </trkpt>
      <trkpt lat="45.59511" lon="2.33794">
        <ele>754</ele>
        <time>2019-05-18T18:08:21Z</time>
      </trkpt>
      <trkpt lat="45.59509" lon="2.33796">
        <ele>754</ele>
        <time>2019-05-18T18:08:22Z</time>
      </trkpt>
      <trkpt lat="45.59508" lon="2.33798">
        <ele>754</ele>
        <time>2019-05-18T18:08:23Z</time>
      </trkpt>
      <trkpt lat="45.59507" lon="2.33799">
        <ele>754</ele>
        <time>2019-05-18T18:08:24Z</time>
      </trkpt>
      <trkpt lat="45.59506" lon="2.33801">
        <ele>754</ele>
        <time>2019-05-18T18:08:25Z</time>
      </trkpt>
      <trkpt lat="45.59505" lon="2.33803">
        <ele>754</ele>
        <time>2019-05-18T18:08:26Z</time>
      </trkpt>
      <trkpt lat="45.59504" lon="2.33806">
        <ele>754</ele>
        <time>2019-05-18T18:08:27Z</time>
      </trkpt>
      <trkpt lat="45.59503" lon="2.33808">
        <ele>754</ele>
        <time>2019-05-18T18:08:28Z</time>
      </trkpt>
      <trkpt lat="45.59502" lon="2.33809">
        <ele>754</ele>
        <time>2019-05-18T18:08:29Z</time>
      </trkpt>
      <trkpt lat="45.59501" lon="2.33811">
        <ele>755</ele>
        <time>2019-05-18T18:08:30Z</time>
      </trkpt>
      <trkpt lat="45.595" lon="2.33813">
        <ele>755</ele>
        <time>2019-05-18T18:08:31Z</time>
      </trkpt>
      <trkpt lat="45.59499" lon="2.33814">
        <ele>755</ele>
        <time>2019-05-18T18:08:32Z</time>
      </trkpt>
      <trkpt lat="45.59498" lon="2.33815">
        <ele>755</ele>
        <time>2019-05-18T18:08:33Z</time>
      </trkpt>
      <trkpt lat="45.59497" lon="2.33817">
        <ele>755</ele>
        <time>2019-05-18T18:08:34Z</time>
      </trkpt>
      <trkpt lat="45.59496" lon="2.33819">
        <ele>755</ele>
        <time>2019-05-18T18:08:35Z</time>
      </trkpt>
      <trkpt lat="45.59494" lon="2.3382">
        <ele>755</ele>
        <time>2019-05-18T18:08:36Z</time>
      </trkpt>
      <trkpt lat="45.59493" lon="2.33822">
        <ele>755</ele>
        <time>2019-05-18T18:08:37Z</time>
      </trkpt>
      <trkpt lat="45.59492" lon="2.33823">
        <ele>755</ele>
        <time>2019-05-18T18:08:38Z</time>
      </trkpt>
      <trkpt lat="45.59491" lon="2.33826">
        <ele>755</ele>
        <time>2019-05-18T18:08:39Z</time>
      </trkpt>
      <trkpt lat="45.5949" lon="2.33828">
        <ele>755</ele>
        <time>2019-05-18T18:08:40Z</time>
      </trkpt>
      <trkpt lat="45.59489" lon="2.33829">
        <ele>755</ele>
        <time>2019-05-18T18:08:41Z</time>
      </trkpt>
      <trkpt lat="45.59488" lon="2.3383">
        <ele>755</ele>
        <time>2019-05-18T18:08:42Z</time>
      </trkpt>
      <trkpt lat="45.59486" lon="2.33831">
        <ele>756</ele>
        <time>2019-05-18T18:08:43Z</time>
      </trkpt>
      <trkpt lat="45.59485" lon="2.33832">
        <ele>756</ele>
        <time>2019-05-18T18:08:44Z</time>
      </trkpt>
      <trkpt lat="45.59484" lon="2.33833">
        <ele>756</ele>
        <time>2019-05-18T18:08:45Z</time>
      </trkpt>
      <trkpt lat="45.59484" lon="2.33836">
        <ele>756</ele>
        <time>2019-05-18T18:08:46Z</time>
      </trkpt>
      <trkpt lat="45.59483" lon="2.33837">
        <ele>756</ele>
        <time>2019-05-18T18:08:47Z</time>
      </trkpt>
      <trkpt lat="45.59482" lon="2.33839">
        <ele>756</ele>
        <time>2019-05-18T18:08:48Z</time>
      </trkpt>
      <trkpt lat="45.59481" lon="2.33841">
        <ele>755</ele>
        <time>2019-05-18T18:08:49Z</time>
      </trkpt>
      <trkpt lat="45.59479" lon="2.33842">
        <ele>756</ele>
        <time>2019-05-18T18:08:50Z</time>
      </trkpt>
      <trkpt lat="45.59477" lon="2.33844">
        <ele>756</ele>
        <time>2019-05-18T18:08:51Z</time>
      </trkpt>
      <trkpt lat="45.59475" lon="2.33845">
        <ele>756</ele>
        <time>2019-05-18T18:08:52Z</time>
      </trkpt>
      <trkpt lat="45.59474" lon="2.33846">
        <ele>755</ele>
        <time>2019-05-18T18:08:53Z</time>
      </trkpt>
      <trkpt lat="45.59473" lon="2.33848">
        <ele>755</ele>
        <time>2019-05-18T18:08:54Z</time>
      </trkpt>
      <trkpt lat="45.59472" lon="2.3385">
        <ele>756</ele>
        <time>2019-05-18T18:08:55Z</time>
      </trkpt>
      <trkpt lat="45.5947" lon="2.33852">
        <ele>756</ele>
        <time>2019-05-18T18:08:56Z</time>
      </trkpt>
      <trkpt lat="45.59469" lon="2.33854">
        <ele>755</ele>
        <time>2019-05-18T18:08:57Z</time>
      </trkpt>
      <trkpt lat="45.59468" lon="2.33857">
        <ele>755</ele>
        <time>2019-05-18T18:08:58Z</time>
      </trkpt>
      <trkpt lat="45.59467" lon="2.33859">
        <ele>756</ele>
        <time>2019-05-18T18:08:59Z</time>
      </trkpt>
      <trkpt lat="45.59466" lon="2.3386">
        <ele>756</ele>
        <time>2019-05-18T18:09:00Z</time>
      </trkpt>
      <trkpt lat="45.59466" lon="2.33861">
        <ele>755</ele>
        <time>2019-05-18T18:09:01Z</time>
      </trkpt>
      <trkpt lat="45.59464" lon="2.33863">
        <ele>755</ele>
        <time>2019-05-18T18:09:02Z</time>
      </trkpt>
      <trkpt lat="45.59464" lon="2.33865">
        <ele>755</ele>
        <time>2019-05-18T18:09:03Z</time>
      </trkpt>
      <trkpt lat="45.59462" lon="2.33866">
        <ele>756</ele>
        <time>2019-05-18T18:09:04Z</time>
      </trkpt>
      <trkpt lat="45.59461" lon="2.33868">
        <ele>756</ele>
        <time>2019-05-18T18:09:05Z</time>
      </trkpt>
      <trkpt lat="45.5946" lon="2.33869">
        <ele>756</ele>
        <time>2019-05-18T18:09:06Z</time>
      </trkpt>
      <trkpt lat="45.59458" lon="2.33871">
        <ele>756</ele>
        <time>2019-05-18T18:09:07Z</time>
      </trkpt>
      <trkpt lat="45.59457" lon="2.33873">
        <ele>756</ele>
        <time>2019-05-18T18:09:08Z</time>
      </trkpt>
      <trkpt lat="45.59456" lon="2.33874">
        <ele>756</ele>
        <time>2019-05-18T18:09:09Z</time>
      </trkpt>
      <trkpt lat="45.59454" lon="2.33876">
        <ele>756</ele>
        <time>2019-05-18T18:09:10Z</time>
      </trkpt>
      <trkpt lat="45.59453" lon="2.33878">
        <ele>756</ele>
        <time>2019-05-18T18:09:11Z</time>
      </trkpt>
      <trkpt lat="45.59452" lon="2.33879">
        <ele>756</ele>
        <time>2019-05-18T18:09:12Z</time>
      </trkpt>
      <trkpt lat="45.5945" lon="2.33881">
        <ele>756</ele>
        <time>2019-05-18T18:09:13Z</time>
      </trkpt>
      <trkpt lat="45.59449" lon="2.33882">
        <ele>756</ele>
        <time>2019-05-18T18:09:14Z</time>
      </trkpt>
      <trkpt lat="45.59447" lon="2.33884">
        <ele>756</ele>
        <time>2019-05-18T18:09:15Z</time>
      </trkpt>
      <trkpt lat="45.59446" lon="2.33886">
        <ele>757</ele>
        <time>2019-05-18T18:09:16Z</time>
      </trkpt>
      <trkpt lat="45.59445" lon="2.33887">
        <ele>757</ele>
        <time>2019-05-18T18:09:17Z</time>
      </trkpt>
      <trkpt lat="45.59444" lon="2.33889">
        <ele>757</ele>
        <time>2019-05-18T18:09:18Z</time>
      </trkpt>
      <trkpt lat="45.59442" lon="2.33891">
        <ele>757</ele>
        <time>2019-05-18T18:09:19Z</time>
      </trkpt>
      <trkpt lat="45.5944" lon="2.33892">
        <ele>757</ele>
        <time>2019-05-18T18:09:20Z</time>
      </trkpt>
      <trkpt lat="45.59438" lon="2.33893">
        <ele>757</ele>
        <time>2019-05-18T18:09:21Z</time>
      </trkpt>
      <trkpt lat="45.59436" lon="2.33895">
        <ele>757</ele>
        <time>2019-05-18T18:09:22Z</time>
      </trkpt>
      <trkpt lat="45.59435" lon="2.33896">
        <ele>758</ele>
        <time>2019-05-18T18:09:23Z</time>
      </trkpt>
      <trkpt lat="45.59434" lon="2.33897">
        <ele>758</ele>
        <time>2019-05-18T18:09:24Z</time>
      </trkpt>
      <trkpt lat="45.59434" lon="2.33898">
        <ele>758</ele>
        <time>2019-05-18T18:09:25Z</time>
      </trkpt>
      <trkpt lat="45.59433" lon="2.339">
        <ele>758</ele>
        <time>2019-05-18T18:09:26Z</time>
      </trkpt>
      <trkpt lat="45.59433" lon="2.33902">
        <ele>758</ele>
        <time>2019-05-18T18:09:27Z</time>
      </trkpt>
      <trkpt lat="45.59432" lon="2.33904">
        <ele>758</ele>
        <time>2019-05-18T18:09:28Z</time>
      </trkpt>
      <trkpt lat="45.5943" lon="2.33906">
        <ele>758</ele>
        <time>2019-05-18T18:09:29Z</time>
      </trkpt>
      <trkpt lat="45.59429" lon="2.33907">
        <ele>758</ele>
        <time>2019-05-18T18:09:30Z</time>
      </trkpt>
      <trkpt lat="45.59428" lon="2.33909">
        <ele>759</ele>
        <time>2019-05-18T18:09:31Z</time>
      </trkpt>
      <trkpt lat="45.59426" lon="2.33911">
        <ele>759</ele>
        <time>2019-05-18T18:09:32Z</time>
      </trkpt>
      <trkpt lat="45.59425" lon="2.33912">
        <ele>759</ele>
        <time>2019-05-18T18:09:33Z</time>
      </trkpt>
      <trkpt lat="45.59425" lon="2.33912">
        <ele>759</ele>
        <time>2019-05-18T18:09:34Z</time>
      </trkpt>
      <trkpt lat="45.59424" lon="2.33913">
        <ele>759</ele>
        <time>2019-05-18T18:09:35Z</time>
      </trkpt>
      <trkpt lat="45.59423" lon="2.33914">
        <ele>759</ele>
        <time>2019-05-18T18:09:36Z</time>
      </trkpt>
      <trkpt lat="45.59422" lon="2.33916">
        <ele>760</ele>
        <time>2019-05-18T18:09:37Z</time>
      </trkpt>
      <trkpt lat="45.5942" lon="2.33917">
        <ele>760</ele>
        <time>2019-05-18T18:09:38Z</time>
      </trkpt>
      <trkpt lat="45.59419" lon="2.3392">
        <ele>760</ele>
        <time>2019-05-18T18:09:39Z</time>
      </trkpt>
      <trkpt lat="45.59417" lon="2.33922">
        <ele>760</ele>
        <time>2019-05-18T18:09:40Z</time>
      </trkpt>
      <trkpt lat="45.59416" lon="2.33923">
        <ele>760</ele>
        <time>2019-05-18T18:09:41Z</time>
      </trkpt>
      <trkpt lat="45.59414" lon="2.33924">
        <ele>760</ele>
        <time>2019-05-18T18:09:42Z</time>
      </trkpt>
      <trkpt lat="45.59412" lon="2.33926">
        <ele>760</ele>
        <time>2019-05-18T18:09:43Z</time>
      </trkpt>
      <trkpt lat="45.59411" lon="2.33928">
        <ele>761</ele>
        <time>2019-05-18T18:09:44Z</time>
      </trkpt>
      <trkpt lat="45.59409" lon="2.33929">
        <ele>761</ele>
        <time>2019-05-18T18:09:45Z</time>
      </trkpt>
      <trkpt lat="45.59408" lon="2.3393">
        <ele>761</ele>
        <time>2019-05-18T18:09:46Z</time>
      </trkpt>
      <trkpt lat="45.59406" lon="2.33931">
        <ele>761</ele>
        <time>2019-05-18T18:09:47Z</time>
      </trkpt>
      <trkpt lat="45.59405" lon="2.33932">
        <ele>761</ele>
        <time>2019-05-18T18:09:48Z</time>
      </trkpt>
      <trkpt lat="45.59403" lon="2.33933">
        <ele>761</ele>
        <time>2019-05-18T18:09:49Z</time>
      </trkpt>
      <trkpt lat="45.59401" lon="2.33934">
        <ele>762</ele>
        <time>2019-05-18T18:09:50Z</time>
      </trkpt>
      <trkpt lat="45.594" lon="2.33935">
        <ele>762</ele>
        <time>2019-05-18T18:09:51Z</time>
      </trkpt>
      <trkpt lat="45.59399" lon="2.33936">
        <ele>762</ele>
        <time>2019-05-18T18:09:52Z</time>
      </trkpt>
      <trkpt lat="45.59398" lon="2.33937">
        <ele>762</ele>
        <time>2019-05-18T18:09:53Z</time>
      </trkpt>
      <trkpt lat="45.59396" lon="2.33938">
        <ele>762</ele>
        <time>2019-05-18T18:09:54Z</time>
      </trkpt>
      <trkpt lat="45.59395" lon="2.33938">
        <ele>763</ele>
        <time>2019-05-18T18:09:55Z</time>
      </trkpt>
      <trkpt lat="45.59394" lon="2.3394">
        <ele>763</ele>
        <time>2019-05-18T18:09:56Z</time>
      </trkpt>
      <trkpt lat="45.59393" lon="2.33941">
        <ele>763</ele>
        <time>2019-05-18T18:09:57Z</time>
      </trkpt>
      <trkpt lat="45.59392" lon="2.33942">
        <ele>763</ele>
        <time>2019-05-18T18:09:58Z</time>
      </trkpt>
      <trkpt lat="45.59391" lon="2.33943">
        <ele>763</ele>
        <time>2019-05-18T18:09:59Z</time>
      </trkpt>
      <trkpt lat="45.5939" lon="2.33945">
        <ele>764</ele>
        <time>2019-05-18T18:10:00Z</time>
      </trkpt>
      <trkpt lat="45.59389" lon="2.33946">
        <ele>764</ele>
        <time>2019-05-18T18:10:01Z</time>
      </trkpt>
      <trkpt lat="45.59388" lon="2.33948">
        <ele>764</ele>
        <time>2019-05-18T18:10:02Z</time>
      </trkpt>
      <trkpt lat="45.59387" lon="2.3395">
        <ele>764</ele>
        <time>2019-05-18T18:10:03Z</time>
      </trkpt>
      <trkpt lat="45.59386" lon="2.33952">
        <ele>765</ele>
        <time>2019-05-18T18:10:04Z</time>
      </trkpt>
      <trkpt lat="45.59386" lon="2.33954">
        <ele>765</ele>
        <time>2019-05-18T18:10:05Z</time>
      </trkpt>
      <trkpt lat="45.59385" lon="2.33956">
        <ele>765</ele>
        <time>2019-05-18T18:10:06Z</time>
      </trkpt>
      <trkpt lat="45.59385" lon="2.33958">
        <ele>765</ele>
        <time>2019-05-18T18:10:07Z</time>
      </trkpt>
      <trkpt lat="45.59384" lon="2.33961">
        <ele>765</ele>
        <time>2019-05-18T18:10:08Z</time>
      </trkpt>
      <trkpt lat="45.59383" lon="2.33963">
        <ele>765</ele>
        <time>2019-05-18T18:10:09Z</time>
      </trkpt>
      <trkpt lat="45.59383" lon="2.33965">
        <ele>765</ele>
        <time>2019-05-18T18:10:10Z</time>
      </trkpt>
      <trkpt lat="45.59382" lon="2.33966">
        <ele>766</ele>
        <time>2019-05-18T18:10:11Z</time>
      </trkpt>
      <trkpt lat="45.59381" lon="2.33968">
        <ele>766</ele>
        <time>2019-05-18T18:10:12Z</time>
      </trkpt>
      <trkpt lat="45.59379" lon="2.3397">
        <ele>766</ele>
        <time>2019-05-18T18:10:13Z</time>
      </trkpt>
      <trkpt lat="45.59379" lon="2.33971">
        <ele>766</ele>
        <time>2019-05-18T18:10:14Z</time>
      </trkpt>
      <trkpt lat="45.59378" lon="2.33973">
        <ele>766</ele>
        <time>2019-05-18T18:10:15Z</time>
      </trkpt>
      <trkpt lat="45.59378" lon="2.33974">
        <ele>766</ele>
        <time>2019-05-18T18:10:16Z</time>
      </trkpt>
      <trkpt lat="45.59376" lon="2.33976">
        <ele>767</ele>
        <time>2019-05-18T18:10:17Z</time>
      </trkpt>
      <trkpt lat="45.59375" lon="2.33978">
        <ele>767</ele>
        <time>2019-05-18T18:10:18Z</time>
      </trkpt>
      <trkpt lat="45.59375" lon="2.3398">
        <ele>767</ele>
        <time>2019-05-18T18:10:19Z</time>
      </trkpt>
      <trkpt lat="45.59374" lon="2.33981">
        <ele>767</ele>
        <time>2019-05-18T18:10:20Z</time>
      </trkpt>
      <trkpt lat="45.59373" lon="2.33983">
        <ele>767</ele>
        <time>2019-05-18T18:10:21Z</time>
      </trkpt>
      <trkpt lat="45.59372" lon="2.33986">
        <ele>767</ele>
        <time>2019-05-18T18:10:22Z</time>
      </trkpt>
      <trkpt lat="45.59371" lon="2.33988">
        <ele>767</ele>
        <time>2019-05-18T18:10:23Z</time>
      </trkpt>
      <trkpt lat="45.59371" lon="2.33991">
        <ele>767</ele>
        <time>2019-05-18T18:10:24Z</time>
      </trkpt>
      <trkpt lat="45.5937" lon="2.33993">
        <ele>767</ele>
        <time>2019-05-18T18:10:25Z</time>
      </trkpt>
      <trkpt lat="45.59369" lon="2.33995">
        <ele>768</ele>
        <time>2019-05-18T18:10:26Z</time>
      </trkpt>
      <trkpt lat="45.59369" lon="2.33996">
        <ele>768</ele>
        <time>2019-05-18T18:10:27Z</time>
      </trkpt>
      <trkpt lat="45.59368" lon="2.33998">
        <ele>768</ele>
        <time>2019-05-18T18:10:28Z</time>
      </trkpt>
      <trkpt lat="45.59368" lon="2.33999">
        <ele>768</ele>
        <time>2019-05-18T18:10:29Z</time>
      </trkpt>
      <trkpt lat="45.59367" lon="2.34001">
        <ele>768</ele>
        <time>2019-05-18T18:10:30Z</time>
      </trkpt>
      <trkpt lat="45.59366" lon="2.34003">
        <ele>768</ele>
        <time>2019-05-18T18:10:31Z</time>
      </trkpt>
      <trkpt lat="45.59366" lon="2.34005">
        <ele>768</ele>
        <time>2019-05-18T18:10:32Z</time>
      </trkpt>
      <trkpt lat="45.59366" lon="2.34006">
        <ele>768</ele>
        <time>2019-05-18T18:10:33Z</time>
      </trkpt>
      <trkpt lat="45.59365" lon="2.34007">
        <ele>769</ele>
        <time>2019-05-18T18:10:34Z</time>
      </trkpt>
      <trkpt lat="45.59365" lon="2.34008">
        <ele>769</ele>
        <time>2019-05-18T18:10:35Z</time>
      </trkpt>
      <trkpt lat="45.59365" lon="2.3401">
        <ele>769</ele>
        <time>2019-05-18T18:10:36Z</time>
      </trkpt>
      <trkpt lat="45.59364" lon="2.34012">
        <ele>769</ele>
        <time>2019-05-18T18:10:37Z</time>
      </trkpt>
      <trkpt lat="45.59363" lon="2.34014">
        <ele>769</ele>
        <time>2019-05-18T18:10:38Z</time>
      </trkpt>
      <trkpt lat="45.59363" lon="2.34016">
        <ele>769</ele>
        <time>2019-05-18T18:10:39Z</time>
      </trkpt>
      <trkpt lat="45.59362" lon="2.34019">
        <ele>769</ele>
        <time>2019-05-18T18:10:40Z</time>
      </trkpt>
      <trkpt lat="45.59362" lon="2.34021">
        <ele>769</ele>
        <time>2019-05-18T18:10:41Z</time>
      </trkpt>
      <trkpt lat="45.59362" lon="2.34022">
        <ele>769</ele>
        <time>2019-05-18T18:10:42Z</time>
      </trkpt>
      <trkpt lat="45.59361" lon="2.34024">
        <ele>769</ele>
        <time>2019-05-18T18:10:43Z</time>
      </trkpt>
      <trkpt lat="45.59361" lon="2.34026">
        <ele>770</ele>
        <time>2019-05-18T18:10:44Z</time>
      </trkpt>
      <trkpt lat="45.5936" lon="2.34029">
        <ele>770</ele>
        <time>2019-05-18T18:10:45Z</time>
      </trkpt>
      <trkpt lat="45.59359" lon="2.34031">
        <ele>770</ele>
        <time>2019-05-18T18:10:46Z</time>
      </trkpt>
      <trkpt lat="45.59359" lon="2.34032">
        <ele>770</ele>
        <time>2019-05-18T18:10:47Z</time>
      </trkpt>
      <trkpt lat="45.59358" lon="2.34035">
        <ele>770</ele>
        <time>2019-05-18T18:10:48Z</time>
      </trkpt>
      <trkpt lat="45.59358" lon="2.34037">
        <ele>770</ele>
        <time>2019-05-18T18:10:49Z</time>
      </trkpt>
      <trkpt lat="45.59357" lon="2.3404">
        <ele>771</ele>
        <time>2019-05-18T18:10:50Z</time>
      </trkpt>
      <trkpt lat="45.59357" lon="2.34041">
        <ele>771</ele>
        <time>2019-05-18T18:10:51Z</time>
      </trkpt>
      <trkpt lat="45.59357" lon="2.34042">
        <ele>771</ele>
        <time>2019-05-18T18:10:52Z</time>
      </trkpt>
      <trkpt lat="45.59357" lon="2.34045">
        <ele>771</ele>
        <time>2019-05-18T18:10:53Z</time>
      </trkpt>
      <trkpt lat="45.59356" lon="2.34047">
        <ele>771</ele>
        <time>2019-05-18T18:10:54Z</time>
      </trkpt>
      <trkpt lat="45.59355" lon="2.34049">
        <ele>771</ele>
        <time>2019-05-18T18:10:55Z</time>
      </trkpt>
      <trkpt lat="45.59355" lon="2.3405">
        <ele>771</ele>
        <time>2019-05-18T18:10:56Z</time>
      </trkpt>
      <trkpt lat="45.59354" lon="2.34052">
        <ele>772</ele>
        <time>2019-05-18T18:10:57Z</time>
      </trkpt>
      <trkpt lat="45.59353" lon="2.34054">
        <ele>772</ele>
        <time>2019-05-18T18:10:58Z</time>
      </trkpt>
      <trkpt lat="45.59353" lon="2.34056">
        <ele>772</ele>
        <time>2019-05-18T18:10:59Z</time>
      </trkpt>
      <trkpt lat="45.59353" lon="2.34058">
        <ele>772</ele>
        <time>2019-05-18T18:11:00Z</time>
      </trkpt>
      <trkpt lat="45.59352" lon="2.3406">
        <ele>772</ele>
        <time>2019-05-18T18:11:01Z</time>
      </trkpt>
      <trkpt lat="45.59351" lon="2.34061">
        <ele>772</ele>
        <time>2019-05-18T18:11:02Z</time>
      </trkpt>
      <trkpt lat="45.5935" lon="2.34063">
        <ele>772</ele>
        <time>2019-05-18T18:11:03Z</time>
      </trkpt>
      <trkpt lat="45.5935" lon="2.34065">
        <ele>772</ele>
        <time>2019-05-18T18:11:04Z</time>
      </trkpt>
      <trkpt lat="45.59349" lon="2.34066">
        <ele>773</ele>
        <time>2019-05-18T18:11:05Z</time>
      </trkpt>
      <trkpt lat="45.59348" lon="2.34067">
        <ele>773</ele>
        <time>2019-05-18T18:11:06Z</time>
      </trkpt>
      <trkpt lat="45.59347" lon="2.34069">
        <ele>773</ele>
        <time>2019-05-18T18:11:07Z</time>
      </trkpt>
      <trkpt lat="45.59346" lon="2.34071">
        <ele>773</ele>
        <time>2019-05-18T18:11:08Z</time>
      </trkpt>
      <trkpt lat="45.59345" lon="2.34073">
        <ele>773</ele>
        <time>2019-05-18T18:11:09Z</time>
      </trkpt>
      <trkpt lat="45.59345" lon="2.34075">
        <ele>773</ele>
        <time>2019-05-18T18:11:10Z</time>
      </trkpt>
      <trkpt lat="45.59344" lon="2.34076">
        <ele>773</ele>
        <time>2019-05-18T18:11:11Z</time>
      </trkpt>
      <trkpt lat="45.59343" lon="2.34078">
        <ele>773</ele>
        <time>2019-05-18T18:11:12Z</time>
      </trkpt>
      <trkpt lat="45.59342" lon="2.34079">
        <ele>774</ele>
        <time>2019-05-18T18:11:13Z</time>
      </trkpt>
      <trkpt lat="45.59342" lon="2.34082">
        <ele>774</ele>
        <time>2019-05-18T18:11:14Z</time>
      </trkpt>
      <trkpt lat="45.59341" lon="2.34084">
        <ele>774</ele>
        <time>2019-05-18T18:11:15Z</time>
      </trkpt>
      <trkpt lat="45.59341" lon="2.34086">
        <ele>774</ele>
        <time>2019-05-18T18:11:16Z</time>
      </trkpt>
      <trkpt lat="45.5934" lon="2.34087">
        <ele>774</ele>
        <time>2019-05-18T18:11:17Z</time>
      </trkpt>
      <trkpt lat="45.59339" lon="2.34089">
        <ele>774</ele>
        <time>2019-05-18T18:11:18Z</time>
      </trkpt>
      <trkpt lat="45.59338" lon="2.34091">
        <ele>774</ele>
        <time>2019-05-18T18:11:19Z</time>
      </trkpt>
      <trkpt lat="45.59337" lon="2.34093">
        <ele>775</ele>
        <time>2019-05-18T18:11:20Z</time>
      </trkpt>
      <trkpt lat="45.59336" lon="2.34094">
        <ele>775</ele>
        <time>2019-05-18T18:11:21Z</time>
      </trkpt>
      <trkpt lat="45.59336" lon="2.34096">
        <ele>775</ele>
        <time>2019-05-18T18:11:22Z</time>
      </trkpt>
      <trkpt lat="45.59334" lon="2.34099">
        <ele>775</ele>
        <time>2019-05-18T18:11:23Z</time>
      </trkpt>
      <trkpt lat="45.59333" lon="2.341">
        <ele>775</ele>
        <time>2019-05-18T18:11:24Z</time>
      </trkpt>
      <trkpt lat="45.59332" lon="2.34102">
        <ele>775</ele>
        <time>2019-05-18T18:11:25Z</time>
      </trkpt>
      <trkpt lat="45.59333" lon="2.34104">
        <ele>775</ele>
        <time>2019-05-18T18:11:26Z</time>
      </trkpt>
      <trkpt lat="45.59332" lon="2.34106">
        <ele>775</ele>
        <time>2019-05-18T18:11:27Z</time>
      </trkpt>
      <trkpt lat="45.5933" lon="2.34108">
        <ele>776</ele>
        <time>2019-05-18T18:11:28Z</time>
      </trkpt>
      <trkpt lat="45.5933" lon="2.34109">
        <ele>776</ele>
        <time>2019-05-18T18:11:29Z</time>
      </trkpt>
      <trkpt lat="45.59328" lon="2.34111">
        <ele>776</ele>
        <time>2019-05-18T18:11:30Z</time>
      </trkpt>
      <trkpt lat="45.59328" lon="2.34113">
        <ele>776</ele>
        <time>2019-05-18T18:11:31Z</time>
      </trkpt>
      <trkpt lat="45.59327" lon="2.34114">
        <ele>776</ele>
        <time>2019-05-18T18:11:32Z</time>
      </trkpt>
      <trkpt lat="45.59325" lon="2.34115">
        <ele>776</ele>
        <time>2019-05-18T18:11:33Z</time>
      </trkpt>
      <trkpt lat="45.59324" lon="2.34116">
        <ele>776</ele>
        <time>2019-05-18T18:11:34Z</time>
      </trkpt>
      <trkpt lat="45.59323" lon="2.34117">
        <ele>776</ele>
        <time>2019-05-18T18:11:35Z</time>
      </trkpt>
      <trkpt lat="45.59322" lon="2.34117">
        <ele>777</ele>
        <time>2019-05-18T18:11:36Z</time>
      </trkpt>
      <trkpt lat="45.59321" lon="2.34118">
        <ele>777</ele>
        <time>2019-05-18T18:11:37Z</time>
      </trkpt>
      <trkpt lat="45.59319" lon="2.3412">
        <ele>777</ele>
        <time>2019-05-18T18:11:38Z</time>
      </trkpt>
      <trkpt lat="45.59318" lon="2.34121">
        <ele>777</ele>
        <time>2019-05-18T18:11:39Z</time>
      </trkpt>
      <trkpt lat="45.59316" lon="2.34122">
        <ele>777</ele>
        <time>2019-05-18T18:11:40Z</time>
      </trkpt>
      <trkpt lat="45.59315" lon="2.34123">
        <ele>777</ele>
        <time>2019-05-18T18:11:41Z</time>
      </trkpt>
      <trkpt lat="45.59313" lon="2.34126">
        <ele>777</ele>
        <time>2019-05-18T18:11:42Z</time>
      </trkpt>
      <trkpt lat="45.59311" lon="2.34127">
        <ele>777</ele>
        <time>2019-05-18T18:11:43Z</time>
      </trkpt>
      <trkpt lat="45.59309" lon="2.34129">
        <ele>777</ele>
        <time>2019-05-18T18:11:44Z</time>
      </trkpt>
      <trkpt lat="45.59307" lon="2.3413">
        <ele>777</ele>
        <time>2019-05-18T18:11:45Z</time>
      </trkpt>
      <trkpt lat="45.59305" lon="2.3413">
        <ele>777</ele>
        <time>2019-05-18T18:11:46Z</time>
      </trkpt>
      <trkpt lat="45.59303" lon="2.3413">
        <ele>777</ele>
        <time>2019-05-18T18:11:47Z</time>
      </trkpt>
      <trkpt lat="45.593" lon="2.34131">
        <ele>776</ele>
        <time>2019-05-18T18:11:48Z</time>
      </trkpt>
      <trkpt lat="45.59297" lon="2.34132">
        <ele>776</ele>
        <time>2019-05-18T18:11:49Z</time>
      </trkpt>
      <trkpt lat="45.59294" lon="2.34135">
        <ele>776</ele>
        <time>2019-05-18T18:11:50Z</time>
      </trkpt>
      <trkpt lat="45.5929" lon="2.34137">
        <ele>776</ele>
        <time>2019-05-18T18:11:51Z</time>
      </trkpt>
      <trkpt lat="45.59287" lon="2.34141">
        <ele>776</ele>
        <time>2019-05-18T18:11:52Z</time>
      </trkpt>
      <trkpt lat="45.59286" lon="2.34144">
        <ele>775</ele>
        <time>2019-05-18T18:11:53Z</time>
      </trkpt>
      <trkpt lat="45.59284" lon="2.34146">
        <ele>775</ele>
        <time>2019-05-18T18:11:54Z</time>
      </trkpt>
      <trkpt lat="45.59282" lon="2.34148">
        <ele>775</ele>
        <time>2019-05-18T18:11:55Z</time>
      </trkpt>
      <trkpt lat="45.59279" lon="2.34149">
        <ele>775</ele>
        <time>2019-05-18T18:11:56Z</time>
      </trkpt>
      <trkpt lat="45.59277" lon="2.34151">
        <ele>775</ele>
        <time>2019-05-18T18:11:57Z</time>
      </trkpt>
      <trkpt lat="45.59275" lon="2.34153">
        <ele>775</ele>
        <time>2019-05-18T18:11:58Z</time>
      </trkpt>
      <trkpt lat="45.59273" lon="2.34154">
        <ele>775</ele>
        <time>2019-05-18T18:11:59Z</time>
      </trkpt>
      <trkpt lat="45.5927" lon="2.34156">
        <ele>775</ele>
        <time>2019-05-18T18:12:00Z</time>
      </trkpt>
      <trkpt lat="45.59269" lon="2.34158">
        <ele>775</ele>
        <time>2019-05-18T18:12:01Z</time>
      </trkpt>
      <trkpt lat="45.59267" lon="2.34159">
        <ele>776</ele>
        <time>2019-05-18T18:12:02Z</time>
      </trkpt>
      <trkpt lat="45.59265" lon="2.34159">
        <ele>776</ele>
        <time>2019-05-18T18:12:03Z</time>
      </trkpt>
      <trkpt lat="45.59264" lon="2.3416">
        <ele>776</ele>
        <time>2019-05-18T18:12:04Z</time>
      </trkpt>
      <trkpt lat="45.59262" lon="2.34161">
        <ele>776</ele>
        <time>2019-05-18T18:12:05Z</time>
      </trkpt>
      <trkpt lat="45.5926" lon="2.34162">
        <ele>776</ele>
        <time>2019-05-18T18:12:06Z</time>
      </trkpt>
      <trkpt lat="45.59258" lon="2.34163">
        <ele>776</ele>
        <time>2019-05-18T18:12:07Z</time>
      </trkpt>
      <trkpt lat="45.59257" lon="2.34164">
        <ele>776</ele>
        <time>2019-05-18T18:12:08Z</time>
      </trkpt>
      <trkpt lat="45.59255" lon="2.34166">
        <ele>776</ele>
        <time>2019-05-18T18:12:09Z</time>
      </trkpt>
      <trkpt lat="45.59254" lon="2.34167">
        <ele>777</ele>
        <time>2019-05-18T18:12:10Z</time>
      </trkpt>
      <trkpt lat="45.59253" lon="2.34169">
        <ele>777</ele>
        <time>2019-05-18T18:12:11Z</time>
      </trkpt>
      <trkpt lat="45.59251" lon="2.34171">
        <ele>777</ele>
        <time>2019-05-18T18:12:12Z</time>
      </trkpt>
      <trkpt lat="45.5925" lon="2.34173">
        <ele>777</ele>
        <time>2019-05-18T18:12:13Z</time>
      </trkpt>
      <trkpt lat="45.59249" lon="2.34175">
        <ele>777</ele>
        <time>2019-05-18T18:12:14Z</time>
      </trkpt>
      <trkpt lat="45.59247" lon="2.34178">
        <ele>777</ele>
        <time>2019-05-18T18:12:15Z</time>
      </trkpt>
      <trkpt lat="45.59245" lon="2.34179">
        <ele>777</ele>
        <time>2019-05-18T18:12:16Z</time>
      </trkpt>
      <trkpt lat="45.59244" lon="2.34182">
        <ele>777</ele>
        <time>2019-05-18T18:12:17Z</time>
      </trkpt>
      <trkpt lat="45.59241" lon="2.34184">
        <ele>777</ele>
        <time>2019-05-18T18:12:18Z</time>
      </trkpt>
      <trkpt lat="45.59239" lon="2.34186">
        <ele>778</ele>
        <time>2019-05-18T18:12:19Z</time>
      </trkpt>
      <trkpt lat="45.59237" lon="2.34188">
        <ele>778</ele>
        <time>2019-05-18T18:12:20Z</time>
      </trkpt>
      <trkpt lat="45.59235" lon="2.34189">
        <ele>778</ele>
        <time>2019-05-18T18:12:21Z</time>
      </trkpt>
      <trkpt lat="45.59233" lon="2.34192">
        <ele>778</ele>
        <time>2019-05-18T18:12:22Z</time>
      </trkpt>
      <trkpt lat="45.59231" lon="2.34195">
        <ele>778</ele>
        <time>2019-05-18T18:12:23Z</time>
      </trkpt>
      <trkpt lat="45.59229" lon="2.34197">
        <ele>778</ele>
        <time>2019-05-18T18:12:24Z</time>
      </trkpt>
      <trkpt lat="45.59228" lon="2.34197">
        <ele>778</ele>
        <time>2019-05-18T18:12:25Z</time>
      </trkpt>
      <trkpt lat="45.59227" lon="2.34198">
        <ele>779</ele>
        <time>2019-05-18T18:12:26Z</time>
      </trkpt>
      <trkpt lat="45.59225" lon="2.342">
        <ele>779</ele>
        <time>2019-05-18T18:12:27Z</time>
      </trkpt>
      <trkpt lat="45.59223" lon="2.34201">
        <ele>779</ele>
        <time>2019-05-18T18:12:28Z</time>
      </trkpt>
      <trkpt lat="45.59221" lon="2.34202">
        <ele>779</ele>
        <time>2019-05-18T18:12:29Z</time>
      </trkpt>
      <trkpt lat="45.59219" lon="2.34204">
        <ele>779</ele>
        <time>2019-05-18T18:12:30Z</time>
      </trkpt>
      <trkpt lat="45.59217" lon="2.34205">
        <ele>779</ele>
        <time>2019-05-18T18:12:31Z</time>
      </trkpt>
      <trkpt lat="45.59215" lon="2.34207">
        <ele>779</ele>
        <time>2019-05-18T18:12:32Z</time>
      </trkpt>
      <trkpt lat="45.59213" lon="2.34209">
        <ele>779</ele>
        <time>2019-05-18T18:12:33Z</time>
      </trkpt>
      <trkpt lat="45.59211" lon="2.34211">
        <ele>779</ele>
        <time>2019-05-18T18:12:34Z</time>
      </trkpt>
      <trkpt lat="45.5921" lon="2.34213">
        <ele>780</ele>
        <time>2019-05-18T18:12:35Z</time>
      </trkpt>
      <trkpt lat="45.59208" lon="2.34214">
        <ele>780</ele>
        <time>2019-05-18T18:12:36Z</time>
      </trkpt>
      <trkpt lat="45.59207" lon="2.34216">
        <ele>780</ele>
        <time>2019-05-18T18:12:37Z</time>
      </trkpt>
      <trkpt lat="45.59205" lon="2.34218">
        <ele>780</ele>
        <time>2019-05-18T18:12:38Z</time>
      </trkpt>
      <trkpt lat="45.59203" lon="2.3422">
        <ele>780</ele>
        <time>2019-05-18T18:12:39Z</time>
      </trkpt>
      <trkpt lat="45.59201" lon="2.34224">
        <ele>780</ele>
        <time>2019-05-18T18:12:40Z</time>
      </trkpt>
      <trkpt lat="45.59199" lon="2.34227">
        <ele>780</ele>
        <time>2019-05-18T18:12:41Z</time>
      </trkpt>
      <trkpt lat="45.59198" lon="2.34229">
        <ele>780</ele>
        <time>2019-05-18T18:12:42Z</time>
      </trkpt>
      <trkpt lat="45.59196" lon="2.34231">
        <ele>780</ele>
        <time>2019-05-18T18:12:43Z</time>
      </trkpt>
      <trkpt lat="45.59195" lon="2.34233">
        <ele>780</ele>
        <time>2019-05-18T18:12:44Z</time>
      </trkpt>
      <trkpt lat="45.59193" lon="2.34235">
        <ele>780</ele>
        <time>2019-05-18T18:12:45Z</time>
      </trkpt>
      <trkpt lat="45.59191" lon="2.34238">
        <ele>780</ele>
        <time>2019-05-18T18:12:46Z</time>
      </trkpt>
      <trkpt lat="45.59189" lon="2.34239">
        <ele>780</ele>
        <time>2019-05-18T18:12:47Z</time>
      </trkpt>
      <trkpt lat="45.59188" lon="2.34241">
        <ele>780</ele>
        <time>2019-05-18T18:12:48Z</time>
      </trkpt>
      <trkpt lat="45.59186" lon="2.34242">
        <ele>780</ele>
        <time>2019-05-18T18:12:49Z</time>
      </trkpt>
      <trkpt lat="45.59184" lon="2.34244">
        <ele>780</ele>
        <time>2019-05-18T18:12:50Z</time>
      </trkpt>
      <trkpt lat="45.59182" lon="2.34246">
        <ele>780</ele>
        <time>2019-05-18T18:12:51Z</time>
      </trkpt>
      <trkpt lat="45.5918" lon="2.34248">
        <ele>780</ele>
        <time>2019-05-18T18:12:52Z</time>
      </trkpt>
      <trkpt lat="45.59179" lon="2.3425">
        <ele>780</ele>
        <time>2019-05-18T18:12:53Z</time>
      </trkpt>
      <trkpt lat="45.59177" lon="2.34252">
        <ele>780</ele>
        <time>2019-05-18T18:12:54Z</time>
      </trkpt>
      <trkpt lat="45.59175" lon="2.34254">
        <ele>780</ele>
        <time>2019-05-18T18:12:55Z</time>
      </trkpt>
      <trkpt lat="45.59173" lon="2.34256">
        <ele>780</ele>
        <time>2019-05-18T18:12:56Z</time>
      </trkpt>
      <trkpt lat="45.59171" lon="2.34257">
        <ele>781</ele>
        <time>2019-05-18T18:12:57Z</time>
      </trkpt>
      <trkpt lat="45.59169" lon="2.3426">
        <ele>781</ele>
        <time>2019-05-18T18:12:58Z</time>
      </trkpt>
      <trkpt lat="45.59167" lon="2.34261">
        <ele>781</ele>
        <time>2019-05-18T18:12:59Z</time>
      </trkpt>
      <trkpt lat="45.59165" lon="2.34263">
        <ele>781</ele>
        <time>2019-05-18T18:13:00Z</time>
      </trkpt>
      <trkpt lat="45.59163" lon="2.34266">
        <ele>781</ele>
        <time>2019-05-18T18:13:01Z</time>
      </trkpt>
      <trkpt lat="45.59161" lon="2.34268">
        <ele>781</ele>
        <time>2019-05-18T18:13:02Z</time>
      </trkpt>
      <trkpt lat="45.59159" lon="2.3427">
        <ele>781</ele>
        <time>2019-05-18T18:13:03Z</time>
      </trkpt>
      <trkpt lat="45.59157" lon="2.34272">
        <ele>781</ele>
        <time>2019-05-18T18:13:04Z</time>
      </trkpt>
      <trkpt lat="45.59155" lon="2.34274">
        <ele>781</ele>
        <time>2019-05-18T18:13:05Z</time>
      </trkpt>
      <trkpt lat="45.59153" lon="2.34276">
        <ele>781</ele>
        <time>2019-05-18T18:13:06Z</time>
      </trkpt>
      <trkpt lat="45.59151" lon="2.34278">
        <ele>782</ele>
        <time>2019-05-18T18:13:07Z</time>
      </trkpt>
      <trkpt lat="45.59149" lon="2.3428">
        <ele>782</ele>
        <time>2019-05-18T18:13:08Z</time>
      </trkpt>
      <trkpt lat="45.59147" lon="2.34281">
        <ele>782</ele>
        <time>2019-05-18T18:13:09Z</time>
      </trkpt>
      <trkpt lat="45.59145" lon="2.34283">
        <ele>782</ele>
        <time>2019-05-18T18:13:10Z</time>
      </trkpt>
      <trkpt lat="45.59144" lon="2.34286">
        <ele>782</ele>
        <time>2019-05-18T18:13:11Z</time>
      </trkpt>
      <trkpt lat="45.59142" lon="2.34288">
        <ele>782</ele>
        <time>2019-05-18T18:13:12Z</time>
      </trkpt>
      <trkpt lat="45.5914" lon="2.34288">
        <ele>782</ele>
        <time>2019-05-18T18:13:13Z</time>
      </trkpt>
      <trkpt lat="45.59139" lon="2.34289">
        <ele>783</ele>
        <time>2019-05-18T18:13:14Z</time>
      </trkpt>
      <trkpt lat="45.59137" lon="2.34291">
        <ele>783</ele>
        <time>2019-05-18T18:13:15Z</time>
      </trkpt>
      <trkpt lat="45.59136" lon="2.34292">
        <ele>783</ele>
        <time>2019-05-18T18:13:16Z</time>
      </trkpt>
      <trkpt lat="45.59135" lon="2.34293">
        <ele>783</ele>
        <time>2019-05-18T18:13:17Z</time>
      </trkpt>
      <trkpt lat="45.59133" lon="2.34295">
        <ele>783</ele>
        <time>2019-05-18T18:13:18Z</time>
      </trkpt>
      <trkpt lat="45.59131" lon="2.34297">
        <ele>783</ele>
        <time>2019-05-18T18:13:19Z</time>
      </trkpt>
      <trkpt lat="45.5913" lon="2.34299">
        <ele>783</ele>
        <time>2019-05-18T18:13:20Z</time>
      </trkpt>
      <trkpt lat="45.59128" lon="2.34301">
        <ele>783</ele>
        <time>2019-05-18T18:13:21Z</time>
      </trkpt>
      <trkpt lat="45.59126" lon="2.34303">
        <ele>783</ele>
        <time>2019-05-18T18:13:22Z</time>
      </trkpt>
      <trkpt lat="45.59125" lon="2.34305">
        <ele>784</ele>
        <time>2019-05-18T18:13:23Z</time>
      </trkpt>
      <trkpt lat="45.59123" lon="2.34306">
        <ele>784</ele>
        <time>2019-05-18T18:13:24Z</time>
      </trkpt>
      <trkpt lat="45.59122" lon="2.34307">
        <ele>784</ele>
        <time>2019-05-18T18:13:25Z</time>
      </trkpt>
      <trkpt lat="45.5912" lon="2.34309">
        <ele>784</ele>
        <time>2019-05-18T18:13:26Z</time>
      </trkpt>
      <trkpt lat="45.59118" lon="2.3431">
        <ele>784</ele>
        <time>2019-05-18T18:13:27Z</time>
      </trkpt>
      <trkpt lat="45.59117" lon="2.34311">
        <ele>784</ele>
        <time>2019-05-18T18:13:28Z</time>
      </trkpt>
      <trkpt lat="45.59115" lon="2.34312">
        <ele>785</ele>
        <time>2019-05-18T18:13:29Z</time>
      </trkpt>
      <trkpt lat="45.59114" lon="2.34314">
        <ele>785</ele>
        <time>2019-05-18T18:13:30Z</time>
      </trkpt>
      <trkpt lat="45.59112" lon="2.34316">
        <ele>785</ele>
        <time>2019-05-18T18:13:31Z</time>
      </trkpt>
      <trkpt lat="45.5911" lon="2.34316">
        <ele>785</ele>
        <time>2019-05-18T18:13:32Z</time>
      </trkpt>
      <trkpt lat="45.59109" lon="2.34317">
        <ele>785</ele>
        <time>2019-05-18T18:13:33Z</time>
      </trkpt>
      <trkpt lat="45.59107" lon="2.34318">
        <ele>785</ele>
        <time>2019-05-18T18:13:34Z</time>
      </trkpt>
      <trkpt lat="45.59105" lon="2.34319">
        <ele>786</ele>
        <time>2019-05-18T18:13:35Z</time>
      </trkpt>
      <trkpt lat="45.59103" lon="2.34319">
        <ele>786</ele>
        <time>2019-05-18T18:13:36Z</time>
      </trkpt>
      <trkpt lat="45.59101" lon="2.3432">
        <ele>786</ele>
        <time>2019-05-18T18:13:37Z</time>
      </trkpt>
      <trkpt lat="45.591" lon="2.3432">
        <ele>786</ele>
        <time>2019-05-18T18:13:38Z</time>
      </trkpt>
      <trkpt lat="45.59098" lon="2.3432">
        <ele>786</ele>
        <time>2019-05-18T18:13:39Z</time>
      </trkpt>
      <trkpt lat="45.59097" lon="2.34321">
        <ele>786</ele>
        <time>2019-05-18T18:13:40Z</time>
      </trkpt>
      <trkpt lat="45.59095" lon="2.34322">
        <ele>787</ele>
        <time>2019-05-18T18:13:41Z</time>
      </trkpt>
      <trkpt lat="45.59093" lon="2.34321">
        <ele>787</ele>
        <time>2019-05-18T18:13:42Z</time>
      </trkpt>
      <trkpt lat="45.59091" lon="2.34322">
        <ele>787</ele>
        <time>2019-05-18T18:13:43Z</time>
      </trkpt>
      <trkpt lat="45.59089" lon="2.34322">
        <ele>787</ele>
        <time>2019-05-18T18:13:44Z</time>
      </trkpt>
      <trkpt lat="45.59088" lon="2.34322">
        <ele>787</ele>
        <time>2019-05-18T18:13:45Z</time>
      </trkpt>
      <trkpt lat="45.59086" lon="2.34323">
        <ele>787</ele>
        <time>2019-05-18T18:13:46Z</time>
      </trkpt>
      <trkpt lat="45.59084" lon="2.34323">
        <ele>787</ele>
        <time>2019-05-18T18:13:47Z</time>
      </trkpt>
      <trkpt lat="45.59082" lon="2.34323">
        <ele>787</ele>
        <time>2019-05-18T18:13:48Z</time>
      </trkpt>
      <trkpt lat="45.5908" lon="2.34324">
        <ele>788</ele>
        <time>2019-05-18T18:13:49Z</time>
      </trkpt>
      <trkpt lat="45.59079" lon="2.34324">
        <ele>788</ele>
        <time>2019-05-18T18:13:50Z</time>
      </trkpt>
      <trkpt lat="45.59077" lon="2.34324">
        <ele>788</ele>
        <time>2019-05-18T18:13:51Z</time>
      </trkpt>
      <trkpt lat="45.59075" lon="2.34325">
        <ele>788</ele>
        <time>2019-05-18T18:13:52Z</time>
      </trkpt>
      <trkpt lat="45.59073" lon="2.34326">
        <ele>788</ele>
        <time>2019-05-18T18:13:53Z</time>
      </trkpt>
      <trkpt lat="45.59072" lon="2.34326">
        <ele>788</ele>
        <time>2019-05-18T18:13:54Z</time>
      </trkpt>
      <trkpt lat="45.59071" lon="2.34326">
        <ele>788</ele>
        <time>2019-05-18T18:13:55Z</time>
      </trkpt>
      <trkpt lat="45.59069" lon="2.34326">
        <ele>788</ele>
        <time>2019-05-18T18:13:56Z</time>
      </trkpt>
      <trkpt lat="45.59067" lon="2.34326">
        <ele>788</ele>
        <time>2019-05-18T18:13:57Z</time>
      </trkpt>
      <trkpt lat="45.59066" lon="2.34326">
        <ele>788</ele>
        <time>2019-05-18T18:13:58Z</time>
      </trkpt>
      <trkpt lat="45.59064" lon="2.34327">
        <ele>788</ele>
        <time>2019-05-18T18:13:59Z</time>
      </trkpt>
      <trkpt lat="45.59063" lon="2.34326">
        <ele>788</ele>
        <time>2019-05-18T18:14:00Z</time>
      </trkpt>
      <trkpt lat="45.59062" lon="2.34326">
        <ele>789</ele>
        <time>2019-05-18T18:14:01Z</time>
      </trkpt>
      <trkpt lat="45.5906" lon="2.34326">
        <ele>789</ele>
        <time>2019-05-18T18:14:02Z</time>
      </trkpt>
      <trkpt lat="45.59058" lon="2.34326">
        <ele>789</ele>
        <time>2019-05-18T18:14:03Z</time>
      </trkpt>
      <trkpt lat="45.59057" lon="2.34327">
        <ele>789</ele>
        <time>2019-05-18T18:14:04Z</time>
      </trkpt>
      <trkpt lat="45.59056" lon="2.34327">
        <ele>789</ele>
        <time>2019-05-18T18:14:05Z</time>
      </trkpt>
      <trkpt lat="45.59054" lon="2.34327">
        <ele>789</ele>
        <time>2019-05-18T18:14:06Z</time>
      </trkpt>
      <trkpt lat="45.59053" lon="2.34326">
        <ele>789</ele>
        <time>2019-05-18T18:14:07Z</time>
      </trkpt>
      <trkpt lat="45.59051" lon="2.34327">
        <ele>789</ele>
        <time>2019-05-18T18:14:08Z</time>
      </trkpt>
      <trkpt lat="45.5905" lon="2.34327">
        <ele>789</ele>
        <time>2019-05-18T18:14:09Z</time>
      </trkpt>
      <trkpt lat="45.59048" lon="2.34327">
        <ele>789</ele>
        <time>2019-05-18T18:14:10Z</time>
      </trkpt>
      <trkpt lat="45.59046" lon="2.34328">
        <ele>789</ele>
        <time>2019-05-18T18:14:11Z</time>
      </trkpt>
      <trkpt lat="45.59044" lon="2.34328">
        <ele>789</ele>
        <time>2019-05-18T18:14:12Z</time>
      </trkpt>
      <trkpt lat="45.59042" lon="2.34329">
        <ele>790</ele>
        <time>2019-05-18T18:14:13Z</time>
      </trkpt>
      <trkpt lat="45.5904" lon="2.34329">
        <ele>790</ele>
        <time>2019-05-18T18:14:14Z</time>
      </trkpt>
      <trkpt lat="45.59038" lon="2.3433">
        <ele>790</ele>
        <time>2019-05-18T18:14:15Z</time>
      </trkpt>
      <trkpt lat="45.59035" lon="2.3433">
        <ele>790</ele>
        <time>2019-05-18T18:14:16Z</time>
      </trkpt>
      <trkpt lat="45.59033" lon="2.3433">
        <ele>790</ele>
        <time>2019-05-18T18:14:17Z</time>
      </trkpt>
      <trkpt lat="45.59031" lon="2.34329">
        <ele>790</ele>
        <time>2019-05-18T18:14:18Z</time>
      </trkpt>
      <trkpt lat="45.59029" lon="2.3433">
        <ele>790</ele>
        <time>2019-05-18T18:14:19Z</time>
      </trkpt>
      <trkpt lat="45.59027" lon="2.34331">
        <ele>790</ele>
        <time>2019-05-18T18:14:20Z</time>
      </trkpt>
      <trkpt lat="45.59024" lon="2.34332">
        <ele>790</ele>
        <time>2019-05-18T18:14:21Z</time>
      </trkpt>
      <trkpt lat="45.59022" lon="2.34333">
        <ele>790</ele>
        <time>2019-05-18T18:14:22Z</time>
      </trkpt>
      <trkpt lat="45.59019" lon="2.34333">
        <ele>790</ele>
        <time>2019-05-18T18:14:23Z</time>
      </trkpt>
      <trkpt lat="45.59018" lon="2.34334">
        <ele>790</ele>
        <time>2019-05-18T18:14:24Z</time>
      </trkpt>
      <trkpt lat="45.59016" lon="2.34334">
        <ele>790</ele>
        <time>2019-05-18T18:14:25Z</time>
      </trkpt>
      <trkpt lat="45.59014" lon="2.34334">
        <ele>790</ele>
        <time>2019-05-18T18:14:26Z</time>
      </trkpt>
      <trkpt lat="45.59013" lon="2.34334">
        <ele>790</ele>
        <time>2019-05-18T18:14:27Z</time>
      </trkpt>
      <trkpt lat="45.59011" lon="2.34335">
        <ele>790</ele>
        <time>2019-05-18T18:14:28Z</time>
      </trkpt>
      <trkpt lat="45.5901" lon="2.34335">
        <ele>790</ele>
        <time>2019-05-18T18:14:29Z</time>
      </trkpt>
      <trkpt lat="45.59008" lon="2.34336">
        <ele>791</ele>
        <time>2019-05-18T18:14:30Z</time>
      </trkpt>
      <trkpt lat="45.59006" lon="2.34336">
        <ele>791</ele>
        <time>2019-05-18T18:14:31Z</time>
      </trkpt>
      <trkpt lat="45.59004" lon="2.34337">
        <ele>791</ele>
        <time>2019-05-18T18:14:32Z</time>
      </trkpt>
      <trkpt lat="45.59002" lon="2.34337">
        <ele>791</ele>
        <time>2019-05-18T18:14:33Z</time>
      </trkpt>
      <trkpt lat="45.59" lon="2.34337">
        <ele>791</ele>
        <time>2019-05-18T18:14:34Z</time>
      </trkpt>
      <trkpt lat="45.58998" lon="2.34338">
        <ele>791</ele>
        <time>2019-05-18T18:14:35Z</time>
      </trkpt>
      <trkpt lat="45.58996" lon="2.34338">
        <ele>792</ele>
        <time>2019-05-18T18:14:36Z</time>
      </trkpt>
      <trkpt lat="45.58994" lon="2.34337">
        <ele>792</ele>
        <time>2019-05-18T18:14:37Z</time>
      </trkpt>
      <trkpt lat="45.58992" lon="2.34337">
        <ele>792</ele>
        <time>2019-05-18T18:14:38Z</time>
      </trkpt>
      <trkpt lat="45.5899" lon="2.34337">
        <ele>792</ele>
        <time>2019-05-18T18:14:39Z</time>
      </trkpt>
      <trkpt lat="45.58988" lon="2.34337">
        <ele>793</ele>
        <time>2019-05-18T18:14:40Z</time>
      </trkpt>
      <trkpt lat="45.58987" lon="2.34338">
        <ele>793</ele>
        <time>2019-05-18T18:14:41Z</time>
      </trkpt>
      <trkpt lat="45.58985" lon="2.34338">
        <ele>793</ele>
        <time>2019-05-18T18:14:42Z</time>
      </trkpt>
      <trkpt lat="45.58983" lon="2.34338">
        <ele>793</ele>
        <time>2019-05-18T18:14:43Z</time>
      </trkpt>
      <trkpt lat="45.58982" lon="2.34339">
        <ele>793</ele>
        <time>2019-05-18T18:14:44Z</time>
      </trkpt>
      <trkpt lat="45.58979" lon="2.34339">
        <ele>793</ele>
        <time>2019-05-18T18:14:45Z</time>
      </trkpt>
      <trkpt lat="45.58977" lon="2.3434">
        <ele>794</ele>
        <time>2019-05-18T18:14:46Z</time>
      </trkpt>
      <trkpt lat="45.58976" lon="2.34341">
        <ele>794</ele>
        <time>2019-05-18T18:14:47Z</time>
      </trkpt>
      <trkpt lat="45.58974" lon="2.34341">
        <ele>794</ele>
        <time>2019-05-18T18:14:48Z</time>
      </trkpt>
      <trkpt lat="45.58972" lon="2.34342">
        <ele>794</ele>
        <time>2019-05-18T18:14:49Z</time>
      </trkpt>
      <trkpt lat="45.5897" lon="2.34342">
        <ele>794</ele>
        <time>2019-05-18T18:14:50Z</time>
      </trkpt>
      <trkpt lat="45.58969" lon="2.34342">
        <ele>795</ele>
        <time>2019-05-18T18:14:51Z</time>
      </trkpt>
      <trkpt lat="45.58967" lon="2.34342">
        <ele>795</ele>
        <time>2019-05-18T18:14:52Z</time>
      </trkpt>
      <trkpt lat="45.58966" lon="2.34343">
        <ele>795</ele>
        <time>2019-05-18T18:14:53Z</time>
      </trkpt>
      <trkpt lat="45.58965" lon="2.34343">
        <ele>795</ele>
        <time>2019-05-18T18:14:54Z</time>
      </trkpt>
      <trkpt lat="45.58964" lon="2.34344">
        <ele>795</ele>
        <time>2019-05-18T18:14:55Z</time>
      </trkpt>
      <trkpt lat="45.58962" lon="2.34344">
        <ele>795</ele>
        <time>2019-05-18T18:14:56Z</time>
      </trkpt>
      <trkpt lat="45.58961" lon="2.34344">
        <ele>796</ele>
        <time>2019-05-18T18:14:57Z</time>
      </trkpt>
      <trkpt lat="45.5896" lon="2.34343">
        <ele>796</ele>
        <time>2019-05-18T18:14:58Z</time>
      </trkpt>
      <trkpt lat="45.58958" lon="2.34344">
        <ele>796</ele>
        <time>2019-05-18T18:14:59Z</time>
      </trkpt>
      <trkpt lat="45.58956" lon="2.34345">
        <ele>796</ele>
        <time>2019-05-18T18:15:00Z</time>
      </trkpt>
      <trkpt lat="45.58955" lon="2.34346">
        <ele>796</ele>
        <time>2019-05-18T18:15:01Z</time>
      </trkpt>
      <trkpt lat="45.58953" lon="2.34346">
        <ele>796</ele>
        <time>2019-05-18T18:15:02Z</time>
      </trkpt>
      <trkpt lat="45.58952" lon="2.34347">
        <ele>796</ele>
        <time>2019-05-18T18:15:03Z</time>
      </trkpt>
      <trkpt lat="45.58951" lon="2.34346">
        <ele>797</ele>
        <time>2019-05-18T18:15:04Z</time>
      </trkpt>
      <trkpt lat="45.58949" lon="2.34346">
        <ele>797</ele>
        <time>2019-05-18T18:15:05Z</time>
      </trkpt>
      <trkpt lat="45.58948" lon="2.34346">
        <ele>797</ele>
        <time>2019-05-18T18:15:06Z</time>
      </trkpt>
      <trkpt lat="45.58945" lon="2.34346">
        <ele>797</ele>
        <time>2019-05-18T18:15:07Z</time>
      </trkpt>
      <trkpt lat="45.58944" lon="2.34347">
        <ele>797</ele>
        <time>2019-05-18T18:15:08Z</time>
      </trkpt>
      <trkpt lat="45.58943" lon="2.34348">
        <ele>797</ele>
        <time>2019-05-18T18:15:09Z</time>
      </trkpt>
      <trkpt lat="45.58941" lon="2.34349">
        <ele>797</ele>
        <time>2019-05-18T18:15:10Z</time>
      </trkpt>
      <trkpt lat="45.5894" lon="2.3435">
        <ele>797</ele>
        <time>2019-05-18T18:15:11Z</time>
      </trkpt>
      <trkpt lat="45.58938" lon="2.34351">
        <ele>797</ele>
        <time>2019-05-18T18:15:12Z</time>
      </trkpt>
      <trkpt lat="45.58937" lon="2.34352">
        <ele>797</ele>
        <time>2019-05-18T18:15:13Z</time>
      </trkpt>
      <trkpt lat="45.58936" lon="2.34354">
        <ele>798</ele>
        <time>2019-05-18T18:15:14Z</time>
      </trkpt>
      <trkpt lat="45.58934" lon="2.34355">
        <ele>798</ele>
        <time>2019-05-18T18:15:15Z</time>
      </trkpt>
      <trkpt lat="45.58933" lon="2.34356">
        <ele>798</ele>
        <time>2019-05-18T18:15:16Z</time>
      </trkpt>
      <trkpt lat="45.58932" lon="2.34359">
        <ele>797</ele>
        <time>2019-05-18T18:15:17Z</time>
      </trkpt>
      <trkpt lat="45.5893" lon="2.3436">
        <ele>797</ele>
        <time>2019-05-18T18:15:18Z</time>
      </trkpt>
      <trkpt lat="45.5893" lon="2.34362">
        <ele>797</ele>
        <time>2019-05-18T18:15:19Z</time>
      </trkpt>
      <trkpt lat="45.58928" lon="2.34363">
        <ele>797</ele>
        <time>2019-05-18T18:15:20Z</time>
      </trkpt>
      <trkpt lat="45.58926" lon="2.34365">
        <ele>797</ele>
        <time>2019-05-18T18:15:21Z</time>
      </trkpt>
      <trkpt lat="45.58924" lon="2.34367">
        <ele>797</ele>
        <time>2019-05-18T18:15:22Z</time>
      </trkpt>
      <trkpt lat="45.58922" lon="2.34368">
        <ele>797</ele>
        <time>2019-05-18T18:15:23Z</time>
      </trkpt>
      <trkpt lat="45.58919" lon="2.34369">
        <ele>797</ele>
        <time>2019-05-18T18:15:24Z</time>
      </trkpt>
      <trkpt lat="45.58917" lon="2.34371">
        <ele>798</ele>
        <time>2019-05-18T18:15:25Z</time>
      </trkpt>
      <trkpt lat="45.58915" lon="2.34373">
        <ele>798</ele>
        <time>2019-05-18T18:15:26Z</time>
      </trkpt>
      <trkpt lat="45.58914" lon="2.34374">
        <ele>798</ele>
        <time>2019-05-18T18:15:27Z</time>
      </trkpt>
      <trkpt lat="45.58912" lon="2.34377">
        <ele>798</ele>
        <time>2019-05-18T18:15:28Z</time>
      </trkpt>
      <trkpt lat="45.58911" lon="2.34379">
        <ele>798</ele>
        <time>2019-05-18T18:15:29Z</time>
      </trkpt>
      <trkpt lat="45.58909" lon="2.34381">
        <ele>798</ele>
        <time>2019-05-18T18:15:30Z</time>
      </trkpt>
      <trkpt lat="45.58908" lon="2.34384">
        <ele>798</ele>
        <time>2019-05-18T18:15:31Z</time>
      </trkpt>
      <trkpt lat="45.58906" lon="2.34386">
        <ele>798</ele>
        <time>2019-05-18T18:15:32Z</time>
      </trkpt>
      <trkpt lat="45.58905" lon="2.34387">
        <ele>798</ele>
        <time>2019-05-18T18:15:33Z</time>
      </trkpt>
      <trkpt lat="45.58903" lon="2.34389">
        <ele>798</ele>
        <time>2019-05-18T18:15:34Z</time>
      </trkpt>
      <trkpt lat="45.58902" lon="2.34391">
        <ele>798</ele>
        <time>2019-05-18T18:15:35Z</time>
      </trkpt>
      <trkpt lat="45.58901" lon="2.34392">
        <ele>799</ele>
        <time>2019-05-18T18:15:36Z</time>
      </trkpt>
      <trkpt lat="45.589" lon="2.34393">
        <ele>799</ele>
        <time>2019-05-18T18:15:37Z</time>
      </trkpt>
      <trkpt lat="45.58899" lon="2.34394">
        <ele>799</ele>
        <time>2019-05-18T18:15:38Z</time>
      </trkpt>
      <trkpt lat="45.58898" lon="2.34396">
        <ele>799</ele>
        <time>2019-05-18T18:15:39Z</time>
      </trkpt>
      <trkpt lat="45.58897" lon="2.34398">
        <ele>799</ele>
        <time>2019-05-18T18:15:40Z</time>
      </trkpt>
      <trkpt lat="45.58895" lon="2.344">
        <ele>799</ele>
        <time>2019-05-18T18:15:41Z</time>
      </trkpt>
      <trkpt lat="45.58894" lon="2.34401">
        <ele>800</ele>
        <time>2019-05-18T18:15:42Z</time>
      </trkpt>
      <trkpt lat="45.58893" lon="2.34402">
        <ele>800</ele>
        <time>2019-05-18T18:15:43Z</time>
      </trkpt>
      <trkpt lat="45.58892" lon="2.34403">
        <ele>800</ele>
        <time>2019-05-18T18:15:44Z</time>
      </trkpt>
      <trkpt lat="45.58892" lon="2.34404">
        <ele>800</ele>
        <time>2019-05-18T18:15:45Z</time>
      </trkpt>
      <trkpt lat="45.5889" lon="2.34404">
        <ele>800</ele>
        <time>2019-05-18T18:15:46Z</time>
      </trkpt>
      <trkpt lat="45.58889" lon="2.34407">
        <ele>801</ele>
        <time>2019-05-18T18:15:47Z</time>
      </trkpt>
      <trkpt lat="45.58887" lon="2.34409">
        <ele>801</ele>
        <time>2019-05-18T18:15:48Z</time>
      </trkpt>
      <trkpt lat="45.58885" lon="2.3441">
        <ele>801</ele>
        <time>2019-05-18T18:15:49Z</time>
      </trkpt>
      <trkpt lat="45.58884" lon="2.34412">
        <ele>801</ele>
        <time>2019-05-18T18:15:50Z</time>
      </trkpt>
      <trkpt lat="45.58882" lon="2.34413">
        <ele>801</ele>
        <time>2019-05-18T18:15:51Z</time>
      </trkpt>
      <trkpt lat="45.5888" lon="2.34414">
        <ele>802</ele>
        <time>2019-05-18T18:15:52Z</time>
      </trkpt>
      <trkpt lat="45.58879" lon="2.34414">
        <ele>802</ele>
        <time>2019-05-18T18:15:53Z</time>
      </trkpt>
      <trkpt lat="45.58878" lon="2.34414">
        <ele>802</ele>
        <time>2019-05-18T18:15:54Z</time>
      </trkpt>
      <trkpt lat="45.58877" lon="2.34412">
        <ele>802</ele>
        <time>2019-05-18T18:15:55Z</time>
      </trkpt>
      <trkpt lat="45.58877" lon="2.34411">
        <ele>802</ele>
        <time>2019-05-18T18:15:56Z</time>
      </trkpt>
      <trkpt lat="45.58876" lon="2.34409">
        <ele>802</ele>
        <time>2019-05-18T18:15:57Z</time>
      </trkpt>
      <trkpt lat="45.58875" lon="2.34407">
        <ele>802</ele>
        <time>2019-05-18T18:15:58Z</time>
      </trkpt>
      <trkpt lat="45.58873" lon="2.34405">
        <ele>802</ele>
        <time>2019-05-18T18:15:59Z</time>
      </trkpt>
      <trkpt lat="45.58872" lon="2.34404">
        <ele>802</ele>
        <time>2019-05-18T18:16:00Z</time>
      </trkpt>
      <trkpt lat="45.58872" lon="2.34404">
        <ele>802</ele>
        <time>2019-05-18T18:16:01Z</time>
      </trkpt>
      <trkpt lat="45.58872" lon="2.34403">
        <ele>802</ele>
        <time>2019-05-18T18:16:02Z</time>
      </trkpt>
      <trkpt lat="45.5887" lon="2.34401">
        <ele>802</ele>
        <time>2019-05-18T18:16:03Z</time>
      </trkpt>
      <trkpt lat="45.58869" lon="2.344">
        <ele>802</ele>
        <time>2019-05-18T18:16:04Z</time>
      </trkpt>
      <trkpt lat="45.58867" lon="2.34399">
        <ele>802</ele>
        <time>2019-05-18T18:16:05Z</time>
      </trkpt>
      <trkpt lat="45.58866" lon="2.34398">
        <ele>802</ele>
        <time>2019-05-18T18:16:06Z</time>
      </trkpt>
      <trkpt lat="45.58865" lon="2.34397">
        <ele>802</ele>
        <time>2019-05-18T18:16:07Z</time>
      </trkpt>
      <trkpt lat="45.58864" lon="2.34396">
        <ele>802</ele>
        <time>2019-05-18T18:16:08Z</time>
      </trkpt>
      <trkpt lat="45.58863" lon="2.34394">
        <ele>802</ele>
        <time>2019-05-18T18:16:09Z</time>
      </trkpt>
      <trkpt lat="45.58863" lon="2.34392">
        <ele>802</ele>
        <time>2019-05-18T18:16:10Z</time>
      </trkpt>
      <trkpt lat="45.58862" lon="2.3439">
        <ele>802</ele>
        <time>2019-05-18T18:16:11Z</time>
      </trkpt>
      <trkpt lat="45.5886" lon="2.34386">
        <ele>801</ele>
        <time>2019-05-18T18:16:13Z</time>
      </trkpt>
      <trkpt lat="45.58856" lon="2.34379">
        <ele>801</ele>
        <time>2019-05-18T18:16:14Z</time>
      </trkpt>
      <trkpt lat="45.58854" lon="2.34377">
        <ele>801</ele>
        <time>2019-05-18T18:16:15Z</time>
      </trkpt>
      <trkpt lat="45.58853" lon="2.34374">
        <ele>801</ele>
        <time>2019-05-18T18:16:16Z</time>
      </trkpt>
      <trkpt lat="45.58852" lon="2.3437">
        <ele>801</ele>
        <time>2019-05-18T18:16:17Z</time>
      </trkpt>
      <trkpt lat="45.5885" lon="2.34365">
        <ele>800</ele>
        <time>2019-05-18T18:16:18Z</time>
      </trkpt>
      <trkpt lat="45.5885" lon="2.34359">
        <ele>800</ele>
        <time>2019-05-18T18:16:19Z</time>
      </trkpt>
      <trkpt lat="45.58849" lon="2.34355">
        <ele>800</ele>
        <time>2019-05-18T18:16:20Z</time>
      </trkpt>
      <trkpt lat="45.58848" lon="2.3435">
        <ele>800</ele>
        <time>2019-05-18T18:16:21Z</time>
      </trkpt>
      <trkpt lat="45.58847" lon="2.34345">
        <ele>800</ele>
        <time>2019-05-18T18:16:22Z</time>
      </trkpt>
      <trkpt lat="45.58846" lon="2.3434">
        <ele>799</ele>
        <time>2019-05-18T18:16:23Z</time>
      </trkpt>
      <trkpt lat="45.58845" lon="2.34334">
        <ele>799</ele>
        <time>2019-05-18T18:16:24Z</time>
      </trkpt>
      <trkpt lat="45.58844" lon="2.34328">
        <ele>799</ele>
        <time>2019-05-18T18:16:25Z</time>
      </trkpt>
      <trkpt lat="45.58841" lon="2.34322">
        <ele>799</ele>
        <time>2019-05-18T18:16:26Z</time>
      </trkpt>
      <trkpt lat="45.58841" lon="2.34318">
        <ele>798</ele>
        <time>2019-05-18T18:16:27Z</time>
      </trkpt>
      <trkpt lat="45.5884" lon="2.34315">
        <ele>798</ele>
        <time>2019-05-18T18:16:28Z</time>
      </trkpt>
      <trkpt lat="45.58839" lon="2.34312">
        <ele>798</ele>
        <time>2019-05-18T18:16:29Z</time>
      </trkpt>
      <trkpt lat="45.58839" lon="2.3431">
        <ele>798</ele>
        <time>2019-05-18T18:16:30Z</time>
      </trkpt>
      <trkpt lat="45.58837" lon="2.34308">
        <ele>798</ele>
        <time>2019-05-18T18:16:31Z</time>
      </trkpt>
      <trkpt lat="45.58836" lon="2.34306">
        <ele>798</ele>
        <time>2019-05-18T18:16:32Z</time>
      </trkpt>
      <trkpt lat="45.58836" lon="2.34305">
        <ele>798</ele>
        <time>2019-05-18T18:16:33Z</time>
      </trkpt>
      <trkpt lat="45.58835" lon="2.34303">
        <ele>797</ele>
        <time>2019-05-18T18:16:34Z</time>
      </trkpt>
      <trkpt lat="45.58834" lon="2.34299">
        <ele>797</ele>
        <time>2019-05-18T18:16:35Z</time>
      </trkpt>
      <trkpt lat="45.58833" lon="2.34295">
        <ele>797</ele>
        <time>2019-05-18T18:16:36Z</time>
      </trkpt>
      <trkpt lat="45.58833" lon="2.34289">
        <ele>796</ele>
        <time>2019-05-18T18:16:37Z</time>
      </trkpt>
      <trkpt lat="45.58833" lon="2.34284">
        <ele>796</ele>
        <time>2019-05-18T18:16:38Z</time>
      </trkpt>
      <trkpt lat="45.58833" lon="2.34278">
        <ele>796</ele>
        <time>2019-05-18T18:16:39Z</time>
      </trkpt>
      <trkpt lat="45.58832" lon="2.34273">
        <ele>795</ele>
        <time>2019-05-18T18:16:40Z</time>
      </trkpt>
      <trkpt lat="45.58831" lon="2.34265">
        <ele>795</ele>
        <time>2019-05-18T18:16:41Z</time>
      </trkpt>
      <trkpt lat="45.5883" lon="2.34258">
        <ele>794</ele>
        <time>2019-05-18T18:16:42Z</time>
      </trkpt>
      <trkpt lat="45.58827" lon="2.3425">
        <ele>794</ele>
        <time>2019-05-18T18:16:43Z</time>
      </trkpt>
      <trkpt lat="45.58826" lon="2.34242">
        <ele>794</ele>
        <time>2019-05-18T18:16:44Z</time>
      </trkpt>
      <trkpt lat="45.58824" lon="2.34235">
        <ele>793</ele>
        <time>2019-05-18T18:16:45Z</time>
      </trkpt>
      <trkpt lat="45.58823" lon="2.34227">
        <ele>793</ele>
        <time>2019-05-18T18:16:46Z</time>
      </trkpt>
      <trkpt lat="45.58822" lon="2.3422">
        <ele>792</ele>
        <time>2019-05-18T18:16:47Z</time>
      </trkpt>
      <trkpt lat="45.5882" lon="2.34212">
        <ele>792</ele>
        <time>2019-05-18T18:16:48Z</time>
      </trkpt>
      <trkpt lat="45.58817" lon="2.34206">
        <ele>792</ele>
        <time>2019-05-18T18:16:49Z</time>
      </trkpt>
      <trkpt lat="45.58813" lon="2.34201">
        <ele>792</ele>
        <time>2019-05-18T18:16:51Z</time>
      </trkpt>
      <trkpt lat="45.58801" lon="2.34194">
        <ele>791</ele>
        <time>2019-05-18T18:16:52Z</time>
      </trkpt>
      <trkpt lat="45.58794" lon="2.34193">
        <ele>791</ele>
        <time>2019-05-18T18:16:53Z</time>
      </trkpt>
      <trkpt lat="45.58788" lon="2.34192">
        <ele>790</ele>
        <time>2019-05-18T18:16:54Z</time>
      </trkpt>
      <trkpt lat="45.58781" lon="2.34191">
        <ele>790</ele>
        <time>2019-05-18T18:16:55Z</time>
      </trkpt>
      <trkpt lat="45.58774" lon="2.34191">
        <ele>790</ele>
        <time>2019-05-18T18:16:56Z</time>
      </trkpt>
      <trkpt lat="45.58767" lon="2.3419">
        <ele>790</ele>
        <time>2019-05-18T18:16:57Z</time>
      </trkpt>
      <trkpt lat="45.58762" lon="2.34189">
        <ele>789</ele>
        <time>2019-05-18T18:16:58Z</time>
      </trkpt>
      <trkpt lat="45.58755" lon="2.34186">
        <ele>789</ele>
        <time>2019-05-18T18:16:59Z</time>
      </trkpt>
      <trkpt lat="45.5875" lon="2.34184">
        <ele>789</ele>
        <time>2019-05-18T18:17:00Z</time>
      </trkpt>
      <trkpt lat="45.58746" lon="2.34182">
        <ele>789</ele>
        <time>2019-05-18T18:17:01Z</time>
      </trkpt>
      <trkpt lat="45.58741" lon="2.34178">
        <ele>789</ele>
        <time>2019-05-18T18:17:02Z</time>
      </trkpt>
      <trkpt lat="45.58737" lon="2.34173">
        <ele>789</ele>
        <time>2019-05-18T18:17:03Z</time>
      </trkpt>
      <trkpt lat="45.58734" lon="2.34168">
        <ele>789</ele>
        <time>2019-05-18T18:17:04Z</time>
      </trkpt>
      <trkpt lat="45.58732" lon="2.34163">
        <ele>788</ele>
        <time>2019-05-18T18:17:05Z</time>
      </trkpt>
      <trkpt lat="45.58729" lon="2.34158">
        <ele>788</ele>
        <time>2019-05-18T18:17:06Z</time>
      </trkpt>
      <trkpt lat="45.58726" lon="2.34152">
        <ele>788</ele>
        <time>2019-05-18T18:17:07Z</time>
      </trkpt>
      <trkpt lat="45.58721" lon="2.34146">
        <ele>788</ele>
        <time>2019-05-18T18:17:08Z</time>
      </trkpt>
      <trkpt lat="45.58716" lon="2.34141">
        <ele>787</ele>
        <time>2019-05-18T18:17:09Z</time>
      </trkpt>
      <trkpt lat="45.58711" lon="2.34136">
        <ele>787</ele>
        <time>2019-05-18T18:17:10Z</time>
      </trkpt>
      <trkpt lat="45.58706" lon="2.34131">
        <ele>786</ele>
        <time>2019-05-18T18:17:11Z</time>
      </trkpt>
      <trkpt lat="45.58699" lon="2.34127">
        <ele>785</ele>
        <time>2019-05-18T18:17:12Z</time>
      </trkpt>
      <trkpt lat="45.58693" lon="2.34122">
        <ele>785</ele>
        <time>2019-05-18T18:17:13Z</time>
      </trkpt>
      <trkpt lat="45.58686" lon="2.34117">
        <ele>784</ele>
        <time>2019-05-18T18:17:14Z</time>
      </trkpt>
      <trkpt lat="45.5868" lon="2.34112">
        <ele>783</ele>
        <time>2019-05-18T18:17:15Z</time>
      </trkpt>
      <trkpt lat="45.58673" lon="2.34105">
        <ele>783</ele>
        <time>2019-05-18T18:17:17Z</time>
      </trkpt>
      <trkpt lat="45.58667" lon="2.34097">
        <ele>782</ele>
        <time>2019-05-18T18:17:18Z</time>
      </trkpt>
      <trkpt lat="45.5866" lon="2.34089">
        <ele>781</ele>
        <time>2019-05-18T18:17:19Z</time>
      </trkpt>
      <trkpt lat="45.58652" lon="2.34082">
        <ele>779</ele>
        <time>2019-05-18T18:17:20Z</time>
      </trkpt>
      <trkpt lat="45.58643" lon="2.34077">
        <ele>779</ele>
        <time>2019-05-18T18:17:21Z</time>
      </trkpt>
      <trkpt lat="45.58634" lon="2.3407">
        <ele>778</ele>
        <time>2019-05-18T18:17:22Z</time>
      </trkpt>
      <trkpt lat="45.58618" lon="2.34059">
        <ele>778</ele>
        <time>2019-05-18T18:17:23Z</time>
      </trkpt>
      <trkpt lat="45.58612" lon="2.34052">
        <ele>778</ele>
        <time>2019-05-18T18:17:24Z</time>
      </trkpt>
      <trkpt lat="45.58605" lon="2.34046">
        <ele>777</ele>
        <time>2019-05-18T18:17:25Z</time>
      </trkpt>
      <trkpt lat="45.58597" lon="2.34041">
        <ele>777</ele>
        <time>2019-05-18T18:17:26Z</time>
      </trkpt>
      <trkpt lat="45.5859" lon="2.34037">
        <ele>776</ele>
        <time>2019-05-18T18:17:27Z</time>
      </trkpt>
      <trkpt lat="45.58584" lon="2.34032">
        <ele>775</ele>
        <time>2019-05-18T18:17:28Z</time>
      </trkpt>
      <trkpt lat="45.58578" lon="2.34026">
        <ele>774</ele>
        <time>2019-05-18T18:17:29Z</time>
      </trkpt>
      <trkpt lat="45.58573" lon="2.34021">
        <ele>773</ele>
        <time>2019-05-18T18:17:30Z</time>
      </trkpt>
      <trkpt lat="45.58569" lon="2.34016">
        <ele>773</ele>
        <time>2019-05-18T18:17:31Z</time>
      </trkpt>
      <trkpt lat="45.58565" lon="2.3401">
        <ele>772</ele>
        <time>2019-05-18T18:17:32Z</time>
      </trkpt>
      <trkpt lat="45.58563" lon="2.34004">
        <ele>772</ele>
        <time>2019-05-18T18:17:33Z</time>
      </trkpt>
      <trkpt lat="45.58563" lon="2.33997">
        <ele>772</ele>
        <time>2019-05-18T18:17:34Z</time>
      </trkpt>
      <trkpt lat="45.58562" lon="2.3399">
        <ele>771</ele>
        <time>2019-05-18T18:17:35Z</time>
      </trkpt>
      <trkpt lat="45.58564" lon="2.33985">
        <ele>771</ele>
        <time>2019-05-18T18:17:36Z</time>
      </trkpt>
      <trkpt lat="45.58565" lon="2.33982">
        <ele>771</ele>
        <time>2019-05-18T18:17:37Z</time>
      </trkpt>
      <trkpt lat="45.58567" lon="2.33978">
        <ele>771</ele>
        <time>2019-05-18T18:17:38Z</time>
      </trkpt>
      <trkpt lat="45.58569" lon="2.33975">
        <ele>771</ele>
        <time>2019-05-18T18:17:39Z</time>
      </trkpt>
      <trkpt lat="45.5857" lon="2.33972">
        <ele>771</ele>
        <time>2019-05-18T18:17:40Z</time>
      </trkpt>
      <trkpt lat="45.58572" lon="2.3397">
        <ele>771</ele>
        <time>2019-05-18T18:17:41Z</time>
      </trkpt>
      <trkpt lat="45.58573" lon="2.33966">
        <ele>771</ele>
        <time>2019-05-18T18:17:43Z</time>
      </trkpt>
      <trkpt lat="45.58575" lon="2.33963">
        <ele>771</ele>
        <time>2019-05-18T18:17:44Z</time>
      </trkpt>
      <trkpt lat="45.58577" lon="2.33959">
        <ele>770</ele>
        <time>2019-05-18T18:17:45Z</time>
      </trkpt>
      <trkpt lat="45.58578" lon="2.33956">
        <ele>770</ele>
        <time>2019-05-18T18:17:46Z</time>
      </trkpt>
      <trkpt lat="45.58579" lon="2.33954">
        <ele>770</ele>
        <time>2019-05-18T18:17:47Z</time>
      </trkpt>
      <trkpt lat="45.58584" lon="2.33947">
        <ele>770</ele>
        <time>2019-05-18T18:17:48Z</time>
      </trkpt>
      <trkpt lat="45.58586" lon="2.33946">
        <ele>770</ele>
        <time>2019-05-18T18:17:49Z</time>
      </trkpt>
      <trkpt lat="45.58588" lon="2.33943">
        <ele>770</ele>
        <time>2019-05-18T18:17:50Z</time>
      </trkpt>
      <trkpt lat="45.5859" lon="2.33941">
        <ele>770</ele>
        <time>2019-05-18T18:17:51Z</time>
      </trkpt>
      <trkpt lat="45.58592" lon="2.33939">
        <ele>770</ele>
        <time>2019-05-18T18:17:52Z</time>
      </trkpt>
      <trkpt lat="45.58594" lon="2.33935">
        <ele>770</ele>
        <time>2019-05-18T18:17:53Z</time>
      </trkpt>
      <trkpt lat="45.58596" lon="2.33932">
        <ele>770</ele>
        <time>2019-05-18T18:17:54Z</time>
      </trkpt>
      <trkpt lat="45.58597" lon="2.33928">
        <ele>770</ele>
        <time>2019-05-18T18:17:55Z</time>
      </trkpt>
      <trkpt lat="45.58598" lon="2.33923">
        <ele>770</ele>
        <time>2019-05-18T18:17:56Z</time>
      </trkpt>
      <trkpt lat="45.58598" lon="2.3392">
        <ele>770</ele>
        <time>2019-05-18T18:17:57Z</time>
      </trkpt>
      <trkpt lat="45.586" lon="2.33917">
        <ele>770</ele>
        <time>2019-05-18T18:17:58Z</time>
      </trkpt>
      <trkpt lat="45.586" lon="2.33914">
        <ele>771</ele>
        <time>2019-05-18T18:17:59Z</time>
      </trkpt>
      <trkpt lat="45.586" lon="2.3391">
        <ele>771</ele>
        <time>2019-05-18T18:18:00Z</time>
      </trkpt>
      <trkpt lat="45.586" lon="2.33906">
        <ele>771</ele>
        <time>2019-05-18T18:18:01Z</time>
      </trkpt>
      <trkpt lat="45.58601" lon="2.33902">
        <ele>771</ele>
        <time>2019-05-18T18:18:02Z</time>
      </trkpt>
      <trkpt lat="45.58602" lon="2.33898">
        <ele>771</ele>
        <time>2019-05-18T18:18:03Z</time>
      </trkpt>
      <trkpt lat="45.58603" lon="2.33894">
        <ele>771</ele>
        <time>2019-05-18T18:18:04Z</time>
      </trkpt>
      <trkpt lat="45.58604" lon="2.3389">
        <ele>771</ele>
        <time>2019-05-18T18:18:05Z</time>
      </trkpt>
      <trkpt lat="45.58604" lon="2.33885">
        <ele>771</ele>
        <time>2019-05-18T18:18:06Z</time>
      </trkpt>
      <trkpt lat="45.58602" lon="2.3388">
        <ele>771</ele>
        <time>2019-05-18T18:18:07Z</time>
      </trkpt>
      <trkpt lat="45.58601" lon="2.33875">
        <ele>771</ele>
        <time>2019-05-18T18:18:08Z</time>
      </trkpt>
      <trkpt lat="45.586" lon="2.3387">
        <ele>771</ele>
        <time>2019-05-18T18:18:09Z</time>
      </trkpt>
      <trkpt lat="45.58599" lon="2.33864">
        <ele>771</ele>
        <time>2019-05-18T18:18:10Z</time>
      </trkpt>
      <trkpt lat="45.58598" lon="2.33859">
        <ele>771</ele>
        <time>2019-05-18T18:18:11Z</time>
      </trkpt>
      <trkpt lat="45.58599" lon="2.33854">
        <ele>771</ele>
        <time>2019-05-18T18:18:13Z</time>
      </trkpt>
      <trkpt lat="45.586" lon="2.33849">
        <ele>771</ele>
        <time>2019-05-18T18:18:14Z</time>
      </trkpt>
      <trkpt lat="45.586" lon="2.33844">
        <ele>771</ele>
        <time>2019-05-18T18:18:15Z</time>
      </trkpt>
      <trkpt lat="45.58601" lon="2.33839">
        <ele>771</ele>
        <time>2019-05-18T18:18:16Z</time>
      </trkpt>
      <trkpt lat="45.58601" lon="2.33834">
        <ele>771</ele>
        <time>2019-05-18T18:18:17Z</time>
      </trkpt>
      <trkpt lat="45.58602" lon="2.33828">
        <ele>771</ele>
        <time>2019-05-18T18:18:18Z</time>
      </trkpt>
      <trkpt lat="45.58602" lon="2.33823">
        <ele>771</ele>
        <time>2019-05-18T18:18:19Z</time>
      </trkpt>
      <trkpt lat="45.58602" lon="2.33817">
        <ele>772</ele>
        <time>2019-05-18T18:18:20Z</time>
      </trkpt>
      <trkpt lat="45.58602" lon="2.33812">
        <ele>772</ele>
        <time>2019-05-18T18:18:21Z</time>
      </trkpt>
      <trkpt lat="45.58602" lon="2.33806">
        <ele>772</ele>
        <time>2019-05-18T18:18:22Z</time>
      </trkpt>
      <trkpt lat="45.58602" lon="2.338">
        <ele>772</ele>
        <time>2019-05-18T18:18:23Z</time>
      </trkpt>
      <trkpt lat="45.58601" lon="2.33794">
        <ele>772</ele>
        <time>2019-05-18T18:18:24Z</time>
      </trkpt>
      <trkpt lat="45.58601" lon="2.33789">
        <ele>772</ele>
        <time>2019-05-18T18:18:25Z</time>
      </trkpt>
      <trkpt lat="45.586" lon="2.33784">
        <ele>772</ele>
        <time>2019-05-18T18:18:26Z</time>
      </trkpt>
      <trkpt lat="45.586" lon="2.33778">
        <ele>772</ele>
        <time>2019-05-18T18:18:27Z</time>
      </trkpt>
      <trkpt lat="45.586" lon="2.33771">
        <ele>772</ele>
        <time>2019-05-18T18:18:28Z</time>
      </trkpt>
      <trkpt lat="45.58599" lon="2.33765">
        <ele>772</ele>
        <time>2019-05-18T18:18:29Z</time>
      </trkpt>
      <trkpt lat="45.58599" lon="2.3376">
        <ele>772</ele>
        <time>2019-05-18T18:18:30Z</time>
      </trkpt>
      <trkpt lat="45.58598" lon="2.33755">
        <ele>772</ele>
        <time>2019-05-18T18:18:31Z</time>
      </trkpt>
      <trkpt lat="45.58597" lon="2.3375">
        <ele>772</ele>
        <time>2019-05-18T18:18:32Z</time>
      </trkpt>
      <trkpt lat="45.58596" lon="2.33739">
        <ele>773</ele>
        <time>2019-05-18T18:18:33Z</time>
      </trkpt>
      <trkpt lat="45.58595" lon="2.33734">
        <ele>773</ele>
        <time>2019-05-18T18:18:34Z</time>
      </trkpt>
      <trkpt lat="45.58594" lon="2.33729">
        <ele>773</ele>
        <time>2019-05-18T18:18:35Z</time>
      </trkpt>
      <trkpt lat="45.58593" lon="2.33724">
        <ele>773</ele>
        <time>2019-05-18T18:18:36Z</time>
      </trkpt>
      <trkpt lat="45.58592" lon="2.33719">
        <ele>773</ele>
        <time>2019-05-18T18:18:37Z</time>
      </trkpt>
      <trkpt lat="45.58592" lon="2.33715">
        <ele>773</ele>
        <time>2019-05-18T18:18:38Z</time>
      </trkpt>
      <trkpt lat="45.58592" lon="2.33711">
        <ele>773</ele>
        <time>2019-05-18T18:18:39Z</time>
      </trkpt>
      <trkpt lat="45.58591" lon="2.33708">
        <ele>773</ele>
        <time>2019-05-18T18:18:40Z</time>
      </trkpt>
      <trkpt lat="45.58591" lon="2.33703">
        <ele>773</ele>
        <time>2019-05-18T18:18:41Z</time>
      </trkpt>
      <trkpt lat="45.5859" lon="2.33698">
        <ele>773</ele>
        <time>2019-05-18T18:18:42Z</time>
      </trkpt>
      <trkpt lat="45.58588" lon="2.33694">
        <ele>773</ele>
        <time>2019-05-18T18:18:44Z</time>
      </trkpt>
      <trkpt lat="45.58587" lon="2.3369">
        <ele>773</ele>
        <time>2019-05-18T18:18:45Z</time>
      </trkpt>
      <trkpt lat="45.58587" lon="2.33686">
        <ele>774</ele>
        <time>2019-05-18T18:18:46Z</time>
      </trkpt>
      <trkpt lat="45.58586" lon="2.33682">
        <ele>774</ele>
        <time>2019-05-18T18:18:47Z</time>
      </trkpt>
      <trkpt lat="45.58586" lon="2.33678">
        <ele>774</ele>
        <time>2019-05-18T18:18:48Z</time>
      </trkpt>
      <trkpt lat="45.58584" lon="2.33674">
        <ele>774</ele>
        <time>2019-05-18T18:18:49Z</time>
      </trkpt>
      <trkpt lat="45.58583" lon="2.3367">
        <ele>774</ele>
        <time>2019-05-18T18:18:50Z</time>
      </trkpt>
      <trkpt lat="45.58583" lon="2.33667">
        <ele>774</ele>
        <time>2019-05-18T18:18:51Z</time>
      </trkpt>
      <trkpt lat="45.58582" lon="2.33662">
        <ele>774</ele>
        <time>2019-05-18T18:18:52Z</time>
      </trkpt>
      <trkpt lat="45.5858" lon="2.33654">
        <ele>775</ele>
        <time>2019-05-18T18:18:54Z</time>
      </trkpt>
      <trkpt lat="45.5858" lon="2.33649">
        <ele>775</ele>
        <time>2019-05-18T18:18:55Z</time>
      </trkpt>
      <trkpt lat="45.58578" lon="2.33644">
        <ele>775</ele>
        <time>2019-05-18T18:18:56Z</time>
      </trkpt>
      <trkpt lat="45.58577" lon="2.33639">
        <ele>775</ele>
        <time>2019-05-18T18:18:57Z</time>
      </trkpt>
      <trkpt lat="45.58576" lon="2.33636">
        <ele>775</ele>
        <time>2019-05-18T18:18:58Z</time>
      </trkpt>
      <trkpt lat="45.58574" lon="2.33632">
        <ele>775</ele>
        <time>2019-05-18T18:18:59Z</time>
      </trkpt>
      <trkpt lat="45.58573" lon="2.33627">
        <ele>775</ele>
        <time>2019-05-18T18:19:00Z</time>
      </trkpt>
      <trkpt lat="45.5857" lon="2.33623">
        <ele>775</ele>
        <time>2019-05-18T18:19:01Z</time>
      </trkpt>
      <trkpt lat="45.58567" lon="2.33619">
        <ele>775</ele>
        <time>2019-05-18T18:19:02Z</time>
      </trkpt>
      <trkpt lat="45.58566" lon="2.33615">
        <ele>775</ele>
        <time>2019-05-18T18:19:03Z</time>
      </trkpt>
      <trkpt lat="45.58564" lon="2.33611">
        <ele>775</ele>
        <time>2019-05-18T18:19:04Z</time>
      </trkpt>
      <trkpt lat="45.58563" lon="2.33608">
        <ele>775</ele>
        <time>2019-05-18T18:19:05Z</time>
      </trkpt>
      <trkpt lat="45.58563" lon="2.33605">
        <ele>775</ele>
        <time>2019-05-18T18:19:06Z</time>
      </trkpt>
      <trkpt lat="45.58561" lon="2.33602">
        <ele>775</ele>
        <time>2019-05-18T18:19:07Z</time>
      </trkpt>
      <trkpt lat="45.5856" lon="2.336">
        <ele>775</ele>
        <time>2019-05-18T18:19:08Z</time>
      </trkpt>
      <trkpt lat="45.58559" lon="2.33598">
        <ele>775</ele>
        <time>2019-05-18T18:19:09Z</time>
      </trkpt>
      <trkpt lat="45.58558" lon="2.33596">
        <ele>775</ele>
        <time>2019-05-18T18:19:10Z</time>
      </trkpt>
      <trkpt lat="45.58557" lon="2.33595">
        <ele>775</ele>
        <time>2019-05-18T18:19:11Z</time>
      </trkpt>
      <trkpt lat="45.58555" lon="2.33593">
        <ele>775</ele>
        <time>2019-05-18T18:19:12Z</time>
      </trkpt>
      <trkpt lat="45.58552" lon="2.3359">
        <ele>775</ele>
        <time>2019-05-18T18:19:13Z</time>
      </trkpt>
      <trkpt lat="45.58548" lon="2.33585">
        <ele>775</ele>
        <time>2019-05-18T18:19:14Z</time>
      </trkpt>
      <trkpt lat="45.58546" lon="2.33582">
        <ele>775</ele>
        <time>2019-05-18T18:19:15Z</time>
      </trkpt>
      <trkpt lat="45.58545" lon="2.33579">
        <ele>776</ele>
        <time>2019-05-18T18:19:16Z</time>
      </trkpt>
      <trkpt lat="45.58543" lon="2.33576">
        <ele>776</ele>
        <time>2019-05-18T18:19:17Z</time>
      </trkpt>
      <trkpt lat="45.58541" lon="2.33574">
        <ele>776</ele>
        <time>2019-05-18T18:19:18Z</time>
      </trkpt>
      <trkpt lat="45.58539" lon="2.33572">
        <ele>776</ele>
        <time>2019-05-18T18:19:19Z</time>
      </trkpt>
      <trkpt lat="45.58538" lon="2.3357">
        <ele>776</ele>
        <time>2019-05-18T18:19:20Z</time>
      </trkpt>
      <trkpt lat="45.58536" lon="2.33567">
        <ele>776</ele>
        <time>2019-05-18T18:19:21Z</time>
      </trkpt>
      <trkpt lat="45.58535" lon="2.33566">
        <ele>776</ele>
        <time>2019-05-18T18:19:22Z</time>
      </trkpt>
      <trkpt lat="45.58533" lon="2.33563">
        <ele>776</ele>
        <time>2019-05-18T18:19:23Z</time>
      </trkpt>
      <trkpt lat="45.58531" lon="2.33559">
        <ele>776</ele>
        <time>2019-05-18T18:19:24Z</time>
      </trkpt>
      <trkpt lat="45.58529" lon="2.33556">
        <ele>776</ele>
        <time>2019-05-18T18:19:25Z</time>
      </trkpt>
      <trkpt lat="45.58526" lon="2.33552">
        <ele>776</ele>
        <time>2019-05-18T18:19:26Z</time>
      </trkpt>
      <trkpt lat="45.58524" lon="2.33548">
        <ele>776</ele>
        <time>2019-05-18T18:19:27Z</time>
      </trkpt>
      <trkpt lat="45.58522" lon="2.33545">
        <ele>776</ele>
        <time>2019-05-18T18:19:28Z</time>
      </trkpt>
      <trkpt lat="45.58519" lon="2.33542">
        <ele>776</ele>
        <time>2019-05-18T18:19:29Z</time>
      </trkpt>
      <trkpt lat="45.58516" lon="2.33538">
        <ele>776</ele>
        <time>2019-05-18T18:19:30Z</time>
      </trkpt>
      <trkpt lat="45.58513" lon="2.33535">
        <ele>776</ele>
        <time>2019-05-18T18:19:31Z</time>
      </trkpt>
      <trkpt lat="45.58511" lon="2.33532">
        <ele>776</ele>
        <time>2019-05-18T18:19:32Z</time>
      </trkpt>
      <trkpt lat="45.58509" lon="2.33529">
        <ele>776</ele>
        <time>2019-05-18T18:19:33Z</time>
      </trkpt>
      <trkpt lat="45.58507" lon="2.33526">
        <ele>776</ele>
        <time>2019-05-18T18:19:34Z</time>
      </trkpt>
      <trkpt lat="45.58504" lon="2.33523">
        <ele>776</ele>
        <time>2019-05-18T18:19:35Z</time>
      </trkpt>
      <trkpt lat="45.58501" lon="2.3352">
        <ele>777</ele>
        <time>2019-05-18T18:19:36Z</time>
      </trkpt>
      <trkpt lat="45.58497" lon="2.33518">
        <ele>777</ele>
        <time>2019-05-18T18:19:37Z</time>
      </trkpt>
      <trkpt lat="45.58495" lon="2.33515">
        <ele>777</ele>
        <time>2019-05-18T18:19:39Z</time>
      </trkpt>
      <trkpt lat="45.58492" lon="2.33511">
        <ele>777</ele>
        <time>2019-05-18T18:19:40Z</time>
      </trkpt>
      <trkpt lat="45.5849" lon="2.33508">
        <ele>777</ele>
        <time>2019-05-18T18:19:41Z</time>
      </trkpt>
      <trkpt lat="45.58487" lon="2.33505">
        <ele>777</ele>
        <time>2019-05-18T18:19:42Z</time>
      </trkpt>
      <trkpt lat="45.58485" lon="2.33502">
        <ele>777</ele>
        <time>2019-05-18T18:19:43Z</time>
      </trkpt>
      <trkpt lat="45.58482" lon="2.33499">
        <ele>777</ele>
        <time>2019-05-18T18:19:44Z</time>
      </trkpt>
      <trkpt lat="45.58479" lon="2.33495">
        <ele>777</ele>
        <time>2019-05-18T18:19:45Z</time>
      </trkpt>
      <trkpt lat="45.58476" lon="2.33491">
        <ele>777</ele>
        <time>2019-05-18T18:19:46Z</time>
      </trkpt>
      <trkpt lat="45.58473" lon="2.33488">
        <ele>777</ele>
        <time>2019-05-18T18:19:47Z</time>
      </trkpt>
      <trkpt lat="45.5847" lon="2.33484">
        <ele>777</ele>
        <time>2019-05-18T18:19:48Z</time>
      </trkpt>
      <trkpt lat="45.58467" lon="2.3348">
        <ele>777</ele>
        <time>2019-05-18T18:19:49Z</time>
      </trkpt>
      <trkpt lat="45.58464" lon="2.33477">
        <ele>777</ele>
        <time>2019-05-18T18:19:50Z</time>
      </trkpt>
      <trkpt lat="45.58461" lon="2.33473">
        <ele>777</ele>
        <time>2019-05-18T18:19:51Z</time>
      </trkpt>
      <trkpt lat="45.58458" lon="2.3347">
        <ele>777</ele>
        <time>2019-05-18T18:19:52Z</time>
      </trkpt>
      <trkpt lat="45.58455" lon="2.33467">
        <ele>777</ele>
        <time>2019-05-18T18:19:53Z</time>
      </trkpt>
      <trkpt lat="45.58453" lon="2.33463">
        <ele>777</ele>
        <time>2019-05-18T18:19:54Z</time>
      </trkpt>
      <trkpt lat="45.58451" lon="2.3346">
        <ele>777</ele>
        <time>2019-05-18T18:19:55Z</time>
      </trkpt>
      <trkpt lat="45.58449" lon="2.33457">
        <ele>777</ele>
        <time>2019-05-18T18:19:56Z</time>
      </trkpt>
      <trkpt lat="45.58447" lon="2.33454">
        <ele>777</ele>
        <time>2019-05-18T18:19:57Z</time>
      </trkpt>
      <trkpt lat="45.58445" lon="2.33452">
        <ele>776</ele>
        <time>2019-05-18T18:19:58Z</time>
      </trkpt>
      <trkpt lat="45.58443" lon="2.33448">
        <ele>776</ele>
        <time>2019-05-18T18:19:59Z</time>
      </trkpt>
      <trkpt lat="45.5844" lon="2.33444">
        <ele>776</ele>
        <time>2019-05-18T18:20:00Z</time>
      </trkpt>
      <trkpt lat="45.58438" lon="2.33441">
        <ele>776</ele>
        <time>2019-05-18T18:20:01Z</time>
      </trkpt>
      <trkpt lat="45.58434" lon="2.33438">
        <ele>776</ele>
        <time>2019-05-18T18:20:02Z</time>
      </trkpt>
      <trkpt lat="45.58432" lon="2.33436">
        <ele>776</ele>
        <time>2019-05-18T18:20:03Z</time>
      </trkpt>
      <trkpt lat="45.58427" lon="2.33429">
        <ele>776</ele>
        <time>2019-05-18T18:20:04Z</time>
      </trkpt>
      <trkpt lat="45.58424" lon="2.33426">
        <ele>775</ele>
        <time>2019-05-18T18:20:05Z</time>
      </trkpt>
      <trkpt lat="45.58421" lon="2.33423">
        <ele>775</ele>
        <time>2019-05-18T18:20:06Z</time>
      </trkpt>
      <trkpt lat="45.58417" lon="2.33421">
        <ele>775</ele>
        <time>2019-05-18T18:20:07Z</time>
      </trkpt>
      <trkpt lat="45.58414" lon="2.33418">
        <ele>775</ele>
        <time>2019-05-18T18:20:08Z</time>
      </trkpt>
      <trkpt lat="45.58411" lon="2.33414">
        <ele>775</ele>
        <time>2019-05-18T18:20:09Z</time>
      </trkpt>
      <trkpt lat="45.58407" lon="2.33411">
        <ele>774</ele>
        <time>2019-05-18T18:20:10Z</time>
      </trkpt>
      <trkpt lat="45.58403" lon="2.33408">
        <ele>774</ele>
        <time>2019-05-18T18:20:11Z</time>
      </trkpt>
      <trkpt lat="45.58399" lon="2.33405">
        <ele>774</ele>
        <time>2019-05-18T18:20:12Z</time>
      </trkpt>
      <trkpt lat="45.58394" lon="2.334">
        <ele>773</ele>
        <time>2019-05-18T18:20:13Z</time>
      </trkpt>
      <trkpt lat="45.58388" lon="2.33394">
        <ele>772</ele>
        <time>2019-05-18T18:20:14Z</time>
      </trkpt>
      <trkpt lat="45.58382" lon="2.33385">
        <ele>770</ele>
        <time>2019-05-18T18:20:15Z</time>
      </trkpt>
      <trkpt lat="45.58376" lon="2.33375">
        <ele>769</ele>
        <time>2019-05-18T18:20:16Z</time>
      </trkpt>
      <trkpt lat="45.58369" lon="2.33365">
        <ele>768</ele>
        <time>2019-05-18T18:20:17Z</time>
      </trkpt>
      <trkpt lat="45.58361" lon="2.33356">
        <ele>768</ele>
        <time>2019-05-18T18:20:18Z</time>
      </trkpt>
      <trkpt lat="45.58353" lon="2.33347">
        <ele>768</ele>
        <time>2019-05-18T18:20:19Z</time>
      </trkpt>
      <trkpt lat="45.58344" lon="2.33339">
        <ele>767</ele>
        <time>2019-05-18T18:20:20Z</time>
      </trkpt>
      <trkpt lat="45.58336" lon="2.33332">
        <ele>767</ele>
        <time>2019-05-18T18:20:21Z</time>
      </trkpt>
      <trkpt lat="45.58328" lon="2.33326">
        <ele>766</ele>
        <time>2019-05-18T18:20:22Z</time>
      </trkpt>
      <trkpt lat="45.5832" lon="2.33319">
        <ele>766</ele>
        <time>2019-05-18T18:20:23Z</time>
      </trkpt>
      <trkpt lat="45.58312" lon="2.33315">
        <ele>765</ele>
        <time>2019-05-18T18:20:24Z</time>
      </trkpt>
      <trkpt lat="45.58303" lon="2.33309">
        <ele>765</ele>
        <time>2019-05-18T18:20:25Z</time>
      </trkpt>
      <trkpt lat="45.58295" lon="2.33303">
        <ele>765</ele>
        <time>2019-05-18T18:20:26Z</time>
      </trkpt>
      <trkpt lat="45.58286" lon="2.33297">
        <ele>764</ele>
        <time>2019-05-18T18:20:27Z</time>
      </trkpt>
      <trkpt lat="45.58277" lon="2.3329">
        <ele>763</ele>
        <time>2019-05-18T18:20:28Z</time>
      </trkpt>
      <trkpt lat="45.58267" lon="2.33284">
        <ele>763</ele>
        <time>2019-05-18T18:20:29Z</time>
      </trkpt>
      <trkpt lat="45.58259" lon="2.33277">
        <ele>763</ele>
        <time>2019-05-18T18:20:30Z</time>
      </trkpt>
      <trkpt lat="45.5825" lon="2.33271">
        <ele>762</ele>
        <time>2019-05-18T18:20:31Z</time>
      </trkpt>
      <trkpt lat="45.58242" lon="2.33263">
        <ele>762</ele>
        <time>2019-05-18T18:20:32Z</time>
      </trkpt>
      <trkpt lat="45.58234" lon="2.33257">
        <ele>761</ele>
        <time>2019-05-18T18:20:33Z</time>
      </trkpt>
      <trkpt lat="45.58225" lon="2.33252">
        <ele>761</ele>
        <time>2019-05-18T18:20:34Z</time>
      </trkpt>
      <trkpt lat="45.58216" lon="2.3325">
        <ele>761</ele>
        <time>2019-05-18T18:20:35Z</time>
      </trkpt>
      <trkpt lat="45.58207" lon="2.33253">
        <ele>760</ele>
        <time>2019-05-18T18:20:36Z</time>
      </trkpt>
      <trkpt lat="45.58199" lon="2.33258">
        <ele>759</ele>
        <time>2019-05-18T18:20:37Z</time>
      </trkpt>
      <trkpt lat="45.58192" lon="2.33264">
        <ele>759</ele>
        <time>2019-05-18T18:20:38Z</time>
      </trkpt>
      <trkpt lat="45.58184" lon="2.33269">
        <ele>758</ele>
        <time>2019-05-18T18:20:40Z</time>
      </trkpt>
      <trkpt lat="45.58177" lon="2.3327">
        <ele>758</ele>
        <time>2019-05-18T18:20:41Z</time>
      </trkpt>
      <trkpt lat="45.5817" lon="2.33269">
        <ele>758</ele>
        <time>2019-05-18T18:20:42Z</time>
      </trkpt>
      <trkpt lat="45.58164" lon="2.33265">
        <ele>758</ele>
        <time>2019-05-18T18:20:43Z</time>
      </trkpt>
      <trkpt lat="45.58159" lon="2.3326">
        <ele>758</ele>
        <time>2019-05-18T18:20:44Z</time>
      </trkpt>
      <trkpt lat="45.58154" lon="2.33255">
        <ele>758</ele>
        <time>2019-05-18T18:20:45Z</time>
      </trkpt>
      <trkpt lat="45.5815" lon="2.3325">
        <ele>759</ele>
        <time>2019-05-18T18:20:46Z</time>
      </trkpt>
      <trkpt lat="45.58146" lon="2.33245">
        <ele>759</ele>
        <time>2019-05-18T18:20:47Z</time>
      </trkpt>
      <trkpt lat="45.58142" lon="2.33241">
        <ele>759</ele>
        <time>2019-05-18T18:20:48Z</time>
      </trkpt>
      <trkpt lat="45.58138" lon="2.33237">
        <ele>759</ele>
        <time>2019-05-18T18:20:49Z</time>
      </trkpt>
      <trkpt lat="45.58135" lon="2.33233">
        <ele>759</ele>
        <time>2019-05-18T18:20:50Z</time>
      </trkpt>
      <trkpt lat="45.58131" lon="2.33229">
        <ele>759</ele>
        <time>2019-05-18T18:20:51Z</time>
      </trkpt>
      <trkpt lat="45.58128" lon="2.33226">
        <ele>760</ele>
        <time>2019-05-18T18:20:52Z</time>
      </trkpt>
      <trkpt lat="45.58125" lon="2.33222">
        <ele>760</ele>
        <time>2019-05-18T18:20:53Z</time>
      </trkpt>
      <trkpt lat="45.58121" lon="2.33219">
        <ele>760</ele>
        <time>2019-05-18T18:20:54Z</time>
      </trkpt>
      <trkpt lat="45.58118" lon="2.33215">
        <ele>760</ele>
        <time>2019-05-18T18:20:55Z</time>
      </trkpt>
      <trkpt lat="45.58115" lon="2.33211">
        <ele>760</ele>
        <time>2019-05-18T18:20:56Z</time>
      </trkpt>
      <trkpt lat="45.58112" lon="2.33208">
        <ele>759</ele>
        <time>2019-05-18T18:20:57Z</time>
      </trkpt>
      <trkpt lat="45.58108" lon="2.33204">
        <ele>759</ele>
        <time>2019-05-18T18:20:58Z</time>
      </trkpt>
      <trkpt lat="45.58105" lon="2.332">
        <ele>759</ele>
        <time>2019-05-18T18:20:59Z</time>
      </trkpt>
      <trkpt lat="45.58101" lon="2.33196">
        <ele>759</ele>
        <time>2019-05-18T18:21:00Z</time>
      </trkpt>
      <trkpt lat="45.58097" lon="2.33191">
        <ele>758</ele>
        <time>2019-05-18T18:21:01Z</time>
      </trkpt>
      <trkpt lat="45.58087" lon="2.33182">
        <ele>757</ele>
        <time>2019-05-18T18:21:02Z</time>
      </trkpt>
      <trkpt lat="45.58081" lon="2.33178">
        <ele>757</ele>
        <time>2019-05-18T18:21:03Z</time>
      </trkpt>
      <trkpt lat="45.58075" lon="2.33174">
        <ele>756</ele>
        <time>2019-05-18T18:21:04Z</time>
      </trkpt>
      <trkpt lat="45.58069" lon="2.33171">
        <ele>756</ele>
        <time>2019-05-18T18:21:05Z</time>
      </trkpt>
      <trkpt lat="45.58063" lon="2.33168">
        <ele>756</ele>
        <time>2019-05-18T18:21:06Z</time>
      </trkpt>
      <trkpt lat="45.58056" lon="2.33167">
        <ele>756</ele>
        <time>2019-05-18T18:21:07Z</time>
      </trkpt>
      <trkpt lat="45.5805" lon="2.33165">
        <ele>756</ele>
        <time>2019-05-18T18:21:08Z</time>
      </trkpt>
      <trkpt lat="45.58045" lon="2.33163">
        <ele>756</ele>
        <time>2019-05-18T18:21:09Z</time>
      </trkpt>
      <trkpt lat="45.58039" lon="2.33159">
        <ele>756</ele>
        <time>2019-05-18T18:21:10Z</time>
      </trkpt>
      <trkpt lat="45.58035" lon="2.33154">
        <ele>756</ele>
        <time>2019-05-18T18:21:11Z</time>
      </trkpt>
      <trkpt lat="45.58032" lon="2.33149">
        <ele>756</ele>
        <time>2019-05-18T18:21:12Z</time>
      </trkpt>
      <trkpt lat="45.5803" lon="2.33143">
        <ele>756</ele>
        <time>2019-05-18T18:21:13Z</time>
      </trkpt>
      <trkpt lat="45.58029" lon="2.33138">
        <ele>756</ele>
        <time>2019-05-18T18:21:14Z</time>
      </trkpt>
      <trkpt lat="45.58026" lon="2.33133">
        <ele>757</ele>
        <time>2019-05-18T18:21:15Z</time>
      </trkpt>
      <trkpt lat="45.58024" lon="2.33129">
        <ele>757</ele>
        <time>2019-05-18T18:21:16Z</time>
      </trkpt>
      <trkpt lat="45.58022" lon="2.33124">
        <ele>757</ele>
        <time>2019-05-18T18:21:17Z</time>
      </trkpt>
      <trkpt lat="45.58019" lon="2.3312">
        <ele>757</ele>
        <time>2019-05-18T18:21:19Z</time>
      </trkpt>
      <trkpt lat="45.58016" lon="2.33117">
        <ele>757</ele>
        <time>2019-05-18T18:21:20Z</time>
      </trkpt>
      <trkpt lat="45.58014" lon="2.33114">
        <ele>757</ele>
        <time>2019-05-18T18:21:21Z</time>
      </trkpt>
      <trkpt lat="45.58011" lon="2.3311">
        <ele>757</ele>
        <time>2019-05-18T18:21:22Z</time>
      </trkpt>
      <trkpt lat="45.58008" lon="2.33106">
        <ele>757</ele>
        <time>2019-05-18T18:21:23Z</time>
      </trkpt>
      <trkpt lat="45.58005" lon="2.33103">
        <ele>757</ele>
        <time>2019-05-18T18:21:24Z</time>
      </trkpt>
      <trkpt lat="45.58002" lon="2.33099">
        <ele>757</ele>
        <time>2019-05-18T18:21:25Z</time>
      </trkpt>
      <trkpt lat="45.58" lon="2.33096">
        <ele>757</ele>
        <time>2019-05-18T18:21:26Z</time>
      </trkpt>
      <trkpt lat="45.57997" lon="2.33093">
        <ele>757</ele>
        <time>2019-05-18T18:21:27Z</time>
      </trkpt>
      <trkpt lat="45.57993" lon="2.3309">
        <ele>757</ele>
        <time>2019-05-18T18:21:28Z</time>
      </trkpt>
      <trkpt lat="45.5799" lon="2.33087">
        <ele>757</ele>
        <time>2019-05-18T18:21:29Z</time>
      </trkpt>
      <trkpt lat="45.57987" lon="2.33085">
        <ele>757</ele>
        <time>2019-05-18T18:21:30Z</time>
      </trkpt>
      <trkpt lat="45.57984" lon="2.33082">
        <ele>757</ele>
        <time>2019-05-18T18:21:31Z</time>
      </trkpt>
      <trkpt lat="45.57982" lon="2.33079">
        <ele>757</ele>
        <time>2019-05-18T18:21:32Z</time>
      </trkpt>
      <trkpt lat="45.57979" lon="2.33076">
        <ele>757</ele>
        <time>2019-05-18T18:21:33Z</time>
      </trkpt>
      <trkpt lat="45.57977" lon="2.33073">
        <ele>757</ele>
        <time>2019-05-18T18:21:34Z</time>
      </trkpt>
      <trkpt lat="45.57974" lon="2.33071">
        <ele>757</ele>
        <time>2019-05-18T18:21:35Z</time>
      </trkpt>
      <trkpt lat="45.57971" lon="2.33068">
        <ele>757</ele>
        <time>2019-05-18T18:21:36Z</time>
      </trkpt>
      <trkpt lat="45.57967" lon="2.33065">
        <ele>757</ele>
        <time>2019-05-18T18:21:37Z</time>
      </trkpt>
      <trkpt lat="45.57964" lon="2.33062">
        <ele>757</ele>
        <time>2019-05-18T18:21:38Z</time>
      </trkpt>
      <trkpt lat="45.5796" lon="2.33059">
        <ele>757</ele>
        <time>2019-05-18T18:21:39Z</time>
      </trkpt>
      <trkpt lat="45.57958" lon="2.33056">
        <ele>757</ele>
        <time>2019-05-18T18:21:40Z</time>
      </trkpt>
      <trkpt lat="45.57955" lon="2.33052">
        <ele>757</ele>
        <time>2019-05-18T18:21:41Z</time>
      </trkpt>
      <trkpt lat="45.57952" lon="2.33049">
        <ele>757</ele>
        <time>2019-05-18T18:21:42Z</time>
      </trkpt>
      <trkpt lat="45.5795" lon="2.33046">
        <ele>757</ele>
        <time>2019-05-18T18:21:43Z</time>
      </trkpt>
      <trkpt lat="45.57947" lon="2.33042">
        <ele>757</ele>
        <time>2019-05-18T18:21:44Z</time>
      </trkpt>
      <trkpt lat="45.57943" lon="2.33037">
        <ele>757</ele>
        <time>2019-05-18T18:21:45Z</time>
      </trkpt>
      <trkpt lat="45.57941" lon="2.33035">
        <ele>757</ele>
        <time>2019-05-18T18:21:46Z</time>
      </trkpt>
      <trkpt lat="45.57938" lon="2.33032">
        <ele>757</ele>
        <time>2019-05-18T18:21:47Z</time>
      </trkpt>
      <trkpt lat="45.57935" lon="2.3303">
        <ele>756</ele>
        <time>2019-05-18T18:21:48Z</time>
      </trkpt>
      <trkpt lat="45.57932" lon="2.33027">
        <ele>756</ele>
        <time>2019-05-18T18:21:49Z</time>
      </trkpt>
      <trkpt lat="45.5793" lon="2.33025">
        <ele>756</ele>
        <time>2019-05-18T18:21:50Z</time>
      </trkpt>
      <trkpt lat="45.57927" lon="2.33022">
        <ele>756</ele>
        <time>2019-05-18T18:21:51Z</time>
      </trkpt>
      <trkpt lat="45.57923" lon="2.33018">
        <ele>756</ele>
        <time>2019-05-18T18:21:52Z</time>
      </trkpt>
      <trkpt lat="45.5792" lon="2.33015">
        <ele>756</ele>
        <time>2019-05-18T18:21:53Z</time>
      </trkpt>
      <trkpt lat="45.57917" lon="2.33012">
        <ele>756</ele>
        <time>2019-05-18T18:21:54Z</time>
      </trkpt>
      <trkpt lat="45.57914" lon="2.33009">
        <ele>755</ele>
        <time>2019-05-18T18:21:55Z</time>
      </trkpt>
      <trkpt lat="45.57911" lon="2.33006">
        <ele>755</ele>
        <time>2019-05-18T18:21:56Z</time>
      </trkpt>
      <trkpt lat="45.57909" lon="2.33003">
        <ele>755</ele>
        <time>2019-05-18T18:21:57Z</time>
      </trkpt>
      <trkpt lat="45.57906" lon="2.33">
        <ele>755</ele>
        <time>2019-05-18T18:21:58Z</time>
      </trkpt>
      <trkpt lat="45.57903" lon="2.32995">
        <ele>754</ele>
        <time>2019-05-18T18:21:59Z</time>
      </trkpt>
      <trkpt lat="45.579" lon="2.32992">
        <ele>754</ele>
        <time>2019-05-18T18:22:01Z</time>
      </trkpt>
      <trkpt lat="45.57896" lon="2.32987">
        <ele>754</ele>
        <time>2019-05-18T18:22:02Z</time>
      </trkpt>
      <trkpt lat="45.5789" lon="2.3298">
        <ele>753</ele>
        <time>2019-05-18T18:22:03Z</time>
      </trkpt>
      <trkpt lat="45.57884" lon="2.32973">
        <ele>753</ele>
        <time>2019-05-18T18:22:04Z</time>
      </trkpt>
      <trkpt lat="45.57878" lon="2.32964">
        <ele>752</ele>
        <time>2019-05-18T18:22:05Z</time>
      </trkpt>
      <trkpt lat="45.57873" lon="2.32955">
        <ele>751</ele>
        <time>2019-05-18T18:22:06Z</time>
      </trkpt>
      <trkpt lat="45.57867" lon="2.32947">
        <ele>751</ele>
        <time>2019-05-18T18:22:07Z</time>
      </trkpt>
      <trkpt lat="45.57861" lon="2.32938">
        <ele>750</ele>
        <time>2019-05-18T18:22:08Z</time>
      </trkpt>
      <trkpt lat="45.57856" lon="2.32929">
        <ele>750</ele>
        <time>2019-05-18T18:22:09Z</time>
      </trkpt>
      <trkpt lat="45.57851" lon="2.3292">
        <ele>750</ele>
        <time>2019-05-18T18:22:10Z</time>
      </trkpt>
      <trkpt lat="45.57845" lon="2.32912">
        <ele>750</ele>
        <time>2019-05-18T18:22:11Z</time>
      </trkpt>
      <trkpt lat="45.57839" lon="2.32904">
        <ele>750</ele>
        <time>2019-05-18T18:22:12Z</time>
      </trkpt>
      <trkpt lat="45.57833" lon="2.32897">
        <ele>750</ele>
        <time>2019-05-18T18:22:13Z</time>
      </trkpt>
      <trkpt lat="45.57828" lon="2.32891">
        <ele>750</ele>
        <time>2019-05-18T18:22:14Z</time>
      </trkpt>
      <trkpt lat="45.57823" lon="2.32885">
        <ele>750</ele>
        <time>2019-05-18T18:22:15Z</time>
      </trkpt>
      <trkpt lat="45.57818" lon="2.32881">
        <ele>750</ele>
        <time>2019-05-18T18:22:16Z</time>
      </trkpt>
      <trkpt lat="45.57816" lon="2.32878">
        <ele>750</ele>
        <time>2019-05-18T18:22:17Z</time>
      </trkpt>
      <trkpt lat="45.57813" lon="2.32874">
        <ele>750</ele>
        <time>2019-05-18T18:22:18Z</time>
      </trkpt>
      <trkpt lat="45.57811" lon="2.32871">
        <ele>750</ele>
        <time>2019-05-18T18:22:19Z</time>
      </trkpt>
      <trkpt lat="45.57808" lon="2.32867">
        <ele>750</ele>
        <time>2019-05-18T18:22:20Z</time>
      </trkpt>
      <trkpt lat="45.57805" lon="2.32863">
        <ele>750</ele>
        <time>2019-05-18T18:22:21Z</time>
      </trkpt>
      <trkpt lat="45.57802" lon="2.32858">
        <ele>749</ele>
        <time>2019-05-18T18:22:22Z</time>
      </trkpt>
      <trkpt lat="45.57799" lon="2.32854">
        <ele>749</ele>
        <time>2019-05-18T18:22:23Z</time>
      </trkpt>
      <trkpt lat="45.57789" lon="2.32843">
        <ele>749</ele>
        <time>2019-05-18T18:22:24Z</time>
      </trkpt>
      <trkpt lat="45.57785" lon="2.32838">
        <ele>749</ele>
        <time>2019-05-18T18:22:26Z</time>
      </trkpt>
      <trkpt lat="45.5778" lon="2.32832">
        <ele>749</ele>
        <time>2019-05-18T18:22:27Z</time>
      </trkpt>
      <trkpt lat="45.57776" lon="2.32826">
        <ele>749</ele>
        <time>2019-05-18T18:22:28Z</time>
      </trkpt>
      <trkpt lat="45.57772" lon="2.32819">
        <ele>749</ele>
        <time>2019-05-18T18:22:29Z</time>
      </trkpt>
      <trkpt lat="45.57767" lon="2.32812">
        <ele>748</ele>
        <time>2019-05-18T18:22:30Z</time>
      </trkpt>
      <trkpt lat="45.57762" lon="2.32806">
        <ele>748</ele>
        <time>2019-05-18T18:22:31Z</time>
      </trkpt>
      <trkpt lat="45.57756" lon="2.328">
        <ele>748</ele>
        <time>2019-05-18T18:22:32Z</time>
      </trkpt>
      <trkpt lat="45.5775" lon="2.32797">
        <ele>747</ele>
        <time>2019-05-18T18:22:33Z</time>
      </trkpt>
      <trkpt lat="45.57743" lon="2.32794">
        <ele>747</ele>
        <time>2019-05-18T18:22:34Z</time>
      </trkpt>
      <trkpt lat="45.57736" lon="2.3279">
        <ele>747</ele>
        <time>2019-05-18T18:22:35Z</time>
      </trkpt>
      <trkpt lat="45.57729" lon="2.32786">
        <ele>746</ele>
        <time>2019-05-18T18:22:36Z</time>
      </trkpt>
      <trkpt lat="45.57721" lon="2.32783">
        <ele>746</ele>
        <time>2019-05-18T18:22:37Z</time>
      </trkpt>
      <trkpt lat="45.57713" lon="2.3278">
        <ele>746</ele>
        <time>2019-05-18T18:22:38Z</time>
      </trkpt>
      <trkpt lat="45.57706" lon="2.32776">
        <ele>745</ele>
        <time>2019-05-18T18:22:39Z</time>
      </trkpt>
      <trkpt lat="45.57699" lon="2.32774">
        <ele>745</ele>
        <time>2019-05-18T18:22:40Z</time>
      </trkpt>
      <trkpt lat="45.57691" lon="2.32772">
        <ele>745</ele>
        <time>2019-05-18T18:22:41Z</time>
      </trkpt>
      <trkpt lat="45.57684" lon="2.3277">
        <ele>744</ele>
        <time>2019-05-18T18:22:42Z</time>
      </trkpt>
      <trkpt lat="45.57677" lon="2.32767">
        <ele>744</ele>
        <time>2019-05-18T18:22:43Z</time>
      </trkpt>
      <trkpt lat="45.5767" lon="2.32766">
        <ele>744</ele>
        <time>2019-05-18T18:22:44Z</time>
      </trkpt>
      <trkpt lat="45.57663" lon="2.32765">
        <ele>744</ele>
        <time>2019-05-18T18:22:45Z</time>
      </trkpt>
      <trkpt lat="45.57656" lon="2.32764">
        <ele>744</ele>
        <time>2019-05-18T18:22:46Z</time>
      </trkpt>
      <trkpt lat="45.57649" lon="2.32764">
        <ele>744</ele>
        <time>2019-05-18T18:22:47Z</time>
      </trkpt>
      <trkpt lat="45.57642" lon="2.32763">
        <ele>743</ele>
        <time>2019-05-18T18:22:48Z</time>
      </trkpt>
      <trkpt lat="45.57635" lon="2.32763">
        <ele>743</ele>
        <time>2019-05-18T18:22:49Z</time>
      </trkpt>
      <trkpt lat="45.57627" lon="2.32762">
        <ele>743</ele>
        <time>2019-05-18T18:22:50Z</time>
      </trkpt>
      <trkpt lat="45.5762" lon="2.32762">
        <ele>742</ele>
        <time>2019-05-18T18:22:51Z</time>
      </trkpt>
      <trkpt lat="45.57612" lon="2.32761">
        <ele>742</ele>
        <time>2019-05-18T18:22:52Z</time>
      </trkpt>
      <trkpt lat="45.57604" lon="2.32761">
        <ele>741</ele>
        <time>2019-05-18T18:22:53Z</time>
      </trkpt>
      <trkpt lat="45.57596" lon="2.3276">
        <ele>741</ele>
        <time>2019-05-18T18:22:54Z</time>
      </trkpt>
      <trkpt lat="45.57587" lon="2.3276">
        <ele>740</ele>
        <time>2019-05-18T18:22:55Z</time>
      </trkpt>
      <trkpt lat="45.57578" lon="2.3276">
        <ele>739</ele>
        <time>2019-05-18T18:22:56Z</time>
      </trkpt>
      <trkpt lat="45.57569" lon="2.3276">
        <ele>738</ele>
        <time>2019-05-18T18:22:57Z</time>
      </trkpt>
      <trkpt lat="45.5756" lon="2.3276">
        <ele>737</ele>
        <time>2019-05-18T18:22:58Z</time>
      </trkpt>
      <trkpt lat="45.5755" lon="2.3276">
        <ele>737</ele>
        <time>2019-05-18T18:22:59Z</time>
      </trkpt>
      <trkpt lat="45.57541" lon="2.3276">
        <ele>737</ele>
        <time>2019-05-18T18:23:00Z</time>
      </trkpt>
      <trkpt lat="45.57532" lon="2.3276">
        <ele>737</ele>
        <time>2019-05-18T18:23:01Z</time>
      </trkpt>
      <trkpt lat="45.57523" lon="2.3276">
        <ele>737</ele>
        <time>2019-05-18T18:23:02Z</time>
      </trkpt>
      <trkpt lat="45.57514" lon="2.32761">
        <ele>737</ele>
        <time>2019-05-18T18:23:03Z</time>
      </trkpt>
      <trkpt lat="45.57507" lon="2.32761">
        <ele>737</ele>
        <time>2019-05-18T18:23:04Z</time>
      </trkpt>
      <trkpt lat="45.57499" lon="2.32761">
        <ele>737</ele>
        <time>2019-05-18T18:23:05Z</time>
      </trkpt>
      <trkpt lat="45.57486" lon="2.3276">
        <ele>738</ele>
        <time>2019-05-18T18:23:07Z</time>
      </trkpt>
      <trkpt lat="45.5748" lon="2.3276">
        <ele>738</ele>
        <time>2019-05-18T18:23:08Z</time>
      </trkpt>
      <trkpt lat="45.57475" lon="2.3276">
        <ele>738</ele>
        <time>2019-05-18T18:23:09Z</time>
      </trkpt>
      <trkpt lat="45.5747" lon="2.32759">
        <ele>739</ele>
        <time>2019-05-18T18:23:10Z</time>
      </trkpt>
      <trkpt lat="45.57465" lon="2.32759">
        <ele>739</ele>
        <time>2019-05-18T18:23:11Z</time>
      </trkpt>
      <trkpt lat="45.5746" lon="2.32758">
        <ele>739</ele>
        <time>2019-05-18T18:23:12Z</time>
      </trkpt>
      <trkpt lat="45.57456" lon="2.32758">
        <ele>739</ele>
        <time>2019-05-18T18:23:13Z</time>
      </trkpt>
      <trkpt lat="45.57451" lon="2.32757">
        <ele>739</ele>
        <time>2019-05-18T18:23:14Z</time>
      </trkpt>
      <trkpt lat="45.57447" lon="2.32757">
        <ele>740</ele>
        <time>2019-05-18T18:23:15Z</time>
      </trkpt>
      <trkpt lat="45.57444" lon="2.32757">
        <ele>740</ele>
        <time>2019-05-18T18:23:16Z</time>
      </trkpt>
      <trkpt lat="45.5744" lon="2.32757">
        <ele>740</ele>
        <time>2019-05-18T18:23:17Z</time>
      </trkpt>
      <trkpt lat="45.57437" lon="2.32756">
        <ele>740</ele>
        <time>2019-05-18T18:23:18Z</time>
      </trkpt>
      <trkpt lat="45.57433" lon="2.32756">
        <ele>740</ele>
        <time>2019-05-18T18:23:19Z</time>
      </trkpt>
      <trkpt lat="45.5743" lon="2.32755">
        <ele>741</ele>
        <time>2019-05-18T18:23:20Z</time>
      </trkpt>
      <trkpt lat="45.57426" lon="2.32755">
        <ele>741</ele>
        <time>2019-05-18T18:23:21Z</time>
      </trkpt>
      <trkpt lat="45.57423" lon="2.32754">
        <ele>741</ele>
        <time>2019-05-18T18:23:22Z</time>
      </trkpt>
      <trkpt lat="45.57419" lon="2.32754">
        <ele>741</ele>
        <time>2019-05-18T18:23:23Z</time>
      </trkpt>
      <trkpt lat="45.57416" lon="2.32753">
        <ele>741</ele>
        <time>2019-05-18T18:23:24Z</time>
      </trkpt>
      <trkpt lat="45.57413" lon="2.32753">
        <ele>741</ele>
        <time>2019-05-18T18:23:25Z</time>
      </trkpt>
      <trkpt lat="45.57409" lon="2.32752">
        <ele>742</ele>
        <time>2019-05-18T18:23:26Z</time>
      </trkpt>
      <trkpt lat="45.57406" lon="2.32752">
        <ele>742</ele>
        <time>2019-05-18T18:23:27Z</time>
      </trkpt>
      <trkpt lat="45.57402" lon="2.32752">
        <ele>742</ele>
        <time>2019-05-18T18:23:28Z</time>
      </trkpt>
      <trkpt lat="45.57399" lon="2.32751">
        <ele>742</ele>
        <time>2019-05-18T18:23:29Z</time>
      </trkpt>
      <trkpt lat="45.57395" lon="2.3275">
        <ele>742</ele>
        <time>2019-05-18T18:23:30Z</time>
      </trkpt>
      <trkpt lat="45.57392" lon="2.3275">
        <ele>742</ele>
        <time>2019-05-18T18:23:31Z</time>
      </trkpt>
      <trkpt lat="45.57389" lon="2.32749">
        <ele>742</ele>
        <time>2019-05-18T18:23:32Z</time>
      </trkpt>
      <trkpt lat="45.57385" lon="2.32747">
        <ele>742</ele>
        <time>2019-05-18T18:23:33Z</time>
      </trkpt>
      <trkpt lat="45.57382" lon="2.32746">
        <ele>742</ele>
        <time>2019-05-18T18:23:34Z</time>
      </trkpt>
      <trkpt lat="45.57379" lon="2.32745">
        <ele>742</ele>
        <time>2019-05-18T18:23:35Z</time>
      </trkpt>
      <trkpt lat="45.57375" lon="2.32743">
        <ele>742</ele>
        <time>2019-05-18T18:23:36Z</time>
      </trkpt>
      <trkpt lat="45.57372" lon="2.32741">
        <ele>742</ele>
        <time>2019-05-18T18:23:37Z</time>
      </trkpt>
      <trkpt lat="45.57368" lon="2.32739">
        <ele>742</ele>
        <time>2019-05-18T18:23:38Z</time>
      </trkpt>
      <trkpt lat="45.57365" lon="2.32737">
        <ele>742</ele>
        <time>2019-05-18T18:23:39Z</time>
      </trkpt>
      <trkpt lat="45.57362" lon="2.32735">
        <ele>742</ele>
        <time>2019-05-18T18:23:40Z</time>
      </trkpt>
      <trkpt lat="45.57358" lon="2.32732">
        <ele>742</ele>
        <time>2019-05-18T18:23:41Z</time>
      </trkpt>
      <trkpt lat="45.57355" lon="2.3273">
        <ele>742</ele>
        <time>2019-05-18T18:23:42Z</time>
      </trkpt>
      <trkpt lat="45.57351" lon="2.32728">
        <ele>742</ele>
        <time>2019-05-18T18:23:43Z</time>
      </trkpt>
      <trkpt lat="45.57348" lon="2.32725">
        <ele>742</ele>
        <time>2019-05-18T18:23:44Z</time>
      </trkpt>
      <trkpt lat="45.57344" lon="2.32723">
        <ele>741</ele>
        <time>2019-05-18T18:23:45Z</time>
      </trkpt>
      <trkpt lat="45.57341" lon="2.32721">
        <ele>741</ele>
        <time>2019-05-18T18:23:46Z</time>
      </trkpt>
      <trkpt lat="45.57337" lon="2.32718">
        <ele>741</ele>
        <time>2019-05-18T18:23:47Z</time>
      </trkpt>
      <trkpt lat="45.57334" lon="2.32716">
        <ele>741</ele>
        <time>2019-05-18T18:23:48Z</time>
      </trkpt>
      <trkpt lat="45.5733" lon="2.32714">
        <ele>741</ele>
        <time>2019-05-18T18:23:49Z</time>
      </trkpt>
      <trkpt lat="45.57326" lon="2.32711">
        <ele>741</ele>
        <time>2019-05-18T18:23:50Z</time>
      </trkpt>
      <trkpt lat="45.57322" lon="2.32709">
        <ele>741</ele>
        <time>2019-05-18T18:23:51Z</time>
      </trkpt>
      <trkpt lat="45.57318" lon="2.32708">
        <ele>741</ele>
        <time>2019-05-18T18:23:52Z</time>
      </trkpt>
      <trkpt lat="45.57313" lon="2.32706">
        <ele>740</ele>
        <time>2019-05-18T18:23:53Z</time>
      </trkpt>
      <trkpt lat="45.57308" lon="2.32705">
        <ele>740</ele>
        <time>2019-05-18T18:23:54Z</time>
      </trkpt>
      <trkpt lat="45.57303" lon="2.32704">
        <ele>740</ele>
        <time>2019-05-18T18:23:55Z</time>
      </trkpt>
      <trkpt lat="45.57298" lon="2.32704">
        <ele>740</ele>
        <time>2019-05-18T18:23:56Z</time>
      </trkpt>
      <trkpt lat="45.57292" lon="2.32704">
        <ele>739</ele>
        <time>2019-05-18T18:23:57Z</time>
      </trkpt>
      <trkpt lat="45.57286" lon="2.32704">
        <ele>739</ele>
        <time>2019-05-18T18:23:58Z</time>
      </trkpt>
      <trkpt lat="45.5728" lon="2.32705">
        <ele>739</ele>
        <time>2019-05-18T18:23:59Z</time>
      </trkpt>
      <trkpt lat="45.57274" lon="2.32707">
        <ele>738</ele>
        <time>2019-05-18T18:24:00Z</time>
      </trkpt>
      <trkpt lat="45.57268" lon="2.32709">
        <ele>738</ele>
        <time>2019-05-18T18:24:01Z</time>
      </trkpt>
      <trkpt lat="45.57263" lon="2.32711">
        <ele>738</ele>
        <time>2019-05-18T18:24:02Z</time>
      </trkpt>
      <trkpt lat="45.57257" lon="2.32713">
        <ele>737</ele>
        <time>2019-05-18T18:24:03Z</time>
      </trkpt>
      <trkpt lat="45.57251" lon="2.32716">
        <ele>737</ele>
        <time>2019-05-18T18:24:04Z</time>
      </trkpt>
      <trkpt lat="45.57244" lon="2.32719">
        <ele>737</ele>
        <time>2019-05-18T18:24:05Z</time>
      </trkpt>
      <trkpt lat="45.57238" lon="2.32722">
        <ele>736</ele>
        <time>2019-05-18T18:24:06Z</time>
      </trkpt>
      <trkpt lat="45.57231" lon="2.32726">
        <ele>736</ele>
        <time>2019-05-18T18:24:07Z</time>
      </trkpt>
      <trkpt lat="45.57225" lon="2.3273">
        <ele>736</ele>
        <time>2019-05-18T18:24:08Z</time>
      </trkpt>
      <trkpt lat="45.57219" lon="2.32733">
        <ele>736</ele>
        <time>2019-05-18T18:24:09Z</time>
      </trkpt>
      <trkpt lat="45.57212" lon="2.32737">
        <ele>735</ele>
        <time>2019-05-18T18:24:10Z</time>
      </trkpt>
      <trkpt lat="45.57206" lon="2.32742">
        <ele>735</ele>
        <time>2019-05-18T18:24:11Z</time>
      </trkpt>
      <trkpt lat="45.57199" lon="2.32746">
        <ele>734</ele>
        <time>2019-05-18T18:24:12Z</time>
      </trkpt>
      <trkpt lat="45.57192" lon="2.3275">
        <ele>734</ele>
        <time>2019-05-18T18:24:13Z</time>
      </trkpt>
      <trkpt lat="45.57185" lon="2.32755">
        <ele>734</ele>
        <time>2019-05-18T18:24:14Z</time>
      </trkpt>
      <trkpt lat="45.57177" lon="2.32759">
        <ele>733</ele>
        <time>2019-05-18T18:24:15Z</time>
      </trkpt>
      <trkpt lat="45.5717" lon="2.32764">
        <ele>733</ele>
        <time>2019-05-18T18:24:16Z</time>
      </trkpt>
      <trkpt lat="45.57162" lon="2.32768">
        <ele>732</ele>
        <time>2019-05-18T18:24:17Z</time>
      </trkpt>
      <trkpt lat="45.57155" lon="2.32773">
        <ele>732</ele>
        <time>2019-05-18T18:24:18Z</time>
      </trkpt>
      <trkpt lat="45.57148" lon="2.32777">
        <ele>732</ele>
        <time>2019-05-18T18:24:19Z</time>
      </trkpt>
      <trkpt lat="45.57141" lon="2.32781">
        <ele>732</ele>
        <time>2019-05-18T18:24:20Z</time>
      </trkpt>
      <trkpt lat="45.57134" lon="2.32785">
        <ele>732</ele>
        <time>2019-05-18T18:24:21Z</time>
      </trkpt>
      <trkpt lat="45.57128" lon="2.32788">
        <ele>732</ele>
        <time>2019-05-18T18:24:22Z</time>
      </trkpt>
      <trkpt lat="45.57121" lon="2.32791">
        <ele>731</ele>
        <time>2019-05-18T18:24:23Z</time>
      </trkpt>
      <trkpt lat="45.57115" lon="2.32795">
        <ele>731</ele>
        <time>2019-05-18T18:24:24Z</time>
      </trkpt>
      <trkpt lat="45.57109" lon="2.32799">
        <ele>731</ele>
        <time>2019-05-18T18:24:25Z</time>
      </trkpt>
      <trkpt lat="45.57103" lon="2.32804">
        <ele>731</ele>
        <time>2019-05-18T18:24:26Z</time>
      </trkpt>
      <trkpt lat="45.57097" lon="2.3281">
        <ele>731</ele>
        <time>2019-05-18T18:24:27Z</time>
      </trkpt>
      <trkpt lat="45.57093" lon="2.32817">
        <ele>730</ele>
        <time>2019-05-18T18:24:28Z</time>
      </trkpt>
      <trkpt lat="45.5709" lon="2.32825">
        <ele>730</ele>
        <time>2019-05-18T18:24:29Z</time>
      </trkpt>
      <trkpt lat="45.57088" lon="2.32834">
        <ele>730</ele>
        <time>2019-05-18T18:24:30Z</time>
      </trkpt>
      <trkpt lat="45.57087" lon="2.32843">
        <ele>730</ele>
        <time>2019-05-18T18:24:31Z</time>
      </trkpt>
      <trkpt lat="45.57087" lon="2.32852">
        <ele>730</ele>
        <time>2019-05-18T18:24:32Z</time>
      </trkpt>
      <trkpt lat="45.57086" lon="2.3286">
        <ele>730</ele>
        <time>2019-05-18T18:24:33Z</time>
      </trkpt>
      <trkpt lat="45.57086" lon="2.32868">
        <ele>730</ele>
        <time>2019-05-18T18:24:34Z</time>
      </trkpt>
      <trkpt lat="45.57085" lon="2.32876">
        <ele>730</ele>
        <time>2019-05-18T18:24:35Z</time>
      </trkpt>
      <trkpt lat="45.57085" lon="2.32883">
        <ele>730</ele>
        <time>2019-05-18T18:24:36Z</time>
      </trkpt>
      <trkpt lat="45.57085" lon="2.3289">
        <ele>730</ele>
        <time>2019-05-18T18:24:37Z</time>
      </trkpt>
      <trkpt lat="45.57084" lon="2.32897">
        <ele>731</ele>
        <time>2019-05-18T18:24:38Z</time>
      </trkpt>
      <trkpt lat="45.57084" lon="2.32904">
        <ele>731</ele>
        <time>2019-05-18T18:24:39Z</time>
      </trkpt>
      <trkpt lat="45.57084" lon="2.32911">
        <ele>731</ele>
        <time>2019-05-18T18:24:40Z</time>
      </trkpt>
      <trkpt lat="45.57084" lon="2.32917">
        <ele>731</ele>
        <time>2019-05-18T18:24:41Z</time>
      </trkpt>
      <trkpt lat="45.57083" lon="2.32924">
        <ele>731</ele>
        <time>2019-05-18T18:24:42Z</time>
      </trkpt>
      <trkpt lat="45.57083" lon="2.3293">
        <ele>731</ele>
        <time>2019-05-18T18:24:43Z</time>
      </trkpt>
      <trkpt lat="45.57082" lon="2.32936">
        <ele>731</ele>
        <time>2019-05-18T18:24:44Z</time>
      </trkpt>
      <trkpt lat="45.57082" lon="2.32942">
        <ele>731</ele>
        <time>2019-05-18T18:24:45Z</time>
      </trkpt>
      <trkpt lat="45.5708" lon="2.32948">
        <ele>731</ele>
        <time>2019-05-18T18:24:46Z</time>
      </trkpt>
      <trkpt lat="45.57078" lon="2.32953">
        <ele>731</ele>
        <time>2019-05-18T18:24:47Z</time>
      </trkpt>
      <trkpt lat="45.57076" lon="2.32957">
        <ele>731</ele>
        <time>2019-05-18T18:24:48Z</time>
      </trkpt>
      <trkpt lat="45.57073" lon="2.32962">
        <ele>731</ele>
        <time>2019-05-18T18:24:49Z</time>
      </trkpt>
      <trkpt lat="45.5707" lon="2.32966">
        <ele>731</ele>
        <time>2019-05-18T18:24:50Z</time>
      </trkpt>
      <trkpt lat="45.57067" lon="2.3297">
        <ele>731</ele>
        <time>2019-05-18T18:24:51Z</time>
      </trkpt>
      <trkpt lat="45.57064" lon="2.32974">
        <ele>731</ele>
        <time>2019-05-18T18:24:52Z</time>
      </trkpt>
      <trkpt lat="45.57061" lon="2.32978">
        <ele>731</ele>
        <time>2019-05-18T18:24:53Z</time>
      </trkpt>
      <trkpt lat="45.57058" lon="2.32981">
        <ele>732</ele>
        <time>2019-05-18T18:24:54Z</time>
      </trkpt>
      <trkpt lat="45.57056" lon="2.32985">
        <ele>732</ele>
        <time>2019-05-18T18:24:55Z</time>
      </trkpt>
      <trkpt lat="45.57053" lon="2.32989">
        <ele>732</ele>
        <time>2019-05-18T18:24:56Z</time>
      </trkpt>
      <trkpt lat="45.57051" lon="2.32992">
        <ele>732</ele>
        <time>2019-05-18T18:24:57Z</time>
      </trkpt>
      <trkpt lat="45.57048" lon="2.32996">
        <ele>732</ele>
        <time>2019-05-18T18:24:58Z</time>
      </trkpt>
      <trkpt lat="45.57046" lon="2.33">
        <ele>732</ele>
        <time>2019-05-18T18:24:59Z</time>
      </trkpt>
      <trkpt lat="45.57043" lon="2.33003">
        <ele>732</ele>
        <time>2019-05-18T18:25:00Z</time>
      </trkpt>
      <trkpt lat="45.57041" lon="2.33007">
        <ele>732</ele>
        <time>2019-05-18T18:25:01Z</time>
      </trkpt>
      <trkpt lat="45.57039" lon="2.33011">
        <ele>732</ele>
        <time>2019-05-18T18:25:02Z</time>
      </trkpt>
      <trkpt lat="45.57037" lon="2.33015">
        <ele>732</ele>
        <time>2019-05-18T18:25:03Z</time>
      </trkpt>
      <trkpt lat="45.57034" lon="2.33019">
        <ele>732</ele>
        <time>2019-05-18T18:25:04Z</time>
      </trkpt>
      <trkpt lat="45.57032" lon="2.33022">
        <ele>733</ele>
        <time>2019-05-18T18:25:05Z</time>
      </trkpt>
      <trkpt lat="45.5703" lon="2.33026">
        <ele>733</ele>
        <time>2019-05-18T18:25:06Z</time>
      </trkpt>
      <trkpt lat="45.57028" lon="2.3303">
        <ele>733</ele>
        <time>2019-05-18T18:25:07Z</time>
      </trkpt>
      <trkpt lat="45.57026" lon="2.33033">
        <ele>733</ele>
        <time>2019-05-18T18:25:08Z</time>
      </trkpt>
      <trkpt lat="45.57023" lon="2.33037">
        <ele>733</ele>
        <time>2019-05-18T18:25:09Z</time>
      </trkpt>
      <trkpt lat="45.57021" lon="2.3304">
        <ele>733</ele>
        <time>2019-05-18T18:25:10Z</time>
      </trkpt>
      <trkpt lat="45.57019" lon="2.33044">
        <ele>733</ele>
        <time>2019-05-18T18:25:11Z</time>
      </trkpt>
      <trkpt lat="45.57016" lon="2.33047">
        <ele>733</ele>
        <time>2019-05-18T18:25:12Z</time>
      </trkpt>
      <trkpt lat="45.57014" lon="2.33051">
        <ele>733</ele>
        <time>2019-05-18T18:25:13Z</time>
      </trkpt>
      <trkpt lat="45.57012" lon="2.33055">
        <ele>733</ele>
        <time>2019-05-18T18:25:14Z</time>
      </trkpt>
      <trkpt lat="45.57009" lon="2.33059">
        <ele>734</ele>
        <time>2019-05-18T18:25:15Z</time>
      </trkpt>
      <trkpt lat="45.57007" lon="2.33063">
        <ele>734</ele>
        <time>2019-05-18T18:25:16Z</time>
      </trkpt>
      <trkpt lat="45.57005" lon="2.33067">
        <ele>734</ele>
        <time>2019-05-18T18:25:17Z</time>
      </trkpt>
      <trkpt lat="45.57002" lon="2.33071">
        <ele>734</ele>
        <time>2019-05-18T18:25:18Z</time>
      </trkpt>
      <trkpt lat="45.56999" lon="2.33075">
        <ele>734</ele>
        <time>2019-05-18T18:25:19Z</time>
      </trkpt>
      <trkpt lat="45.56995" lon="2.33078">
        <ele>734</ele>
        <time>2019-05-18T18:25:20Z</time>
      </trkpt>
      <trkpt lat="45.56992" lon="2.33082">
        <ele>733</ele>
        <time>2019-05-18T18:25:21Z</time>
      </trkpt>
      <trkpt lat="45.56988" lon="2.33085">
        <ele>733</ele>
        <time>2019-05-18T18:25:22Z</time>
      </trkpt>
      <trkpt lat="45.56984" lon="2.33088">
        <ele>733</ele>
        <time>2019-05-18T18:25:23Z</time>
      </trkpt>
      <trkpt lat="45.56979" lon="2.33091">
        <ele>733</ele>
        <time>2019-05-18T18:25:24Z</time>
      </trkpt>
      <trkpt lat="45.56974" lon="2.33093">
        <ele>733</ele>
        <time>2019-05-18T18:25:25Z</time>
      </trkpt>
      <trkpt lat="45.56969" lon="2.33096">
        <ele>732</ele>
        <time>2019-05-18T18:25:26Z</time>
      </trkpt>
      <trkpt lat="45.56964" lon="2.33098">
        <ele>732</ele>
        <time>2019-05-18T18:25:27Z</time>
      </trkpt>
      <trkpt lat="45.56959" lon="2.331">
        <ele>732</ele>
        <time>2019-05-18T18:25:28Z</time>
      </trkpt>
      <trkpt lat="45.56954" lon="2.33098">
        <ele>732</ele>
        <time>2019-05-18T18:25:29Z</time>
      </trkpt>
      <trkpt lat="45.5695" lon="2.33095">
        <ele>732</ele>
        <time>2019-05-18T18:25:30Z</time>
      </trkpt>
      <trkpt lat="45.56947" lon="2.33091">
        <ele>732</ele>
        <time>2019-05-18T18:25:31Z</time>
      </trkpt>
      <trkpt lat="45.56943" lon="2.33088">
        <ele>732</ele>
        <time>2019-05-18T18:25:32Z</time>
      </trkpt>
      <trkpt lat="45.5694" lon="2.33084">
        <ele>732</ele>
        <time>2019-05-18T18:25:33Z</time>
      </trkpt>
      <trkpt lat="45.56937" lon="2.3308">
        <ele>732</ele>
        <time>2019-05-18T18:25:34Z</time>
      </trkpt>
      <trkpt lat="45.56934" lon="2.33076">
        <ele>733</ele>
        <time>2019-05-18T18:25:35Z</time>
      </trkpt>
      <trkpt lat="45.5693" lon="2.33073">
        <ele>733</ele>
        <time>2019-05-18T18:25:36Z</time>
      </trkpt>
      <trkpt lat="45.56927" lon="2.33069">
        <ele>733</ele>
        <time>2019-05-18T18:25:37Z</time>
      </trkpt>
      <trkpt lat="45.56924" lon="2.33065">
        <ele>733</ele>
        <time>2019-05-18T18:25:38Z</time>
      </trkpt>
      <trkpt lat="45.56921" lon="2.33062">
        <ele>733</ele>
        <time>2019-05-18T18:25:39Z</time>
      </trkpt>
      <trkpt lat="45.56918" lon="2.33058">
        <ele>733</ele>
        <time>2019-05-18T18:25:40Z</time>
      </trkpt>
      <trkpt lat="45.56914" lon="2.33054">
        <ele>734</ele>
        <time>2019-05-18T18:25:41Z</time>
      </trkpt>
      <trkpt lat="45.56911" lon="2.3305">
        <ele>734</ele>
        <time>2019-05-18T18:25:42Z</time>
      </trkpt>
      <trkpt lat="45.56908" lon="2.33047">
        <ele>734</ele>
        <time>2019-05-18T18:25:43Z</time>
      </trkpt>
      <trkpt lat="45.56905" lon="2.33043">
        <ele>734</ele>
        <time>2019-05-18T18:25:44Z</time>
      </trkpt>
      <trkpt lat="45.56902" lon="2.33039">
        <ele>734</ele>
        <time>2019-05-18T18:25:45Z</time>
      </trkpt>
      <trkpt lat="45.56899" lon="2.33036">
        <ele>734</ele>
        <time>2019-05-18T18:25:46Z</time>
      </trkpt>
      <trkpt lat="45.56895" lon="2.33032">
        <ele>734</ele>
        <time>2019-05-18T18:25:47Z</time>
      </trkpt>
      <trkpt lat="45.56892" lon="2.33029">
        <ele>735</ele>
        <time>2019-05-18T18:25:48Z</time>
      </trkpt>
      <trkpt lat="45.56889" lon="2.33026">
        <ele>735</ele>
        <time>2019-05-18T18:25:49Z</time>
      </trkpt>
      <trkpt lat="45.56886" lon="2.33022">
        <ele>735</ele>
        <time>2019-05-18T18:25:50Z</time>
      </trkpt>
      <trkpt lat="45.56883" lon="2.33018">
        <ele>735</ele>
        <time>2019-05-18T18:25:51Z</time>
      </trkpt>
      <trkpt lat="45.5688" lon="2.33015">
        <ele>735</ele>
        <time>2019-05-18T18:25:52Z</time>
      </trkpt>
      <trkpt lat="45.56877" lon="2.33011">
        <ele>735</ele>
        <time>2019-05-18T18:25:53Z</time>
      </trkpt>
      <trkpt lat="45.56873" lon="2.33008">
        <ele>735</ele>
        <time>2019-05-18T18:25:54Z</time>
      </trkpt>
      <trkpt lat="45.5687" lon="2.33005">
        <ele>736</ele>
        <time>2019-05-18T18:25:55Z</time>
      </trkpt>
      <trkpt lat="45.56867" lon="2.33001">
        <ele>736</ele>
        <time>2019-05-18T18:25:56Z</time>
      </trkpt>
      <trkpt lat="45.56865" lon="2.32998">
        <ele>736</ele>
        <time>2019-05-18T18:25:57Z</time>
      </trkpt>
      <trkpt lat="45.56862" lon="2.32994">
        <ele>736</ele>
        <time>2019-05-18T18:25:58Z</time>
      </trkpt>
      <trkpt lat="45.56859" lon="2.32991">
        <ele>736</ele>
        <time>2019-05-18T18:25:59Z</time>
      </trkpt>
      <trkpt lat="45.56856" lon="2.32987">
        <ele>736</ele>
        <time>2019-05-18T18:26:00Z</time>
      </trkpt>
      <trkpt lat="45.56853" lon="2.32984">
        <ele>736</ele>
        <time>2019-05-18T18:26:01Z</time>
      </trkpt>
      <trkpt lat="45.5685" lon="2.3298">
        <ele>737</ele>
        <time>2019-05-18T18:26:02Z</time>
      </trkpt>
      <trkpt lat="45.56847" lon="2.32977">
        <ele>737</ele>
        <time>2019-05-18T18:26:03Z</time>
      </trkpt>
      <trkpt lat="45.56844" lon="2.32974">
        <ele>737</ele>
        <time>2019-05-18T18:26:04Z</time>
      </trkpt>
      <trkpt lat="45.56841" lon="2.3297">
        <ele>737</ele>
        <time>2019-05-18T18:26:05Z</time>
      </trkpt>
      <trkpt lat="45.56837" lon="2.32967">
        <ele>737</ele>
        <time>2019-05-18T18:26:06Z</time>
      </trkpt>
      <trkpt lat="45.56835" lon="2.32963">
        <ele>737</ele>
        <time>2019-05-18T18:26:07Z</time>
      </trkpt>
      <trkpt lat="45.56832" lon="2.3296">
        <ele>737</ele>
        <time>2019-05-18T18:26:08Z</time>
      </trkpt>
      <trkpt lat="45.56829" lon="2.32956">
        <ele>737</ele>
        <time>2019-05-18T18:26:09Z</time>
      </trkpt>
      <trkpt lat="45.56826" lon="2.32953">
        <ele>738</ele>
        <time>2019-05-18T18:26:10Z</time>
      </trkpt>
      <trkpt lat="45.56823" lon="2.3295">
        <ele>738</ele>
        <time>2019-05-18T18:26:11Z</time>
      </trkpt>
      <trkpt lat="45.5682" lon="2.32946">
        <ele>738</ele>
        <time>2019-05-18T18:26:12Z</time>
      </trkpt>
      <trkpt lat="45.56817" lon="2.32943">
        <ele>738</ele>
        <time>2019-05-18T18:26:13Z</time>
      </trkpt>
      <trkpt lat="45.56814" lon="2.32939">
        <ele>738</ele>
        <time>2019-05-18T18:26:14Z</time>
      </trkpt>
      <trkpt lat="45.56811" lon="2.32936">
        <ele>738</ele>
        <time>2019-05-18T18:26:15Z</time>
      </trkpt>
      <trkpt lat="45.56809" lon="2.32933">
        <ele>738</ele>
        <time>2019-05-18T18:26:16Z</time>
      </trkpt>
      <trkpt lat="45.56806" lon="2.32929">
        <ele>739</ele>
        <time>2019-05-18T18:26:17Z</time>
      </trkpt>
      <trkpt lat="45.56803" lon="2.32926">
        <ele>739</ele>
        <time>2019-05-18T18:26:18Z</time>
      </trkpt>
      <trkpt lat="45.568" lon="2.32923">
        <ele>739</ele>
        <time>2019-05-18T18:26:19Z</time>
      </trkpt>
      <trkpt lat="45.56797" lon="2.3292">
        <ele>739</ele>
        <time>2019-05-18T18:26:20Z</time>
      </trkpt>
      <trkpt lat="45.56795" lon="2.32916">
        <ele>739</ele>
        <time>2019-05-18T18:26:21Z</time>
      </trkpt>
      <trkpt lat="45.56792" lon="2.32913">
        <ele>739</ele>
        <time>2019-05-18T18:26:22Z</time>
      </trkpt>
      <trkpt lat="45.56789" lon="2.3291">
        <ele>739</ele>
        <time>2019-05-18T18:26:23Z</time>
      </trkpt>
      <trkpt lat="45.56786" lon="2.32906">
        <ele>739</ele>
        <time>2019-05-18T18:26:24Z</time>
      </trkpt>
      <trkpt lat="45.56783" lon="2.32903">
        <ele>739</ele>
        <time>2019-05-18T18:26:25Z</time>
      </trkpt>
      <trkpt lat="45.5678" lon="2.32899">
        <ele>739</ele>
        <time>2019-05-18T18:26:26Z</time>
      </trkpt>
      <trkpt lat="45.56776" lon="2.32895">
        <ele>739</ele>
        <time>2019-05-18T18:26:27Z</time>
      </trkpt>
      <trkpt lat="45.56773" lon="2.32892">
        <ele>739</ele>
        <time>2019-05-18T18:26:28Z</time>
      </trkpt>
      <trkpt lat="45.5677" lon="2.32888">
        <ele>739</ele>
        <time>2019-05-18T18:26:29Z</time>
      </trkpt>
      <trkpt lat="45.56767" lon="2.32884">
        <ele>739</ele>
        <time>2019-05-18T18:26:30Z</time>
      </trkpt>
      <trkpt lat="45.56764" lon="2.3288">
        <ele>739</ele>
        <time>2019-05-18T18:26:31Z</time>
      </trkpt>
      <trkpt lat="45.5676" lon="2.32876">
        <ele>739</ele>
        <time>2019-05-18T18:26:32Z</time>
      </trkpt>
      <trkpt lat="45.56757" lon="2.32872">
        <ele>739</ele>
        <time>2019-05-18T18:26:33Z</time>
      </trkpt>
      <trkpt lat="45.56754" lon="2.32868">
        <ele>738</ele>
        <time>2019-05-18T18:26:34Z</time>
      </trkpt>
      <trkpt lat="45.56751" lon="2.32864">
        <ele>739</ele>
        <time>2019-05-18T18:26:35Z</time>
      </trkpt>
      <trkpt lat="45.56748" lon="2.3286">
        <ele>738</ele>
        <time>2019-05-18T18:26:36Z</time>
      </trkpt>
      <trkpt lat="45.56745" lon="2.32856">
        <ele>739</ele>
        <time>2019-05-18T18:26:37Z</time>
      </trkpt>
      <trkpt lat="45.56741" lon="2.32852">
        <ele>738</ele>
        <time>2019-05-18T18:26:38Z</time>
      </trkpt>
      <trkpt lat="45.56738" lon="2.32848">
        <ele>738</ele>
        <time>2019-05-18T18:26:39Z</time>
      </trkpt>
      <trkpt lat="45.56734" lon="2.32844">
        <ele>738</ele>
        <time>2019-05-18T18:26:40Z</time>
      </trkpt>
      <trkpt lat="45.56731" lon="2.3284">
        <ele>738</ele>
        <time>2019-05-18T18:26:41Z</time>
      </trkpt>
      <trkpt lat="45.56728" lon="2.32836">
        <ele>738</ele>
        <time>2019-05-18T18:26:42Z</time>
      </trkpt>
      <trkpt lat="45.56724" lon="2.32832">
        <ele>739</ele>
        <time>2019-05-18T18:26:43Z</time>
      </trkpt>
      <trkpt lat="45.56721" lon="2.32828">
        <ele>738</ele>
        <time>2019-05-18T18:26:44Z</time>
      </trkpt>
      <trkpt lat="45.56718" lon="2.32824">
        <ele>738</ele>
        <time>2019-05-18T18:26:45Z</time>
      </trkpt>
      <trkpt lat="45.56714" lon="2.3282">
        <ele>738</ele>
        <time>2019-05-18T18:26:46Z</time>
      </trkpt>
      <trkpt lat="45.56711" lon="2.32816">
        <ele>738</ele>
        <time>2019-05-18T18:26:47Z</time>
      </trkpt>
      <trkpt lat="45.56707" lon="2.32812">
        <ele>738</ele>
        <time>2019-05-18T18:26:48Z</time>
      </trkpt>
      <trkpt lat="45.56704" lon="2.32808">
        <ele>738</ele>
        <time>2019-05-18T18:26:49Z</time>
      </trkpt>
      <trkpt lat="45.56701" lon="2.32804">
        <ele>738</ele>
        <time>2019-05-18T18:26:50Z</time>
      </trkpt>
      <trkpt lat="45.56697" lon="2.328">
        <ele>738</ele>
        <time>2019-05-18T18:26:51Z</time>
      </trkpt>
      <trkpt lat="45.56694" lon="2.32796">
        <ele>738</ele>
        <time>2019-05-18T18:26:52Z</time>
      </trkpt>
      <trkpt lat="45.56691" lon="2.32792">
        <ele>738</ele>
        <time>2019-05-18T18:26:53Z</time>
      </trkpt>
      <trkpt lat="45.56687" lon="2.32789">
        <ele>738</ele>
        <time>2019-05-18T18:26:54Z</time>
      </trkpt>
      <trkpt lat="45.56684" lon="2.32785">
        <ele>739</ele>
        <time>2019-05-18T18:26:55Z</time>
      </trkpt>
      <trkpt lat="45.5668" lon="2.32782">
        <ele>738</ele>
        <time>2019-05-18T18:26:56Z</time>
      </trkpt>
      <trkpt lat="45.56677" lon="2.32778">
        <ele>738</ele>
        <time>2019-05-18T18:26:57Z</time>
      </trkpt>
      <trkpt lat="45.56674" lon="2.32774">
        <ele>739</ele>
        <time>2019-05-18T18:26:58Z</time>
      </trkpt>
      <trkpt lat="45.5667" lon="2.3277">
        <ele>739</ele>
        <time>2019-05-18T18:26:59Z</time>
      </trkpt>
      <trkpt lat="45.56667" lon="2.32766">
        <ele>738</ele>
        <time>2019-05-18T18:27:00Z</time>
      </trkpt>
      <trkpt lat="45.56664" lon="2.32762">
        <ele>738</ele>
        <time>2019-05-18T18:27:01Z</time>
      </trkpt>
      <trkpt lat="45.5666" lon="2.32758">
        <ele>738</ele>
        <time>2019-05-18T18:27:02Z</time>
      </trkpt>
      <trkpt lat="45.56657" lon="2.32754">
        <ele>739</ele>
        <time>2019-05-18T18:27:03Z</time>
      </trkpt>
      <trkpt lat="45.56654" lon="2.3275">
        <ele>738</ele>
        <time>2019-05-18T18:27:04Z</time>
      </trkpt>
      <trkpt lat="45.5665" lon="2.32746">
        <ele>738</ele>
        <time>2019-05-18T18:27:05Z</time>
      </trkpt>
      <trkpt lat="45.56647" lon="2.32742">
        <ele>738</ele>
        <time>2019-05-18T18:27:06Z</time>
      </trkpt>
      <trkpt lat="45.56644" lon="2.32738">
        <ele>738</ele>
        <time>2019-05-18T18:27:07Z</time>
      </trkpt>
      <trkpt lat="45.56641" lon="2.32734">
        <ele>738</ele>
        <time>2019-05-18T18:27:08Z</time>
      </trkpt>
      <trkpt lat="45.56638" lon="2.32731">
        <ele>738</ele>
        <time>2019-05-18T18:27:09Z</time>
      </trkpt>
      <trkpt lat="45.56634" lon="2.32727">
        <ele>738</ele>
        <time>2019-05-18T18:27:10Z</time>
      </trkpt>
      <trkpt lat="45.56631" lon="2.32723">
        <ele>738</ele>
        <time>2019-05-18T18:27:11Z</time>
      </trkpt>
      <trkpt lat="45.56627" lon="2.32719">
        <ele>738</ele>
        <time>2019-05-18T18:27:12Z</time>
      </trkpt>
      <trkpt lat="45.56624" lon="2.32715">
        <ele>738</ele>
        <time>2019-05-18T18:27:13Z</time>
      </trkpt>
      <trkpt lat="45.5662" lon="2.32711">
        <ele>737</ele>
        <time>2019-05-18T18:27:14Z</time>
      </trkpt>
      <trkpt lat="45.56617" lon="2.32707">
        <ele>737</ele>
        <time>2019-05-18T18:27:15Z</time>
      </trkpt>
      <trkpt lat="45.56613" lon="2.32702">
        <ele>737</ele>
        <time>2019-05-18T18:27:16Z</time>
      </trkpt>
      <trkpt lat="45.56609" lon="2.32698">
        <ele>737</ele>
        <time>2019-05-18T18:27:17Z</time>
      </trkpt>
      <trkpt lat="45.56605" lon="2.32693">
        <ele>737</ele>
        <time>2019-05-18T18:27:18Z</time>
      </trkpt>
      <trkpt lat="45.56601" lon="2.32688">
        <ele>736</ele>
        <time>2019-05-18T18:27:19Z</time>
      </trkpt>
      <trkpt lat="45.56597" lon="2.32683">
        <ele>736</ele>
        <time>2019-05-18T18:27:20Z</time>
      </trkpt>
      <trkpt lat="45.56592" lon="2.32678">
        <ele>736</ele>
        <time>2019-05-18T18:27:21Z</time>
      </trkpt>
      <trkpt lat="45.56587" lon="2.32673">
        <ele>735</ele>
        <time>2019-05-18T18:27:22Z</time>
      </trkpt>
      <trkpt lat="45.56583" lon="2.32667">
        <ele>735</ele>
        <time>2019-05-18T18:27:23Z</time>
      </trkpt>
      <trkpt lat="45.56578" lon="2.32661">
        <ele>734</ele>
        <time>2019-05-18T18:27:24Z</time>
      </trkpt>
      <trkpt lat="45.56573" lon="2.32654">
        <ele>734</ele>
        <time>2019-05-18T18:27:25Z</time>
      </trkpt>
      <trkpt lat="45.56568" lon="2.32647">
        <ele>734</ele>
        <time>2019-05-18T18:27:26Z</time>
      </trkpt>
      <trkpt lat="45.56563" lon="2.32641">
        <ele>733</ele>
        <time>2019-05-18T18:27:27Z</time>
      </trkpt>
      <trkpt lat="45.56557" lon="2.32635">
        <ele>733</ele>
        <time>2019-05-18T18:27:28Z</time>
      </trkpt>
      <trkpt lat="45.56551" lon="2.3263">
        <ele>733</ele>
        <time>2019-05-18T18:27:29Z</time>
      </trkpt>
      <trkpt lat="45.56546" lon="2.32624">
        <ele>733</ele>
        <time>2019-05-18T18:27:30Z</time>
      </trkpt>
      <trkpt lat="45.5654" lon="2.32618">
        <ele>732</ele>
        <time>2019-05-18T18:27:31Z</time>
      </trkpt>
      <trkpt lat="45.56535" lon="2.32611">
        <ele>732</ele>
        <time>2019-05-18T18:27:32Z</time>
      </trkpt>
      <trkpt lat="45.56529" lon="2.32605">
        <ele>732</ele>
        <time>2019-05-18T18:27:33Z</time>
      </trkpt>
      <trkpt lat="45.56523" lon="2.32598">
        <ele>731</ele>
        <time>2019-05-18T18:27:34Z</time>
      </trkpt>
      <trkpt lat="45.56518" lon="2.32591">
        <ele>731</ele>
        <time>2019-05-18T18:27:35Z</time>
      </trkpt>
      <trkpt lat="45.56512" lon="2.32584">
        <ele>731</ele>
        <time>2019-05-18T18:27:36Z</time>
      </trkpt>
      <trkpt lat="45.56506" lon="2.32577">
        <ele>730</ele>
        <time>2019-05-18T18:27:37Z</time>
      </trkpt>
      <trkpt lat="45.565" lon="2.3257">
        <ele>730</ele>
        <time>2019-05-18T18:27:38Z</time>
      </trkpt>
      <trkpt lat="45.56493" lon="2.32563">
        <ele>730</ele>
        <time>2019-05-18T18:27:39Z</time>
      </trkpt>
      <trkpt lat="45.56487" lon="2.32556">
        <ele>729</ele>
        <time>2019-05-18T18:27:40Z</time>
      </trkpt>
      <trkpt lat="45.56481" lon="2.32549">
        <ele>729</ele>
        <time>2019-05-18T18:27:41Z</time>
      </trkpt>
      <trkpt lat="45.56475" lon="2.32541">
        <ele>729</ele>
        <time>2019-05-18T18:27:42Z</time>
      </trkpt>
      <trkpt lat="45.56469" lon="2.32534">
        <ele>728</ele>
        <time>2019-05-18T18:27:43Z</time>
      </trkpt>
      <trkpt lat="45.56463" lon="2.32527">
        <ele>728</ele>
        <time>2019-05-18T18:27:44Z</time>
      </trkpt>
      <trkpt lat="45.56456" lon="2.3252">
        <ele>727</ele>
        <time>2019-05-18T18:27:45Z</time>
      </trkpt>
      <trkpt lat="45.5645" lon="2.32512">
        <ele>727</ele>
        <time>2019-05-18T18:27:46Z</time>
      </trkpt>
      <trkpt lat="45.56444" lon="2.32505">
        <ele>727</ele>
        <time>2019-05-18T18:27:47Z</time>
      </trkpt>
      <trkpt lat="45.56437" lon="2.32498">
        <ele>726</ele>
        <time>2019-05-18T18:27:48Z</time>
      </trkpt>
      <trkpt lat="45.56431" lon="2.3249">
        <ele>726</ele>
        <time>2019-05-18T18:27:49Z</time>
      </trkpt>
      <trkpt lat="45.56425" lon="2.32483">
        <ele>726</ele>
        <time>2019-05-18T18:27:50Z</time>
      </trkpt>
      <trkpt lat="45.5642" lon="2.32476">
        <ele>725</ele>
        <time>2019-05-18T18:27:51Z</time>
      </trkpt>
      <trkpt lat="45.56415" lon="2.32468">
        <ele>725</ele>
        <time>2019-05-18T18:27:52Z</time>
      </trkpt>
      <trkpt lat="45.56411" lon="2.32461">
        <ele>725</ele>
        <time>2019-05-18T18:27:53Z</time>
      </trkpt>
      <trkpt lat="45.56409" lon="2.32454">
        <ele>725</ele>
        <time>2019-05-18T18:27:54Z</time>
      </trkpt>
      <trkpt lat="45.56408" lon="2.32447">
        <ele>724</ele>
        <time>2019-05-18T18:27:55Z</time>
      </trkpt>
      <trkpt lat="45.5641" lon="2.32441">
        <ele>724</ele>
        <time>2019-05-18T18:27:56Z</time>
      </trkpt>
      <trkpt lat="45.56409" lon="2.32435">
        <ele>724</ele>
        <time>2019-05-18T18:27:57Z</time>
      </trkpt>
      <trkpt lat="45.56408" lon="2.32429">
        <ele>724</ele>
        <time>2019-05-18T18:27:58Z</time>
      </trkpt>
      <trkpt lat="45.56406" lon="2.32423">
        <ele>724</ele>
        <time>2019-05-18T18:27:59Z</time>
      </trkpt>
      <trkpt lat="45.56403" lon="2.32419">
        <ele>724</ele>
        <time>2019-05-18T18:28:00Z</time>
      </trkpt>
      <trkpt lat="45.56402" lon="2.32413">
        <ele>724</ele>
        <time>2019-05-18T18:28:01Z</time>
      </trkpt>
      <trkpt lat="45.56399" lon="2.32408">
        <ele>723</ele>
        <time>2019-05-18T18:28:02Z</time>
      </trkpt>
      <trkpt lat="45.56396" lon="2.32404">
        <ele>723</ele>
        <time>2019-05-18T18:28:03Z</time>
      </trkpt>
      <trkpt lat="45.56392" lon="2.32402">
        <ele>723</ele>
        <time>2019-05-18T18:28:04Z</time>
      </trkpt>
      <trkpt lat="45.56387" lon="2.32402">
        <ele>723</ele>
        <time>2019-05-18T18:28:05Z</time>
      </trkpt>
      <trkpt lat="45.56384" lon="2.32405">
        <ele>723</ele>
        <time>2019-05-18T18:28:06Z</time>
      </trkpt>
      <trkpt lat="45.56381" lon="2.32409">
        <ele>723</ele>
        <time>2019-05-18T18:28:07Z</time>
      </trkpt>
      <trkpt lat="45.56377" lon="2.32411">
        <ele>723</ele>
        <time>2019-05-18T18:28:08Z</time>
      </trkpt>
      <trkpt lat="45.56374" lon="2.32411">
        <ele>723</ele>
        <time>2019-05-18T18:28:09Z</time>
      </trkpt>
      <trkpt lat="45.5637" lon="2.32409">
        <ele>723</ele>
        <time>2019-05-18T18:28:10Z</time>
      </trkpt>
      <trkpt lat="45.56366" lon="2.32407">
        <ele>723</ele>
        <time>2019-05-18T18:28:11Z</time>
      </trkpt>
      <trkpt lat="45.56362" lon="2.32404">
        <ele>722</ele>
        <time>2019-05-18T18:28:12Z</time>
      </trkpt>
      <trkpt lat="45.56359" lon="2.32401">
        <ele>722</ele>
        <time>2019-05-18T18:28:13Z</time>
      </trkpt>
      <trkpt lat="45.56355" lon="2.32397">
        <ele>722</ele>
        <time>2019-05-18T18:28:14Z</time>
      </trkpt>
      <trkpt lat="45.5635" lon="2.32393">
        <ele>721</ele>
        <time>2019-05-18T18:28:15Z</time>
      </trkpt>
      <trkpt lat="45.56346" lon="2.32389">
        <ele>721</ele>
        <time>2019-05-18T18:28:16Z</time>
      </trkpt>
      <trkpt lat="45.56341" lon="2.32385">
        <ele>721</ele>
        <time>2019-05-18T18:28:17Z</time>
      </trkpt>
      <trkpt lat="45.56337" lon="2.3238">
        <ele>721</ele>
        <time>2019-05-18T18:28:18Z</time>
      </trkpt>
      <trkpt lat="45.56332" lon="2.32375">
        <ele>720</ele>
        <time>2019-05-18T18:28:19Z</time>
      </trkpt>
      <trkpt lat="45.56328" lon="2.3237">
        <ele>720</ele>
        <time>2019-05-18T18:28:20Z</time>
      </trkpt>
      <trkpt lat="45.56324" lon="2.32364">
        <ele>720</ele>
        <time>2019-05-18T18:28:21Z</time>
      </trkpt>
      <trkpt lat="45.56319" lon="2.32359">
        <ele>720</ele>
        <time>2019-05-18T18:28:22Z</time>
      </trkpt>
      <trkpt lat="45.56314" lon="2.32354">
        <ele>719</ele>
        <time>2019-05-18T18:28:23Z</time>
      </trkpt>
      <trkpt lat="45.56309" lon="2.32348">
        <ele>719</ele>
        <time>2019-05-18T18:28:24Z</time>
      </trkpt>
      <trkpt lat="45.56304" lon="2.32342">
        <ele>719</ele>
        <time>2019-05-18T18:28:25Z</time>
      </trkpt>
      <trkpt lat="45.56299" lon="2.32337">
        <ele>714</ele>
        <time>2019-05-18T18:28:26Z</time>
      </trkpt>
      <trkpt lat="45.56294" lon="2.32331">
        <ele>720</ele>
        <time>2019-05-18T18:28:27Z</time>
      </trkpt>
      <trkpt lat="45.56289" lon="2.32325">
        <ele>721</ele>
        <time>2019-05-18T18:28:28Z</time>
      </trkpt>
      <trkpt lat="45.56284" lon="2.32319">
        <ele>720</ele>
        <time>2019-05-18T18:28:29Z</time>
      </trkpt>
      <trkpt lat="45.56279" lon="2.32313">
        <ele>720</ele>
        <time>2019-05-18T18:28:30Z</time>
      </trkpt>
      <trkpt lat="45.56273" lon="2.32306">
        <ele>722</ele>
        <time>2019-05-18T18:28:31Z</time>
      </trkpt>
      <trkpt lat="45.56268" lon="2.323">
        <ele>719</ele>
        <time>2019-05-18T18:28:32Z</time>
      </trkpt>
      <trkpt lat="45.56262" lon="2.32293">
        <ele>717</ele>
        <time>2019-05-18T18:28:33Z</time>
      </trkpt>
      <trkpt lat="45.56257" lon="2.32287">
        <ele>717</ele>
        <time>2019-05-18T18:28:34Z</time>
      </trkpt>
      <trkpt lat="45.56251" lon="2.3228">
        <ele>717</ele>
        <time>2019-05-18T18:28:35Z</time>
      </trkpt>
      <trkpt lat="45.56245" lon="2.32273">
        <ele>715</ele>
        <time>2019-05-18T18:28:36Z</time>
      </trkpt>
      <trkpt lat="45.56239" lon="2.32266">
        <ele>715</ele>
        <time>2019-05-18T18:28:37Z</time>
      </trkpt>
      <trkpt lat="45.56232" lon="2.32258">
        <ele>714</ele>
        <time>2019-05-18T18:28:38Z</time>
      </trkpt>
      <trkpt lat="45.56226" lon="2.32251">
        <ele>714</ele>
        <time>2019-05-18T18:28:39Z</time>
      </trkpt>
      <trkpt lat="45.5622" lon="2.32243">
        <ele>713</ele>
        <time>2019-05-18T18:28:40Z</time>
      </trkpt>
      <trkpt lat="45.56213" lon="2.32235">
        <ele>713</ele>
        <time>2019-05-18T18:28:41Z</time>
      </trkpt>
      <trkpt lat="45.56207" lon="2.32226">
        <ele>712</ele>
        <time>2019-05-18T18:28:42Z</time>
      </trkpt>
      <trkpt lat="45.56201" lon="2.32217">
        <ele>712</ele>
        <time>2019-05-18T18:28:43Z</time>
      </trkpt>
      <trkpt lat="45.56195" lon="2.32207">
        <ele>711</ele>
        <time>2019-05-18T18:28:44Z</time>
      </trkpt>
      <trkpt lat="45.5619" lon="2.32196">
        <ele>710</ele>
        <time>2019-05-18T18:28:45Z</time>
      </trkpt>
      <trkpt lat="45.56185" lon="2.32185">
        <ele>709</ele>
        <time>2019-05-18T18:28:46Z</time>
      </trkpt>
      <trkpt lat="45.56181" lon="2.32174">
        <ele>709</ele>
        <time>2019-05-18T18:28:47Z</time>
      </trkpt>
      <trkpt lat="45.56176" lon="2.32162">
        <ele>708</ele>
        <time>2019-05-18T18:28:48Z</time>
      </trkpt>
      <trkpt lat="45.56173" lon="2.3215">
        <ele>707</ele>
        <time>2019-05-18T18:28:49Z</time>
      </trkpt>
      <trkpt lat="45.56169" lon="2.32138">
        <ele>707</ele>
        <time>2019-05-18T18:28:50Z</time>
      </trkpt>
      <trkpt lat="45.56166" lon="2.32127">
        <ele>706</ele>
        <time>2019-05-18T18:28:51Z</time>
      </trkpt>
      <trkpt lat="45.56163" lon="2.32117">
        <ele>705</ele>
        <time>2019-05-18T18:28:52Z</time>
      </trkpt>
      <trkpt lat="45.56161" lon="2.32108">
        <ele>705</ele>
        <time>2019-05-18T18:28:53Z</time>
      </trkpt>
      <trkpt lat="45.56161" lon="2.321">
        <ele>704</ele>
        <time>2019-05-18T18:28:54Z</time>
      </trkpt>
      <trkpt lat="45.56162" lon="2.32092">
        <ele>704</ele>
        <time>2019-05-18T18:28:55Z</time>
      </trkpt>
      <trkpt lat="45.56163" lon="2.32086">
        <ele>704</ele>
        <time>2019-05-18T18:28:56Z</time>
      </trkpt>
      <trkpt lat="45.56164" lon="2.32082">
        <ele>704</ele>
        <time>2019-05-18T18:28:57Z</time>
      </trkpt>
      <trkpt lat="45.56163" lon="2.32078">
        <ele>704</ele>
        <time>2019-05-18T18:28:58Z</time>
      </trkpt>
      <trkpt lat="45.56161" lon="2.32075">
        <ele>704</ele>
        <time>2019-05-18T18:28:59Z</time>
      </trkpt>
      <trkpt lat="45.56159" lon="2.32072">
        <ele>704</ele>
        <time>2019-05-18T18:29:00Z</time>
      </trkpt>
      <trkpt lat="45.56157" lon="2.32068">
        <ele>703</ele>
        <time>2019-05-18T18:29:01Z</time>
      </trkpt>
      <trkpt lat="45.56154" lon="2.32065">
        <ele>703</ele>
        <time>2019-05-18T18:29:02Z</time>
      </trkpt>
      <trkpt lat="45.5615" lon="2.32064">
        <ele>703</ele>
        <time>2019-05-18T18:29:03Z</time>
      </trkpt>
      <trkpt lat="45.56145" lon="2.32062">
        <ele>703</ele>
        <time>2019-05-18T18:29:04Z</time>
      </trkpt>
      <trkpt lat="45.56141" lon="2.32057">
        <ele>702</ele>
        <time>2019-05-18T18:29:05Z</time>
      </trkpt>
      <trkpt lat="45.56137" lon="2.32052">
        <ele>702</ele>
        <time>2019-05-18T18:29:06Z</time>
      </trkpt>
      <trkpt lat="45.56134" lon="2.32045">
        <ele>701</ele>
        <time>2019-05-18T18:29:07Z</time>
      </trkpt>
      <trkpt lat="45.5613" lon="2.32038">
        <ele>701</ele>
        <time>2019-05-18T18:29:08Z</time>
      </trkpt>
      <trkpt lat="45.56124" lon="2.32033">
        <ele>700</ele>
        <time>2019-05-18T18:29:09Z</time>
      </trkpt>
      <trkpt lat="45.56119" lon="2.32027">
        <ele>700</ele>
        <time>2019-05-18T18:29:10Z</time>
      </trkpt>
      <trkpt lat="45.56112" lon="2.32022">
        <ele>699</ele>
        <time>2019-05-18T18:29:11Z</time>
      </trkpt>
      <trkpt lat="45.56106" lon="2.32017">
        <ele>699</ele>
        <time>2019-05-18T18:29:12Z</time>
      </trkpt>
      <trkpt lat="45.561" lon="2.32011">
        <ele>698</ele>
        <time>2019-05-18T18:29:13Z</time>
      </trkpt>
      <trkpt lat="45.56093" lon="2.32005">
        <ele>698</ele>
        <time>2019-05-18T18:29:14Z</time>
      </trkpt>
      <trkpt lat="45.56087" lon="2.31998">
        <ele>697</ele>
        <time>2019-05-18T18:29:15Z</time>
      </trkpt>
      <trkpt lat="45.5608" lon="2.31992">
        <ele>697</ele>
        <time>2019-05-18T18:29:16Z</time>
      </trkpt>
      <trkpt lat="45.56074" lon="2.31985">
        <ele>696</ele>
        <time>2019-05-18T18:29:17Z</time>
      </trkpt>
      <trkpt lat="45.56067" lon="2.31978">
        <ele>696</ele>
        <time>2019-05-18T18:29:18Z</time>
      </trkpt>
      <trkpt lat="45.5606" lon="2.31971">
        <ele>696</ele>
        <time>2019-05-18T18:29:19Z</time>
      </trkpt>
      <trkpt lat="45.56053" lon="2.31964">
        <ele>695</ele>
        <time>2019-05-18T18:29:20Z</time>
      </trkpt>
      <trkpt lat="45.56047" lon="2.31957">
        <ele>695</ele>
        <time>2019-05-18T18:29:21Z</time>
      </trkpt>
      <trkpt lat="45.5604" lon="2.3195">
        <ele>695</ele>
        <time>2019-05-18T18:29:22Z</time>
      </trkpt>
      <trkpt lat="45.56033" lon="2.31943">
        <ele>694</ele>
        <time>2019-05-18T18:29:23Z</time>
      </trkpt>
      <trkpt lat="45.56027" lon="2.31936">
        <ele>694</ele>
        <time>2019-05-18T18:29:24Z</time>
      </trkpt>
      <trkpt lat="45.56021" lon="2.31929">
        <ele>694</ele>
        <time>2019-05-18T18:29:25Z</time>
      </trkpt>
      <trkpt lat="45.56016" lon="2.31923">
        <ele>694</ele>
        <time>2019-05-18T18:29:26Z</time>
      </trkpt>
      <trkpt lat="45.5601" lon="2.31916">
        <ele>694</ele>
        <time>2019-05-18T18:29:27Z</time>
      </trkpt>
      <trkpt lat="45.56004" lon="2.3191">
        <ele>694</ele>
        <time>2019-05-18T18:29:28Z</time>
      </trkpt>
      <trkpt lat="45.55998" lon="2.31904">
        <ele>694</ele>
        <time>2019-05-18T18:29:29Z</time>
      </trkpt>
      <trkpt lat="45.55993" lon="2.31898">
        <ele>694</ele>
        <time>2019-05-18T18:29:30Z</time>
      </trkpt>
      <trkpt lat="45.55987" lon="2.31893">
        <ele>693</ele>
        <time>2019-05-18T18:29:31Z</time>
      </trkpt>
      <trkpt lat="45.55983" lon="2.31887">
        <ele>693</ele>
        <time>2019-05-18T18:29:32Z</time>
      </trkpt>
      <trkpt lat="45.55978" lon="2.31882">
        <ele>693</ele>
        <time>2019-05-18T18:29:33Z</time>
      </trkpt>
      <trkpt lat="45.55973" lon="2.31876">
        <ele>693</ele>
        <time>2019-05-18T18:29:34Z</time>
      </trkpt>
      <trkpt lat="45.55969" lon="2.31871">
        <ele>693</ele>
        <time>2019-05-18T18:29:35Z</time>
      </trkpt>
      <trkpt lat="45.55964" lon="2.31865">
        <ele>693</ele>
        <time>2019-05-18T18:29:36Z</time>
      </trkpt>
      <trkpt lat="45.55959" lon="2.3186">
        <ele>693</ele>
        <time>2019-05-18T18:29:37Z</time>
      </trkpt>
      <trkpt lat="45.55955" lon="2.31855">
        <ele>693</ele>
        <time>2019-05-18T18:29:38Z</time>
      </trkpt>
      <trkpt lat="45.5595" lon="2.3185">
        <ele>693</ele>
        <time>2019-05-18T18:29:39Z</time>
      </trkpt>
      <trkpt lat="45.55946" lon="2.31844">
        <ele>693</ele>
        <time>2019-05-18T18:29:40Z</time>
      </trkpt>
      <trkpt lat="45.55942" lon="2.31839">
        <ele>693</ele>
        <time>2019-05-18T18:29:41Z</time>
      </trkpt>
      <trkpt lat="45.55937" lon="2.31834">
        <ele>693</ele>
        <time>2019-05-18T18:29:42Z</time>
      </trkpt>
      <trkpt lat="45.55933" lon="2.31829">
        <ele>693</ele>
        <time>2019-05-18T18:29:43Z</time>
      </trkpt>
      <trkpt lat="45.55929" lon="2.31824">
        <ele>693</ele>
        <time>2019-05-18T18:29:44Z</time>
      </trkpt>
      <trkpt lat="45.55924" lon="2.31819">
        <ele>693</ele>
        <time>2019-05-18T18:29:45Z</time>
      </trkpt>
      <trkpt lat="45.5592" lon="2.31814">
        <ele>692</ele>
        <time>2019-05-18T18:29:46Z</time>
      </trkpt>
      <trkpt lat="45.55916" lon="2.31809">
        <ele>692</ele>
        <time>2019-05-18T18:29:47Z</time>
      </trkpt>
      <trkpt lat="45.55911" lon="2.31804">
        <ele>692</ele>
        <time>2019-05-18T18:29:48Z</time>
      </trkpt>
      <trkpt lat="45.55906" lon="2.318">
        <ele>692</ele>
        <time>2019-05-18T18:29:49Z</time>
      </trkpt>
      <trkpt lat="45.55902" lon="2.31795">
        <ele>692</ele>
        <time>2019-05-18T18:29:50Z</time>
      </trkpt>
      <trkpt lat="45.55898" lon="2.3179">
        <ele>692</ele>
        <time>2019-05-18T18:29:51Z</time>
      </trkpt>
      <trkpt lat="45.55894" lon="2.31785">
        <ele>692</ele>
        <time>2019-05-18T18:29:52Z</time>
      </trkpt>
      <trkpt lat="45.5589" lon="2.31781">
        <ele>692</ele>
        <time>2019-05-18T18:29:53Z</time>
      </trkpt>
      <trkpt lat="45.55886" lon="2.31776">
        <ele>692</ele>
        <time>2019-05-18T18:29:54Z</time>
      </trkpt>
      <trkpt lat="45.55881" lon="2.31771">
        <ele>692</ele>
        <time>2019-05-18T18:29:55Z</time>
      </trkpt>
      <trkpt lat="45.55877" lon="2.31766">
        <ele>691</ele>
        <time>2019-05-18T18:29:56Z</time>
      </trkpt>
      <trkpt lat="45.55873" lon="2.3176">
        <ele>691</ele>
        <time>2019-05-18T18:29:57Z</time>
      </trkpt>
      <trkpt lat="45.55869" lon="2.31756">
        <ele>692</ele>
        <time>2019-05-18T18:29:58Z</time>
      </trkpt>
      <trkpt lat="45.55865" lon="2.31751">
        <ele>692</ele>
        <time>2019-05-18T18:29:59Z</time>
      </trkpt>
      <trkpt lat="45.55861" lon="2.31746">
        <ele>692</ele>
        <time>2019-05-18T18:30:00Z</time>
      </trkpt>
      <trkpt lat="45.55856" lon="2.31742">
        <ele>691</ele>
        <time>2019-05-18T18:30:01Z</time>
      </trkpt>
      <trkpt lat="45.55852" lon="2.31737">
        <ele>691</ele>
        <time>2019-05-18T18:30:02Z</time>
      </trkpt>
      <trkpt lat="45.55848" lon="2.31733">
        <ele>691</ele>
        <time>2019-05-18T18:30:03Z</time>
      </trkpt>
      <trkpt lat="45.55843" lon="2.31729">
        <ele>691</ele>
        <time>2019-05-18T18:30:04Z</time>
      </trkpt>
      <trkpt lat="45.55839" lon="2.31725">
        <ele>691</ele>
        <time>2019-05-18T18:30:05Z</time>
      </trkpt>
      <trkpt lat="45.55834" lon="2.31721">
        <ele>691</ele>
        <time>2019-05-18T18:30:06Z</time>
      </trkpt>
      <trkpt lat="45.55829" lon="2.31717">
        <ele>691</ele>
        <time>2019-05-18T18:30:07Z</time>
      </trkpt>
      <trkpt lat="45.55825" lon="2.31714">
        <ele>691</ele>
        <time>2019-05-18T18:30:08Z</time>
      </trkpt>
      <trkpt lat="45.5582" lon="2.31711">
        <ele>691</ele>
        <time>2019-05-18T18:30:09Z</time>
      </trkpt>
      <trkpt lat="45.55815" lon="2.31708">
        <ele>691</ele>
        <time>2019-05-18T18:30:10Z</time>
      </trkpt>
      <trkpt lat="45.55809" lon="2.31705">
        <ele>691</ele>
        <time>2019-05-18T18:30:11Z</time>
      </trkpt>
      <trkpt lat="45.55804" lon="2.31702">
        <ele>691</ele>
        <time>2019-05-18T18:30:12Z</time>
      </trkpt>
      <trkpt lat="45.55799" lon="2.31699">
        <ele>691</ele>
        <time>2019-05-18T18:30:13Z</time>
      </trkpt>
      <trkpt lat="45.55793" lon="2.31696">
        <ele>690</ele>
        <time>2019-05-18T18:30:14Z</time>
      </trkpt>
      <trkpt lat="45.55788" lon="2.31694">
        <ele>690</ele>
        <time>2019-05-18T18:30:15Z</time>
      </trkpt>
      <trkpt lat="45.55783" lon="2.31691">
        <ele>690</ele>
        <time>2019-05-18T18:30:16Z</time>
      </trkpt>
      <trkpt lat="45.55777" lon="2.31688">
        <ele>690</ele>
        <time>2019-05-18T18:30:17Z</time>
      </trkpt>
      <trkpt lat="45.55772" lon="2.31685">
        <ele>690</ele>
        <time>2019-05-18T18:30:18Z</time>
      </trkpt>
      <trkpt lat="45.55767" lon="2.31682">
        <ele>690</ele>
        <time>2019-05-18T18:30:19Z</time>
      </trkpt>
      <trkpt lat="45.55762" lon="2.3168">
        <ele>690</ele>
        <time>2019-05-18T18:30:20Z</time>
      </trkpt>
      <trkpt lat="45.55757" lon="2.31677">
        <ele>690</ele>
        <time>2019-05-18T18:30:21Z</time>
      </trkpt>
      <trkpt lat="45.55752" lon="2.31674">
        <ele>690</ele>
        <time>2019-05-18T18:30:22Z</time>
      </trkpt>
      <trkpt lat="45.55746" lon="2.31672">
        <ele>690</ele>
        <time>2019-05-18T18:30:23Z</time>
      </trkpt>
      <trkpt lat="45.55741" lon="2.3167">
        <ele>689</ele>
        <time>2019-05-18T18:30:24Z</time>
      </trkpt>
      <trkpt lat="45.55736" lon="2.31667">
        <ele>689</ele>
        <time>2019-05-18T18:30:25Z</time>
      </trkpt>
      <trkpt lat="45.55731" lon="2.31666">
        <ele>689</ele>
        <time>2019-05-18T18:30:26Z</time>
      </trkpt>
      <trkpt lat="45.55726" lon="2.31665">
        <ele>689</ele>
        <time>2019-05-18T18:30:27Z</time>
      </trkpt>
      <trkpt lat="45.5572" lon="2.31664">
        <ele>689</ele>
        <time>2019-05-18T18:30:28Z</time>
      </trkpt>
      <trkpt lat="45.55715" lon="2.31665">
        <ele>688</ele>
        <time>2019-05-18T18:30:29Z</time>
      </trkpt>
      <trkpt lat="45.55709" lon="2.31666">
        <ele>688</ele>
        <time>2019-05-18T18:30:30Z</time>
      </trkpt>
      <trkpt lat="45.55703" lon="2.31667">
        <ele>688</ele>
        <time>2019-05-18T18:30:31Z</time>
      </trkpt>
      <trkpt lat="45.55698" lon="2.3167">
        <ele>688</ele>
        <time>2019-05-18T18:30:32Z</time>
      </trkpt>
      <trkpt lat="45.55692" lon="2.31672">
        <ele>688</ele>
        <time>2019-05-18T18:30:33Z</time>
      </trkpt>
      <trkpt lat="45.55686" lon="2.31675">
        <ele>687</ele>
        <time>2019-05-18T18:30:34Z</time>
      </trkpt>
      <trkpt lat="45.5568" lon="2.31678">
        <ele>687</ele>
        <time>2019-05-18T18:30:35Z</time>
      </trkpt>
      <trkpt lat="45.55674" lon="2.3168">
        <ele>687</ele>
        <time>2019-05-18T18:30:36Z</time>
      </trkpt>
      <trkpt lat="45.55668" lon="2.31682">
        <ele>686</ele>
        <time>2019-05-18T18:30:37Z</time>
      </trkpt>
      <trkpt lat="45.55661" lon="2.31683">
        <ele>686</ele>
        <time>2019-05-18T18:30:38Z</time>
      </trkpt>
      <trkpt lat="45.55655" lon="2.31684">
        <ele>686</ele>
        <time>2019-05-18T18:30:39Z</time>
      </trkpt>
      <trkpt lat="45.55648" lon="2.31683">
        <ele>686</ele>
        <time>2019-05-18T18:30:40Z</time>
      </trkpt>
      <trkpt lat="45.55642" lon="2.31681">
        <ele>685</ele>
        <time>2019-05-18T18:30:41Z</time>
      </trkpt>
      <trkpt lat="45.55636" lon="2.31678">
        <ele>685</ele>
        <time>2019-05-18T18:30:42Z</time>
      </trkpt>
      <trkpt lat="45.5563" lon="2.31675">
        <ele>685</ele>
        <time>2019-05-18T18:30:43Z</time>
      </trkpt>
      <trkpt lat="45.55624" lon="2.31671">
        <ele>685</ele>
        <time>2019-05-18T18:30:44Z</time>
      </trkpt>
      <trkpt lat="45.55618" lon="2.31667">
        <ele>685</ele>
        <time>2019-05-18T18:30:45Z</time>
      </trkpt>
      <trkpt lat="45.55612" lon="2.31663">
        <ele>684</ele>
        <time>2019-05-18T18:30:46Z</time>
      </trkpt>
      <trkpt lat="45.55606" lon="2.3166">
        <ele>684</ele>
        <time>2019-05-18T18:30:47Z</time>
      </trkpt>
      <trkpt lat="45.556" lon="2.31656">
        <ele>684</ele>
        <time>2019-05-18T18:30:48Z</time>
      </trkpt>
      <trkpt lat="45.55594" lon="2.31652">
        <ele>684</ele>
        <time>2019-05-18T18:30:49Z</time>
      </trkpt>
      <trkpt lat="45.55588" lon="2.31648">
        <ele>684</ele>
        <time>2019-05-18T18:30:50Z</time>
      </trkpt>
      <trkpt lat="45.55583" lon="2.31644">
        <ele>683</ele>
        <time>2019-05-18T18:30:51Z</time>
      </trkpt>
      <trkpt lat="45.55577" lon="2.3164">
        <ele>683</ele>
        <time>2019-05-18T18:30:52Z</time>
      </trkpt>
      <trkpt lat="45.55571" lon="2.31636">
        <ele>683</ele>
        <time>2019-05-18T18:30:53Z</time>
      </trkpt>
      <trkpt lat="45.55565" lon="2.31632">
        <ele>683</ele>
        <time>2019-05-18T18:30:54Z</time>
      </trkpt>
      <trkpt lat="45.55558" lon="2.31629">
        <ele>682</ele>
        <time>2019-05-18T18:30:55Z</time>
      </trkpt>
      <trkpt lat="45.55552" lon="2.31625">
        <ele>682</ele>
        <time>2019-05-18T18:30:56Z</time>
      </trkpt>
      <trkpt lat="45.55545" lon="2.31621">
        <ele>682</ele>
        <time>2019-05-18T18:30:57Z</time>
      </trkpt>
      <trkpt lat="45.55539" lon="2.31616">
        <ele>682</ele>
        <time>2019-05-18T18:30:58Z</time>
      </trkpt>
      <trkpt lat="45.55533" lon="2.31611">
        <ele>681</ele>
        <time>2019-05-18T18:30:59Z</time>
      </trkpt>
      <trkpt lat="45.55526" lon="2.31606">
        <ele>680</ele>
        <time>2019-05-18T18:31:00Z</time>
      </trkpt>
      <trkpt lat="45.5552" lon="2.31601">
        <ele>680</ele>
        <time>2019-05-18T18:31:01Z</time>
      </trkpt>
      <trkpt lat="45.55513" lon="2.31597">
        <ele>680</ele>
        <time>2019-05-18T18:31:02Z</time>
      </trkpt>
      <trkpt lat="45.55507" lon="2.31593">
        <ele>679</ele>
        <time>2019-05-18T18:31:03Z</time>
      </trkpt>
      <trkpt lat="45.55501" lon="2.31589">
        <ele>679</ele>
        <time>2019-05-18T18:31:04Z</time>
      </trkpt>
      <trkpt lat="45.55497" lon="2.31586">
        <ele>678</ele>
        <time>2019-05-18T18:31:05Z</time>
      </trkpt>
      <trkpt lat="45.55493" lon="2.31584">
        <ele>678</ele>
        <time>2019-05-18T18:31:06Z</time>
      </trkpt>
      <trkpt lat="45.5549" lon="2.31582">
        <ele>677</ele>
        <time>2019-05-18T18:31:07Z</time>
      </trkpt>
      <trkpt lat="45.55487" lon="2.3158">
        <ele>677</ele>
        <time>2019-05-18T18:31:08Z</time>
      </trkpt>
      <trkpt lat="45.55484" lon="2.31577">
        <ele>677</ele>
        <time>2019-05-18T18:31:09Z</time>
      </trkpt>
      <trkpt lat="45.55481" lon="2.31575">
        <ele>677</ele>
        <time>2019-05-18T18:31:10Z</time>
      </trkpt>
      <trkpt lat="45.55479" lon="2.31572">
        <ele>676</ele>
        <time>2019-05-18T18:31:11Z</time>
      </trkpt>
      <trkpt lat="45.55476" lon="2.3157">
        <ele>676</ele>
        <time>2019-05-18T18:31:12Z</time>
      </trkpt>
      <trkpt lat="45.55473" lon="2.31569">
        <ele>676</ele>
        <time>2019-05-18T18:31:13Z</time>
      </trkpt>
      <trkpt lat="45.5547" lon="2.31567">
        <ele>676</ele>
        <time>2019-05-18T18:31:14Z</time>
      </trkpt>
      <trkpt lat="45.55467" lon="2.31566">
        <ele>676</ele>
        <time>2019-05-18T18:31:15Z</time>
      </trkpt>
      <trkpt lat="45.55463" lon="2.31564">
        <ele>676</ele>
        <time>2019-05-18T18:31:16Z</time>
      </trkpt>
      <trkpt lat="45.5546" lon="2.31561">
        <ele>675</ele>
        <time>2019-05-18T18:31:17Z</time>
      </trkpt>
      <trkpt lat="45.55457" lon="2.31558">
        <ele>675</ele>
        <time>2019-05-18T18:31:18Z</time>
      </trkpt>
      <trkpt lat="45.55456" lon="2.31554">
        <ele>675</ele>
        <time>2019-05-18T18:31:19Z</time>
      </trkpt>
      <trkpt lat="45.55457" lon="2.3155">
        <ele>675</ele>
        <time>2019-05-18T18:31:20Z</time>
      </trkpt>
      <trkpt lat="45.55458" lon="2.31546">
        <ele>674</ele>
        <time>2019-05-18T18:31:21Z</time>
      </trkpt>
      <trkpt lat="45.5546" lon="2.31542">
        <ele>674</ele>
        <time>2019-05-18T18:31:22Z</time>
      </trkpt>
      <trkpt lat="45.55462" lon="2.31537">
        <ele>674</ele>
        <time>2019-05-18T18:31:23Z</time>
      </trkpt>
      <trkpt lat="45.55465" lon="2.31533">
        <ele>674</ele>
        <time>2019-05-18T18:31:24Z</time>
      </trkpt>
      <trkpt lat="45.55468" lon="2.31529">
        <ele>674</ele>
        <time>2019-05-18T18:31:25Z</time>
      </trkpt>
      <trkpt lat="45.5547" lon="2.31524">
        <ele>674</ele>
        <time>2019-05-18T18:31:26Z</time>
      </trkpt>
      <trkpt lat="45.55472" lon="2.3152">
        <ele>674</ele>
        <time>2019-05-18T18:31:27Z</time>
      </trkpt>
      <trkpt lat="45.55475" lon="2.31516">
        <ele>674</ele>
        <time>2019-05-18T18:31:28Z</time>
      </trkpt>
      <trkpt lat="45.55477" lon="2.31513">
        <ele>674</ele>
        <time>2019-05-18T18:31:29Z</time>
      </trkpt>
      <trkpt lat="45.5548" lon="2.3151">
        <ele>674</ele>
        <time>2019-05-18T18:31:30Z</time>
      </trkpt>
      <trkpt lat="45.55482" lon="2.31508">
        <ele>674</ele>
        <time>2019-05-18T18:31:31Z</time>
      </trkpt>
      <trkpt lat="45.55485" lon="2.31507">
        <ele>674</ele>
        <time>2019-05-18T18:31:32Z</time>
      </trkpt>
      <trkpt lat="45.55488" lon="2.31505">
        <ele>674</ele>
        <time>2019-05-18T18:31:33Z</time>
      </trkpt>
      <trkpt lat="45.55491" lon="2.31504">
        <ele>674</ele>
        <time>2019-05-18T18:31:34Z</time>
      </trkpt>
      <trkpt lat="45.55494" lon="2.31501">
        <ele>674</ele>
        <time>2019-05-18T18:31:35Z</time>
      </trkpt>
      <trkpt lat="45.55497" lon="2.31498">
        <ele>674</ele>
        <time>2019-05-18T18:31:36Z</time>
      </trkpt>
      <trkpt lat="45.55498" lon="2.31493">
        <ele>674</ele>
        <time>2019-05-18T18:31:37Z</time>
      </trkpt>
      <trkpt lat="45.55497" lon="2.31488">
        <ele>674</ele>
        <time>2019-05-18T18:31:38Z</time>
      </trkpt>
      <trkpt lat="45.55496" lon="2.31484">
        <ele>674</ele>
        <time>2019-05-18T18:31:39Z</time>
      </trkpt>
      <trkpt lat="45.55495" lon="2.31479">
        <ele>674</ele>
        <time>2019-05-18T18:31:40Z</time>
      </trkpt>
      <trkpt lat="45.55494" lon="2.31474">
        <ele>674</ele>
        <time>2019-05-18T18:31:41Z</time>
      </trkpt>
      <trkpt lat="45.55493" lon="2.3147">
        <ele>674</ele>
        <time>2019-05-18T18:31:42Z</time>
      </trkpt>
      <trkpt lat="45.55492" lon="2.31466">
        <ele>674</ele>
        <time>2019-05-18T18:31:43Z</time>
      </trkpt>
      <trkpt lat="45.5549" lon="2.31462">
        <ele>674</ele>
        <time>2019-05-18T18:31:44Z</time>
      </trkpt>
      <trkpt lat="45.55489" lon="2.31459">
        <ele>674</ele>
        <time>2019-05-18T18:31:45Z</time>
      </trkpt>
      <trkpt lat="45.55487" lon="2.31455">
        <ele>675</ele>
        <time>2019-05-18T18:31:46Z</time>
      </trkpt>
      <trkpt lat="45.55486" lon="2.31451">
        <ele>675</ele>
        <time>2019-05-18T18:31:47Z</time>
      </trkpt>
      <trkpt lat="45.55485" lon="2.31447">
        <ele>675</ele>
        <time>2019-05-18T18:31:48Z</time>
      </trkpt>
      <trkpt lat="45.55483" lon="2.31443">
        <ele>675</ele>
        <time>2019-05-18T18:31:49Z</time>
      </trkpt>
      <trkpt lat="45.55482" lon="2.31439">
        <ele>675</ele>
        <time>2019-05-18T18:31:50Z</time>
      </trkpt>
      <trkpt lat="45.55481" lon="2.31435">
        <ele>675</ele>
        <time>2019-05-18T18:31:51Z</time>
      </trkpt>
      <trkpt lat="45.5548" lon="2.31431">
        <ele>676</ele>
        <time>2019-05-18T18:31:52Z</time>
      </trkpt>
      <trkpt lat="45.55478" lon="2.31427">
        <ele>676</ele>
        <time>2019-05-18T18:31:53Z</time>
      </trkpt>
      <trkpt lat="45.55478" lon="2.31423">
        <ele>676</ele>
        <time>2019-05-18T18:31:54Z</time>
      </trkpt>
      <trkpt lat="45.55478" lon="2.31419">
        <ele>676</ele>
        <time>2019-05-18T18:31:55Z</time>
      </trkpt>
      <trkpt lat="45.55479" lon="2.31414">
        <ele>676</ele>
        <time>2019-05-18T18:31:56Z</time>
      </trkpt>
      <trkpt lat="45.5548" lon="2.3141">
        <ele>676</ele>
        <time>2019-05-18T18:31:57Z</time>
      </trkpt>
      <trkpt lat="45.55481" lon="2.31406">
        <ele>676</ele>
        <time>2019-05-18T18:31:58Z</time>
      </trkpt>
      <trkpt lat="45.55481" lon="2.31401">
        <ele>676</ele>
        <time>2019-05-18T18:31:59Z</time>
      </trkpt>
      <trkpt lat="45.55482" lon="2.31395">
        <ele>676</ele>
        <time>2019-05-18T18:32:00Z</time>
      </trkpt>
      <trkpt lat="45.55483" lon="2.31388">
        <ele>675</ele>
        <time>2019-05-18T18:32:01Z</time>
      </trkpt>
      <trkpt lat="45.55483" lon="2.31381">
        <ele>675</ele>
        <time>2019-05-18T18:32:02Z</time>
      </trkpt>
      <trkpt lat="45.55484" lon="2.31372">
        <ele>674</ele>
        <time>2019-05-18T18:32:03Z</time>
      </trkpt>
      <trkpt lat="45.55483" lon="2.31363">
        <ele>674</ele>
        <time>2019-05-18T18:32:04Z</time>
      </trkpt>
      <trkpt lat="45.55482" lon="2.31354">
        <ele>673</ele>
        <time>2019-05-18T18:32:05Z</time>
      </trkpt>
      <trkpt lat="45.5548" lon="2.31345">
        <ele>673</ele>
        <time>2019-05-18T18:32:06Z</time>
      </trkpt>
      <trkpt lat="45.55477" lon="2.31335">
        <ele>672</ele>
        <time>2019-05-18T18:32:07Z</time>
      </trkpt>
      <trkpt lat="45.55473" lon="2.31327">
        <ele>672</ele>
        <time>2019-05-18T18:32:08Z</time>
      </trkpt>
      <trkpt lat="45.55468" lon="2.3132">
        <ele>672</ele>
        <time>2019-05-18T18:32:09Z</time>
      </trkpt>
      <trkpt lat="45.55463" lon="2.31314">
        <ele>672</ele>
        <time>2019-05-18T18:32:10Z</time>
      </trkpt>
      <trkpt lat="45.55457" lon="2.31309">
        <ele>671</ele>
        <time>2019-05-18T18:32:11Z</time>
      </trkpt>
      <trkpt lat="45.55451" lon="2.31305">
        <ele>672</ele>
        <time>2019-05-18T18:32:12Z</time>
      </trkpt>
      <trkpt lat="45.55445" lon="2.31302">
        <ele>672</ele>
        <time>2019-05-18T18:32:13Z</time>
      </trkpt>
      <trkpt lat="45.5544" lon="2.31299">
        <ele>672</ele>
        <time>2019-05-18T18:32:14Z</time>
      </trkpt>
      <trkpt lat="45.55434" lon="2.31298">
        <ele>672</ele>
        <time>2019-05-18T18:32:15Z</time>
      </trkpt>
      <trkpt lat="45.55429" lon="2.31296">
        <ele>672</ele>
        <time>2019-05-18T18:32:16Z</time>
      </trkpt>
      <trkpt lat="45.55424" lon="2.31294">
        <ele>672</ele>
        <time>2019-05-18T18:32:17Z</time>
      </trkpt>
      <trkpt lat="45.55418" lon="2.31293">
        <ele>672</ele>
        <time>2019-05-18T18:32:18Z</time>
      </trkpt>
      <trkpt lat="45.55413" lon="2.31292">
        <ele>672</ele>
        <time>2019-05-18T18:32:19Z</time>
      </trkpt>
      <trkpt lat="45.55408" lon="2.3129">
        <ele>672</ele>
        <time>2019-05-18T18:32:20Z</time>
      </trkpt>
      <trkpt lat="45.55404" lon="2.31288">
        <ele>672</ele>
        <time>2019-05-18T18:32:21Z</time>
      </trkpt>
      <trkpt lat="45.55399" lon="2.31286">
        <ele>672</ele>
        <time>2019-05-18T18:32:22Z</time>
      </trkpt>
      <trkpt lat="45.55395" lon="2.31285">
        <ele>673</ele>
        <time>2019-05-18T18:32:23Z</time>
      </trkpt>
      <trkpt lat="45.5539" lon="2.31283">
        <ele>673</ele>
        <time>2019-05-18T18:32:24Z</time>
      </trkpt>
      <trkpt lat="45.55386" lon="2.31282">
        <ele>673</ele>
        <time>2019-05-18T18:32:25Z</time>
      </trkpt>
      <trkpt lat="45.55382" lon="2.3128">
        <ele>673</ele>
        <time>2019-05-18T18:32:26Z</time>
      </trkpt>
      <trkpt lat="45.55378" lon="2.31278">
        <ele>673</ele>
        <time>2019-05-18T18:32:27Z</time>
      </trkpt>
      <trkpt lat="45.55374" lon="2.31276">
        <ele>673</ele>
        <time>2019-05-18T18:32:28Z</time>
      </trkpt>
      <trkpt lat="45.5537" lon="2.31274">
        <ele>673</ele>
        <time>2019-05-18T18:32:29Z</time>
      </trkpt>
      <trkpt lat="45.55366" lon="2.31272">
        <ele>673</ele>
        <time>2019-05-18T18:32:30Z</time>
      </trkpt>
      <trkpt lat="45.55363" lon="2.31271">
        <ele>674</ele>
        <time>2019-05-18T18:32:31Z</time>
      </trkpt>
      <trkpt lat="45.55359" lon="2.31269">
        <ele>674</ele>
        <time>2019-05-18T18:32:32Z</time>
      </trkpt>
      <trkpt lat="45.55356" lon="2.31268">
        <ele>674</ele>
        <time>2019-05-18T18:32:33Z</time>
      </trkpt>
      <trkpt lat="45.55352" lon="2.31266">
        <ele>674</ele>
        <time>2019-05-18T18:32:34Z</time>
      </trkpt>
      <trkpt lat="45.55349" lon="2.31264">
        <ele>674</ele>
        <time>2019-05-18T18:32:35Z</time>
      </trkpt>
      <trkpt lat="45.55345" lon="2.31263">
        <ele>674</ele>
        <time>2019-05-18T18:32:36Z</time>
      </trkpt>
      <trkpt lat="45.55342" lon="2.31261">
        <ele>674</ele>
        <time>2019-05-18T18:32:37Z</time>
      </trkpt>
      <trkpt lat="45.55338" lon="2.31259">
        <ele>673</ele>
        <time>2019-05-18T18:32:38Z</time>
      </trkpt>
      <trkpt lat="45.55334" lon="2.31257">
        <ele>673</ele>
        <time>2019-05-18T18:32:39Z</time>
      </trkpt>
      <trkpt lat="45.55331" lon="2.31254">
        <ele>673</ele>
        <time>2019-05-18T18:32:40Z</time>
      </trkpt>
      <trkpt lat="45.55328" lon="2.31251">
        <ele>673</ele>
        <time>2019-05-18T18:32:41Z</time>
      </trkpt>
      <trkpt lat="45.55324" lon="2.31248">
        <ele>673</ele>
        <time>2019-05-18T18:32:42Z</time>
      </trkpt>
      <trkpt lat="45.55321" lon="2.31245">
        <ele>673</ele>
        <time>2019-05-18T18:32:43Z</time>
      </trkpt>
      <trkpt lat="45.55318" lon="2.31241">
        <ele>673</ele>
        <time>2019-05-18T18:32:44Z</time>
      </trkpt>
      <trkpt lat="45.55315" lon="2.31237">
        <ele>674</ele>
        <time>2019-05-18T18:32:45Z</time>
      </trkpt>
      <trkpt lat="45.55312" lon="2.31234">
        <ele>674</ele>
        <time>2019-05-18T18:32:46Z</time>
      </trkpt>
      <trkpt lat="45.55309" lon="2.31231">
        <ele>674</ele>
        <time>2019-05-18T18:32:47Z</time>
      </trkpt>
      <trkpt lat="45.55306" lon="2.31227">
        <ele>674</ele>
        <time>2019-05-18T18:32:48Z</time>
      </trkpt>
      <trkpt lat="45.55304" lon="2.31223">
        <ele>674</ele>
        <time>2019-05-18T18:32:49Z</time>
      </trkpt>
      <trkpt lat="45.55302" lon="2.31219">
        <ele>674</ele>
        <time>2019-05-18T18:32:50Z</time>
      </trkpt>
      <trkpt lat="45.553" lon="2.31214">
        <ele>674</ele>
        <time>2019-05-18T18:32:51Z</time>
      </trkpt>
      <trkpt lat="45.55298" lon="2.3121">
        <ele>675</ele>
        <time>2019-05-18T18:32:52Z</time>
      </trkpt>
      <trkpt lat="45.55296" lon="2.31207">
        <ele>675</ele>
        <time>2019-05-18T18:32:53Z</time>
      </trkpt>
      <trkpt lat="45.55295" lon="2.31203">
        <ele>675</ele>
        <time>2019-05-18T18:32:54Z</time>
      </trkpt>
      <trkpt lat="45.55293" lon="2.31199">
        <ele>675</ele>
        <time>2019-05-18T18:32:55Z</time>
      </trkpt>
      <trkpt lat="45.55291" lon="2.31195">
        <ele>675</ele>
        <time>2019-05-18T18:32:56Z</time>
      </trkpt>
      <trkpt lat="45.5529" lon="2.31191">
        <ele>675</ele>
        <time>2019-05-18T18:32:57Z</time>
      </trkpt>
      <trkpt lat="45.55289" lon="2.31187">
        <ele>675</ele>
        <time>2019-05-18T18:32:58Z</time>
      </trkpt>
      <trkpt lat="45.55287" lon="2.31183">
        <ele>676</ele>
        <time>2019-05-18T18:32:59Z</time>
      </trkpt>
      <trkpt lat="45.55286" lon="2.31179">
        <ele>676</ele>
        <time>2019-05-18T18:33:00Z</time>
      </trkpt>
      <trkpt lat="45.55285" lon="2.31175">
        <ele>676</ele>
        <time>2019-05-18T18:33:01Z</time>
      </trkpt>
      <trkpt lat="45.55283" lon="2.31172">
        <ele>676</ele>
        <time>2019-05-18T18:33:02Z</time>
      </trkpt>
      <trkpt lat="45.55282" lon="2.31168">
        <ele>677</ele>
        <time>2019-05-18T18:33:03Z</time>
      </trkpt>
      <trkpt lat="45.55281" lon="2.31164">
        <ele>677</ele>
        <time>2019-05-18T18:33:04Z</time>
      </trkpt>
      <trkpt lat="45.5528" lon="2.31161">
        <ele>677</ele>
        <time>2019-05-18T18:33:05Z</time>
      </trkpt>
      <trkpt lat="45.55279" lon="2.31157">
        <ele>677</ele>
        <time>2019-05-18T18:33:06Z</time>
      </trkpt>
      <trkpt lat="45.55279" lon="2.31154">
        <ele>677</ele>
        <time>2019-05-18T18:33:07Z</time>
      </trkpt>
      <trkpt lat="45.55278" lon="2.3115">
        <ele>678</ele>
        <time>2019-05-18T18:33:08Z</time>
      </trkpt>
      <trkpt lat="45.55278" lon="2.31147">
        <ele>678</ele>
        <time>2019-05-18T18:33:09Z</time>
      </trkpt>
      <trkpt lat="45.55278" lon="2.31143">
        <ele>678</ele>
        <time>2019-05-18T18:33:10Z</time>
      </trkpt>
      <trkpt lat="45.55277" lon="2.3114">
        <ele>678</ele>
        <time>2019-05-18T18:33:11Z</time>
      </trkpt>
      <trkpt lat="45.55277" lon="2.31137">
        <ele>678</ele>
        <time>2019-05-18T18:33:12Z</time>
      </trkpt>
      <trkpt lat="45.55277" lon="2.31134">
        <ele>678</ele>
        <time>2019-05-18T18:33:13Z</time>
      </trkpt>
      <trkpt lat="45.55277" lon="2.3113">
        <ele>678</ele>
        <time>2019-05-18T18:33:14Z</time>
      </trkpt>
      <trkpt lat="45.55276" lon="2.31127">
        <ele>678</ele>
        <time>2019-05-18T18:33:15Z</time>
      </trkpt>
      <trkpt lat="45.55275" lon="2.31124">
        <ele>679</ele>
        <time>2019-05-18T18:33:16Z</time>
      </trkpt>
      <trkpt lat="45.55275" lon="2.3112">
        <ele>679</ele>
        <time>2019-05-18T18:33:17Z</time>
      </trkpt>
      <trkpt lat="45.55275" lon="2.31116">
        <ele>679</ele>
        <time>2019-05-18T18:33:18Z</time>
      </trkpt>
      <trkpt lat="45.55274" lon="2.31112">
        <ele>679</ele>
        <time>2019-05-18T18:33:19Z</time>
      </trkpt>
      <trkpt lat="45.55274" lon="2.31108">
        <ele>679</ele>
        <time>2019-05-18T18:33:20Z</time>
      </trkpt>
      <trkpt lat="45.55274" lon="2.31104">
        <ele>679</ele>
        <time>2019-05-18T18:33:21Z</time>
      </trkpt>
      <trkpt lat="45.55273" lon="2.31101">
        <ele>679</ele>
        <time>2019-05-18T18:33:22Z</time>
      </trkpt>
      <trkpt lat="45.55272" lon="2.31097">
        <ele>679</ele>
        <time>2019-05-18T18:33:23Z</time>
      </trkpt>
      <trkpt lat="45.55271" lon="2.31094">
        <ele>679</ele>
        <time>2019-05-18T18:33:24Z</time>
      </trkpt>
      <trkpt lat="45.5527" lon="2.3109">
        <ele>679</ele>
        <time>2019-05-18T18:33:25Z</time>
      </trkpt>
      <trkpt lat="45.5527" lon="2.31087">
        <ele>680</ele>
        <time>2019-05-18T18:33:26Z</time>
      </trkpt>
      <trkpt lat="45.55268" lon="2.31083">
        <ele>680</ele>
        <time>2019-05-18T18:33:27Z</time>
      </trkpt>
      <trkpt lat="45.55267" lon="2.3108">
        <ele>680</ele>
        <time>2019-05-18T18:33:28Z</time>
      </trkpt>
      <trkpt lat="45.55266" lon="2.31077">
        <ele>680</ele>
        <time>2019-05-18T18:33:29Z</time>
      </trkpt>
      <trkpt lat="45.55265" lon="2.31075">
        <ele>680</ele>
        <time>2019-05-18T18:33:30Z</time>
      </trkpt>
      <trkpt lat="45.55263" lon="2.31073">
        <ele>680</ele>
        <time>2019-05-18T18:33:31Z</time>
      </trkpt>
      <trkpt lat="45.55261" lon="2.31071">
        <ele>680</ele>
        <time>2019-05-18T18:33:32Z</time>
      </trkpt>
      <trkpt lat="45.5526" lon="2.31069">
        <ele>680</ele>
        <time>2019-05-18T18:33:33Z</time>
      </trkpt>
      <trkpt lat="45.55258" lon="2.31066">
        <ele>681</ele>
        <time>2019-05-18T18:33:34Z</time>
      </trkpt>
      <trkpt lat="45.55256" lon="2.31064">
        <ele>681</ele>
        <time>2019-05-18T18:33:35Z</time>
      </trkpt>
      <trkpt lat="45.55254" lon="2.31061">
        <ele>681</ele>
        <time>2019-05-18T18:33:36Z</time>
      </trkpt>
      <trkpt lat="45.55252" lon="2.31059">
        <ele>681</ele>
        <time>2019-05-18T18:33:37Z</time>
      </trkpt>
      <trkpt lat="45.5525" lon="2.31057">
        <ele>681</ele>
        <time>2019-05-18T18:33:38Z</time>
      </trkpt>
      <trkpt lat="45.55248" lon="2.31055">
        <ele>681</ele>
        <time>2019-05-18T18:33:39Z</time>
      </trkpt>
      <trkpt lat="45.55246" lon="2.31052">
        <ele>681</ele>
        <time>2019-05-18T18:33:40Z</time>
      </trkpt>
      <trkpt lat="45.55244" lon="2.31051">
        <ele>681</ele>
        <time>2019-05-18T18:33:41Z</time>
      </trkpt>
      <trkpt lat="45.55241" lon="2.31049">
        <ele>681</ele>
        <time>2019-05-18T18:33:42Z</time>
      </trkpt>
      <trkpt lat="45.55239" lon="2.31047">
        <ele>681</ele>
        <time>2019-05-18T18:33:43Z</time>
      </trkpt>
      <trkpt lat="45.55237" lon="2.31045">
        <ele>681</ele>
        <time>2019-05-18T18:33:44Z</time>
      </trkpt>
      <trkpt lat="45.55235" lon="2.31043">
        <ele>681</ele>
        <time>2019-05-18T18:33:45Z</time>
      </trkpt>
      <trkpt lat="45.55232" lon="2.31042">
        <ele>682</ele>
        <time>2019-05-18T18:33:46Z</time>
      </trkpt>
      <trkpt lat="45.5523" lon="2.31041">
        <ele>682</ele>
        <time>2019-05-18T18:33:47Z</time>
      </trkpt>
      <trkpt lat="45.55227" lon="2.3104">
        <ele>682</ele>
        <time>2019-05-18T18:33:48Z</time>
      </trkpt>
      <trkpt lat="45.55225" lon="2.31039">
        <ele>682</ele>
        <time>2019-05-18T18:33:49Z</time>
      </trkpt>
      <trkpt lat="45.55223" lon="2.31038">
        <ele>682</ele>
        <time>2019-05-18T18:33:50Z</time>
      </trkpt>
      <trkpt lat="45.5522" lon="2.31037">
        <ele>682</ele>
        <time>2019-05-18T18:33:51Z</time>
      </trkpt>
      <trkpt lat="45.55217" lon="2.31037">
        <ele>682</ele>
        <time>2019-05-18T18:33:52Z</time>
      </trkpt>
      <trkpt lat="45.55215" lon="2.31036">
        <ele>682</ele>
        <time>2019-05-18T18:33:53Z</time>
      </trkpt>
      <trkpt lat="45.55212" lon="2.31035">
        <ele>682</ele>
        <time>2019-05-18T18:33:54Z</time>
      </trkpt>
      <trkpt lat="45.5521" lon="2.31035">
        <ele>683</ele>
        <time>2019-05-18T18:33:55Z</time>
      </trkpt>
      <trkpt lat="45.55207" lon="2.31036">
        <ele>683</ele>
        <time>2019-05-18T18:33:56Z</time>
      </trkpt>
      <trkpt lat="45.55205" lon="2.31036">
        <ele>683</ele>
        <time>2019-05-18T18:33:57Z</time>
      </trkpt>
      <trkpt lat="45.55202" lon="2.31036">
        <ele>683</ele>
        <time>2019-05-18T18:33:58Z</time>
      </trkpt>
      <trkpt lat="45.552" lon="2.31037">
        <ele>683</ele>
        <time>2019-05-18T18:33:59Z</time>
      </trkpt>
      <trkpt lat="45.55197" lon="2.31037">
        <ele>683</ele>
        <time>2019-05-18T18:34:00Z</time>
      </trkpt>
      <trkpt lat="45.55195" lon="2.31038">
        <ele>683</ele>
        <time>2019-05-18T18:34:01Z</time>
      </trkpt>
      <trkpt lat="45.55192" lon="2.31038">
        <ele>683</ele>
        <time>2019-05-18T18:34:02Z</time>
      </trkpt>
      <trkpt lat="45.5519" lon="2.31039">
        <ele>683</ele>
        <time>2019-05-18T18:34:03Z</time>
      </trkpt>
      <trkpt lat="45.55188" lon="2.31039">
        <ele>683</ele>
        <time>2019-05-18T18:34:04Z</time>
      </trkpt>
      <trkpt lat="45.55185" lon="2.3104">
        <ele>683</ele>
        <time>2019-05-18T18:34:05Z</time>
      </trkpt>
      <trkpt lat="45.55183" lon="2.3104">
        <ele>683</ele>
        <time>2019-05-18T18:34:06Z</time>
      </trkpt>
      <trkpt lat="45.5518" lon="2.31041">
        <ele>683</ele>
        <time>2019-05-18T18:34:07Z</time>
      </trkpt>
      <trkpt lat="45.55177" lon="2.31041">
        <ele>684</ele>
        <time>2019-05-18T18:34:08Z</time>
      </trkpt>
      <trkpt lat="45.55175" lon="2.31042">
        <ele>684</ele>
        <time>2019-05-18T18:34:09Z</time>
      </trkpt>
      <trkpt lat="45.55172" lon="2.31043">
        <ele>684</ele>
        <time>2019-05-18T18:34:10Z</time>
      </trkpt>
      <trkpt lat="45.5517" lon="2.31043">
        <ele>684</ele>
        <time>2019-05-18T18:34:11Z</time>
      </trkpt>
      <trkpt lat="45.55168" lon="2.31043">
        <ele>684</ele>
        <time>2019-05-18T18:34:12Z</time>
      </trkpt>
      <trkpt lat="45.55165" lon="2.31044">
        <ele>684</ele>
        <time>2019-05-18T18:34:13Z</time>
      </trkpt>
      <trkpt lat="45.55163" lon="2.31044">
        <ele>684</ele>
        <time>2019-05-18T18:34:14Z</time>
      </trkpt>
      <trkpt lat="45.5516" lon="2.31045">
        <ele>684</ele>
        <time>2019-05-18T18:34:15Z</time>
      </trkpt>
      <trkpt lat="45.55158" lon="2.31045">
        <ele>684</ele>
        <time>2019-05-18T18:34:16Z</time>
      </trkpt>
      <trkpt lat="45.55155" lon="2.31046">
        <ele>684</ele>
        <time>2019-05-18T18:34:17Z</time>
      </trkpt>
      <trkpt lat="45.55152" lon="2.31046">
        <ele>684</ele>
        <time>2019-05-18T18:34:18Z</time>
      </trkpt>
      <trkpt lat="45.5515" lon="2.31046">
        <ele>684</ele>
        <time>2019-05-18T18:34:19Z</time>
      </trkpt>
      <trkpt lat="45.55147" lon="2.31047">
        <ele>684</ele>
        <time>2019-05-18T18:34:20Z</time>
      </trkpt>
      <trkpt lat="45.55144" lon="2.31048">
        <ele>684</ele>
        <time>2019-05-18T18:34:21Z</time>
      </trkpt>
      <trkpt lat="45.55142" lon="2.31048">
        <ele>684</ele>
        <time>2019-05-18T18:34:22Z</time>
      </trkpt>
      <trkpt lat="45.55139" lon="2.31049">
        <ele>684</ele>
        <time>2019-05-18T18:34:23Z</time>
      </trkpt>
      <trkpt lat="45.55136" lon="2.3105">
        <ele>684</ele>
        <time>2019-05-18T18:34:24Z</time>
      </trkpt>
      <trkpt lat="45.55134" lon="2.31051">
        <ele>685</ele>
        <time>2019-05-18T18:34:25Z</time>
      </trkpt>
      <trkpt lat="45.55131" lon="2.31051">
        <ele>685</ele>
        <time>2019-05-18T18:34:26Z</time>
      </trkpt>
      <trkpt lat="45.55128" lon="2.31051">
        <ele>685</ele>
        <time>2019-05-18T18:34:27Z</time>
      </trkpt>
      <trkpt lat="45.55126" lon="2.31052">
        <ele>685</ele>
        <time>2019-05-18T18:34:28Z</time>
      </trkpt>
      <trkpt lat="45.55123" lon="2.31053">
        <ele>685</ele>
        <time>2019-05-18T18:34:29Z</time>
      </trkpt>
      <trkpt lat="45.55121" lon="2.31053">
        <ele>685</ele>
        <time>2019-05-18T18:34:30Z</time>
      </trkpt>
      <trkpt lat="45.55119" lon="2.31054">
        <ele>685</ele>
        <time>2019-05-18T18:34:31Z</time>
      </trkpt>
      <trkpt lat="45.55116" lon="2.31054">
        <ele>685</ele>
        <time>2019-05-18T18:34:32Z</time>
      </trkpt>
      <trkpt lat="45.55113" lon="2.31055">
        <ele>685</ele>
        <time>2019-05-18T18:34:33Z</time>
      </trkpt>
      <trkpt lat="45.55111" lon="2.31056">
        <ele>685</ele>
        <time>2019-05-18T18:34:34Z</time>
      </trkpt>
      <trkpt lat="45.55108" lon="2.31056">
        <ele>686</ele>
        <time>2019-05-18T18:34:35Z</time>
      </trkpt>
      <trkpt lat="45.55106" lon="2.31056">
        <ele>686</ele>
        <time>2019-05-18T18:34:36Z</time>
      </trkpt>
      <trkpt lat="45.55103" lon="2.31056">
        <ele>686</ele>
        <time>2019-05-18T18:34:37Z</time>
      </trkpt>
      <trkpt lat="45.55101" lon="2.31056">
        <ele>686</ele>
        <time>2019-05-18T18:34:38Z</time>
      </trkpt>
      <trkpt lat="45.55098" lon="2.31056">
        <ele>686</ele>
        <time>2019-05-18T18:34:39Z</time>
      </trkpt>
      <trkpt lat="45.55096" lon="2.31056">
        <ele>686</ele>
        <time>2019-05-18T18:34:40Z</time>
      </trkpt>
      <trkpt lat="45.55093" lon="2.31056">
        <ele>686</ele>
        <time>2019-05-18T18:34:41Z</time>
      </trkpt>
      <trkpt lat="45.5509" lon="2.31056">
        <ele>686</ele>
        <time>2019-05-18T18:34:42Z</time>
      </trkpt>
      <trkpt lat="45.55088" lon="2.31055">
        <ele>686</ele>
        <time>2019-05-18T18:34:43Z</time>
      </trkpt>
      <trkpt lat="45.55085" lon="2.31054">
        <ele>686</ele>
        <time>2019-05-18T18:34:44Z</time>
      </trkpt>
      <trkpt lat="45.55083" lon="2.31054">
        <ele>686</ele>
        <time>2019-05-18T18:34:45Z</time>
      </trkpt>
      <trkpt lat="45.5508" lon="2.31053">
        <ele>686</ele>
        <time>2019-05-18T18:34:46Z</time>
      </trkpt>
      <trkpt lat="45.55078" lon="2.31052">
        <ele>686</ele>
        <time>2019-05-18T18:34:47Z</time>
      </trkpt>
      <trkpt lat="45.55075" lon="2.31051">
        <ele>686</ele>
        <time>2019-05-18T18:34:48Z</time>
      </trkpt>
      <trkpt lat="45.55073" lon="2.3105">
        <ele>687</ele>
        <time>2019-05-18T18:34:49Z</time>
      </trkpt>
      <trkpt lat="45.5507" lon="2.31049">
        <ele>687</ele>
        <time>2019-05-18T18:34:50Z</time>
      </trkpt>
      <trkpt lat="45.55068" lon="2.31047">
        <ele>687</ele>
        <time>2019-05-18T18:34:51Z</time>
      </trkpt>
      <trkpt lat="45.55066" lon="2.31046">
        <ele>687</ele>
        <time>2019-05-18T18:34:52Z</time>
      </trkpt>
      <trkpt lat="45.55063" lon="2.31045">
        <ele>687</ele>
        <time>2019-05-18T18:34:53Z</time>
      </trkpt>
      <trkpt lat="45.55061" lon="2.31043">
        <ele>687</ele>
        <time>2019-05-18T18:34:54Z</time>
      </trkpt>
      <trkpt lat="45.55059" lon="2.31042">
        <ele>687</ele>
        <time>2019-05-18T18:34:55Z</time>
      </trkpt>
      <trkpt lat="45.55057" lon="2.3104">
        <ele>687</ele>
        <time>2019-05-18T18:34:56Z</time>
      </trkpt>
      <trkpt lat="45.55054" lon="2.31038">
        <ele>687</ele>
        <time>2019-05-18T18:34:57Z</time>
      </trkpt>
      <trkpt lat="45.55052" lon="2.31036">
        <ele>687</ele>
        <time>2019-05-18T18:34:58Z</time>
      </trkpt>
      <trkpt lat="45.5505" lon="2.31034">
        <ele>687</ele>
        <time>2019-05-18T18:34:59Z</time>
      </trkpt>
      <trkpt lat="45.55048" lon="2.31032">
        <ele>687</ele>
        <time>2019-05-18T18:35:00Z</time>
      </trkpt>
      <trkpt lat="45.55046" lon="2.31029">
        <ele>687</ele>
        <time>2019-05-18T18:35:01Z</time>
      </trkpt>
      <trkpt lat="45.55044" lon="2.31027">
        <ele>687</ele>
        <time>2019-05-18T18:35:02Z</time>
      </trkpt>
      <trkpt lat="45.55042" lon="2.31025">
        <ele>687</ele>
        <time>2019-05-18T18:35:03Z</time>
      </trkpt>
      <trkpt lat="45.55041" lon="2.31023">
        <ele>687</ele>
        <time>2019-05-18T18:35:04Z</time>
      </trkpt>
      <trkpt lat="45.55039" lon="2.3102">
        <ele>688</ele>
        <time>2019-05-18T18:35:05Z</time>
      </trkpt>
      <trkpt lat="45.55037" lon="2.31017">
        <ele>688</ele>
        <time>2019-05-18T18:35:06Z</time>
      </trkpt>
      <trkpt lat="45.55035" lon="2.31015">
        <ele>688</ele>
        <time>2019-05-18T18:35:07Z</time>
      </trkpt>
      <trkpt lat="45.55033" lon="2.31012">
        <ele>688</ele>
        <time>2019-05-18T18:35:08Z</time>
      </trkpt>
      <trkpt lat="45.55032" lon="2.31009">
        <ele>688</ele>
        <time>2019-05-18T18:35:09Z</time>
      </trkpt>
      <trkpt lat="45.5503" lon="2.31006">
        <ele>688</ele>
        <time>2019-05-18T18:35:10Z</time>
      </trkpt>
      <trkpt lat="45.55029" lon="2.31003">
        <ele>688</ele>
        <time>2019-05-18T18:35:11Z</time>
      </trkpt>
      <trkpt lat="45.55027" lon="2.31">
        <ele>688</ele>
        <time>2019-05-18T18:35:12Z</time>
      </trkpt>
      <trkpt lat="45.55026" lon="2.30997">
        <ele>688</ele>
        <time>2019-05-18T18:35:13Z</time>
      </trkpt>
      <trkpt lat="45.55024" lon="2.30994">
        <ele>688</ele>
        <time>2019-05-18T18:35:14Z</time>
      </trkpt>
      <trkpt lat="45.55023" lon="2.30991">
        <ele>688</ele>
        <time>2019-05-18T18:35:15Z</time>
      </trkpt>
      <trkpt lat="45.55022" lon="2.30988">
        <ele>688</ele>
        <time>2019-05-18T18:35:16Z</time>
      </trkpt>
      <trkpt lat="45.5502" lon="2.30984">
        <ele>688</ele>
        <time>2019-05-18T18:35:17Z</time>
      </trkpt>
      <trkpt lat="45.55019" lon="2.30981">
        <ele>688</ele>
        <time>2019-05-18T18:35:18Z</time>
      </trkpt>
      <trkpt lat="45.55018" lon="2.30977">
        <ele>688</ele>
        <time>2019-05-18T18:35:19Z</time>
      </trkpt>
      <trkpt lat="45.55017" lon="2.30973">
        <ele>688</ele>
        <time>2019-05-18T18:35:20Z</time>
      </trkpt>
      <trkpt lat="45.55018" lon="2.30969">
        <ele>688</ele>
        <time>2019-05-18T18:35:21Z</time>
      </trkpt>
      <trkpt lat="45.5502" lon="2.30966">
        <ele>688</ele>
        <time>2019-05-18T18:35:22Z</time>
      </trkpt>
      <trkpt lat="45.55022" lon="2.30963">
        <ele>688</ele>
        <time>2019-05-18T18:35:23Z</time>
      </trkpt>
      <trkpt lat="45.55024" lon="2.3096">
        <ele>688</ele>
        <time>2019-05-18T18:35:24Z</time>
      </trkpt>
      <trkpt lat="45.55026" lon="2.30958">
        <ele>688</ele>
        <time>2019-05-18T18:35:25Z</time>
      </trkpt>
      <trkpt lat="45.55028" lon="2.30956">
        <ele>688</ele>
        <time>2019-05-18T18:35:26Z</time>
      </trkpt>
      <trkpt lat="45.5503" lon="2.30954">
        <ele>689</ele>
        <time>2019-05-18T18:35:27Z</time>
      </trkpt>
      <trkpt lat="45.55031" lon="2.30953">
        <ele>689</ele>
        <time>2019-05-18T18:35:28Z</time>
      </trkpt>
      <trkpt lat="45.55033" lon="2.30951">
        <ele>689</ele>
        <time>2019-05-18T18:35:29Z</time>
      </trkpt>
      <trkpt lat="45.55035" lon="2.30949">
        <ele>689</ele>
        <time>2019-05-18T18:35:30Z</time>
      </trkpt>
      <trkpt lat="45.55037" lon="2.30948">
        <ele>689</ele>
        <time>2019-05-18T18:35:31Z</time>
      </trkpt>
      <trkpt lat="45.55038" lon="2.30946">
        <ele>689</ele>
        <time>2019-05-18T18:35:32Z</time>
      </trkpt>
      <trkpt lat="45.5504" lon="2.30944">
        <ele>690</ele>
        <time>2019-05-18T18:35:33Z</time>
      </trkpt>
      <trkpt lat="45.55042" lon="2.30943">
        <ele>690</ele>
        <time>2019-05-18T18:35:34Z</time>
      </trkpt>
      <trkpt lat="45.55043" lon="2.30941">
        <ele>690</ele>
        <time>2019-05-18T18:35:35Z</time>
      </trkpt>
      <trkpt lat="45.55045" lon="2.30939">
        <ele>690</ele>
        <time>2019-05-18T18:35:36Z</time>
      </trkpt>
      <trkpt lat="45.55047" lon="2.30938">
        <ele>690</ele>
        <time>2019-05-18T18:35:37Z</time>
      </trkpt>
      <trkpt lat="45.55048" lon="2.30936">
        <ele>690</ele>
        <time>2019-05-18T18:35:38Z</time>
      </trkpt>
      <trkpt lat="45.5505" lon="2.30935">
        <ele>691</ele>
        <time>2019-05-18T18:35:39Z</time>
      </trkpt>
      <trkpt lat="45.55051" lon="2.30934">
        <ele>691</ele>
        <time>2019-05-18T18:35:40Z</time>
      </trkpt>
      <trkpt lat="45.55052" lon="2.30932">
        <ele>691</ele>
        <time>2019-05-18T18:35:41Z</time>
      </trkpt>
      <trkpt lat="45.55054" lon="2.30931">
        <ele>691</ele>
        <time>2019-05-18T18:35:42Z</time>
      </trkpt>
      <trkpt lat="45.55055" lon="2.30929">
        <ele>692</ele>
        <time>2019-05-18T18:35:43Z</time>
      </trkpt>
      <trkpt lat="45.55057" lon="2.30928">
        <ele>692</ele>
        <time>2019-05-18T18:35:44Z</time>
      </trkpt>
      <trkpt lat="45.55058" lon="2.30926">
        <ele>692</ele>
        <time>2019-05-18T18:35:45Z</time>
      </trkpt>
      <trkpt lat="45.5506" lon="2.30925">
        <ele>692</ele>
        <time>2019-05-18T18:35:46Z</time>
      </trkpt>
      <trkpt lat="45.55061" lon="2.30924">
        <ele>693</ele>
        <time>2019-05-18T18:35:47Z</time>
      </trkpt>
      <trkpt lat="45.55062" lon="2.30922">
        <ele>693</ele>
        <time>2019-05-18T18:35:48Z</time>
      </trkpt>
      <trkpt lat="45.55064" lon="2.30921">
        <ele>693</ele>
        <time>2019-05-18T18:35:49Z</time>
      </trkpt>
      <trkpt lat="45.55065" lon="2.30918">
        <ele>693</ele>
        <time>2019-05-18T18:35:50Z</time>
      </trkpt>
      <trkpt lat="45.55067" lon="2.30917">
        <ele>694</ele>
        <time>2019-05-18T18:35:51Z</time>
      </trkpt>
      <trkpt lat="45.55068" lon="2.30916">
        <ele>694</ele>
        <time>2019-05-18T18:35:52Z</time>
      </trkpt>
      <trkpt lat="45.5507" lon="2.30915">
        <ele>694</ele>
        <time>2019-05-18T18:35:53Z</time>
      </trkpt>
      <trkpt lat="45.55071" lon="2.30913">
        <ele>694</ele>
        <time>2019-05-18T18:35:54Z</time>
      </trkpt>
      <trkpt lat="45.55072" lon="2.30912">
        <ele>694</ele>
        <time>2019-05-18T18:35:55Z</time>
      </trkpt>
      <trkpt lat="45.55073" lon="2.30911">
        <ele>695</ele>
        <time>2019-05-18T18:35:56Z</time>
      </trkpt>
      <trkpt lat="45.55075" lon="2.30909">
        <ele>695</ele>
        <time>2019-05-18T18:35:57Z</time>
      </trkpt>
      <trkpt lat="45.55076" lon="2.30908">
        <ele>695</ele>
        <time>2019-05-18T18:35:58Z</time>
      </trkpt>
      <trkpt lat="45.55077" lon="2.30906">
        <ele>695</ele>
        <time>2019-05-18T18:35:59Z</time>
      </trkpt>
      <trkpt lat="45.55078" lon="2.30905">
        <ele>696</ele>
        <time>2019-05-18T18:36:00Z</time>
      </trkpt>
      <trkpt lat="45.55079" lon="2.30903">
        <ele>696</ele>
        <time>2019-05-18T18:36:01Z</time>
      </trkpt>
      <trkpt lat="45.5508" lon="2.30901">
        <ele>696</ele>
        <time>2019-05-18T18:36:02Z</time>
      </trkpt>
      <trkpt lat="45.55081" lon="2.309">
        <ele>696</ele>
        <time>2019-05-18T18:36:03Z</time>
      </trkpt>
      <trkpt lat="45.55082" lon="2.30898">
        <ele>697</ele>
        <time>2019-05-18T18:36:04Z</time>
      </trkpt>
      <trkpt lat="45.55083" lon="2.30896">
        <ele>697</ele>
        <time>2019-05-18T18:36:05Z</time>
      </trkpt>
      <trkpt lat="45.55084" lon="2.30895">
        <ele>697</ele>
        <time>2019-05-18T18:36:06Z</time>
      </trkpt>
      <trkpt lat="45.55085" lon="2.30893">
        <ele>697</ele>
        <time>2019-05-18T18:36:07Z</time>
      </trkpt>
      <trkpt lat="45.55085" lon="2.30891">
        <ele>697</ele>
        <time>2019-05-18T18:36:08Z</time>
      </trkpt>
      <trkpt lat="45.55086" lon="2.30889">
        <ele>698</ele>
        <time>2019-05-18T18:36:09Z</time>
      </trkpt>
      <trkpt lat="45.55087" lon="2.30887">
        <ele>698</ele>
        <time>2019-05-18T18:36:10Z</time>
      </trkpt>
      <trkpt lat="45.55088" lon="2.30885">
        <ele>698</ele>
        <time>2019-05-18T18:36:11Z</time>
      </trkpt>
      <trkpt lat="45.55088" lon="2.30883">
        <ele>698</ele>
        <time>2019-05-18T18:36:12Z</time>
      </trkpt>
      <trkpt lat="45.55089" lon="2.3088">
        <ele>698</ele>
        <time>2019-05-18T18:36:13Z</time>
      </trkpt>
      <trkpt lat="45.55089" lon="2.30878">
        <ele>699</ele>
        <time>2019-05-18T18:36:14Z</time>
      </trkpt>
      <trkpt lat="45.55089" lon="2.30876">
        <ele>699</ele>
        <time>2019-05-18T18:36:15Z</time>
      </trkpt>
      <trkpt lat="45.55089" lon="2.30874">
        <ele>699</ele>
        <time>2019-05-18T18:36:16Z</time>
      </trkpt>
      <trkpt lat="45.55088" lon="2.30872">
        <ele>699</ele>
        <time>2019-05-18T18:36:17Z</time>
      </trkpt>
      <trkpt lat="45.55087" lon="2.3087">
        <ele>699</ele>
        <time>2019-05-18T18:36:18Z</time>
      </trkpt>
      <trkpt lat="45.55086" lon="2.30869">
        <ele>700</ele>
        <time>2019-05-18T18:36:19Z</time>
      </trkpt>
      <trkpt lat="45.55084" lon="2.30869">
        <ele>700</ele>
        <time>2019-05-18T18:36:20Z</time>
      </trkpt>
      <trkpt lat="45.55082" lon="2.30868">
        <ele>700</ele>
        <time>2019-05-18T18:36:21Z</time>
      </trkpt>
      <trkpt lat="45.5508" lon="2.30867">
        <ele>700</ele>
        <time>2019-05-18T18:36:22Z</time>
      </trkpt>
      <trkpt lat="45.55078" lon="2.30866">
        <ele>699</ele>
        <time>2019-05-18T18:36:23Z</time>
      </trkpt>
      <trkpt lat="45.55076" lon="2.30866">
        <ele>699</ele>
        <time>2019-05-18T18:36:24Z</time>
      </trkpt>
      <trkpt lat="45.55074" lon="2.30865">
        <ele>699</ele>
        <time>2019-05-18T18:36:25Z</time>
      </trkpt>
      <trkpt lat="45.55071" lon="2.30864">
        <ele>699</ele>
        <time>2019-05-18T18:36:26Z</time>
      </trkpt>
      <trkpt lat="45.55069" lon="2.30863">
        <ele>699</ele>
        <time>2019-05-18T18:36:27Z</time>
      </trkpt>
      <trkpt lat="45.55067" lon="2.30863">
        <ele>699</ele>
        <time>2019-05-18T18:36:28Z</time>
      </trkpt>
      <trkpt lat="45.55065" lon="2.30862">
        <ele>699</ele>
        <time>2019-05-18T18:36:29Z</time>
      </trkpt>
      <trkpt lat="45.55062" lon="2.30862">
        <ele>699</ele>
        <time>2019-05-18T18:36:30Z</time>
      </trkpt>
      <trkpt lat="45.55059" lon="2.30861">
        <ele>699</ele>
        <time>2019-05-18T18:36:31Z</time>
      </trkpt>
      <trkpt lat="45.55056" lon="2.3086">
        <ele>699</ele>
        <time>2019-05-18T18:36:32Z</time>
      </trkpt>
      <trkpt lat="45.55053" lon="2.30859">
        <ele>699</ele>
        <time>2019-05-18T18:36:33Z</time>
      </trkpt>
      <trkpt lat="45.5505" lon="2.30858">
        <ele>699</ele>
        <time>2019-05-18T18:36:34Z</time>
      </trkpt>
      <trkpt lat="45.55047" lon="2.30857">
        <ele>698</ele>
        <time>2019-05-18T18:36:35Z</time>
      </trkpt>
      <trkpt lat="45.55044" lon="2.30856">
        <ele>698</ele>
        <time>2019-05-18T18:36:36Z</time>
      </trkpt>
      <trkpt lat="45.55042" lon="2.30855">
        <ele>698</ele>
        <time>2019-05-18T18:36:37Z</time>
      </trkpt>
      <trkpt lat="45.55039" lon="2.30854">
        <ele>698</ele>
        <time>2019-05-18T18:36:38Z</time>
      </trkpt>
      <trkpt lat="45.55036" lon="2.30852">
        <ele>698</ele>
        <time>2019-05-18T18:36:39Z</time>
      </trkpt>
      <trkpt lat="45.55033" lon="2.30851">
        <ele>698</ele>
        <time>2019-05-18T18:36:40Z</time>
      </trkpt>
      <trkpt lat="45.5503" lon="2.3085">
        <ele>698</ele>
        <time>2019-05-18T18:36:41Z</time>
      </trkpt>
      <trkpt lat="45.55028" lon="2.30848">
        <ele>698</ele>
        <time>2019-05-18T18:36:42Z</time>
      </trkpt>
      <trkpt lat="45.55026" lon="2.30847">
        <ele>698</ele>
        <time>2019-05-18T18:36:43Z</time>
      </trkpt>
      <trkpt lat="45.55023" lon="2.30845">
        <ele>698</ele>
        <time>2019-05-18T18:36:44Z</time>
      </trkpt>
      <trkpt lat="45.55021" lon="2.30843">
        <ele>698</ele>
        <time>2019-05-18T18:36:45Z</time>
      </trkpt>
      <trkpt lat="45.55018" lon="2.30841">
        <ele>698</ele>
        <time>2019-05-18T18:36:46Z</time>
      </trkpt>
      <trkpt lat="45.55016" lon="2.30839">
        <ele>698</ele>
        <time>2019-05-18T18:36:47Z</time>
      </trkpt>
      <trkpt lat="45.55014" lon="2.30836">
        <ele>698</ele>
        <time>2019-05-18T18:36:48Z</time>
      </trkpt>
      <trkpt lat="45.55011" lon="2.30834">
        <ele>698</ele>
        <time>2019-05-18T18:36:49Z</time>
      </trkpt>
      <trkpt lat="45.55009" lon="2.30831">
        <ele>698</ele>
        <time>2019-05-18T18:36:50Z</time>
      </trkpt>
      <trkpt lat="45.55008" lon="2.30829">
        <ele>698</ele>
        <time>2019-05-18T18:36:51Z</time>
      </trkpt>
      <trkpt lat="45.55006" lon="2.30826">
        <ele>698</ele>
        <time>2019-05-18T18:36:52Z</time>
      </trkpt>
      <trkpt lat="45.55005" lon="2.30825">
        <ele>698</ele>
        <time>2019-05-18T18:36:53Z</time>
      </trkpt>
      <trkpt lat="45.55003" lon="2.30825">
        <ele>698</ele>
        <time>2019-05-18T18:36:54Z</time>
      </trkpt>
      <trkpt lat="45.55002" lon="2.30823">
        <ele>698</ele>
        <time>2019-05-18T18:36:55Z</time>
      </trkpt>
      <trkpt lat="45.55" lon="2.30821">
        <ele>698</ele>
        <time>2019-05-18T18:36:56Z</time>
      </trkpt>
      <trkpt lat="45.54999" lon="2.30818">
        <ele>698</ele>
        <time>2019-05-18T18:36:57Z</time>
      </trkpt>
      <trkpt lat="45.54997" lon="2.30815">
        <ele>698</ele>
        <time>2019-05-18T18:36:58Z</time>
      </trkpt>
      <trkpt lat="45.54996" lon="2.30812">
        <ele>698</ele>
        <time>2019-05-18T18:36:59Z</time>
      </trkpt>
      <trkpt lat="45.54995" lon="2.30809">
        <ele>698</ele>
        <time>2019-05-18T18:37:00Z</time>
      </trkpt>
      <trkpt lat="45.54993" lon="2.30806">
        <ele>698</ele>
        <time>2019-05-18T18:37:01Z</time>
      </trkpt>
      <trkpt lat="45.54992" lon="2.30802">
        <ele>698</ele>
        <time>2019-05-18T18:37:02Z</time>
      </trkpt>
      <trkpt lat="45.5499" lon="2.30799">
        <ele>698</ele>
        <time>2019-05-18T18:37:03Z</time>
      </trkpt>
      <trkpt lat="45.54989" lon="2.30794">
        <ele>698</ele>
        <time>2019-05-18T18:37:04Z</time>
      </trkpt>
      <trkpt lat="45.54987" lon="2.3079">
        <ele>697</ele>
        <time>2019-05-18T18:37:05Z</time>
      </trkpt>
      <trkpt lat="45.54986" lon="2.30785">
        <ele>697</ele>
        <time>2019-05-18T18:37:06Z</time>
      </trkpt>
      <trkpt lat="45.54984" lon="2.3078">
        <ele>697</ele>
        <time>2019-05-18T18:37:07Z</time>
      </trkpt>
      <trkpt lat="45.54982" lon="2.30775">
        <ele>697</ele>
        <time>2019-05-18T18:37:08Z</time>
      </trkpt>
      <trkpt lat="45.54981" lon="2.30769">
        <ele>696</ele>
        <time>2019-05-18T18:37:09Z</time>
      </trkpt>
      <trkpt lat="45.54979" lon="2.30763">
        <ele>696</ele>
        <time>2019-05-18T18:37:10Z</time>
      </trkpt>
      <trkpt lat="45.54977" lon="2.30759">
        <ele>695</ele>
        <time>2019-05-18T18:37:11Z</time>
      </trkpt>
      <trkpt lat="45.54977" lon="2.30755">
        <ele>695</ele>
        <time>2019-05-18T18:37:12Z</time>
      </trkpt>
      <trkpt lat="45.54976" lon="2.30752">
        <ele>695</ele>
        <time>2019-05-18T18:37:13Z</time>
      </trkpt>
      <trkpt lat="45.54977" lon="2.30749">
        <ele>695</ele>
        <time>2019-05-18T18:37:14Z</time>
      </trkpt>
      <trkpt lat="45.54978" lon="2.30746">
        <ele>695</ele>
        <time>2019-05-18T18:37:15Z</time>
      </trkpt>
      <trkpt lat="45.54979" lon="2.30743">
        <ele>695</ele>
        <time>2019-05-18T18:37:16Z</time>
      </trkpt>
      <trkpt lat="45.54981" lon="2.3074">
        <ele>695</ele>
        <time>2019-05-18T18:37:17Z</time>
      </trkpt>
      <trkpt lat="45.54982" lon="2.30736">
        <ele>696</ele>
        <time>2019-05-18T18:37:18Z</time>
      </trkpt>
      <trkpt lat="45.54983" lon="2.30732">
        <ele>696</ele>
        <time>2019-05-18T18:37:19Z</time>
      </trkpt>
      <trkpt lat="45.54985" lon="2.30729">
        <ele>696</ele>
        <time>2019-05-18T18:37:20Z</time>
      </trkpt>
      <trkpt lat="45.54986" lon="2.30725">
        <ele>696</ele>
        <time>2019-05-18T18:37:21Z</time>
      </trkpt>
      <trkpt lat="45.54987" lon="2.30721">
        <ele>696</ele>
        <time>2019-05-18T18:37:22Z</time>
      </trkpt>
      <trkpt lat="45.54987" lon="2.30717">
        <ele>697</ele>
        <time>2019-05-18T18:37:23Z</time>
      </trkpt>
      <trkpt lat="45.54987" lon="2.30713">
        <ele>697</ele>
        <time>2019-05-18T18:37:24Z</time>
      </trkpt>
      <trkpt lat="45.54986" lon="2.30709">
        <ele>697</ele>
        <time>2019-05-18T18:37:25Z</time>
      </trkpt>
      <trkpt lat="45.54983" lon="2.30707">
        <ele>697</ele>
        <time>2019-05-18T18:37:26Z</time>
      </trkpt>
      <trkpt lat="45.5498" lon="2.30705">
        <ele>697</ele>
        <time>2019-05-18T18:37:27Z</time>
      </trkpt>
      <trkpt lat="45.54977" lon="2.30703">
        <ele>697</ele>
        <time>2019-05-18T18:37:28Z</time>
      </trkpt>
      <trkpt lat="45.54974" lon="2.30701">
        <ele>697</ele>
        <time>2019-05-18T18:37:29Z</time>
      </trkpt>
      <trkpt lat="45.54971" lon="2.30699">
        <ele>697</ele>
        <time>2019-05-18T18:37:30Z</time>
      </trkpt>
      <trkpt lat="45.54968" lon="2.30697">
        <ele>697</ele>
        <time>2019-05-18T18:37:31Z</time>
      </trkpt>
      <trkpt lat="45.54965" lon="2.30694">
        <ele>697</ele>
        <time>2019-05-18T18:37:32Z</time>
      </trkpt>
      <trkpt lat="45.54961" lon="2.30692">
        <ele>697</ele>
        <time>2019-05-18T18:37:33Z</time>
      </trkpt>
      <trkpt lat="45.54958" lon="2.3069">
        <ele>697</ele>
        <time>2019-05-18T18:37:34Z</time>
      </trkpt>
      <trkpt lat="45.54955" lon="2.30687">
        <ele>697</ele>
        <time>2019-05-18T18:37:35Z</time>
      </trkpt>
      <trkpt lat="45.54951" lon="2.30684">
        <ele>697</ele>
        <time>2019-05-18T18:37:36Z</time>
      </trkpt>
      <trkpt lat="45.54947" lon="2.30682">
        <ele>697</ele>
        <time>2019-05-18T18:37:37Z</time>
      </trkpt>
      <trkpt lat="45.54944" lon="2.30679">
        <ele>697</ele>
        <time>2019-05-18T18:37:38Z</time>
      </trkpt>
      <trkpt lat="45.54941" lon="2.30677">
        <ele>697</ele>
        <time>2019-05-18T18:37:39Z</time>
      </trkpt>
      <trkpt lat="45.54937" lon="2.30674">
        <ele>697</ele>
        <time>2019-05-18T18:37:40Z</time>
      </trkpt>
      <trkpt lat="45.54933" lon="2.30672">
        <ele>697</ele>
        <time>2019-05-18T18:37:41Z</time>
      </trkpt>
      <trkpt lat="45.5493" lon="2.3067">
        <ele>699</ele>
        <time>2019-05-18T18:37:42Z</time>
      </trkpt>
      <trkpt lat="45.54926" lon="2.30667">
        <ele>697</ele>
        <time>2019-05-18T18:37:43Z</time>
      </trkpt>
      <trkpt lat="45.54923" lon="2.30665">
        <ele>697</ele>
        <time>2019-05-18T18:37:44Z</time>
      </trkpt>
      <trkpt lat="45.54919" lon="2.30662">
        <ele>697</ele>
        <time>2019-05-18T18:37:45Z</time>
      </trkpt>
      <trkpt lat="45.54916" lon="2.30659">
        <ele>697</ele>
        <time>2019-05-18T18:37:46Z</time>
      </trkpt>
      <trkpt lat="45.54912" lon="2.30656">
        <ele>697</ele>
        <time>2019-05-18T18:37:47Z</time>
      </trkpt>
      <trkpt lat="45.54909" lon="2.30653">
        <ele>696</ele>
        <time>2019-05-18T18:37:48Z</time>
      </trkpt>
      <trkpt lat="45.54906" lon="2.3065">
        <ele>696</ele>
        <time>2019-05-18T18:37:49Z</time>
      </trkpt>
      <trkpt lat="45.54903" lon="2.30646">
        <ele>696</ele>
        <time>2019-05-18T18:37:50Z</time>
      </trkpt>
      <trkpt lat="45.54899" lon="2.30643">
        <ele>696</ele>
        <time>2019-05-18T18:37:51Z</time>
      </trkpt>
      <trkpt lat="45.54896" lon="2.3064">
        <ele>696</ele>
        <time>2019-05-18T18:37:52Z</time>
      </trkpt>
      <trkpt lat="45.54894" lon="2.30636">
        <ele>696</ele>
        <time>2019-05-18T18:37:53Z</time>
      </trkpt>
      <trkpt lat="45.54891" lon="2.30632">
        <ele>696</ele>
        <time>2019-05-18T18:37:54Z</time>
      </trkpt>
      <trkpt lat="45.54888" lon="2.30629">
        <ele>696</ele>
        <time>2019-05-18T18:37:55Z</time>
      </trkpt>
      <trkpt lat="45.54885" lon="2.30625">
        <ele>696</ele>
        <time>2019-05-18T18:37:56Z</time>
      </trkpt>
      <trkpt lat="45.54882" lon="2.3062">
        <ele>696</ele>
        <time>2019-05-18T18:37:57Z</time>
      </trkpt>
      <trkpt lat="45.54879" lon="2.30616">
        <ele>696</ele>
        <time>2019-05-18T18:37:58Z</time>
      </trkpt>
      <trkpt lat="45.54876" lon="2.30612">
        <ele>696</ele>
        <time>2019-05-18T18:37:59Z</time>
      </trkpt>
      <trkpt lat="45.54873" lon="2.30608">
        <ele>696</ele>
        <time>2019-05-18T18:38:00Z</time>
      </trkpt>
      <trkpt lat="45.5487" lon="2.30603">
        <ele>696</ele>
        <time>2019-05-18T18:38:01Z</time>
      </trkpt>
      <trkpt lat="45.54866" lon="2.30599">
        <ele>696</ele>
        <time>2019-05-18T18:38:02Z</time>
      </trkpt>
      <trkpt lat="45.54863" lon="2.30595">
        <ele>696</ele>
        <time>2019-05-18T18:38:03Z</time>
      </trkpt>
      <trkpt lat="45.54861" lon="2.3059">
        <ele>695</ele>
        <time>2019-05-18T18:38:04Z</time>
      </trkpt>
      <trkpt lat="45.54858" lon="2.30585">
        <ele>695</ele>
        <time>2019-05-18T18:38:05Z</time>
      </trkpt>
      <trkpt lat="45.54855" lon="2.30581">
        <ele>695</ele>
        <time>2019-05-18T18:38:06Z</time>
      </trkpt>
      <trkpt lat="45.54852" lon="2.30576">
        <ele>695</ele>
        <time>2019-05-18T18:38:07Z</time>
      </trkpt>
      <trkpt lat="45.54849" lon="2.30571">
        <ele>695</ele>
        <time>2019-05-18T18:38:08Z</time>
      </trkpt>
      <trkpt lat="45.54846" lon="2.30567">
        <ele>695</ele>
        <time>2019-05-18T18:38:09Z</time>
      </trkpt>
      <trkpt lat="45.54843" lon="2.30562">
        <ele>696</ele>
        <time>2019-05-18T18:38:10Z</time>
      </trkpt>
      <trkpt lat="45.5484" lon="2.30557">
        <ele>695</ele>
        <time>2019-05-18T18:38:11Z</time>
      </trkpt>
      <trkpt lat="45.54837" lon="2.30552">
        <ele>695</ele>
        <time>2019-05-18T18:38:12Z</time>
      </trkpt>
      <trkpt lat="45.54835" lon="2.30548">
        <ele>695</ele>
        <time>2019-05-18T18:38:13Z</time>
      </trkpt>
      <trkpt lat="45.54832" lon="2.30544">
        <ele>695</ele>
        <time>2019-05-18T18:38:14Z</time>
      </trkpt>
      <trkpt lat="45.54829" lon="2.3054">
        <ele>695</ele>
        <time>2019-05-18T18:38:15Z</time>
      </trkpt>
      <trkpt lat="45.54826" lon="2.30536">
        <ele>695</ele>
        <time>2019-05-18T18:38:16Z</time>
      </trkpt>
      <trkpt lat="45.54823" lon="2.30532">
        <ele>695</ele>
        <time>2019-05-18T18:38:17Z</time>
      </trkpt>
      <trkpt lat="45.5482" lon="2.30528">
        <ele>695</ele>
        <time>2019-05-18T18:38:18Z</time>
      </trkpt>
      <trkpt lat="45.54817" lon="2.30524">
        <ele>695</ele>
        <time>2019-05-18T18:38:19Z</time>
      </trkpt>
      <trkpt lat="45.54815" lon="2.3052">
        <ele>695</ele>
        <time>2019-05-18T18:38:20Z</time>
      </trkpt>
      <trkpt lat="45.54812" lon="2.30516">
        <ele>695</ele>
        <time>2019-05-18T18:38:21Z</time>
      </trkpt>
      <trkpt lat="45.54809" lon="2.30511">
        <ele>694</ele>
        <time>2019-05-18T18:38:22Z</time>
      </trkpt>
      <trkpt lat="45.54806" lon="2.30505">
        <ele>694</ele>
        <time>2019-05-18T18:38:23Z</time>
      </trkpt>
      <trkpt lat="45.54802" lon="2.30498">
        <ele>693</ele>
        <time>2019-05-18T18:38:24Z</time>
      </trkpt>
      <trkpt lat="45.54798" lon="2.30491">
        <ele>692</ele>
        <time>2019-05-18T18:38:25Z</time>
      </trkpt>
      <trkpt lat="45.54794" lon="2.30483">
        <ele>692</ele>
        <time>2019-05-18T18:38:26Z</time>
      </trkpt>
      <trkpt lat="45.5479" lon="2.30475">
        <ele>691</ele>
        <time>2019-05-18T18:38:27Z</time>
      </trkpt>
      <trkpt lat="45.54786" lon="2.30467">
        <ele>690</ele>
        <time>2019-05-18T18:38:28Z</time>
      </trkpt>
      <trkpt lat="45.54781" lon="2.30458">
        <ele>690</ele>
        <time>2019-05-18T18:38:29Z</time>
      </trkpt>
      <trkpt lat="45.54776" lon="2.3045">
        <ele>690</ele>
        <time>2019-05-18T18:38:30Z</time>
      </trkpt>
      <trkpt lat="45.54772" lon="2.30443">
        <ele>690</ele>
        <time>2019-05-18T18:38:31Z</time>
      </trkpt>
      <trkpt lat="45.54769" lon="2.30438">
        <ele>690</ele>
        <time>2019-05-18T18:38:32Z</time>
      </trkpt>
      <trkpt lat="45.54767" lon="2.30435">
        <ele>690</ele>
        <time>2019-05-18T18:38:33Z</time>
      </trkpt>
      <trkpt lat="45.54765" lon="2.30435">
        <ele>690</ele>
        <time>2019-05-18T18:38:34Z</time>
      </trkpt>
      <trkpt lat="45.54763" lon="2.30437">
        <ele>690</ele>
        <time>2019-05-18T18:38:35Z</time>
      </trkpt>
      <trkpt lat="45.54763" lon="2.30437">
        <ele>690</ele>
        <time>2019-05-18T18:38:36Z</time>
      </trkpt>
      <trkpt lat="45.54763" lon="2.30437">
        <ele>690</ele>
        <time>2019-05-18T18:38:37Z</time>
      </trkpt>
      <trkpt lat="45.54763" lon="2.30437">
        <ele>690</ele>
        <time>2019-05-18T18:38:38Z</time>
      </trkpt>
      <trkpt lat="45.54762" lon="2.30437">
        <ele>690</ele>
        <time>2019-05-18T18:38:39Z</time>
      </trkpt>
      <trkpt lat="45.54762" lon="2.30437">
        <ele>690</ele>
        <time>2019-05-18T18:38:40Z</time>
      </trkpt>
      <trkpt lat="45.54762" lon="2.30437">
        <ele>689</ele>
        <time>2019-05-18T18:38:41Z</time>
      </trkpt>
      <trkpt lat="45.54762" lon="2.30436">
        <ele>690</ele>
        <time>2019-05-18T18:38:42Z</time>
      </trkpt>
      <trkpt lat="45.54762" lon="2.30436">
        <ele>690</ele>
        <time>2019-05-18T18:38:43Z</time>
      </trkpt>
      <trkpt lat="45.54748" lon="2.30436">
        <ele>690</ele>
        <time>2019-05-18T18:39:03Z</time>
      </trkpt>
      <trkpt lat="45.54747" lon="2.3044">
        <ele>689</ele>
        <time>2019-05-18T18:39:04Z</time>
      </trkpt>
      <trkpt lat="45.54747" lon="2.30444">
        <ele>689</ele>
        <time>2019-05-18T18:39:05Z</time>
      </trkpt>
      <trkpt lat="45.54749" lon="2.30448">
        <ele>689</ele>
        <time>2019-05-18T18:39:06Z</time>
      </trkpt>
      <trkpt lat="45.54751" lon="2.30451">
        <ele>689</ele>
        <time>2019-05-18T18:39:07Z</time>
      </trkpt>
      <trkpt lat="45.54753" lon="2.30452">
        <ele>689</ele>
        <time>2019-05-18T18:39:08Z</time>
      </trkpt>
      <trkpt lat="45.54753" lon="2.30452">
        <ele>689</ele>
        <time>2019-05-18T18:39:09Z</time>
      </trkpt>
      <trkpt lat="45.54753" lon="2.30452">
        <ele>689</ele>
        <time>2019-05-18T18:39:10Z</time>
      </trkpt>
      <trkpt lat="45.54753" lon="2.30452">
        <ele>689</ele>
        <time>2019-05-18T18:39:11Z</time>
      </trkpt>
      <trkpt lat="45.54753" lon="2.30452">
        <ele>689</ele>
        <time>2019-05-18T18:39:12Z</time>
      </trkpt>
      <trkpt lat="45.54753" lon="2.30453">
        <ele>689</ele>
        <time>2019-05-18T18:39:13Z</time>
      </trkpt>
      <trkpt lat="45.54753" lon="2.30453">
        <ele>689</ele>
        <time>2019-05-18T18:39:14Z</time>
      </trkpt>
      <trkpt lat="45.54753" lon="2.30453">
        <ele>689</ele>
        <time>2019-05-18T18:39:15Z</time>
      </trkpt>
      <trkpt lat="45.54753" lon="2.30454">
        <ele>689</ele>
        <time>2019-05-18T18:39:16Z</time>
      </trkpt>
      <trkpt lat="45.54741" lon="2.30466">
        <ele>688</ele>
        <time>2019-05-18T18:40:34Z</time>
      </trkpt>
      <trkpt lat="45.54741" lon="2.30467">
        <ele>691</ele>
        <time>2019-05-18T18:40:35Z</time>
      </trkpt>
      <trkpt lat="45.54741" lon="2.30467">
        <ele>679</ele>
        <time>2019-05-18T18:40:36Z</time>
      </trkpt>
      <trkpt lat="45.54741" lon="2.30467">
        <ele>686</ele>
        <time>2019-05-18T18:40:37Z</time>
      </trkpt>
      <trkpt lat="45.54741" lon="2.30467">
        <ele>690</ele>
        <time>2019-05-18T18:40:38Z</time>
      </trkpt>
    </trkseg>
  </trk>
</gpx>